<?xml version="1.0" encoding="UTF-8" standalone="no" ?>
<gpx xmlns="http://www.topografix.com/GPX/1/1" xmlns:xsi="http://www.w3.org/2001/XMLSchema-instance" xsi:schemaLocation="http://www.topografix.com/GPX/1/1 http://www.topografix.com/GPX/1/1/gpx.xsd" version="1.1" creator="VisuGPX - https://www.visugpx.com">
  <metadata>
    <name>De Tbilissi à Arménie</name>
  </metadata>
  <trk>
    <name><![CDATA[De Tbilissi à Arménie]]></name>
    <trkseg>
      <trkpt lat="41.70962" lon="44.80292">
        <ele>420.371898</ele>
        <time>2021-08-11T21:07:58.980Z</time>
      </trkpt>
      <trkpt lat="41.70942" lon="44.80306">
        <ele>420.371898</ele>
        <time>2021-08-11T21:08:04.825Z</time>
      </trkpt>
      <trkpt lat="41.70914" lon="44.80326">
        <ele>420.371898</ele>
        <time>2021-08-11T21:08:12.756Z</time>
      </trkpt>
      <trkpt lat="41.70894" lon="44.8034">
        <ele>420.371898</ele>
        <time>2021-08-11T21:08:18.595Z</time>
      </trkpt>
      <trkpt lat="41.70839" lon="44.80314">
        <ele>420.139005</ele>
        <time>2021-08-11T21:08:33.667Z</time>
      </trkpt>
      <trkpt lat="41.7079" lon="44.80288">
        <ele>419.871663</ele>
        <time>2021-08-11T21:08:47.353Z</time>
      </trkpt>
      <trkpt lat="41.70968" lon="44.80162">
        <ele>420.896157</ele>
        <time>2021-08-11T21:09:56.292Z</time>
      </trkpt>
      <trkpt lat="41.71008" lon="44.8026">
        <ele>422.167896</ele>
        <time>2021-08-11T21:10:34.217Z</time>
      </trkpt>
      <trkpt lat="41.71048" lon="44.80365">
        <ele>424.271526</ele>
        <time>2021-08-11T21:11:15.604Z</time>
      </trkpt>
      <trkpt lat="41.71039" lon="44.80372">
        <ele>424.529806</ele>
        <time>2021-08-11T21:11:20.617Z</time>
      </trkpt>
      <trkpt lat="41.71035" lon="44.80373">
        <ele>424.619045</ele>
        <time>2021-08-11T21:11:22.275Z</time>
      </trkpt>
      <trkpt lat="41.71032" lon="44.80376">
        <ele>424.707845</ele>
        <time>2021-08-11T21:11:23.946Z</time>
      </trkpt>
      <trkpt lat="41.71031" lon="44.8038">
        <ele>424.787357</ele>
        <time>2021-08-11T21:11:25.523Z</time>
      </trkpt>
      <trkpt lat="41.71036" lon="44.80395">
        <ele>425.078605</ele>
        <time>2021-08-11T21:11:31.053Z</time>
      </trkpt>
      <trkpt lat="41.71039" lon="44.80396">
        <ele>425.159583</ele>
        <time>2021-08-11T21:11:32.656Z</time>
      </trkpt>
      <trkpt lat="41.71066" lon="44.80392">
        <ele>425.82224</ele>
        <time>2021-08-11T21:11:44.583Z</time>
      </trkpt>
      <trkpt lat="41.71075" lon="44.8039">
        <ele>426.007608</ele>
        <time>2021-08-11T21:11:48.785Z</time>
      </trkpt>
      <trkpt lat="41.71111" lon="44.80381">
        <ele>426.576513</ele>
        <time>2021-08-11T21:12:04.043Z</time>
      </trkpt>
      <trkpt lat="41.71153" lon="44.80371">
        <ele>427.238693</ele>
        <time>2021-08-11T21:12:20.850Z</time>
      </trkpt>
      <trkpt lat="41.71156" lon="44.80371">
        <ele>427.283031</ele>
        <time>2021-08-11T21:12:21.913Z</time>
      </trkpt>
      <trkpt lat="41.71184" lon="44.80364">
        <ele>427.727768</ele>
        <time>2021-08-11T21:12:32.995Z</time>
      </trkpt>
      <trkpt lat="41.71211" lon="44.80357">
        <ele>428.166142</ele>
        <time>2021-08-11T21:12:43.694Z</time>
      </trkpt>
      <trkpt lat="41.71222" lon="44.80355">
        <ele>428.334234</ele>
        <time>2021-08-11T21:12:48.138Z</time>
      </trkpt>
      <trkpt lat="41.71284" lon="44.80335">
        <ele>429.162857</ele>
        <time>2021-08-11T21:13:11.880Z</time>
      </trkpt>
      <trkpt lat="41.71348" lon="44.80315">
        <ele>429.893035</ele>
        <time>2021-08-11T21:13:36.542Z</time>
      </trkpt>
      <trkpt lat="41.71407" lon="44.80295">
        <ele>430.574289</ele>
        <time>2021-08-11T21:13:58.728Z</time>
      </trkpt>
      <trkpt lat="41.71466" lon="44.80273">
        <ele>431.569291</ele>
        <time>2021-08-11T21:14:21.849Z</time>
      </trkpt>
      <trkpt lat="41.71504" lon="44.80259">
        <ele>432.279063</ele>
        <time>2021-08-11T21:14:37.349Z</time>
      </trkpt>
      <trkpt lat="41.71508" lon="44.80258">
        <ele>432.358129</ele>
        <time>2021-08-11T21:14:39.017Z</time>
      </trkpt>
      <trkpt lat="41.71518" lon="44.80254">
        <ele>432.549474</ele>
        <time>2021-08-11T21:14:43.078Z</time>
      </trkpt>
      <trkpt lat="41.71571" lon="44.8023">
        <ele>433.560381</ele>
        <time>2021-08-11T21:15:08.489Z</time>
      </trkpt>
      <trkpt lat="41.71589" lon="44.80222">
        <ele>433.91022</ele>
        <time>2021-08-11T21:15:16.659Z</time>
      </trkpt>
      <trkpt lat="41.7159" lon="44.80221">
        <ele>433.928377</ele>
        <time>2021-08-11T21:15:17.073Z</time>
      </trkpt>
      <trkpt lat="41.71592" lon="44.80221">
        <ele>433.948478</ele>
        <time>2021-08-11T21:15:17.549Z</time>
      </trkpt>
      <trkpt lat="41.716" lon="44.80225">
        <ele>434.11198</ele>
        <time>2021-08-11T21:15:22.230Z</time>
      </trkpt>
      <trkpt lat="41.71623" lon="44.80241">
        <ele>434.644732</ele>
        <time>2021-08-11T21:15:33.010Z</time>
      </trkpt>
      <trkpt lat="41.71675" lon="44.80278">
        <ele>435.839939</ele>
        <time>2021-08-11T21:15:59.025Z</time>
      </trkpt>
      <trkpt lat="41.71698" lon="44.80291">
        <ele>436.353119</ele>
        <time>2021-08-11T21:16:10.063Z</time>
      </trkpt>
      <trkpt lat="41.71713" lon="44.80292">
        <ele>436.65761</ele>
        <time>2021-08-11T21:16:15.924Z</time>
      </trkpt>
      <trkpt lat="41.71721" lon="44.8029">
        <ele>436.836776</ele>
        <time>2021-08-11T21:16:19.374Z</time>
      </trkpt>
      <trkpt lat="41.7173" lon="44.80287">
        <ele>437.028179</ele>
        <time>2021-08-11T21:16:23.995Z</time>
      </trkpt>
      <trkpt lat="41.71793" lon="44.80263">
        <ele>438.279283</ele>
        <time>2021-08-11T21:16:49.490Z</time>
      </trkpt>
      <trkpt lat="41.71829" lon="44.80248">
        <ele>438.972889</ele>
        <time>2021-08-11T21:17:03.368Z</time>
      </trkpt>
      <trkpt lat="41.71848" lon="44.80238">
        <ele>439.340881</ele>
        <time>2021-08-11T21:17:10.622Z</time>
      </trkpt>
      <trkpt lat="41.71956" lon="44.80176">
        <ele>442.201279</ele>
        <time>2021-08-11T21:18:01.943Z</time>
      </trkpt>
      <trkpt lat="41.71991" lon="44.80158">
        <ele>443.819848</ele>
        <time>2021-08-11T21:18:20.404Z</time>
      </trkpt>
      <trkpt lat="41.71997" lon="44.80173">
        <ele>444.375559</ele>
        <time>2021-08-11T21:18:27.503Z</time>
      </trkpt>
      <trkpt lat="41.72015" lon="44.80216">
        <ele>445.979042</ele>
        <time>2021-08-11T21:18:50.029Z</time>
      </trkpt>
      <trkpt lat="41.72022" lon="44.8023">
        <ele>446.509776</ele>
        <time>2021-08-11T21:18:58.545Z</time>
      </trkpt>
      <trkpt lat="41.72026" lon="44.80225">
        <ele>446.7599</ele>
        <time>2021-08-11T21:19:02.129Z</time>
      </trkpt>
      <trkpt lat="41.72076" lon="44.80196">
        <ele>449.087901</ele>
        <time>2021-08-11T21:19:36.720Z</time>
      </trkpt>
      <trkpt lat="41.72112" lon="44.80175">
        <ele>450.658063</ele>
        <time>2021-08-11T21:20:02.142Z</time>
      </trkpt>
      <trkpt lat="41.72128" lon="44.80225">
        <ele>452.255059</ele>
        <time>2021-08-11T21:20:25.959Z</time>
      </trkpt>
      <trkpt lat="41.72163" lon="44.80195">
        <ele>453.915152</ele>
        <time>2021-08-11T21:20:47.641Z</time>
      </trkpt>
      <trkpt lat="41.72222" lon="44.80151">
        <ele>456.004238</ele>
        <time>2021-08-11T21:21:19.087Z</time>
      </trkpt>
      <trkpt lat="41.72269" lon="44.80139">
        <ele>456.286119</ele>
        <time>2021-08-11T21:21:38.525Z</time>
      </trkpt>
      <trkpt lat="41.72309" lon="44.80114">
        <ele>456.546415</ele>
        <time>2021-08-11T21:21:52.249Z</time>
      </trkpt>
      <trkpt lat="41.72343" lon="44.80101">
        <ele>456.756106</ele>
        <time>2021-08-11T21:22:06.691Z</time>
      </trkpt>
      <trkpt lat="41.72424" lon="44.80073">
        <ele>455.937353</ele>
        <time>2021-08-11T21:22:29.704Z</time>
      </trkpt>
      <trkpt lat="41.7245" lon="44.80065">
        <ele>455.382037</ele>
        <time>2021-08-11T21:22:36.318Z</time>
      </trkpt>
      <trkpt lat="41.72457" lon="44.80083">
        <ele>455.063903</ele>
        <time>2021-08-11T21:22:39.927Z</time>
      </trkpt>
      <trkpt lat="41.72464" lon="44.80103">
        <ele>454.714751</ele>
        <time>2021-08-11T21:22:44.073Z</time>
      </trkpt>
      <trkpt lat="41.72516" lon="44.80077">
        <ele>453.535683</ele>
        <time>2021-08-11T21:22:57.634Z</time>
      </trkpt>
      <trkpt lat="41.72548" lon="44.80064">
        <ele>452.800095</ele>
        <time>2021-08-11T21:23:05.718Z</time>
      </trkpt>
      <trkpt lat="41.72621" lon="44.80034">
        <ele>450.977354</ele>
        <time>2021-08-11T21:23:24.029Z</time>
      </trkpt>
      <trkpt lat="41.72752" lon="44.79974">
        <ele>448.466909</ele>
        <time>2021-08-11T21:24:00.521Z</time>
      </trkpt>
      <trkpt lat="41.72756" lon="44.79972">
        <ele>448.439842</ele>
        <time>2021-08-11T21:24:01.470Z</time>
      </trkpt>
      <trkpt lat="41.72763" lon="44.79969">
        <ele>448.382578</ele>
        <time>2021-08-11T21:24:03.496Z</time>
      </trkpt>
      <trkpt lat="41.72804" lon="44.79948">
        <ele>448.036459</ele>
        <time>2021-08-11T21:24:17.028Z</time>
      </trkpt>
      <trkpt lat="41.72824" lon="44.80019">
        <ele>447.594369</ele>
        <time>2021-08-11T21:24:34.904Z</time>
      </trkpt>
      <trkpt lat="41.72883" lon="44.7999">
        <ele>447.823808</ele>
        <time>2021-08-11T21:24:53.561Z</time>
      </trkpt>
      <trkpt lat="41.72911" lon="44.79973">
        <ele>448.063845</ele>
        <time>2021-08-11T21:25:03.634Z</time>
      </trkpt>
      <trkpt lat="41.72998" lon="44.79928">
        <ele>448.784521</ele>
        <time>2021-08-11T21:25:38.809Z</time>
      </trkpt>
      <trkpt lat="41.73016" lon="44.79917">
        <ele>449.049587</ele>
        <time>2021-08-11T21:25:47.296Z</time>
      </trkpt>
      <trkpt lat="41.73037" lon="44.79905">
        <ele>449.471389</ele>
        <time>2021-08-11T21:25:56.928Z</time>
      </trkpt>
      <trkpt lat="41.73089" lon="44.79958">
        <ele>450.68834</ele>
        <time>2021-08-11T21:26:25.405Z</time>
      </trkpt>
      <trkpt lat="41.73151" lon="44.80005">
        <ele>452.016601</ele>
        <time>2021-08-11T21:26:55.788Z</time>
      </trkpt>
      <trkpt lat="41.73161" lon="44.79985">
        <ele>452.314348</ele>
        <time>2021-08-11T21:27:03.264Z</time>
      </trkpt>
      <trkpt lat="41.73202" lon="44.79933">
        <ele>453.094129</ele>
        <time>2021-08-11T21:27:28.244Z</time>
      </trkpt>
      <trkpt lat="41.73211" lon="44.7992">
        <ele>453.281172</ele>
        <time>2021-08-11T21:27:33.498Z</time>
      </trkpt>
      <trkpt lat="41.73219" lon="44.79912">
        <ele>453.422085</ele>
        <time>2021-08-11T21:27:37.603Z</time>
      </trkpt>
      <trkpt lat="41.73274" lon="44.7988">
        <ele>454.235279</ele>
        <time>2021-08-11T21:27:59.170Z</time>
      </trkpt>
      <trkpt lat="41.73334" lon="44.79848">
        <ele>455.216581</ele>
        <time>2021-08-11T21:28:24.162Z</time>
      </trkpt>
      <trkpt lat="41.73403" lon="44.79807">
        <ele>456.470011</ele>
        <time>2021-08-11T21:28:57.463Z</time>
      </trkpt>
      <trkpt lat="41.73462" lon="44.79778">
        <ele>457.511145</ele>
        <time>2021-08-11T21:29:24.272Z</time>
      </trkpt>
      <trkpt lat="41.73529" lon="44.79743">
        <ele>458.889602</ele>
        <time>2021-08-11T21:29:52.926Z</time>
      </trkpt>
      <trkpt lat="41.7357" lon="44.79722">
        <ele>459.753649</ele>
        <time>2021-08-11T21:30:11.335Z</time>
      </trkpt>
      <trkpt lat="41.73644" lon="44.79687">
        <ele>461.428712</ele>
        <time>2021-08-11T21:30:46.053Z</time>
      </trkpt>
      <trkpt lat="41.7366" lon="44.79717">
        <ele>462.700006</ele>
        <time>2021-08-11T21:31:00.121Z</time>
      </trkpt>
      <trkpt lat="41.73671" lon="44.79729">
        <ele>463.316675</ele>
        <time>2021-08-11T21:31:07.150Z</time>
      </trkpt>
      <trkpt lat="41.73696" lon="44.79741">
        <ele>464.55101</ele>
        <time>2021-08-11T21:31:22.527Z</time>
      </trkpt>
      <trkpt lat="41.73716" lon="44.79749">
        <ele>465.506673</ele>
        <time>2021-08-11T21:31:35.335Z</time>
      </trkpt>
      <trkpt lat="41.73739" lon="44.79755">
        <ele>466.575856</ele>
        <time>2021-08-11T21:31:50.837Z</time>
      </trkpt>
      <trkpt lat="41.73889" lon="44.79799">
        <ele>472.699908</ele>
        <time>2021-08-11T21:33:27.750Z</time>
      </trkpt>
      <trkpt lat="41.73908" lon="44.79793">
        <ele>473.388146</ele>
        <time>2021-08-11T21:33:37.598Z</time>
      </trkpt>
      <trkpt lat="41.74044" lon="44.79745">
        <ele>475.886151</ele>
        <time>2021-08-11T21:34:29.923Z</time>
      </trkpt>
      <trkpt lat="41.74297" lon="44.79659">
        <ele>475.152659</ele>
        <time>2021-08-11T21:35:43.350Z</time>
      </trkpt>
      <trkpt lat="41.74401" lon="44.7962">
        <ele>474.775683</ele>
        <time>2021-08-11T21:36:17.496Z</time>
      </trkpt>
      <trkpt lat="41.74538" lon="44.79585">
        <ele>474.23943</ele>
        <time>2021-08-11T21:36:57.453Z</time>
      </trkpt>
      <trkpt lat="41.74561" lon="44.79578">
        <ele>474.090788</ele>
        <time>2021-08-11T21:37:04.090Z</time>
      </trkpt>
      <trkpt lat="41.74597" lon="44.79556">
        <ele>473.845137</ele>
        <time>2021-08-11T21:37:15.772Z</time>
      </trkpt>
      <trkpt lat="41.74615" lon="44.79528">
        <ele>473.674753</ele>
        <time>2021-08-11T21:37:23.379Z</time>
      </trkpt>
      <trkpt lat="41.74677" lon="44.79471">
        <ele>473.066966</ele>
        <time>2021-08-11T21:37:44.323Z</time>
      </trkpt>
      <trkpt lat="41.74689" lon="44.79461">
        <ele>472.904052</ele>
        <time>2021-08-11T21:37:48.283Z</time>
      </trkpt>
      <trkpt lat="41.74715" lon="44.79442">
        <ele>472.563819</ele>
        <time>2021-08-11T21:37:55.904Z</time>
      </trkpt>
      <trkpt lat="41.74791" lon="44.79373">
        <ele>471.496081</ele>
        <time>2021-08-11T21:38:21.163Z</time>
      </trkpt>
      <trkpt lat="41.74808" lon="44.79357">
        <ele>471.270759</ele>
        <time>2021-08-11T21:38:27.015Z</time>
      </trkpt>
      <trkpt lat="41.74887" lon="44.79286">
        <ele>470.714817</ele>
        <time>2021-08-11T21:38:52.710Z</time>
      </trkpt>
      <trkpt lat="41.74955" lon="44.79251">
        <ele>470.28425</ele>
        <time>2021-08-11T21:39:15.023Z</time>
      </trkpt>
      <trkpt lat="41.74976" lon="44.79239">
        <ele>470.511856</ele>
        <time>2021-08-11T21:39:22.970Z</time>
      </trkpt>
      <trkpt lat="41.75122" lon="44.79175">
        <ele>473.757824</ele>
        <time>2021-08-11T21:40:34.186Z</time>
      </trkpt>
      <trkpt lat="41.75134" lon="44.79233">
        <ele>474.589655</ele>
        <time>2021-08-11T21:40:56.292Z</time>
      </trkpt>
      <trkpt lat="41.75192" lon="44.79204">
        <ele>475.655568</ele>
        <time>2021-08-11T21:41:23.881Z</time>
      </trkpt>
      <trkpt lat="41.7521" lon="44.79194">
        <ele>475.9973</ele>
        <time>2021-08-11T21:41:32.019Z</time>
      </trkpt>
      <trkpt lat="41.75244" lon="44.79179">
        <ele>476.626291</ele>
        <time>2021-08-11T21:41:45.318Z</time>
      </trkpt>
      <trkpt lat="41.75307" lon="44.79152">
        <ele>477.967937</ele>
        <time>2021-08-11T21:42:09.656Z</time>
      </trkpt>
      <trkpt lat="41.75343" lon="44.79144">
        <ele>478.810679</ele>
        <time>2021-08-11T21:42:22.237Z</time>
      </trkpt>
      <trkpt lat="41.75372" lon="44.79136">
        <ele>479.507496</ele>
        <time>2021-08-11T21:42:35.094Z</time>
      </trkpt>
      <trkpt lat="41.75374" lon="44.79138">
        <ele>479.565713</ele>
        <time>2021-08-11T21:42:36.291Z</time>
      </trkpt>
      <trkpt lat="41.75394" lon="44.79133">
        <ele>480.031841</ele>
        <time>2021-08-11T21:42:44.800Z</time>
      </trkpt>
      <trkpt lat="41.75399" lon="44.79149">
        <ele>480.329371</ele>
        <time>2021-08-11T21:42:52.514Z</time>
      </trkpt>
      <trkpt lat="41.75415" lon="44.79173">
        <ele>480.873984</ele>
        <time>2021-08-11T21:43:04.056Z</time>
      </trkpt>
      <trkpt lat="41.75425" lon="44.79178">
        <ele>481.126698</ele>
        <time>2021-08-11T21:43:11.371Z</time>
      </trkpt>
      <trkpt lat="41.75452" lon="44.79185">
        <ele>482.320462</ele>
        <time>2021-08-11T21:43:26.660Z</time>
      </trkpt>
      <trkpt lat="41.75468" lon="44.79185">
        <ele>483.176678</ele>
        <time>2021-08-11T21:43:37.804Z</time>
      </trkpt>
      <trkpt lat="41.75484" lon="44.79249">
        <ele>485.876335</ele>
        <time>2021-08-11T21:44:12.792Z</time>
      </trkpt>
      <trkpt lat="41.75559" lon="44.79233">
        <ele>489.8646</ele>
        <time>2021-08-11T21:45:03.667Z</time>
      </trkpt>
      <trkpt lat="41.75564" lon="44.79231">
        <ele>490.138267</ele>
        <time>2021-08-11T21:45:06.894Z</time>
      </trkpt>
      <trkpt lat="41.75585" lon="44.7924">
        <ele>490.700708</ele>
        <time>2021-08-11T21:45:19.149Z</time>
      </trkpt>
      <trkpt lat="41.75591" lon="44.79242">
        <ele>490.600843</ele>
        <time>2021-08-11T21:45:23.548Z</time>
      </trkpt>
      <trkpt lat="41.75595" lon="44.79244">
        <ele>490.549102</ele>
        <time>2021-08-11T21:45:24.489Z</time>
      </trkpt>
      <trkpt lat="41.756" lon="44.79245">
        <ele>490.48107</ele>
        <time>2021-08-11T21:45:26.087Z</time>
      </trkpt>
      <trkpt lat="41.75623" lon="44.79245">
        <ele>490.154277</ele>
        <time>2021-08-11T21:45:37.529Z</time>
      </trkpt>
      <trkpt lat="41.75675" lon="44.79232">
        <ele>489.410371</ele>
        <time>2021-08-11T21:45:52.291Z</time>
      </trkpt>
      <trkpt lat="41.75735" lon="44.79223">
        <ele>488.554741</ele>
        <time>2021-08-11T21:46:06.909Z</time>
      </trkpt>
      <trkpt lat="41.75736" lon="44.79216">
        <ele>488.474168</ele>
        <time>2021-08-11T21:46:08.048Z</time>
      </trkpt>
      <trkpt lat="41.75747" lon="44.79202">
        <ele>488.166289</ele>
        <time>2021-08-11T21:46:11.101Z</time>
      </trkpt>
      <trkpt lat="41.75798" lon="44.79162">
        <ele>483.78303</ele>
        <time>2021-08-11T21:46:23.365Z</time>
      </trkpt>
      <trkpt lat="41.75802" lon="44.7916">
        <ele>483.468756</ele>
        <time>2021-08-11T21:46:24.177Z</time>
      </trkpt>
      <trkpt lat="41.75815" lon="44.7915">
        <ele>482.390325</ele>
        <time>2021-08-11T21:46:27.338Z</time>
      </trkpt>
      <trkpt lat="41.75854" lon="44.7912">
        <ele>479.025867</ele>
        <time>2021-08-11T21:46:36.660Z</time>
      </trkpt>
      <trkpt lat="41.75872" lon="44.79109">
        <ele>477.591496</ele>
        <time>2021-08-11T21:46:40.456Z</time>
      </trkpt>
      <trkpt lat="41.75895" lon="44.79077">
        <ele>475.161808</ele>
        <time>2021-08-11T21:46:47.339Z</time>
      </trkpt>
      <trkpt lat="41.75903" lon="44.7905">
        <ele>474.478447</ele>
        <time>2021-08-11T21:46:52.268Z</time>
      </trkpt>
      <trkpt lat="41.75905" lon="44.79006">
        <ele>473.620472</ele>
        <time>2021-08-11T21:46:59.396Z</time>
      </trkpt>
      <trkpt lat="41.75907" lon="44.78965">
        <ele>472.801493</ele>
        <time>2021-08-11T21:47:06.805Z</time>
      </trkpt>
      <trkpt lat="41.75909" lon="44.78932">
        <ele>472.154998</ele>
        <time>2021-08-11T21:47:12.948Z</time>
      </trkpt>
      <trkpt lat="41.75946" lon="44.78933">
        <ele>471.195346</ele>
        <time>2021-08-11T21:47:26.490Z</time>
      </trkpt>
      <trkpt lat="41.75955" lon="44.78934">
        <ele>470.946251</ele>
        <time>2021-08-11T21:47:30.894Z</time>
      </trkpt>
      <trkpt lat="41.75962" lon="44.78934">
        <ele>470.752211</ele>
        <time>2021-08-11T21:47:34.528Z</time>
      </trkpt>
      <trkpt lat="41.75994" lon="44.78936">
        <ele>470.634475</ele>
        <time>2021-08-11T21:47:49.367Z</time>
      </trkpt>
      <trkpt lat="41.76013" lon="44.78941">
        <ele>471.169596</ele>
        <time>2021-08-11T21:48:02.810Z</time>
      </trkpt>
      <trkpt lat="41.76023" lon="44.78943">
        <ele>471.460098</ele>
        <time>2021-08-11T21:48:07.340Z</time>
      </trkpt>
      <trkpt lat="41.76045" lon="44.78947">
        <ele>472.083359</ele>
        <time>2021-08-11T21:48:18.592Z</time>
      </trkpt>
      <trkpt lat="41.76062" lon="44.78949">
        <ele>472.554173</ele>
        <time>2021-08-11T21:48:27.634Z</time>
      </trkpt>
      <trkpt lat="41.76115" lon="44.78958">
        <ele>474.031034</ele>
        <time>2021-08-11T21:48:57.328Z</time>
      </trkpt>
      <trkpt lat="41.76177" lon="44.7897">
        <ele>475.423977</ele>
        <time>2021-08-11T21:49:28.224Z</time>
      </trkpt>
      <trkpt lat="41.76206" lon="44.78976">
        <ele>475.697486</ele>
        <time>2021-08-11T21:49:41.882Z</time>
      </trkpt>
      <trkpt lat="41.76239" lon="44.78981">
        <ele>476.005715</ele>
        <time>2021-08-11T21:49:55.572Z</time>
      </trkpt>
      <trkpt lat="41.7625" lon="44.78933">
        <ele>476.355334</ele>
        <time>2021-08-11T21:50:08.373Z</time>
      </trkpt>
      <trkpt lat="41.7626" lon="44.78884">
        <ele>476.707837</ele>
        <time>2021-08-11T21:50:19.630Z</time>
      </trkpt>
      <trkpt lat="41.76263" lon="44.78865">
        <ele>476.844972</ele>
        <time>2021-08-11T21:50:23.423Z</time>
      </trkpt>
      <trkpt lat="41.7628" lon="44.78872">
        <ele>476.787544</ele>
        <time>2021-08-11T21:50:28.761Z</time>
      </trkpt>
      <trkpt lat="41.76331" lon="44.78893">
        <ele>475.920171</ele>
        <time>2021-08-11T21:50:42.344Z</time>
      </trkpt>
      <trkpt lat="41.76433" lon="44.78935">
        <ele>474.201092</ele>
        <time>2021-08-11T21:51:08.925Z</time>
      </trkpt>
      <trkpt lat="41.76455" lon="44.78945">
        <ele>473.912768</ele>
        <time>2021-08-11T21:51:14.606Z</time>
      </trkpt>
      <trkpt lat="41.76482" lon="44.78956">
        <ele>473.668029</ele>
        <time>2021-08-11T21:51:21.362Z</time>
      </trkpt>
      <trkpt lat="41.76504" lon="44.78965">
        <ele>473.458658</ele>
        <time>2021-08-11T21:51:27.081Z</time>
      </trkpt>
      <trkpt lat="41.76514" lon="44.78969">
        <ele>473.365162</ele>
        <time>2021-08-11T21:51:29.936Z</time>
      </trkpt>
      <trkpt lat="41.76522" lon="44.78973">
        <ele>473.28942</ele>
        <time>2021-08-11T21:51:32.239Z</time>
      </trkpt>
      <trkpt lat="41.76524" lon="44.78975">
        <ele>473.267495</ele>
        <time>2021-08-11T21:51:32.910Z</time>
      </trkpt>
      <trkpt lat="41.76553" lon="44.7899">
        <ele>472.989666</ele>
        <time>2021-08-11T21:51:41.725Z</time>
      </trkpt>
      <trkpt lat="41.76626" lon="44.79042">
        <ele>472.449536</ele>
        <time>2021-08-11T21:52:08.344Z</time>
      </trkpt>
      <trkpt lat="41.7663" lon="44.79045">
        <ele>472.455431</ele>
        <time>2021-08-11T21:52:09.388Z</time>
      </trkpt>
      <trkpt lat="41.76634" lon="44.79048">
        <ele>472.461703</ele>
        <time>2021-08-11T21:52:11.041Z</time>
      </trkpt>
      <trkpt lat="41.76643" lon="44.79055">
        <ele>472.475091</ele>
        <time>2021-08-11T21:52:14.478Z</time>
      </trkpt>
      <trkpt lat="41.76652" lon="44.79062">
        <ele>472.489666</ele>
        <time>2021-08-11T21:52:18.201Z</time>
      </trkpt>
      <trkpt lat="41.76675" lon="44.79079">
        <ele>472.523626</ele>
        <time>2021-08-11T21:52:26.054Z</time>
      </trkpt>
      <trkpt lat="41.76702" lon="44.79096">
        <ele>472.563586</ele>
        <time>2021-08-11T21:52:35.817Z</time>
      </trkpt>
      <trkpt lat="41.76718" lon="44.79108">
        <ele>472.587823</ele>
        <time>2021-08-11T21:52:42.202Z</time>
      </trkpt>
      <trkpt lat="41.76789" lon="44.79156">
        <ele>472.484266</ele>
        <time>2021-08-11T21:53:08.299Z</time>
      </trkpt>
      <trkpt lat="41.76913" lon="44.79228">
        <ele>471.394276</ele>
        <time>2021-08-11T21:53:44.340Z</time>
      </trkpt>
      <trkpt lat="41.76967" lon="44.79257">
        <ele>471.075916</ele>
        <time>2021-08-11T21:53:59.986Z</time>
      </trkpt>
      <trkpt lat="41.76969" lon="44.79258">
        <ele>471.067757</ele>
        <time>2021-08-11T21:54:00.556Z</time>
      </trkpt>
      <trkpt lat="41.7697" lon="44.79258">
        <ele>471.061784</ele>
        <time>2021-08-11T21:54:00.989Z</time>
      </trkpt>
      <trkpt lat="41.76987" lon="44.79267">
        <ele>470.989048</ele>
        <time>2021-08-11T21:54:05.992Z</time>
      </trkpt>
      <trkpt lat="41.77004" lon="44.79274">
        <ele>470.91713</ele>
        <time>2021-08-11T21:54:11.514Z</time>
      </trkpt>
      <trkpt lat="41.77135" lon="44.7934">
        <ele>470.324148</ele>
        <time>2021-08-11T21:54:54.032Z</time>
      </trkpt>
      <trkpt lat="41.77141" lon="44.79342">
        <ele>470.295045</ele>
        <time>2021-08-11T21:54:56.362Z</time>
      </trkpt>
      <trkpt lat="41.7721" lon="44.79376">
        <ele>469.930659</ele>
        <time>2021-08-11T21:55:19.277Z</time>
      </trkpt>
      <trkpt lat="41.77266" lon="44.79405">
        <ele>469.631369</ele>
        <time>2021-08-11T21:55:35.561Z</time>
      </trkpt>
      <trkpt lat="41.77279" lon="44.79412">
        <ele>469.305356</ele>
        <time>2021-08-11T21:55:39.448Z</time>
      </trkpt>
      <trkpt lat="41.77283" lon="44.79414">
        <ele>469.179531</ele>
        <time>2021-08-11T21:55:40.349Z</time>
      </trkpt>
      <trkpt lat="41.7734" lon="44.79442">
        <ele>467.171101</ele>
        <time>2021-08-11T21:55:54.776Z</time>
      </trkpt>
      <trkpt lat="41.77358" lon="44.79451">
        <ele>466.549815</ele>
        <time>2021-08-11T21:55:59.047Z</time>
      </trkpt>
      <trkpt lat="41.77391" lon="44.79465">
        <ele>465.425671</ele>
        <time>2021-08-11T21:56:06.583Z</time>
      </trkpt>
      <trkpt lat="41.77425" lon="44.79478">
        <ele>464.267162</ele>
        <time>2021-08-11T21:56:14.292Z</time>
      </trkpt>
      <trkpt lat="41.77459" lon="44.79489">
        <ele>462.899112</ele>
        <time>2021-08-11T21:56:21.903Z</time>
      </trkpt>
      <trkpt lat="41.77531" lon="44.7951">
        <ele>459.633822</ele>
        <time>2021-08-11T21:56:37.421Z</time>
      </trkpt>
      <trkpt lat="41.77616" lon="44.79535">
        <ele>455.773469</ele>
        <time>2021-08-11T21:56:56.216Z</time>
      </trkpt>
      <trkpt lat="41.77675" lon="44.79553">
        <ele>454.339133</ele>
        <time>2021-08-11T21:57:09.864Z</time>
      </trkpt>
      <trkpt lat="41.77792" lon="44.79583">
        <ele>451.519061</ele>
        <time>2021-08-11T21:57:39.313Z</time>
      </trkpt>
      <trkpt lat="41.77877" lon="44.79606">
        <ele>450.958882</ele>
        <time>2021-08-11T21:58:03.943Z</time>
      </trkpt>
      <trkpt lat="41.77949" lon="44.79627">
        <ele>450.508675</ele>
        <time>2021-08-11T21:58:24.412Z</time>
      </trkpt>
      <trkpt lat="41.77997" lon="44.79649">
        <ele>450.476562</ele>
        <time>2021-08-11T21:58:40.440Z</time>
      </trkpt>
      <trkpt lat="41.78075" lon="44.79707">
        <ele>450.764181</ele>
        <time>2021-08-11T21:59:12.783Z</time>
      </trkpt>
      <trkpt lat="41.78079" lon="44.7971">
        <ele>450.77971</ele>
        <time>2021-08-11T21:59:14.185Z</time>
      </trkpt>
      <trkpt lat="41.78091" lon="44.7972">
        <ele>450.824706</ele>
        <time>2021-08-11T21:59:18.217Z</time>
      </trkpt>
      <trkpt lat="41.78094" lon="44.79742">
        <ele>450.87978</ele>
        <time>2021-08-11T21:59:25.372Z</time>
      </trkpt>
      <trkpt lat="41.78096" lon="44.79756">
        <ele>450.914214</ele>
        <time>2021-08-11T21:59:28.577Z</time>
      </trkpt>
      <trkpt lat="41.78093" lon="44.79773">
        <ele>450.955085</ele>
        <time>2021-08-11T21:59:32.745Z</time>
      </trkpt>
      <trkpt lat="41.78102" lon="44.79783">
        <ele>450.844281</ele>
        <time>2021-08-11T21:59:36.815Z</time>
      </trkpt>
      <trkpt lat="41.78193" lon="44.7985">
        <ele>449.716729</ele>
        <time>2021-08-11T22:00:07.024Z</time>
      </trkpt>
      <trkpt lat="41.78218" lon="44.79845">
        <ele>449.445895</ele>
        <time>2021-08-11T22:00:13.943Z</time>
      </trkpt>
      <trkpt lat="41.78235" lon="44.79828">
        <ele>449.212987</ele>
        <time>2021-08-11T22:00:19.302Z</time>
      </trkpt>
      <trkpt lat="41.78262" lon="44.79845">
        <ele>448.661726</ele>
        <time>2021-08-11T22:00:26.371Z</time>
      </trkpt>
      <trkpt lat="41.78297" lon="44.79867">
        <ele>447.360585</ele>
        <time>2021-08-11T22:00:35.668Z</time>
      </trkpt>
      <trkpt lat="41.78305" lon="44.79871">
        <ele>447.098126</ele>
        <time>2021-08-11T22:00:37.513Z</time>
      </trkpt>
      <trkpt lat="41.78321" lon="44.79883">
        <ele>446.490178</ele>
        <time>2021-08-11T22:00:41.779Z</time>
      </trkpt>
      <trkpt lat="41.78343" lon="44.79898">
        <ele>445.67314</ele>
        <time>2021-08-11T22:00:47.321Z</time>
      </trkpt>
      <trkpt lat="41.78355" lon="44.79911">
        <ele>445.148513</ele>
        <time>2021-08-11T22:00:50.731Z</time>
      </trkpt>
      <trkpt lat="41.78361" lon="44.79917">
        <ele>444.903445</ele>
        <time>2021-08-11T22:00:52.319Z</time>
      </trkpt>
      <trkpt lat="41.78373" lon="44.79931">
        <ele>444.389631</ele>
        <time>2021-08-11T22:00:55.739Z</time>
      </trkpt>
      <trkpt lat="41.78383" lon="44.7994">
        <ele>443.987598</ele>
        <time>2021-08-11T22:00:58.407Z</time>
      </trkpt>
      <trkpt lat="41.7841" lon="44.79964">
        <ele>442.937482</ele>
        <time>2021-08-11T22:01:05.491Z</time>
      </trkpt>
      <trkpt lat="41.78441" lon="44.79989">
        <ele>441.859185</ele>
        <time>2021-08-11T22:01:13.554Z</time>
      </trkpt>
      <trkpt lat="41.78443" lon="44.79991">
        <ele>441.764541</ele>
        <time>2021-08-11T22:01:14.266Z</time>
      </trkpt>
      <trkpt lat="41.78483" lon="44.80005">
        <ele>440.53178</ele>
        <time>2021-08-11T22:01:23.606Z</time>
      </trkpt>
      <trkpt lat="41.78537" lon="44.80023">
        <ele>438.874946</ele>
        <time>2021-08-11T22:01:36.387Z</time>
      </trkpt>
      <trkpt lat="41.78631" lon="44.80056">
        <ele>437.580463</ele>
        <time>2021-08-11T22:02:00.215Z</time>
      </trkpt>
      <trkpt lat="41.78661" lon="44.80065">
        <ele>437.528091</ele>
        <time>2021-08-11T22:02:08.968Z</time>
      </trkpt>
      <trkpt lat="41.78687" lon="44.80072">
        <ele>437.482532</ele>
        <time>2021-08-11T22:02:17.743Z</time>
      </trkpt>
      <trkpt lat="41.78728" lon="44.80078">
        <ele>437.411974</ele>
        <time>2021-08-11T22:02:33.094Z</time>
      </trkpt>
      <trkpt lat="41.78743" lon="44.80077">
        <ele>437.386359</ele>
        <time>2021-08-11T22:02:39.064Z</time>
      </trkpt>
      <trkpt lat="41.78777" lon="44.80081">
        <ele>438.042219</ele>
        <time>2021-08-11T22:02:53.081Z</time>
      </trkpt>
      <trkpt lat="41.78783" lon="44.80082">
        <ele>438.210601</ele>
        <time>2021-08-11T22:02:55.907Z</time>
      </trkpt>
      <trkpt lat="41.78795" lon="44.80095">
        <ele>438.62879</ele>
        <time>2021-08-11T22:03:02.770Z</time>
      </trkpt>
      <trkpt lat="41.78816" lon="44.80119">
        <ele>439.357122</ele>
        <time>2021-08-11T22:03:15.161Z</time>
      </trkpt>
      <trkpt lat="41.78824" lon="44.80128">
        <ele>439.651211</ele>
        <time>2021-08-11T22:03:20.126Z</time>
      </trkpt>
      <trkpt lat="41.78869" lon="44.80182">
        <ele>441.287119</ele>
        <time>2021-08-11T22:03:49.124Z</time>
      </trkpt>
      <trkpt lat="41.78917" lon="44.80244">
        <ele>443.467945</ele>
        <time>2021-08-11T22:04:22.707Z</time>
      </trkpt>
      <trkpt lat="41.78972" lon="44.80312">
        <ele>446.394758</ele>
        <time>2021-08-11T22:05:02.050Z</time>
      </trkpt>
      <trkpt lat="41.78975" lon="44.80317">
        <ele>446.590075</ele>
        <time>2021-08-11T22:05:05.242Z</time>
      </trkpt>
      <trkpt lat="41.78979" lon="44.80321">
        <ele>446.798019</ele>
        <time>2021-08-11T22:05:08.337Z</time>
      </trkpt>
      <trkpt lat="41.79019" lon="44.80369">
        <ele>448.907549</ele>
        <time>2021-08-11T22:05:37.045Z</time>
      </trkpt>
      <trkpt lat="41.79078" lon="44.80433">
        <ele>452.223262</ele>
        <time>2021-08-11T22:06:19.088Z</time>
      </trkpt>
      <trkpt lat="41.79142" lon="44.80502">
        <ele>455.887971</ele>
        <time>2021-08-11T22:07:06.091Z</time>
      </trkpt>
      <trkpt lat="41.79243" lon="44.80611">
        <ele>461.541955</ele>
        <time>2021-08-11T22:08:18.689Z</time>
      </trkpt>
      <trkpt lat="41.79284" lon="44.80655">
        <ele>463.801651</ele>
        <time>2021-08-11T22:08:47.033Z</time>
      </trkpt>
      <trkpt lat="41.79309" lon="44.80684">
        <ele>465.267598</ele>
        <time>2021-08-11T22:09:05.234Z</time>
      </trkpt>
      <trkpt lat="41.79375" lon="44.80753">
        <ele>469.437619</ele>
        <time>2021-08-11T22:09:51.301Z</time>
      </trkpt>
      <trkpt lat="41.79399" lon="44.80778">
        <ele>470.940075</ele>
        <time>2021-08-11T22:10:08.158Z</time>
      </trkpt>
      <trkpt lat="41.79501" lon="44.80884">
        <ele>478.105509</ele>
        <time>2021-08-11T22:11:33.636Z</time>
      </trkpt>
      <trkpt lat="41.79512" lon="44.80895">
        <ele>478.95995</ele>
        <time>2021-08-11T22:11:42.399Z</time>
      </trkpt>
      <trkpt lat="41.7952" lon="44.80904">
        <ele>479.576867</ele>
        <time>2021-08-11T22:11:50.298Z</time>
      </trkpt>
      <trkpt lat="41.7953" lon="44.80914">
        <ele>480.305387</ele>
        <time>2021-08-11T22:11:57.782Z</time>
      </trkpt>
      <trkpt lat="41.79535" lon="44.80919">
        <ele>480.706787</ele>
        <time>2021-08-11T22:12:01.868Z</time>
      </trkpt>
      <trkpt lat="41.79545" lon="44.80931">
        <ele>481.522352</ele>
        <time>2021-08-11T22:12:11.207Z</time>
      </trkpt>
      <trkpt lat="41.79587" lon="44.80977">
        <ele>484.829237</ele>
        <time>2021-08-11T22:12:46.599Z</time>
      </trkpt>
      <trkpt lat="41.79679" lon="44.81061">
        <ele>489.909799</ele>
        <time>2021-08-11T22:13:52.223Z</time>
      </trkpt>
      <trkpt lat="41.79684" lon="44.81065">
        <ele>490.182229</ele>
        <time>2021-08-11T22:13:55.364Z</time>
      </trkpt>
      <trkpt lat="41.79785" lon="44.81156">
        <ele>495.644439</ele>
        <time>2021-08-11T22:14:57.292Z</time>
      </trkpt>
      <trkpt lat="41.79846" lon="44.81202">
        <ele>498.720609</ele>
        <time>2021-08-11T22:15:36.380Z</time>
      </trkpt>
      <trkpt lat="41.7987" lon="44.81222">
        <ele>499.991739</ele>
        <time>2021-08-11T22:15:52.951Z</time>
      </trkpt>
      <trkpt lat="41.79923" lon="44.81265">
        <ele>502.959232</ele>
        <time>2021-08-11T22:16:30.744Z</time>
      </trkpt>
      <trkpt lat="41.79934" lon="44.81272">
        <ele>503.606172</ele>
        <time>2021-08-11T22:16:39.303Z</time>
      </trkpt>
      <trkpt lat="41.80002" lon="44.81317">
        <ele>507.509755</ele>
        <time>2021-08-11T22:17:26.708Z</time>
      </trkpt>
      <trkpt lat="41.80016" lon="44.81326">
        <ele>508.316595</ele>
        <time>2021-08-11T22:17:36.098Z</time>
      </trkpt>
      <trkpt lat="41.80035" lon="44.81337">
        <ele>509.404788</ele>
        <time>2021-08-11T22:17:48.571Z</time>
      </trkpt>
      <trkpt lat="41.80061" lon="44.81351">
        <ele>510.568904</ele>
        <time>2021-08-11T22:18:03.782Z</time>
      </trkpt>
      <trkpt lat="41.80073" lon="44.81358">
        <ele>510.880298</ele>
        <time>2021-08-11T22:18:11.471Z</time>
      </trkpt>
      <trkpt lat="41.80153" lon="44.81404">
        <ele>512.822043</ele>
        <time>2021-08-11T22:18:51.515Z</time>
      </trkpt>
      <trkpt lat="41.80266" lon="44.8147">
        <ele>514.925926</ele>
        <time>2021-08-11T22:19:33.972Z</time>
      </trkpt>
      <trkpt lat="41.80273" lon="44.81474">
        <ele>515.000121</ele>
        <time>2021-08-11T22:19:36.363Z</time>
      </trkpt>
      <trkpt lat="41.80336" lon="44.81511">
        <ele>515.698283</ele>
        <time>2021-08-11T22:20:00.717Z</time>
      </trkpt>
      <trkpt lat="41.80358" lon="44.81524">
        <ele>515.940134</ele>
        <time>2021-08-11T22:20:10.007Z</time>
      </trkpt>
      <trkpt lat="41.80367" lon="44.81529">
        <ele>516.036744</ele>
        <time>2021-08-11T22:20:13.690Z</time>
      </trkpt>
      <trkpt lat="41.80406" lon="44.81552">
        <ele>516.943402</ele>
        <time>2021-08-11T22:20:31.509Z</time>
      </trkpt>
      <trkpt lat="41.80452" lon="44.81578">
        <ele>518.364379</ele>
        <time>2021-08-11T22:20:53.709Z</time>
      </trkpt>
      <trkpt lat="41.80481" lon="44.81595">
        <ele>519.261842</ele>
        <time>2021-08-11T22:21:09.137Z</time>
      </trkpt>
      <trkpt lat="41.80484" lon="44.81597">
        <ele>519.371231</ele>
        <time>2021-08-11T22:21:10.973Z</time>
      </trkpt>
      <trkpt lat="41.8049" lon="44.81599">
        <ele>519.549905</ele>
        <time>2021-08-11T22:21:13.961Z</time>
      </trkpt>
      <trkpt lat="41.80498" lon="44.81603">
        <ele>519.79315</ele>
        <time>2021-08-11T22:21:18.200Z</time>
      </trkpt>
      <trkpt lat="41.8054" lon="44.81623">
        <ele>521.070416</ele>
        <time>2021-08-11T22:21:41.357Z</time>
      </trkpt>
      <trkpt lat="41.80593" lon="44.81651">
        <ele>523.074829</ele>
        <time>2021-08-11T22:22:10.384Z</time>
      </trkpt>
      <trkpt lat="41.80615" lon="44.81663">
        <ele>523.969305</ele>
        <time>2021-08-11T22:22:23.191Z</time>
      </trkpt>
      <trkpt lat="41.80727" lon="44.81736">
        <ele>528.572568</ele>
        <time>2021-08-11T22:23:27.680Z</time>
      </trkpt>
      <trkpt lat="41.80819" lon="44.81788">
        <ele>532.114634</ele>
        <time>2021-08-11T22:24:19.036Z</time>
      </trkpt>
      <trkpt lat="41.809" lon="44.81835">
        <ele>535.199698</ele>
        <time>2021-08-11T22:25:04.010Z</time>
      </trkpt>
      <trkpt lat="41.80938" lon="44.81856">
        <ele>536.520234</ele>
        <time>2021-08-11T22:25:24.047Z</time>
      </trkpt>
      <trkpt lat="41.8101" lon="44.81898">
        <ele>539.062532</ele>
        <time>2021-08-11T22:26:03.043Z</time>
      </trkpt>
      <trkpt lat="41.81071" lon="44.8193">
        <ele>541.045138</ele>
        <time>2021-08-11T22:26:34.606Z</time>
      </trkpt>
      <trkpt lat="41.81087" lon="44.81938">
        <ele>541.508321</ele>
        <time>2021-08-11T22:26:42.414Z</time>
      </trkpt>
      <trkpt lat="41.81165" lon="44.81982">
        <ele>543.831582</ele>
        <time>2021-08-11T22:27:21.114Z</time>
      </trkpt>
      <trkpt lat="41.81168" lon="44.81984">
        <ele>543.933878</ele>
        <time>2021-08-11T22:27:22.718Z</time>
      </trkpt>
      <trkpt lat="41.81172" lon="44.81986">
        <ele>544.041243</ele>
        <time>2021-08-11T22:27:25.023Z</time>
      </trkpt>
      <trkpt lat="41.81234" lon="44.8202">
        <ele>545.768707</ele>
        <time>2021-08-11T22:27:55.691Z</time>
      </trkpt>
      <trkpt lat="41.81243" lon="44.82025">
        <ele>546.002993</ele>
        <time>2021-08-11T22:28:00.771Z</time>
      </trkpt>
      <trkpt lat="41.81322" lon="44.8207">
        <ele>547.952024</ele>
        <time>2021-08-11T22:28:37.719Z</time>
      </trkpt>
      <trkpt lat="41.81391" lon="44.82116">
        <ele>549.836017</ele>
        <time>2021-08-11T22:29:10.458Z</time>
      </trkpt>
      <trkpt lat="41.81402" lon="44.82123">
        <ele>550.203669</ele>
        <time>2021-08-11T22:29:15.875Z</time>
      </trkpt>
      <trkpt lat="41.81475" lon="44.82179">
        <ele>552.699338</ele>
        <time>2021-08-11T22:29:52.904Z</time>
      </trkpt>
      <trkpt lat="41.81491" lon="44.82191">
        <ele>553.23917</ele>
        <time>2021-08-11T22:30:01.849Z</time>
      </trkpt>
      <trkpt lat="41.81529" lon="44.82218">
        <ele>554.494748</ele>
        <time>2021-08-11T22:30:24.376Z</time>
      </trkpt>
      <trkpt lat="41.81554" lon="44.82232">
        <ele>555.906873</ele>
        <time>2021-08-11T22:30:40.274Z</time>
      </trkpt>
      <trkpt lat="41.81559" lon="44.82235">
        <ele>556.231039</ele>
        <time>2021-08-11T22:30:43.754Z</time>
      </trkpt>
      <trkpt lat="41.81578" lon="44.82246">
        <ele>557.375044</ele>
        <time>2021-08-11T22:30:56.149Z</time>
      </trkpt>
      <trkpt lat="41.81613" lon="44.82256">
        <ele>559.397057</ele>
        <time>2021-08-11T22:31:18.708Z</time>
      </trkpt>
      <trkpt lat="41.8163" lon="44.82258">
        <ele>560.363673</ele>
        <time>2021-08-11T22:31:29.715Z</time>
      </trkpt>
      <trkpt lat="41.81655" lon="44.82259">
        <ele>561.778316</ele>
        <time>2021-08-11T22:31:45.901Z</time>
      </trkpt>
      <trkpt lat="41.81682" lon="44.82258">
        <ele>563.294712</ele>
        <time>2021-08-11T22:32:04.416Z</time>
      </trkpt>
      <trkpt lat="41.81745" lon="44.82276">
        <ele>566.80296</ele>
        <time>2021-08-11T22:32:48.329Z</time>
      </trkpt>
      <trkpt lat="41.81893" lon="44.82371">
        <ele>574.938367</ele>
        <time>2021-08-11T22:34:27.229Z</time>
      </trkpt>
      <trkpt lat="41.81983" lon="44.82454">
        <ele>577.510506</ele>
        <time>2021-08-11T22:35:17.010Z</time>
      </trkpt>
      <trkpt lat="41.82174" lon="44.82675">
        <ele>578.506905</ele>
        <time>2021-08-11T22:36:36.784Z</time>
      </trkpt>
      <trkpt lat="41.82189" lon="44.82687">
        <ele>578.315988</ele>
        <time>2021-08-11T22:36:41.287Z</time>
      </trkpt>
      <trkpt lat="41.82235" lon="44.82717">
        <ele>577.741503</ele>
        <time>2021-08-11T22:36:54.574Z</time>
      </trkpt>
      <trkpt lat="41.82252" lon="44.82731">
        <ele>577.524833</ele>
        <time>2021-08-11T22:36:59.483Z</time>
      </trkpt>
      <trkpt lat="41.82294" lon="44.82789">
        <ele>576.85742</ele>
        <time>2021-08-11T22:37:14.981Z</time>
      </trkpt>
      <trkpt lat="41.82326" lon="44.82818">
        <ele>577.665642</ele>
        <time>2021-08-11T22:37:25.013Z</time>
      </trkpt>
      <trkpt lat="41.82336" lon="44.82823">
        <ele>577.956291</ele>
        <time>2021-08-11T22:37:27.641Z</time>
      </trkpt>
      <trkpt lat="41.82354" lon="44.82833">
        <ele>578.507463</ele>
        <time>2021-08-11T22:37:33.469Z</time>
      </trkpt>
      <trkpt lat="41.82389" lon="44.82849">
        <ele>579.575457</ele>
        <time>2021-08-11T22:37:50.929Z</time>
      </trkpt>
      <trkpt lat="41.82401" lon="44.82853">
        <ele>579.908129</ele>
        <time>2021-08-11T22:37:57.967Z</time>
      </trkpt>
      <trkpt lat="41.82416" lon="44.82857">
        <ele>580.333162</ele>
        <time>2021-08-11T22:38:03.568Z</time>
      </trkpt>
      <trkpt lat="41.82435" lon="44.82858">
        <ele>580.875901</ele>
        <time>2021-08-11T22:38:19.093Z</time>
      </trkpt>
      <trkpt lat="41.82494" lon="44.82846">
        <ele>583.533945</ele>
        <time>2021-08-11T22:38:58.533Z</time>
      </trkpt>
      <trkpt lat="41.82497" lon="44.82857">
        <ele>584.115881</ele>
        <time>2021-08-11T22:39:06.942Z</time>
      </trkpt>
      <trkpt lat="41.82512" lon="44.82891">
        <ele>586.119061</ele>
        <time>2021-08-11T22:39:27.695Z</time>
      </trkpt>
      <trkpt lat="41.82533" lon="44.82918">
        <ele>588.091695</ele>
        <time>2021-08-11T22:39:46.659Z</time>
      </trkpt>
      <trkpt lat="41.82537" lon="44.82922">
        <ele>588.448613</ele>
        <time>2021-08-11T22:39:54.626Z</time>
      </trkpt>
      <trkpt lat="41.82549" lon="44.82922">
        <ele>589.274985</ele>
        <time>2021-08-11T22:40:03.720Z</time>
      </trkpt>
      <trkpt lat="41.82557" lon="44.82928">
        <ele>589.885829</ele>
        <time>2021-08-11T22:40:07.746Z</time>
      </trkpt>
      <trkpt lat="41.82559" lon="44.82929">
        <ele>590.00803</ele>
        <time>2021-08-11T22:40:08.617Z</time>
      </trkpt>
      <trkpt lat="41.82572" lon="44.82993">
        <ele>593.376202</ele>
        <time>2021-08-11T22:40:47.887Z</time>
      </trkpt>
      <trkpt lat="41.82595" lon="44.8306">
        <ele>594.581388</ele>
        <time>2021-08-11T22:41:19.030Z</time>
      </trkpt>
      <trkpt lat="41.82602" lon="44.83077">
        <ele>594.72929</ele>
        <time>2021-08-11T22:41:28.942Z</time>
      </trkpt>
      <trkpt lat="41.82615" lon="44.83112">
        <ele>595.035489</ele>
        <time>2021-08-11T22:41:39.407Z</time>
      </trkpt>
      <trkpt lat="41.82659" lon="44.83233">
        <ele>595.86971</ele>
        <time>2021-08-11T22:42:05.689Z</time>
      </trkpt>
      <trkpt lat="41.82668" lon="44.83283">
        <ele>595.309168</ele>
        <time>2021-08-11T22:42:15.104Z</time>
      </trkpt>
      <trkpt lat="41.82669" lon="44.83295">
        <ele>595.172029</ele>
        <time>2021-08-11T22:42:17.174Z</time>
      </trkpt>
      <trkpt lat="41.82675" lon="44.83338">
        <ele>594.686074</ele>
        <time>2021-08-11T22:42:26.010Z</time>
      </trkpt>
      <trkpt lat="41.82682" lon="44.83364">
        <ele>594.382633</ele>
        <time>2021-08-11T22:42:31.478Z</time>
      </trkpt>
      <trkpt lat="41.82685" lon="44.8338">
        <ele>594.19571</ele>
        <time>2021-08-11T22:42:35.196Z</time>
      </trkpt>
      <trkpt lat="41.82681" lon="44.83401">
        <ele>593.966001</ele>
        <time>2021-08-11T22:42:39.209Z</time>
      </trkpt>
      <trkpt lat="41.82673" lon="44.83436">
        <ele>593.557097</ele>
        <time>2021-08-11T22:42:47.068Z</time>
      </trkpt>
      <trkpt lat="41.82657" lon="44.83487">
        <ele>593.665954</ele>
        <time>2021-08-11T22:42:59.489Z</time>
      </trkpt>
      <trkpt lat="41.82654" lon="44.83498">
        <ele>593.791651</ele>
        <time>2021-08-11T22:43:02.819Z</time>
      </trkpt>
      <trkpt lat="41.8265" lon="44.83521">
        <ele>594.028452</ele>
        <time>2021-08-11T22:43:09.502Z</time>
      </trkpt>
      <trkpt lat="41.8265" lon="44.8355">
        <ele>594.327922</ele>
        <time>2021-08-11T22:43:17.649Z</time>
      </trkpt>
      <trkpt lat="41.8264" lon="44.83583">
        <ele>594.687286</ele>
        <time>2021-08-11T22:43:28.999Z</time>
      </trkpt>
      <trkpt lat="41.82646" lon="44.83629">
        <ele>595.169397</ele>
        <time>2021-08-11T22:43:45.392Z</time>
      </trkpt>
      <trkpt lat="41.82649" lon="44.83749">
        <ele>597.00561</ele>
        <time>2021-08-11T22:44:25.765Z</time>
      </trkpt>
      <trkpt lat="41.82654" lon="44.83791">
        <ele>597.878912</ele>
        <time>2021-08-11T22:44:39.779Z</time>
      </trkpt>
      <trkpt lat="41.82655" lon="44.83802">
        <ele>598.099373</ele>
        <time>2021-08-11T22:44:44.324Z</time>
      </trkpt>
      <trkpt lat="41.82672" lon="44.83927">
        <ele>600.716134</ele>
        <time>2021-08-11T22:45:30.583Z</time>
      </trkpt>
      <trkpt lat="41.82678" lon="44.84007">
        <ele>602.965931</ele>
        <time>2021-08-11T22:46:02.827Z</time>
      </trkpt>
      <trkpt lat="41.82678" lon="44.84053">
        <ele>604.254333</ele>
        <time>2021-08-11T22:46:19.983Z</time>
      </trkpt>
      <trkpt lat="41.82669" lon="44.84087">
        <ele>605.28914</ele>
        <time>2021-08-11T22:46:34.694Z</time>
      </trkpt>
      <trkpt lat="41.82666" lon="44.84135">
        <ele>606.653157</ele>
        <time>2021-08-11T22:46:55.369Z</time>
      </trkpt>
      <trkpt lat="41.82677" lon="44.84222">
        <ele>609.422263</ele>
        <time>2021-08-11T22:47:32.596Z</time>
      </trkpt>
      <trkpt lat="41.82693" lon="44.84259">
        <ele>610.860259</ele>
        <time>2021-08-11T22:47:50.596Z</time>
      </trkpt>
      <trkpt lat="41.82693" lon="44.84273">
        <ele>611.297844</ele>
        <time>2021-08-11T22:47:56.454Z</time>
      </trkpt>
      <trkpt lat="41.82697" lon="44.84294">
        <ele>612.027786</ele>
        <time>2021-08-11T22:48:05.727Z</time>
      </trkpt>
      <trkpt lat="41.82759" lon="44.84454">
        <ele>618.42745</ele>
        <time>2021-08-11T22:49:22.264Z</time>
      </trkpt>
      <trkpt lat="41.82777" lon="44.84509">
        <ele>620.716926</ele>
        <time>2021-08-11T22:49:49.726Z</time>
      </trkpt>
      <trkpt lat="41.82786" lon="44.84558">
        <ele>622.665155</ele>
        <time>2021-08-11T22:50:12.677Z</time>
      </trkpt>
      <trkpt lat="41.82784" lon="44.84601">
        <ele>624.31273</ele>
        <time>2021-08-11T22:50:32.326Z</time>
      </trkpt>
      <trkpt lat="41.82783" lon="44.84652">
        <ele>626.218824</ele>
        <time>2021-08-11T22:50:55.984Z</time>
      </trkpt>
      <trkpt lat="41.82781" lon="44.84728">
        <ele>629.048635</ele>
        <time>2021-08-11T22:51:31.748Z</time>
      </trkpt>
      <trkpt lat="41.82797" lon="44.84881">
        <ele>634.378503</ele>
        <time>2021-08-11T22:52:38.522Z</time>
      </trkpt>
      <trkpt lat="41.82809" lon="44.84954">
        <ele>635.939751</ele>
        <time>2021-08-11T22:53:04.668Z</time>
      </trkpt>
      <trkpt lat="41.82815" lon="44.84986">
        <ele>636.629011</ele>
        <time>2021-08-11T22:53:15.343Z</time>
      </trkpt>
      <trkpt lat="41.82881" lon="44.85155">
        <ele>640.77227</ele>
        <time>2021-08-11T22:54:16.768Z</time>
      </trkpt>
      <trkpt lat="41.82928" lon="44.85249">
        <ele>643.35345</ele>
        <time>2021-08-11T22:54:57.843Z</time>
      </trkpt>
      <trkpt lat="41.82977" lon="44.8536">
        <ele>647.188089</ele>
        <time>2021-08-11T22:55:50.989Z</time>
      </trkpt>
      <trkpt lat="41.83024" lon="44.85483">
        <ele>651.808521</ele>
        <time>2021-08-11T22:56:50.763Z</time>
      </trkpt>
      <trkpt lat="41.83118" lon="44.85799">
        <ele>662.946771</ele>
        <time>2021-08-11T22:59:10.631Z</time>
      </trkpt>
      <trkpt lat="41.83136" lon="44.85861">
        <ele>665.227904</ele>
        <time>2021-08-11T22:59:39.467Z</time>
      </trkpt>
      <trkpt lat="41.83176" lon="44.85997">
        <ele>670.031122</ele>
        <time>2021-08-11T23:00:42.819Z</time>
      </trkpt>
      <trkpt lat="41.83216" lon="44.86141">
        <ele>674.792834</ele>
        <time>2021-08-11T23:01:45.421Z</time>
      </trkpt>
      <trkpt lat="41.83229" lon="44.86189">
        <ele>676.296746</ele>
        <time>2021-08-11T23:02:04.572Z</time>
      </trkpt>
      <trkpt lat="41.83251" lon="44.86252">
        <ele>678.061797</ele>
        <time>2021-08-11T23:02:29.421Z</time>
      </trkpt>
      <trkpt lat="41.8327" lon="44.86289">
        <ele>679.194499</ele>
        <time>2021-08-11T23:02:45.884Z</time>
      </trkpt>
      <trkpt lat="41.83338" lon="44.8639">
        <ele>682.762111</ele>
        <time>2021-08-11T23:03:37.176Z</time>
      </trkpt>
      <trkpt lat="41.83352" lon="44.86409">
        <ele>683.592061</ele>
        <time>2021-08-11T23:03:47.702Z</time>
      </trkpt>
      <trkpt lat="41.83381" lon="44.86453">
        <ele>685.376305</ele>
        <time>2021-08-11T23:04:11.271Z</time>
      </trkpt>
      <trkpt lat="41.83423" lon="44.86507">
        <ele>687.736303</ele>
        <time>2021-08-11T23:04:43.040Z</time>
      </trkpt>
      <trkpt lat="41.83505" lon="44.86557">
        <ele>691.269312</ele>
        <time>2021-08-11T23:05:34.196Z</time>
      </trkpt>
      <trkpt lat="41.83569" lon="44.86611">
        <ele>694.056588</ele>
        <time>2021-08-11T23:06:12.492Z</time>
      </trkpt>
      <trkpt lat="41.8359" lon="44.86612">
        <ele>694.826743</ele>
        <time>2021-08-11T23:06:22.957Z</time>
      </trkpt>
      <trkpt lat="41.83614" lon="44.86621">
        <ele>695.786297</ele>
        <time>2021-08-11T23:06:35.818Z</time>
      </trkpt>
      <trkpt lat="41.83658" lon="44.86664">
        <ele>697.516053</ele>
        <time>2021-08-11T23:07:02.484Z</time>
      </trkpt>
      <trkpt lat="41.83687" lon="44.86676">
        <ele>698.425533</ele>
        <time>2021-08-11T23:07:16.663Z</time>
      </trkpt>
      <trkpt lat="41.83733" lon="44.86668">
        <ele>699.886079</ele>
        <time>2021-08-11T23:07:38.735Z</time>
      </trkpt>
      <trkpt lat="41.83745" lon="44.8668">
        <ele>700.352719</ele>
        <time>2021-08-11T23:07:45.547Z</time>
      </trkpt>
      <trkpt lat="41.83768" lon="44.8672">
        <ele>701.50769</ele>
        <time>2021-08-11T23:08:03.829Z</time>
      </trkpt>
      <trkpt lat="41.8381" lon="44.86759">
        <ele>703.340678</ele>
        <time>2021-08-11T23:08:29.556Z</time>
      </trkpt>
      <trkpt lat="41.83849" lon="44.86852">
        <ele>706.217361</ele>
        <time>2021-08-11T23:09:09.960Z</time>
      </trkpt>
      <trkpt lat="41.8385" lon="44.86859">
        <ele>706.400696</ele>
        <time>2021-08-11T23:09:13.531Z</time>
      </trkpt>
      <trkpt lat="41.83859" lon="44.86892">
        <ele>707.352856</ele>
        <time>2021-08-11T23:09:26.845Z</time>
      </trkpt>
      <trkpt lat="41.83887" lon="44.87064">
        <ele>712.367674</ele>
        <time>2021-08-11T23:10:37.813Z</time>
      </trkpt>
      <trkpt lat="41.8389" lon="44.87085">
        <ele>713.000031</ele>
        <time>2021-08-11T23:10:46.792Z</time>
      </trkpt>
      <trkpt lat="41.83909" lon="44.87146">
        <ele>714.902119</ele>
        <time>2021-08-11T23:11:11.404Z</time>
      </trkpt>
      <trkpt lat="41.83972" lon="44.87228">
        <ele>717.790992</ele>
        <time>2021-08-11T23:11:55.808Z</time>
      </trkpt>
      <trkpt lat="41.8398" lon="44.87249">
        <ele>718.37205</ele>
        <time>2021-08-11T23:12:04.908Z</time>
      </trkpt>
      <trkpt lat="41.84005" lon="44.87368">
        <ele>721.300214</ele>
        <time>2021-08-11T23:12:49.173Z</time>
      </trkpt>
      <trkpt lat="41.84022" lon="44.87405">
        <ele>722.194236</ele>
        <time>2021-08-11T23:13:04.400Z</time>
      </trkpt>
      <trkpt lat="41.8403" lon="44.87417">
        <ele>722.524222</ele>
        <time>2021-08-11T23:13:10.130Z</time>
      </trkpt>
      <trkpt lat="41.84062" lon="44.87491">
        <ele>724.269921</ele>
        <time>2021-08-11T23:13:39.151Z</time>
      </trkpt>
      <trkpt lat="41.8412" lon="44.87576">
        <ele>726.867489</ele>
        <time>2021-08-11T23:14:17.839Z</time>
      </trkpt>
      <trkpt lat="41.84189" lon="44.8771">
        <ele>731.370773</ele>
        <time>2021-08-11T23:15:20.754Z</time>
      </trkpt>
      <trkpt lat="41.84202" lon="44.87753">
        <ele>732.686251</ele>
        <time>2021-08-11T23:15:40.385Z</time>
      </trkpt>
      <trkpt lat="41.84223" lon="44.8784">
        <ele>736.240581</ele>
        <time>2021-08-11T23:16:21.119Z</time>
      </trkpt>
      <trkpt lat="41.84244" lon="44.87973">
        <ele>741.528417</ele>
        <time>2021-08-11T23:17:25.028Z</time>
      </trkpt>
      <trkpt lat="41.84251" lon="44.88103">
        <ele>746.006844</ele>
        <time>2021-08-11T23:18:22.170Z</time>
      </trkpt>
      <trkpt lat="41.84243" lon="44.88222">
        <ele>750.067588</ele>
        <time>2021-08-11T23:19:11.019Z</time>
      </trkpt>
      <trkpt lat="41.8426" lon="44.88328">
        <ele>753.684838</ele>
        <time>2021-08-11T23:19:52.419Z</time>
      </trkpt>
      <trkpt lat="41.84316" lon="44.88511">
        <ele>760.975846</ele>
        <time>2021-08-11T23:21:19.753Z</time>
      </trkpt>
      <trkpt lat="41.84332" lon="44.88532">
        <ele>762.304717</ele>
        <time>2021-08-11T23:21:34.367Z</time>
      </trkpt>
      <trkpt lat="41.8436" lon="44.88561">
        <ele>764.389693</ele>
        <time>2021-08-11T23:21:56.886Z</time>
      </trkpt>
      <trkpt lat="41.84428" lon="44.8864">
        <ele>769.764781</ele>
        <time>2021-08-11T23:22:57.805Z</time>
      </trkpt>
      <trkpt lat="41.84485" lon="44.88685">
        <ele>773.816134</ele>
        <time>2021-08-11T23:23:43.072Z</time>
      </trkpt>
      <trkpt lat="41.84522" lon="44.88704">
        <ele>776.258572</ele>
        <time>2021-08-11T23:24:08.284Z</time>
      </trkpt>
      <trkpt lat="41.84564" lon="44.88736">
        <ele>779.255113</ele>
        <time>2021-08-11T23:24:39.524Z</time>
      </trkpt>
      <trkpt lat="41.84585" lon="44.88738">
        <ele>780.405494</ele>
        <time>2021-08-11T23:24:52.666Z</time>
      </trkpt>
      <trkpt lat="41.84612" lon="44.88721">
        <ele>781.863728</ele>
        <time>2021-08-11T23:25:11.609Z</time>
      </trkpt>
      <trkpt lat="41.84695" lon="44.88728">
        <ele>785.881131</ele>
        <time>2021-08-11T23:26:00.817Z</time>
      </trkpt>
      <trkpt lat="41.8478" lon="44.88721">
        <ele>789.684638</ele>
        <time>2021-08-11T23:26:46.789Z</time>
      </trkpt>
      <trkpt lat="41.8482" lon="44.88731">
        <ele>791.192856</ele>
        <time>2021-08-11T23:27:07.663Z</time>
      </trkpt>
      <trkpt lat="41.84853" lon="44.88765">
        <ele>792.706538</ele>
        <time>2021-08-11T23:27:28.280Z</time>
      </trkpt>
      <trkpt lat="41.84924" lon="44.88787">
        <ele>795.428459</ele>
        <time>2021-08-11T23:28:05.397Z</time>
      </trkpt>
      <trkpt lat="41.8495" lon="44.88801">
        <ele>796.721301</ele>
        <time>2021-08-11T23:28:20.213Z</time>
      </trkpt>
      <trkpt lat="41.84996" lon="44.88851">
        <ele>799.427222</ele>
        <time>2021-08-11T23:28:52.490Z</time>
      </trkpt>
      <trkpt lat="41.85054" lon="44.88887">
        <ele>802.354202</ele>
        <time>2021-08-11T23:29:29.341Z</time>
      </trkpt>
      <trkpt lat="41.85106" lon="44.88895">
        <ele>804.69175</ele>
        <time>2021-08-11T23:30:04.049Z</time>
      </trkpt>
      <trkpt lat="41.85207" lon="44.88891">
        <ele>809.076624</ele>
        <time>2021-08-11T23:31:03.707Z</time>
      </trkpt>
      <trkpt lat="41.8523" lon="44.88895">
        <ele>810.081392</ele>
        <time>2021-08-11T23:31:15.303Z</time>
      </trkpt>
      <trkpt lat="41.85243" lon="44.88904">
        <ele>810.748416</ele>
        <time>2021-08-11T23:31:20.589Z</time>
      </trkpt>
      <trkpt lat="41.85253" lon="44.88926">
        <ele>811.48156</ele>
        <time>2021-08-11T23:31:30.586Z</time>
      </trkpt>
      <trkpt lat="41.85254" lon="44.88944">
        <ele>811.814856</ele>
        <time>2021-08-11T23:31:34.529Z</time>
      </trkpt>
      <trkpt lat="41.8525" lon="44.88961">
        <ele>812.144637</ele>
        <time>2021-08-11T23:31:42.566Z</time>
      </trkpt>
      <trkpt lat="41.8524" lon="44.88976">
        <ele>812.513715</ele>
        <time>2021-08-11T23:31:47.322Z</time>
      </trkpt>
      <trkpt lat="41.85202" lon="44.89008">
        <ele>813.627031</ele>
        <time>2021-08-11T23:32:06.185Z</time>
      </trkpt>
      <trkpt lat="41.8519" lon="44.8903">
        <ele>814.140375</ele>
        <time>2021-08-11T23:32:17.321Z</time>
      </trkpt>
      <trkpt lat="41.85185" lon="44.89052">
        <ele>814.555564</ele>
        <time>2021-08-11T23:32:22.798Z</time>
      </trkpt>
      <trkpt lat="41.85187" lon="44.89084">
        <ele>815.14891</ele>
        <time>2021-08-11T23:32:32.564Z</time>
      </trkpt>
      <trkpt lat="41.85201" lon="44.89116">
        <ele>815.849519</ele>
        <time>2021-08-11T23:32:44.366Z</time>
      </trkpt>
      <trkpt lat="41.85406" lon="44.89317">
        <ele>827.074014</ele>
        <time>2021-08-11T23:35:10.681Z</time>
      </trkpt>
      <trkpt lat="41.85444" lon="44.89402">
        <ele>830.475557</ele>
        <time>2021-08-11T23:35:52.746Z</time>
      </trkpt>
      <trkpt lat="41.85464" lon="44.89492">
        <ele>833.580496</ele>
        <time>2021-08-11T23:36:31.471Z</time>
      </trkpt>
      <trkpt lat="41.85491" lon="44.89539">
        <ele>835.488742</ele>
        <time>2021-08-11T23:36:54.970Z</time>
      </trkpt>
      <trkpt lat="41.85513" lon="44.89602">
        <ele>837.742558</ele>
        <time>2021-08-11T23:37:22.935Z</time>
      </trkpt>
      <trkpt lat="41.85536" lon="44.89647">
        <ele>839.522271</ele>
        <time>2021-08-11T23:37:46.230Z</time>
      </trkpt>
      <trkpt lat="41.85555" lon="44.89665">
        <ele>840.769215</ele>
        <time>2021-08-11T23:37:59.642Z</time>
      </trkpt>
      <trkpt lat="41.85603" lon="44.89684">
        <ele>843.564061</ele>
        <time>2021-08-11T23:38:30.973Z</time>
      </trkpt>
      <trkpt lat="41.85611" lon="44.89694">
        <ele>844.144465</ele>
        <time>2021-08-11T23:38:37.563Z</time>
      </trkpt>
      <trkpt lat="41.85617" lon="44.89704">
        <ele>844.709763</ele>
        <time>2021-08-11T23:38:43.932Z</time>
      </trkpt>
      <trkpt lat="41.85643" lon="44.89795">
        <ele>848.757303</ele>
        <time>2021-08-11T23:39:30.468Z</time>
      </trkpt>
      <trkpt lat="41.85667" lon="44.89817">
        <ele>850.415487</ele>
        <time>2021-08-11T23:39:48.793Z</time>
      </trkpt>
      <trkpt lat="41.85698" lon="44.89831">
        <ele>852.449491</ele>
        <time>2021-08-11T23:40:10.058Z</time>
      </trkpt>
      <trkpt lat="41.85764" lon="44.89846">
        <ele>856.595948</ele>
        <time>2021-08-11T23:40:54.376Z</time>
      </trkpt>
      <trkpt lat="41.85802" lon="44.89872">
        <ele>859.251013</ele>
        <time>2021-08-11T23:41:22.848Z</time>
      </trkpt>
      <trkpt lat="41.85835" lon="44.89913">
        <ele>862.154014</ele>
        <time>2021-08-11T23:41:52.788Z</time>
      </trkpt>
      <trkpt lat="41.85858" lon="44.89962">
        <ele>865.02938</ele>
        <time>2021-08-11T23:42:21.712Z</time>
      </trkpt>
      <trkpt lat="41.85884" lon="44.89994">
        <ele>867.425323</ele>
        <time>2021-08-11T23:42:46.510Z</time>
      </trkpt>
      <trkpt lat="41.85904" lon="44.90039">
        <ele>870.057652</ele>
        <time>2021-08-11T23:43:14.157Z</time>
      </trkpt>
      <trkpt lat="41.85919" lon="44.90055">
        <ele>871.340697</ele>
        <time>2021-08-11T23:43:27.632Z</time>
      </trkpt>
      <trkpt lat="41.86024" lon="44.90063">
        <ele>877.617368</ele>
        <time>2021-08-11T23:44:40.586Z</time>
      </trkpt>
      <trkpt lat="41.86067" lon="44.90053">
        <ele>880.093907</ele>
        <time>2021-08-11T23:45:07.961Z</time>
      </trkpt>
      <trkpt lat="41.86082" lon="44.90059">
        <ele>880.993109</ele>
        <time>2021-08-11T23:45:17.451Z</time>
      </trkpt>
      <trkpt lat="41.86093" lon="44.90075">
        <ele>881.896496</ele>
        <time>2021-08-11T23:45:26.714Z</time>
      </trkpt>
      <trkpt lat="41.86096" lon="44.90095">
        <ele>882.752072</ele>
        <time>2021-08-11T23:45:35.158Z</time>
      </trkpt>
      <trkpt lat="41.8609" lon="44.90115">
        <ele>883.376237</ele>
        <time>2021-08-11T23:45:44.186Z</time>
      </trkpt>
      <trkpt lat="41.86052" lon="44.90154">
        <ele>884.302873</ele>
        <time>2021-08-11T23:46:07.609Z</time>
      </trkpt>
      <trkpt lat="41.8602" lon="44.90235">
        <ele>885.621715</ele>
        <time>2021-08-11T23:46:35.018Z</time>
      </trkpt>
      <trkpt lat="41.85989" lon="44.90305">
        <ele>886.734833</ele>
        <time>2021-08-11T23:46:55.238Z</time>
      </trkpt>
      <trkpt lat="41.85974" lon="44.90341">
        <ele>886.99089</ele>
        <time>2021-08-11T23:47:05.087Z</time>
      </trkpt>
      <trkpt lat="41.85946" lon="44.90432">
        <ele>887.589383</ele>
        <time>2021-08-11T23:47:29.035Z</time>
      </trkpt>
      <trkpt lat="41.85942" lon="44.9046">
        <ele>887.759679</ele>
        <time>2021-08-11T23:47:36.395Z</time>
      </trkpt>
      <trkpt lat="41.85946" lon="44.90478">
        <ele>887.874845</ele>
        <time>2021-08-11T23:47:41.454Z</time>
      </trkpt>
      <trkpt lat="41.85974" lon="44.90522">
        <ele>888.419251</ele>
        <time>2021-08-11T23:47:58.380Z</time>
      </trkpt>
      <trkpt lat="41.85999" lon="44.90586">
        <ele>890.368131</ele>
        <time>2021-08-11T23:48:23.626Z</time>
      </trkpt>
      <trkpt lat="41.86045" lon="44.90645">
        <ele>892.638096</ele>
        <time>2021-08-11T23:48:57.140Z</time>
      </trkpt>
      <trkpt lat="41.86078" lon="44.90671">
        <ele>894.00212</ele>
        <time>2021-08-11T23:49:18.925Z</time>
      </trkpt>
      <trkpt lat="41.8611" lon="44.90706">
        <ele>896.086784</ele>
        <time>2021-08-11T23:49:43.065Z</time>
      </trkpt>
      <trkpt lat="41.86131" lon="44.90737">
        <ele>898.061835</ele>
        <time>2021-08-11T23:50:02.241Z</time>
      </trkpt>
      <trkpt lat="41.86159" lon="44.90755">
        <ele>899.927131</ele>
        <time>2021-08-11T23:50:21.012Z</time>
      </trkpt>
      <trkpt lat="41.86175" lon="44.90785">
        <ele>901.648047</ele>
        <time>2021-08-11T23:50:40.238Z</time>
      </trkpt>
      <trkpt lat="41.86177" lon="44.90849">
        <ele>904.560787</ele>
        <time>2021-08-11T23:51:13.380Z</time>
      </trkpt>
      <trkpt lat="41.86202" lon="44.90906">
        <ele>908.466391</ele>
        <time>2021-08-11T23:51:50.037Z</time>
      </trkpt>
      <trkpt lat="41.86207" lon="44.90925">
        <ele>909.790449</ele>
        <time>2021-08-11T23:52:00.866Z</time>
      </trkpt>
      <trkpt lat="41.86218" lon="44.90953">
        <ele>911.870632</ele>
        <time>2021-08-11T23:52:19.725Z</time>
      </trkpt>
      <trkpt lat="41.86266" lon="44.91008">
        <ele>917.45234</ele>
        <time>2021-08-11T23:53:11.479Z</time>
      </trkpt>
      <trkpt lat="41.86279" lon="44.91012">
        <ele>918.71421</ele>
        <time>2021-08-11T23:53:23.870Z</time>
      </trkpt>
      <trkpt lat="41.86338" lon="44.91005">
        <ele>923.649883</ele>
        <time>2021-08-11T23:54:16.378Z</time>
      </trkpt>
      <trkpt lat="41.86382" lon="44.91024">
        <ele>927.323472</ele>
        <time>2021-08-11T23:54:55.070Z</time>
      </trkpt>
      <trkpt lat="41.86472" lon="44.91016">
        <ele>934.48067</ele>
        <time>2021-08-11T23:56:00.935Z</time>
      </trkpt>
      <trkpt lat="41.86481" lon="44.91019">
        <ele>935.217887</ele>
        <time>2021-08-11T23:56:07.055Z</time>
      </trkpt>
      <trkpt lat="41.86493" lon="44.91038">
        <ele>936.219472</ele>
        <time>2021-08-11T23:56:18.335Z</time>
      </trkpt>
      <trkpt lat="41.8649" lon="44.91065">
        <ele>936.91352</ele>
        <time>2021-08-11T23:56:30.590Z</time>
      </trkpt>
      <trkpt lat="41.86447" lon="44.9109">
        <ele>938.515291</ele>
        <time>2021-08-11T23:56:54.215Z</time>
      </trkpt>
      <trkpt lat="41.86401" lon="44.91134">
        <ele>940.415606</ele>
        <time>2021-08-11T23:57:18.648Z</time>
      </trkpt>
      <trkpt lat="41.86395" lon="44.91137">
        <ele>940.640206</ele>
        <time>2021-08-11T23:57:21.307Z</time>
      </trkpt>
      <trkpt lat="41.86364" lon="44.9115">
        <ele>941.762438</ele>
        <time>2021-08-11T23:57:35.071Z</time>
      </trkpt>
      <trkpt lat="41.86358" lon="44.91162">
        <ele>942.164082</ele>
        <time>2021-08-11T23:57:39.334Z</time>
      </trkpt>
      <trkpt lat="41.86359" lon="44.91176">
        <ele>942.691435</ele>
        <time>2021-08-11T23:57:43.966Z</time>
      </trkpt>
      <trkpt lat="41.86382" lon="44.91213">
        <ele>944.489138</ele>
        <time>2021-08-11T23:58:01.618Z</time>
      </trkpt>
      <trkpt lat="41.86394" lon="44.91253">
        <ele>946.09946</ele>
        <time>2021-08-11T23:58:19.130Z</time>
      </trkpt>
      <trkpt lat="41.86371" lon="44.91371">
        <ele>950.674984</ele>
        <time>2021-08-11T23:59:17.298Z</time>
      </trkpt>
      <trkpt lat="41.86371" lon="44.91397">
        <ele>952.114641</ele>
        <time>2021-08-11T23:59:31.484Z</time>
      </trkpt>
      <trkpt lat="41.86379" lon="44.91416">
        <ele>953.621974</ele>
        <time>2021-08-11T23:59:44.782Z</time>
      </trkpt>
      <trkpt lat="41.86411" lon="44.91433">
        <ele>956.80065</ele>
        <time>2021-08-12T00:00:14.080Z</time>
      </trkpt>
      <trkpt lat="41.86436" lon="44.91431">
        <ele>959.051376</ele>
        <time>2021-08-12T00:00:35.781Z</time>
      </trkpt>
      <trkpt lat="41.86485" lon="44.91413">
        <ele>963.739007</ele>
        <time>2021-08-12T00:01:21.207Z</time>
      </trkpt>
      <trkpt lat="41.86519" lon="44.91412">
        <ele>966.914545</ele>
        <time>2021-08-12T00:01:51.150Z</time>
      </trkpt>
      <trkpt lat="41.86563" lon="44.91469">
        <ele>971.234809</ele>
        <time>2021-08-12T00:02:39.338Z</time>
      </trkpt>
      <trkpt lat="41.86578" lon="44.91508">
        <ele>973.411205</ele>
        <time>2021-08-12T00:03:02.889Z</time>
      </trkpt>
      <trkpt lat="41.86579" lon="44.91523">
        <ele>974.193591</ele>
        <time>2021-08-12T00:03:11.116Z</time>
      </trkpt>
      <trkpt lat="41.8657" lon="44.91552">
        <ele>975.764436</ele>
        <time>2021-08-12T00:03:26.528Z</time>
      </trkpt>
      <trkpt lat="41.86562" lon="44.91565">
        <ele>976.634382</ele>
        <time>2021-08-12T00:03:34.863Z</time>
      </trkpt>
      <trkpt lat="41.8652" lon="44.91594">
        <ele>979.775428</ele>
        <time>2021-08-12T00:04:01.843Z</time>
      </trkpt>
      <trkpt lat="41.86503" lon="44.91622">
        <ele>980.70871</ele>
        <time>2021-08-12T00:04:16.192Z</time>
      </trkpt>
      <trkpt lat="41.86486" lon="44.9164">
        <ele>981.447047</ele>
        <time>2021-08-12T00:04:26.634Z</time>
      </trkpt>
      <trkpt lat="41.86463" lon="44.91654">
        <ele>982.326671</ele>
        <time>2021-08-12T00:04:38.593Z</time>
      </trkpt>
      <trkpt lat="41.86421" lon="44.91657">
        <ele>983.762958</ele>
        <time>2021-08-12T00:04:57.916Z</time>
      </trkpt>
      <trkpt lat="41.86414" lon="44.91665">
        <ele>984.086436</ele>
        <time>2021-08-12T00:05:02.361Z</time>
      </trkpt>
      <trkpt lat="41.86416" lon="44.91682">
        <ele>984.533727</ele>
        <time>2021-08-12T00:05:08.624Z</time>
      </trkpt>
      <trkpt lat="41.86438" lon="44.91691">
        <ele>985.326386</ele>
        <time>2021-08-12T00:05:20.034Z</time>
      </trkpt>
      <trkpt lat="41.86476" lon="44.9169">
        <ele>986.904045</ele>
        <time>2021-08-12T00:05:39.340Z</time>
      </trkpt>
      <trkpt lat="41.86485" lon="44.91697">
        <ele>987.411351</ele>
        <time>2021-08-12T00:05:44.773Z</time>
      </trkpt>
      <trkpt lat="41.86511" lon="44.91722">
        <ele>988.998126</ele>
        <time>2021-08-12T00:06:02.275Z</time>
      </trkpt>
      <trkpt lat="41.86566" lon="44.91807">
        <ele>993.1365</ele>
        <time>2021-08-12T00:06:51.944Z</time>
      </trkpt>
      <trkpt lat="41.86581" lon="44.91813">
        <ele>993.897022</ele>
        <time>2021-08-12T00:07:01.767Z</time>
      </trkpt>
      <trkpt lat="41.86586" lon="44.91803">
        <ele>994.378462</ele>
        <time>2021-08-12T00:07:08.090Z</time>
      </trkpt>
      <trkpt lat="41.86584" lon="44.91793">
        <ele>994.752916</ele>
        <time>2021-08-12T00:07:12.978Z</time>
      </trkpt>
      <trkpt lat="41.86527" lon="44.91701">
        <ele>1001.809223</ele>
        <time>2021-08-12T00:08:17.258Z</time>
      </trkpt>
      <trkpt lat="41.86522" lon="44.91683">
        <ele>1002.992531</ele>
        <time>2021-08-12T00:08:28.821Z</time>
      </trkpt>
      <trkpt lat="41.86525" lon="44.91665">
        <ele>1004.051204</ele>
        <time>2021-08-12T00:08:39.450Z</time>
      </trkpt>
      <trkpt lat="41.86534" lon="44.91657">
        <ele>1004.913574</ele>
        <time>2021-08-12T00:08:48.177Z</time>
      </trkpt>
      <trkpt lat="41.8655" lon="44.91656">
        <ele>1006.181472</ele>
        <time>2021-08-12T00:09:00.997Z</time>
      </trkpt>
      <trkpt lat="41.8667" lon="44.91653">
        <ele>1015.18172</ele>
        <time>2021-08-12T00:10:41.434Z</time>
      </trkpt>
      <trkpt lat="41.86766" lon="44.91613">
        <ele>1022.26842</ele>
        <time>2021-08-12T00:11:48.857Z</time>
      </trkpt>
      <trkpt lat="41.86787" lon="44.9161">
        <ele>1022.521747</ele>
        <time>2021-08-12T00:11:59.268Z</time>
      </trkpt>
      <trkpt lat="41.86791" lon="44.91622">
        <ele>1022.649593</ele>
        <time>2021-08-12T00:12:04.495Z</time>
      </trkpt>
      <trkpt lat="41.86777" lon="44.91638">
        <ele>1022.871397</ele>
        <time>2021-08-12T00:12:12.184Z</time>
      </trkpt>
      <trkpt lat="41.86606" lon="44.91705">
        <ele>1025.550523</ele>
        <time>2021-08-12T00:13:05.207Z</time>
      </trkpt>
      <trkpt lat="41.866" lon="44.91721">
        <ele>1025.843904</ele>
        <time>2021-08-12T00:13:09.787Z</time>
      </trkpt>
      <trkpt lat="41.86605" lon="44.91736">
        <ele>1026.109827</ele>
        <time>2021-08-12T00:13:14.198Z</time>
      </trkpt>
      <trkpt lat="41.86616" lon="44.9174">
        <ele>1026.362136</ele>
        <time>2021-08-12T00:13:18.698Z</time>
      </trkpt>
      <trkpt lat="41.86673" lon="44.91739">
        <ele>1027.615543</ele>
        <time>2021-08-12T00:13:44.529Z</time>
      </trkpt>
      <trkpt lat="41.86772" lon="44.91773">
        <ele>1033.8185</ele>
        <time>2021-08-12T00:14:50.659Z</time>
      </trkpt>
      <trkpt lat="41.86778" lon="44.91808">
        <ele>1035.971918</ele>
        <time>2021-08-12T00:15:11.597Z</time>
      </trkpt>
      <trkpt lat="41.86762" lon="44.91845">
        <ele>1038.522241</ele>
        <time>2021-08-12T00:15:35.915Z</time>
      </trkpt>
      <trkpt lat="41.86762" lon="44.91859">
        <ele>1039.339178</ele>
        <time>2021-08-12T00:15:43.000Z</time>
      </trkpt>
      <trkpt lat="41.86767" lon="44.91866">
        <ele>1039.941387</ele>
        <time>2021-08-12T00:15:49.488Z</time>
      </trkpt>
      <trkpt lat="41.86774" lon="44.91867">
        <ele>1040.433847</ele>
        <time>2021-08-12T00:15:55.380Z</time>
      </trkpt>
      <trkpt lat="41.86781" lon="44.9186">
        <ele>1041.124773</ele>
        <time>2021-08-12T00:16:04.916Z</time>
      </trkpt>
      <trkpt lat="41.86799" lon="44.91792">
        <ele>1046.492124</ele>
        <time>2021-08-12T00:16:54.785Z</time>
      </trkpt>
      <trkpt lat="41.86796" lon="44.91736">
        <ele>1051.258601</ele>
        <time>2021-08-12T00:17:36.343Z</time>
      </trkpt>
      <trkpt lat="41.86801" lon="44.91718">
        <ele>1052.795601</ele>
        <time>2021-08-12T00:17:51.666Z</time>
      </trkpt>
      <trkpt lat="41.86809" lon="44.91711">
        <ele>1053.891931</ele>
        <time>2021-08-12T00:17:59.122Z</time>
      </trkpt>
      <trkpt lat="41.86824" lon="44.91712">
        <ele>1055.602383</ele>
        <time>2021-08-12T00:18:14.450Z</time>
      </trkpt>
      <trkpt lat="41.8687" lon="44.91728">
        <ele>1060.974465</ele>
        <time>2021-08-12T00:18:59.912Z</time>
      </trkpt>
      <trkpt lat="41.8692" lon="44.91732">
        <ele>1065.523821</ele>
        <time>2021-08-12T00:19:44.287Z</time>
      </trkpt>
      <trkpt lat="41.8694" lon="44.91721">
        <ele>1067.173506</ele>
        <time>2021-08-12T00:20:03.483Z</time>
      </trkpt>
      <trkpt lat="41.86963" lon="44.91695">
        <ele>1069.560369</ele>
        <time>2021-08-12T00:20:29.546Z</time>
      </trkpt>
      <trkpt lat="41.8703" lon="44.91598">
        <ele>1077.220308</ele>
        <time>2021-08-12T00:21:32.476Z</time>
      </trkpt>
      <trkpt lat="41.87065" lon="44.91558">
        <ele>1079.611314</ele>
        <time>2021-08-12T00:21:59.583Z</time>
      </trkpt>
      <trkpt lat="41.87083" lon="44.91521">
        <ele>1081.325645</ele>
        <time>2021-08-12T00:22:18.984Z</time>
      </trkpt>
      <trkpt lat="41.8709" lon="44.91479">
        <ele>1083.022729</ele>
        <time>2021-08-12T00:22:38.445Z</time>
      </trkpt>
      <trkpt lat="41.87088" lon="44.91425">
        <ele>1085.095356</ele>
        <time>2021-08-12T00:23:02.177Z</time>
      </trkpt>
      <trkpt lat="41.87063" lon="44.9139">
        <ele>1087.014682</ele>
        <time>2021-08-12T00:23:24.254Z</time>
      </trkpt>
      <trkpt lat="41.87058" lon="44.91377">
        <ele>1087.544454</ele>
        <time>2021-08-12T00:23:30.726Z</time>
      </trkpt>
      <trkpt lat="41.87063" lon="44.91361">
        <ele>1088.208327</ele>
        <time>2021-08-12T00:23:39.009Z</time>
      </trkpt>
      <trkpt lat="41.87123" lon="44.91309">
        <ele>1091.844826</ele>
        <time>2021-08-12T00:24:24.995Z</time>
      </trkpt>
      <trkpt lat="41.872" lon="44.91212">
        <ele>1096.926346</ele>
        <time>2021-08-12T00:25:24.295Z</time>
      </trkpt>
      <trkpt lat="41.87207" lon="44.91193">
        <ele>1097.601977</ele>
        <time>2021-08-12T00:25:31.887Z</time>
      </trkpt>
      <trkpt lat="41.87211" lon="44.91169">
        <ele>1098.345482</ele>
        <time>2021-08-12T00:25:40.146Z</time>
      </trkpt>
      <trkpt lat="41.87207" lon="44.9114">
        <ele>1099.264752</ele>
        <time>2021-08-12T00:25:49.605Z</time>
      </trkpt>
      <trkpt lat="41.87184" lon="44.91061">
        <ele>1101.912841</ele>
        <time>2021-08-12T00:26:24.161Z</time>
      </trkpt>
      <trkpt lat="41.87191" lon="44.90985">
        <ele>1104.8352</ele>
        <time>2021-08-12T00:27:00.089Z</time>
      </trkpt>
      <trkpt lat="41.87203" lon="44.90937">
        <ele>1107.16384</ele>
        <time>2021-08-12T00:27:25.254Z</time>
      </trkpt>
      <trkpt lat="41.87213" lon="44.90913">
        <ele>1108.421939</ele>
        <time>2021-08-12T00:27:39.422Z</time>
      </trkpt>
      <trkpt lat="41.87223" lon="44.90893">
        <ele>1109.534471</ele>
        <time>2021-08-12T00:27:51.312Z</time>
      </trkpt>
      <trkpt lat="41.87229" lon="44.90887">
        <ele>1110.01244</ele>
        <time>2021-08-12T00:27:56.056Z</time>
      </trkpt>
      <trkpt lat="41.87243" lon="44.90888">
        <ele>1110.863337</ele>
        <time>2021-08-12T00:28:06.554Z</time>
      </trkpt>
      <trkpt lat="41.87265" lon="44.90906">
        <ele>1112.457622</ele>
        <time>2021-08-12T00:28:22.368Z</time>
      </trkpt>
      <trkpt lat="41.8727" lon="44.90918">
        <ele>1113.063421</ele>
        <time>2021-08-12T00:28:30.986Z</time>
      </trkpt>
      <trkpt lat="41.87278" lon="44.90946">
        <ele>1114.326069</ele>
        <time>2021-08-12T00:28:45.686Z</time>
      </trkpt>
      <trkpt lat="41.87299" lon="44.91042">
        <ele>1116.26502</ele>
        <time>2021-08-12T00:29:33.427Z</time>
      </trkpt>
      <trkpt lat="41.87317" lon="44.91093">
        <ele>1117.350015</ele>
        <time>2021-08-12T00:29:52.085Z</time>
      </trkpt>
      <trkpt lat="41.87321" lon="44.91102">
        <ele>1117.554978</ele>
        <time>2021-08-12T00:29:56.033Z</time>
      </trkpt>
      <trkpt lat="41.87324" lon="44.91111">
        <ele>1117.753608</ele>
        <time>2021-08-12T00:29:58.862Z</time>
      </trkpt>
      <trkpt lat="41.87332" lon="44.91129">
        <ele>1118.161864</ele>
        <time>2021-08-12T00:30:02.979Z</time>
      </trkpt>
      <trkpt lat="41.87344" lon="44.91181">
        <ele>1118.225492</ele>
        <time>2021-08-12T00:30:12.764Z</time>
      </trkpt>
      <trkpt lat="41.87348" lon="44.91226">
        <ele>1116.200835</ele>
        <time>2021-08-12T00:30:20.409Z</time>
      </trkpt>
      <trkpt lat="41.87354" lon="44.91243">
        <ele>1115.352682</ele>
        <time>2021-08-12T00:30:23.562Z</time>
      </trkpt>
      <trkpt lat="41.87373" lon="44.91262">
        <ele>1113.960732</ele>
        <time>2021-08-12T00:30:28.429Z</time>
      </trkpt>
      <trkpt lat="41.87385" lon="44.91263">
        <ele>1113.200311</ele>
        <time>2021-08-12T00:30:31.143Z</time>
      </trkpt>
      <trkpt lat="41.87398" lon="44.91248">
        <ele>1112.196342</ele>
        <time>2021-08-12T00:30:34.567Z</time>
      </trkpt>
      <trkpt lat="41.87422" lon="44.91089">
        <ele>1102.866455</ele>
        <time>2021-08-12T00:30:57.878Z</time>
      </trkpt>
      <trkpt lat="41.87455" lon="44.91009">
        <ele>1096.134659</ele>
        <time>2021-08-12T00:31:10.764Z</time>
      </trkpt>
      <trkpt lat="41.87465" lon="44.90999">
        <ele>1094.884449</ele>
        <time>2021-08-12T00:31:13.075Z</time>
      </trkpt>
      <trkpt lat="41.87485" lon="44.9098">
        <ele>1092.429556</ele>
        <time>2021-08-12T00:31:17.871Z</time>
      </trkpt>
      <trkpt lat="41.87512" lon="44.9097">
        <ele>1089.798074</ele>
        <time>2021-08-12T00:31:23.097Z</time>
      </trkpt>
      <trkpt lat="41.87535" lon="44.90975">
        <ele>1087.734955</ele>
        <time>2021-08-12T00:31:27.648Z</time>
      </trkpt>
      <trkpt lat="41.87551" lon="44.90988">
        <ele>1086.143244</ele>
        <time>2021-08-12T00:31:31.375Z</time>
      </trkpt>
      <trkpt lat="41.87558" lon="44.91009">
        <ele>1084.618488</ele>
        <time>2021-08-12T00:31:34.717Z</time>
      </trkpt>
      <trkpt lat="41.87559" lon="44.91024">
        <ele>1083.663256</ele>
        <time>2021-08-12T00:31:36.963Z</time>
      </trkpt>
      <trkpt lat="41.87548" lon="44.91127">
        <ele>1076.974735</ele>
        <time>2021-08-12T00:31:52.110Z</time>
      </trkpt>
      <trkpt lat="41.87548" lon="44.91163">
        <ele>1074.644495</ele>
        <time>2021-08-12T00:31:57.429Z</time>
      </trkpt>
      <trkpt lat="41.8756" lon="44.91192">
        <ele>1072.359248</ele>
        <time>2021-08-12T00:32:02.215Z</time>
      </trkpt>
      <trkpt lat="41.87571" lon="44.91204">
        <ele>1071.061718</ele>
        <time>2021-08-12T00:32:04.944Z</time>
      </trkpt>
      <trkpt lat="41.87582" lon="44.91204">
        <ele>1069.963732</ele>
        <time>2021-08-12T00:32:07.153Z</time>
      </trkpt>
      <trkpt lat="41.87592" lon="44.91198">
        <ele>1068.910398</ele>
        <time>2021-08-12T00:32:09.340Z</time>
      </trkpt>
      <trkpt lat="41.87597" lon="44.91189">
        <ele>1068.132617</ele>
        <time>2021-08-12T00:32:10.939Z</time>
      </trkpt>
      <trkpt lat="41.87669" lon="44.91136">
        <ele>1060.483177</ele>
        <time>2021-08-12T00:32:39.040Z</time>
      </trkpt>
      <trkpt lat="41.87685" lon="44.91114">
        <ele>1058.296154</ele>
        <time>2021-08-12T00:32:47.033Z</time>
      </trkpt>
      <trkpt lat="41.87684" lon="44.91092">
        <ele>1057.021267</ele>
        <time>2021-08-12T00:32:52.535Z</time>
      </trkpt>
      <trkpt lat="41.87705" lon="44.91092">
        <ele>1055.420035</ele>
        <time>2021-08-12T00:32:56.615Z</time>
      </trkpt>
      <trkpt lat="41.87729" lon="44.91085">
        <ele>1053.593315</ele>
        <time>2021-08-12T00:33:01.357Z</time>
      </trkpt>
      <trkpt lat="41.87764" lon="44.91052">
        <ele>1050.427339</ele>
        <time>2021-08-12T00:33:09.687Z</time>
      </trkpt>
      <trkpt lat="41.87782" lon="44.91048">
        <ele>1049.068579</ele>
        <time>2021-08-12T00:33:13.334Z</time>
      </trkpt>
      <trkpt lat="41.87805" lon="44.91067">
        <ele>1047.089218</ele>
        <time>2021-08-12T00:33:18.695Z</time>
      </trkpt>
      <trkpt lat="41.87831" lon="44.91108">
        <ele>1044.492631</ele>
        <time>2021-08-12T00:33:27.052Z</time>
      </trkpt>
      <trkpt lat="41.87837" lon="44.91136">
        <ele>1044.184588</ele>
        <time>2021-08-12T00:33:32.266Z</time>
      </trkpt>
      <trkpt lat="41.87829" lon="44.91236">
        <ele>1043.133676</ele>
        <time>2021-08-12T00:33:51.572Z</time>
      </trkpt>
      <trkpt lat="41.87829" lon="44.91288">
        <ele>1042.588035</ele>
        <time>2021-08-12T00:34:03.324Z</time>
      </trkpt>
      <trkpt lat="41.87835" lon="44.9132">
        <ele>1042.230865</ele>
        <time>2021-08-12T00:34:11.790Z</time>
      </trkpt>
      <trkpt lat="41.8787" lon="44.91397">
        <ele>1042.165352</ele>
        <time>2021-08-12T00:34:34.763Z</time>
      </trkpt>
      <trkpt lat="41.87892" lon="44.91469">
        <ele>1042.297513</ele>
        <time>2021-08-12T00:34:54.698Z</time>
      </trkpt>
      <trkpt lat="41.87913" lon="44.91601">
        <ele>1042.729516</ele>
        <time>2021-08-12T00:35:24.538Z</time>
      </trkpt>
      <trkpt lat="41.87931" lon="44.91665">
        <ele>1043.171556</ele>
        <time>2021-08-12T00:35:41.421Z</time>
      </trkpt>
      <trkpt lat="41.87944" lon="44.91731">
        <ele>1043.610819</ele>
        <time>2021-08-12T00:36:01.136Z</time>
      </trkpt>
      <trkpt lat="41.87945" lon="44.91752">
        <ele>1043.743377</ele>
        <time>2021-08-12T00:36:06.113Z</time>
      </trkpt>
      <trkpt lat="41.87946" lon="44.91781">
        <ele>1043.936098</ele>
        <time>2021-08-12T00:36:16.251Z</time>
      </trkpt>
      <trkpt lat="41.87919" lon="44.91939">
        <ele>1045.144353</ele>
        <time>2021-08-12T00:37:07.816Z</time>
      </trkpt>
      <trkpt lat="41.87906" lon="44.921">
        <ele>1043.402714</ele>
        <time>2021-08-12T00:37:43.992Z</time>
      </trkpt>
      <trkpt lat="41.8791" lon="44.92164">
        <ele>1041.203417</ele>
        <time>2021-08-12T00:37:53.858Z</time>
      </trkpt>
      <trkpt lat="41.87923" lon="44.92204">
        <ele>1039.713589</ele>
        <time>2021-08-12T00:38:00.400Z</time>
      </trkpt>
      <trkpt lat="41.87934" lon="44.92218">
        <ele>1039.019045</ele>
        <time>2021-08-12T00:38:03.347Z</time>
      </trkpt>
      <trkpt lat="41.8794" lon="44.92225">
        <ele>1038.660353</ele>
        <time>2021-08-12T00:38:04.893Z</time>
      </trkpt>
      <trkpt lat="41.88001" lon="44.92286">
        <ele>1035.675192</ele>
        <time>2021-08-12T00:38:20.183Z</time>
      </trkpt>
      <trkpt lat="41.88022" lon="44.9231">
        <ele>1034.680479</ele>
        <time>2021-08-12T00:38:25.806Z</time>
      </trkpt>
      <trkpt lat="41.88032" lon="44.92327">
        <ele>1034.091299</ele>
        <time>2021-08-12T00:38:29.333Z</time>
      </trkpt>
      <trkpt lat="41.88037" lon="44.92357">
        <ele>1033.288553</ele>
        <time>2021-08-12T00:38:33.937Z</time>
      </trkpt>
      <trkpt lat="41.88038" lon="44.92429">
        <ele>1031.344953</ele>
        <time>2021-08-12T00:38:48.740Z</time>
      </trkpt>
      <trkpt lat="41.88039" lon="44.92539">
        <ele>1035.302518</ele>
        <time>2021-08-12T00:39:32.851Z</time>
      </trkpt>
      <trkpt lat="41.88053" lon="44.9251">
        <ele>1036.765047</ele>
        <time>2021-08-12T00:39:50.863Z</time>
      </trkpt>
      <trkpt lat="41.88074" lon="44.92456">
        <ele>1039.345632</ele>
        <time>2021-08-12T00:40:24.079Z</time>
      </trkpt>
      <trkpt lat="41.88081" lon="44.92458">
        <ele>1039.752789</ele>
        <time>2021-08-12T00:40:29.802Z</time>
      </trkpt>
      <trkpt lat="41.88089" lon="44.92495">
        <ele>1041.490785</ele>
        <time>2021-08-12T00:40:52.735Z</time>
      </trkpt>
      <trkpt lat="41.881" lon="44.92513">
        <ele>1043.354208</ele>
        <time>2021-08-12T00:41:07.025Z</time>
      </trkpt>
      <trkpt lat="41.88111" lon="44.92521">
        <ele>1044.639545</ele>
        <time>2021-08-12T00:41:16.616Z</time>
      </trkpt>
      <trkpt lat="41.88166" lon="44.92531">
        <ele>1050.695634</ele>
        <time>2021-08-12T00:42:10.492Z</time>
      </trkpt>
      <trkpt lat="41.88208" lon="44.92546">
        <ele>1055.355756</ele>
        <time>2021-08-12T00:42:50.731Z</time>
      </trkpt>
      <trkpt lat="41.88225" lon="44.92559">
        <ele>1057.46415</ele>
        <time>2021-08-12T00:43:10.688Z</time>
      </trkpt>
      <trkpt lat="41.88251" lon="44.92565">
        <ele>1060.284464</ele>
        <time>2021-08-12T00:43:33.074Z</time>
      </trkpt>
      <trkpt lat="41.88255" lon="44.92564">
        <ele>1060.718043</ele>
        <time>2021-08-12T00:43:39.505Z</time>
      </trkpt>
      <trkpt lat="41.88274" lon="44.92556">
        <ele>1063.271558</ele>
        <time>2021-08-12T00:43:59.391Z</time>
      </trkpt>
      <trkpt lat="41.88306" lon="44.92553">
        <ele>1067.32294</ele>
        <time>2021-08-12T00:44:33.912Z</time>
      </trkpt>
      <trkpt lat="41.88325" lon="44.92535">
        <ele>1070.228186</ele>
        <time>2021-08-12T00:44:58.029Z</time>
      </trkpt>
      <trkpt lat="41.88381" lon="44.92476">
        <ele>1079.35568</ele>
        <time>2021-08-12T00:46:17.305Z</time>
      </trkpt>
      <trkpt lat="41.88395" lon="44.9247">
        <ele>1081.147147</ele>
        <time>2021-08-12T00:46:32.303Z</time>
      </trkpt>
      <trkpt lat="41.88425" lon="44.92454">
        <ele>1084.783541</ele>
        <time>2021-08-12T00:47:02.736Z</time>
      </trkpt>
      <trkpt lat="41.88448" lon="44.92419">
        <ele>1087.923831</ele>
        <time>2021-08-12T00:47:34.741Z</time>
      </trkpt>
      <trkpt lat="41.88479" lon="44.92392">
        <ele>1091.207845</ele>
        <time>2021-08-12T00:48:06.299Z</time>
      </trkpt>
      <trkpt lat="41.88497" lon="44.92398">
        <ele>1092.868529</ele>
        <time>2021-08-12T00:48:21.652Z</time>
      </trkpt>
      <trkpt lat="41.8849" lon="44.9239">
        <ele>1093.622497</ele>
        <time>2021-08-12T00:48:27.905Z</time>
      </trkpt>
      <trkpt lat="41.88465" lon="44.92364">
        <ele>1096.479015</ele>
        <time>2021-08-12T00:48:53.318Z</time>
      </trkpt>
      <trkpt lat="41.88451" lon="44.92339">
        <ele>1098.592432</ele>
        <time>2021-08-12T00:49:09.063Z</time>
      </trkpt>
      <trkpt lat="41.88442" lon="44.92306">
        <ele>1100.449411</ele>
        <time>2021-08-12T00:49:26.598Z</time>
      </trkpt>
      <trkpt lat="41.88418" lon="44.92198">
        <ele>1105.079766</ele>
        <time>2021-08-12T00:50:17.882Z</time>
      </trkpt>
      <trkpt lat="41.88415" lon="44.92184">
        <ele>1105.665406</ele>
        <time>2021-08-12T00:50:24.775Z</time>
      </trkpt>
      <trkpt lat="41.88411" lon="44.92154">
        <ele>1106.904172</ele>
        <time>2021-08-12T00:50:36.600Z</time>
      </trkpt>
      <trkpt lat="41.88423" lon="44.92165">
        <ele>1107.672634</ele>
        <time>2021-08-12T00:50:46.224Z</time>
      </trkpt>
      <trkpt lat="41.88445" lon="44.92223">
        <ele>1110.716056</ele>
        <time>2021-08-12T00:51:15.499Z</time>
      </trkpt>
      <trkpt lat="41.8846" lon="44.92238">
        <ele>1112.172006</ele>
        <time>2021-08-12T00:51:27.574Z</time>
      </trkpt>
      <trkpt lat="41.88476" lon="44.92238">
        <ele>1113.426647</ele>
        <time>2021-08-12T00:51:36.900Z</time>
      </trkpt>
      <trkpt lat="41.88496" lon="44.92225">
        <ele>1115.150289</ele>
        <time>2021-08-12T00:51:52.249Z</time>
      </trkpt>
      <trkpt lat="41.88484" lon="44.92214">
        <ele>1116.29305</ele>
        <time>2021-08-12T00:52:02.452Z</time>
      </trkpt>
      <trkpt lat="41.88474" lon="44.9218">
        <ele>1118.456822</ele>
        <time>2021-08-12T00:52:24.945Z</time>
      </trkpt>
      <trkpt lat="41.8848" lon="44.92162">
        <ele>1119.593336</ele>
        <time>2021-08-12T00:52:38.028Z</time>
      </trkpt>
      <trkpt lat="41.88488" lon="44.92159">
        <ele>1120.227944</ele>
        <time>2021-08-12T00:52:45.270Z</time>
      </trkpt>
      <trkpt lat="41.88498" lon="44.9216">
        <ele>1120.998172</ele>
        <time>2021-08-12T00:52:53.454Z</time>
      </trkpt>
      <trkpt lat="41.8851" lon="44.9217">
        <ele>1122.138314</ele>
        <time>2021-08-12T00:53:06.220Z</time>
      </trkpt>
      <trkpt lat="41.8854" lon="44.92219">
        <ele>1127.212188</ele>
        <time>2021-08-12T00:53:48.835Z</time>
      </trkpt>
      <trkpt lat="41.88544" lon="44.92226">
        <ele>1128.047325</ele>
        <time>2021-08-12T00:53:54.456Z</time>
      </trkpt>
      <trkpt lat="41.88558" lon="44.92228">
        <ele>1129.835362</ele>
        <time>2021-08-12T00:54:06.444Z</time>
      </trkpt>
      <trkpt lat="41.88582" lon="44.92223">
        <ele>1132.873367</ele>
        <time>2021-08-12T00:54:33.826Z</time>
      </trkpt>
      <trkpt lat="41.88592" lon="44.92214">
        <ele>1134.430129</ele>
        <time>2021-08-12T00:54:44.838Z</time>
      </trkpt>
      <trkpt lat="41.88596" lon="44.92198">
        <ele>1136.063561</ele>
        <time>2021-08-12T00:55:02.851Z</time>
      </trkpt>
      <trkpt lat="41.88616" lon="44.92177">
        <ele>1139.211732</ele>
        <time>2021-08-12T00:55:25.163Z</time>
      </trkpt>
      <trkpt lat="41.88627" lon="44.92174">
        <ele>1140.715412</ele>
        <time>2021-08-12T00:55:43.733Z</time>
      </trkpt>
      <trkpt lat="41.88663" lon="44.92208">
        <ele>1146.231171</ele>
        <time>2021-08-12T00:56:30.734Z</time>
      </trkpt>
      <trkpt lat="41.88678" lon="44.92205">
        <ele>1147.969556</ele>
        <time>2021-08-12T00:56:44.332Z</time>
      </trkpt>
      <trkpt lat="41.88682" lon="44.92199">
        <ele>1148.600445</ele>
        <time>2021-08-12T00:56:53.616Z</time>
      </trkpt>
      <trkpt lat="41.88683" lon="44.92197">
        <ele>1148.826032</ele>
        <time>2021-08-12T00:56:57.010Z</time>
      </trkpt>
      <trkpt lat="41.8871" lon="44.92193">
        <ele>1151.860973</ele>
        <time>2021-08-12T00:57:19.065Z</time>
      </trkpt>
      <trkpt lat="41.88717" lon="44.92217">
        <ele>1153.982887</ele>
        <time>2021-08-12T00:57:43.077Z</time>
      </trkpt>
      <trkpt lat="41.88723" lon="44.92227">
        <ele>1154.96358</ele>
        <time>2021-08-12T00:57:48.601Z</time>
      </trkpt>
      <trkpt lat="41.88732" lon="44.92229">
        <ele>1156.044074</ele>
        <time>2021-08-12T00:57:55.318Z</time>
      </trkpt>
      <trkpt lat="41.88736" lon="44.92226">
        <ele>1156.527892</ele>
        <time>2021-08-12T00:58:01.377Z</time>
      </trkpt>
      <trkpt lat="41.88738" lon="44.92223">
        <ele>1156.852598</ele>
        <time>2021-08-12T00:58:06.013Z</time>
      </trkpt>
      <trkpt lat="41.88734" lon="44.92149">
        <ele>1162.942162</ele>
        <time>2021-08-12T00:58:53.357Z</time>
      </trkpt>
      <trkpt lat="41.88747" lon="44.92021">
        <ele>1171.232907</ele>
        <time>2021-08-12T01:00:06.306Z</time>
      </trkpt>
      <trkpt lat="41.88747" lon="44.92008">
        <ele>1171.974906</ele>
        <time>2021-08-12T01:00:15.447Z</time>
      </trkpt>
      <trkpt lat="41.88744" lon="44.91998">
        <ele>1172.510401</ele>
        <time>2021-08-12T01:00:18.699Z</time>
      </trkpt>
      <trkpt lat="41.8873" lon="44.91982">
        <ele>1173.923509</ele>
        <time>2021-08-12T01:00:30.206Z</time>
      </trkpt>
      <trkpt lat="41.88644" lon="44.91952">
        <ele>1180.588523</ele>
        <time>2021-08-12T01:01:32.735Z</time>
      </trkpt>
      <trkpt lat="41.88633" lon="44.9194">
        <ele>1181.809987</ele>
        <time>2021-08-12T01:01:42.380Z</time>
      </trkpt>
      <trkpt lat="41.88631" lon="44.91928">
        <ele>1182.5937</ele>
        <time>2021-08-12T01:01:50.057Z</time>
      </trkpt>
      <trkpt lat="41.88633" lon="44.91914">
        <ele>1183.528637</ele>
        <time>2021-08-12T01:01:59.091Z</time>
      </trkpt>
      <trkpt lat="41.88639" lon="44.91904">
        <ele>1184.378764</ele>
        <time>2021-08-12T01:02:05.973Z</time>
      </trkpt>
      <trkpt lat="41.88685" lon="44.91858">
        <ele>1189.331272</ele>
        <time>2021-08-12T01:02:50.343Z</time>
      </trkpt>
      <trkpt lat="41.88704" lon="44.91824">
        <ele>1192.107469</ele>
        <time>2021-08-12T01:03:17.153Z</time>
      </trkpt>
      <trkpt lat="41.88747" lon="44.91778">
        <ele>1196.943894</ele>
        <time>2021-08-12T01:04:05.196Z</time>
      </trkpt>
      <trkpt lat="41.88768" lon="44.91775">
        <ele>1198.927229</ele>
        <time>2021-08-12T01:04:24.557Z</time>
      </trkpt>
      <trkpt lat="41.88779" lon="44.91788">
        <ele>1200.257734</ele>
        <time>2021-08-12T01:04:37.655Z</time>
      </trkpt>
      <trkpt lat="41.88797" lon="44.91826">
        <ele>1203.294632</ele>
        <time>2021-08-12T01:05:06.579Z</time>
      </trkpt>
      <trkpt lat="41.88804" lon="44.9183">
        <ele>1204.014257</ele>
        <time>2021-08-12T01:05:13.133Z</time>
      </trkpt>
      <trkpt lat="41.88817" lon="44.91831">
        <ele>1205.136938</ele>
        <time>2021-08-12T01:05:23.424Z</time>
      </trkpt>
      <trkpt lat="41.8883" lon="44.91823">
        <ele>1206.487243</ele>
        <time>2021-08-12T01:05:35.723Z</time>
      </trkpt>
      <trkpt lat="41.88884" lon="44.91755">
        <ele>1212.790811</ele>
        <time>2021-08-12T01:06:32.056Z</time>
      </trkpt>
      <trkpt lat="41.88944" lon="44.91717">
        <ele>1217.183924</ele>
        <time>2021-08-12T01:07:17.546Z</time>
      </trkpt>
      <trkpt lat="41.89007" lon="44.91565">
        <ele>1225.59456</ele>
        <time>2021-08-12T01:08:41.912Z</time>
      </trkpt>
      <trkpt lat="41.89047" lon="44.91519">
        <ele>1228.790804</ele>
        <time>2021-08-12T01:09:17.196Z</time>
      </trkpt>
      <trkpt lat="41.89094" lon="44.91486">
        <ele>1232.093239</ele>
        <time>2021-08-12T01:09:54.412Z</time>
      </trkpt>
      <trkpt lat="41.8922" lon="44.91458">
        <ele>1237.890318</ele>
        <time>2021-08-12T01:11:11.384Z</time>
      </trkpt>
      <trkpt lat="41.89264" lon="44.91426">
        <ele>1239.786452</ele>
        <time>2021-08-12T01:11:35.196Z</time>
      </trkpt>
      <trkpt lat="41.89277" lon="44.91382">
        <ele>1241.106114</ele>
        <time>2021-08-12T01:11:50.340Z</time>
      </trkpt>
      <trkpt lat="41.8928" lon="44.91347">
        <ele>1241.78187</ele>
        <time>2021-08-12T01:12:00.964Z</time>
      </trkpt>
      <trkpt lat="41.89293" lon="44.91314">
        <ele>1242.298003</ele>
        <time>2021-08-12T01:12:13.244Z</time>
      </trkpt>
      <trkpt lat="41.89294" lon="44.91299">
        <ele>1242.509212</ele>
        <time>2021-08-12T01:12:15.986Z</time>
      </trkpt>
      <trkpt lat="41.89296" lon="44.91285">
        <ele>1242.696896</ele>
        <time>2021-08-12T01:12:21.373Z</time>
      </trkpt>
      <trkpt lat="41.89292" lon="44.91264">
        <ele>1242.988175</ele>
        <time>2021-08-12T01:12:27.036Z</time>
      </trkpt>
      <trkpt lat="41.89274" lon="44.91236">
        <ele>1243.505046</ele>
        <time>2021-08-12T01:12:37.215Z</time>
      </trkpt>
      <trkpt lat="41.89168" lon="44.9118">
        <ele>1247.267641</ele>
        <time>2021-08-12T01:13:27.135Z</time>
      </trkpt>
      <trkpt lat="41.89105" lon="44.91158">
        <ele>1250.859457</ele>
        <time>2021-08-12T01:14:05.902Z</time>
      </trkpt>
      <trkpt lat="41.89075" lon="44.91156">
        <ele>1252.510502</ele>
        <time>2021-08-12T01:14:26.175Z</time>
      </trkpt>
      <trkpt lat="41.89044" lon="44.91142">
        <ele>1254.293895</ele>
        <time>2021-08-12T01:14:50.619Z</time>
      </trkpt>
      <trkpt lat="41.89024" lon="44.91119">
        <ele>1256.837511</ele>
        <time>2021-08-12T01:15:12.257Z</time>
      </trkpt>
      <trkpt lat="41.89008" lon="44.91077">
        <ele>1260.939299</ele>
        <time>2021-08-12T01:15:44.241Z</time>
      </trkpt>
      <trkpt lat="41.89009" lon="44.91055">
        <ele>1262.817823</ele>
        <time>2021-08-12T01:15:59.453Z</time>
      </trkpt>
      <trkpt lat="41.89041" lon="44.9101">
        <ele>1268.123292</ele>
        <time>2021-08-12T01:16:45.180Z</time>
      </trkpt>
      <trkpt lat="41.89084" lon="44.9093">
        <ele>1276.818915</ele>
        <time>2021-08-12T01:18:02.850Z</time>
      </trkpt>
      <trkpt lat="41.8911" lon="44.90915">
        <ele>1280.477882</ele>
        <time>2021-08-12T01:18:33.114Z</time>
      </trkpt>
      <trkpt lat="41.89177" lon="44.90903">
        <ele>1289.388245</ele>
        <time>2021-08-12T01:19:46.635Z</time>
      </trkpt>
      <trkpt lat="41.89243" lon="44.90852">
        <ele>1299.31996</ele>
        <time>2021-08-12T01:21:04.544Z</time>
      </trkpt>
      <trkpt lat="41.89303" lon="44.90827">
        <ele>1306.570008</ele>
        <time>2021-08-12T01:22:07.036Z</time>
      </trkpt>
      <trkpt lat="41.89381" lon="44.90856">
        <ele>1315.773203</ele>
        <time>2021-08-12T01:23:24.237Z</time>
      </trkpt>
      <trkpt lat="41.89406" lon="44.90859">
        <ele>1318.709344</ele>
        <time>2021-08-12T01:23:47.381Z</time>
      </trkpt>
      <trkpt lat="41.89443" lon="44.90849">
        <ele>1321.982417</ele>
        <time>2021-08-12T01:24:19.460Z</time>
      </trkpt>
      <trkpt lat="41.89467" lon="44.90857">
        <ele>1324.030759</ele>
        <time>2021-08-12T01:24:40.881Z</time>
      </trkpt>
      <trkpt lat="41.89518" lon="44.90923">
        <ele>1329.762232</ele>
        <time>2021-08-12T01:25:37.325Z</time>
      </trkpt>
      <trkpt lat="41.89543" lon="44.9094">
        <ele>1331.998327</ele>
        <time>2021-08-12T01:25:56.768Z</time>
      </trkpt>
      <trkpt lat="41.89623" lon="44.90975">
        <ele>1335.375656</ele>
        <time>2021-08-12T01:26:45.392Z</time>
      </trkpt>
      <trkpt lat="41.89664" lon="44.90979">
        <ele>1336.239953</ele>
        <time>2021-08-12T01:27:03.449Z</time>
      </trkpt>
      <trkpt lat="41.89775" lon="44.91022">
        <ele>1337.618697</ele>
        <time>2021-08-12T01:27:38.428Z</time>
      </trkpt>
      <trkpt lat="41.89801" lon="44.91019">
        <ele>1337.384739</ele>
        <time>2021-08-12T01:27:44.879Z</time>
      </trkpt>
      <trkpt lat="41.89854" lon="44.90977">
        <ele>1336.823393</ele>
        <time>2021-08-12T01:28:00.445Z</time>
      </trkpt>
      <trkpt lat="41.89872" lon="44.90943">
        <ele>1336.538396</ele>
        <time>2021-08-12T01:28:08.951Z</time>
      </trkpt>
      <trkpt lat="41.89878" lon="44.90903">
        <ele>1336.308818</ele>
        <time>2021-08-12T01:28:17.612Z</time>
      </trkpt>
      <trkpt lat="41.89868" lon="44.90863">
        <ele>1336.505255</ele>
        <time>2021-08-12T01:28:27.126Z</time>
      </trkpt>
      <trkpt lat="41.8987" lon="44.9084">
        <ele>1336.612933</ele>
        <time>2021-08-12T01:28:33.031Z</time>
      </trkpt>
      <trkpt lat="41.89882" lon="44.90823">
        <ele>1336.721594</ele>
        <time>2021-08-12T01:28:39.137Z</time>
      </trkpt>
      <trkpt lat="41.89902" lon="44.9081">
        <ele>1336.861893</ele>
        <time>2021-08-12T01:28:47.677Z</time>
      </trkpt>
      <trkpt lat="41.89924" lon="44.90772">
        <ele>1337.082243</ele>
        <time>2021-08-12T01:29:01.391Z</time>
      </trkpt>
      <trkpt lat="41.89946" lon="44.90722">
        <ele>1337.356159</ele>
        <time>2021-08-12T01:29:18.202Z</time>
      </trkpt>
      <trkpt lat="41.89958" lon="44.9067">
        <ele>1337.510502</ele>
        <time>2021-08-12T01:29:31.213Z</time>
      </trkpt>
      <trkpt lat="41.8996" lon="44.90642">
        <ele>1337.575455</ele>
        <time>2021-08-12T01:29:38.902Z</time>
      </trkpt>
      <trkpt lat="41.89945" lon="44.90611">
        <ele>1337.657657</ele>
        <time>2021-08-12T01:29:47.844Z</time>
      </trkpt>
      <trkpt lat="41.89926" lon="44.90599">
        <ele>1337.721268</ele>
        <time>2021-08-12T01:29:53.629Z</time>
      </trkpt>
      <trkpt lat="41.89874" lon="44.90579">
        <ele>1337.885811</ele>
        <time>2021-08-12T01:30:11.998Z</time>
      </trkpt>
      <trkpt lat="41.89859" lon="44.90567">
        <ele>1337.938457</ele>
        <time>2021-08-12T01:30:16.512Z</time>
      </trkpt>
      <trkpt lat="41.89787" lon="44.90516">
        <ele>1339.348071</ele>
        <time>2021-08-12T01:30:44.287Z</time>
      </trkpt>
      <trkpt lat="41.89734" lon="44.90435">
        <ele>1340.855608</ele>
        <time>2021-08-12T01:31:18.493Z</time>
      </trkpt>
      <trkpt lat="41.89714" lon="44.90418">
        <ele>1341.300188</ele>
        <time>2021-08-12T01:31:31.184Z</time>
      </trkpt>
      <trkpt lat="41.89701" lon="44.90397">
        <ele>1342.490601</ele>
        <time>2021-08-12T01:31:42.530Z</time>
      </trkpt>
      <trkpt lat="41.8969" lon="44.9031">
        <ele>1346.823532</ele>
        <time>2021-08-12T01:32:22.561Z</time>
      </trkpt>
      <trkpt lat="41.89665" lon="44.90246">
        <ele>1350.357539</ele>
        <time>2021-08-12T01:33:00.476Z</time>
      </trkpt>
      <trkpt lat="41.89675" lon="44.90165">
        <ele>1355.291534</ele>
        <time>2021-08-12T01:33:50.566Z</time>
      </trkpt>
      <trkpt lat="41.89676" lon="44.90112">
        <ele>1359.838923</ele>
        <time>2021-08-12T01:34:25.492Z</time>
      </trkpt>
      <trkpt lat="41.89664" lon="44.90046">
        <ele>1365.639766</ele>
        <time>2021-08-12T01:35:13.893Z</time>
      </trkpt>
      <trkpt lat="41.89667" lon="44.90032">
        <ele>1366.963454</ele>
        <time>2021-08-12T01:35:25.706Z</time>
      </trkpt>
      <trkpt lat="41.89686" lon="44.90007">
        <ele>1369.991517</ele>
        <time>2021-08-12T01:35:53.079Z</time>
      </trkpt>
      <trkpt lat="41.89734" lon="44.89967">
        <ele>1376.5516</ele>
        <time>2021-08-12T01:36:54.435Z</time>
      </trkpt>
      <trkpt lat="41.89762" lon="44.89958">
        <ele>1379.879067</ele>
        <time>2021-08-12T01:37:25.783Z</time>
      </trkpt>
      <trkpt lat="41.89834" lon="44.89965">
        <ele>1388.216405</ele>
        <time>2021-08-12T01:38:38.797Z</time>
      </trkpt>
      <trkpt lat="41.89858" lon="44.8998">
        <ele>1391.30265</ele>
        <time>2021-08-12T01:39:03.006Z</time>
      </trkpt>
      <trkpt lat="41.8987" lon="44.90026">
        <ele>1395.005272</ele>
        <time>2021-08-12T01:39:32.534Z</time>
      </trkpt>
      <trkpt lat="41.89875" lon="44.9011">
        <ele>1397.574269</ele>
        <time>2021-08-12T01:40:14.520Z</time>
      </trkpt>
      <trkpt lat="41.89861" lon="44.90207">
        <ele>1400.584927</ele>
        <time>2021-08-12T01:40:48.938Z</time>
      </trkpt>
      <trkpt lat="41.89867" lon="44.90235">
        <ele>1401.467882</ele>
        <time>2021-08-12T01:40:56.555Z</time>
      </trkpt>
      <trkpt lat="41.8988" lon="44.90264">
        <ele>1402.252505</ele>
        <time>2021-08-12T01:41:05.172Z</time>
      </trkpt>
      <trkpt lat="41.89898" lon="44.90353">
        <ele>1403.148967</ele>
        <time>2021-08-12T01:41:27.502Z</time>
      </trkpt>
      <trkpt lat="41.89914" lon="44.90375">
        <ele>1403.444031</ele>
        <time>2021-08-12T01:41:35.275Z</time>
      </trkpt>
      <trkpt lat="41.89952" lon="44.90396">
        <ele>1403.973254</ele>
        <time>2021-08-12T01:41:50.524Z</time>
      </trkpt>
      <trkpt lat="41.90057" lon="44.90403">
        <ele>1406.783236</ele>
        <time>2021-08-12T01:42:41.227Z</time>
      </trkpt>
      <trkpt lat="41.9008" lon="44.90416">
        <ele>1407.620706</ele>
        <time>2021-08-12T01:42:54.667Z</time>
      </trkpt>
      <trkpt lat="41.90115" lon="44.90453">
        <ele>1409.149728</ele>
        <time>2021-08-12T01:43:19.569Z</time>
      </trkpt>
      <trkpt lat="41.90141" lon="44.90515">
        <ele>1410.858405</ele>
        <time>2021-08-12T01:43:47.197Z</time>
      </trkpt>
      <trkpt lat="41.90154" lon="44.90653">
        <ele>1413.362509</ele>
        <time>2021-08-12T01:44:31.992Z</time>
      </trkpt>
      <trkpt lat="41.90138" lon="44.90737">
        <ele>1414.916232</ele>
        <time>2021-08-12T01:44:57.683Z</time>
      </trkpt>
      <trkpt lat="41.90108" lon="44.90808">
        <ele>1418.481033</ele>
        <time>2021-08-12T01:45:26.031Z</time>
      </trkpt>
      <trkpt lat="41.90076" lon="44.90855">
        <ele>1421.38489</ele>
        <time>2021-08-12T01:45:53.610Z</time>
      </trkpt>
      <trkpt lat="41.90056" lon="44.909">
        <ele>1423.711632</ele>
        <time>2021-08-12T01:46:21.465Z</time>
      </trkpt>
      <trkpt lat="41.90059" lon="44.90924">
        <ele>1424.80803</ele>
        <time>2021-08-12T01:46:36.548Z</time>
      </trkpt>
      <trkpt lat="41.90102" lon="44.91003">
        <ele>1433.085917</ele>
        <time>2021-08-12T01:47:50.646Z</time>
      </trkpt>
      <trkpt lat="41.90126" lon="44.91021">
        <ele>1436.575019</ele>
        <time>2021-08-12T01:48:20.958Z</time>
      </trkpt>
      <trkpt lat="41.90171" lon="44.91034">
        <ele>1442.57842</ele>
        <time>2021-08-12T01:49:13.014Z</time>
      </trkpt>
      <trkpt lat="41.902" lon="44.9105">
        <ele>1446.61725</ele>
        <time>2021-08-12T01:49:47.857Z</time>
      </trkpt>
      <trkpt lat="41.9023" lon="44.91082">
        <ele>1450.515037</ele>
        <time>2021-08-12T01:50:27.665Z</time>
      </trkpt>
      <trkpt lat="41.90248" lon="44.91095">
        <ele>1452.057246</ele>
        <time>2021-08-12T01:50:47.817Z</time>
      </trkpt>
      <trkpt lat="41.90331" lon="44.91116">
        <ele>1458.323923</ele>
        <time>2021-08-12T01:51:54.132Z</time>
      </trkpt>
      <trkpt lat="41.90369" lon="44.91139">
        <ele>1461.420105</ele>
        <time>2021-08-12T01:52:15.791Z</time>
      </trkpt>
      <trkpt lat="41.90406" lon="44.91141">
        <ele>1461.752794</ele>
        <time>2021-08-12T01:52:28.826Z</time>
      </trkpt>
      <trkpt lat="41.9044" lon="44.9113">
        <ele>1460.621544</ele>
        <time>2021-08-12T01:52:38.232Z</time>
      </trkpt>
      <trkpt lat="41.90517" lon="44.91132">
        <ele>1458.215461</ele>
        <time>2021-08-12T01:52:54.953Z</time>
      </trkpt>
      <trkpt lat="41.90552" lon="44.91127">
        <ele>1457.097552</ele>
        <time>2021-08-12T01:53:02.185Z</time>
      </trkpt>
      <trkpt lat="41.90633" lon="44.91168">
        <ele>1450.734322</ele>
        <time>2021-08-12T01:53:19.230Z</time>
      </trkpt>
      <trkpt lat="41.90677" lon="44.91209">
        <ele>1446.470766</ele>
        <time>2021-08-12T01:53:29.699Z</time>
      </trkpt>
      <trkpt lat="41.90698" lon="44.91239">
        <ele>1444.071898</ele>
        <time>2021-08-12T01:53:35.562Z</time>
      </trkpt>
      <trkpt lat="41.90721" lon="44.91251">
        <ele>1442.082185</ele>
        <time>2021-08-12T01:53:40.494Z</time>
      </trkpt>
      <trkpt lat="41.90759" lon="44.91249">
        <ele>1439.266231</ele>
        <time>2021-08-12T01:53:47.768Z</time>
      </trkpt>
      <trkpt lat="41.90772" lon="44.91242">
        <ele>1438.217134</ele>
        <time>2021-08-12T01:53:50.475Z</time>
      </trkpt>
      <trkpt lat="41.90781" lon="44.91218">
        <ele>1436.699311</ele>
        <time>2021-08-12T01:53:54.447Z</time>
      </trkpt>
      <trkpt lat="41.90782" lon="44.91103">
        <ele>1430.24756</ele>
        <time>2021-08-12T01:54:11.545Z</time>
      </trkpt>
      <trkpt lat="41.90816" lon="44.90988">
        <ele>1426.044111</ele>
        <time>2021-08-12T01:54:30.368Z</time>
      </trkpt>
      <trkpt lat="41.90823" lon="44.90916">
        <ele>1423.964838</ele>
        <time>2021-08-12T01:54:43.060Z</time>
      </trkpt>
      <trkpt lat="41.90833" lon="44.90801">
        <ele>1421.885054</ele>
        <time>2021-08-12T01:55:04.641Z</time>
      </trkpt>
      <trkpt lat="41.90839" lon="44.90788">
        <ele>1421.850288</ele>
        <time>2021-08-12T01:55:11.174Z</time>
      </trkpt>
      <trkpt lat="41.90848" lon="44.90781">
        <ele>1421.819377</ele>
        <time>2021-08-12T01:55:13.647Z</time>
      </trkpt>
      <trkpt lat="41.90922" lon="44.90784">
        <ele>1421.593248</ele>
        <time>2021-08-12T01:55:37.754Z</time>
      </trkpt>
      <trkpt lat="41.90962" lon="44.90769">
        <ele>1421.466592</ele>
        <time>2021-08-12T01:55:51.397Z</time>
      </trkpt>
      <trkpt lat="41.90979" lon="44.90752">
        <ele>1421.075128</ele>
        <time>2021-08-12T01:56:00.482Z</time>
      </trkpt>
      <trkpt lat="41.91005" lon="44.90709">
        <ele>1419.936462</ele>
        <time>2021-08-12T01:56:10.725Z</time>
      </trkpt>
      <trkpt lat="41.91028" lon="44.90653">
        <ele>1418.639997</ele>
        <time>2021-08-12T01:56:21.558Z</time>
      </trkpt>
      <trkpt lat="41.91049" lon="44.9063">
        <ele>1417.895739</ele>
        <time>2021-08-12T01:56:27.621Z</time>
      </trkpt>
      <trkpt lat="41.91094" lon="44.90637">
        <ele>1416.643427</ele>
        <time>2021-08-12T01:56:37.237Z</time>
      </trkpt>
      <trkpt lat="41.91136" lon="44.90654">
        <ele>1415.146676</ele>
        <time>2021-08-12T01:56:46.921Z</time>
      </trkpt>
      <trkpt lat="41.91146" lon="44.90651">
        <ele>1414.796115</ele>
        <time>2021-08-12T01:56:49.134Z</time>
      </trkpt>
      <trkpt lat="41.91163" lon="44.90624">
        <ele>1413.848603</ele>
        <time>2021-08-12T01:56:54.968Z</time>
      </trkpt>
      <trkpt lat="41.91177" lon="44.90568">
        <ele>1412.287258</ele>
        <time>2021-08-12T01:57:04.925Z</time>
      </trkpt>
      <trkpt lat="41.91185" lon="44.90558">
        <ele>1411.920449</ele>
        <time>2021-08-12T01:57:07.387Z</time>
      </trkpt>
      <trkpt lat="41.91193" lon="44.90558">
        <ele>1411.631307</ele>
        <time>2021-08-12T01:57:08.965Z</time>
      </trkpt>
      <trkpt lat="41.91201" lon="44.90564">
        <ele>1411.325879</ele>
        <time>2021-08-12T01:57:12.550Z</time>
      </trkpt>
      <trkpt lat="41.91241" lon="44.90671">
        <ele>1408.075502</ele>
        <time>2021-08-12T01:57:34.009Z</time>
      </trkpt>
      <trkpt lat="41.91273" lon="44.90787">
        <ele>1404.647378</ele>
        <time>2021-08-12T01:57:54.994Z</time>
      </trkpt>
      <trkpt lat="41.91313" lon="44.91036">
        <ele>1392.651642</ele>
        <time>2021-08-12T01:58:33.592Z</time>
      </trkpt>
      <trkpt lat="41.91319" lon="44.91175">
        <ele>1383.342473</ele>
        <time>2021-08-12T01:58:53.615Z</time>
      </trkpt>
      <trkpt lat="41.91333" lon="44.91249">
        <ele>1377.964377</ele>
        <time>2021-08-12T01:59:04.392Z</time>
      </trkpt>
      <trkpt lat="41.91354" lon="44.91314">
        <ele>1373.052872</ele>
        <time>2021-08-12T01:59:14.484Z</time>
      </trkpt>
      <trkpt lat="41.91378" lon="44.91343">
        <ele>1370.325249</ele>
        <time>2021-08-12T01:59:20.601Z</time>
      </trkpt>
      <trkpt lat="41.91472" lon="44.91409">
        <ele>1361.264089</ele>
        <time>2021-08-12T01:59:41.322Z</time>
      </trkpt>
      <trkpt lat="41.91507" lon="44.91441">
        <ele>1357.993714</ele>
        <time>2021-08-12T01:59:49.894Z</time>
      </trkpt>
      <trkpt lat="41.91536" lon="44.91484">
        <ele>1355.467594</ele>
        <time>2021-08-12T01:59:58.711Z</time>
      </trkpt>
      <trkpt lat="41.91586" lon="44.91604">
        <ele>1349.495396</ele>
        <time>2021-08-12T02:00:20.029Z</time>
      </trkpt>
      <trkpt lat="41.91613" lon="44.91682">
        <ele>1345.806453</ele>
        <time>2021-08-12T02:00:33.421Z</time>
      </trkpt>
      <trkpt lat="41.91636" lon="44.91764">
        <ele>1342.080188</ele>
        <time>2021-08-12T02:00:46.853Z</time>
      </trkpt>
      <trkpt lat="41.91679" lon="44.91873">
        <ele>1337.069726</ele>
        <time>2021-08-12T02:01:05.793Z</time>
      </trkpt>
      <trkpt lat="41.91742" lon="44.92">
        <ele>1332.175082</ele>
        <time>2021-08-12T02:01:30.092Z</time>
      </trkpt>
      <trkpt lat="41.91753" lon="44.9201">
        <ele>1331.607125</ele>
        <time>2021-08-12T02:01:33.110Z</time>
      </trkpt>
      <trkpt lat="41.91793" lon="44.92007">
        <ele>1330.006414</ele>
        <time>2021-08-12T02:01:42.621Z</time>
      </trkpt>
      <trkpt lat="41.91818" lon="44.91988">
        <ele>1329.341934</ele>
        <time>2021-08-12T02:01:49.767Z</time>
      </trkpt>
      <trkpt lat="41.91828" lon="44.91975">
        <ele>1329.033085</ele>
        <time>2021-08-12T02:01:53.137Z</time>
      </trkpt>
      <trkpt lat="41.91835" lon="44.91956">
        <ele>1328.666046</ele>
        <time>2021-08-12T02:01:57.207Z</time>
      </trkpt>
      <trkpt lat="41.91817" lon="44.91874">
        <ele>1327.221886</ele>
        <time>2021-08-12T02:02:13.379Z</time>
      </trkpt>
      <trkpt lat="41.9178" lon="44.91817">
        <ele>1325.744616</ele>
        <time>2021-08-12T02:02:27.012Z</time>
      </trkpt>
      <trkpt lat="41.91782" lon="44.91805">
        <ele>1325.246056</ele>
        <time>2021-08-12T02:02:29.101Z</time>
      </trkpt>
      <trkpt lat="41.91789" lon="44.91803">
        <ele>1324.856162</ele>
        <time>2021-08-12T02:02:30.712Z</time>
      </trkpt>
      <trkpt lat="41.91838" lon="44.91856">
        <ele>1321.386976</ele>
        <time>2021-08-12T02:02:44.311Z</time>
      </trkpt>
      <trkpt lat="41.91898" lon="44.91956">
        <ele>1316.088708</ele>
        <time>2021-08-12T02:03:03.589Z</time>
      </trkpt>
      <trkpt lat="41.91909" lon="44.91984">
        <ele>1313.823446</ele>
        <time>2021-08-12T02:03:08.210Z</time>
      </trkpt>
      <trkpt lat="41.9192" lon="44.92047">
        <ele>1309.212462</ele>
        <time>2021-08-12T02:03:17.534Z</time>
      </trkpt>
      <trkpt lat="41.91928" lon="44.9216">
        <ele>1301.177992</ele>
        <time>2021-08-12T02:03:33.544Z</time>
      </trkpt>
      <trkpt lat="41.91922" lon="44.92291">
        <ele>1291.925821</ele>
        <time>2021-08-12T02:03:52.068Z</time>
      </trkpt>
      <trkpt lat="41.91912" lon="44.92317">
        <ele>1289.88989</ele>
        <time>2021-08-12T02:03:56.171Z</time>
      </trkpt>
      <trkpt lat="41.91889" lon="44.92347">
        <ele>1286.848962</ele>
        <time>2021-08-12T02:04:02.359Z</time>
      </trkpt>
      <trkpt lat="41.91856" lon="44.92375">
        <ele>1283.076068</ele>
        <time>2021-08-12T02:04:10.091Z</time>
      </trkpt>
      <trkpt lat="41.91853" lon="44.92389">
        <ele>1282.105307</ele>
        <time>2021-08-12T02:04:12.120Z</time>
      </trkpt>
      <trkpt lat="41.91859" lon="44.92401">
        <ele>1281.280793</ele>
        <time>2021-08-12T02:04:14.330Z</time>
      </trkpt>
      <trkpt lat="41.91871" lon="44.92405">
        <ele>1280.443055</ele>
        <time>2021-08-12T02:04:16.727Z</time>
      </trkpt>
      <trkpt lat="41.91948" lon="44.92417">
        <ele>1275.150897</ele>
        <time>2021-08-12T02:04:32.143Z</time>
      </trkpt>
      <trkpt lat="41.91966" lon="44.92408">
        <ele>1273.805014</ele>
        <time>2021-08-12T02:04:36.137Z</time>
      </trkpt>
      <trkpt lat="41.92017" lon="44.92354">
        <ele>1269.337189</ele>
        <time>2021-08-12T02:04:49.453Z</time>
      </trkpt>
      <trkpt lat="41.9203" lon="44.92349">
        <ele>1268.409459</ele>
        <time>2021-08-12T02:04:52.227Z</time>
      </trkpt>
      <trkpt lat="41.92044" lon="44.92354">
        <ele>1267.401689</ele>
        <time>2021-08-12T02:04:55.217Z</time>
      </trkpt>
      <trkpt lat="41.92057" lon="44.92365">
        <ele>1266.365493</ele>
        <time>2021-08-12T02:04:58.299Z</time>
      </trkpt>
      <trkpt lat="41.92084" lon="44.92415">
        <ele>1263.229849</ele>
        <time>2021-08-12T02:05:07.533Z</time>
      </trkpt>
      <trkpt lat="41.921" lon="44.92436">
        <ele>1261.692603</ele>
        <time>2021-08-12T02:05:12.003Z</time>
      </trkpt>
      <trkpt lat="41.92104" lon="44.92452">
        <ele>1260.842767</ele>
        <time>2021-08-12T02:05:14.499Z</time>
      </trkpt>
      <trkpt lat="41.92105" lon="44.92513">
        <ele>1257.707153</ele>
        <time>2021-08-12T02:05:23.667Z</time>
      </trkpt>
      <trkpt lat="41.92096" lon="44.92607">
        <ele>1253.601481</ele>
        <time>2021-08-12T02:05:37.776Z</time>
      </trkpt>
      <trkpt lat="41.92097" lon="44.92635">
        <ele>1252.404381</ele>
        <time>2021-08-12T02:05:41.961Z</time>
      </trkpt>
      <trkpt lat="41.92134" lon="44.92844">
        <ele>1245.317168</ele>
        <time>2021-08-12T02:06:16.262Z</time>
      </trkpt>
      <trkpt lat="41.92146" lon="44.9285">
        <ele>1245.0056</ele>
        <time>2021-08-12T02:06:19.412Z</time>
      </trkpt>
      <trkpt lat="41.92155" lon="44.92843">
        <ele>1244.755656</ele>
        <time>2021-08-12T02:06:21.960Z</time>
      </trkpt>
      <trkpt lat="41.92162" lon="44.92829">
        <ele>1244.427696</ele>
        <time>2021-08-12T02:06:25.288Z</time>
      </trkpt>
      <trkpt lat="41.92177" lon="44.92775">
        <ele>1243.349495</ele>
        <time>2021-08-12T02:06:36.665Z</time>
      </trkpt>
      <trkpt lat="41.92186" lon="44.92759">
        <ele>1242.970262</ele>
        <time>2021-08-12T02:06:40.833Z</time>
      </trkpt>
      <trkpt lat="41.9221" lon="44.92731">
        <ele>1242.152346</ele>
        <time>2021-08-12T02:06:49.161Z</time>
      </trkpt>
      <trkpt lat="41.92234" lon="44.92717">
        <ele>1241.39723</ele>
        <time>2021-08-12T02:06:56.141Z</time>
      </trkpt>
      <trkpt lat="41.92259" lon="44.92693">
        <ele>1240.536547</ele>
        <time>2021-08-12T02:07:04.019Z</time>
      </trkpt>
      <trkpt lat="41.92297" lon="44.92637">
        <ele>1238.937335</ele>
        <time>2021-08-12T02:07:17.582Z</time>
      </trkpt>
      <trkpt lat="41.92341" lon="44.92547">
        <ele>1235.851893</ele>
        <time>2021-08-12T02:07:34.854Z</time>
      </trkpt>
      <trkpt lat="41.92352" lon="44.92539">
        <ele>1235.106583</ele>
        <time>2021-08-12T02:07:37.239Z</time>
      </trkpt>
      <trkpt lat="41.92359" lon="44.92543">
        <ele>1234.575777</ele>
        <time>2021-08-12T02:07:38.912Z</time>
      </trkpt>
      <trkpt lat="41.92372" lon="44.92566">
        <ele>1233.228454</ele>
        <time>2021-08-12T02:07:43.163Z</time>
      </trkpt>
      <trkpt lat="41.92384" lon="44.92599">
        <ele>1231.466943</ele>
        <time>2021-08-12T02:07:48.663Z</time>
      </trkpt>
      <trkpt lat="41.92406" lon="44.92855">
        <ele>1219.322189</ele>
        <time>2021-08-12T02:08:27.063Z</time>
      </trkpt>
      <trkpt lat="41.92417" lon="44.92909">
        <ele>1216.694572</ele>
        <time>2021-08-12T02:08:35.815Z</time>
      </trkpt>
      <trkpt lat="41.92428" lon="44.92937">
        <ele>1215.213625</ele>
        <time>2021-08-12T02:08:40.837Z</time>
      </trkpt>
      <trkpt lat="41.9244" lon="44.92948">
        <ele>1214.395937</ele>
        <time>2021-08-12T02:08:43.877Z</time>
      </trkpt>
      <trkpt lat="41.92454" lon="44.92946">
        <ele>1213.841929</ele>
        <time>2021-08-12T02:08:46.818Z</time>
      </trkpt>
      <trkpt lat="41.92475" lon="44.92919">
        <ele>1212.653677</ele>
        <time>2021-08-12T02:08:53.213Z</time>
      </trkpt>
      <trkpt lat="41.92531" lon="44.92713">
        <ele>1205.835542</ele>
        <time>2021-08-12T02:09:29.630Z</time>
      </trkpt>
      <trkpt lat="41.92541" lon="44.927">
        <ele>1205.215955</ele>
        <time>2021-08-12T02:09:32.493Z</time>
      </trkpt>
      <trkpt lat="41.92568" lon="44.92699">
        <ele>1203.961232</ele>
        <time>2021-08-12T02:09:38.227Z</time>
      </trkpt>
      <trkpt lat="41.92591" lon="44.92729">
        <ele>1202.449901</ele>
        <time>2021-08-12T02:09:45.079Z</time>
      </trkpt>
      <trkpt lat="41.92605" lon="44.92763">
        <ele>1201.078868</ele>
        <time>2021-08-12T02:09:51.261Z</time>
      </trkpt>
      <trkpt lat="41.92615" lon="44.92816">
        <ele>1199.174203</ele>
        <time>2021-08-12T02:09:59.844Z</time>
      </trkpt>
      <trkpt lat="41.92619" lon="44.92923">
        <ele>1195.89469</ele>
        <time>2021-08-12T02:10:16.724Z</time>
      </trkpt>
      <trkpt lat="41.92628" lon="44.92954">
        <ele>1194.906957</ele>
        <time>2021-08-12T02:10:22.034Z</time>
      </trkpt>
      <trkpt lat="41.92645" lon="44.92975">
        <ele>1193.956147</ele>
        <time>2021-08-12T02:10:27.183Z</time>
      </trkpt>
      <trkpt lat="41.92655" lon="44.92972">
        <ele>1193.528758</ele>
        <time>2021-08-12T02:10:29.538Z</time>
      </trkpt>
      <trkpt lat="41.92662" lon="44.9296">
        <ele>1193.085397</ele>
        <time>2021-08-12T02:10:31.989Z</time>
      </trkpt>
      <trkpt lat="41.92679" lon="44.92913">
        <ele>1191.505472</ele>
        <time>2021-08-12T02:10:41.159Z</time>
      </trkpt>
      <trkpt lat="41.92715" lon="44.92768">
        <ele>1188.73611</ele>
        <time>2021-08-12T02:11:08.864Z</time>
      </trkpt>
      <trkpt lat="41.92723" lon="44.92724">
        <ele>1187.912433</ele>
        <time>2021-08-12T02:11:17.066Z</time>
      </trkpt>
      <trkpt lat="41.92717" lon="44.92683">
        <ele>1187.161476</ele>
        <time>2021-08-12T02:11:24.473Z</time>
      </trkpt>
      <trkpt lat="41.92695" lon="44.92619">
        <ele>1185.209316</ele>
        <time>2021-08-12T02:11:36.720Z</time>
      </trkpt>
      <trkpt lat="41.92646" lon="44.9255">
        <ele>1182.567812</ele>
        <time>2021-08-12T02:11:52.575Z</time>
      </trkpt>
      <trkpt lat="41.92645" lon="44.92521">
        <ele>1181.768871</ele>
        <time>2021-08-12T02:11:57.262Z</time>
      </trkpt>
      <trkpt lat="41.92653" lon="44.92506">
        <ele>1181.266401</ele>
        <time>2021-08-12T02:12:00.167Z</time>
      </trkpt>
      <trkpt lat="41.92673" lon="44.925">
        <ele>1180.511935</ele>
        <time>2021-08-12T02:12:04.528Z</time>
      </trkpt>
      <trkpt lat="41.92684" lon="44.925">
        <ele>1179.876668</ele>
        <time>2021-08-12T02:12:06.826Z</time>
      </trkpt>
      <trkpt lat="41.92693" lon="44.92508">
        <ele>1179.162678</ele>
        <time>2021-08-12T02:12:09.240Z</time>
      </trkpt>
      <trkpt lat="41.92756" lon="44.92645">
        <ele>1171.517647</ele>
        <time>2021-08-12T02:12:33.792Z</time>
      </trkpt>
      <trkpt lat="41.92772" lon="44.92681">
        <ele>1169.504355</ele>
        <time>2021-08-12T02:12:40.035Z</time>
      </trkpt>
      <trkpt lat="41.92805" lon="44.92749">
        <ele>1163.46623</ele>
        <time>2021-08-12T02:12:51.678Z</time>
      </trkpt>
      <trkpt lat="41.92878" lon="44.92922">
        <ele>1147.079211</ele>
        <time>2021-08-12T02:13:19.347Z</time>
      </trkpt>
      <trkpt lat="41.92902" lon="44.92971">
        <ele>1141.230944</ele>
        <time>2021-08-12T02:13:27.457Z</time>
      </trkpt>
      <trkpt lat="41.92914" lon="44.92988">
        <ele>1139.011687</ele>
        <time>2021-08-12T02:13:30.580Z</time>
      </trkpt>
      <trkpt lat="41.9294" lon="44.93008">
        <ele>1135.06281</ele>
        <time>2021-08-12T02:13:36.106Z</time>
      </trkpt>
      <trkpt lat="41.92953" lon="44.93013">
        <ele>1133.174263</ele>
        <time>2021-08-12T02:13:38.676Z</time>
      </trkpt>
      <trkpt lat="41.92957" lon="44.93034">
        <ele>1131.091756</ele>
        <time>2021-08-12T02:13:41.670Z</time>
      </trkpt>
      <trkpt lat="41.92966" lon="44.93044">
        <ele>1129.516504</ele>
        <time>2021-08-12T02:13:43.986Z</time>
      </trkpt>
      <trkpt lat="41.92983" lon="44.93053">
        <ele>1127.086414</ele>
        <time>2021-08-12T02:13:47.459Z</time>
      </trkpt>
      <trkpt lat="41.93077" lon="44.93062">
        <ele>1116.128356</ele>
        <time>2021-08-12T02:14:05.668Z</time>
      </trkpt>
      <trkpt lat="41.93087" lon="44.93062">
        <ele>1114.99582</ele>
        <time>2021-08-12T02:14:07.515Z</time>
      </trkpt>
      <trkpt lat="41.93106" lon="44.93064">
        <ele>1112.87936</ele>
        <time>2021-08-12T02:14:11.259Z</time>
      </trkpt>
      <trkpt lat="41.93157" lon="44.93071">
        <ele>1106.997381</ele>
        <time>2021-08-12T02:14:21.669Z</time>
      </trkpt>
      <trkpt lat="41.93186" lon="44.93076">
        <ele>1104.318818</ele>
        <time>2021-08-12T02:14:27.777Z</time>
      </trkpt>
      <trkpt lat="41.9319" lon="44.93077">
        <ele>1104.043454</ele>
        <time>2021-08-12T02:14:28.572Z</time>
      </trkpt>
      <trkpt lat="41.9327" lon="44.93085">
        <ele>1098.697147</ele>
        <time>2021-08-12T02:14:45.259Z</time>
      </trkpt>
      <trkpt lat="41.93284" lon="44.93083">
        <ele>1097.765687</ele>
        <time>2021-08-12T02:14:48.363Z</time>
      </trkpt>
      <trkpt lat="41.93289" lon="44.93082">
        <ele>1097.443564</ele>
        <time>2021-08-12T02:14:49.374Z</time>
      </trkpt>
      <trkpt lat="41.93327" lon="44.93086">
        <ele>1094.911953</ele>
        <time>2021-08-12T02:14:57.679Z</time>
      </trkpt>
      <trkpt lat="41.93353" lon="44.93077">
        <ele>1093.196037</ele>
        <time>2021-08-12T02:15:03.698Z</time>
      </trkpt>
      <trkpt lat="41.93369" lon="44.9307">
        <ele>1092.47695</ele>
        <time>2021-08-12T02:15:07.575Z</time>
      </trkpt>
      <trkpt lat="41.93377" lon="44.93071">
        <ele>1092.175276</ele>
        <time>2021-08-12T02:15:09.150Z</time>
      </trkpt>
      <trkpt lat="41.93484" lon="44.93086">
        <ele>1087.688077</ele>
        <time>2021-08-12T02:15:32.574Z</time>
      </trkpt>
      <trkpt lat="41.93519" lon="44.93091">
        <ele>1086.195111</ele>
        <time>2021-08-12T02:15:40.517Z</time>
      </trkpt>
      <trkpt lat="41.93669" lon="44.93113">
        <ele>1080.7951</ele>
        <time>2021-08-12T02:16:14.281Z</time>
      </trkpt>
      <trkpt lat="41.93693" lon="44.93116">
        <ele>1079.938444</ele>
        <time>2021-08-12T02:16:19.711Z</time>
      </trkpt>
      <trkpt lat="41.93695" lon="44.93116">
        <ele>1079.863618</ele>
        <time>2021-08-12T02:16:20.206Z</time>
      </trkpt>
      <trkpt lat="41.93807" lon="44.93134">
        <ele>1076.032158</ele>
        <time>2021-08-12T02:16:45.495Z</time>
      </trkpt>
      <trkpt lat="41.93914" lon="44.93147">
        <ele>1072.227025</ele>
        <time>2021-08-12T02:17:10.008Z</time>
      </trkpt>
      <trkpt lat="41.94005" lon="44.93175">
        <ele>1068.68209</ele>
        <time>2021-08-12T02:17:30.395Z</time>
      </trkpt>
      <trkpt lat="41.94068" lon="44.93199">
        <ele>1066.202374</ele>
        <time>2021-08-12T02:17:44.941Z</time>
      </trkpt>
      <trkpt lat="41.94074" lon="44.93201">
        <ele>1065.994131</ele>
        <time>2021-08-12T02:17:46.093Z</time>
      </trkpt>
      <trkpt lat="41.94185" lon="44.93239">
        <ele>1061.791381</ele>
        <time>2021-08-12T02:18:11.590Z</time>
      </trkpt>
      <trkpt lat="41.94627" lon="44.93354">
        <ele>1047.671678</ele>
        <time>2021-08-12T02:19:54.487Z</time>
      </trkpt>
      <trkpt lat="41.94634" lon="44.93357">
        <ele>1047.50262</ele>
        <time>2021-08-12T02:19:56.017Z</time>
      </trkpt>
      <trkpt lat="41.94657" lon="44.93364">
        <ele>1046.914052</ele>
        <time>2021-08-12T02:20:01.675Z</time>
      </trkpt>
      <trkpt lat="41.94686" lon="44.93374">
        <ele>1046.189112</ele>
        <time>2021-08-12T02:20:08.590Z</time>
      </trkpt>
      <trkpt lat="41.95667" lon="44.93634">
        <ele>1027.469626</ele>
        <time>2021-08-12T02:24:17.590Z</time>
      </trkpt>
      <trkpt lat="41.95767" lon="44.93649">
        <ele>1026.454864</ele>
        <time>2021-08-12T02:24:44.630Z</time>
      </trkpt>
      <trkpt lat="41.96129" lon="44.93742">
        <ele>1024.533892</ele>
        <time>2021-08-12T02:26:31.441Z</time>
      </trkpt>
      <trkpt lat="41.9621" lon="44.93755">
        <ele>1024.291155</ele>
        <time>2021-08-12T02:26:55.310Z</time>
      </trkpt>
      <trkpt lat="41.96246" lon="44.9376">
        <ele>1024.247849</ele>
        <time>2021-08-12T02:27:06.042Z</time>
      </trkpt>
      <trkpt lat="41.96355" lon="44.93777">
        <ele>1024.115364</ele>
        <time>2021-08-12T02:27:39.752Z</time>
      </trkpt>
      <trkpt lat="41.97178" lon="44.93909">
        <ele>1027.521805</ele>
        <time>2021-08-12T02:32:15.386Z</time>
      </trkpt>
      <trkpt lat="41.97247" lon="44.9392">
        <ele>1027.995725</ele>
        <time>2021-08-12T02:32:40.653Z</time>
      </trkpt>
      <trkpt lat="41.97322" lon="44.9394">
        <ele>1029.269819</ele>
        <time>2021-08-12T02:33:10.187Z</time>
      </trkpt>
      <trkpt lat="41.98005" lon="44.94037">
        <ele>1041.32854</ele>
        <time>2021-08-12T02:37:53.323Z</time>
      </trkpt>
      <trkpt lat="41.9818" lon="44.94067">
        <ele>1044.888364</ele>
        <time>2021-08-12T02:39:06.589Z</time>
      </trkpt>
      <trkpt lat="41.98217" lon="44.94074">
        <ele>1045.84083</ele>
        <time>2021-08-12T02:39:22.876Z</time>
      </trkpt>
      <trkpt lat="41.9826" lon="44.94082">
        <ele>1046.965671</ele>
        <time>2021-08-12T02:39:42.469Z</time>
      </trkpt>
      <trkpt lat="41.98306" lon="44.9409">
        <ele>1048.153173</ele>
        <time>2021-08-12T02:40:04.035Z</time>
      </trkpt>
      <trkpt lat="41.98432" lon="44.94109">
        <ele>1052.771171</ele>
        <time>2021-08-12T02:41:10.415Z</time>
      </trkpt>
      <trkpt lat="41.98465" lon="44.94113">
        <ele>1054.050633</ele>
        <time>2021-08-12T02:41:28.364Z</time>
      </trkpt>
      <trkpt lat="41.98507" lon="44.94119">
        <ele>1055.685149</ele>
        <time>2021-08-12T02:41:50.822Z</time>
      </trkpt>
      <trkpt lat="41.9858" lon="44.94128">
        <ele>1058.883575</ele>
        <time>2021-08-12T02:42:31.084Z</time>
      </trkpt>
      <trkpt lat="41.98698" lon="44.94149">
        <ele>1064.128373</ele>
        <time>2021-08-12T02:43:37.516Z</time>
      </trkpt>
      <trkpt lat="41.98758" lon="44.94159">
        <ele>1067.144172</ele>
        <time>2021-08-12T02:44:12.339Z</time>
      </trkpt>
      <trkpt lat="41.98818" lon="44.94168">
        <ele>1070.144766</ele>
        <time>2021-08-12T02:44:47.645Z</time>
      </trkpt>
      <trkpt lat="41.98825" lon="44.94169">
        <ele>1070.498848</ele>
        <time>2021-08-12T02:44:52.425Z</time>
      </trkpt>
      <trkpt lat="41.98865" lon="44.94179">
        <ele>1072.531512</ele>
        <time>2021-08-12T02:45:17.475Z</time>
      </trkpt>
      <trkpt lat="41.98874" lon="44.94182">
        <ele>1073.048948</ele>
        <time>2021-08-12T02:45:22.829Z</time>
      </trkpt>
      <trkpt lat="41.98894" lon="44.94189">
        <ele>1074.177766</ele>
        <time>2021-08-12T02:45:36.537Z</time>
      </trkpt>
      <trkpt lat="41.98955" lon="44.94221">
        <ele>1077.679099</ele>
        <time>2021-08-12T02:46:17.738Z</time>
      </trkpt>
      <trkpt lat="41.98997" lon="44.94245">
        <ele>1080.154553</ele>
        <time>2021-08-12T02:46:45.769Z</time>
      </trkpt>
      <trkpt lat="41.99033" lon="44.94267">
        <ele>1082.160019</ele>
        <time>2021-08-12T02:47:09.412Z</time>
      </trkpt>
      <trkpt lat="41.99036" lon="44.94268">
        <ele>1082.274479</ele>
        <time>2021-08-12T02:47:11.454Z</time>
      </trkpt>
      <trkpt lat="41.99053" lon="44.94276">
        <ele>1082.964734</ele>
        <time>2021-08-12T02:47:21.933Z</time>
      </trkpt>
      <trkpt lat="41.99153" lon="44.94239">
        <ele>1086.819215</ele>
        <time>2021-08-12T02:48:18.154Z</time>
      </trkpt>
      <trkpt lat="41.99206" lon="44.94237">
        <ele>1088.589335</ele>
        <time>2021-08-12T02:48:42.413Z</time>
      </trkpt>
      <trkpt lat="41.99257" lon="44.94236">
        <ele>1088.834654</ele>
        <time>2021-08-12T02:49:01.499Z</time>
      </trkpt>
      <trkpt lat="41.99274" lon="44.94235">
        <ele>1088.913542</ele>
        <time>2021-08-12T02:49:07.148Z</time>
      </trkpt>
      <trkpt lat="41.99301" lon="44.94235">
        <ele>1089.042918</ele>
        <time>2021-08-12T02:49:15.989Z</time>
      </trkpt>
      <trkpt lat="41.99311" lon="44.94239">
        <ele>1089.095585</ele>
        <time>2021-08-12T02:49:19.500Z</time>
      </trkpt>
      <trkpt lat="41.99327" lon="44.94244">
        <ele>1089.173611</ele>
        <time>2021-08-12T02:49:24.452Z</time>
      </trkpt>
      <trkpt lat="41.9935" lon="44.94258">
        <ele>1089.294145</ele>
        <time>2021-08-12T02:49:31.759Z</time>
      </trkpt>
      <trkpt lat="41.99385" lon="44.94299">
        <ele>1089.431373</ele>
        <time>2021-08-12T02:49:44.419Z</time>
      </trkpt>
      <trkpt lat="41.99396" lon="44.94305">
        <ele>1089.435668</ele>
        <time>2021-08-12T02:49:47.395Z</time>
      </trkpt>
      <trkpt lat="41.9944" lon="44.94303">
        <ele>1089.452138</ele>
        <time>2021-08-12T02:49:59.361Z</time>
      </trkpt>
      <trkpt lat="41.99453" lon="44.94288">
        <ele>1089.458434</ele>
        <time>2021-08-12T02:50:03.938Z</time>
      </trkpt>
      <trkpt lat="41.99461" lon="44.94197">
        <ele>1089.483898</ele>
        <time>2021-08-12T02:50:26.834Z</time>
      </trkpt>
      <trkpt lat="41.99466" lon="44.94177">
        <ele>1089.489626</ele>
        <time>2021-08-12T02:50:32.644Z</time>
      </trkpt>
      <trkpt lat="41.99477" lon="44.94159">
        <ele>1089.93385</ele>
        <time>2021-08-12T02:50:39.740Z</time>
      </trkpt>
      <trkpt lat="41.99489" lon="44.94151">
        <ele>1090.373041</ele>
        <time>2021-08-12T02:50:44.644Z</time>
      </trkpt>
      <trkpt lat="41.99502" lon="44.94142">
        <ele>1090.866408</ele>
        <time>2021-08-12T02:50:52.138Z</time>
      </trkpt>
      <trkpt lat="41.9965" lon="44.94101">
        <ele>1096.050395</ele>
        <time>2021-08-12T02:52:11.564Z</time>
      </trkpt>
      <trkpt lat="41.99692" lon="44.94117">
        <ele>1098.163813</ele>
        <time>2021-08-12T02:52:37.680Z</time>
      </trkpt>
      <trkpt lat="41.99745" lon="44.94154">
        <ele>1101.009194</ele>
        <time>2021-08-12T02:53:11.410Z</time>
      </trkpt>
      <trkpt lat="41.9975" lon="44.94157">
        <ele>1101.296776</ele>
        <time>2021-08-12T02:53:16.403Z</time>
      </trkpt>
      <trkpt lat="41.99758" lon="44.94161">
        <ele>1101.682136</ele>
        <time>2021-08-12T02:53:21.169Z</time>
      </trkpt>
      <trkpt lat="41.99779" lon="44.94168">
        <ele>1102.7297</ele>
        <time>2021-08-12T02:53:32.693Z</time>
      </trkpt>
      <trkpt lat="41.99783" lon="44.94169">
        <ele>1102.929403</ele>
        <time>2021-08-12T02:53:36.285Z</time>
      </trkpt>
      <trkpt lat="41.99792" lon="44.94169">
        <ele>1103.352122</ele>
        <time>2021-08-12T02:53:41.867Z</time>
      </trkpt>
      <trkpt lat="41.998" lon="44.94167">
        <ele>1103.718673</ele>
        <time>2021-08-12T02:53:45.814Z</time>
      </trkpt>
      <trkpt lat="41.99802" lon="44.94166">
        <ele>1103.825125</ele>
        <time>2021-08-12T02:53:47.119Z</time>
      </trkpt>
      <trkpt lat="41.9983" lon="44.94142">
        <ele>1105.560401</ele>
        <time>2021-08-12T02:54:07.134Z</time>
      </trkpt>
      <trkpt lat="41.99948" lon="44.9393">
        <ele>1116.188549</ele>
        <time>2021-08-12T02:56:05.994Z</time>
      </trkpt>
      <trkpt lat="41.99995" lon="44.93828">
        <ele>1121.585063</ele>
        <time>2021-08-12T02:57:03.853Z</time>
      </trkpt>
      <trkpt lat="42.00058" lon="44.93755">
        <ele>1127.050183</ele>
        <time>2021-08-12T02:58:01.703Z</time>
      </trkpt>
      <trkpt lat="42.00158" lon="44.93677">
        <ele>1135.453154</ele>
        <time>2021-08-12T02:59:25.968Z</time>
      </trkpt>
      <trkpt lat="42.00176" lon="44.9367">
        <ele>1136.814903</ele>
        <time>2021-08-12T02:59:39.815Z</time>
      </trkpt>
      <trkpt lat="42.00209" lon="44.93669">
        <ele>1139.087193</ele>
        <time>2021-08-12T03:00:04.099Z</time>
      </trkpt>
      <trkpt lat="42.00245" lon="44.93684">
        <ele>1141.60097</ele>
        <time>2021-08-12T03:00:31.037Z</time>
      </trkpt>
      <trkpt lat="42.00319" lon="44.93734">
        <ele>1147.174662</ele>
        <time>2021-08-12T03:01:28.252Z</time>
      </trkpt>
      <trkpt lat="42.00397" lon="44.93774">
        <ele>1151.823355</ele>
        <time>2021-08-12T03:02:20.536Z</time>
      </trkpt>
      <trkpt lat="42.005" lon="44.93844">
        <ele>1157.445631</ele>
        <time>2021-08-12T03:03:26.140Z</time>
      </trkpt>
      <trkpt lat="42.00514" lon="44.93867">
        <ele>1158.463711</ele>
        <time>2021-08-12T03:03:37.965Z</time>
      </trkpt>
      <trkpt lat="42.00516" lon="44.93881">
        <ele>1158.894924</ele>
        <time>2021-08-12T03:03:43.559Z</time>
      </trkpt>
      <trkpt lat="42.00498" lon="44.94005">
        <ele>1162.770139</ele>
        <time>2021-08-12T03:04:33.270Z</time>
      </trkpt>
      <trkpt lat="42.00496" lon="44.94046">
        <ele>1164.025584</ele>
        <time>2021-08-12T03:04:49.666Z</time>
      </trkpt>
      <trkpt lat="42.00503" lon="44.94065">
        <ele>1164.689041</ele>
        <time>2021-08-12T03:04:58.381Z</time>
      </trkpt>
      <trkpt lat="42.00514" lon="44.94078">
        <ele>1165.267003</ele>
        <time>2021-08-12T03:05:06.081Z</time>
      </trkpt>
      <trkpt lat="42.0054" lon="44.94071">
        <ele>1166.58348</ele>
        <time>2021-08-12T03:05:20.850Z</time>
      </trkpt>
      <trkpt lat="42.00698" lon="44.93953">
        <ele>1176.062002</ele>
        <time>2021-08-12T03:07:10.914Z</time>
      </trkpt>
      <trkpt lat="42.00773" lon="44.93948">
        <ele>1180.350258</ele>
        <time>2021-08-12T03:08:00.846Z</time>
      </trkpt>
      <trkpt lat="42.00792" lon="44.93952">
        <ele>1181.40019</ele>
        <time>2021-08-12T03:08:13.059Z</time>
      </trkpt>
      <trkpt lat="42.00809" lon="44.93964">
        <ele>1182.494811</ele>
        <time>2021-08-12T03:08:25.180Z</time>
      </trkpt>
      <trkpt lat="42.00808" lon="44.93983">
        <ele>1183.328821</ele>
        <time>2021-08-12T03:08:34.777Z</time>
      </trkpt>
      <trkpt lat="42.00774" lon="44.93995">
        <ele>1185.236193</ele>
        <time>2021-08-12T03:08:55.827Z</time>
      </trkpt>
      <trkpt lat="42.00737" lon="44.94035">
        <ele>1187.114228</ele>
        <time>2021-08-12T03:09:23.285Z</time>
      </trkpt>
      <trkpt lat="42.00697" lon="44.94108">
        <ele>1189.722524</ele>
        <time>2021-08-12T03:09:58.736Z</time>
      </trkpt>
      <trkpt lat="42.00671" lon="44.94175">
        <ele>1191.91884</ele>
        <time>2021-08-12T03:10:25.963Z</time>
      </trkpt>
      <trkpt lat="42.0066" lon="44.9421">
        <ele>1192.934866</ele>
        <time>2021-08-12T03:10:38.973Z</time>
      </trkpt>
      <trkpt lat="42.00644" lon="44.94299">
        <ele>1195.348469</ele>
        <time>2021-08-12T03:11:11.204Z</time>
      </trkpt>
      <trkpt lat="42.00643" lon="44.94368">
        <ele>1197.150756</ele>
        <time>2021-08-12T03:11:37.533Z</time>
      </trkpt>
      <trkpt lat="42.0065" lon="44.94409">
        <ele>1198.258128</ele>
        <time>2021-08-12T03:11:54.804Z</time>
      </trkpt>
      <trkpt lat="42.00662" lon="44.94475">
        <ele>1201.120761</ele>
        <time>2021-08-12T03:12:24.400Z</time>
      </trkpt>
      <trkpt lat="42.0068" lon="44.94551">
        <ele>1204.654459</ele>
        <time>2021-08-12T03:13:01.034Z</time>
      </trkpt>
      <trkpt lat="42.00691" lon="44.94586">
        <ele>1206.379281</ele>
        <time>2021-08-12T03:13:19.750Z</time>
      </trkpt>
      <trkpt lat="42.0073" lon="44.9464">
        <ele>1209.888587</ele>
        <time>2021-08-12T03:13:59.881Z</time>
      </trkpt>
      <trkpt lat="42.00757" lon="44.94694">
        <ele>1213.999332</ele>
        <time>2021-08-12T03:14:38.460Z</time>
      </trkpt>
      <trkpt lat="42.00787" lon="44.9474">
        <ele>1217.821739</ele>
        <time>2021-08-12T03:15:14.451Z</time>
      </trkpt>
      <trkpt lat="42.00812" lon="44.94769">
        <ele>1220.676155</ele>
        <time>2021-08-12T03:15:41.535Z</time>
      </trkpt>
      <trkpt lat="42.00828" lon="44.94779">
        <ele>1222.121508</ele>
        <time>2021-08-12T03:15:56.396Z</time>
      </trkpt>
      <trkpt lat="42.00872" lon="44.94807">
        <ele>1226.20927</ele>
        <time>2021-08-12T03:16:34.409Z</time>
      </trkpt>
      <trkpt lat="42.00971" lon="44.94854">
        <ele>1234.946013</ele>
        <time>2021-08-12T03:17:57.893Z</time>
      </trkpt>
      <trkpt lat="42.01039" lon="44.94838">
        <ele>1240.53881</ele>
        <time>2021-08-12T03:18:49.145Z</time>
      </trkpt>
      <trkpt lat="42.01082" lon="44.94852">
        <ele>1243.839767</ele>
        <time>2021-08-12T03:19:21.065Z</time>
      </trkpt>
      <trkpt lat="42.01093" lon="44.94858">
        <ele>1244.741996</ele>
        <time>2021-08-12T03:19:29.751Z</time>
      </trkpt>
      <trkpt lat="42.01114" lon="44.94871">
        <ele>1246.448481</ele>
        <time>2021-08-12T03:19:46.768Z</time>
      </trkpt>
      <trkpt lat="42.01161" lon="44.94901">
        <ele>1250.361669</ele>
        <time>2021-08-12T03:20:24.981Z</time>
      </trkpt>
      <trkpt lat="42.01164" lon="44.9491">
        <ele>1250.897028</ele>
        <time>2021-08-12T03:20:30.325Z</time>
      </trkpt>
      <trkpt lat="42.01167" lon="44.94935">
        <ele>1252.302318</ele>
        <time>2021-08-12T03:20:43.983Z</time>
      </trkpt>
      <trkpt lat="42.01162" lon="44.95032">
        <ele>1256.301128</ele>
        <time>2021-08-12T03:21:35.514Z</time>
      </trkpt>
      <trkpt lat="42.01169" lon="44.95087">
        <ele>1258.499071</ele>
        <time>2021-08-12T03:21:59.999Z</time>
      </trkpt>
      <trkpt lat="42.01185" lon="44.95144">
        <ele>1260.913894</ele>
        <time>2021-08-12T03:22:25.561Z</time>
      </trkpt>
      <trkpt lat="42.0122" lon="44.95192">
        <ele>1262.846487</ele>
        <time>2021-08-12T03:22:51.846Z</time>
      </trkpt>
      <trkpt lat="42.01351" lon="44.95329">
        <ele>1265.58327</ele>
        <time>2021-08-12T03:23:59.375Z</time>
      </trkpt>
      <trkpt lat="42.01372" lon="44.95346">
        <ele>1264.986586</ele>
        <time>2021-08-12T03:24:06.359Z</time>
      </trkpt>
      <trkpt lat="42.01379" lon="44.95347">
        <ele>1264.829699</ele>
        <time>2021-08-12T03:24:08.065Z</time>
      </trkpt>
      <trkpt lat="42.01387" lon="44.95348">
        <ele>1264.619124</ele>
        <time>2021-08-12T03:24:10.417Z</time>
      </trkpt>
      <trkpt lat="42.01399" lon="44.95346">
        <ele>1264.333977</ele>
        <time>2021-08-12T03:24:13.235Z</time>
      </trkpt>
      <trkpt lat="42.01417" lon="44.95326">
        <ele>1263.767345</ele>
        <time>2021-08-12T03:24:19.233Z</time>
      </trkpt>
      <trkpt lat="42.01424" lon="44.95301">
        <ele>1263.286201</ele>
        <time>2021-08-12T03:24:23.923Z</time>
      </trkpt>
      <trkpt lat="42.01434" lon="44.95193">
        <ele>1261.249501</ele>
        <time>2021-08-12T03:24:41.698Z</time>
      </trkpt>
      <trkpt lat="42.01441" lon="44.95167">
        <ele>1259.96857</ele>
        <time>2021-08-12T03:24:45.982Z</time>
      </trkpt>
      <trkpt lat="42.01471" lon="44.95123">
        <ele>1257.293435</ele>
        <time>2021-08-12T03:24:55.053Z</time>
      </trkpt>
      <trkpt lat="42.01527" lon="44.95015">
        <ele>1251.321307</ele>
        <time>2021-08-12T03:25:14.960Z</time>
      </trkpt>
      <trkpt lat="42.01624" lon="44.94786">
        <ele>1237.333904</ele>
        <time>2021-08-12T03:25:54.161Z</time>
      </trkpt>
      <trkpt lat="42.01683" lon="44.94657">
        <ele>1228.344142</ele>
        <time>2021-08-12T03:26:16.368Z</time>
      </trkpt>
      <trkpt lat="42.01696" lon="44.94639">
        <ele>1226.856569</ele>
        <time>2021-08-12T03:26:20.008Z</time>
      </trkpt>
      <trkpt lat="42.01726" lon="44.94617">
        <ele>1224.146299</ele>
        <time>2021-08-12T03:26:26.638Z</time>
      </trkpt>
      <trkpt lat="42.01792" lon="44.94596">
        <ele>1218.954004</ele>
        <time>2021-08-12T03:26:39.994Z</time>
      </trkpt>
      <trkpt lat="42.0181" lon="44.94596">
        <ele>1217.611181</ele>
        <time>2021-08-12T03:26:43.485Z</time>
      </trkpt>
      <trkpt lat="42.01827" lon="44.9461">
        <ele>1216.108003</ele>
        <time>2021-08-12T03:26:47.423Z</time>
      </trkpt>
      <trkpt lat="42.01901" lon="44.94755">
        <ele>1207.335185</ele>
        <time>2021-08-12T03:27:13.686Z</time>
      </trkpt>
      <trkpt lat="42.01917" lon="44.9477">
        <ele>1206.306016</ele>
        <time>2021-08-12T03:27:17.869Z</time>
      </trkpt>
      <trkpt lat="42.01933" lon="44.94775">
        <ele>1205.477103</ele>
        <time>2021-08-12T03:27:21.247Z</time>
      </trkpt>
      <trkpt lat="42.01952" lon="44.9477">
        <ele>1204.493538</ele>
        <time>2021-08-12T03:27:25.313Z</time>
      </trkpt>
      <trkpt lat="42.01977" lon="44.94748">
        <ele>1202.928356</ele>
        <time>2021-08-12T03:27:31.774Z</time>
      </trkpt>
      <trkpt lat="42.01997" lon="44.94686">
        <ele>1200.302219</ele>
        <time>2021-08-12T03:27:42.751Z</time>
      </trkpt>
      <trkpt lat="42.02" lon="44.94654">
        <ele>1199.030164</ele>
        <time>2021-08-12T03:27:47.985Z</time>
      </trkpt>
      <trkpt lat="42.0201" lon="44.94176">
        <ele>1178.373685</ele>
        <time>2021-08-12T03:29:01.934Z</time>
      </trkpt>
      <trkpt lat="42.02022" lon="44.94119">
        <ele>1174.667239</ele>
        <time>2021-08-12T03:29:10.466Z</time>
      </trkpt>
      <trkpt lat="42.02039" lon="44.94069">
        <ele>1171.217313</ele>
        <time>2021-08-12T03:29:18.346Z</time>
      </trkpt>
      <trkpt lat="42.02055" lon="44.94039">
        <ele>1168.863221</ele>
        <time>2021-08-12T03:29:23.701Z</time>
      </trkpt>
      <trkpt lat="42.02069" lon="44.94027">
        <ele>1167.468105</ele>
        <time>2021-08-12T03:29:26.842Z</time>
      </trkpt>
      <trkpt lat="42.02083" lon="44.94021">
        <ele>1166.20114</ele>
        <time>2021-08-12T03:29:29.716Z</time>
      </trkpt>
      <trkpt lat="42.021" lon="44.94023">
        <ele>1164.79137</ele>
        <time>2021-08-12T03:29:32.870Z</time>
      </trkpt>
      <trkpt lat="42.0217" lon="44.94054">
        <ele>1159.268292</ele>
        <time>2021-08-12T03:29:47.018Z</time>
      </trkpt>
      <trkpt lat="42.02249" lon="44.94069">
        <ele>1153.238673</ele>
        <time>2021-08-12T03:30:02.933Z</time>
      </trkpt>
      <trkpt lat="42.02375" lon="44.94081">
        <ele>1148.129439</ele>
        <time>2021-08-12T03:30:30.149Z</time>
      </trkpt>
      <trkpt lat="42.02444" lon="44.94066">
        <ele>1145.983127</ele>
        <time>2021-08-12T03:30:48.078Z</time>
      </trkpt>
      <trkpt lat="42.02468" lon="44.94073">
        <ele>1145.873525</ele>
        <time>2021-08-12T03:30:55.265Z</time>
      </trkpt>
      <trkpt lat="42.02484" lon="44.94102">
        <ele>1146.277425</ele>
        <time>2021-08-12T03:31:03.868Z</time>
      </trkpt>
      <trkpt lat="42.0251" lon="44.94203">
        <ele>1147.469116</ele>
        <time>2021-08-12T03:31:35.306Z</time>
      </trkpt>
      <trkpt lat="42.02566" lon="44.94365">
        <ele>1151.263053</ele>
        <time>2021-08-12T03:32:39.768Z</time>
      </trkpt>
      <trkpt lat="42.02572" lon="44.94382">
        <ele>1151.81314</ele>
        <time>2021-08-12T03:32:49.593Z</time>
      </trkpt>
      <trkpt lat="42.02601" lon="44.94487">
        <ele>1155.136415</ele>
        <time>2021-08-12T03:33:36.828Z</time>
      </trkpt>
      <trkpt lat="42.02619" lon="44.94518">
        <ele>1155.816508</ele>
        <time>2021-08-12T03:33:53.071Z</time>
      </trkpt>
      <trkpt lat="42.02639" lon="44.94526">
        <ele>1156.162024</ele>
        <time>2021-08-12T03:34:02.186Z</time>
      </trkpt>
      <trkpt lat="42.02647" lon="44.94525">
        <ele>1156.279597</ele>
        <time>2021-08-12T03:34:07.211Z</time>
      </trkpt>
      <trkpt lat="42.02654" lon="44.94521">
        <ele>1156.406501</ele>
        <time>2021-08-12T03:34:12.270Z</time>
      </trkpt>
      <trkpt lat="42.0267" lon="44.94501">
        <ele>1156.757999</ele>
        <time>2021-08-12T03:34:20.290Z</time>
      </trkpt>
      <trkpt lat="42.0273" lon="44.94371">
        <ele>1157.896888</ele>
        <time>2021-08-12T03:35:02.151Z</time>
      </trkpt>
      <trkpt lat="42.02753" lon="44.94306">
        <ele>1155.696419</ele>
        <time>2021-08-12T03:35:14.022Z</time>
      </trkpt>
      <trkpt lat="42.02809" lon="44.94219">
        <ele>1152.181398</ele>
        <time>2021-08-12T03:35:31.955Z</time>
      </trkpt>
      <trkpt lat="42.02824" lon="44.94196">
        <ele>1151.264142</ele>
        <time>2021-08-12T03:35:36.545Z</time>
      </trkpt>
      <trkpt lat="42.02831" lon="44.94188">
        <ele>1150.913353</ele>
        <time>2021-08-12T03:35:38.494Z</time>
      </trkpt>
      <trkpt lat="42.02839" lon="44.94182">
        <ele>1150.635193</ele>
        <time>2021-08-12T03:35:40.538Z</time>
      </trkpt>
      <trkpt lat="42.02847" lon="44.9418">
        <ele>1150.381126</ele>
        <time>2021-08-12T03:35:42.171Z</time>
      </trkpt>
      <trkpt lat="42.02859" lon="44.94182">
        <ele>1149.987152</ele>
        <time>2021-08-12T03:35:44.733Z</time>
      </trkpt>
      <trkpt lat="42.02876" lon="44.94198">
        <ele>1149.357893</ele>
        <time>2021-08-12T03:35:49.109Z</time>
      </trkpt>
      <trkpt lat="42.02882" lon="44.94219">
        <ele>1148.821732</ele>
        <time>2021-08-12T03:35:52.634Z</time>
      </trkpt>
      <trkpt lat="42.02937" lon="44.9444">
        <ele>1145.993749</ele>
        <time>2021-08-12T03:36:36.556Z</time>
      </trkpt>
      <trkpt lat="42.02952" lon="44.94521">
        <ele>1146.581149</ele>
        <time>2021-08-12T03:37:02.225Z</time>
      </trkpt>
      <trkpt lat="42.02958" lon="44.9456">
        <ele>1146.863381</ele>
        <time>2021-08-12T03:37:15.200Z</time>
      </trkpt>
      <trkpt lat="42.02959" lon="44.9459">
        <ele>1147.075521</ele>
        <time>2021-08-12T03:37:25.364Z</time>
      </trkpt>
      <trkpt lat="42.02959" lon="44.94717">
        <ele>1150.723938</ele>
        <time>2021-08-12T03:38:15.089Z</time>
      </trkpt>
      <trkpt lat="42.02979" lon="44.94818">
        <ele>1153.81107</ele>
        <time>2021-08-12T03:39:00.923Z</time>
      </trkpt>
      <trkpt lat="42.02985" lon="44.94836">
        <ele>1154.325876</ele>
        <time>2021-08-12T03:39:08.498Z</time>
      </trkpt>
      <trkpt lat="42.02999" lon="44.94867">
        <ele>1155.028537</ele>
        <time>2021-08-12T03:39:22.311Z</time>
      </trkpt>
      <trkpt lat="42.03008" lon="44.94888">
        <ele>1155.469462</ele>
        <time>2021-08-12T03:39:31.463Z</time>
      </trkpt>
      <trkpt lat="42.03011" lon="44.94902">
        <ele>1155.753073</ele>
        <time>2021-08-12T03:39:36.770Z</time>
      </trkpt>
      <trkpt lat="42.03013" lon="44.94922">
        <ele>1156.150541</ele>
        <time>2021-08-12T03:39:43.863Z</time>
      </trkpt>
      <trkpt lat="42.03008" lon="44.94964">
        <ele>1156.954086</ele>
        <time>2021-08-12T03:39:58.184Z</time>
      </trkpt>
      <trkpt lat="42.03" lon="44.94979">
        <ele>1157.303924</ele>
        <time>2021-08-12T03:40:05.024Z</time>
      </trkpt>
      <trkpt lat="42.02995" lon="44.94988">
        <ele>1157.526757</ele>
        <time>2021-08-12T03:40:08.836Z</time>
      </trkpt>
      <trkpt lat="42.02977" lon="44.95014">
        <ele>1158.199704</ele>
        <time>2021-08-12T03:40:20.155Z</time>
      </trkpt>
      <trkpt lat="42.02941" lon="44.95077">
        <ele>1158.702678</ele>
        <time>2021-08-12T03:40:40.696Z</time>
      </trkpt>
      <trkpt lat="42.02894" lon="44.95176">
        <ele>1158.375583</ele>
        <time>2021-08-12T03:41:04.064Z</time>
      </trkpt>
      <trkpt lat="42.02881" lon="44.95229">
        <ele>1158.21877</ele>
        <time>2021-08-12T03:41:15.572Z</time>
      </trkpt>
      <trkpt lat="42.02842" lon="44.95513">
        <ele>1157.347957</ele>
        <time>2021-08-12T03:42:19.155Z</time>
      </trkpt>
      <trkpt lat="42.02822" lon="44.95619">
        <ele>1156.718008</ele>
        <time>2021-08-12T03:42:42.272Z</time>
      </trkpt>
      <trkpt lat="42.02813" lon="44.95666">
        <ele>1156.438504</ele>
        <time>2021-08-12T03:42:52.174Z</time>
      </trkpt>
      <trkpt lat="42.0281" lon="44.95681">
        <ele>1156.352252</ele>
        <time>2021-08-12T03:42:55.127Z</time>
      </trkpt>
      <trkpt lat="42.02808" lon="44.95696">
        <ele>1156.266562</ele>
        <time>2021-08-12T03:42:58.105Z</time>
      </trkpt>
      <trkpt lat="42.02799" lon="44.95775">
        <ele>1156.07675</ele>
        <time>2021-08-12T03:43:14.170Z</time>
      </trkpt>
      <trkpt lat="42.02793" lon="44.95826">
        <ele>1156.056008</ele>
        <time>2021-08-12T03:43:24.376Z</time>
      </trkpt>
      <trkpt lat="42.02792" lon="44.95849">
        <ele>1156.046477</ele>
        <time>2021-08-12T03:43:30.019Z</time>
      </trkpt>
      <trkpt lat="42.02792" lon="44.95849">
        <ele>1156.046477</ele>
        <time>2021-08-12T03:43:30.043Z</time>
      </trkpt>
      <trkpt lat="42.02792" lon="44.95849">
        <ele>1156.046477</ele>
        <time>2021-08-12T03:43:30.046Z</time>
      </trkpt>
      <trkpt lat="42.02791" lon="44.95871">
        <ele>1156.037629</ele>
        <time>2021-08-12T03:43:34.585Z</time>
      </trkpt>
      <trkpt lat="42.02791" lon="44.95965">
        <ele>1155.999877</ele>
        <time>2021-08-12T03:43:59.200Z</time>
      </trkpt>
      <trkpt lat="42.02795" lon="44.96018">
        <ele>1156.888106</ele>
        <time>2021-08-12T03:44:15.221Z</time>
      </trkpt>
      <trkpt lat="42.02799" lon="44.96028">
        <ele>1157.074715</ele>
        <time>2021-08-12T03:44:18.436Z</time>
      </trkpt>
      <trkpt lat="42.02799" lon="44.96029">
        <ele>1157.095505</ele>
        <time>2021-08-12T03:44:19.853Z</time>
      </trkpt>
      <trkpt lat="42.02821" lon="44.9606">
        <ele>1157.825083</ele>
        <time>2021-08-12T03:44:32.981Z</time>
      </trkpt>
      <trkpt lat="42.02858" lon="44.96087">
        <ele>1158.780819</ele>
        <time>2021-08-12T03:44:53.321Z</time>
      </trkpt>
      <trkpt lat="42.02893" lon="44.96096">
        <ele>1159.602156</ele>
        <time>2021-08-12T03:45:10.637Z</time>
      </trkpt>
      <trkpt lat="42.02923" lon="44.96086">
        <ele>1160.180914</ele>
        <time>2021-08-12T03:45:24.623Z</time>
      </trkpt>
      <trkpt lat="42.02937" lon="44.96067">
        <ele>1160.337137</ele>
        <time>2021-08-12T03:45:34.456Z</time>
      </trkpt>
      <trkpt lat="42.02986" lon="44.9595">
        <ele>1161.131559</ele>
        <time>2021-08-12T03:46:13.387Z</time>
      </trkpt>
      <trkpt lat="42.03044" lon="44.95841">
        <ele>1159.980742</ele>
        <time>2021-08-12T03:46:39.485Z</time>
      </trkpt>
      <trkpt lat="42.03058" lon="44.95825">
        <ele>1159.386396</ele>
        <time>2021-08-12T03:46:43.400Z</time>
      </trkpt>
      <trkpt lat="42.03079" lon="44.95815">
        <ele>1158.67474</ele>
        <time>2021-08-12T03:46:48.890Z</time>
      </trkpt>
      <trkpt lat="42.03151" lon="44.95825">
        <ele>1156.333101</ele>
        <time>2021-08-12T03:47:04.755Z</time>
      </trkpt>
      <trkpt lat="42.03157" lon="44.95826">
        <ele>1156.129639</ele>
        <time>2021-08-12T03:47:05.974Z</time>
      </trkpt>
      <trkpt lat="42.03161" lon="44.95827">
        <ele>1156.018321</ele>
        <time>2021-08-12T03:47:06.637Z</time>
      </trkpt>
      <trkpt lat="42.03212" lon="44.95837">
        <ele>1153.457811</ele>
        <time>2021-08-12T03:47:17.753Z</time>
      </trkpt>
      <trkpt lat="42.03269" lon="44.95822">
        <ele>1150.318327</ele>
        <time>2021-08-12T03:47:29.904Z</time>
      </trkpt>
      <trkpt lat="42.03293" lon="44.95802">
        <ele>1148.846449</ele>
        <time>2021-08-12T03:47:35.745Z</time>
      </trkpt>
      <trkpt lat="42.03334" lon="44.95743">
        <ele>1145.518914</ele>
        <time>2021-08-12T03:47:48.334Z</time>
      </trkpt>
      <trkpt lat="42.0335" lon="44.95734">
        <ele>1144.390299</ele>
        <time>2021-08-12T03:47:51.847Z</time>
      </trkpt>
      <trkpt lat="42.03422" lon="44.95767">
        <ele>1139.303345</ele>
        <time>2021-08-12T03:48:07.286Z</time>
      </trkpt>
      <trkpt lat="42.03453" lon="44.95763">
        <ele>1137.215339</ele>
        <time>2021-08-12T03:48:13.530Z</time>
      </trkpt>
      <trkpt lat="42.03496" lon="44.95748">
        <ele>1134.23894</ele>
        <time>2021-08-12T03:48:22.424Z</time>
      </trkpt>
      <trkpt lat="42.03606" lon="44.95682">
        <ele>1127.624389</ele>
        <time>2021-08-12T03:48:46.449Z</time>
      </trkpt>
      <trkpt lat="42.03645" lon="44.95673">
        <ele>1125.456801</ele>
        <time>2021-08-12T03:48:54.663Z</time>
      </trkpt>
      <trkpt lat="42.03709" lon="44.95676">
        <ele>1125.55119</ele>
        <time>2021-08-12T03:49:14.191Z</time>
      </trkpt>
      <trkpt lat="42.03716" lon="44.95672">
        <ele>1125.778555</ele>
        <time>2021-08-12T03:49:15.817Z</time>
      </trkpt>
      <trkpt lat="42.03722" lon="44.95667">
        <ele>1125.978544</ele>
        <time>2021-08-12T03:49:20.805Z</time>
      </trkpt>
      <trkpt lat="42.03751" lon="44.95625">
        <ele>1127.228209</ele>
        <time>2021-08-12T03:49:42.114Z</time>
      </trkpt>
      <trkpt lat="42.03762" lon="44.95625">
        <ele>1127.558076</ele>
        <time>2021-08-12T03:49:46.941Z</time>
      </trkpt>
      <trkpt lat="42.03767" lon="44.95635">
        <ele>1127.831896</ele>
        <time>2021-08-12T03:49:49.500Z</time>
      </trkpt>
      <trkpt lat="42.03769" lon="44.95645">
        <ele>1128.048829</ele>
        <time>2021-08-12T03:49:55.265Z</time>
      </trkpt>
      <trkpt lat="42.03769" lon="44.95654">
        <ele>1128.252708</ele>
        <time>2021-08-12T03:50:01.899Z</time>
      </trkpt>
      <trkpt lat="42.03765" lon="44.9574">
        <ele>1131.151881</ele>
        <time>2021-08-12T03:50:42.838Z</time>
      </trkpt>
      <trkpt lat="42.03745" lon="44.9583">
        <ele>1136.913029</ele>
        <time>2021-08-12T03:51:40.260Z</time>
      </trkpt>
      <trkpt lat="42.03726" lon="44.95875">
        <ele>1140.072245</ele>
        <time>2021-08-12T03:52:11.899Z</time>
      </trkpt>
      <trkpt lat="42.03697" lon="44.95929">
        <ele>1144.21618</ele>
        <time>2021-08-12T03:52:50.609Z</time>
      </trkpt>
      <trkpt lat="42.03603" lon="44.96045">
        <ele>1154.468252</ele>
        <time>2021-08-12T03:54:29.944Z</time>
      </trkpt>
      <trkpt lat="42.03595" lon="44.96063">
        <ele>1155.7104</ele>
        <time>2021-08-12T03:54:41.176Z</time>
      </trkpt>
      <trkpt lat="42.03591" lon="44.96081">
        <ele>1156.825144</ele>
        <time>2021-08-12T03:54:51.527Z</time>
      </trkpt>
      <trkpt lat="42.03583" lon="44.96114">
        <ele>1158.942872</ele>
        <time>2021-08-12T03:55:10.349Z</time>
      </trkpt>
      <trkpt lat="42.03577" lon="44.96135">
        <ele>1160.039688</ele>
        <time>2021-08-12T03:55:22.972Z</time>
      </trkpt>
      <trkpt lat="42.03562" lon="44.96208">
        <ele>1163.823279</ele>
        <time>2021-08-12T03:56:02.616Z</time>
      </trkpt>
      <trkpt lat="42.03554" lon="44.96262">
        <ele>1166.568191</ele>
        <time>2021-08-12T03:56:31.998Z</time>
      </trkpt>
      <trkpt lat="42.03546" lon="44.96297">
        <ele>1168.425753</ele>
        <time>2021-08-12T03:56:49.970Z</time>
      </trkpt>
      <trkpt lat="42.0354" lon="44.96322">
        <ele>1169.723723</ele>
        <time>2021-08-12T03:57:03.397Z</time>
      </trkpt>
      <trkpt lat="42.03517" lon="44.96392">
        <ele>1173.00325</ele>
        <time>2021-08-12T03:57:37.103Z</time>
      </trkpt>
      <trkpt lat="42.03506" lon="44.96428">
        <ele>1174.510177</ele>
        <time>2021-08-12T03:57:55.707Z</time>
      </trkpt>
      <trkpt lat="42.03494" lon="44.96465">
        <ele>1176.090581</ele>
        <time>2021-08-12T03:58:15.348Z</time>
      </trkpt>
      <trkpt lat="42.03474" lon="44.96529">
        <ele>1178.776506</ele>
        <time>2021-08-12T03:58:45.290Z</time>
      </trkpt>
      <trkpt lat="42.03471" lon="44.96558">
        <ele>1179.937806</ele>
        <time>2021-08-12T03:58:57.870Z</time>
      </trkpt>
      <trkpt lat="42.03479" lon="44.96569">
        <ele>1180.521569</ele>
        <time>2021-08-12T03:59:03.396Z</time>
      </trkpt>
      <trkpt lat="42.03485" lon="44.96569">
        <ele>1180.70886</ele>
        <time>2021-08-12T03:59:08.103Z</time>
      </trkpt>
      <trkpt lat="42.03489" lon="44.96568">
        <ele>1180.867633</ele>
        <time>2021-08-12T03:59:10.714Z</time>
      </trkpt>
      <trkpt lat="42.03523" lon="44.96509">
        <ele>1182.881391</ele>
        <time>2021-08-12T03:59:40.179Z</time>
      </trkpt>
      <trkpt lat="42.03695" lon="44.96274">
        <ele>1191.783246</ele>
        <time>2021-08-12T04:01:39.992Z</time>
      </trkpt>
      <trkpt lat="42.03715" lon="44.96241">
        <ele>1192.951804</ele>
        <time>2021-08-12T04:01:55.903Z</time>
      </trkpt>
      <trkpt lat="42.03715" lon="44.96241">
        <ele>1192.951804</ele>
        <time>2021-08-12T04:01:55.943Z</time>
      </trkpt>
      <trkpt lat="42.03719" lon="44.96235">
        <ele>1193.14848</ele>
        <time>2021-08-12T04:02:00.111Z</time>
      </trkpt>
      <trkpt lat="42.03792" lon="44.96096">
        <ele>1200.610545</ele>
        <time>2021-08-12T04:03:18.817Z</time>
      </trkpt>
      <trkpt lat="42.03845" lon="44.96026">
        <ele>1205.204098</ele>
        <time>2021-08-12T04:04:12.376Z</time>
      </trkpt>
      <trkpt lat="42.03871" lon="44.96001">
        <ele>1207.324155</ele>
        <time>2021-08-12T04:04:37.141Z</time>
      </trkpt>
      <trkpt lat="42.03894" lon="44.95983">
        <ele>1209.110302</ele>
        <time>2021-08-12T04:04:56.929Z</time>
      </trkpt>
      <trkpt lat="42.03938" lon="44.9597">
        <ele>1212.081281</ele>
        <time>2021-08-12T04:05:30.383Z</time>
      </trkpt>
      <trkpt lat="42.03998" lon="44.96001">
        <ele>1216.361827</ele>
        <time>2021-08-12T04:06:10.495Z</time>
      </trkpt>
      <trkpt lat="42.04012" lon="44.96012">
        <ele>1216.708364</ele>
        <time>2021-08-12T04:06:22.017Z</time>
      </trkpt>
      <trkpt lat="42.04019" lon="44.96016">
        <ele>1216.817898</ele>
        <time>2021-08-12T04:06:24.531Z</time>
      </trkpt>
      <trkpt lat="42.04066" lon="44.96043">
        <ele>1217.563033</ele>
        <time>2021-08-12T04:06:48.351Z</time>
      </trkpt>
      <trkpt lat="42.04114" lon="44.96045">
        <ele>1218.265273</ele>
        <time>2021-08-12T04:07:07.860Z</time>
      </trkpt>
      <trkpt lat="42.04138" lon="44.96038">
        <ele>1218.616044</ele>
        <time>2021-08-12T04:07:14.220Z</time>
      </trkpt>
      <trkpt lat="42.04201" lon="44.95999">
        <ele>1218.269354</ele>
        <time>2021-08-12T04:07:31.613Z</time>
      </trkpt>
      <trkpt lat="42.04248" lon="44.9596">
        <ele>1216.937875</ele>
        <time>2021-08-12T04:07:44.634Z</time>
      </trkpt>
      <trkpt lat="42.04262" lon="44.95923">
        <ele>1216.1932</ele>
        <time>2021-08-12T04:07:51.849Z</time>
      </trkpt>
      <trkpt lat="42.04265" lon="44.95829">
        <ele>1214.5163</ele>
        <time>2021-08-12T04:08:08.197Z</time>
      </trkpt>
      <trkpt lat="42.04273" lon="44.95775">
        <ele>1213.539638</ele>
        <time>2021-08-12T04:08:17.843Z</time>
      </trkpt>
      <trkpt lat="42.04283" lon="44.95734">
        <ele>1212.7874</ele>
        <time>2021-08-12T04:08:25.274Z</time>
      </trkpt>
      <trkpt lat="42.04329" lon="44.95621">
        <ele>1210.511316</ele>
        <time>2021-08-12T04:08:48.677Z</time>
      </trkpt>
      <trkpt lat="42.04346" lon="44.95591">
        <ele>1210.326352</ele>
        <time>2021-08-12T04:08:55.722Z</time>
      </trkpt>
      <trkpt lat="42.04357" lon="44.95572">
        <ele>1210.205823</ele>
        <time>2021-08-12T04:09:00.471Z</time>
      </trkpt>
      <trkpt lat="42.04446" lon="44.95468">
        <ele>1209.41949</ele>
        <time>2021-08-12T04:09:34.423Z</time>
      </trkpt>
      <trkpt lat="42.04486" lon="44.95435">
        <ele>1209.498232</ele>
        <time>2021-08-12T04:09:50.394Z</time>
      </trkpt>
      <trkpt lat="42.04633" lon="44.95355">
        <ele>1210.780674</ele>
        <time>2021-08-12T04:10:44.612Z</time>
      </trkpt>
      <trkpt lat="42.04646" lon="44.9535">
        <ele>1211.33942</ele>
        <time>2021-08-12T04:10:49.896Z</time>
      </trkpt>
      <trkpt lat="42.04665" lon="44.95343">
        <ele>1212.145885</ele>
        <time>2021-08-12T04:10:58.537Z</time>
      </trkpt>
      <trkpt lat="42.04669" lon="44.95339">
        <ele>1212.358729</ele>
        <time>2021-08-12T04:11:00.521Z</time>
      </trkpt>
      <trkpt lat="42.04687" lon="44.95319">
        <ele>1213.283608</ele>
        <time>2021-08-12T04:11:10.969Z</time>
      </trkpt>
      <trkpt lat="42.04712" lon="44.95292">
        <ele>1214.596191</ele>
        <time>2021-08-12T04:11:27.249Z</time>
      </trkpt>
      <trkpt lat="42.04741" lon="44.95273">
        <ele>1215.877086</ele>
        <time>2021-08-12T04:11:45.481Z</time>
      </trkpt>
      <trkpt lat="42.04806" lon="44.95244">
        <ele>1220.2202</ele>
        <time>2021-08-12T04:12:33.576Z</time>
      </trkpt>
      <trkpt lat="42.04831" lon="44.95221">
        <ele>1223.398134</ele>
        <time>2021-08-12T04:12:59.119Z</time>
      </trkpt>
      <trkpt lat="42.04853" lon="44.95212">
        <ele>1225.848603</ele>
        <time>2021-08-12T04:13:20.213Z</time>
      </trkpt>
      <trkpt lat="42.0496" lon="44.95183">
        <ele>1237.43052</ele>
        <time>2021-08-12T04:15:08.842Z</time>
      </trkpt>
      <trkpt lat="42.04992" lon="44.95184">
        <ele>1240.766261</ele>
        <time>2021-08-12T04:15:42.302Z</time>
      </trkpt>
      <trkpt lat="42.05028" lon="44.95198">
        <ele>1244.554738</ele>
        <time>2021-08-12T04:16:19.000Z</time>
      </trkpt>
      <trkpt lat="42.05077" lon="44.95234">
        <ele>1250.227802</ele>
        <time>2021-08-12T04:17:09.397Z</time>
      </trkpt>
      <trkpt lat="42.05097" lon="44.95265">
        <ele>1253.322151</ele>
        <time>2021-08-12T04:17:34.130Z</time>
      </trkpt>
      <trkpt lat="42.05108" lon="44.95318">
        <ele>1255.822839</ele>
        <time>2021-08-12T04:18:03.825Z</time>
      </trkpt>
      <trkpt lat="42.05118" lon="44.95432">
        <ele>1258.257875</ele>
        <time>2021-08-12T04:18:44.307Z</time>
      </trkpt>
      <trkpt lat="42.05131" lon="44.95505">
        <ele>1259.862333</ele>
        <time>2021-08-12T04:19:05.328Z</time>
      </trkpt>
      <trkpt lat="42.05133" lon="44.95508">
        <ele>1259.938459</ele>
        <time>2021-08-12T04:19:05.940Z</time>
      </trkpt>
      <trkpt lat="42.05135" lon="44.95511">
        <ele>1260.02376</ele>
        <time>2021-08-12T04:19:06.498Z</time>
      </trkpt>
      <trkpt lat="42.05158" lon="44.95515">
        <ele>1260.325731</ele>
        <time>2021-08-12T04:19:14.749Z</time>
      </trkpt>
      <trkpt lat="42.05181" lon="44.9551">
        <ele>1260.354231</ele>
        <time>2021-08-12T04:19:20.517Z</time>
      </trkpt>
      <trkpt lat="42.05243" lon="44.95489">
        <ele>1260.43491</ele>
        <time>2021-08-12T04:19:37.799Z</time>
      </trkpt>
      <trkpt lat="42.05313" lon="44.95495">
        <ele>1260.52359</ele>
        <time>2021-08-12T04:20:01.346Z</time>
      </trkpt>
      <trkpt lat="42.05368" lon="44.95506">
        <ele>1262.120303</ele>
        <time>2021-08-12T04:20:26.041Z</time>
      </trkpt>
      <trkpt lat="42.05421" lon="44.95498">
        <ele>1263.962842</ele>
        <time>2021-08-12T04:20:52.913Z</time>
      </trkpt>
      <trkpt lat="42.05556" lon="44.95473">
        <ele>1269.168196</ele>
        <time>2021-08-12T04:22:09.722Z</time>
      </trkpt>
      <trkpt lat="42.05623" lon="44.95453">
        <ele>1272.208153</ele>
        <time>2021-08-12T04:22:49.870Z</time>
      </trkpt>
      <trkpt lat="42.05681" lon="44.95427">
        <ele>1274.817297</ele>
        <time>2021-08-12T04:23:22.959Z</time>
      </trkpt>
      <trkpt lat="42.05714" lon="44.95405">
        <ele>1275.812917</ele>
        <time>2021-08-12T04:23:41.533Z</time>
      </trkpt>
      <trkpt lat="42.05729" lon="44.95394">
        <ele>1276.254844</ele>
        <time>2021-08-12T04:23:49.830Z</time>
      </trkpt>
      <trkpt lat="42.05741" lon="44.95386">
        <ele>1276.62367</ele>
        <time>2021-08-12T04:23:56.132Z</time>
      </trkpt>
      <trkpt lat="42.05864" lon="44.95301">
        <ele>1280.046212</ele>
        <time>2021-08-12T04:24:56.286Z</time>
      </trkpt>
      <trkpt lat="42.05916" lon="44.95272">
        <ele>1281.029474</ele>
        <time>2021-08-12T04:25:17.713Z</time>
      </trkpt>
      <trkpt lat="42.06012" lon="44.95239">
        <ele>1282.826101</ele>
        <time>2021-08-12T04:25:56.826Z</time>
      </trkpt>
      <trkpt lat="42.06268" lon="44.95132">
        <ele>1291.356299</ele>
        <time>2021-08-12T04:28:02.588Z</time>
      </trkpt>
      <trkpt lat="42.06333" lon="44.95132">
        <ele>1294.096646</ele>
        <time>2021-08-12T04:28:43.226Z</time>
      </trkpt>
      <trkpt lat="42.06339" lon="44.95133">
        <ele>1294.369108</ele>
        <time>2021-08-12T04:28:47.549Z</time>
      </trkpt>
      <trkpt lat="42.06362" lon="44.95154">
        <ele>1295.586619</ele>
        <time>2021-08-12T04:29:05.779Z</time>
      </trkpt>
      <trkpt lat="42.06387" lon="44.95183">
        <ele>1297.047599</ele>
        <time>2021-08-12T04:29:27.124Z</time>
      </trkpt>
      <trkpt lat="42.0641" lon="44.95226">
        <ele>1298.783524</ele>
        <time>2021-08-12T04:29:51.642Z</time>
      </trkpt>
      <trkpt lat="42.06456" lon="44.95335">
        <ele>1302.883487</ele>
        <time>2021-08-12T04:30:42.781Z</time>
      </trkpt>
      <trkpt lat="42.06498" lon="44.95474">
        <ele>1302.158864</ele>
        <time>2021-08-12T04:31:16.081Z</time>
      </trkpt>
      <trkpt lat="42.06513" lon="44.95594">
        <ele>1301.156499</ele>
        <time>2021-08-12T04:31:37.301Z</time>
      </trkpt>
      <trkpt lat="42.06527" lon="44.95644">
        <ele>1300.124896</ele>
        <time>2021-08-12T04:31:46.561Z</time>
      </trkpt>
      <trkpt lat="42.0656" lon="44.95729">
        <ele>1298.313832</ele>
        <time>2021-08-12T04:32:03.062Z</time>
      </trkpt>
      <trkpt lat="42.06591" lon="44.95765">
        <ele>1297.268424</ele>
        <time>2021-08-12T04:32:12.951Z</time>
      </trkpt>
      <trkpt lat="42.06615" lon="44.95777">
        <ele>1296.800043</ele>
        <time>2021-08-12T04:32:19.301Z</time>
      </trkpt>
      <trkpt lat="42.06856" lon="44.9571">
        <ele>1291.68571</ele>
        <time>2021-08-12T04:33:22.656Z</time>
      </trkpt>
      <trkpt lat="42.06863" lon="44.95709">
        <ele>1291.48101</ele>
        <time>2021-08-12T04:33:24.182Z</time>
      </trkpt>
      <trkpt lat="42.06889" lon="44.95702">
        <ele>1290.686641</ele>
        <time>2021-08-12T04:33:30.006Z</time>
      </trkpt>
      <trkpt lat="42.06912" lon="44.95699">
        <ele>1289.973788</ele>
        <time>2021-08-12T04:33:35.204Z</time>
      </trkpt>
      <trkpt lat="42.06929" lon="44.9571">
        <ele>1289.410669</ele>
        <time>2021-08-12T04:33:39.259Z</time>
      </trkpt>
      <trkpt lat="42.06941" lon="44.9573">
        <ele>1288.841099</ele>
        <time>2021-08-12T04:33:43.367Z</time>
      </trkpt>
      <trkpt lat="42.06945" lon="44.95746">
        <ele>1288.195243</ele>
        <time>2021-08-12T04:33:46.049Z</time>
      </trkpt>
      <trkpt lat="42.06946" lon="44.95764">
        <ele>1287.50647</ele>
        <time>2021-08-12T04:33:48.823Z</time>
      </trkpt>
      <trkpt lat="42.06954" lon="44.95873">
        <ele>1283.32075</ele>
        <time>2021-08-12T04:34:06.014Z</time>
      </trkpt>
      <trkpt lat="42.06967" lon="44.95917">
        <ele>1281.509538</ele>
        <time>2021-08-12T04:34:13.318Z</time>
      </trkpt>
      <trkpt lat="42.06984" lon="44.95947">
        <ele>1280.100959</ele>
        <time>2021-08-12T04:34:18.867Z</time>
      </trkpt>
      <trkpt lat="42.07001" lon="44.95965">
        <ele>1278.960741</ele>
        <time>2021-08-12T04:34:23.717Z</time>
      </trkpt>
      <trkpt lat="42.07016" lon="44.95962">
        <ele>1278.17462</ele>
        <time>2021-08-12T04:34:27.044Z</time>
      </trkpt>
      <trkpt lat="42.07061" lon="44.95905">
        <ele>1274.913499</ele>
        <time>2021-08-12T04:34:40.623Z</time>
      </trkpt>
      <trkpt lat="42.07079" lon="44.95892">
        <ele>1273.902382</ele>
        <time>2021-08-12T04:34:44.716Z</time>
      </trkpt>
      <trkpt lat="42.07109" lon="44.95883">
        <ele>1272.282742</ele>
        <time>2021-08-12T04:34:51.198Z</time>
      </trkpt>
      <trkpt lat="42.0714" lon="44.95887">
        <ele>1270.633904</ele>
        <time>2021-08-12T04:34:57.652Z</time>
      </trkpt>
      <trkpt lat="42.07166" lon="44.95905">
        <ele>1268.538246</ele>
        <time>2021-08-12T04:35:03.425Z</time>
      </trkpt>
      <trkpt lat="42.07206" lon="44.95948">
        <ele>1264.295738</ele>
        <time>2021-08-12T04:35:13.723Z</time>
      </trkpt>
      <trkpt lat="42.07303" lon="44.95985">
        <ele>1255.975591</ele>
        <time>2021-08-12T04:35:33.306Z</time>
      </trkpt>
      <trkpt lat="42.07336" lon="44.96014">
        <ele>1251.865755</ele>
        <time>2021-08-12T04:35:40.817Z</time>
      </trkpt>
      <trkpt lat="42.07331" lon="44.96195">
        <ele>1237.303321</ele>
        <time>2021-08-12T04:36:06.066Z</time>
      </trkpt>
      <trkpt lat="42.07339" lon="44.96232">
        <ele>1234.232812</ele>
        <time>2021-08-12T04:36:11.414Z</time>
      </trkpt>
      <trkpt lat="42.07412" lon="44.96331">
        <ele>1223.153916</ele>
        <time>2021-08-12T04:36:30.907Z</time>
      </trkpt>
      <trkpt lat="42.07457" lon="44.96446">
        <ele>1213.531962</ele>
        <time>2021-08-12T04:36:49.442Z</time>
      </trkpt>
      <trkpt lat="42.07463" lon="44.96475">
        <ele>1211.612582</ele>
        <time>2021-08-12T04:36:53.722Z</time>
      </trkpt>
      <trkpt lat="42.07461" lon="44.9649">
        <ele>1210.628393</ele>
        <time>2021-08-12T04:36:55.920Z</time>
      </trkpt>
      <trkpt lat="42.07455" lon="44.96497">
        <ele>1209.962262</ele>
        <time>2021-08-12T04:36:57.415Z</time>
      </trkpt>
      <trkpt lat="42.07436" lon="44.96489">
        <ele>1208.255445</ele>
        <time>2021-08-12T04:37:01.247Z</time>
      </trkpt>
      <trkpt lat="42.07415" lon="44.96455">
        <ele>1205.389224</ele>
        <time>2021-08-12T04:37:07.725Z</time>
      </trkpt>
      <trkpt lat="42.0736" lon="44.96444">
        <ele>1200.55214</ele>
        <time>2021-08-12T04:37:18.666Z</time>
      </trkpt>
      <trkpt lat="42.07334" lon="44.96454">
        <ele>1198.253261</ele>
        <time>2021-08-12T04:37:23.984Z</time>
      </trkpt>
      <trkpt lat="42.07326" lon="44.96469">
        <ele>1197.121832</ele>
        <time>2021-08-12T04:37:26.584Z</time>
      </trkpt>
      <trkpt lat="42.07328" lon="44.96484">
        <ele>1196.186608</ele>
        <time>2021-08-12T04:37:28.749Z</time>
      </trkpt>
      <trkpt lat="42.07365" lon="44.96516">
        <ele>1192.423467</ele>
        <time>2021-08-12T04:37:37.409Z</time>
      </trkpt>
      <trkpt lat="42.07378" lon="44.96561">
        <ele>1189.395748</ele>
        <time>2021-08-12T04:37:44.362Z</time>
      </trkpt>
      <trkpt lat="42.07378" lon="44.96581">
        <ele>1188.150342</ele>
        <time>2021-08-12T04:37:47.225Z</time>
      </trkpt>
      <trkpt lat="42.07366" lon="44.96608">
        <ele>1186.15181</ele>
        <time>2021-08-12T04:37:51.801Z</time>
      </trkpt>
      <trkpt lat="42.07286" lon="44.9664">
        <ele>1179.05027</ele>
        <time>2021-08-12T04:38:07.878Z</time>
      </trkpt>
      <trkpt lat="42.07234" lon="44.96675">
        <ele>1174.080255</ele>
        <time>2021-08-12T04:38:19.147Z</time>
      </trkpt>
      <trkpt lat="42.07189" lon="44.96681">
        <ele>1170.230037</ele>
        <time>2021-08-12T04:38:27.962Z</time>
      </trkpt>
      <trkpt lat="42.07148" lon="44.96677">
        <ele>1166.948489</ele>
        <time>2021-08-12T04:38:35.962Z</time>
      </trkpt>
      <trkpt lat="42.07116" lon="44.96699">
        <ele>1164.063005</ele>
        <time>2021-08-12T04:38:43.012Z</time>
      </trkpt>
      <trkpt lat="42.07065" lon="44.96758">
        <ele>1158.66033</ele>
        <time>2021-08-12T04:38:56.219Z</time>
      </trkpt>
      <trkpt lat="42.07065" lon="44.96778">
        <ele>1157.454861</ele>
        <time>2021-08-12T04:38:59.170Z</time>
      </trkpt>
      <trkpt lat="42.07078" lon="44.96796">
        <ele>1155.979549</ele>
        <time>2021-08-12T04:39:02.781Z</time>
      </trkpt>
      <trkpt lat="42.07111" lon="44.96813">
        <ele>1153.330926</ele>
        <time>2021-08-12T04:39:09.679Z</time>
      </trkpt>
      <trkpt lat="42.07138" lon="44.96841">
        <ele>1150.69994</ele>
        <time>2021-08-12T04:39:16.533Z</time>
      </trkpt>
      <trkpt lat="42.07251" lon="44.96984">
        <ele>1139.772305</ele>
        <time>2021-08-12T04:39:47.338Z</time>
      </trkpt>
      <trkpt lat="42.0726" lon="44.9701">
        <ele>1138.571165</ele>
        <time>2021-08-12T04:39:51.648Z</time>
      </trkpt>
      <trkpt lat="42.07261" lon="44.97049">
        <ele>1136.905591</ele>
        <time>2021-08-12T04:39:57.628Z</time>
      </trkpt>
      <trkpt lat="42.07252" lon="44.97139">
        <ele>1132.993085</ele>
        <time>2021-08-12T04:40:12.080Z</time>
      </trkpt>
      <trkpt lat="42.0726" lon="44.97149">
        <ele>1132.369681</ele>
        <time>2021-08-12T04:40:14.487Z</time>
      </trkpt>
      <trkpt lat="42.07266" lon="44.9715">
        <ele>1132.047879</ele>
        <time>2021-08-12T04:40:15.539Z</time>
      </trkpt>
      <trkpt lat="42.0727" lon="44.97151">
        <ele>1131.857973</ele>
        <time>2021-08-12T04:40:17.366Z</time>
      </trkpt>
      <trkpt lat="42.07277" lon="44.97152">
        <ele>1131.555909</ele>
        <time>2021-08-12T04:40:19.018Z</time>
      </trkpt>
      <trkpt lat="42.07296" lon="44.97135">
        <ele>1130.611055</ele>
        <time>2021-08-12T04:40:23.902Z</time>
      </trkpt>
      <trkpt lat="42.07318" lon="44.97102">
        <ele>1129.276823</ele>
        <time>2021-08-12T04:40:31.377Z</time>
      </trkpt>
      <trkpt lat="42.07359" lon="44.97019">
        <ele>1126.214927</ele>
        <time>2021-08-12T04:40:47.669Z</time>
      </trkpt>
      <trkpt lat="42.07373" lon="44.9701">
        <ele>1125.57299</ele>
        <time>2021-08-12T04:40:51.201Z</time>
      </trkpt>
      <trkpt lat="42.07387" lon="44.97009">
        <ele>1124.998878</ele>
        <time>2021-08-12T04:40:54.290Z</time>
      </trkpt>
      <trkpt lat="42.07415" lon="44.97056">
        <ele>1122.533424</ele>
        <time>2021-08-12T04:41:03.907Z</time>
      </trkpt>
      <trkpt lat="42.07429" lon="44.97068">
        <ele>1121.54433</ele>
        <time>2021-08-12T04:41:07.411Z</time>
      </trkpt>
      <trkpt lat="42.07452" lon="44.97059">
        <ele>1120.152468</ele>
        <time>2021-08-12T04:41:12.326Z</time>
      </trkpt>
      <trkpt lat="42.07476" lon="44.97028">
        <ele>1118.204952</ele>
        <time>2021-08-12T04:41:19.117Z</time>
      </trkpt>
      <trkpt lat="42.0749" lon="44.97025">
        <ele>1117.358437</ele>
        <time>2021-08-12T04:41:22.046Z</time>
      </trkpt>
      <trkpt lat="42.07529" lon="44.97054">
        <ele>1114.724304</ele>
        <time>2021-08-12T04:41:31.028Z</time>
      </trkpt>
      <trkpt lat="42.076" lon="44.97071">
        <ele>1109.459757</ele>
        <time>2021-08-12T04:41:45.345Z</time>
      </trkpt>
      <trkpt lat="42.0763" lon="44.97073">
        <ele>1107.226652</ele>
        <time>2021-08-12T04:41:51.175Z</time>
      </trkpt>
      <trkpt lat="42.0774" lon="44.97042">
        <ele>1098.860083</ele>
        <time>2021-08-12T04:42:13.291Z</time>
      </trkpt>
      <trkpt lat="42.07829" lon="44.97032">
        <ele>1092.783692</ele>
        <time>2021-08-12T04:42:30.964Z</time>
      </trkpt>
      <trkpt lat="42.07885" lon="44.97039">
        <ele>1088.976578</ele>
        <time>2021-08-12T04:42:42.478Z</time>
      </trkpt>
      <trkpt lat="42.07914" lon="44.97043">
        <ele>1087.902801</ele>
        <time>2021-08-12T04:42:48.709Z</time>
      </trkpt>
      <trkpt lat="42.07927" lon="44.97043">
        <ele>1087.700347</ele>
        <time>2021-08-12T04:42:51.606Z</time>
      </trkpt>
      <trkpt lat="42.0794" lon="44.97043">
        <ele>1087.502519</ele>
        <time>2021-08-12T04:42:54.552Z</time>
      </trkpt>
      <trkpt lat="42.07963" lon="44.97038">
        <ele>1087.13456</ele>
        <time>2021-08-12T04:43:00.060Z</time>
      </trkpt>
      <trkpt lat="42.07972" lon="44.9703">
        <ele>1086.971037</ele>
        <time>2021-08-12T04:43:02.646Z</time>
      </trkpt>
      <trkpt lat="42.07989" lon="44.97013">
        <ele>1086.650277</ele>
        <time>2021-08-12T04:43:07.724Z</time>
      </trkpt>
      <trkpt lat="42.08092" lon="44.96907">
        <ele>1086.052301</ele>
        <time>2021-08-12T04:43:54.616Z</time>
      </trkpt>
      <trkpt lat="42.08129" lon="44.96877">
        <ele>1086.630574</ele>
        <time>2021-08-12T04:44:12.968Z</time>
      </trkpt>
      <trkpt lat="42.08269" lon="44.96814">
        <ele>1088.031031</ele>
        <time>2021-08-12T04:45:10.401Z</time>
      </trkpt>
      <trkpt lat="42.08526" lon="44.9672">
        <ele>1087.742735</ele>
        <time>2021-08-12T04:46:30.276Z</time>
      </trkpt>
      <trkpt lat="42.08585" lon="44.9671">
        <ele>1087.436799</ele>
        <time>2021-08-12T04:46:45.561Z</time>
      </trkpt>
      <trkpt lat="42.086" lon="44.96708">
        <ele>1087.358167</ele>
        <time>2021-08-12T04:46:49.407Z</time>
      </trkpt>
      <trkpt lat="42.08607" lon="44.96707">
        <ele>1087.321749</ele>
        <time>2021-08-12T04:46:51.030Z</time>
      </trkpt>
      <trkpt lat="42.08627" lon="44.96714">
        <ele>1087.210248</ele>
        <time>2021-08-12T04:46:57.323Z</time>
      </trkpt>
      <trkpt lat="42.08639" lon="44.96735">
        <ele>1087.107976</ele>
        <time>2021-08-12T04:47:02.225Z</time>
      </trkpt>
      <trkpt lat="42.08661" lon="44.9678">
        <ele>1086.897028</ele>
        <time>2021-08-12T04:47:13.659Z</time>
      </trkpt>
      <trkpt lat="42.08686" lon="44.9683">
        <ele>1086.660383</ele>
        <time>2021-08-12T04:47:27.391Z</time>
      </trkpt>
      <trkpt lat="42.08843" lon="44.96782">
        <ele>1089.192521</ele>
        <time>2021-08-12T04:48:33.776Z</time>
      </trkpt>
      <trkpt lat="42.08977" lon="44.96695">
        <ele>1091.819301</ele>
        <time>2021-08-12T04:49:38.400Z</time>
      </trkpt>
      <trkpt lat="42.09019" lon="44.96681">
        <ele>1092.601742</ele>
        <time>2021-08-12T04:49:55.270Z</time>
      </trkpt>
      <trkpt lat="42.09083" lon="44.96683">
        <ele>1092.853518</ele>
        <time>2021-08-12T04:50:17.901Z</time>
      </trkpt>
      <trkpt lat="42.09171" lon="44.96697">
        <ele>1092.86718</ele>
        <time>2021-08-12T04:50:44.654Z</time>
      </trkpt>
      <trkpt lat="42.0927" lon="44.96717">
        <ele>1092.302519</ele>
        <time>2021-08-12T04:51:11.846Z</time>
      </trkpt>
      <trkpt lat="42.09348" lon="44.96742">
        <ele>1091.5231</ele>
        <time>2021-08-12T04:51:33.323Z</time>
      </trkpt>
      <trkpt lat="42.09373" lon="44.96744">
        <ele>1091.279701</ele>
        <time>2021-08-12T04:51:40.073Z</time>
      </trkpt>
      <trkpt lat="42.09423" lon="44.96748">
        <ele>1090.993661</ele>
        <time>2021-08-12T04:51:53.430Z</time>
      </trkpt>
      <trkpt lat="42.09605" lon="44.96746">
        <ele>1090.687614</ele>
        <time>2021-08-12T04:52:47.703Z</time>
      </trkpt>
      <trkpt lat="42.09707" lon="44.96745">
        <ele>1091.481255</ele>
        <time>2021-08-12T04:53:24.894Z</time>
      </trkpt>
      <trkpt lat="42.09864" lon="44.96743">
        <ele>1093.280658</ele>
        <time>2021-08-12T04:54:25.951Z</time>
      </trkpt>
      <trkpt lat="42.1002" lon="44.96739">
        <ele>1095.179852</ele>
        <time>2021-08-12T04:55:23.896Z</time>
      </trkpt>
      <trkpt lat="42.10022" lon="44.96739">
        <ele>1095.205914</ele>
        <time>2021-08-12T04:55:24.746Z</time>
      </trkpt>
      <trkpt lat="42.10049" lon="44.96739">
        <ele>1095.516156</ele>
        <time>2021-08-12T04:55:34.243Z</time>
      </trkpt>
      <trkpt lat="42.1022" lon="44.96743">
        <ele>1097.994157</ele>
        <time>2021-08-12T04:56:41.763Z</time>
      </trkpt>
      <trkpt lat="42.10254" lon="44.96744">
        <ele>1098.528612</ele>
        <time>2021-08-12T04:56:56.105Z</time>
      </trkpt>
      <trkpt lat="42.10265" lon="44.96744">
        <ele>1098.70727</ele>
        <time>2021-08-12T04:57:00.630Z</time>
      </trkpt>
      <trkpt lat="42.10327" lon="44.96745">
        <ele>1099.424126</ele>
        <time>2021-08-12T04:57:25.523Z</time>
      </trkpt>
      <trkpt lat="42.10395" lon="44.96758">
        <ele>1100.066895</ele>
        <time>2021-08-12T04:57:51.931Z</time>
      </trkpt>
      <trkpt lat="42.10533" lon="44.96774">
        <ele>1100.534464</ele>
        <time>2021-08-12T04:58:36.454Z</time>
      </trkpt>
      <trkpt lat="42.10577" lon="44.96771">
        <ele>1100.402135</ele>
        <time>2021-08-12T04:58:48.815Z</time>
      </trkpt>
      <trkpt lat="42.10577" lon="44.96771">
        <ele>1100.402135</ele>
        <time>2021-08-12T04:58:48.821Z</time>
      </trkpt>
      <trkpt lat="42.10577" lon="44.96797">
        <ele>1100.344011</ele>
        <time>2021-08-12T04:58:54.537Z</time>
      </trkpt>
      <trkpt lat="42.10571" lon="44.96908">
        <ele>1100.088</ele>
        <time>2021-08-12T04:59:19.369Z</time>
      </trkpt>
      <trkpt lat="42.10571" lon="44.96996">
        <ele>1099.874962</ele>
        <time>2021-08-12T04:59:39.342Z</time>
      </trkpt>
      <trkpt lat="42.10617" lon="44.97007">
        <ele>1099.720595</ele>
        <time>2021-08-12T04:59:53.248Z</time>
      </trkpt>
      <trkpt lat="42.1064" lon="44.97013">
        <ele>1099.644067</ele>
        <time>2021-08-12T04:59:59.961Z</time>
      </trkpt>
      <trkpt lat="42.10687" lon="44.97022">
        <ele>1099.684557</ele>
        <time>2021-08-12T05:00:14.552Z</time>
      </trkpt>
      <trkpt lat="42.10675" lon="44.97035">
        <ele>1099.718502</ele>
        <time>2021-08-12T05:00:19.507Z</time>
      </trkpt>
      <trkpt lat="42.10666" lon="44.97055">
        <ele>1099.757795</ele>
        <time>2021-08-12T05:00:25.131Z</time>
      </trkpt>
      <trkpt lat="42.10656" lon="44.97077">
        <ele>1099.800519</ele>
        <time>2021-08-12T05:00:31.611Z</time>
      </trkpt>
      <trkpt lat="42.10637" lon="44.97135">
        <ele>1099.905756</ele>
        <time>2021-08-12T05:00:47.284Z</time>
      </trkpt>
      <trkpt lat="42.10613" lon="44.9721">
        <ele>1100.001702</ele>
        <time>2021-08-12T05:01:07.753Z</time>
      </trkpt>
      <trkpt lat="42.1057" lon="44.97346">
        <ele>1099.946289</ele>
        <time>2021-08-12T05:01:42.608Z</time>
      </trkpt>
      <trkpt lat="42.10553" lon="44.97398">
        <ele>1099.925102</ele>
        <time>2021-08-12T05:01:54.796Z</time>
      </trkpt>
      <trkpt lat="42.10495" lon="44.9758">
        <ele>1099.456447</ele>
        <time>2021-08-12T05:02:37.181Z</time>
      </trkpt>
      <trkpt lat="42.10491" lon="44.97591">
        <ele>1099.426688</ele>
        <time>2021-08-12T05:02:39.724Z</time>
      </trkpt>
      <trkpt lat="42.10484" lon="44.97612">
        <ele>1099.367463</ele>
        <time>2021-08-12T05:02:44.803Z</time>
      </trkpt>
      <trkpt lat="42.1045" lon="44.97714">
        <ele>1099.249139</ele>
        <time>2021-08-12T05:03:10.920Z</time>
      </trkpt>
      <trkpt lat="42.10443" lon="44.97731">
        <ele>1099.237355</ele>
        <time>2021-08-12T05:03:15.474Z</time>
      </trkpt>
      <trkpt lat="42.10438" lon="44.97746">
        <ele>1099.228028</ele>
        <time>2021-08-12T05:03:19.241Z</time>
      </trkpt>
      <trkpt lat="42.10392" lon="44.97882">
        <ele>1099.018032</ele>
        <time>2021-08-12T05:03:53.799Z</time>
      </trkpt>
      <trkpt lat="42.10351" lon="44.98011">
        <ele>1098.298062</ele>
        <time>2021-08-12T05:04:22.014Z</time>
      </trkpt>
      <trkpt lat="42.10329" lon="44.98065">
        <ele>1097.980169</ele>
        <time>2021-08-12T05:04:34.898Z</time>
      </trkpt>
      <trkpt lat="42.10325" lon="44.9808">
        <ele>1097.909712</ele>
        <time>2021-08-12T05:04:38.213Z</time>
      </trkpt>
      <trkpt lat="42.1031" lon="44.98126">
        <ele>1097.805556</ele>
        <time>2021-08-12T05:04:49.034Z</time>
      </trkpt>
      <trkpt lat="42.10305" lon="44.98142">
        <ele>1097.768981</ele>
        <time>2021-08-12T05:04:52.884Z</time>
      </trkpt>
      <trkpt lat="42.10301" lon="44.98156">
        <ele>1097.73654</ele>
        <time>2021-08-12T05:04:56.449Z</time>
      </trkpt>
      <trkpt lat="42.10287" lon="44.98189">
        <ele>1097.657617</ele>
        <time>2021-08-12T05:05:05.120Z</time>
      </trkpt>
      <trkpt lat="42.10275" lon="44.98222">
        <ele>1097.580292</ele>
        <time>2021-08-12T05:05:13.587Z</time>
      </trkpt>
      <trkpt lat="42.10263" lon="44.98252">
        <ele>1097.509585</ele>
        <time>2021-08-12T05:05:21.061Z</time>
      </trkpt>
      <trkpt lat="42.10253" lon="44.98277">
        <ele>1097.449513</ele>
        <time>2021-08-12T05:05:27.411Z</time>
      </trkpt>
      <trkpt lat="42.10227" lon="44.98335">
        <ele>1097.268471</ele>
        <time>2021-08-12T05:05:41.967Z</time>
      </trkpt>
      <trkpt lat="42.10217" lon="44.98362">
        <ele>1097.181745</ele>
        <time>2021-08-12T05:05:48.426Z</time>
      </trkpt>
      <trkpt lat="42.10192" lon="44.98429">
        <ele>1096.96242</ele>
        <time>2021-08-12T05:06:04.610Z</time>
      </trkpt>
      <trkpt lat="42.10176" lon="44.98475">
        <ele>1096.815479</ele>
        <time>2021-08-12T05:06:15.584Z</time>
      </trkpt>
      <trkpt lat="42.10151" lon="44.98534">
        <ele>1096.773237</ele>
        <time>2021-08-12T05:06:30.562Z</time>
      </trkpt>
      <trkpt lat="42.10129" lon="44.98585">
        <ele>1096.910898</ele>
        <time>2021-08-12T05:06:43.697Z</time>
      </trkpt>
      <trkpt lat="42.10115" lon="44.98602">
        <ele>1096.971514</ele>
        <time>2021-08-12T05:06:49.741Z</time>
      </trkpt>
      <trkpt lat="42.10096" lon="44.98625">
        <ele>1097.051943</ele>
        <time>2021-08-12T05:06:58.137Z</time>
      </trkpt>
      <trkpt lat="42.10044" lon="44.98687">
        <ele>1097.270365</ele>
        <time>2021-08-12T05:07:22.737Z</time>
      </trkpt>
      <trkpt lat="42.09982" lon="44.9876">
        <ele>1098.318608</ele>
        <time>2021-08-12T05:07:55.158Z</time>
      </trkpt>
      <trkpt lat="42.09949" lon="44.98798">
        <ele>1098.868334</ele>
        <time>2021-08-12T05:08:11.802Z</time>
      </trkpt>
      <trkpt lat="42.0991" lon="44.98847">
        <ele>1099.54311</ele>
        <time>2021-08-12T05:08:32.127Z</time>
      </trkpt>
      <trkpt lat="42.09836" lon="44.9894">
        <ele>1100.5812</ele>
        <time>2021-08-12T05:09:09.997Z</time>
      </trkpt>
      <trkpt lat="42.09729" lon="44.99061">
        <ele>1102.17052</ele>
        <time>2021-08-12T05:10:00.588Z</time>
      </trkpt>
      <trkpt lat="42.0968" lon="44.99126">
        <ele>1103.044885</ele>
        <time>2021-08-12T05:10:26.676Z</time>
      </trkpt>
      <trkpt lat="42.09532" lon="44.99322">
        <ele>1106.181475</ele>
        <time>2021-08-12T05:11:51.340Z</time>
      </trkpt>
      <trkpt lat="42.09425" lon="44.9946">
        <ele>1107.511567</ele>
        <time>2021-08-12T05:12:45.790Z</time>
      </trkpt>
      <trkpt lat="42.09264" lon="44.99681">
        <ele>1108.137699</ele>
        <time>2021-08-12T05:13:59.186Z</time>
      </trkpt>
      <trkpt lat="42.0924" lon="44.99714">
        <ele>1108.1921</ele>
        <time>2021-08-12T05:14:09.723Z</time>
      </trkpt>
      <trkpt lat="42.09134" lon="44.99869">
        <ele>1108.492822</ele>
        <time>2021-08-12T05:14:59.511Z</time>
      </trkpt>
      <trkpt lat="42.08978" lon="45.00121">
        <ele>1111.343664</ele>
        <time>2021-08-12T05:16:27.533Z</time>
      </trkpt>
      <trkpt lat="42.08617" lon="45.00786">
        <ele>1125.17539</ele>
        <time>2021-08-12T05:20:55.850Z</time>
      </trkpt>
      <trkpt lat="42.08592" lon="45.00848">
        <ele>1127.022164</ele>
        <time>2021-08-12T05:21:24.570Z</time>
      </trkpt>
      <trkpt lat="42.08568" lon="45.00928">
        <ele>1130.46158</ele>
        <time>2021-08-12T05:22:02.160Z</time>
      </trkpt>
      <trkpt lat="42.08548" lon="45.01041">
        <ele>1135.111324</ele>
        <time>2021-08-12T05:22:58.070Z</time>
      </trkpt>
      <trkpt lat="42.08542" lon="45.01184">
        <ele>1141.349766</ele>
        <time>2021-08-12T05:24:09.434Z</time>
      </trkpt>
      <trkpt lat="42.08526" lon="45.01262">
        <ele>1144.877395</ele>
        <time>2021-08-12T05:24:47.911Z</time>
      </trkpt>
      <trkpt lat="42.08492" lon="45.01387">
        <ele>1149.580279</ele>
        <time>2021-08-12T05:25:47.175Z</time>
      </trkpt>
      <trkpt lat="42.08487" lon="45.01445">
        <ele>1151.416793</ele>
        <time>2021-08-12T05:26:11.206Z</time>
      </trkpt>
      <trkpt lat="42.08486" lon="45.01696">
        <ele>1157.329718</ele>
        <time>2021-08-12T05:27:42.579Z</time>
      </trkpt>
      <trkpt lat="42.08499" lon="45.01784">
        <ele>1158.827861</ele>
        <time>2021-08-12T05:28:10.078Z</time>
      </trkpt>
      <trkpt lat="42.08519" lon="45.01861">
        <ele>1157.922864</ele>
        <time>2021-08-12T05:28:31.586Z</time>
      </trkpt>
      <trkpt lat="42.08546" lon="45.02024">
        <ele>1155.67321</ele>
        <time>2021-08-12T05:29:00.563Z</time>
      </trkpt>
      <trkpt lat="42.08554" lon="45.0204">
        <ele>1154.851627</ele>
        <time>2021-08-12T05:29:03.886Z</time>
      </trkpt>
      <trkpt lat="42.08567" lon="45.02054">
        <ele>1153.993277</ele>
        <time>2021-08-12T05:29:07.186Z</time>
      </trkpt>
      <trkpt lat="42.08602" lon="45.02061">
        <ele>1152.073728</ele>
        <time>2021-08-12T05:29:20.637Z</time>
      </trkpt>
      <trkpt lat="42.08632" lon="45.02062">
        <ele>1150.434281</ele>
        <time>2021-08-12T05:29:31.942Z</time>
      </trkpt>
      <trkpt lat="42.0865" lon="45.0207">
        <ele>1149.407006</ele>
        <time>2021-08-12T05:29:38.983Z</time>
      </trkpt>
      <trkpt lat="42.0874" lon="45.0215">
        <ele>1143.624459</ele>
        <time>2021-08-12T05:30:18.635Z</time>
      </trkpt>
      <trkpt lat="42.08747" lon="45.02167">
        <ele>1142.869389</ele>
        <time>2021-08-12T05:30:24.086Z</time>
      </trkpt>
      <trkpt lat="42.08766" lon="45.02256">
        <ele>1139.252051</ele>
        <time>2021-08-12T05:30:50.431Z</time>
      </trkpt>
      <trkpt lat="42.08794" lon="45.02342">
        <ele>1136.119216</ele>
        <time>2021-08-12T05:31:18.011Z</time>
      </trkpt>
      <trkpt lat="42.08811" lon="45.02369">
        <ele>1135.281735</ele>
        <time>2021-08-12T05:31:28.711Z</time>
      </trkpt>
      <trkpt lat="42.08825" lon="45.02378">
        <ele>1134.78898</ele>
        <time>2021-08-12T05:31:35.036Z</time>
      </trkpt>
      <trkpt lat="42.08862" lon="45.02373">
        <ele>1133.620946</ele>
        <time>2021-08-12T05:31:50.383Z</time>
      </trkpt>
      <trkpt lat="42.089" lon="45.02359">
        <ele>1132.344315</ele>
        <time>2021-08-12T05:32:07.454Z</time>
      </trkpt>
      <trkpt lat="42.08978" lon="45.02371">
        <ele>1130.532747</ele>
        <time>2021-08-12T05:32:41.417Z</time>
      </trkpt>
      <trkpt lat="42.08984" lon="45.02378">
        <ele>1130.414018</ele>
        <time>2021-08-12T05:32:44.286Z</time>
      </trkpt>
      <trkpt lat="42.0899" lon="45.02402">
        <ele>1130.109002</ele>
        <time>2021-08-12T05:32:53.250Z</time>
      </trkpt>
      <trkpt lat="42.08991" lon="45.02425">
        <ele>1129.825407</ele>
        <time>2021-08-12T05:33:00.625Z</time>
      </trkpt>
      <trkpt lat="42.08986" lon="45.02444">
        <ele>1129.58769</ele>
        <time>2021-08-12T05:33:07.778Z</time>
      </trkpt>
      <trkpt lat="42.08974" lon="45.02458">
        <ele>1129.32409</ele>
        <time>2021-08-12T05:33:15.056Z</time>
      </trkpt>
      <trkpt lat="42.08883" lon="45.02515">
        <ele>1128.345791</ele>
        <time>2021-08-12T05:34:02.203Z</time>
      </trkpt>
      <trkpt lat="42.08871" lon="45.02528">
        <ele>1128.354892</ele>
        <time>2021-08-12T05:34:09.742Z</time>
      </trkpt>
      <trkpt lat="42.0885" lon="45.0265">
        <ele>1128.408846</ele>
        <time>2021-08-12T05:34:58.789Z</time>
      </trkpt>
      <trkpt lat="42.08842" lon="45.0267">
        <ele>1128.418479</ele>
        <time>2021-08-12T05:35:08.369Z</time>
      </trkpt>
      <trkpt lat="42.08808" lon="45.02715">
        <ele>1128.925835</ele>
        <time>2021-08-12T05:35:37.156Z</time>
      </trkpt>
      <trkpt lat="42.08794" lon="45.02772">
        <ele>1129.627438</ele>
        <time>2021-08-12T05:36:05.219Z</time>
      </trkpt>
      <trkpt lat="42.08765" lon="45.02801">
        <ele>1130.194346</ele>
        <time>2021-08-12T05:36:27.988Z</time>
      </trkpt>
      <trkpt lat="42.08734" lon="45.02817">
        <ele>1130.725516</ele>
        <time>2021-08-12T05:36:49.080Z</time>
      </trkpt>
      <trkpt lat="42.08723" lon="45.02837">
        <ele>1131.009647</ele>
        <time>2021-08-12T05:37:00.229Z</time>
      </trkpt>
      <trkpt lat="42.08719" lon="45.02927">
        <ele>1130.49484</ele>
        <time>2021-08-12T05:37:38.832Z</time>
      </trkpt>
      <trkpt lat="42.08697" lon="45.02972">
        <ele>1129.892575</ele>
        <time>2021-08-12T05:37:58.781Z</time>
      </trkpt>
      <trkpt lat="42.08683" lon="45.02989">
        <ele>1129.602857</ele>
        <time>2021-08-12T05:38:07.432Z</time>
      </trkpt>
      <trkpt lat="42.08636" lon="45.0302">
        <ele>1128.828936</ele>
        <time>2021-08-12T05:38:28.994Z</time>
      </trkpt>
      <trkpt lat="42.08588" lon="45.03025">
        <ele>1126.423437</ele>
        <time>2021-08-12T05:38:47.530Z</time>
      </trkpt>
      <trkpt lat="42.08571" lon="45.03033">
        <ele>1125.178994</ele>
        <time>2021-08-12T05:38:54.118Z</time>
      </trkpt>
      <trkpt lat="42.08539" lon="45.03067">
        <ele>1122.313336</ele>
        <time>2021-08-12T05:39:08.942Z</time>
      </trkpt>
      <trkpt lat="42.08532" lon="45.03095">
        <ele>1120.756308</ele>
        <time>2021-08-12T05:39:16.888Z</time>
      </trkpt>
      <trkpt lat="42.08527" lon="45.03178">
        <ele>1116.431546</ele>
        <time>2021-08-12T05:39:38.688Z</time>
      </trkpt>
      <trkpt lat="42.08539" lon="45.03245">
        <ele>1112.822016</ele>
        <time>2021-08-12T05:39:56.790Z</time>
      </trkpt>
      <trkpt lat="42.08586" lon="45.03338">
        <ele>1106.980124</ele>
        <time>2021-08-12T05:40:26.775Z</time>
      </trkpt>
      <trkpt lat="42.08586" lon="45.03346">
        <ele>1106.529646</ele>
        <time>2021-08-12T05:40:29.151Z</time>
      </trkpt>
      <trkpt lat="42.08571" lon="45.03352">
        <ele>1105.477873</ele>
        <time>2021-08-12T05:40:34.681Z</time>
      </trkpt>
      <trkpt lat="42.08507" lon="45.03309">
        <ele>1101.414079</ele>
        <time>2021-08-12T05:41:02.258Z</time>
      </trkpt>
      <trkpt lat="42.08482" lon="45.03286">
        <ele>1100.051881</ele>
        <time>2021-08-12T05:41:14.020Z</time>
      </trkpt>
      <trkpt lat="42.0845" lon="45.03231">
        <ele>1097.656753</ele>
        <time>2021-08-12T05:41:34.942Z</time>
      </trkpt>
      <trkpt lat="42.08438" lon="45.03221">
        <ele>1097.024745</ele>
        <time>2021-08-12T05:41:40.529Z</time>
      </trkpt>
      <trkpt lat="42.0842" lon="45.0322">
        <ele>1096.19118</ele>
        <time>2021-08-12T05:41:47.680Z</time>
      </trkpt>
      <trkpt lat="42.084" lon="45.03239">
        <ele>1095.082527</ele>
        <time>2021-08-12T05:41:57.107Z</time>
      </trkpt>
      <trkpt lat="42.08358" lon="45.0331">
        <ele>1090.576868</ele>
        <time>2021-08-12T05:42:22.607Z</time>
      </trkpt>
      <trkpt lat="42.08359" lon="45.03319">
        <ele>1090.105037</ele>
        <time>2021-08-12T05:42:25.158Z</time>
      </trkpt>
      <trkpt lat="42.0837" lon="45.03323">
        <ele>1089.366722</ele>
        <time>2021-08-12T05:42:29.148Z</time>
      </trkpt>
      <trkpt lat="42.08398" lon="45.03299">
        <ele>1087.080828</ele>
        <time>2021-08-12T05:42:41.436Z</time>
      </trkpt>
      <trkpt lat="42.08415" lon="45.03295">
        <ele>1085.93781</ele>
        <time>2021-08-12T05:42:47.496Z</time>
      </trkpt>
      <trkpt lat="42.08437" lon="45.03305">
        <ele>1084.414343</ele>
        <time>2021-08-12T05:42:55.547Z</time>
      </trkpt>
      <trkpt lat="42.08443" lon="45.03316">
        <ele>1083.745601</ele>
        <time>2021-08-12T05:42:59.061Z</time>
      </trkpt>
      <trkpt lat="42.0846" lon="45.03403">
        <ele>1079.102299</ele>
        <time>2021-08-12T05:43:22.822Z</time>
      </trkpt>
      <trkpt lat="42.08468" lon="45.03465">
        <ele>1075.831812</ele>
        <time>2021-08-12T05:43:39.656Z</time>
      </trkpt>
      <trkpt lat="42.08483" lon="45.03505">
        <ele>1073.502938</ele>
        <time>2021-08-12T05:43:51.872Z</time>
      </trkpt>
      <trkpt lat="42.08494" lon="45.0352">
        <ele>1072.38355</ele>
        <time>2021-08-12T05:43:57.855Z</time>
      </trkpt>
      <trkpt lat="42.08518" lon="45.0353">
        <ele>1070.666029</ele>
        <time>2021-08-12T05:44:07.148Z</time>
      </trkpt>
      <trkpt lat="42.08522" lon="45.03537">
        <ele>1070.218402</ele>
        <time>2021-08-12T05:44:09.683Z</time>
      </trkpt>
      <trkpt lat="42.08518" lon="45.03547">
        <ele>1069.725022</ele>
        <time>2021-08-12T05:44:12.791Z</time>
      </trkpt>
      <trkpt lat="42.08504" lon="45.03548">
        <ele>1068.863207</ele>
        <time>2021-08-12T05:44:18.260Z</time>
      </trkpt>
      <trkpt lat="42.08439" lon="45.03513">
        <ele>1064.611692</ele>
        <time>2021-08-12T05:44:45.356Z</time>
      </trkpt>
      <trkpt lat="42.08429" lon="45.03514">
        <ele>1064.047726</ele>
        <time>2021-08-12T05:44:48.919Z</time>
      </trkpt>
      <trkpt lat="42.08417" lon="45.03527">
        <ele>1063.067802</ele>
        <time>2021-08-12T05:44:54.996Z</time>
      </trkpt>
      <trkpt lat="42.08415" lon="45.03548">
        <ele>1062.097723</ele>
        <time>2021-08-12T05:45:01.053Z</time>
      </trkpt>
      <trkpt lat="42.0844" lon="45.03599">
        <ele>1059.33977</ele>
        <time>2021-08-12T05:45:17.483Z</time>
      </trkpt>
      <trkpt lat="42.08446" lon="45.03623">
        <ele>1057.346494</ele>
        <time>2021-08-12T05:45:24.264Z</time>
      </trkpt>
      <trkpt lat="42.08446" lon="45.03728">
        <ele>1049.080597</ele>
        <time>2021-08-12T05:45:50.477Z</time>
      </trkpt>
      <trkpt lat="42.08438" lon="45.03824">
        <ele>1041.485838</ele>
        <time>2021-08-12T05:46:14.573Z</time>
      </trkpt>
      <trkpt lat="42.0843" lon="45.0387">
        <ele>1038.698165</ele>
        <time>2021-08-12T05:46:26.472Z</time>
      </trkpt>
      <trkpt lat="42.08424" lon="45.03879">
        <ele>1038.100004</ele>
        <time>2021-08-12T05:46:29.426Z</time>
      </trkpt>
      <trkpt lat="42.08416" lon="45.03884">
        <ele>1037.498142</ele>
        <time>2021-08-12T05:46:32.486Z</time>
      </trkpt>
      <trkpt lat="42.08366" lon="45.0388">
        <ele>1034.022484</ele>
        <time>2021-08-12T05:46:50.302Z</time>
      </trkpt>
      <trkpt lat="42.0833" lon="45.0386">
        <ele>1031.361706</ele>
        <time>2021-08-12T05:47:04.501Z</time>
      </trkpt>
      <trkpt lat="42.08298" lon="45.03854">
        <ele>1029.119362</ele>
        <time>2021-08-12T05:47:16.963Z</time>
      </trkpt>
      <trkpt lat="42.08245" lon="45.0386">
        <ele>1029.302953</ele>
        <time>2021-08-12T05:47:43.776Z</time>
      </trkpt>
      <trkpt lat="42.08243" lon="45.03872">
        <ele>1029.610145</ele>
        <time>2021-08-12T05:47:48.988Z</time>
      </trkpt>
      <trkpt lat="42.08255" lon="45.03882">
        <ele>1030.093009</ele>
        <time>2021-08-12T05:47:58.445Z</time>
      </trkpt>
      <trkpt lat="42.08294" lon="45.03879">
        <ele>1031.432718</ele>
        <time>2021-08-12T05:48:26.438Z</time>
      </trkpt>
      <trkpt lat="42.08313" lon="45.03891">
        <ele>1032.141697</ele>
        <time>2021-08-12T05:48:42.638Z</time>
      </trkpt>
      <trkpt lat="42.08324" lon="45.03911">
        <ele>1032.755615</ele>
        <time>2021-08-12T05:48:58.156Z</time>
      </trkpt>
      <trkpt lat="42.08332" lon="45.03939">
        <ele>1033.523409</ele>
        <time>2021-08-12T05:49:17.732Z</time>
      </trkpt>
      <trkpt lat="42.08333" lon="45.03945">
        <ele>1033.684896</ele>
        <time>2021-08-12T05:49:22.468Z</time>
      </trkpt>
      <trkpt lat="42.0835" lon="45.03968">
        <ele>1035.033556</ele>
        <time>2021-08-12T05:49:44.250Z</time>
      </trkpt>
      <trkpt lat="42.08426" lon="45.04015">
        <ele>1042.699224</ele>
        <time>2021-08-12T05:51:11.253Z</time>
      </trkpt>
      <trkpt lat="42.08437" lon="45.04026">
        <ele>1043.946085</ele>
        <time>2021-08-12T05:51:28.327Z</time>
      </trkpt>
      <trkpt lat="42.08454" lon="45.04098">
        <ele>1049.030097</ele>
        <time>2021-08-12T05:52:28.723Z</time>
      </trkpt>
      <trkpt lat="42.085" lon="45.04146">
        <ele>1053.111782</ele>
        <time>2021-08-12T05:53:27.863Z</time>
      </trkpt>
      <trkpt lat="42.08499" lon="45.04155">
        <ele>1053.562295</ele>
        <time>2021-08-12T05:53:33.805Z</time>
      </trkpt>
      <trkpt lat="42.08493" lon="45.0416">
        <ele>1053.9673</ele>
        <time>2021-08-12T05:53:39.300Z</time>
      </trkpt>
      <trkpt lat="42.08484" lon="45.04159">
        <ele>1054.536789</ele>
        <time>2021-08-12T05:53:50.548Z</time>
      </trkpt>
      <trkpt lat="42.08403" lon="45.041">
        <ele>1060.152755</ele>
        <time>2021-08-12T05:55:01.936Z</time>
      </trkpt>
      <trkpt lat="42.08393" lon="45.04092">
        <ele>1060.861128</ele>
        <time>2021-08-12T05:55:11.979Z</time>
      </trkpt>
      <trkpt lat="42.0837" lon="45.04088">
        <ele>1062.144231</ele>
        <time>2021-08-12T05:55:28.387Z</time>
      </trkpt>
      <trkpt lat="42.08342" lon="45.04103">
        <ele>1063.62324</ele>
        <time>2021-08-12T05:55:51.560Z</time>
      </trkpt>
      <trkpt lat="42.08299" lon="45.0411">
        <ele>1065.751127</ele>
        <time>2021-08-12T05:56:20.574Z</time>
      </trkpt>
      <trkpt lat="42.08291" lon="45.04117">
        <ele>1066.185225</ele>
        <time>2021-08-12T05:56:27.296Z</time>
      </trkpt>
      <trkpt lat="42.08282" lon="45.0414">
        <ele>1067.140785</ele>
        <time>2021-08-12T05:56:42.533Z</time>
      </trkpt>
      <trkpt lat="42.08285" lon="45.04157">
        <ele>1067.747082</ele>
        <time>2021-08-12T05:56:52.578Z</time>
      </trkpt>
      <trkpt lat="42.08302" lon="45.04185">
        <ele>1069.080124</ele>
        <time>2021-08-12T05:57:16.174Z</time>
      </trkpt>
      <trkpt lat="42.08312" lon="45.04217">
        <ele>1070.319155</ele>
        <time>2021-08-12T05:57:39.243Z</time>
      </trkpt>
      <trkpt lat="42.08311" lon="45.04283">
        <ele>1074.180638</ele>
        <time>2021-08-12T05:58:25.511Z</time>
      </trkpt>
      <trkpt lat="42.08307" lon="45.043">
        <ele>1075.219301</ele>
        <time>2021-08-12T05:58:38.199Z</time>
      </trkpt>
      <trkpt lat="42.08299" lon="45.04307">
        <ele>1075.978131</ele>
        <time>2021-08-12T05:58:47.500Z</time>
      </trkpt>
      <trkpt lat="42.08262" lon="45.04308">
        <ele>1078.869553</ele>
        <time>2021-08-12T05:59:22.992Z</time>
      </trkpt>
      <trkpt lat="42.08202" lon="45.04325">
        <ele>1083.775533</ele>
        <time>2021-08-12T06:00:24.273Z</time>
      </trkpt>
      <trkpt lat="42.08155" lon="45.04367">
        <ele>1088.531353</ele>
        <time>2021-08-12T06:01:20.814Z</time>
      </trkpt>
      <trkpt lat="42.0813" lon="45.04402">
        <ele>1091.575085</ele>
        <time>2021-08-12T06:01:56.376Z</time>
      </trkpt>
      <trkpt lat="42.08139" lon="45.04415">
        <ele>1092.680838</ele>
        <time>2021-08-12T06:02:09.284Z</time>
      </trkpt>
      <trkpt lat="42.08158" lon="45.04401">
        <ele>1094.527984</ele>
        <time>2021-08-12T06:02:30.747Z</time>
      </trkpt>
      <trkpt lat="42.0817" lon="45.04397">
        <ele>1095.583585</ele>
        <time>2021-08-12T06:02:43.067Z</time>
      </trkpt>
      <trkpt lat="42.08185" lon="45.04401">
        <ele>1096.911767</ele>
        <time>2021-08-12T06:02:58.597Z</time>
      </trkpt>
      <trkpt lat="42.0821" lon="45.0442">
        <ele>1099.366258</ele>
        <time>2021-08-12T06:03:27.344Z</time>
      </trkpt>
      <trkpt lat="42.08237" lon="45.04427">
        <ele>1101.802817</ele>
        <time>2021-08-12T06:03:54.867Z</time>
      </trkpt>
      <trkpt lat="42.08262" lon="45.04458">
        <ele>1104.792923</ele>
        <time>2021-08-12T06:04:29.242Z</time>
      </trkpt>
      <trkpt lat="42.08281" lon="45.04525">
        <ele>1109.615245</ele>
        <time>2021-08-12T06:05:25.900Z</time>
      </trkpt>
      <trkpt lat="42.08298" lon="45.04557">
        <ele>1112.200012</ele>
        <time>2021-08-12T06:05:55.963Z</time>
      </trkpt>
      <trkpt lat="42.08301" lon="45.04574">
        <ele>1113.322835</ele>
        <time>2021-08-12T06:06:08.878Z</time>
      </trkpt>
      <trkpt lat="42.083" lon="45.04595">
        <ele>1114.711159</ele>
        <time>2021-08-12T06:06:24.568Z</time>
      </trkpt>
      <trkpt lat="42.08279" lon="45.0466">
        <ele>1118.605553</ele>
        <time>2021-08-12T06:07:17.158Z</time>
      </trkpt>
      <trkpt lat="42.08287" lon="45.047">
        <ele>1120.711488</ele>
        <time>2021-08-12T06:07:46.498Z</time>
      </trkpt>
      <trkpt lat="42.08301" lon="45.04743">
        <ele>1123.113381</ele>
        <time>2021-08-12T06:08:18.487Z</time>
      </trkpt>
      <trkpt lat="42.08302" lon="45.04773">
        <ele>1124.595727</ele>
        <time>2021-08-12T06:08:37.242Z</time>
      </trkpt>
      <trkpt lat="42.08297" lon="45.0479">
        <ele>1125.543414</ele>
        <time>2021-08-12T06:08:49.544Z</time>
      </trkpt>
      <trkpt lat="42.0829" lon="45.04798">
        <ele>1126.128624</ele>
        <time>2021-08-12T06:08:56.841Z</time>
      </trkpt>
      <trkpt lat="42.08277" lon="45.04798">
        <ele>1127.039222</ele>
        <time>2021-08-12T06:09:07.822Z</time>
      </trkpt>
      <trkpt lat="42.08262" lon="45.04789">
        <ele>1128.131775</ele>
        <time>2021-08-12T06:09:21.210Z</time>
      </trkpt>
      <trkpt lat="42.08244" lon="45.04745">
        <ele>1129.889055</ele>
        <time>2021-08-12T06:09:49.690Z</time>
      </trkpt>
      <trkpt lat="42.08235" lon="45.04706">
        <ele>1131.313402</ele>
        <time>2021-08-12T06:10:11.986Z</time>
      </trkpt>
      <trkpt lat="42.08228" lon="45.04635">
        <ele>1133.781439</ele>
        <time>2021-08-12T06:10:51.362Z</time>
      </trkpt>
      <trkpt lat="42.08219" lon="45.0462">
        <ele>1134.416914</ele>
        <time>2021-08-12T06:11:01.750Z</time>
      </trkpt>
      <trkpt lat="42.08209" lon="45.04613">
        <ele>1134.955483</ele>
        <time>2021-08-12T06:11:10.749Z</time>
      </trkpt>
      <trkpt lat="42.08171" lon="45.04603">
        <ele>1136.863875</ele>
        <time>2021-08-12T06:11:42.013Z</time>
      </trkpt>
      <trkpt lat="42.08155" lon="45.04602">
        <ele>1137.983019</ele>
        <time>2021-08-12T06:11:54.977Z</time>
      </trkpt>
      <trkpt lat="42.08139" lon="45.04609">
        <ele>1139.221039</ele>
        <time>2021-08-12T06:12:09.670Z</time>
      </trkpt>
      <trkpt lat="42.08049" lon="45.04695">
        <ele>1147.12857</ele>
        <time>2021-08-12T06:13:52.492Z</time>
      </trkpt>
      <trkpt lat="42.07997" lon="45.04764">
        <ele>1151.973239</ele>
        <time>2021-08-12T06:15:06.726Z</time>
      </trkpt>
      <trkpt lat="42.07987" lon="45.04785">
        <ele>1153.152439</ele>
        <time>2021-08-12T06:15:25.402Z</time>
      </trkpt>
      <trkpt lat="42.07956" lon="45.04806">
        <ele>1155.291686</ele>
        <time>2021-08-12T06:15:57.518Z</time>
      </trkpt>
      <trkpt lat="42.07941" lon="45.04787">
        <ele>1156.568318</ele>
        <time>2021-08-12T06:16:15.346Z</time>
      </trkpt>
      <trkpt lat="42.07925" lon="45.0474">
        <ele>1158.903917</ele>
        <time>2021-08-12T06:16:45.352Z</time>
      </trkpt>
      <trkpt lat="42.07917" lon="45.04728">
        <ele>1159.652722</ele>
        <time>2021-08-12T06:16:54.295Z</time>
      </trkpt>
      <trkpt lat="42.07898" lon="45.04721">
        <ele>1160.639004</ele>
        <time>2021-08-12T06:17:07.988Z</time>
      </trkpt>
      <trkpt lat="42.07851" lon="45.04732">
        <ele>1160.623469</ele>
        <time>2021-08-12T06:17:38.457Z</time>
      </trkpt>
      <trkpt lat="42.07824" lon="45.04726">
        <ele>1160.614573</ele>
        <time>2021-08-12T06:17:53.340Z</time>
      </trkpt>
      <trkpt lat="42.07795" lon="45.04706">
        <ele>1160.603876</ele>
        <time>2021-08-12T06:18:09.308Z</time>
      </trkpt>
      <trkpt lat="42.0779" lon="45.04682">
        <ele>1160.597919</ele>
        <time>2021-08-12T06:18:17.706Z</time>
      </trkpt>
      <trkpt lat="42.07797" lon="45.04639">
        <ele>1160.587388</ele>
        <time>2021-08-12T06:18:31.833Z</time>
      </trkpt>
      <trkpt lat="42.07795" lon="45.04606">
        <ele>1160.467951</ele>
        <time>2021-08-12T06:18:42.058Z</time>
      </trkpt>
      <trkpt lat="42.07786" lon="45.04594">
        <ele>1160.272141</ele>
        <time>2021-08-12T06:18:47.183Z</time>
      </trkpt>
      <trkpt lat="42.07767" lon="45.04598">
        <ele>1159.962118</ele>
        <time>2021-08-12T06:18:55.147Z</time>
      </trkpt>
      <trkpt lat="42.07683" lon="45.04746">
        <ele>1157.736935</ele>
        <time>2021-08-12T06:19:57.283Z</time>
      </trkpt>
      <trkpt lat="42.07645" lon="45.0485">
        <ele>1159.597422</ele>
        <time>2021-08-12T06:20:46.995Z</time>
      </trkpt>
      <trkpt lat="42.07615" lon="45.04905">
        <ele>1160.74724</ele>
        <time>2021-08-12T06:21:21.363Z</time>
      </trkpt>
      <trkpt lat="42.07607" lon="45.04929">
        <ele>1161.189543</ele>
        <time>2021-08-12T06:21:35.780Z</time>
      </trkpt>
      <trkpt lat="42.07609" lon="45.04952">
        <ele>1161.580462</ele>
        <time>2021-08-12T06:21:49.166Z</time>
      </trkpt>
      <trkpt lat="42.07616" lon="45.04968">
        <ele>1162.05182</ele>
        <time>2021-08-12T06:22:00.507Z</time>
      </trkpt>
      <trkpt lat="42.07663" lon="45.05051">
        <ele>1166.279499</ele>
        <time>2021-08-12T06:23:05.484Z</time>
      </trkpt>
      <trkpt lat="42.07663" lon="45.05078">
        <ele>1167.399244</ele>
        <time>2021-08-12T06:23:23.128Z</time>
      </trkpt>
      <trkpt lat="42.07653" lon="45.05099">
        <ele>1168.421132</ele>
        <time>2021-08-12T06:23:39.117Z</time>
      </trkpt>
      <trkpt lat="42.07615" lon="45.05138">
        <ele>1171.031845</ele>
        <time>2021-08-12T06:24:19.097Z</time>
      </trkpt>
      <trkpt lat="42.0757" lon="45.05156">
        <ele>1173.044073</ele>
        <time>2021-08-12T06:24:56.429Z</time>
      </trkpt>
      <trkpt lat="42.07547" lon="45.05175">
        <ele>1174.114674</ele>
        <time>2021-08-12T06:25:17.696Z</time>
      </trkpt>
      <trkpt lat="42.07526" lon="45.05206">
        <ele>1175.365313</ele>
        <time>2021-08-12T06:25:41.975Z</time>
      </trkpt>
      <trkpt lat="42.07503" lon="45.05274">
        <ele>1177.542149</ele>
        <time>2021-08-12T06:26:21.975Z</time>
      </trkpt>
      <trkpt lat="42.07481" lon="45.05298">
        <ele>1178.669515</ele>
        <time>2021-08-12T06:26:41.363Z</time>
      </trkpt>
      <trkpt lat="42.07409" lon="45.05344">
        <ele>1179.478964</ele>
        <time>2021-08-12T06:27:29.233Z</time>
      </trkpt>
      <trkpt lat="42.07336" lon="45.0537">
        <ele>1180.161876</ele>
        <time>2021-08-12T06:28:10.106Z</time>
      </trkpt>
      <trkpt lat="42.07309" lon="45.05391">
        <ele>1180.364435</ele>
        <time>2021-08-12T06:28:26.063Z</time>
      </trkpt>
      <trkpt lat="42.07261" lon="45.0545">
        <ele>1179.438802</ele>
        <time>2021-08-12T06:28:58.174Z</time>
      </trkpt>
      <trkpt lat="42.0716" lon="45.05592">
        <ele>1176.566148</ele>
        <time>2021-08-12T06:30:02.346Z</time>
      </trkpt>
      <trkpt lat="42.071" lon="45.05631">
        <ele>1174.039825</ele>
        <time>2021-08-12T06:30:29.813Z</time>
      </trkpt>
      <trkpt lat="42.0709" lon="45.05651">
        <ele>1173.379766</ele>
        <time>2021-08-12T06:30:36.716Z</time>
      </trkpt>
      <trkpt lat="42.07059" lon="45.05753">
        <ele>1169.987071</ele>
        <time>2021-08-12T06:31:08.131Z</time>
      </trkpt>
      <trkpt lat="42.07002" lon="45.05853">
        <ele>1165.032339</ele>
        <time>2021-08-12T06:31:43.812Z</time>
      </trkpt>
      <trkpt lat="42.06967" lon="45.0588">
        <ele>1162.89045</ele>
        <time>2021-08-12T06:31:59.298Z</time>
      </trkpt>
      <trkpt lat="42.06933" lon="45.05949">
        <ele>1159.047778</ele>
        <time>2021-08-12T06:32:22.631Z</time>
      </trkpt>
      <trkpt lat="42.06914" lon="45.05968">
        <ele>1157.411444</ele>
        <time>2021-08-12T06:32:31.582Z</time>
      </trkpt>
      <trkpt lat="42.06875" lon="45.05991">
        <ele>1154.507752</ele>
        <time>2021-08-12T06:32:47.286Z</time>
      </trkpt>
      <trkpt lat="42.06836" lon="45.06038">
        <ele>1150.892354</ele>
        <time>2021-08-12T06:33:06.289Z</time>
      </trkpt>
      <trkpt lat="42.06821" lon="45.06071">
        <ele>1148.736226</ele>
        <time>2021-08-12T06:33:16.266Z</time>
      </trkpt>
      <trkpt lat="42.06822" lon="45.06124">
        <ele>1143.816604</ele>
        <time>2021-08-12T06:33:29.905Z</time>
      </trkpt>
      <trkpt lat="42.0675" lon="45.06298">
        <ele>1125.019777</ele>
        <time>2021-08-12T06:34:18.875Z</time>
      </trkpt>
      <trkpt lat="42.06711" lon="45.06423">
        <ele>1110.185305</ele>
        <time>2021-08-12T06:34:50.793Z</time>
      </trkpt>
      <trkpt lat="42.06678" lon="45.06489">
        <ele>1101.371617</ele>
        <time>2021-08-12T06:35:10.357Z</time>
      </trkpt>
      <trkpt lat="42.06671" lon="45.06494">
        <ele>1100.24362</ele>
        <time>2021-08-12T06:35:13.039Z</time>
      </trkpt>
      <trkpt lat="42.06662" lon="45.06495">
        <ele>1099.658828</ele>
        <time>2021-08-12T06:35:15.881Z</time>
      </trkpt>
      <trkpt lat="42.06652" lon="45.06488">
        <ele>1099.040513</ele>
        <time>2021-08-12T06:35:20.034Z</time>
      </trkpt>
      <trkpt lat="42.06635" lon="45.06457">
        <ele>1097.512041</ele>
        <time>2021-08-12T06:35:29.759Z</time>
      </trkpt>
      <trkpt lat="42.06582" lon="45.06217">
        <ele>1089.689418</ele>
        <time>2021-08-12T06:36:49.197Z</time>
      </trkpt>
      <trkpt lat="42.06556" lon="45.06138">
        <ele>1088.756983</ele>
        <time>2021-08-12T06:37:23.371Z</time>
      </trkpt>
      <trkpt lat="42.0655" lon="45.06085">
        <ele>1088.180637</ele>
        <time>2021-08-12T06:37:42.040Z</time>
      </trkpt>
      <trkpt lat="42.06536" lon="45.06059">
        <ele>1087.789459</ele>
        <time>2021-08-12T06:37:52.509Z</time>
      </trkpt>
      <trkpt lat="42.06472" lon="45.06031">
        <ele>1084.814651</ele>
        <time>2021-08-12T06:38:20.543Z</time>
      </trkpt>
      <trkpt lat="42.06448" lon="45.06026">
        <ele>1083.764251</ele>
        <time>2021-08-12T06:38:29.871Z</time>
      </trkpt>
      <trkpt lat="42.06433" lon="45.06034">
        <ele>1083.071617</ele>
        <time>2021-08-12T06:38:35.917Z</time>
      </trkpt>
      <trkpt lat="42.06396" lon="45.06105">
        <ele>1080.228797</ele>
        <time>2021-08-12T06:39:00.040Z</time>
      </trkpt>
      <trkpt lat="42.06375" lon="45.06124">
        <ele>1078.901962</ele>
        <time>2021-08-12T06:39:09.156Z</time>
      </trkpt>
      <trkpt lat="42.06349" lon="45.06123">
        <ele>1077.404151</ele>
        <time>2021-08-12T06:39:18.903Z</time>
      </trkpt>
      <trkpt lat="42.06332" lon="45.06102">
        <ele>1076.096403</ele>
        <time>2021-08-12T06:39:27.520Z</time>
      </trkpt>
      <trkpt lat="42.0632" lon="45.06074">
        <ele>1074.701613</ele>
        <time>2021-08-12T06:39:36.704Z</time>
      </trkpt>
      <trkpt lat="42.06308" lon="45.06013">
        <ele>1072.00554</ele>
        <time>2021-08-12T06:39:54.517Z</time>
      </trkpt>
      <trkpt lat="42.06291" lon="45.0599">
        <ele>1070.617014</ele>
        <time>2021-08-12T06:40:03.625Z</time>
      </trkpt>
      <trkpt lat="42.06277" lon="45.05982">
        <ele>1069.782985</ele>
        <time>2021-08-12T06:40:09.076Z</time>
      </trkpt>
      <trkpt lat="42.06241" lon="45.05979">
        <ele>1067.878464</ele>
        <time>2021-08-12T06:40:22.831Z</time>
      </trkpt>
      <trkpt lat="42.06218" lon="45.0599">
        <ele>1066.655126</ele>
        <time>2021-08-12T06:40:31.893Z</time>
      </trkpt>
      <trkpt lat="42.06216" lon="45.06007">
        <ele>1066.004452</ele>
        <time>2021-08-12T06:40:36.762Z</time>
      </trkpt>
      <trkpt lat="42.06223" lon="45.06022">
        <ele>1065.350299</ele>
        <time>2021-08-12T06:40:41.701Z</time>
      </trkpt>
      <trkpt lat="42.06267" lon="45.06048">
        <ele>1062.888074</ele>
        <time>2021-08-12T06:41:00.362Z</time>
      </trkpt>
      <trkpt lat="42.06275" lon="45.06064">
        <ele>1062.149661</ele>
        <time>2021-08-12T06:41:05.948Z</time>
      </trkpt>
      <trkpt lat="42.06283" lon="45.06103">
        <ele>1060.574628</ele>
        <time>2021-08-12T06:41:17.762Z</time>
      </trkpt>
      <trkpt lat="42.06309" lon="45.06185">
        <ele>1056.997751</ele>
        <time>2021-08-12T06:41:43.006Z</time>
      </trkpt>
      <trkpt lat="42.0632" lon="45.06205">
        <ele>1055.991233</ele>
        <time>2021-08-12T06:41:50.133Z</time>
      </trkpt>
      <trkpt lat="42.06326" lon="45.06244">
        <ele>1054.37949</ele>
        <time>2021-08-12T06:42:01.632Z</time>
      </trkpt>
      <trkpt lat="42.06331" lon="45.06254">
        <ele>1053.892407</ele>
        <time>2021-08-12T06:42:04.899Z</time>
      </trkpt>
      <trkpt lat="42.06351" lon="45.06265">
        <ele>1052.717827</ele>
        <time>2021-08-12T06:42:12.945Z</time>
      </trkpt>
      <trkpt lat="42.06371" lon="45.06257">
        <ele>1051.570621</ele>
        <time>2021-08-12T06:42:20.787Z</time>
      </trkpt>
      <trkpt lat="42.06389" lon="45.06243">
        <ele>1050.403133</ele>
        <time>2021-08-12T06:42:28.637Z</time>
      </trkpt>
      <trkpt lat="42.06417" lon="45.06239">
        <ele>1048.614994</ele>
        <time>2021-08-12T06:42:38.987Z</time>
      </trkpt>
      <trkpt lat="42.06423" lon="45.06247">
        <ele>1048.094119</ele>
        <time>2021-08-12T06:42:41.985Z</time>
      </trkpt>
      <trkpt lat="42.06429" lon="45.06271">
        <ele>1046.88622</ele>
        <time>2021-08-12T06:42:48.841Z</time>
      </trkpt>
      <trkpt lat="42.06428" lon="45.06292">
        <ele>1045.884247</ele>
        <time>2021-08-12T06:42:54.733Z</time>
      </trkpt>
      <trkpt lat="42.06427" lon="45.0631">
        <ele>1045.021997</ele>
        <time>2021-08-12T06:42:59.527Z</time>
      </trkpt>
      <trkpt lat="42.06438" lon="45.06339">
        <ele>1043.427902</ele>
        <time>2021-08-12T06:43:08.812Z</time>
      </trkpt>
      <trkpt lat="42.06454" lon="45.06365">
        <ele>1041.879857</ele>
        <time>2021-08-12T06:43:17.641Z</time>
      </trkpt>
      <trkpt lat="42.0647" lon="45.06415">
        <ele>1039.249279</ele>
        <time>2021-08-12T06:43:32.836Z</time>
      </trkpt>
      <trkpt lat="42.06476" lon="45.06423">
        <ele>1038.762489</ele>
        <time>2021-08-12T06:43:35.879Z</time>
      </trkpt>
      <trkpt lat="42.06477" lon="45.06424">
        <ele>1038.671876</ele>
        <time>2021-08-12T06:43:36.402Z</time>
      </trkpt>
      <trkpt lat="42.06507" lon="45.06438">
        <ele>1036.882705</ele>
        <time>2021-08-12T06:43:48.296Z</time>
      </trkpt>
      <trkpt lat="42.0651" lon="45.06444">
        <ele>1036.58067</ele>
        <time>2021-08-12T06:43:50.158Z</time>
      </trkpt>
      <trkpt lat="42.06508" lon="45.06456">
        <ele>1036.089015</ele>
        <time>2021-08-12T06:43:53.333Z</time>
      </trkpt>
      <trkpt lat="42.06502" lon="45.06457">
        <ele>1035.739145</ele>
        <time>2021-08-12T06:43:55.473Z</time>
      </trkpt>
      <trkpt lat="42.06478" lon="45.06442">
        <ele>1034.244502</ele>
        <time>2021-08-12T06:44:05.565Z</time>
      </trkpt>
      <trkpt lat="42.0643" lon="45.06425">
        <ele>1031.502477</ele>
        <time>2021-08-12T06:44:24.070Z</time>
      </trkpt>
      <trkpt lat="42.06377" lon="45.06428">
        <ele>1028.609052</ele>
        <time>2021-08-12T06:44:45.335Z</time>
      </trkpt>
      <trkpt lat="42.0637" lon="45.06424">
        <ele>1028.328232</ele>
        <time>2021-08-12T06:44:48.143Z</time>
      </trkpt>
      <trkpt lat="42.06363" lon="45.06416">
        <ele>1027.966932</ele>
        <time>2021-08-12T06:44:51.383Z</time>
      </trkpt>
      <trkpt lat="42.06356" lon="45.06389">
        <ele>1027.12201</ele>
        <time>2021-08-12T06:45:00.204Z</time>
      </trkpt>
      <trkpt lat="42.06345" lon="45.06372">
        <ele>1026.424754</ele>
        <time>2021-08-12T06:45:06.862Z</time>
      </trkpt>
      <trkpt lat="42.06313" lon="45.06373">
        <ele>1025.152886</ele>
        <time>2021-08-12T06:45:19.574Z</time>
      </trkpt>
      <trkpt lat="42.0629" lon="45.06353">
        <ele>1024.061459</ele>
        <time>2021-08-12T06:45:31.001Z</time>
      </trkpt>
      <trkpt lat="42.06249" lon="45.06346">
        <ele>1022.408126</ele>
        <time>2021-08-12T06:45:47.379Z</time>
      </trkpt>
      <trkpt lat="42.0623" lon="45.06353">
        <ele>1021.644369</ele>
        <time>2021-08-12T06:45:55.136Z</time>
      </trkpt>
      <trkpt lat="42.06179" lon="45.06389">
        <ele>1019.49659</ele>
        <time>2021-08-12T06:46:18.628Z</time>
      </trkpt>
      <trkpt lat="42.06152" lon="45.06398">
        <ele>1018.427765</ele>
        <time>2021-08-12T06:46:30.225Z</time>
      </trkpt>
      <trkpt lat="42.06132" lon="45.06396">
        <ele>1017.69535</ele>
        <time>2021-08-12T06:46:38.154Z</time>
      </trkpt>
      <trkpt lat="42.06104" lon="45.0637">
        <ele>1016.43531</ele>
        <time>2021-08-12T06:46:51.765Z</time>
      </trkpt>
      <trkpt lat="42.06065" lon="45.06392">
        <ele>1014.836067</ele>
        <time>2021-08-12T06:47:08.631Z</time>
      </trkpt>
      <trkpt lat="42.06028" lon="45.06377">
        <ele>1013.266723</ele>
        <time>2021-08-12T06:47:23.953Z</time>
      </trkpt>
      <trkpt lat="42.06015" lon="45.06388">
        <ele>1012.645416</ele>
        <time>2021-08-12T06:47:30.000Z</time>
      </trkpt>
      <trkpt lat="42.05997" lon="45.06442">
        <ele>1010.858085</ele>
        <time>2021-08-12T06:47:47.345Z</time>
      </trkpt>
      <trkpt lat="42.05984" lon="45.06449">
        <ele>1010.312909</ele>
        <time>2021-08-12T06:47:52.679Z</time>
      </trkpt>
      <trkpt lat="42.05962" lon="45.06436">
        <ele>1009.316993</ele>
        <time>2021-08-12T06:48:02.490Z</time>
      </trkpt>
      <trkpt lat="42.05947" lon="45.06437">
        <ele>1008.717561</ele>
        <time>2021-08-12T06:48:08.446Z</time>
      </trkpt>
      <trkpt lat="42.05908" lon="45.06515">
        <ele>1006.364597</ele>
        <time>2021-08-12T06:48:36.680Z</time>
      </trkpt>
      <trkpt lat="42.05893" lon="45.06533">
        <ele>1005.754683</ele>
        <time>2021-08-12T06:48:44.929Z</time>
      </trkpt>
      <trkpt lat="42.05875" lon="45.06544">
        <ele>1005.130148</ele>
        <time>2021-08-12T06:48:53.437Z</time>
      </trkpt>
      <trkpt lat="42.05818" lon="45.06548">
        <ele>1003.404163</ele>
        <time>2021-08-12T06:49:17.496Z</time>
      </trkpt>
      <trkpt lat="42.05761" lon="45.0656">
        <ele>1001.551472</ele>
        <time>2021-08-12T06:49:41.972Z</time>
      </trkpt>
      <trkpt lat="42.0568" lon="45.06595">
        <ele>998.600885</ele>
        <time>2021-08-12T06:50:17.753Z</time>
      </trkpt>
      <trkpt lat="42.05677" lon="45.06617">
        <ele>998.026635</ele>
        <time>2021-08-12T06:50:24.571Z</time>
      </trkpt>
      <trkpt lat="42.05677" lon="45.06622">
        <ele>997.897316</ele>
        <time>2021-08-12T06:50:25.942Z</time>
      </trkpt>
      <trkpt lat="42.05679" lon="45.06675">
        <ele>996.518648</ele>
        <time>2021-08-12T06:50:41.775Z</time>
      </trkpt>
      <trkpt lat="42.05659" lon="45.06747">
        <ele>993.416381</ele>
        <time>2021-08-12T06:51:03.842Z</time>
      </trkpt>
      <trkpt lat="42.05641" lon="45.06834">
        <ele>989.337647</ele>
        <time>2021-08-12T06:51:28.620Z</time>
      </trkpt>
      <trkpt lat="42.0563" lon="45.0685">
        <ele>988.371226</ele>
        <time>2021-08-12T06:51:34.481Z</time>
      </trkpt>
      <trkpt lat="42.0561" lon="45.0686">
        <ele>987.080947</ele>
        <time>2021-08-12T06:51:42.297Z</time>
      </trkpt>
      <trkpt lat="42.05545" lon="45.06877">
        <ele>982.719985</ele>
        <time>2021-08-12T06:52:06.390Z</time>
      </trkpt>
      <trkpt lat="42.05537" lon="45.06908">
        <ele>980.960561</ele>
        <time>2021-08-12T06:52:15.358Z</time>
      </trkpt>
      <trkpt lat="42.05538" lon="45.06924">
        <ele>980.1335</ele>
        <time>2021-08-12T06:52:19.569Z</time>
      </trkpt>
      <trkpt lat="42.05532" lon="45.06963">
        <ele>978.008795</ele>
        <time>2021-08-12T06:52:30.363Z</time>
      </trkpt>
      <trkpt lat="42.05501" lon="45.07044">
        <ele>973.212264</ele>
        <time>2021-08-12T06:52:54.844Z</time>
      </trkpt>
      <trkpt lat="42.05486" lon="45.07068">
        <ele>971.619381</ele>
        <time>2021-08-12T06:53:03.352Z</time>
      </trkpt>
      <trkpt lat="42.0545" lon="45.07065">
        <ele>969.290957</ele>
        <time>2021-08-12T06:53:16.430Z</time>
      </trkpt>
      <trkpt lat="42.05443" lon="45.07078">
        <ele>968.485988</ele>
        <time>2021-08-12T06:53:20.960Z</time>
      </trkpt>
      <trkpt lat="42.0542" lon="45.07153">
        <ele>964.537046</ele>
        <time>2021-08-12T06:53:43.193Z</time>
      </trkpt>
      <trkpt lat="42.05406" lon="45.07165">
        <ele>963.449715</ele>
        <time>2021-08-12T06:53:49.292Z</time>
      </trkpt>
      <trkpt lat="42.05391" lon="45.07169">
        <ele>962.460021</ele>
        <time>2021-08-12T06:53:54.872Z</time>
      </trkpt>
      <trkpt lat="42.05375" lon="45.07185">
        <ele>961.171516</ele>
        <time>2021-08-12T06:54:02.113Z</time>
      </trkpt>
      <trkpt lat="42.05353" lon="45.07253">
        <ele>957.485579</ele>
        <time>2021-08-12T06:54:22.630Z</time>
      </trkpt>
      <trkpt lat="42.0535" lon="45.07283">
        <ele>955.977434</ele>
        <time>2021-08-12T06:54:30.965Z</time>
      </trkpt>
      <trkpt lat="42.05354" lon="45.07307">
        <ele>954.788132</ele>
        <time>2021-08-12T06:54:37.532Z</time>
      </trkpt>
      <trkpt lat="42.05375" lon="45.07346">
        <ele>952.382606</ele>
        <time>2021-08-12T06:54:50.756Z</time>
      </trkpt>
      <trkpt lat="42.05401" lon="45.07507">
        <ele>944.129136</ele>
        <time>2021-08-12T06:55:35.242Z</time>
      </trkpt>
      <trkpt lat="42.05424" lon="45.07559">
        <ele>941.043689</ele>
        <time>2021-08-12T06:55:51.792Z</time>
      </trkpt>
      <trkpt lat="42.05447" lon="45.07634">
        <ele>936.917024</ele>
        <time>2021-08-12T06:56:13.982Z</time>
      </trkpt>
      <trkpt lat="42.05446" lon="45.07717">
        <ele>932.97059</ele>
        <time>2021-08-12T06:56:36.619Z</time>
      </trkpt>
      <trkpt lat="42.0544" lon="45.07725">
        <ele>932.425065</ele>
        <time>2021-08-12T06:56:39.602Z</time>
      </trkpt>
      <trkpt lat="42.05426" lon="45.07729">
        <ele>931.513759</ele>
        <time>2021-08-12T06:56:44.930Z</time>
      </trkpt>
      <trkpt lat="42.05413" lon="45.0774">
        <ele>930.551411</ele>
        <time>2021-08-12T06:56:50.535Z</time>
      </trkpt>
      <trkpt lat="42.05411" lon="45.07747">
        <ele>930.169276</ele>
        <time>2021-08-12T06:56:52.613Z</time>
      </trkpt>
      <trkpt lat="42.0541" lon="45.07754">
        <ele>929.822644</ele>
        <time>2021-08-12T06:56:54.678Z</time>
      </trkpt>
      <trkpt lat="42.05405" lon="45.0781">
        <ele>927.187884</ele>
        <time>2021-08-12T06:57:10.262Z</time>
      </trkpt>
      <trkpt lat="42.05414" lon="45.07818">
        <ele>926.494933</ele>
        <time>2021-08-12T06:57:14.292Z</time>
      </trkpt>
      <trkpt lat="42.05429" lon="45.07822">
        <ele>925.517521</ele>
        <time>2021-08-12T06:57:19.922Z</time>
      </trkpt>
      <trkpt lat="42.05445" lon="45.07813">
        <ele>924.390225</ele>
        <time>2021-08-12T06:57:26.712Z</time>
      </trkpt>
      <trkpt lat="42.05454" lon="45.07814">
        <ele>923.882805</ele>
        <time>2021-08-12T06:57:29.878Z</time>
      </trkpt>
      <trkpt lat="42.05462" lon="45.07816">
        <ele>923.348389</ele>
        <time>2021-08-12T06:57:32.946Z</time>
      </trkpt>
      <trkpt lat="42.05494" lon="45.0781">
        <ele>921.363336</ele>
        <time>2021-08-12T06:57:45.079Z</time>
      </trkpt>
      <trkpt lat="42.05512" lon="45.07796">
        <ele>920.072025</ele>
        <time>2021-08-12T06:57:52.870Z</time>
      </trkpt>
      <trkpt lat="42.05528" lon="45.07773">
        <ele>918.640511</ele>
        <time>2021-08-12T06:58:01.597Z</time>
      </trkpt>
      <trkpt lat="42.05595" lon="45.07577">
        <ele>907.622245</ele>
        <time>2021-08-12T06:59:00.978Z</time>
      </trkpt>
      <trkpt lat="42.05644" lon="45.07518">
        <ele>902.648329</ele>
        <time>2021-08-12T06:59:24.276Z</time>
      </trkpt>
      <trkpt lat="42.05664" lon="45.07501">
        <ele>900.8704</ele>
        <time>2021-08-12T06:59:32.535Z</time>
      </trkpt>
      <trkpt lat="42.05702" lon="45.07447">
        <ele>896.057863</ele>
        <time>2021-08-12T06:59:51.782Z</time>
      </trkpt>
      <trkpt lat="42.05719" lon="45.07441">
        <ele>894.449029</ele>
        <time>2021-08-12T06:59:57.942Z</time>
      </trkpt>
      <trkpt lat="42.05766" lon="45.07467">
        <ele>889.875377</ele>
        <time>2021-08-12T07:00:15.514Z</time>
      </trkpt>
      <trkpt lat="42.05781" lon="45.07511">
        <ele>886.619181</ele>
        <time>2021-08-12T07:00:28.095Z</time>
      </trkpt>
      <trkpt lat="42.05795" lon="45.07536">
        <ele>884.509053</ele>
        <time>2021-08-12T07:00:36.261Z</time>
      </trkpt>
      <trkpt lat="42.05806" lon="45.07541">
        <ele>883.483612</ele>
        <time>2021-08-12T07:00:40.297Z</time>
      </trkpt>
      <trkpt lat="42.05818" lon="45.07542">
        <ele>882.420768</ele>
        <time>2021-08-12T07:00:44.547Z</time>
      </trkpt>
      <trkpt lat="42.05827" lon="45.07532">
        <ele>881.428501</ele>
        <time>2021-08-12T07:00:48.533Z</time>
      </trkpt>
      <trkpt lat="42.05848" lon="45.07481">
        <ele>877.597015</ele>
        <time>2021-08-12T07:01:03.955Z</time>
      </trkpt>
      <trkpt lat="42.05856" lon="45.07474">
        <ele>876.741295</ele>
        <time>2021-08-12T07:01:07.380Z</time>
      </trkpt>
      <trkpt lat="42.05873" lon="45.07481">
        <ele>875.225537</ele>
        <time>2021-08-12T07:01:13.472Z</time>
      </trkpt>
      <trkpt lat="42.05876" lon="45.07493">
        <ele>874.394994</ele>
        <time>2021-08-12T07:01:16.828Z</time>
      </trkpt>
      <trkpt lat="42.05872" lon="45.07556">
        <ele>870.240763</ele>
        <time>2021-08-12T07:01:33.468Z</time>
      </trkpt>
      <trkpt lat="42.05898" lon="45.07601">
        <ele>866.430338</ele>
        <time>2021-08-12T07:01:48.354Z</time>
      </trkpt>
      <trkpt lat="42.05907" lon="45.07627">
        <ele>864.49474</ele>
        <time>2021-08-12T07:01:55.708Z</time>
      </trkpt>
      <trkpt lat="42.0587" lon="45.07845">
        <ele>849.464681</ele>
        <time>2021-08-12T07:02:53.488Z</time>
      </trkpt>
      <trkpt lat="42.05869" lon="45.07864">
        <ele>848.295606</ele>
        <time>2021-08-12T07:02:58.460Z</time>
      </trkpt>
      <trkpt lat="42.05873" lon="45.07884">
        <ele>846.981685</ele>
        <time>2021-08-12T07:03:04.083Z</time>
      </trkpt>
      <trkpt lat="42.0589" lon="45.07897">
        <ele>845.399456</ele>
        <time>2021-08-12T07:03:10.835Z</time>
      </trkpt>
      <trkpt lat="42.05919" lon="45.079">
        <ele>842.975239</ele>
        <time>2021-08-12T07:03:21.259Z</time>
      </trkpt>
      <trkpt lat="42.05934" lon="45.07911">
        <ele>841.540502</ele>
        <time>2021-08-12T07:03:27.441Z</time>
      </trkpt>
      <trkpt lat="42.05945" lon="45.07928">
        <ele>840.159728</ele>
        <time>2021-08-12T07:03:33.415Z</time>
      </trkpt>
      <trkpt lat="42.05983" lon="45.08065">
        <ele>831.446507</ele>
        <time>2021-08-12T07:04:12.288Z</time>
      </trkpt>
      <trkpt lat="42.06016" lon="45.08113">
        <ele>827.525662</ele>
        <time>2021-08-12T07:04:30.018Z</time>
      </trkpt>
      <trkpt lat="42.06021" lon="45.08138">
        <ele>826.017599</ele>
        <time>2021-08-12T07:04:36.795Z</time>
      </trkpt>
      <trkpt lat="42.06023" lon="45.0817">
        <ele>824.146098</ele>
        <time>2021-08-12T07:04:45.200Z</time>
      </trkpt>
      <trkpt lat="42.06006" lon="45.08251">
        <ele>819.080041</ele>
        <time>2021-08-12T07:05:07.119Z</time>
      </trkpt>
      <trkpt lat="42.06016" lon="45.08341">
        <ele>813.483479</ele>
        <time>2021-08-12T07:05:31.004Z</time>
      </trkpt>
      <trkpt lat="42.05993" lon="45.08447">
        <ele>806.765883</ele>
        <time>2021-08-12T07:06:00.356Z</time>
      </trkpt>
      <trkpt lat="42.05988" lon="45.08662">
        <ele>795.224024</ele>
        <time>2021-08-12T07:06:57.842Z</time>
      </trkpt>
      <trkpt lat="42.05983" lon="45.08696">
        <ele>794.066477</ele>
        <time>2021-08-12T07:07:07.621Z</time>
      </trkpt>
      <trkpt lat="42.05969" lon="45.08731">
        <ele>793.296829</ele>
        <time>2021-08-12T07:07:18.784Z</time>
      </trkpt>
      <trkpt lat="42.05963" lon="45.08753">
        <ele>792.827354</ele>
        <time>2021-08-12T07:07:25.642Z</time>
      </trkpt>
      <trkpt lat="42.05943" lon="45.08833">
        <ele>791.164068</ele>
        <time>2021-08-12T07:07:51.844Z</time>
      </trkpt>
      <trkpt lat="42.05937" lon="45.08887">
        <ele>790.088853</ele>
        <time>2021-08-12T07:08:11.946Z</time>
      </trkpt>
      <trkpt lat="42.05936" lon="45.08956">
        <ele>791.195375</ele>
        <time>2021-08-12T07:08:44.616Z</time>
      </trkpt>
      <trkpt lat="42.05936" lon="45.09027">
        <ele>793.312808</ele>
        <time>2021-08-12T07:09:23.602Z</time>
      </trkpt>
      <trkpt lat="42.0594" lon="45.09126">
        <ele>796.271055</ele>
        <time>2021-08-12T07:10:24.223Z</time>
      </trkpt>
      <trkpt lat="42.05934" lon="45.09254">
        <ele>800.352029</ele>
        <time>2021-08-12T07:11:45.119Z</time>
      </trkpt>
      <trkpt lat="42.05925" lon="45.0929">
        <ele>801.56242</ele>
        <time>2021-08-12T07:12:07.137Z</time>
      </trkpt>
      <trkpt lat="42.0593" lon="45.09334">
        <ele>803.009815</ele>
        <time>2021-08-12T07:12:31.623Z</time>
      </trkpt>
      <trkpt lat="42.05944" lon="45.09382">
        <ele>804.656564</ele>
        <time>2021-08-12T07:12:57.419Z</time>
      </trkpt>
      <trkpt lat="42.05953" lon="45.09462">
        <ele>804.184294</ele>
        <time>2021-08-12T07:13:33.792Z</time>
      </trkpt>
      <trkpt lat="42.05975" lon="45.09571">
        <ele>803.38087</ele>
        <time>2021-08-12T07:14:12.975Z</time>
      </trkpt>
      <trkpt lat="42.05985" lon="45.09647">
        <ele>801.573677</ele>
        <time>2021-08-12T07:14:36.284Z</time>
      </trkpt>
      <trkpt lat="42.05995" lon="45.09806">
        <ele>792.829815</ele>
        <time>2021-08-12T07:15:19.343Z</time>
      </trkpt>
      <trkpt lat="42.05963" lon="45.0989">
        <ele>786.29531</ele>
        <time>2021-08-12T07:15:43.397Z</time>
      </trkpt>
      <trkpt lat="42.05958" lon="45.09922">
        <ele>783.307692</ele>
        <time>2021-08-12T07:15:51.606Z</time>
      </trkpt>
      <trkpt lat="42.05966" lon="45.09946">
        <ele>780.849661</ele>
        <time>2021-08-12T07:15:58.314Z</time>
      </trkpt>
      <trkpt lat="42.05994" lon="45.09984">
        <ele>776.045771</ele>
        <time>2021-08-12T07:16:11.276Z</time>
      </trkpt>
      <trkpt lat="42.06003" lon="45.10008">
        <ele>773.579515</ele>
        <time>2021-08-12T07:16:17.888Z</time>
      </trkpt>
      <trkpt lat="42.06007" lon="45.1006">
        <ele>768.828674</ele>
        <time>2021-08-12T07:16:30.668Z</time>
      </trkpt>
      <trkpt lat="42.06007" lon="45.10145">
        <ele>760.956583</ele>
        <time>2021-08-12T07:16:51.518Z</time>
      </trkpt>
      <trkpt lat="42.06011" lon="45.10166">
        <ele>758.960224</ele>
        <time>2021-08-12T07:16:56.827Z</time>
      </trkpt>
      <trkpt lat="42.06029" lon="45.10182">
        <ele>756.279672</ele>
        <time>2021-08-12T07:17:03.905Z</time>
      </trkpt>
      <trkpt lat="42.06061" lon="45.10195">
        <ele>752.061396</ele>
        <time>2021-08-12T07:17:15.107Z</time>
      </trkpt>
      <trkpt lat="42.06064" lon="45.10211">
        <ele>750.51766</ele>
        <time>2021-08-12T07:17:19.247Z</time>
      </trkpt>
      <trkpt lat="42.06066" lon="45.10222">
        <ele>749.465497</ele>
        <time>2021-08-12T07:17:22.050Z</time>
      </trkpt>
      <trkpt lat="42.06054" lon="45.10327">
        <ele>741.009666</ele>
        <time>2021-08-12T07:17:48.741Z</time>
      </trkpt>
      <trkpt lat="42.06046" lon="45.10351">
        <ele>739.115305</ele>
        <time>2021-08-12T07:17:55.647Z</time>
      </trkpt>
      <trkpt lat="42.06015" lon="45.10401">
        <ele>734.551217</ele>
        <time>2021-08-12T07:18:12.373Z</time>
      </trkpt>
      <trkpt lat="42.05996" lon="45.1045">
        <ele>730.625278</ele>
        <time>2021-08-12T07:18:26.857Z</time>
      </trkpt>
      <trkpt lat="42.05992" lon="45.10478">
        <ele>728.641286</ele>
        <time>2021-08-12T07:18:34.170Z</time>
      </trkpt>
      <trkpt lat="42.05994" lon="45.1058">
        <ele>722.452773</ele>
        <time>2021-08-12T07:19:00.836Z</time>
      </trkpt>
      <trkpt lat="42.05987" lon="45.10617">
        <ele>720.170142</ele>
        <time>2021-08-12T07:19:10.836Z</time>
      </trkpt>
      <trkpt lat="42.0596" lon="45.10693">
        <ele>715.081677</ele>
        <time>2021-08-12T07:19:33.340Z</time>
      </trkpt>
      <trkpt lat="42.0593" lon="45.10742">
        <ele>711.826526</ele>
        <time>2021-08-12T07:19:50.379Z</time>
      </trkpt>
      <trkpt lat="42.05796" lon="45.1082">
        <ele>702.764877</ele>
        <time>2021-08-12T07:20:44.814Z</time>
      </trkpt>
      <trkpt lat="42.0578" lon="45.10828">
        <ele>701.703912</ele>
        <time>2021-08-12T07:20:51.569Z</time>
      </trkpt>
      <trkpt lat="42.05775" lon="45.1083">
        <ele>701.393379</ele>
        <time>2021-08-12T07:20:53.309Z</time>
      </trkpt>
      <trkpt lat="42.05761" lon="45.10841">
        <ele>700.360183</ele>
        <time>2021-08-12T07:20:59.671Z</time>
      </trkpt>
      <trkpt lat="42.0575" lon="45.10858">
        <ele>699.285794</ele>
        <time>2021-08-12T07:21:06.225Z</time>
      </trkpt>
      <trkpt lat="42.0575" lon="45.10898">
        <ele>697.453495</ele>
        <time>2021-08-12T07:21:17.324Z</time>
      </trkpt>
      <trkpt lat="42.05756" lon="45.10923">
        <ele>696.216896</ele>
        <time>2021-08-12T07:21:24.556Z</time>
      </trkpt>
      <trkpt lat="42.05752" lon="45.10963">
        <ele>694.327886</ele>
        <time>2021-08-12T07:21:35.671Z</time>
      </trkpt>
      <trkpt lat="42.05743" lon="45.11005">
        <ele>692.272348</ele>
        <time>2021-08-12T07:21:47.558Z</time>
      </trkpt>
      <trkpt lat="42.05705" lon="45.11116">
        <ele>684.869846</ele>
        <time>2021-08-12T07:22:19.999Z</time>
      </trkpt>
      <trkpt lat="42.05694" lon="45.11246">
        <ele>676.506024</ele>
        <time>2021-08-12T07:22:53.799Z</time>
      </trkpt>
      <trkpt lat="42.05683" lon="45.11282">
        <ele>674.413861</ele>
        <time>2021-08-12T07:23:03.667Z</time>
      </trkpt>
      <trkpt lat="42.05669" lon="45.11304">
        <ele>672.967539</ele>
        <time>2021-08-12T07:23:11.258Z</time>
      </trkpt>
      <trkpt lat="42.05653" lon="45.11316">
        <ele>671.73594</ele>
        <time>2021-08-12T07:23:17.709Z</time>
      </trkpt>
      <trkpt lat="42.05632" lon="45.1132">
        <ele>670.328601</ele>
        <time>2021-08-12T07:23:25.241Z</time>
      </trkpt>
      <trkpt lat="42.05628" lon="45.11319">
        <ele>670.098675</ele>
        <time>2021-08-12T07:23:26.443Z</time>
      </trkpt>
      <trkpt lat="42.05615" lon="45.11316">
        <ele>669.196502</ele>
        <time>2021-08-12T07:23:31.316Z</time>
      </trkpt>
      <trkpt lat="42.05584" lon="45.1129">
        <ele>666.794883</ele>
        <time>2021-08-12T07:23:44.456Z</time>
      </trkpt>
      <trkpt lat="42.05551" lon="45.11259">
        <ele>664.122602</ele>
        <time>2021-08-12T07:24:00.179Z</time>
      </trkpt>
      <trkpt lat="42.05531" lon="45.11237">
        <ele>664.401755</ele>
        <time>2021-08-12T07:24:11.902Z</time>
      </trkpt>
      <trkpt lat="42.05505" lon="45.11215">
        <ele>665.421261</ele>
        <time>2021-08-12T07:24:29.919Z</time>
      </trkpt>
      <trkpt lat="42.05481" lon="45.11223">
        <ele>666.251215</ele>
        <time>2021-08-12T07:24:47.743Z</time>
      </trkpt>
      <trkpt lat="42.05455" lon="45.11246">
        <ele>667.289504</ele>
        <time>2021-08-12T07:25:12.085Z</time>
      </trkpt>
      <trkpt lat="42.05398" lon="45.11303">
        <ele>669.649479</ele>
        <time>2021-08-12T07:26:14.157Z</time>
      </trkpt>
      <trkpt lat="42.05375" lon="45.11332">
        <ele>670.723777</ele>
        <time>2021-08-12T07:26:43.578Z</time>
      </trkpt>
      <trkpt lat="42.0536" lon="45.11378">
        <ele>671.975726</ele>
        <time>2021-08-12T07:27:16.527Z</time>
      </trkpt>
      <trkpt lat="42.05364" lon="45.11403">
        <ele>672.619161</ele>
        <time>2021-08-12T07:27:34.052Z</time>
      </trkpt>
      <trkpt lat="42.05473" lon="45.11642">
        <ele>673.250823</ele>
        <time>2021-08-12T07:29:25.671Z</time>
      </trkpt>
      <trkpt lat="42.0553" lon="45.11766">
        <ele>669.467539</ele>
        <time>2021-08-12T07:30:05.447Z</time>
      </trkpt>
      <trkpt lat="42.05567" lon="45.11855">
        <ele>665.224484</ele>
        <time>2021-08-12T07:30:33.888Z</time>
      </trkpt>
      <trkpt lat="42.05568" lon="45.11865">
        <ele>664.822569</ele>
        <time>2021-08-12T07:30:36.546Z</time>
      </trkpt>
      <trkpt lat="42.05563" lon="45.11908">
        <ele>663.022198</ele>
        <time>2021-08-12T07:30:48.979Z</time>
      </trkpt>
      <trkpt lat="42.05539" lon="45.11957">
        <ele>661.649555</ele>
        <time>2021-08-12T07:31:06.145Z</time>
      </trkpt>
      <trkpt lat="42.05512" lon="45.12009">
        <ele>661.36952</ele>
        <time>2021-08-12T07:31:25.693Z</time>
      </trkpt>
      <trkpt lat="42.05488" lon="45.12055">
        <ele>661.120556</ele>
        <time>2021-08-12T07:31:47.784Z</time>
      </trkpt>
      <trkpt lat="42.05454" lon="45.12115">
        <ele>660.784905</ele>
        <time>2021-08-12T07:32:22.867Z</time>
      </trkpt>
      <trkpt lat="42.05413" lon="45.1217">
        <ele>662.203509</ele>
        <time>2021-08-12T07:33:00.800Z</time>
      </trkpt>
      <trkpt lat="42.05398" lon="45.12183">
        <ele>662.799186</ele>
        <time>2021-08-12T07:33:13.831Z</time>
      </trkpt>
      <trkpt lat="42.05348" lon="45.12212">
        <ele>664.668847</ele>
        <time>2021-08-12T07:33:52.551Z</time>
      </trkpt>
      <trkpt lat="42.05346" lon="45.12217">
        <ele>664.831921</ele>
        <time>2021-08-12T07:33:56.296Z</time>
      </trkpt>
      <trkpt lat="42.05345" lon="45.12247">
        <ele>665.585298</ele>
        <time>2021-08-12T07:34:12.881Z</time>
      </trkpt>
      <trkpt lat="42.05357" lon="45.12317">
        <ele>667.161325</ele>
        <time>2021-08-12T07:34:53.616Z</time>
      </trkpt>
      <trkpt lat="42.05347" lon="45.1234">
        <ele>667.572131</ele>
        <time>2021-08-12T07:35:09.106Z</time>
      </trkpt>
      <trkpt lat="42.05323" lon="45.12354">
        <ele>668.114562</ele>
        <time>2021-08-12T07:35:28.129Z</time>
      </trkpt>
      <trkpt lat="42.05327" lon="45.12395">
        <ele>668.728299</ele>
        <time>2021-08-12T07:35:48.712Z</time>
      </trkpt>
      <trkpt lat="42.05322" lon="45.12453">
        <ele>669.621114</ele>
        <time>2021-08-12T07:36:15.885Z</time>
      </trkpt>
      <trkpt lat="42.05322" lon="45.12497">
        <ele>670.28025</ele>
        <time>2021-08-12T07:36:32.678Z</time>
      </trkpt>
      <trkpt lat="42.05325" lon="45.1255">
        <ele>669.124341</ele>
        <time>2021-08-12T07:36:51.675Z</time>
      </trkpt>
      <trkpt lat="42.05326" lon="45.12611">
        <ele>667.087551</ele>
        <time>2021-08-12T07:37:10.714Z</time>
      </trkpt>
      <trkpt lat="42.05324" lon="45.12627">
        <ele>666.540742</ele>
        <time>2021-08-12T07:37:15.162Z</time>
      </trkpt>
      <trkpt lat="42.05322" lon="45.12643">
        <ele>666.014498</ele>
        <time>2021-08-12T07:37:20.342Z</time>
      </trkpt>
      <trkpt lat="42.05318" lon="45.12667">
        <ele>665.193989</ele>
        <time>2021-08-12T07:37:26.959Z</time>
      </trkpt>
      <trkpt lat="42.05316" lon="45.12674">
        <ele>664.931688</ele>
        <time>2021-08-12T07:37:29.034Z</time>
      </trkpt>
      <trkpt lat="42.05284" lon="45.12782">
        <ele>660.04948</ele>
        <time>2021-08-12T07:38:00.530Z</time>
      </trkpt>
      <trkpt lat="42.05283" lon="45.12786">
        <ele>659.8219</ele>
        <time>2021-08-12T07:38:01.487Z</time>
      </trkpt>
      <trkpt lat="42.05283" lon="45.12804">
        <ele>658.794268</ele>
        <time>2021-08-12T07:38:05.999Z</time>
      </trkpt>
      <trkpt lat="42.05271" lon="45.12871">
        <ele>654.755821</ele>
        <time>2021-08-12T07:38:24.425Z</time>
      </trkpt>
      <trkpt lat="42.0525" lon="45.12943">
        <ele>650.283181</ele>
        <time>2021-08-12T07:38:44.635Z</time>
      </trkpt>
      <trkpt lat="42.05222" lon="45.13002">
        <ele>647.149351</ele>
        <time>2021-08-12T07:39:03.341Z</time>
      </trkpt>
      <trkpt lat="42.05205" lon="45.13075">
        <ele>644.636629</ele>
        <time>2021-08-12T07:39:25.488Z</time>
      </trkpt>
      <trkpt lat="42.05163" lon="45.13139">
        <ele>641.834185</ele>
        <time>2021-08-12T07:39:51.426Z</time>
      </trkpt>
      <trkpt lat="42.05138" lon="45.13188">
        <ele>640.222274</ele>
        <time>2021-08-12T07:40:10.176Z</time>
      </trkpt>
      <trkpt lat="42.05116" lon="45.13325">
        <ele>638.498971</ele>
        <time>2021-08-12T07:40:57.936Z</time>
      </trkpt>
      <trkpt lat="42.05111" lon="45.13375">
        <ele>637.888389</ele>
        <time>2021-08-12T07:41:15.226Z</time>
      </trkpt>
      <trkpt lat="42.05109" lon="45.13401">
        <ele>637.56019</ele>
        <time>2021-08-12T07:41:24.540Z</time>
      </trkpt>
      <trkpt lat="42.05073" lon="45.13513">
        <ele>635.941904</ele>
        <time>2021-08-12T07:42:05.403Z</time>
      </trkpt>
      <trkpt lat="42.05038" lon="45.13648">
        <ele>634.02622</ele>
        <time>2021-08-12T07:42:52.215Z</time>
      </trkpt>
      <trkpt lat="42.04914" lon="45.13817">
        <ele>631.091885</ele>
        <time>2021-08-12T07:44:11.494Z</time>
      </trkpt>
      <trkpt lat="42.04882" lon="45.13908">
        <ele>630.3651</ele>
        <time>2021-08-12T07:44:46.705Z</time>
      </trkpt>
      <trkpt lat="42.04865" lon="45.13971">
        <ele>629.86793</ele>
        <time>2021-08-12T07:45:11.118Z</time>
      </trkpt>
      <trkpt lat="42.04846" lon="45.14101">
        <ele>628.526036</ele>
        <time>2021-08-12T07:45:58.186Z</time>
      </trkpt>
      <trkpt lat="42.04842" lon="45.14312">
        <ele>625.380871</ele>
        <time>2021-08-12T07:47:07.178Z</time>
      </trkpt>
      <trkpt lat="42.04833" lon="45.14364">
        <ele>624.107818</ele>
        <time>2021-08-12T07:47:23.606Z</time>
      </trkpt>
      <trkpt lat="42.04803" lon="45.14475">
        <ele>621.301493</ele>
        <time>2021-08-12T07:47:59.328Z</time>
      </trkpt>
      <trkpt lat="42.04726" lon="45.14642">
        <ele>616.947276</ele>
        <time>2021-08-12T07:48:58.838Z</time>
      </trkpt>
      <trkpt lat="42.04707" lon="45.14695">
        <ele>615.66982</ele>
        <time>2021-08-12T07:49:17.985Z</time>
      </trkpt>
      <trkpt lat="42.04693" lon="45.14805">
        <ele>614.612336</ele>
        <time>2021-08-12T07:49:55.991Z</time>
      </trkpt>
      <trkpt lat="42.04692" lon="45.1481">
        <ele>614.582081</ele>
        <time>2021-08-12T07:49:57.310Z</time>
      </trkpt>
      <trkpt lat="42.04671" lon="45.14859">
        <ele>614.229198</ele>
        <time>2021-08-12T07:50:17.865Z</time>
      </trkpt>
      <trkpt lat="42.04541" lon="45.15044">
        <ele>613.253605</ele>
        <time>2021-08-12T07:51:56.429Z</time>
      </trkpt>
      <trkpt lat="42.04521" lon="45.15099">
        <ele>613.107315</ele>
        <time>2021-08-12T07:52:18.890Z</time>
      </trkpt>
      <trkpt lat="42.0452" lon="45.15125">
        <ele>612.982023</ele>
        <time>2021-08-12T07:52:27.924Z</time>
      </trkpt>
      <trkpt lat="42.04495" lon="45.15449">
        <ele>608.378481</ele>
        <time>2021-08-12T07:54:17.106Z</time>
      </trkpt>
      <trkpt lat="42.04482" lon="45.15557">
        <ele>606.168955</ele>
        <time>2021-08-12T07:54:50.901Z</time>
      </trkpt>
      <trkpt lat="42.04451" lon="45.15708">
        <ele>602.214633</ele>
        <time>2021-08-12T07:55:37.616Z</time>
      </trkpt>
      <trkpt lat="42.04448" lon="45.15767">
        <ele>600.617626</ele>
        <time>2021-08-12T07:55:55.196Z</time>
      </trkpt>
      <trkpt lat="42.04449" lon="45.15858">
        <ele>598.306746</ele>
        <time>2021-08-12T07:56:22.786Z</time>
      </trkpt>
      <trkpt lat="42.04473" lon="45.16166">
        <ele>592.416902</ele>
        <time>2021-08-12T07:58:01.480Z</time>
      </trkpt>
      <trkpt lat="42.04472" lon="45.16235">
        <ele>591.291833</ele>
        <time>2021-08-12T07:58:23.898Z</time>
      </trkpt>
      <trkpt lat="42.04461" lon="45.16306">
        <ele>590.094969</ele>
        <time>2021-08-12T07:58:47.805Z</time>
      </trkpt>
      <trkpt lat="42.04425" lon="45.1647">
        <ele>588.145176</ele>
        <time>2021-08-12T07:59:44.776Z</time>
      </trkpt>
      <trkpt lat="42.04295" lon="45.17051">
        <ele>583.899949</ele>
        <time>2021-08-12T08:03:19.337Z</time>
      </trkpt>
      <trkpt lat="42.04165" lon="45.17641">
        <ele>584.586029</ele>
        <time>2021-08-12T08:07:20.579Z</time>
      </trkpt>
      <trkpt lat="42.04131" lon="45.17794">
        <ele>585.770849</ele>
        <time>2021-08-12T08:08:06.242Z</time>
      </trkpt>
      <trkpt lat="42.04038" lon="45.18206">
        <ele>590.291787</ele>
        <time>2021-08-12T08:10:11.730Z</time>
      </trkpt>
      <trkpt lat="42.03966" lon="45.18524">
        <ele>593.721936</ele>
        <time>2021-08-12T08:11:48.764Z</time>
      </trkpt>
      <trkpt lat="42.03948" lon="45.18604">
        <ele>594.547016</ele>
        <time>2021-08-12T08:12:12.784Z</time>
      </trkpt>
      <trkpt lat="42.03878" lon="45.1893">
        <ele>596.879359</ele>
        <time>2021-08-12T08:13:44.966Z</time>
      </trkpt>
      <trkpt lat="42.03864" lon="45.18981">
        <ele>597.097248</ele>
        <time>2021-08-12T08:13:58.736Z</time>
      </trkpt>
      <trkpt lat="42.03827" lon="45.19129">
        <ele>597.636971</ele>
        <time>2021-08-12T08:14:37.153Z</time>
      </trkpt>
      <trkpt lat="42.03821" lon="45.19153">
        <ele>597.673765</ele>
        <time>2021-08-12T08:14:43.175Z</time>
      </trkpt>
      <trkpt lat="42.03793" lon="45.19261">
        <ele>597.838347</ele>
        <time>2021-08-12T08:15:10.518Z</time>
      </trkpt>
      <trkpt lat="42.03785" lon="45.19292">
        <ele>597.886511</ele>
        <time>2021-08-12T08:15:18.430Z</time>
      </trkpt>
      <trkpt lat="42.03741" lon="45.19492">
        <ele>597.75219</ele>
        <time>2021-08-12T08:16:07.495Z</time>
      </trkpt>
      <trkpt lat="42.0373" lon="45.19527">
        <ele>597.709419</ele>
        <time>2021-08-12T08:16:15.847Z</time>
      </trkpt>
      <trkpt lat="42.03709" lon="45.19567">
        <ele>597.451938</ele>
        <time>2021-08-12T08:16:26.047Z</time>
      </trkpt>
      <trkpt lat="42.03693" lon="45.19586">
        <ele>597.053233</ele>
        <time>2021-08-12T08:16:31.948Z</time>
      </trkpt>
      <trkpt lat="42.03675" lon="45.19609">
        <ele>596.588607</ele>
        <time>2021-08-12T08:16:38.617Z</time>
      </trkpt>
      <trkpt lat="42.03706" lon="45.19629">
        <ele>595.943292</ele>
        <time>2021-08-12T08:16:47.865Z</time>
      </trkpt>
      <trkpt lat="42.03766" lon="45.19694">
        <ele>594.520039</ele>
        <time>2021-08-12T08:17:07.075Z</time>
      </trkpt>
      <trkpt lat="42.03794" lon="45.19722">
        <ele>593.442401</ele>
        <time>2021-08-12T08:17:15.537Z</time>
      </trkpt>
      <trkpt lat="42.03898" lon="45.19818">
        <ele>588.992305</ele>
        <time>2021-08-12T08:17:44.907Z</time>
      </trkpt>
      <trkpt lat="42.04044" lon="45.19941">
        <ele>583.060231</ele>
        <time>2021-08-12T08:18:25.278Z</time>
      </trkpt>
      <trkpt lat="42.04087" lon="45.19982">
        <ele>581.374749</ele>
        <time>2021-08-12T08:18:37.981Z</time>
      </trkpt>
      <trkpt lat="42.0413" lon="45.20022">
        <ele>579.987165</ele>
        <time>2021-08-12T08:18:50.962Z</time>
      </trkpt>
      <trkpt lat="42.04144" lon="45.20033">
        <ele>579.550709</ele>
        <time>2021-08-12T08:18:54.847Z</time>
      </trkpt>
      <trkpt lat="42.04162" lon="45.20048">
        <ele>578.964734</ele>
        <time>2021-08-12T08:19:00.476Z</time>
      </trkpt>
      <trkpt lat="42.04168" lon="45.20054">
        <ele>578.765413</ele>
        <time>2021-08-12T08:19:02.179Z</time>
      </trkpt>
      <trkpt lat="42.04241" lon="45.20137">
        <ele>576.307944</ele>
        <time>2021-08-12T08:19:25.807Z</time>
      </trkpt>
      <trkpt lat="42.04256" lon="45.20155">
        <ele>575.82051</ele>
        <time>2021-08-12T08:19:30.714Z</time>
      </trkpt>
      <trkpt lat="42.04304" lon="45.20207">
        <ele>574.380071</ele>
        <time>2021-08-12T08:19:46.022Z</time>
      </trkpt>
      <trkpt lat="42.04333" lon="45.20249">
        <ele>573.370214</ele>
        <time>2021-08-12T08:19:57.117Z</time>
      </trkpt>
      <trkpt lat="42.04333" lon="45.20283">
        <ele>572.760556</ele>
        <time>2021-08-12T08:20:03.829Z</time>
      </trkpt>
      <trkpt lat="42.04321" lon="45.20372">
        <ele>571.640821</ele>
        <time>2021-08-12T08:20:21.175Z</time>
      </trkpt>
      <trkpt lat="42.04315" lon="45.20371">
        <ele>571.540312</ele>
        <time>2021-08-12T08:20:22.874Z</time>
      </trkpt>
      <trkpt lat="42.04271" lon="45.20391">
        <ele>570.765451</ele>
        <time>2021-08-12T08:20:34.762Z</time>
      </trkpt>
      <trkpt lat="42.04269" lon="45.20392">
        <ele>570.733298</ele>
        <time>2021-08-12T08:20:35.281Z</time>
      </trkpt>
      <trkpt lat="42.04268" lon="45.20393">
        <ele>570.699717</ele>
        <time>2021-08-12T08:20:35.799Z</time>
      </trkpt>
      <trkpt lat="42.04266" lon="45.20395">
        <ele>570.65779</ele>
        <time>2021-08-12T08:20:36.425Z</time>
      </trkpt>
      <trkpt lat="42.04266" lon="45.20401">
        <ele>570.594112</ele>
        <time>2021-08-12T08:20:37.407Z</time>
      </trkpt>
      <trkpt lat="42.04267" lon="45.20404">
        <ele>570.548489</ele>
        <time>2021-08-12T08:20:38.086Z</time>
      </trkpt>
      <trkpt lat="42.04268" lon="45.20405">
        <ele>570.516494</ele>
        <time>2021-08-12T08:20:38.565Z</time>
      </trkpt>
      <trkpt lat="42.0427" lon="45.20406">
        <ele>570.482819</ele>
        <time>2021-08-12T08:20:39.080Z</time>
      </trkpt>
      <trkpt lat="42.04272" lon="45.20406">
        <ele>570.451027</ele>
        <time>2021-08-12T08:20:39.562Z</time>
      </trkpt>
      <trkpt lat="42.04288" lon="45.2044">
        <ele>569.952572</ele>
        <time>2021-08-12T08:20:47.289Z</time>
      </trkpt>
      <trkpt lat="42.04325" lon="45.20542">
        <ele>568.20867</ele>
        <time>2021-08-12T08:21:08.635Z</time>
      </trkpt>
      <trkpt lat="42.04325" lon="45.20544">
        <ele>568.173421</ele>
        <time>2021-08-12T08:21:08.994Z</time>
      </trkpt>
      <trkpt lat="42.0437" lon="45.20662">
        <ele>566.059663</ele>
        <time>2021-08-12T08:21:32.646Z</time>
      </trkpt>
      <trkpt lat="42.04408" lon="45.20749">
        <ele>563.969211</ele>
        <time>2021-08-12T08:21:50.141Z</time>
      </trkpt>
      <trkpt lat="42.04414" lon="45.20763">
        <ele>563.614327</ele>
        <time>2021-08-12T08:21:53.029Z</time>
      </trkpt>
      <trkpt lat="42.04576" lon="45.21005">
        <ele>556.315232</ele>
        <time>2021-08-12T08:22:48.641Z</time>
      </trkpt>
      <trkpt lat="42.04644" lon="45.2111">
        <ele>553.090963</ele>
        <time>2021-08-12T08:23:12.097Z</time>
      </trkpt>
      <trkpt lat="42.04668" lon="45.21148">
        <ele>551.905069</ele>
        <time>2021-08-12T08:23:20.732Z</time>
      </trkpt>
      <trkpt lat="42.0473" lon="45.21245">
        <ele>549.009014</ele>
        <time>2021-08-12T08:23:42.466Z</time>
      </trkpt>
      <trkpt lat="42.04806" lon="45.2138">
        <ele>545.549563</ele>
        <time>2021-08-12T08:24:12.056Z</time>
      </trkpt>
      <trkpt lat="42.0487" lon="45.21549">
        <ele>541.964609</ele>
        <time>2021-08-12T08:24:45.206Z</time>
      </trkpt>
      <trkpt lat="42.04903" lon="45.21669">
        <ele>539.65744</ele>
        <time>2021-08-12T08:25:08.265Z</time>
      </trkpt>
      <trkpt lat="42.04935" lon="45.21916">
        <ele>535.634166</ele>
        <time>2021-08-12T08:25:53.863Z</time>
      </trkpt>
      <trkpt lat="42.04984" lon="45.22371">
        <ele>527.840119</ele>
        <time>2021-08-12T08:27:16.373Z</time>
      </trkpt>
      <trkpt lat="42.04984" lon="45.22373">
        <ele>527.81553</ele>
        <time>2021-08-12T08:27:16.619Z</time>
      </trkpt>
      <trkpt lat="42.05056" lon="45.23151">
        <ele>515.968039</ele>
        <time>2021-08-12T08:29:40.365Z</time>
      </trkpt>
      <trkpt lat="42.05073" lon="45.23408">
        <ele>512.398241</ele>
        <time>2021-08-12T08:30:27.205Z</time>
      </trkpt>
      <trkpt lat="42.05077" lon="45.23462">
        <ele>511.813571</ele>
        <time>2021-08-12T08:30:37.332Z</time>
      </trkpt>
      <trkpt lat="42.05096" lon="45.23723">
        <ele>510.703485</ele>
        <time>2021-08-12T08:31:32.151Z</time>
      </trkpt>
      <trkpt lat="42.05106" lon="45.23862">
        <ele>511.312084</ele>
        <time>2021-08-12T08:32:11.474Z</time>
      </trkpt>
      <trkpt lat="42.05116" lon="45.23971">
        <ele>512.521148</ele>
        <time>2021-08-12T08:32:45.475Z</time>
      </trkpt>
      <trkpt lat="42.05114" lon="45.2401">
        <ele>512.950638</ele>
        <time>2021-08-12T08:32:57.132Z</time>
      </trkpt>
      <trkpt lat="42.05103" lon="45.24063">
        <ele>513.354997</ele>
        <time>2021-08-12T08:33:13.008Z</time>
      </trkpt>
      <trkpt lat="42.05083" lon="45.24116">
        <ele>513.280896</ele>
        <time>2021-08-12T08:33:29.642Z</time>
      </trkpt>
      <trkpt lat="42.04994" lon="45.24313">
        <ele>511.876274</ele>
        <time>2021-08-12T08:34:17.145Z</time>
      </trkpt>
      <trkpt lat="42.04949" lon="45.2444">
        <ele>509.26073</ele>
        <time>2021-08-12T08:34:41.104Z</time>
      </trkpt>
      <trkpt lat="42.04905" lon="45.24574">
        <ele>506.722171</ele>
        <time>2021-08-12T08:35:05.708Z</time>
      </trkpt>
      <trkpt lat="42.04899" lon="45.24592">
        <ele>506.382906</ele>
        <time>2021-08-12T08:35:09.173Z</time>
      </trkpt>
      <trkpt lat="42.04898" lon="45.24594">
        <ele>506.337401</ele>
        <time>2021-08-12T08:35:09.597Z</time>
      </trkpt>
      <trkpt lat="42.04287" lon="45.26412">
        <ele>490.262609</ele>
        <time>2021-08-12T08:41:49.703Z</time>
      </trkpt>
      <trkpt lat="42.04266" lon="45.26516">
        <ele>489.573405</ele>
        <time>2021-08-12T08:42:11.891Z</time>
      </trkpt>
      <trkpt lat="42.04264" lon="45.2661">
        <ele>489.058303</ele>
        <time>2021-08-12T08:42:31.200Z</time>
      </trkpt>
      <trkpt lat="42.04296" lon="45.27223">
        <ele>485.97433</ele>
        <time>2021-08-12T08:44:40.401Z</time>
      </trkpt>
      <trkpt lat="42.04299" lon="45.27278">
        <ele>485.651475</ele>
        <time>2021-08-12T08:44:51.819Z</time>
      </trkpt>
      <trkpt lat="42.04327" lon="45.278">
        <ele>482.523086</ele>
        <time>2021-08-12T08:46:39.077Z</time>
      </trkpt>
      <trkpt lat="42.04333" lon="45.2788">
        <ele>482.035034</ele>
        <time>2021-08-12T08:46:55.426Z</time>
      </trkpt>
      <trkpt lat="42.0435" lon="45.28246">
        <ele>480.123877</ele>
        <time>2021-08-12T08:48:11.667Z</time>
      </trkpt>
      <trkpt lat="42.04375" lon="45.28793">
        <ele>477.814741</ele>
        <time>2021-08-12T08:50:08.817Z</time>
      </trkpt>
      <trkpt lat="42.04406" lon="45.29354">
        <ele>474.927206</ele>
        <time>2021-08-12T08:52:06.146Z</time>
      </trkpt>
      <trkpt lat="42.04432" lon="45.29908">
        <ele>472.294955</ele>
        <time>2021-08-12T08:54:03.201Z</time>
      </trkpt>
      <trkpt lat="42.04432" lon="45.29916">
        <ele>472.247152</ele>
        <time>2021-08-12T08:54:04.868Z</time>
      </trkpt>
      <trkpt lat="42.04463" lon="45.3047">
        <ele>468.658912</ele>
        <time>2021-08-12T08:55:58.539Z</time>
      </trkpt>
      <trkpt lat="42.04491" lon="45.31022">
        <ele>464.051995</ele>
        <time>2021-08-12T08:57:47.518Z</time>
      </trkpt>
      <trkpt lat="42.04519" lon="45.31579">
        <ele>460.845655</ele>
        <time>2021-08-12T08:59:43.967Z</time>
      </trkpt>
      <trkpt lat="42.04547" lon="45.32139">
        <ele>456.581839</ele>
        <time>2021-08-12T09:01:34.962Z</time>
      </trkpt>
      <trkpt lat="42.04575" lon="45.32692">
        <ele>453.76494</ele>
        <time>2021-08-12T09:03:32.396Z</time>
      </trkpt>
      <trkpt lat="42.0459" lon="45.32988">
        <ele>452.25366</ele>
        <time>2021-08-12T09:04:34.512Z</time>
      </trkpt>
      <trkpt lat="42.046" lon="45.33142">
        <ele>451.170644</ele>
        <time>2021-08-12T09:05:06.043Z</time>
      </trkpt>
      <trkpt lat="42.04603" lon="45.33193">
        <ele>450.81581</ele>
        <time>2021-08-12T09:05:16.257Z</time>
      </trkpt>
      <trkpt lat="42.04611" lon="45.33316">
        <ele>449.854115</ele>
        <time>2021-08-12T09:05:40.379Z</time>
      </trkpt>
      <trkpt lat="42.04616" lon="45.33388">
        <ele>449.264795</ele>
        <time>2021-08-12T09:05:54.820Z</time>
      </trkpt>
      <trkpt lat="42.04616" lon="45.33394">
        <ele>449.214322</ele>
        <time>2021-08-12T09:05:55.922Z</time>
      </trkpt>
      <trkpt lat="42.04651" lon="45.33511">
        <ele>448.3554</ele>
        <time>2021-08-12T09:06:21.493Z</time>
      </trkpt>
      <trkpt lat="42.04775" lon="45.33856">
        <ele>446.667052</ele>
        <time>2021-08-12T09:07:42.913Z</time>
      </trkpt>
      <trkpt lat="42.04822" lon="45.33986">
        <ele>446.187576</ele>
        <time>2021-08-12T09:08:14.098Z</time>
      </trkpt>
      <trkpt lat="42.04983" lon="45.34414">
        <ele>444.614002</ele>
        <time>2021-08-12T09:09:58.129Z</time>
      </trkpt>
      <trkpt lat="42.05143" lon="45.34839">
        <ele>442.523086</ele>
        <time>2021-08-12T09:11:38.621Z</time>
      </trkpt>
      <trkpt lat="42.05302" lon="45.35264">
        <ele>440.629156</ele>
        <time>2021-08-12T09:13:19.072Z</time>
      </trkpt>
      <trkpt lat="42.05448" lon="45.35652">
        <ele>439.557144</ele>
        <time>2021-08-12T09:14:55.804Z</time>
      </trkpt>
      <trkpt lat="42.05449" lon="45.35666">
        <ele>439.483145</ele>
        <time>2021-08-12T09:14:58.765Z</time>
      </trkpt>
      <trkpt lat="42.05459" lon="45.35693">
        <ele>439.318907</ele>
        <time>2021-08-12T09:15:05.308Z</time>
      </trkpt>
      <trkpt lat="42.05459" lon="45.35695">
        <ele>439.308303</ele>
        <time>2021-08-12T09:15:05.730Z</time>
      </trkpt>
      <trkpt lat="42.05459" lon="45.35697">
        <ele>439.296925</ele>
        <time>2021-08-12T09:15:06.156Z</time>
      </trkpt>
      <trkpt lat="42.05459" lon="45.357">
        <ele>439.28119</ele>
        <time>2021-08-12T09:15:06.783Z</time>
      </trkpt>
      <trkpt lat="42.0546" lon="45.35703">
        <ele>439.264975</ele>
        <time>2021-08-12T09:15:07.418Z</time>
      </trkpt>
      <trkpt lat="42.05462" lon="45.35705">
        <ele>439.248638</ele>
        <time>2021-08-12T09:15:08.045Z</time>
      </trkpt>
      <trkpt lat="42.05463" lon="45.35706">
        <ele>439.236524</ele>
        <time>2021-08-12T09:15:08.521Z</time>
      </trkpt>
      <trkpt lat="42.05465" lon="45.35706">
        <ele>439.224746</ele>
        <time>2021-08-12T09:15:09.001Z</time>
      </trkpt>
      <trkpt lat="42.05476" lon="45.35734">
        <ele>439.054704</ele>
        <time>2021-08-12T09:15:15.687Z</time>
      </trkpt>
      <trkpt lat="42.05482" lon="45.35742">
        <ele>438.99293</ele>
        <time>2021-08-12T09:15:18.073Z</time>
      </trkpt>
      <trkpt lat="42.05627" lon="45.36125">
        <ele>436.16188</ele>
        <time>2021-08-12T09:16:44.667Z</time>
      </trkpt>
      <trkpt lat="42.05786" lon="45.3655">
        <ele>433.376419</ele>
        <time>2021-08-12T09:18:22.498Z</time>
      </trkpt>
      <trkpt lat="42.05945" lon="45.36973">
        <ele>431.964133</ele>
        <time>2021-08-12T09:20:05.591Z</time>
      </trkpt>
      <trkpt lat="42.05999" lon="45.37125">
        <ele>431.669139</ele>
        <time>2021-08-12T09:20:43.401Z</time>
      </trkpt>
      <trkpt lat="42.06013" lon="45.37167">
        <ele>431.609447</ele>
        <time>2021-08-12T09:20:53.915Z</time>
      </trkpt>
      <trkpt lat="42.06031" lon="45.37235">
        <ele>431.536234</ele>
        <time>2021-08-12T09:21:10.393Z</time>
      </trkpt>
      <trkpt lat="42.06048" lon="45.37309">
        <ele>431.457489</ele>
        <time>2021-08-12T09:21:28.199Z</time>
      </trkpt>
      <trkpt lat="42.06105" lon="45.37541">
        <ele>430.908573</ele>
        <time>2021-08-12T09:22:22.302Z</time>
      </trkpt>
      <trkpt lat="42.06166" lon="45.37809">
        <ele>429.593558</ele>
        <time>2021-08-12T09:23:20.910Z</time>
      </trkpt>
      <trkpt lat="42.062" lon="45.37949">
        <ele>428.8501</ele>
        <time>2021-08-12T09:23:51.400Z</time>
      </trkpt>
      <trkpt lat="42.06386" lon="45.38806">
        <ele>424.690709</ele>
        <time>2021-08-12T09:26:59.609Z</time>
      </trkpt>
      <trkpt lat="42.06473" lon="45.39185">
        <ele>423.080053</ele>
        <time>2021-08-12T09:28:22.812Z</time>
      </trkpt>
      <trkpt lat="42.06479" lon="45.39211">
        <ele>422.987283</ele>
        <time>2021-08-12T09:28:28.829Z</time>
      </trkpt>
      <trkpt lat="42.06551" lon="45.39536">
        <ele>423.565108</ele>
        <time>2021-08-12T09:29:51.636Z</time>
      </trkpt>
      <trkpt lat="42.0656" lon="45.39584">
        <ele>423.70445</ele>
        <time>2021-08-12T09:30:04.118Z</time>
      </trkpt>
      <trkpt lat="42.0656" lon="45.39615">
        <ele>423.789071</ele>
        <time>2021-08-12T09:30:11.645Z</time>
      </trkpt>
      <trkpt lat="42.06512" lon="45.39945">
        <ele>424.640193</ele>
        <time>2021-08-12T09:31:34.621Z</time>
      </trkpt>
      <trkpt lat="42.06475" lon="45.40046">
        <ele>424.805312</ele>
        <time>2021-08-12T09:32:01.652Z</time>
      </trkpt>
      <trkpt lat="42.06469" lon="45.40195">
        <ele>425.161229</ele>
        <time>2021-08-12T09:32:37.365Z</time>
      </trkpt>
      <trkpt lat="42.0646" lon="45.40271">
        <ele>425.571585</ele>
        <time>2021-08-12T09:32:56.366Z</time>
      </trkpt>
      <trkpt lat="42.06462" lon="45.40318">
        <ele>425.82382</ele>
        <time>2021-08-12T09:33:08.571Z</time>
      </trkpt>
      <trkpt lat="42.06507" lon="45.40484">
        <ele>427.233029</ele>
        <time>2021-08-12T09:33:58.761Z</time>
      </trkpt>
      <trkpt lat="42.06542" lon="45.40573">
        <ele>428.279205</ele>
        <time>2021-08-12T09:34:28.608Z</time>
      </trkpt>
      <trkpt lat="42.06605" lon="45.40736">
        <ele>430.048591</ele>
        <time>2021-08-12T09:35:21.905Z</time>
      </trkpt>
      <trkpt lat="42.06709" lon="45.40991">
        <ele>432.460649</ele>
        <time>2021-08-12T09:36:41.888Z</time>
      </trkpt>
      <trkpt lat="42.06754" lon="45.41098">
        <ele>433.326317</ele>
        <time>2021-08-12T09:37:15.656Z</time>
      </trkpt>
      <trkpt lat="42.06763" lon="45.41117">
        <ele>433.472258</ele>
        <time>2021-08-12T09:37:21.642Z</time>
      </trkpt>
      <trkpt lat="42.06784" lon="45.41159">
        <ele>433.795399</ele>
        <time>2021-08-12T09:37:35.205Z</time>
      </trkpt>
      <trkpt lat="42.07066" lon="45.41611">
        <ele>437.12614</ele>
        <time>2021-08-12T09:40:09.735Z</time>
      </trkpt>
      <trkpt lat="42.07142" lon="45.41736">
        <ele>438.220883</ele>
        <time>2021-08-12T09:40:53.014Z</time>
      </trkpt>
      <trkpt lat="42.0719" lon="45.41816">
        <ele>438.988604</ele>
        <time>2021-08-12T09:41:20.982Z</time>
      </trkpt>
      <trkpt lat="42.07274" lon="45.41948">
        <ele>440.653468</ele>
        <time>2021-08-12T09:42:11.087Z</time>
      </trkpt>
      <trkpt lat="42.07293" lon="45.41982">
        <ele>441.059479</ele>
        <time>2021-08-12T09:42:23.565Z</time>
      </trkpt>
      <trkpt lat="42.07307" lon="45.4201">
        <ele>441.380907</ele>
        <time>2021-08-12T09:42:33.252Z</time>
      </trkpt>
      <trkpt lat="42.07345" lon="45.42116">
        <ele>442.50151</ele>
        <time>2021-08-12T09:43:07.210Z</time>
      </trkpt>
      <trkpt lat="42.07397" lon="45.42263">
        <ele>443.926565</ele>
        <time>2021-08-12T09:43:52.586Z</time>
      </trkpt>
      <trkpt lat="42.0742" lon="45.42337">
        <ele>444.555657</ele>
        <time>2021-08-12T09:44:14.076Z</time>
      </trkpt>
      <trkpt lat="42.07432" lon="45.42372">
        <ele>444.861106</ele>
        <time>2021-08-12T09:44:24.635Z</time>
      </trkpt>
      <trkpt lat="42.07559" lon="45.42645">
        <ele>447.748592</ele>
        <time>2021-08-12T09:45:54.961Z</time>
      </trkpt>
      <trkpt lat="42.07564" lon="45.42654">
        <ele>447.875232</ele>
        <time>2021-08-12T09:45:58.506Z</time>
      </trkpt>
      <trkpt lat="42.07568" lon="45.42659">
        <ele>447.956992</ele>
        <time>2021-08-12T09:46:00.672Z</time>
      </trkpt>
      <trkpt lat="42.07608" lon="45.42747">
        <ele>449.112945</ele>
        <time>2021-08-12T09:46:31.166Z</time>
      </trkpt>
      <trkpt lat="42.07676" lon="45.42886">
        <ele>450.77211</ele>
        <time>2021-08-12T09:47:20.385Z</time>
      </trkpt>
      <trkpt lat="42.07725" lon="45.42994">
        <ele>451.833319</ele>
        <time>2021-08-12T09:47:56.304Z</time>
      </trkpt>
      <trkpt lat="42.07758" lon="45.43061">
        <ele>452.143593</ele>
        <time>2021-08-12T09:48:16.374Z</time>
      </trkpt>
      <trkpt lat="42.07766" lon="45.43079">
        <ele>452.11001</ele>
        <time>2021-08-12T09:48:21.516Z</time>
      </trkpt>
      <trkpt lat="42.07767" lon="45.43084">
        <ele>452.101997</ele>
        <time>2021-08-12T09:48:22.578Z</time>
      </trkpt>
      <trkpt lat="42.07785" lon="45.43126">
        <ele>452.024519</ele>
        <time>2021-08-12T09:48:33.406Z</time>
      </trkpt>
      <trkpt lat="42.07821" lon="45.43199">
        <ele>451.884712</ele>
        <time>2021-08-12T09:48:52.209Z</time>
      </trkpt>
      <trkpt lat="42.07834" lon="45.43231">
        <ele>451.826839</ele>
        <time>2021-08-12T09:48:59.586Z</time>
      </trkpt>
      <trkpt lat="42.07838" lon="45.43243">
        <ele>451.803798</ele>
        <time>2021-08-12T09:49:02.465Z</time>
      </trkpt>
      <trkpt lat="42.07842" lon="45.43256">
        <ele>451.776834</ele>
        <time>2021-08-12T09:49:05.187Z</time>
      </trkpt>
      <trkpt lat="42.07864" lon="45.43356">
        <ele>451.57473</ele>
        <time>2021-08-12T09:49:27.251Z</time>
      </trkpt>
      <trkpt lat="42.07885" lon="45.43457">
        <ele>451.372021</ele>
        <time>2021-08-12T09:49:51.530Z</time>
      </trkpt>
      <trkpt lat="42.07904" lon="45.43536">
        <ele>451.680148</ele>
        <time>2021-08-12T09:50:12.726Z</time>
      </trkpt>
      <trkpt lat="42.07922" lon="45.43618">
        <ele>452.086769</ele>
        <time>2021-08-12T09:50:35.122Z</time>
      </trkpt>
      <trkpt lat="42.07949" lon="45.43756">
        <ele>452.567095</ele>
        <time>2021-08-12T09:51:13.196Z</time>
      </trkpt>
      <trkpt lat="42.07954" lon="45.43858">
        <ele>452.685307</ele>
        <time>2021-08-12T09:51:37.366Z</time>
      </trkpt>
      <trkpt lat="42.07956" lon="45.43895">
        <ele>452.728938</ele>
        <time>2021-08-12T09:51:45.948Z</time>
      </trkpt>
      <trkpt lat="42.07925" lon="45.43912">
        <ele>452.779929</ele>
        <time>2021-08-12T09:51:56.024Z</time>
      </trkpt>
      <trkpt lat="42.07793" lon="45.43964">
        <ele>451.922529</ele>
        <time>2021-08-12T09:52:36.754Z</time>
      </trkpt>
      <trkpt lat="42.07689" lon="45.44026">
        <ele>451.03455</ele>
        <time>2021-08-12T09:53:09.702Z</time>
      </trkpt>
      <trkpt lat="42.07686" lon="45.44062">
        <ele>450.802206</ele>
        <time>2021-08-12T09:53:17.460Z</time>
      </trkpt>
      <trkpt lat="42.07659" lon="45.44063">
        <ele>450.563131</ele>
        <time>2021-08-12T09:53:25.309Z</time>
      </trkpt>
      <trkpt lat="42.07643" lon="45.44066">
        <ele>450.424139</ele>
        <time>2021-08-12T09:53:29.808Z</time>
      </trkpt>
      <trkpt lat="42.07563" lon="45.44134">
        <ele>449.548974</ele>
        <time>2021-08-12T09:53:56.189Z</time>
      </trkpt>
      <trkpt lat="42.07511" lon="45.44171">
        <ele>448.981787</ele>
        <time>2021-08-12T09:54:12.773Z</time>
      </trkpt>
      <trkpt lat="42.07509" lon="45.44173">
        <ele>448.960888</ele>
        <time>2021-08-12T09:54:13.276Z</time>
      </trkpt>
      <trkpt lat="42.07446" lon="45.44192">
        <ele>448.332645</ele>
        <time>2021-08-12T09:54:32.091Z</time>
      </trkpt>
      <trkpt lat="42.07434" lon="45.44194">
        <ele>448.290644</ele>
        <time>2021-08-12T09:54:35.385Z</time>
      </trkpt>
      <trkpt lat="42.07436" lon="45.44269">
        <ele>448.097171</ele>
        <time>2021-08-12T09:54:51.953Z</time>
      </trkpt>
      <trkpt lat="42.07435" lon="45.44306">
        <ele>447.99845</ele>
        <time>2021-08-12T09:55:00.513Z</time>
      </trkpt>
      <trkpt lat="42.0743" lon="45.44476">
        <ele>447.466368</ele>
        <time>2021-08-12T09:55:41.270Z</time>
      </trkpt>
      <trkpt lat="42.07427" lon="45.44618">
        <ele>446.861229</ele>
        <time>2021-08-12T09:56:12.941Z</time>
      </trkpt>
      <trkpt lat="42.07361" lon="45.4462">
        <ele>446.255523</ele>
        <time>2021-08-12T09:56:30.462Z</time>
      </trkpt>
      <trkpt lat="42.07277" lon="45.44624">
        <ele>445.208715</ele>
        <time>2021-08-12T09:56:51.981Z</time>
      </trkpt>
      <trkpt lat="42.07236" lon="45.44645">
        <ele>444.656725</ele>
        <time>2021-08-12T09:57:03.376Z</time>
      </trkpt>
      <trkpt lat="42.07222" lon="45.44657">
        <ele>444.445224</ele>
        <time>2021-08-12T09:57:07.687Z</time>
      </trkpt>
      <trkpt lat="42.0722" lon="45.44659">
        <ele>444.416575</ele>
        <time>2021-08-12T09:57:08.323Z</time>
      </trkpt>
      <trkpt lat="42.07204" lon="45.44673">
        <ele>444.256502</ele>
        <time>2021-08-12T09:57:13.670Z</time>
      </trkpt>
      <trkpt lat="42.07181" lon="45.44705">
        <ele>443.984868</ele>
        <time>2021-08-12T09:57:22.784Z</time>
      </trkpt>
      <trkpt lat="42.07142" lon="45.44779">
        <ele>443.435297</ele>
        <time>2021-08-12T09:57:41.360Z</time>
      </trkpt>
      <trkpt lat="42.07112" lon="45.44871">
        <ele>442.839816</ele>
        <time>2021-08-12T09:58:02.556Z</time>
      </trkpt>
      <trkpt lat="42.07012" lon="45.45192">
        <ele>440.810701</ele>
        <time>2021-08-12T09:59:14.717Z</time>
      </trkpt>
      <trkpt lat="42.06966" lon="45.45391">
        <ele>439.439045</ele>
        <time>2021-08-12T09:59:56.631Z</time>
      </trkpt>
      <trkpt lat="42.06911" lon="45.45591">
        <ele>438.033981</ele>
        <time>2021-08-12T10:00:40.153Z</time>
      </trkpt>
      <trkpt lat="42.06891" lon="45.45646">
        <ele>437.664045</ele>
        <time>2021-08-12T10:00:52.827Z</time>
      </trkpt>
      <trkpt lat="42.06854" lon="45.45709">
        <ele>437.182233</ele>
        <time>2021-08-12T10:01:09.319Z</time>
      </trkpt>
      <trkpt lat="42.06686" lon="45.459">
        <ele>435.396271</ele>
        <time>2021-08-12T10:02:10.192Z</time>
      </trkpt>
      <trkpt lat="42.06644" lon="45.45955">
        <ele>434.935851</ele>
        <time>2021-08-12T10:02:26.250Z</time>
      </trkpt>
      <trkpt lat="42.06453" lon="45.46269">
        <ele>432.568905</ele>
        <time>2021-08-12T10:03:50.185Z</time>
      </trkpt>
      <trkpt lat="42.06429" lon="45.4633">
        <ele>432.209332</ele>
        <time>2021-08-12T10:04:03.979Z</time>
      </trkpt>
      <trkpt lat="42.06424" lon="45.46355">
        <ele>432.074756</ele>
        <time>2021-08-12T10:04:09.023Z</time>
      </trkpt>
      <trkpt lat="42.06408" lon="45.465">
        <ele>431.414504</ele>
        <time>2021-08-12T10:04:40.029Z</time>
      </trkpt>
      <trkpt lat="42.06404" lon="45.4655">
        <ele>431.521961</ele>
        <time>2021-08-12T10:04:51.417Z</time>
      </trkpt>
      <trkpt lat="42.06402" lon="45.46573">
        <ele>431.569801</ele>
        <time>2021-08-12T10:04:56.753Z</time>
      </trkpt>
      <trkpt lat="42.06401" lon="45.46589">
        <ele>431.604741</ele>
        <time>2021-08-12T10:05:00.652Z</time>
      </trkpt>
      <trkpt lat="42.06397" lon="45.46635">
        <ele>431.702783</ele>
        <time>2021-08-12T10:05:11.906Z</time>
      </trkpt>
      <trkpt lat="42.06354" lon="45.47161">
        <ele>434.568936</ele>
        <time>2021-08-12T10:07:33.661Z</time>
      </trkpt>
      <trkpt lat="42.06343" lon="45.47215">
        <ele>434.870143</ele>
        <time>2021-08-12T10:07:47.884Z</time>
      </trkpt>
      <trkpt lat="42.06319" lon="45.4728">
        <ele>435.113677</ele>
        <time>2021-08-12T10:08:05.947Z</time>
      </trkpt>
      <trkpt lat="42.06312" lon="45.473">
        <ele>435.189243</ele>
        <time>2021-08-12T10:08:11.588Z</time>
      </trkpt>
      <trkpt lat="42.06305" lon="45.47319">
        <ele>435.2607</ele>
        <time>2021-08-12T10:08:16.824Z</time>
      </trkpt>
      <trkpt lat="42.06249" lon="45.47439">
        <ele>435.744869</ele>
        <time>2021-08-12T10:08:51.732Z</time>
      </trkpt>
      <trkpt lat="42.06208" lon="45.47496">
        <ele>436.055671</ele>
        <time>2021-08-12T10:09:11.840Z</time>
      </trkpt>
      <trkpt lat="42.062" lon="45.47507">
        <ele>436.118987</ele>
        <time>2021-08-12T10:09:15.940Z</time>
      </trkpt>
      <trkpt lat="42.06192" lon="45.4752">
        <ele>436.184734</ele>
        <time>2021-08-12T10:09:20.216Z</time>
      </trkpt>
      <trkpt lat="42.0614" lon="45.47594">
        <ele>436.581939</ele>
        <time>2021-08-12T10:09:46.238Z</time>
      </trkpt>
      <trkpt lat="42.0608" lon="45.47678">
        <ele>436.838328</ele>
        <time>2021-08-12T10:10:15.326Z</time>
      </trkpt>
      <trkpt lat="42.0607" lon="45.47694">
        <ele>436.883058</ele>
        <time>2021-08-12T10:10:20.532Z</time>
      </trkpt>
      <trkpt lat="42.05977" lon="45.47825">
        <ele>437.131433</ele>
        <time>2021-08-12T10:11:03.471Z</time>
      </trkpt>
      <trkpt lat="42.05883" lon="45.47918">
        <ele>437.166318</ele>
        <time>2021-08-12T10:11:39.755Z</time>
      </trkpt>
      <trkpt lat="42.05807" lon="45.4798">
        <ele>437.110107</ele>
        <time>2021-08-12T10:12:06.990Z</time>
      </trkpt>
      <trkpt lat="42.0576" lon="45.48016">
        <ele>437.069418</ele>
        <time>2021-08-12T10:12:23.548Z</time>
      </trkpt>
      <trkpt lat="42.05747" lon="45.48025">
        <ele>437.058088</ele>
        <time>2021-08-12T10:12:28.116Z</time>
      </trkpt>
      <trkpt lat="42.05713" lon="45.48055">
        <ele>437.014054</ele>
        <time>2021-08-12T10:12:40.201Z</time>
      </trkpt>
      <trkpt lat="42.0567" lon="45.48093">
        <ele>436.881074</ele>
        <time>2021-08-12T10:12:56.042Z</time>
      </trkpt>
      <trkpt lat="42.05477" lon="45.48247">
        <ele>436.007861</ele>
        <time>2021-08-12T10:14:02.133Z</time>
      </trkpt>
      <trkpt lat="42.05472" lon="45.48253">
        <ele>435.973349</ele>
        <time>2021-08-12T10:14:04.117Z</time>
      </trkpt>
      <trkpt lat="42.05467" lon="45.48257">
        <ele>435.941093</ele>
        <time>2021-08-12T10:14:05.868Z</time>
      </trkpt>
      <trkpt lat="42.05432" lon="45.48293">
        <ele>435.702675</ele>
        <time>2021-08-12T10:14:18.064Z</time>
      </trkpt>
      <trkpt lat="42.05426" lon="45.48299">
        <ele>435.666575</ele>
        <time>2021-08-12T10:14:19.669Z</time>
      </trkpt>
      <trkpt lat="42.05388" lon="45.48351">
        <ele>435.333806</ele>
        <time>2021-08-12T10:14:34.983Z</time>
      </trkpt>
      <trkpt lat="42.0538" lon="45.48368">
        <ele>435.235833</ele>
        <time>2021-08-12T10:14:38.988Z</time>
      </trkpt>
      <trkpt lat="42.05366" lon="45.48396">
        <ele>435.078461</ele>
        <time>2021-08-12T10:14:46.149Z</time>
      </trkpt>
      <trkpt lat="42.05345" lon="45.48451">
        <ele>434.787264</ele>
        <time>2021-08-12T10:14:58.675Z</time>
      </trkpt>
      <trkpt lat="42.05333" lon="45.48483">
        <ele>434.620563</ele>
        <time>2021-08-12T10:15:06.361Z</time>
      </trkpt>
      <trkpt lat="42.05324" lon="45.48513">
        <ele>434.466847</ele>
        <time>2021-08-12T10:15:13.604Z</time>
      </trkpt>
      <trkpt lat="42.05324" lon="45.48514">
        <ele>434.461365</ele>
        <time>2021-08-12T10:15:13.912Z</time>
      </trkpt>
      <trkpt lat="42.05297" lon="45.48589">
        <ele>434.658024</ele>
        <time>2021-08-12T10:15:33.572Z</time>
      </trkpt>
      <trkpt lat="42.05296" lon="45.48594">
        <ele>434.671374</ele>
        <time>2021-08-12T10:15:35.139Z</time>
      </trkpt>
      <trkpt lat="42.05255" lon="45.48715">
        <ele>434.983097</ele>
        <time>2021-08-12T10:16:08.418Z</time>
      </trkpt>
      <trkpt lat="42.05243" lon="45.48744">
        <ele>435.057946</ele>
        <time>2021-08-12T10:16:17.220Z</time>
      </trkpt>
      <trkpt lat="42.0524" lon="45.48752">
        <ele>435.075212</ele>
        <time>2021-08-12T10:16:19.494Z</time>
      </trkpt>
      <trkpt lat="42.05229" lon="45.48779">
        <ele>435.134131</ele>
        <time>2021-08-12T10:16:27.459Z</time>
      </trkpt>
      <trkpt lat="42.05133" lon="45.48933">
        <ele>435.470514</ele>
        <time>2021-08-12T10:17:15.786Z</time>
      </trkpt>
      <trkpt lat="42.0512" lon="45.48957">
        <ele>435.38926</ele>
        <time>2021-08-12T10:17:22.511Z</time>
      </trkpt>
      <trkpt lat="42.05117" lon="45.48962">
        <ele>435.374506</ele>
        <time>2021-08-12T10:17:23.735Z</time>
      </trkpt>
      <trkpt lat="42.05099" lon="45.48997">
        <ele>435.259189</ele>
        <time>2021-08-12T10:17:33.151Z</time>
      </trkpt>
      <trkpt lat="42.0508" lon="45.49037">
        <ele>435.133316</ele>
        <time>2021-08-12T10:17:43.334Z</time>
      </trkpt>
      <trkpt lat="42.05055" lon="45.49073">
        <ele>435.003325</ele>
        <time>2021-08-12T10:17:53.777Z</time>
      </trkpt>
      <trkpt lat="42.05041" lon="45.49095">
        <ele>434.926262</ele>
        <time>2021-08-12T10:17:59.932Z</time>
      </trkpt>
      <trkpt lat="42.05009" lon="45.49138">
        <ele>434.65671</ele>
        <time>2021-08-12T10:18:12.884Z</time>
      </trkpt>
      <trkpt lat="42.04979" lon="45.49194">
        <ele>434.264364</ele>
        <time>2021-08-12T10:18:27.319Z</time>
      </trkpt>
      <trkpt lat="42.04963" lon="45.49228">
        <ele>434.035356</ele>
        <time>2021-08-12T10:18:35.647Z</time>
      </trkpt>
      <trkpt lat="42.04958" lon="45.49239">
        <ele>433.961797</ele>
        <time>2021-08-12T10:18:38.342Z</time>
      </trkpt>
      <trkpt lat="42.04938" lon="45.49275">
        <ele>433.702556</ele>
        <time>2021-08-12T10:18:47.662Z</time>
      </trkpt>
      <trkpt lat="42.04891" lon="45.49371">
        <ele>432.995192</ele>
        <time>2021-08-12T10:19:10.638Z</time>
      </trkpt>
      <trkpt lat="42.04857" lon="45.49448">
        <ele>432.420547</ele>
        <time>2021-08-12T10:19:28.599Z</time>
      </trkpt>
      <trkpt lat="42.04838" lon="45.49487">
        <ele>432.124602</ele>
        <time>2021-08-12T10:19:38.096Z</time>
      </trkpt>
      <trkpt lat="42.0481" lon="45.49566">
        <ele>431.892352</ele>
        <time>2021-08-12T10:19:56.658Z</time>
      </trkpt>
      <trkpt lat="42.04772" lon="45.49674">
        <ele>431.836596</ele>
        <time>2021-08-12T10:20:23.578Z</time>
      </trkpt>
      <trkpt lat="42.04751" lon="45.4973">
        <ele>431.806937</ele>
        <time>2021-08-12T10:20:39.654Z</time>
      </trkpt>
      <trkpt lat="42.04706" lon="45.49849">
        <ele>432.494962</ele>
        <time>2021-08-12T10:21:14.577Z</time>
      </trkpt>
      <trkpt lat="42.04698" lon="45.4987">
        <ele>432.619887</ele>
        <time>2021-08-12T10:21:20.878Z</time>
      </trkpt>
      <trkpt lat="42.04679" lon="45.49916">
        <ele>432.902016</ele>
        <time>2021-08-12T10:21:34.731Z</time>
      </trkpt>
      <trkpt lat="42.04673" lon="45.4993">
        <ele>432.984772</ele>
        <time>2021-08-12T10:21:38.725Z</time>
      </trkpt>
      <trkpt lat="42.04657" lon="45.49973">
        <ele>433.244127</ele>
        <time>2021-08-12T10:21:51.513Z</time>
      </trkpt>
      <trkpt lat="42.04629" lon="45.5004">
        <ele>433.662685</ele>
        <time>2021-08-12T10:22:12.484Z</time>
      </trkpt>
      <trkpt lat="42.04615" lon="45.50117">
        <ele>434.094192</ele>
        <time>2021-08-12T10:22:33.523Z</time>
      </trkpt>
      <trkpt lat="42.04611" lon="45.50129">
        <ele>434.163025</ele>
        <time>2021-08-12T10:22:36.827Z</time>
      </trkpt>
      <trkpt lat="42.04607" lon="45.50133">
        <ele>434.199066</ele>
        <time>2021-08-12T10:22:38.529Z</time>
      </trkpt>
      <trkpt lat="42.04611" lon="45.50204">
        <ele>434.447735</ele>
        <time>2021-08-12T10:22:56.517Z</time>
      </trkpt>
      <trkpt lat="42.04597" lon="45.50266">
        <ele>434.52487</ele>
        <time>2021-08-12T10:23:12.478Z</time>
      </trkpt>
      <trkpt lat="42.04573" lon="45.50311">
        <ele>434.589084</ele>
        <time>2021-08-12T10:23:25.789Z</time>
      </trkpt>
      <trkpt lat="42.04518" lon="45.50382">
        <ele>434.703439</ele>
        <time>2021-08-12T10:23:50.067Z</time>
      </trkpt>
      <trkpt lat="42.04507" lon="45.50425">
        <ele>434.735034</ele>
        <time>2021-08-12T10:24:00.704Z</time>
      </trkpt>
      <trkpt lat="42.04482" lon="45.50421">
        <ele>434.758192</ele>
        <time>2021-08-12T10:24:08.526Z</time>
      </trkpt>
      <trkpt lat="42.04488" lon="45.50519">
        <ele>434.825151</ele>
        <time>2021-08-12T10:24:32.469Z</time>
      </trkpt>
      <trkpt lat="42.04493" lon="45.50593">
        <ele>434.93086</ele>
        <time>2021-08-12T10:24:51.906Z</time>
      </trkpt>
      <trkpt lat="42.04502" lon="45.50652">
        <ele>435.123686</ele>
        <time>2021-08-12T10:25:08.183Z</time>
      </trkpt>
      <trkpt lat="42.04502" lon="45.50693">
        <ele>435.251733</ele>
        <time>2021-08-12T10:25:18.763Z</time>
      </trkpt>
      <trkpt lat="42.04497" lon="45.50717">
        <ele>435.329935</ele>
        <time>2021-08-12T10:25:25.149Z</time>
      </trkpt>
      <trkpt lat="42.04491" lon="45.50753">
        <ele>435.446775</ele>
        <time>2021-08-12T10:25:34.844Z</time>
      </trkpt>
      <trkpt lat="42.04483" lon="45.50792">
        <ele>435.57456</ele>
        <time>2021-08-12T10:25:45.173Z</time>
      </trkpt>
      <trkpt lat="42.04471" lon="45.50883">
        <ele>435.745886</ele>
        <time>2021-08-12T10:26:08.620Z</time>
      </trkpt>
      <trkpt lat="42.04496" lon="45.50894">
        <ele>435.802396</ele>
        <time>2021-08-12T10:26:17.579Z</time>
      </trkpt>
      <trkpt lat="42.04545" lon="45.50921">
        <ele>435.912946</ele>
        <time>2021-08-12T10:26:34.806Z</time>
      </trkpt>
      <trkpt lat="42.04542" lon="45.51008">
        <ele>436.06098</ele>
        <time>2021-08-12T10:26:56.623Z</time>
      </trkpt>
      <trkpt lat="42.04544" lon="45.51116">
        <ele>436.271399</ele>
        <time>2021-08-12T10:27:24.267Z</time>
      </trkpt>
      <trkpt lat="42.04545" lon="45.51219">
        <ele>436.471948</ele>
        <time>2021-08-12T10:27:50.361Z</time>
      </trkpt>
      <trkpt lat="42.04541" lon="45.51259">
        <ele>436.353051</ele>
        <time>2021-08-12T10:28:00.173Z</time>
      </trkpt>
      <trkpt lat="42.04537" lon="45.51299">
        <ele>436.214038</ele>
        <time>2021-08-12T10:28:09.715Z</time>
      </trkpt>
      <trkpt lat="42.04517" lon="45.51404">
        <ele>435.838277</ele>
        <time>2021-08-12T10:28:34.230Z</time>
      </trkpt>
      <trkpt lat="42.04392" lon="45.51721">
        <ele>432.905071</ele>
        <time>2021-08-12T10:29:48.318Z</time>
      </trkpt>
      <trkpt lat="42.04336" lon="45.51834">
        <ele>431.50675</ele>
        <time>2021-08-12T10:30:15.609Z</time>
      </trkpt>
      <trkpt lat="42.04296" lon="45.51897">
        <ele>430.571161</ele>
        <time>2021-08-12T10:30:32.156Z</time>
      </trkpt>
      <trkpt lat="42.04281" lon="45.51937">
        <ele>430.016519</ele>
        <time>2021-08-12T10:30:40.937Z</time>
      </trkpt>
      <trkpt lat="42.04235" lon="45.52029">
        <ele>428.635762</ele>
        <time>2021-08-12T10:31:02.725Z</time>
      </trkpt>
      <trkpt lat="42.04177" lon="45.52203">
        <ele>426.348588</ele>
        <time>2021-08-12T10:31:40.121Z</time>
      </trkpt>
      <trkpt lat="42.04167" lon="45.52216">
        <ele>426.129956</ele>
        <time>2021-08-12T10:31:43.707Z</time>
      </trkpt>
      <trkpt lat="42.04158" lon="45.52228">
        <ele>425.936072</ele>
        <time>2021-08-12T10:31:47.134Z</time>
      </trkpt>
      <trkpt lat="42.0414" lon="45.52233">
        <ele>425.637273</ele>
        <time>2021-08-12T10:31:52.287Z</time>
      </trkpt>
      <trkpt lat="42.04109" lon="45.52228">
        <ele>425.149952</ele>
        <time>2021-08-12T10:32:00.948Z</time>
      </trkpt>
      <trkpt lat="42.03973" lon="45.52188">
        <ele>423.551906</ele>
        <time>2021-08-12T10:32:39.994Z</time>
      </trkpt>
      <trkpt lat="42.03946" lon="45.52182">
        <ele>423.244177</ele>
        <time>2021-08-12T10:32:47.440Z</time>
      </trkpt>
      <trkpt lat="42.03905" lon="45.52235">
        <ele>422.452687</ele>
        <time>2021-08-12T10:33:02.251Z</time>
      </trkpt>
      <trkpt lat="42.03837" lon="45.52321">
        <ele>421.078581</ele>
        <time>2021-08-12T10:33:26.116Z</time>
      </trkpt>
      <trkpt lat="42.03503" lon="45.52753">
        <ele>414.033211</ele>
        <time>2021-08-12T10:35:24.944Z</time>
      </trkpt>
      <trkpt lat="42.03492" lon="45.52766">
        <ele>413.822536</ele>
        <time>2021-08-12T10:35:28.493Z</time>
      </trkpt>
      <trkpt lat="42.02902" lon="45.53529">
        <ele>401.73256</ele>
        <time>2021-08-12T10:38:59.478Z</time>
      </trkpt>
      <trkpt lat="42.02462" lon="45.54112">
        <ele>393.528184</ele>
        <time>2021-08-12T10:41:40.436Z</time>
      </trkpt>
      <trkpt lat="42.02434" lon="45.54148">
        <ele>393.080341</ele>
        <time>2021-08-12T10:41:50.651Z</time>
      </trkpt>
      <trkpt lat="42.02415" lon="45.54172">
        <ele>392.777616</ele>
        <time>2021-08-12T10:41:57.578Z</time>
      </trkpt>
      <trkpt lat="42.02273" lon="45.54351">
        <ele>390.719747</ele>
        <time>2021-08-12T10:42:50.454Z</time>
      </trkpt>
      <trkpt lat="42.01477" lon="45.5539">
        <ele>377.348912</ele>
        <time>2021-08-12T10:47:43.204Z</time>
      </trkpt>
      <trkpt lat="42.00731" lon="45.56331">
        <ele>366.911651</ele>
        <time>2021-08-12T10:52:19.760Z</time>
      </trkpt>
      <trkpt lat="42.00016" lon="45.57249">
        <ele>355.130382</ele>
        <time>2021-08-12T10:56:40.468Z</time>
      </trkpt>
      <trkpt lat="41.99953" lon="45.57336">
        <ele>354.482618</ele>
        <time>2021-08-12T10:57:06.210Z</time>
      </trkpt>
      <trkpt lat="41.99936" lon="45.57358">
        <ele>354.313314</ele>
        <time>2021-08-12T10:57:13.038Z</time>
      </trkpt>
      <trkpt lat="41.99716" lon="45.57638">
        <ele>352.380333</ele>
        <time>2021-08-12T10:58:38.765Z</time>
      </trkpt>
      <trkpt lat="41.99499" lon="45.57912">
        <ele>350.510658</ele>
        <time>2021-08-12T11:00:02.372Z</time>
      </trkpt>
      <trkpt lat="41.99159" lon="45.58341">
        <ele>348.760167</ele>
        <time>2021-08-12T11:02:19.181Z</time>
      </trkpt>
      <trkpt lat="41.99083" lon="45.58434">
        <ele>348.557498</ele>
        <time>2021-08-12T11:02:49.951Z</time>
      </trkpt>
      <trkpt lat="41.99063" lon="45.58457">
        <ele>348.529816</ele>
        <time>2021-08-12T11:02:58.150Z</time>
      </trkpt>
      <trkpt lat="41.9906" lon="45.58458">
        <ele>348.52707</ele>
        <time>2021-08-12T11:02:58.933Z</time>
      </trkpt>
      <trkpt lat="41.99058" lon="45.5846">
        <ele>348.524384</ele>
        <time>2021-08-12T11:02:59.621Z</time>
      </trkpt>
      <trkpt lat="41.99056" lon="45.58469">
        <ele>348.516589</ele>
        <time>2021-08-12T11:03:01.981Z</time>
      </trkpt>
      <trkpt lat="41.99057" lon="45.58473">
        <ele>348.513862</ele>
        <time>2021-08-12T11:03:02.680Z</time>
      </trkpt>
      <trkpt lat="41.99059" lon="45.58475">
        <ele>348.511117</ele>
        <time>2021-08-12T11:03:03.519Z</time>
      </trkpt>
      <trkpt lat="41.99061" lon="45.58477">
        <ele>348.508299</ele>
        <time>2021-08-12T11:03:04.358Z</time>
      </trkpt>
      <trkpt lat="41.99063" lon="45.58478">
        <ele>348.505531</ele>
        <time>2021-08-12T11:03:05.204Z</time>
      </trkpt>
      <trkpt lat="41.99086" lon="45.58493">
        <ele>348.479108</ele>
        <time>2021-08-12T11:03:13.095Z</time>
      </trkpt>
      <trkpt lat="42.00149" lon="45.59297">
        <ele>348.834025</ele>
        <time>2021-08-12T11:09:36.677Z</time>
      </trkpt>
      <trkpt lat="42.0023" lon="45.59367">
        <ele>348.569652</ele>
        <time>2021-08-12T11:10:04.506Z</time>
      </trkpt>
      <trkpt lat="42.00252" lon="45.59402">
        <ele>348.343978</ele>
        <time>2021-08-12T11:10:14.134Z</time>
      </trkpt>
      <trkpt lat="42.00258" lon="45.59426">
        <ele>348.223506</ele>
        <time>2021-08-12T11:10:19.332Z</time>
      </trkpt>
      <trkpt lat="42.00261" lon="45.59442">
        <ele>348.138945</ele>
        <time>2021-08-12T11:10:22.798Z</time>
      </trkpt>
      <trkpt lat="42.00253" lon="45.59489">
        <ele>347.903552</ele>
        <time>2021-08-12T11:10:32.707Z</time>
      </trkpt>
      <trkpt lat="42.00214" lon="45.59686">
        <ele>347.049554</ele>
        <time>2021-08-12T11:11:15.369Z</time>
      </trkpt>
      <trkpt lat="42.00196" lon="45.59786">
        <ele>346.680527</ele>
        <time>2021-08-12T11:11:37.748Z</time>
      </trkpt>
      <trkpt lat="42.00147" lon="45.60029">
        <ele>346.260715</ele>
        <time>2021-08-12T11:12:34.122Z</time>
      </trkpt>
      <trkpt lat="42.00119" lon="45.60173">
        <ele>346.355299</ele>
        <time>2021-08-12T11:13:08.951Z</time>
      </trkpt>
      <trkpt lat="42.00086" lon="45.60344">
        <ele>346.699487</ele>
        <time>2021-08-12T11:13:52.029Z</time>
      </trkpt>
      <trkpt lat="42.00079" lon="45.60409">
        <ele>346.942132</ele>
        <time>2021-08-12T11:14:07.996Z</time>
      </trkpt>
      <trkpt lat="42.00017" lon="45.6155">
        <ele>352.773173</ele>
        <time>2021-08-12T11:19:05.428Z</time>
      </trkpt>
      <trkpt lat="41.99982" lon="45.62226">
        <ele>359.070363</ele>
        <time>2021-08-12T11:22:18.624Z</time>
      </trkpt>
      <trkpt lat="41.99975" lon="45.62348">
        <ele>360.779927</ele>
        <time>2021-08-12T11:22:56.656Z</time>
      </trkpt>
      <trkpt lat="41.99892" lon="45.64133">
        <ele>388.719125</ele>
        <time>2021-08-12T11:32:28.440Z</time>
      </trkpt>
      <trkpt lat="41.99892" lon="45.64138">
        <ele>388.800243</ele>
        <time>2021-08-12T11:32:30.600Z</time>
      </trkpt>
      <trkpt lat="41.99896" lon="45.64195">
        <ele>389.823404</ele>
        <time>2021-08-12T11:32:49.603Z</time>
      </trkpt>
      <trkpt lat="41.99947" lon="45.64499">
        <ele>395.502341</ele>
        <time>2021-08-12T11:34:33.069Z</time>
      </trkpt>
      <trkpt lat="41.99985" lon="45.64739">
        <ele>400.375846</ele>
        <time>2021-08-12T11:35:56.638Z</time>
      </trkpt>
      <trkpt lat="42.00023" lon="45.64964">
        <ele>405.430934</ele>
        <time>2021-08-12T11:37:19.368Z</time>
      </trkpt>
      <trkpt lat="42.00067" lon="45.65226">
        <ele>411.376568</ele>
        <time>2021-08-12T11:38:56.765Z</time>
      </trkpt>
      <trkpt lat="42.00075" lon="45.65298">
        <ele>412.938853</ele>
        <time>2021-08-12T11:39:21.964Z</time>
      </trkpt>
      <trkpt lat="42.00067" lon="45.65344">
        <ele>413.839183</ele>
        <time>2021-08-12T11:39:37.946Z</time>
      </trkpt>
      <trkpt lat="42.00027" lon="45.65434">
        <ele>415.442018</ele>
        <time>2021-08-12T11:40:11.470Z</time>
      </trkpt>
      <trkpt lat="42" lon="45.65493">
        <ele>416.50393</ele>
        <time>2021-08-12T11:40:32.713Z</time>
      </trkpt>
      <trkpt lat="41.99984" lon="45.65555">
        <ele>417.500929</ele>
        <time>2021-08-12T11:40:52.590Z</time>
      </trkpt>
      <trkpt lat="41.99987" lon="45.65609">
        <ele>418.329088</ele>
        <time>2021-08-12T11:41:09.574Z</time>
      </trkpt>
      <trkpt lat="42.00011" lon="45.65709">
        <ele>419.942786</ele>
        <time>2021-08-12T11:41:42.805Z</time>
      </trkpt>
      <trkpt lat="42.00027" lon="45.65774">
        <ele>421.002091</ele>
        <time>2021-08-12T11:42:05.261Z</time>
      </trkpt>
      <trkpt lat="42.00051" lon="45.65863">
        <ele>422.821266</ele>
        <time>2021-08-12T11:42:37.143Z</time>
      </trkpt>
      <trkpt lat="42.0008" lon="45.65926">
        <ele>424.247447</ele>
        <time>2021-08-12T11:43:02.466Z</time>
      </trkpt>
      <trkpt lat="42.00115" lon="45.65984">
        <ele>425.689081</ele>
        <time>2021-08-12T11:43:27.880Z</time>
      </trkpt>
      <trkpt lat="42.00203" lon="45.66091">
        <ele>429.034308</ele>
        <time>2021-08-12T11:44:24.242Z</time>
      </trkpt>
      <trkpt lat="42.0021" lon="45.661">
        <ele>429.288616</ele>
        <time>2021-08-12T11:44:28.613Z</time>
      </trkpt>
      <trkpt lat="42.00215" lon="45.66105">
        <ele>429.468142</ele>
        <time>2021-08-12T11:44:31.183Z</time>
      </trkpt>
      <trkpt lat="42.00241" lon="45.66137">
        <ele>430.474023</ele>
        <time>2021-08-12T11:44:47.532Z</time>
      </trkpt>
      <trkpt lat="42.00248" lon="45.66145">
        <ele>430.732748</ele>
        <time>2021-08-12T11:44:51.587Z</time>
      </trkpt>
      <trkpt lat="42.00258" lon="45.6616">
        <ele>431.207233</ele>
        <time>2021-08-12T11:44:59.131Z</time>
      </trkpt>
      <trkpt lat="42.00267" lon="45.66177">
        <ele>431.679677</ele>
        <time>2021-08-12T11:45:05.646Z</time>
      </trkpt>
      <trkpt lat="42.00271" lon="45.66187">
        <ele>431.957334</ele>
        <time>2021-08-12T11:45:10.027Z</time>
      </trkpt>
      <trkpt lat="42.00274" lon="45.66194">
        <ele>432.128272</ele>
        <time>2021-08-12T11:45:12.993Z</time>
      </trkpt>
      <trkpt lat="42.00282" lon="45.66242">
        <ele>433.298898</ele>
        <time>2021-08-12T11:45:31.171Z</time>
      </trkpt>
      <trkpt lat="42.00281" lon="45.66282">
        <ele>434.21741</ele>
        <time>2021-08-12T11:45:45.613Z</time>
      </trkpt>
      <trkpt lat="42.00274" lon="45.66318">
        <ele>435.091822</ele>
        <time>2021-08-12T11:45:59.297Z</time>
      </trkpt>
      <trkpt lat="42.00262" lon="45.66344">
        <ele>435.792103</ele>
        <time>2021-08-12T11:46:11.088Z</time>
      </trkpt>
      <trkpt lat="42.00233" lon="45.66405">
        <ele>437.505227</ele>
        <time>2021-08-12T11:46:37.590Z</time>
      </trkpt>
      <trkpt lat="42.00232" lon="45.66407">
        <ele>437.565589</ele>
        <time>2021-08-12T11:46:38.547Z</time>
      </trkpt>
      <trkpt lat="42.00192" lon="45.66489">
        <ele>439.866608</ele>
        <time>2021-08-12T11:47:14.424Z</time>
      </trkpt>
      <trkpt lat="42.00157" lon="45.66563">
        <ele>441.929134</ele>
        <time>2021-08-12T11:47:46.550Z</time>
      </trkpt>
      <trkpt lat="42.00104" lon="45.66677">
        <ele>444.384026</ele>
        <time>2021-08-12T11:48:31.798Z</time>
      </trkpt>
      <trkpt lat="42.00093" lon="45.66713">
        <ele>445.084139</ele>
        <time>2021-08-12T11:48:44.062Z</time>
      </trkpt>
      <trkpt lat="42.00087" lon="45.66737">
        <ele>445.536826</ele>
        <time>2021-08-12T11:48:52.635Z</time>
      </trkpt>
      <trkpt lat="42.00066" lon="45.66844">
        <ele>447.195886</ele>
        <time>2021-08-12T11:49:28.065Z</time>
      </trkpt>
      <trkpt lat="42.00061" lon="45.66872">
        <ele>447.555496</ele>
        <time>2021-08-12T11:49:37.730Z</time>
      </trkpt>
      <trkpt lat="42.0006" lon="45.66878">
        <ele>447.62515</ele>
        <time>2021-08-12T11:49:39.351Z</time>
      </trkpt>
      <trkpt lat="42.0006" lon="45.66893">
        <ele>447.822935</ele>
        <time>2021-08-12T11:49:43.635Z</time>
      </trkpt>
      <trkpt lat="42.00061" lon="45.66903">
        <ele>447.951716</ele>
        <time>2021-08-12T11:49:46.630Z</time>
      </trkpt>
      <trkpt lat="42.00062" lon="45.66909">
        <ele>448.026238</ele>
        <time>2021-08-12T11:49:48.936Z</time>
      </trkpt>
      <trkpt lat="42.00084" lon="45.66985">
        <ele>449.045787</ele>
        <time>2021-08-12T11:50:13.089Z</time>
      </trkpt>
      <trkpt lat="42.00084" lon="45.67">
        <ele>449.233718</ele>
        <time>2021-08-12T11:50:17.810Z</time>
      </trkpt>
      <trkpt lat="42.00082" lon="45.67011">
        <ele>449.374008</ele>
        <time>2021-08-12T11:50:21.084Z</time>
      </trkpt>
      <trkpt lat="42.00074" lon="45.67038">
        <ele>449.402359</ele>
        <time>2021-08-12T11:50:28.230Z</time>
      </trkpt>
      <trkpt lat="42.00053" lon="45.67088">
        <ele>449.343414</ele>
        <time>2021-08-12T11:50:43.406Z</time>
      </trkpt>
      <trkpt lat="42.00013" lon="45.67166">
        <ele>449.246038</ele>
        <time>2021-08-12T11:51:03.947Z</time>
      </trkpt>
      <trkpt lat="41.99999" lon="45.67176">
        <ele>449.224347</ele>
        <time>2021-08-12T11:51:08.369Z</time>
      </trkpt>
      <trkpt lat="41.9997" lon="45.67192">
        <ele>449.182112</ele>
        <time>2021-08-12T11:51:16.691Z</time>
      </trkpt>
      <trkpt lat="41.99917" lon="45.67219">
        <ele>448.519503</ele>
        <time>2021-08-12T11:51:31.620Z</time>
      </trkpt>
      <trkpt lat="41.99899" lon="45.67228">
        <ele>448.288158</ele>
        <time>2021-08-12T11:51:36.516Z</time>
      </trkpt>
      <trkpt lat="41.99875" lon="45.6724">
        <ele>447.979088</ele>
        <time>2021-08-12T11:51:43.272Z</time>
      </trkpt>
      <trkpt lat="41.9985" lon="45.67257">
        <ele>447.63949</ele>
        <time>2021-08-12T11:51:50.501Z</time>
      </trkpt>
      <trkpt lat="41.99815" lon="45.67291">
        <ele>447.122066</ele>
        <time>2021-08-12T11:52:01.958Z</time>
      </trkpt>
      <trkpt lat="41.998" lon="45.67306">
        <ele>446.902459</ele>
        <time>2021-08-12T11:52:06.954Z</time>
      </trkpt>
      <trkpt lat="41.99746" lon="45.67355">
        <ele>446.170546</ele>
        <time>2021-08-12T11:52:24.846Z</time>
      </trkpt>
      <trkpt lat="41.99573" lon="45.67468">
        <ele>443.460909</ele>
        <time>2021-08-12T11:53:15.392Z</time>
      </trkpt>
      <trkpt lat="41.99525" lon="45.67499">
        <ele>442.536824</ele>
        <time>2021-08-12T11:53:28.445Z</time>
      </trkpt>
      <trkpt lat="41.99254" lon="45.67671">
        <ele>435.81078</ele>
        <time>2021-08-12T11:54:40.173Z</time>
      </trkpt>
      <trkpt lat="41.99116" lon="45.67756">
        <ele>432.391091</ele>
        <time>2021-08-12T11:55:17.180Z</time>
      </trkpt>
      <trkpt lat="41.98823" lon="45.67938">
        <ele>424.8911</ele>
        <time>2021-08-12T11:56:34.551Z</time>
      </trkpt>
      <trkpt lat="41.98669" lon="45.68041">
        <ele>421.35246</ele>
        <time>2021-08-12T11:57:16.673Z</time>
      </trkpt>
      <trkpt lat="41.98635" lon="45.68064">
        <ele>420.80359</ele>
        <time>2021-08-12T11:57:26.218Z</time>
      </trkpt>
      <trkpt lat="41.98598" lon="45.68105">
        <ele>420.099432</ele>
        <time>2021-08-12T11:57:38.605Z</time>
      </trkpt>
      <trkpt lat="41.98453" lon="45.68314">
        <ele>417.470245</ele>
        <time>2021-08-12T11:58:34.595Z</time>
      </trkpt>
      <trkpt lat="41.98425" lon="45.68355">
        <ele>417.017868</ele>
        <time>2021-08-12T11:58:45.872Z</time>
      </trkpt>
      <trkpt lat="41.98405" lon="45.68382">
        <ele>416.83464</ele>
        <time>2021-08-12T11:58:53.630Z</time>
      </trkpt>
      <trkpt lat="41.98264" lon="45.68561">
        <ele>416.568443</ele>
        <time>2021-08-12T11:59:51.488Z</time>
      </trkpt>
      <trkpt lat="41.98215" lon="45.68623">
        <ele>417.151179</ele>
        <time>2021-08-12T12:00:15.996Z</time>
      </trkpt>
      <trkpt lat="41.98134" lon="45.68724">
        <ele>418.138564</ele>
        <time>2021-08-12T12:00:58.670Z</time>
      </trkpt>
      <trkpt lat="41.98106" lon="45.68755">
        <ele>418.491411</ele>
        <time>2021-08-12T12:01:12.757Z</time>
      </trkpt>
      <trkpt lat="41.98098" lon="45.68769">
        <ele>418.619707</ele>
        <time>2021-08-12T12:01:18.283Z</time>
      </trkpt>
      <trkpt lat="41.98063" lon="45.68816">
        <ele>419.098236</ele>
        <time>2021-08-12T12:01:36.577Z</time>
      </trkpt>
      <trkpt lat="41.97887" lon="45.69158">
        <ele>419.954362</ele>
        <time>2021-08-12T12:03:17.577Z</time>
      </trkpt>
      <trkpt lat="41.97702" lon="45.69519">
        <ele>418.602393</ele>
        <time>2021-08-12T12:04:51.342Z</time>
      </trkpt>
      <trkpt lat="41.97692" lon="45.69538">
        <ele>418.507596</ele>
        <time>2021-08-12T12:04:56.234Z</time>
      </trkpt>
      <trkpt lat="41.97381" lon="45.70166">
        <ele>415.04221</ele>
        <time>2021-08-12T12:07:36.330Z</time>
      </trkpt>
      <trkpt lat="41.9728" lon="45.70368">
        <ele>412.936603</ele>
        <time>2021-08-12T12:08:24.249Z</time>
      </trkpt>
      <trkpt lat="41.97126" lon="45.70672">
        <ele>408.368117</ele>
        <time>2021-08-12T12:09:33.152Z</time>
      </trkpt>
      <trkpt lat="41.96664" lon="45.71603">
        <ele>392.712216</ele>
        <time>2021-08-12T12:13:00.306Z</time>
      </trkpt>
      <trkpt lat="41.96589" lon="45.71753">
        <ele>390.155912</ele>
        <time>2021-08-12T12:13:33.954Z</time>
      </trkpt>
      <trkpt lat="41.96497" lon="45.71936">
        <ele>386.892432</ele>
        <time>2021-08-12T12:14:14.437Z</time>
      </trkpt>
      <trkpt lat="41.96246" lon="45.72436">
        <ele>377.231206</ele>
        <time>2021-08-12T12:16:03.586Z</time>
      </trkpt>
      <trkpt lat="41.95645" lon="45.73651">
        <ele>354.595879</ele>
        <time>2021-08-12T12:20:29.196Z</time>
      </trkpt>
      <trkpt lat="41.95527" lon="45.73889">
        <ele>351.100454</ele>
        <time>2021-08-12T12:21:23.857Z</time>
      </trkpt>
      <trkpt lat="41.9547" lon="45.74004">
        <ele>349.459688</ele>
        <time>2021-08-12T12:21:50.184Z</time>
      </trkpt>
      <trkpt lat="41.95195" lon="45.74565">
        <ele>341.528552</ele>
        <time>2021-08-12T12:23:56.882Z</time>
      </trkpt>
      <trkpt lat="41.95009" lon="45.74932">
        <ele>337.82478</ele>
        <time>2021-08-12T12:25:25.317Z</time>
      </trkpt>
      <trkpt lat="41.94996" lon="45.74961">
        <ele>337.655811</ele>
        <time>2021-08-12T12:25:32.215Z</time>
      </trkpt>
      <trkpt lat="41.94989" lon="45.74976">
        <ele>337.56898</ele>
        <time>2021-08-12T12:25:35.785Z</time>
      </trkpt>
      <trkpt lat="41.94986" lon="45.74981">
        <ele>337.5416</ele>
        <time>2021-08-12T12:25:36.913Z</time>
      </trkpt>
      <trkpt lat="41.94977" lon="45.75">
        <ele>337.43018</ele>
        <time>2021-08-12T12:25:41.475Z</time>
      </trkpt>
      <trkpt lat="41.94973" lon="45.75009">
        <ele>337.377854</ele>
        <time>2021-08-12T12:25:43.614Z</time>
      </trkpt>
      <trkpt lat="41.94685" lon="45.75598">
        <ele>336.871268</ele>
        <time>2021-08-12T12:28:21.205Z</time>
      </trkpt>
      <trkpt lat="41.94529" lon="45.7591">
        <ele>341.40847</ele>
        <time>2021-08-12T12:30:19.636Z</time>
      </trkpt>
      <trkpt lat="41.94339" lon="45.7629">
        <ele>348.110118</ele>
        <time>2021-08-12T12:32:43.614Z</time>
      </trkpt>
      <trkpt lat="41.94142" lon="45.76695">
        <ele>354.0627</ele>
        <time>2021-08-12T12:35:10.205Z</time>
      </trkpt>
      <trkpt lat="41.9412" lon="45.76739">
        <ele>354.4709</ele>
        <time>2021-08-12T12:35:24.398Z</time>
      </trkpt>
      <trkpt lat="41.94085" lon="45.76809">
        <ele>354.886591</ele>
        <time>2021-08-12T12:35:46.827Z</time>
      </trkpt>
      <trkpt lat="41.94028" lon="45.76929">
        <ele>355.544599</ele>
        <time>2021-08-12T12:36:22.209Z</time>
      </trkpt>
      <trkpt lat="41.93823" lon="45.77417">
        <ele>356.722421</ele>
        <time>2021-08-12T12:38:38.385Z</time>
      </trkpt>
      <trkpt lat="41.93807" lon="45.77456">
        <ele>356.822438</ele>
        <time>2021-08-12T12:38:49.478Z</time>
      </trkpt>
      <trkpt lat="41.93717" lon="45.77674">
        <ele>357.478462</ele>
        <time>2021-08-12T12:39:50.728Z</time>
      </trkpt>
      <trkpt lat="41.93649" lon="45.77838">
        <ele>358.182832</ele>
        <time>2021-08-12T12:40:38.364Z</time>
      </trkpt>
      <trkpt lat="41.93551" lon="45.78077">
        <ele>359.454789</ele>
        <time>2021-08-12T12:41:49.467Z</time>
      </trkpt>
      <trkpt lat="41.93529" lon="45.78131">
        <ele>359.749829</ele>
        <time>2021-08-12T12:42:05.271Z</time>
      </trkpt>
      <trkpt lat="41.93447" lon="45.78326">
        <ele>360.774193</ele>
        <time>2021-08-12T12:43:02.240Z</time>
      </trkpt>
      <trkpt lat="41.93433" lon="45.78368">
        <ele>360.984581</ele>
        <time>2021-08-12T12:43:14.345Z</time>
      </trkpt>
      <trkpt lat="41.93393" lon="45.78485">
        <ele>361.644772</ele>
        <time>2021-08-12T12:43:48.269Z</time>
      </trkpt>
      <trkpt lat="41.9335" lon="45.78648">
        <ele>362.502121</ele>
        <time>2021-08-12T12:44:33.822Z</time>
      </trkpt>
      <trkpt lat="41.9331" lon="45.7884">
        <ele>363.128648</ele>
        <time>2021-08-12T12:45:23.440Z</time>
      </trkpt>
      <trkpt lat="41.93292" lon="45.78924">
        <ele>363.303247</ele>
        <time>2021-08-12T12:45:44.324Z</time>
      </trkpt>
      <trkpt lat="41.93272" lon="45.7901">
        <ele>363.463763</ele>
        <time>2021-08-12T12:46:05.751Z</time>
      </trkpt>
      <trkpt lat="41.9327" lon="45.79018">
        <ele>363.47961</ele>
        <time>2021-08-12T12:46:07.873Z</time>
      </trkpt>
      <trkpt lat="41.93249" lon="45.79122">
        <ele>363.680376</ele>
        <time>2021-08-12T12:46:33.927Z</time>
      </trkpt>
      <trkpt lat="41.93245" lon="45.79138">
        <ele>363.71409</ele>
        <time>2021-08-12T12:46:38.032Z</time>
      </trkpt>
      <trkpt lat="41.93241" lon="45.79156">
        <ele>363.752244</ele>
        <time>2021-08-12T12:46:42.694Z</time>
      </trkpt>
      <trkpt lat="41.93228" lon="45.79217">
        <ele>363.879563</ele>
        <time>2021-08-12T12:46:58.509Z</time>
      </trkpt>
      <trkpt lat="41.93203" lon="45.79327">
        <ele>364.075885</ele>
        <time>2021-08-12T12:47:26.452Z</time>
      </trkpt>
      <trkpt lat="41.93192" lon="45.79388">
        <ele>363.978754</ele>
        <time>2021-08-12T12:47:41.145Z</time>
      </trkpt>
      <trkpt lat="41.93187" lon="45.79414">
        <ele>363.938506</ele>
        <time>2021-08-12T12:47:46.953Z</time>
      </trkpt>
      <trkpt lat="41.93166" lon="45.79507">
        <ele>363.788855</ele>
        <time>2021-08-12T12:48:08.475Z</time>
      </trkpt>
      <trkpt lat="41.93162" lon="45.79524">
        <ele>363.762023</ele>
        <time>2021-08-12T12:48:12.319Z</time>
      </trkpt>
      <trkpt lat="41.93148" lon="45.79598">
        <ele>363.664072</ele>
        <time>2021-08-12T12:48:28.632Z</time>
      </trkpt>
      <trkpt lat="41.93081" lon="45.79914">
        <ele>363.773943</ele>
        <time>2021-08-12T12:49:44.283Z</time>
      </trkpt>
      <trkpt lat="41.93068" lon="45.79969">
        <ele>363.914895</ele>
        <time>2021-08-12T12:49:59.325Z</time>
      </trkpt>
      <trkpt lat="41.93061" lon="45.79997">
        <ele>363.986965</ele>
        <time>2021-08-12T12:50:07.514Z</time>
      </trkpt>
      <trkpt lat="41.93046" lon="45.80104">
        <ele>364.610828</ele>
        <time>2021-08-12T12:50:36.678Z</time>
      </trkpt>
      <trkpt lat="41.93033" lon="45.80194">
        <ele>365.19656</ele>
        <time>2021-08-12T12:51:01.742Z</time>
      </trkpt>
      <trkpt lat="41.93021" lon="45.80332">
        <ele>365.829446</ele>
        <time>2021-08-12T12:51:38.056Z</time>
      </trkpt>
      <trkpt lat="41.93022" lon="45.80391">
        <ele>366.020421</ele>
        <time>2021-08-12T12:51:52.903Z</time>
      </trkpt>
      <trkpt lat="41.9303" lon="45.80585">
        <ele>366.406507</ele>
        <time>2021-08-12T12:52:39.487Z</time>
      </trkpt>
      <trkpt lat="41.9303" lon="45.80618">
        <ele>366.424818</ele>
        <time>2021-08-12T12:52:46.884Z</time>
      </trkpt>
      <trkpt lat="41.93031" lon="45.80673">
        <ele>366.455991</ele>
        <time>2021-08-12T12:52:59.740Z</time>
      </trkpt>
      <trkpt lat="41.93035" lon="45.80768">
        <ele>366.549749</ele>
        <time>2021-08-12T12:53:21.783Z</time>
      </trkpt>
      <trkpt lat="41.9304" lon="45.80841">
        <ele>366.682818</ele>
        <time>2021-08-12T12:53:39.483Z</time>
      </trkpt>
      <trkpt lat="41.93041" lon="45.80846">
        <ele>366.691564</ele>
        <time>2021-08-12T12:53:40.765Z</time>
      </trkpt>
      <trkpt lat="41.93047" lon="45.80985">
        <ele>366.922064</ele>
        <time>2021-08-12T12:54:15.576Z</time>
      </trkpt>
      <trkpt lat="41.93052" lon="45.81074">
        <ele>366.853059</ele>
        <time>2021-08-12T12:54:36.749Z</time>
      </trkpt>
      <trkpt lat="41.93052" lon="45.81076">
        <ele>366.851194</ele>
        <time>2021-08-12T12:54:37.349Z</time>
      </trkpt>
      <trkpt lat="41.93054" lon="45.81125">
        <ele>366.813073</ele>
        <time>2021-08-12T12:54:48.711Z</time>
      </trkpt>
      <trkpt lat="41.93054" lon="45.81133">
        <ele>366.807408</ele>
        <time>2021-08-12T12:54:50.414Z</time>
      </trkpt>
      <trkpt lat="41.93056" lon="45.81171">
        <ele>366.777905</ele>
        <time>2021-08-12T12:54:58.874Z</time>
      </trkpt>
      <trkpt lat="41.93064" lon="45.81357">
        <ele>366.152025</ele>
        <time>2021-08-12T12:55:38.065Z</time>
      </trkpt>
      <trkpt lat="41.93065" lon="45.81388">
        <ele>366.022477</ele>
        <time>2021-08-12T12:55:44.497Z</time>
      </trkpt>
      <trkpt lat="41.93068" lon="45.81476">
        <ele>365.721171</ele>
        <time>2021-08-12T12:56:03.628Z</time>
      </trkpt>
      <trkpt lat="41.93071" lon="45.81534">
        <ele>365.716962</ele>
        <time>2021-08-12T12:56:16.435Z</time>
      </trkpt>
      <trkpt lat="41.93077" lon="45.81709">
        <ele>365.726311</ele>
        <time>2021-08-12T12:56:57.847Z</time>
      </trkpt>
      <trkpt lat="41.93078" lon="45.81731">
        <ele>365.780799</ele>
        <time>2021-08-12T12:57:03.175Z</time>
      </trkpt>
      <trkpt lat="41.93083" lon="45.81808">
        <ele>365.976253</ele>
        <time>2021-08-12T12:57:22.270Z</time>
      </trkpt>
      <trkpt lat="41.93083" lon="45.8183">
        <ele>366.031243</ele>
        <time>2021-08-12T12:57:27.834Z</time>
      </trkpt>
      <trkpt lat="41.93083" lon="45.81833">
        <ele>366.037016</ele>
        <time>2021-08-12T12:57:28.396Z</time>
      </trkpt>
      <trkpt lat="41.93083" lon="45.8184">
        <ele>366.055102</ele>
        <time>2021-08-12T12:57:30.255Z</time>
      </trkpt>
      <trkpt lat="41.93072" lon="45.8199">
        <ele>366.084612</ele>
        <time>2021-08-12T12:58:07.884Z</time>
      </trkpt>
      <trkpt lat="41.9307" lon="45.82006">
        <ele>366.00891</ele>
        <time>2021-08-12T12:58:11.845Z</time>
      </trkpt>
      <trkpt lat="41.93066" lon="45.82038">
        <ele>365.852199</ele>
        <time>2021-08-12T12:58:20.156Z</time>
      </trkpt>
      <trkpt lat="41.93039" lon="45.82228">
        <ele>364.431179</ele>
        <time>2021-08-12T12:58:58.206Z</time>
      </trkpt>
      <trkpt lat="41.93034" lon="45.82257">
        <ele>363.975966</ele>
        <time>2021-08-12T12:59:03.247Z</time>
      </trkpt>
      <trkpt lat="41.93027" lon="45.82285">
        <ele>363.52717</ele>
        <time>2021-08-12T12:59:08.445Z</time>
      </trkpt>
      <trkpt lat="41.9301" lon="45.82376">
        <ele>362.1036</ele>
        <time>2021-08-12T12:59:25.176Z</time>
      </trkpt>
      <trkpt lat="41.93009" lon="45.82377">
        <ele>362.080431</ele>
        <time>2021-08-12T12:59:25.438Z</time>
      </trkpt>
      <trkpt lat="41.93008" lon="45.82381">
        <ele>362.019841</ele>
        <time>2021-08-12T12:59:26.257Z</time>
      </trkpt>
      <trkpt lat="41.93008" lon="45.82385">
        <ele>361.957547</ele>
        <time>2021-08-12T12:59:27.016Z</time>
      </trkpt>
      <trkpt lat="41.93006" lon="45.82399">
        <ele>361.739783</ele>
        <time>2021-08-12T12:59:29.541Z</time>
      </trkpt>
      <trkpt lat="41.92994" lon="45.82447">
        <ele>361.300045</ele>
        <time>2021-08-12T12:59:39.118Z</time>
      </trkpt>
      <trkpt lat="41.92993" lon="45.82451">
        <ele>361.274617</ele>
        <time>2021-08-12T12:59:39.945Z</time>
      </trkpt>
      <trkpt lat="41.9297" lon="45.82567">
        <ele>360.587605</ele>
        <time>2021-08-12T13:00:04.101Z</time>
      </trkpt>
      <trkpt lat="41.92964" lon="45.82597">
        <ele>360.403123</ele>
        <time>2021-08-12T13:00:11.156Z</time>
      </trkpt>
      <trkpt lat="41.92951" lon="45.82631">
        <ele>360.182852</ele>
        <time>2021-08-12T13:00:21.080Z</time>
      </trkpt>
      <trkpt lat="41.92938" lon="45.82644">
        <ele>360.069863</ele>
        <time>2021-08-12T13:00:26.959Z</time>
      </trkpt>
      <trkpt lat="41.92931" lon="45.82648">
        <ele>360.019574</ele>
        <time>2021-08-12T13:00:30.044Z</time>
      </trkpt>
      <trkpt lat="41.92923" lon="45.82648">
        <ele>359.969345</ele>
        <time>2021-08-12T13:00:32.287Z</time>
      </trkpt>
      <trkpt lat="41.92789" lon="45.82636">
        <ele>359.131223</ele>
        <time>2021-08-12T13:01:10.352Z</time>
      </trkpt>
      <trkpt lat="41.92786" lon="45.82635">
        <ele>359.107919</ele>
        <time>2021-08-12T13:01:11.174Z</time>
      </trkpt>
      <trkpt lat="41.92768" lon="45.82633">
        <ele>358.999528</ele>
        <time>2021-08-12T13:01:15.450Z</time>
      </trkpt>
      <trkpt lat="41.92754" lon="45.8263">
        <ele>358.817376</ele>
        <time>2021-08-12T13:01:19.347Z</time>
      </trkpt>
      <trkpt lat="41.92737" lon="45.82627">
        <ele>358.566228</ele>
        <time>2021-08-12T13:01:23.604Z</time>
      </trkpt>
      <trkpt lat="41.92662" lon="45.82603">
        <ele>357.470992</ele>
        <time>2021-08-12T13:01:42.831Z</time>
      </trkpt>
      <trkpt lat="41.9258" lon="45.82565">
        <ele>356.3084</ele>
        <time>2021-08-12T13:02:05.440Z</time>
      </trkpt>
      <trkpt lat="41.92572" lon="45.82562">
        <ele>356.24612</ele>
        <time>2021-08-12T13:02:07.656Z</time>
      </trkpt>
      <trkpt lat="41.92543" lon="45.82547">
        <ele>356.01246</ele>
        <time>2021-08-12T13:02:16.795Z</time>
      </trkpt>
      <trkpt lat="41.92531" lon="45.8254">
        <ele>355.913381</ele>
        <time>2021-08-12T13:02:20.731Z</time>
      </trkpt>
      <trkpt lat="41.92527" lon="45.82537">
        <ele>355.879456</ele>
        <time>2021-08-12T13:02:21.871Z</time>
      </trkpt>
      <trkpt lat="41.92524" lon="45.82534">
        <ele>355.849921</ele>
        <time>2021-08-12T13:02:22.894Z</time>
      </trkpt>
      <trkpt lat="41.92512" lon="45.82531">
        <ele>355.76325</ele>
        <time>2021-08-12T13:02:26.555Z</time>
      </trkpt>
      <trkpt lat="41.92509" lon="45.82532">
        <ele>355.734314</ele>
        <time>2021-08-12T13:02:27.523Z</time>
      </trkpt>
      <trkpt lat="41.92504" lon="45.82537">
        <ele>355.689259</ele>
        <time>2021-08-12T13:02:29.405Z</time>
      </trkpt>
      <trkpt lat="41.92499" lon="45.82559">
        <ele>355.560143</ele>
        <time>2021-08-12T13:02:34.121Z</time>
      </trkpt>
      <trkpt lat="41.92502" lon="45.82566">
        <ele>355.515057</ele>
        <time>2021-08-12T13:02:36.054Z</time>
      </trkpt>
      <trkpt lat="41.92503" lon="45.82569">
        <ele>355.499407</ele>
        <time>2021-08-12T13:02:36.728Z</time>
      </trkpt>
      <trkpt lat="41.92505" lon="45.82656">
        <ele>355.002981</ele>
        <time>2021-08-12T13:02:54.985Z</time>
      </trkpt>
      <trkpt lat="41.92505" lon="45.82658">
        <ele>354.989516</ele>
        <time>2021-08-12T13:02:55.474Z</time>
      </trkpt>
      <trkpt lat="41.92505" lon="45.8268">
        <ele>354.844657</ele>
        <time>2021-08-12T13:03:00.364Z</time>
      </trkpt>
      <trkpt lat="41.92505" lon="45.82685">
        <ele>354.807916</ele>
        <time>2021-08-12T13:03:01.688Z</time>
      </trkpt>
      <trkpt lat="41.92506" lon="45.8269">
        <ele>354.779211</ele>
        <time>2021-08-12T13:03:02.430Z</time>
      </trkpt>
      <trkpt lat="41.92519" lon="45.82993">
        <ele>352.675707</ele>
        <time>2021-08-12T13:04:03.836Z</time>
      </trkpt>
      <trkpt lat="41.92519" lon="45.82995">
        <ele>352.659381</ele>
        <time>2021-08-12T13:04:04.170Z</time>
      </trkpt>
      <trkpt lat="41.92519" lon="45.83008">
        <ele>352.563647</ele>
        <time>2021-08-12T13:04:06.729Z</time>
      </trkpt>
      <trkpt lat="41.92508" lon="45.83059">
        <ele>352.173283</ele>
        <time>2021-08-12T13:04:17.313Z</time>
      </trkpt>
      <trkpt lat="41.92472" lon="45.83137">
        <ele>351.489723</ele>
        <time>2021-08-12T13:04:36.000Z</time>
      </trkpt>
      <trkpt lat="41.92403" lon="45.83284">
        <ele>350.200102</ele>
        <time>2021-08-12T13:05:11.625Z</time>
      </trkpt>
      <trkpt lat="41.91952" lon="45.84223">
        <ele>338.719772</ele>
        <time>2021-08-12T13:08:46.861Z</time>
      </trkpt>
      <trkpt lat="41.9188" lon="45.84373">
        <ele>337.141051</ele>
        <time>2021-08-12T13:09:23.350Z</time>
      </trkpt>
      <trkpt lat="41.91811" lon="45.84515">
        <ele>335.504792</ele>
        <time>2021-08-12T13:09:56.546Z</time>
      </trkpt>
      <trkpt lat="41.91755" lon="45.84632">
        <ele>333.668164</ele>
        <time>2021-08-12T13:10:22.409Z</time>
      </trkpt>
      <trkpt lat="41.91652" lon="45.84832">
        <ele>330.114081</ele>
        <time>2021-08-12T13:11:06.897Z</time>
      </trkpt>
      <trkpt lat="41.91501" lon="45.85122">
        <ele>324.93105</ele>
        <time>2021-08-12T13:12:11.804Z</time>
      </trkpt>
      <trkpt lat="41.91357" lon="45.8541">
        <ele>320.920293</ele>
        <time>2021-08-12T13:13:17.938Z</time>
      </trkpt>
      <trkpt lat="41.91112" lon="45.85898">
        <ele>315.047512</ele>
        <time>2021-08-12T13:15:12.628Z</time>
      </trkpt>
      <trkpt lat="41.90975" lon="45.86168">
        <ele>311.867453</ele>
        <time>2021-08-12T13:16:16.979Z</time>
      </trkpt>
      <trkpt lat="41.90967" lon="45.86186">
        <ele>311.592574</ele>
        <time>2021-08-12T13:16:20.863Z</time>
      </trkpt>
      <trkpt lat="41.90964" lon="45.86195">
        <ele>311.454242</ele>
        <time>2021-08-12T13:16:22.810Z</time>
      </trkpt>
      <trkpt lat="41.90954" lon="45.86218">
        <ele>311.097834</ele>
        <time>2021-08-12T13:16:27.675Z</time>
      </trkpt>
      <trkpt lat="41.90946" lon="45.86263">
        <ele>310.468352</ele>
        <time>2021-08-12T13:16:36.301Z</time>
      </trkpt>
      <trkpt lat="41.9095" lon="45.86328">
        <ele>309.593785</ele>
        <time>2021-08-12T13:16:48.184Z</time>
      </trkpt>
      <trkpt lat="41.90963" lon="45.8649">
        <ele>307.320813</ele>
        <time>2021-08-12T13:17:17.824Z</time>
      </trkpt>
      <trkpt lat="41.90987" lon="45.86758">
        <ele>304.055266</ele>
        <time>2021-08-12T13:18:08.969Z</time>
      </trkpt>
      <trkpt lat="41.91004" lon="45.86923">
        <ele>302.46682</ele>
        <time>2021-08-12T13:18:42.237Z</time>
      </trkpt>
      <trkpt lat="41.91014" lon="45.87072">
        <ele>301.221279</ele>
        <time>2021-08-12T13:19:12.187Z</time>
      </trkpt>
      <trkpt lat="41.90982" lon="45.87413">
        <ele>297.74041</ele>
        <time>2021-08-12T13:20:18.801Z</time>
      </trkpt>
      <trkpt lat="41.90942" lon="45.87845">
        <ele>293.026911</ele>
        <time>2021-08-12T13:21:42.297Z</time>
      </trkpt>
      <trkpt lat="41.90905" lon="45.88012">
        <ele>291.471158</ele>
        <time>2021-08-12T13:22:16.812Z</time>
      </trkpt>
      <trkpt lat="41.90749" lon="45.8874">
        <ele>285.793845</ele>
        <time>2021-08-12T13:24:50.185Z</time>
      </trkpt>
      <trkpt lat="41.90747" lon="45.88749">
        <ele>285.706412</ele>
        <time>2021-08-12T13:24:51.883Z</time>
      </trkpt>
      <trkpt lat="41.90722" lon="45.88857">
        <ele>284.605921</ele>
        <time>2021-08-12T13:25:13.840Z</time>
      </trkpt>
      <trkpt lat="41.90703" lon="45.88955">
        <ele>283.622861</ele>
        <time>2021-08-12T13:25:33.392Z</time>
      </trkpt>
      <trkpt lat="41.90697" lon="45.89001">
        <ele>283.307124</ele>
        <time>2021-08-12T13:25:42.440Z</time>
      </trkpt>
      <trkpt lat="41.90693" lon="45.8907">
        <ele>282.915165</ele>
        <time>2021-08-12T13:25:56.243Z</time>
      </trkpt>
      <trkpt lat="41.9069" lon="45.89452">
        <ele>281.566767</ele>
        <time>2021-08-12T13:27:19.033Z</time>
      </trkpt>
      <trkpt lat="41.90687" lon="45.89495">
        <ele>281.776526</ele>
        <time>2021-08-12T13:27:29.800Z</time>
      </trkpt>
      <trkpt lat="41.90666" lon="45.89605">
        <ele>282.340022</ele>
        <time>2021-08-12T13:28:00.025Z</time>
      </trkpt>
      <trkpt lat="41.90597" lon="45.89972">
        <ele>284.654306</ele>
        <time>2021-08-12T13:29:42.166Z</time>
      </trkpt>
      <trkpt lat="41.90596" lon="45.89979">
        <ele>284.694238</ele>
        <time>2021-08-12T13:29:43.977Z</time>
      </trkpt>
      <trkpt lat="41.90557" lon="45.90193">
        <ele>286.133445</ele>
        <time>2021-08-12T13:30:42.361Z</time>
      </trkpt>
      <trkpt lat="41.90536" lon="45.90296">
        <ele>287.070052</ele>
        <time>2021-08-12T13:31:11.685Z</time>
      </trkpt>
      <trkpt lat="41.9036" lon="45.91058">
        <ele>296.201702</ele>
        <time>2021-08-12T13:35:08.632Z</time>
      </trkpt>
      <trkpt lat="41.90262" lon="45.91463">
        <ele>303.343257</ele>
        <time>2021-08-12T13:37:27.296Z</time>
      </trkpt>
      <trkpt lat="41.90187" lon="45.91765">
        <ele>309.790572</ele>
        <time>2021-08-12T13:39:18.847Z</time>
      </trkpt>
      <trkpt lat="41.90129" lon="45.92024">
        <ele>315.21031</ele>
        <time>2021-08-12T13:40:52.587Z</time>
      </trkpt>
      <trkpt lat="41.90113" lon="45.92094">
        <ele>316.403465</ele>
        <time>2021-08-12T13:41:16.701Z</time>
      </trkpt>
      <trkpt lat="41.90109" lon="45.92115">
        <ele>316.761225</ele>
        <time>2021-08-12T13:41:23.709Z</time>
      </trkpt>
      <trkpt lat="41.90047" lon="45.92338">
        <ele>320.342636</ele>
        <time>2021-08-12T13:42:38.233Z</time>
      </trkpt>
      <trkpt lat="41.90012" lon="45.92449">
        <ele>322.002656</ele>
        <time>2021-08-12T13:43:15.078Z</time>
      </trkpt>
      <trkpt lat="41.90007" lon="45.92464">
        <ele>322.234408</ele>
        <time>2021-08-12T13:43:20.254Z</time>
      </trkpt>
      <trkpt lat="41.89975" lon="45.9257">
        <ele>323.795351</ele>
        <time>2021-08-12T13:43:55.540Z</time>
      </trkpt>
      <trkpt lat="41.89969" lon="45.92607">
        <ele>324.306916</ele>
        <time>2021-08-12T13:44:06.791Z</time>
      </trkpt>
      <trkpt lat="41.89954" lon="45.92685">
        <ele>325.40809</ele>
        <time>2021-08-12T13:44:31.924Z</time>
      </trkpt>
      <trkpt lat="41.8994" lon="45.92806">
        <ele>327.399378</ele>
        <time>2021-08-12T13:45:10.601Z</time>
      </trkpt>
      <trkpt lat="41.89939" lon="45.92818">
        <ele>327.588263</ele>
        <time>2021-08-12T13:45:14.869Z</time>
      </trkpt>
      <trkpt lat="41.89924" lon="45.93075">
        <ele>332.032926</ele>
        <time>2021-08-12T13:46:39.622Z</time>
      </trkpt>
      <trkpt lat="41.89914" lon="45.93275">
        <ele>335.915698</ele>
        <time>2021-08-12T13:47:48.196Z</time>
      </trkpt>
      <trkpt lat="41.8991" lon="45.93343">
        <ele>337.305575</ele>
        <time>2021-08-12T13:48:11.761Z</time>
      </trkpt>
      <trkpt lat="41.89902" lon="45.93516">
        <ele>340.978575</ele>
        <time>2021-08-12T13:49:13.254Z</time>
      </trkpt>
      <trkpt lat="41.89899" lon="45.93578">
        <ele>342.328793</ele>
        <time>2021-08-12T13:49:35.261Z</time>
      </trkpt>
      <trkpt lat="41.89897" lon="45.93617">
        <ele>343.158181</ele>
        <time>2021-08-12T13:49:48.894Z</time>
      </trkpt>
      <trkpt lat="41.89896" lon="45.93624">
        <ele>343.312164</ele>
        <time>2021-08-12T13:49:51.353Z</time>
      </trkpt>
      <trkpt lat="41.89882" lon="45.93902">
        <ele>349.418938</ele>
        <time>2021-08-12T13:51:30.269Z</time>
      </trkpt>
      <trkpt lat="41.89875" lon="45.9404">
        <ele>352.458168</ele>
        <time>2021-08-12T13:52:19.793Z</time>
      </trkpt>
      <trkpt lat="41.89875" lon="45.94045">
        <ele>352.573197</ele>
        <time>2021-08-12T13:52:21.662Z</time>
      </trkpt>
      <trkpt lat="41.89872" lon="45.94099">
        <ele>353.769045</ele>
        <time>2021-08-12T13:52:40.970Z</time>
      </trkpt>
      <trkpt lat="41.89869" lon="45.9417">
        <ele>355.229722</ele>
        <time>2021-08-12T13:53:06.177Z</time>
      </trkpt>
      <trkpt lat="41.89857" lon="45.94455">
        <ele>360.652599</ele>
        <time>2021-08-12T13:54:42.562Z</time>
      </trkpt>
      <trkpt lat="41.8984" lon="45.94849">
        <ele>367.713671</ele>
        <time>2021-08-12T13:56:53.088Z</time>
      </trkpt>
      <trkpt lat="41.89823" lon="45.9525">
        <ele>374.943541</ele>
        <time>2021-08-12T13:59:07.535Z</time>
      </trkpt>
      <trkpt lat="41.89809" lon="45.95528">
        <ele>379.571202</ele>
        <time>2021-08-12T14:00:39.096Z</time>
      </trkpt>
      <trkpt lat="41.89807" lon="45.95555">
        <ele>380.003475</ele>
        <time>2021-08-12T14:00:47.484Z</time>
      </trkpt>
      <trkpt lat="41.89801" lon="45.95679">
        <ele>381.357875</ele>
        <time>2021-08-12T14:01:24.247Z</time>
      </trkpt>
      <trkpt lat="41.89799" lon="45.95711">
        <ele>381.680289</ele>
        <time>2021-08-12T14:01:33.550Z</time>
      </trkpt>
      <trkpt lat="41.89795" lon="45.95783">
        <ele>382.398</ele>
        <time>2021-08-12T14:01:53.412Z</time>
      </trkpt>
      <trkpt lat="41.89793" lon="45.95817">
        <ele>382.746571</ele>
        <time>2021-08-12T14:02:03.054Z</time>
      </trkpt>
      <trkpt lat="41.89787" lon="45.95925">
        <ele>384.292991</ele>
        <time>2021-08-12T14:02:32.443Z</time>
      </trkpt>
      <trkpt lat="41.89778" lon="45.95967">
        <ele>384.917997</ele>
        <time>2021-08-12T14:02:45.654Z</time>
      </trkpt>
      <trkpt lat="41.89771" lon="45.95987">
        <ele>385.23474</ele>
        <time>2021-08-12T14:02:52.904Z</time>
      </trkpt>
      <trkpt lat="41.89738" lon="45.96074">
        <ele>387.090114</ele>
        <time>2021-08-12T14:03:28.223Z</time>
      </trkpt>
      <trkpt lat="41.89668" lon="45.96252">
        <ele>392.88767</ele>
        <time>2021-08-12T14:04:50.880Z</time>
      </trkpt>
      <trkpt lat="41.89635" lon="45.96335">
        <ele>394.545546</ele>
        <time>2021-08-12T14:05:26.018Z</time>
      </trkpt>
      <trkpt lat="41.89627" lon="45.96353">
        <ele>394.888619</ele>
        <time>2021-08-12T14:05:32.981Z</time>
      </trkpt>
      <trkpt lat="41.89562" lon="45.96489">
        <ele>397.144862</ele>
        <time>2021-08-12T14:06:20.120Z</time>
      </trkpt>
      <trkpt lat="41.89552" lon="45.9651">
        <ele>397.159919</ele>
        <time>2021-08-12T14:06:25.984Z</time>
      </trkpt>
      <trkpt lat="41.89543" lon="45.9653">
        <ele>397.173963</ele>
        <time>2021-08-12T14:06:31.129Z</time>
      </trkpt>
      <trkpt lat="41.89495" lon="45.9665">
        <ele>397.257011</ele>
        <time>2021-08-12T14:07:02.283Z</time>
      </trkpt>
      <trkpt lat="41.89488" lon="45.96666">
        <ele>397.268106</ele>
        <time>2021-08-12T14:07:06.450Z</time>
      </trkpt>
      <trkpt lat="41.89413" lon="45.96839">
        <ele>396.313226</ele>
        <time>2021-08-12T14:07:49.011Z</time>
      </trkpt>
      <trkpt lat="41.89321" lon="45.97048">
        <ele>394.109388</ele>
        <time>2021-08-12T14:08:36.511Z</time>
      </trkpt>
      <trkpt lat="41.89246" lon="45.97227">
        <ele>391.349487</ele>
        <time>2021-08-12T14:09:14.871Z</time>
      </trkpt>
      <trkpt lat="41.89244" lon="45.97231">
        <ele>391.274048</ele>
        <time>2021-08-12T14:09:15.735Z</time>
      </trkpt>
      <trkpt lat="41.89138" lon="45.97484">
        <ele>386.778545</ele>
        <time>2021-08-12T14:10:08.365Z</time>
      </trkpt>
      <trkpt lat="41.89104" lon="45.97562">
        <ele>385.679204</ele>
        <time>2021-08-12T14:10:24.963Z</time>
      </trkpt>
      <trkpt lat="41.89089" lon="45.976">
        <ele>385.262623</ele>
        <time>2021-08-12T14:10:32.878Z</time>
      </trkpt>
      <trkpt lat="41.8908" lon="45.97619">
        <ele>385.042554</ele>
        <time>2021-08-12T14:10:37.029Z</time>
      </trkpt>
      <trkpt lat="41.89042" lon="45.97727">
        <ele>383.878455</ele>
        <time>2021-08-12T14:11:01.241Z</time>
      </trkpt>
      <trkpt lat="41.89013" lon="45.97807">
        <ele>384.553148</ele>
        <time>2021-08-12T14:11:22.514Z</time>
      </trkpt>
      <trkpt lat="41.88976" lon="45.97917">
        <ele>385.525887</ele>
        <time>2021-08-12T14:12:00.388Z</time>
      </trkpt>
      <trkpt lat="41.88931" lon="45.98043">
        <ele>386.982311</ele>
        <time>2021-08-12T14:12:46.519Z</time>
      </trkpt>
      <trkpt lat="41.88926" lon="45.98053">
        <ele>387.117838</ele>
        <time>2021-08-12T14:12:51.439Z</time>
      </trkpt>
      <trkpt lat="41.88909" lon="45.98075">
        <ele>387.473912</ele>
        <time>2021-08-12T14:13:00.137Z</time>
      </trkpt>
      <trkpt lat="41.88899" lon="45.98092">
        <ele>387.713425</ele>
        <time>2021-08-12T14:13:07.234Z</time>
      </trkpt>
      <trkpt lat="41.88878" lon="45.98123">
        <ele>388.18507</ele>
        <time>2021-08-12T14:13:19.108Z</time>
      </trkpt>
      <trkpt lat="41.88816" lon="45.98219">
        <ele>388.229648</ele>
        <time>2021-08-12T14:13:49.625Z</time>
      </trkpt>
      <trkpt lat="41.88648" lon="45.98463">
        <ele>386.193149</ele>
        <time>2021-08-12T14:14:57.022Z</time>
      </trkpt>
      <trkpt lat="41.88596" lon="45.98539">
        <ele>384.842602</ele>
        <time>2021-08-12T14:15:16.621Z</time>
      </trkpt>
      <trkpt lat="41.88547" lon="45.9861">
        <ele>383.131745</ele>
        <time>2021-08-12T14:15:33.923Z</time>
      </trkpt>
      <trkpt lat="41.88443" lon="45.98763">
        <ele>378.998048</ele>
        <time>2021-08-12T14:16:09.563Z</time>
      </trkpt>
      <trkpt lat="41.88339" lon="45.98915">
        <ele>374.616122</ele>
        <time>2021-08-12T14:16:45.357Z</time>
      </trkpt>
      <trkpt lat="41.88244" lon="45.9906">
        <ele>370.619667</ele>
        <time>2021-08-12T14:17:19.056Z</time>
      </trkpt>
      <trkpt lat="41.88234" lon="45.99077">
        <ele>370.178311</ele>
        <time>2021-08-12T14:17:22.942Z</time>
      </trkpt>
      <trkpt lat="41.88228" lon="45.99086">
        <ele>369.928892</ele>
        <time>2021-08-12T14:17:24.947Z</time>
      </trkpt>
      <trkpt lat="41.88157" lon="45.9919">
        <ele>367.056191</ele>
        <time>2021-08-12T14:17:49.451Z</time>
      </trkpt>
      <trkpt lat="41.87807" lon="45.99711">
        <ele>353.508791</ele>
        <time>2021-08-12T14:19:53.082Z</time>
      </trkpt>
      <trkpt lat="41.87765" lon="45.99773">
        <ele>352.020678</ele>
        <time>2021-08-12T14:20:08.049Z</time>
      </trkpt>
      <trkpt lat="41.87345" lon="46.00388">
        <ele>339.010398</ele>
        <time>2021-08-12T14:22:40.440Z</time>
      </trkpt>
      <trkpt lat="41.87341" lon="46.00394">
        <ele>338.880825</ele>
        <time>2021-08-12T14:22:41.874Z</time>
      </trkpt>
      <trkpt lat="41.87289" lon="46.00471">
        <ele>337.208442</ele>
        <time>2021-08-12T14:23:00.654Z</time>
      </trkpt>
      <trkpt lat="41.86666" lon="46.0139">
        <ele>316.172778</ele>
        <time>2021-08-12T14:26:44.159Z</time>
      </trkpt>
      <trkpt lat="41.86658" lon="46.014">
        <ele>315.920335</ele>
        <time>2021-08-12T14:26:46.764Z</time>
      </trkpt>
      <trkpt lat="41.86507" lon="46.01618">
        <ele>310.997296</ele>
        <time>2021-08-12T14:27:40.400Z</time>
      </trkpt>
      <trkpt lat="41.86444" lon="46.01711">
        <ele>309.090064</ele>
        <time>2021-08-12T14:28:03.596Z</time>
      </trkpt>
      <trkpt lat="41.86264" lon="46.01979">
        <ele>304.574038</ele>
        <time>2021-08-12T14:29:12.196Z</time>
      </trkpt>
      <trkpt lat="41.86235" lon="46.02022">
        <ele>303.820567</ele>
        <time>2021-08-12T14:29:22.890Z</time>
      </trkpt>
      <trkpt lat="41.86076" lon="46.02259">
        <ele>299.592837</ele>
        <time>2021-08-12T14:30:21.879Z</time>
      </trkpt>
      <trkpt lat="41.85817" lon="46.02631">
        <ele>295.195719</ele>
        <time>2021-08-12T14:32:03.453Z</time>
      </trkpt>
      <trkpt lat="41.85756" lon="46.02717">
        <ele>294.220246</ele>
        <time>2021-08-12T14:32:26.853Z</time>
      </trkpt>
      <trkpt lat="41.85643" lon="46.02824">
        <ele>292.93</ele>
        <time>2021-08-12T14:33:03.695Z</time>
      </trkpt>
      <trkpt lat="41.8556" lon="46.029">
        <ele>292.154652</ele>
        <time>2021-08-12T14:33:31.925Z</time>
      </trkpt>
      <trkpt lat="41.85515" lon="46.02959">
        <ele>292.459325</ele>
        <time>2021-08-12T14:33:51.541Z</time>
      </trkpt>
      <trkpt lat="41.85498" lon="46.02993">
        <ele>292.657104</ele>
        <time>2021-08-12T14:34:01.753Z</time>
      </trkpt>
      <trkpt lat="41.85487" lon="46.03018">
        <ele>292.800444</ele>
        <time>2021-08-12T14:34:09.406Z</time>
      </trkpt>
      <trkpt lat="41.85483" lon="46.03028">
        <ele>292.855206</ele>
        <time>2021-08-12T14:34:12.506Z</time>
      </trkpt>
      <trkpt lat="41.85467" lon="46.03078">
        <ele>293.121113</ele>
        <time>2021-08-12T14:34:27.502Z</time>
      </trkpt>
      <trkpt lat="41.8518" lon="46.04008">
        <ele>305.183302</ele>
        <time>2021-08-12T14:39:33.154Z</time>
      </trkpt>
      <trkpt lat="41.85093" lon="46.04298">
        <ele>305.579853</ele>
        <time>2021-08-12T14:40:46.537Z</time>
      </trkpt>
      <trkpt lat="41.85011" lon="46.04607">
        <ele>305.117992</ele>
        <time>2021-08-12T14:41:59.483Z</time>
      </trkpt>
      <trkpt lat="41.84918" lon="46.04986">
        <ele>304.40809</ele>
        <time>2021-08-12T14:43:29.362Z</time>
      </trkpt>
      <trkpt lat="41.84909" lon="46.05024">
        <ele>304.305783</ele>
        <time>2021-08-12T14:43:38.261Z</time>
      </trkpt>
      <trkpt lat="41.84902" lon="46.05054">
        <ele>304.224498</ele>
        <time>2021-08-12T14:43:45.301Z</time>
      </trkpt>
      <trkpt lat="41.84857" lon="46.05247">
        <ele>303.386186</ele>
        <time>2021-08-12T14:44:28.212Z</time>
      </trkpt>
      <trkpt lat="41.84833" lon="46.05351">
        <ele>302.798287</ele>
        <time>2021-08-12T14:44:50.715Z</time>
      </trkpt>
      <trkpt lat="41.84774" lon="46.05607">
        <ele>301.237892</ele>
        <time>2021-08-12T14:45:45.903Z</time>
      </trkpt>
      <trkpt lat="41.84759" lon="46.05686">
        <ele>300.829486</ele>
        <time>2021-08-12T14:46:03.106Z</time>
      </trkpt>
      <trkpt lat="41.84748" lon="46.05731">
        <ele>300.592887</ele>
        <time>2021-08-12T14:46:13.054Z</time>
      </trkpt>
      <trkpt lat="41.84734" lon="46.05799">
        <ele>300.237679</ele>
        <time>2021-08-12T14:46:27.870Z</time>
      </trkpt>
      <trkpt lat="41.84713" lon="46.05882">
        <ele>299.870286</ele>
        <time>2021-08-12T14:46:46.194Z</time>
      </trkpt>
      <trkpt lat="41.84681" lon="46.06007">
        <ele>299.381427</ele>
        <time>2021-08-12T14:47:14.690Z</time>
      </trkpt>
      <trkpt lat="41.84677" lon="46.06035">
        <ele>299.27311</ele>
        <time>2021-08-12T14:47:21.088Z</time>
      </trkpt>
      <trkpt lat="41.84668" lon="46.06147">
        <ele>298.91739</ele>
        <time>2021-08-12T14:47:45.621Z</time>
      </trkpt>
      <trkpt lat="41.84662" lon="46.06357">
        <ele>298.294358</ele>
        <time>2021-08-12T14:48:31.221Z</time>
      </trkpt>
      <trkpt lat="41.84654" lon="46.06504">
        <ele>297.869696</ele>
        <time>2021-08-12T14:49:03.086Z</time>
      </trkpt>
      <trkpt lat="41.84646" lon="46.06681">
        <ele>297.589005</ele>
        <time>2021-08-12T14:49:42.729Z</time>
      </trkpt>
      <trkpt lat="41.84632" lon="46.06954">
        <ele>297.087198</ele>
        <time>2021-08-12T14:50:45.936Z</time>
      </trkpt>
      <trkpt lat="41.84621" lon="46.07212">
        <ele>295.685176</ele>
        <time>2021-08-12T14:51:39.132Z</time>
      </trkpt>
      <trkpt lat="41.84614" lon="46.07332">
        <ele>294.759981</ele>
        <time>2021-08-12T14:52:03.124Z</time>
      </trkpt>
      <trkpt lat="41.84607" lon="46.07386">
        <ele>294.288685</ele>
        <time>2021-08-12T14:52:14.071Z</time>
      </trkpt>
      <trkpt lat="41.84597" lon="46.07429">
        <ele>293.899579</ele>
        <time>2021-08-12T14:52:22.999Z</time>
      </trkpt>
      <trkpt lat="41.84575" lon="46.07517">
        <ele>293.120975</ele>
        <time>2021-08-12T14:52:41.185Z</time>
      </trkpt>
      <trkpt lat="41.84517" lon="46.07718">
        <ele>291.416941</ele>
        <time>2021-08-12T14:53:24.241Z</time>
      </trkpt>
      <trkpt lat="41.84474" lon="46.07872">
        <ele>290.652033</ele>
        <time>2021-08-12T14:53:58.642Z</time>
      </trkpt>
      <trkpt lat="41.84417" lon="46.08076">
        <ele>290.006042</ele>
        <time>2021-08-12T14:54:46.619Z</time>
      </trkpt>
      <trkpt lat="41.84412" lon="46.08096">
        <ele>289.96392</ele>
        <time>2021-08-12T14:54:51.367Z</time>
      </trkpt>
      <trkpt lat="41.84406" lon="46.08126">
        <ele>289.902045</ele>
        <time>2021-08-12T14:54:58.247Z</time>
      </trkpt>
      <trkpt lat="41.84335" lon="46.08525">
        <ele>289.92008</ele>
        <time>2021-08-12T14:56:32.053Z</time>
      </trkpt>
      <trkpt lat="41.84309" lon="46.08609">
        <ele>290.137816</ele>
        <time>2021-08-12T14:56:55.067Z</time>
      </trkpt>
      <trkpt lat="41.84247" lon="46.08694">
        <ele>291.079027</ele>
        <time>2021-08-12T14:57:27.179Z</time>
      </trkpt>
      <trkpt lat="41.84008" lon="46.08972">
        <ele>296.136578</ele>
        <time>2021-08-12T14:59:36.331Z</time>
      </trkpt>
      <trkpt lat="41.83921" lon="46.09092">
        <ele>298.080477</ele>
        <time>2021-08-12T15:00:25.928Z</time>
      </trkpt>
      <trkpt lat="41.83856" lon="46.09194">
        <ele>299.568081</ele>
        <time>2021-08-12T15:01:05.306Z</time>
      </trkpt>
      <trkpt lat="41.83848" lon="46.09207">
        <ele>299.755259</ele>
        <time>2021-08-12T15:01:10.495Z</time>
      </trkpt>
      <trkpt lat="41.83734" lon="46.09388">
        <ele>302.066981</ele>
        <time>2021-08-12T15:02:19.710Z</time>
      </trkpt>
      <trkpt lat="41.83711" lon="46.09427">
        <ele>302.467782</ele>
        <time>2021-08-12T15:02:33.414Z</time>
      </trkpt>
      <trkpt lat="41.837" lon="46.09464">
        <ele>302.788764</ele>
        <time>2021-08-12T15:02:44.146Z</time>
      </trkpt>
      <trkpt lat="41.83688" lon="46.09512">
        <ele>303.201386</ele>
        <time>2021-08-12T15:02:57.563Z</time>
      </trkpt>
      <trkpt lat="41.83684" lon="46.09532">
        <ele>303.319143</ele>
        <time>2021-08-12T15:03:03.075Z</time>
      </trkpt>
      <trkpt lat="41.83659" lon="46.09729">
        <ele>304.176626</ele>
        <time>2021-08-12T15:03:53.889Z</time>
      </trkpt>
      <trkpt lat="41.83659" lon="46.09762">
        <ele>304.329726</ele>
        <time>2021-08-12T15:04:02.398Z</time>
      </trkpt>
      <trkpt lat="41.83668" lon="46.09795">
        <ele>304.566224</ele>
        <time>2021-08-12T15:04:11.680Z</time>
      </trkpt>
      <trkpt lat="41.83702" lon="46.0986">
        <ele>305.091098</ele>
        <time>2021-08-12T15:04:32.355Z</time>
      </trkpt>
      <trkpt lat="41.83816" lon="46.10018">
        <ele>306.857747</ele>
        <time>2021-08-12T15:05:33.448Z</time>
      </trkpt>
      <trkpt lat="41.83828" lon="46.10035">
        <ele>307.091399</ele>
        <time>2021-08-12T15:05:40.337Z</time>
      </trkpt>
      <trkpt lat="41.83859" lon="46.10077">
        <ele>307.665361</ele>
        <time>2021-08-12T15:05:57.440Z</time>
      </trkpt>
      <trkpt lat="41.83977" lon="46.10246">
        <ele>309.976622</ele>
        <time>2021-08-12T15:07:05.206Z</time>
      </trkpt>
      <trkpt lat="41.84003" lon="46.10316">
        <ele>310.754422</ele>
        <time>2021-08-12T15:07:27.125Z</time>
      </trkpt>
      <trkpt lat="41.84004" lon="46.10377">
        <ele>311.327391</ele>
        <time>2021-08-12T15:07:44.780Z</time>
      </trkpt>
      <trkpt lat="41.83997" lon="46.10426">
        <ele>311.796155</ele>
        <time>2021-08-12T15:07:59.234Z</time>
      </trkpt>
      <trkpt lat="41.8399" lon="46.10453">
        <ele>312.06025</ele>
        <time>2021-08-12T15:08:07.198Z</time>
      </trkpt>
      <trkpt lat="41.83957" lon="46.10577">
        <ele>313.228974</ele>
        <time>2021-08-12T15:08:44.422Z</time>
      </trkpt>
      <trkpt lat="41.83948" lon="46.10611">
        <ele>313.506023</ele>
        <time>2021-08-12T15:08:54.544Z</time>
      </trkpt>
      <trkpt lat="41.83926" lon="46.10695">
        <ele>314.187192</ele>
        <time>2021-08-12T15:09:19.287Z</time>
      </trkpt>
      <trkpt lat="41.83888" lon="46.10846">
        <ele>315.341448</ele>
        <time>2021-08-12T15:10:01.734Z</time>
      </trkpt>
      <trkpt lat="41.83886" lon="46.10889">
        <ele>315.639136</ele>
        <time>2021-08-12T15:10:13.512Z</time>
      </trkpt>
      <trkpt lat="41.8389" lon="46.10919">
        <ele>315.848566</ele>
        <time>2021-08-12T15:10:21.675Z</time>
      </trkpt>
      <trkpt lat="41.83933" lon="46.11048">
        <ele>316.92698</ele>
        <time>2021-08-12T15:11:00.266Z</time>
      </trkpt>
      <trkpt lat="41.83935" lon="46.11055">
        <ele>316.992205</ele>
        <time>2021-08-12T15:11:02.466Z</time>
      </trkpt>
      <trkpt lat="41.83936" lon="46.11057">
        <ele>317.015741</ele>
        <time>2021-08-12T15:11:03.439Z</time>
      </trkpt>
      <trkpt lat="41.83942" lon="46.11076">
        <ele>317.200971</ele>
        <time>2021-08-12T15:11:08.956Z</time>
      </trkpt>
      <trkpt lat="41.83997" lon="46.11228">
        <ele>318.741158</ele>
        <time>2021-08-12T15:11:56.955Z</time>
      </trkpt>
      <trkpt lat="41.84013" lon="46.11276">
        <ele>319.356259</ele>
        <time>2021-08-12T15:12:12.400Z</time>
      </trkpt>
      <trkpt lat="41.84028" lon="46.11322">
        <ele>319.941165</ele>
        <time>2021-08-12T15:12:27.100Z</time>
      </trkpt>
      <trkpt lat="41.84094" lon="46.11515">
        <ele>322.643293</ele>
        <time>2021-08-12T15:13:31.796Z</time>
      </trkpt>
      <trkpt lat="41.84152" lon="46.11687">
        <ele>325.349368</ele>
        <time>2021-08-12T15:14:31.921Z</time>
      </trkpt>
      <trkpt lat="41.84179" lon="46.11762">
        <ele>326.531201</ele>
        <time>2021-08-12T15:14:58.276Z</time>
      </trkpt>
      <trkpt lat="41.84286" lon="46.12067">
        <ele>331.154145</ele>
        <time>2021-08-12T15:16:41.906Z</time>
      </trkpt>
      <trkpt lat="41.84352" lon="46.12271">
        <ele>334.037224</ele>
        <time>2021-08-12T15:17:49.802Z</time>
      </trkpt>
      <trkpt lat="41.84361" lon="46.12298">
        <ele>334.408405</ele>
        <time>2021-08-12T15:17:58.695Z</time>
      </trkpt>
      <trkpt lat="41.84376" lon="46.12346">
        <ele>335.062558</ele>
        <time>2021-08-12T15:18:14.880Z</time>
      </trkpt>
      <trkpt lat="41.84392" lon="46.12394">
        <ele>335.6951</ele>
        <time>2021-08-12T15:18:30.780Z</time>
      </trkpt>
      <trkpt lat="41.84406" lon="46.12438">
        <ele>336.269031</ele>
        <time>2021-08-12T15:18:45.219Z</time>
      </trkpt>
      <trkpt lat="41.84409" lon="46.12449">
        <ele>336.410518</ele>
        <time>2021-08-12T15:18:48.753Z</time>
      </trkpt>
      <trkpt lat="41.84446" lon="46.12631">
        <ele>338.440356</ele>
        <time>2021-08-12T15:19:44.208Z</time>
      </trkpt>
      <trkpt lat="41.84449" lon="46.12649">
        <ele>338.611665</ele>
        <time>2021-08-12T15:19:49.432Z</time>
      </trkpt>
      <trkpt lat="41.84458" lon="46.12698">
        <ele>339.092657</ele>
        <time>2021-08-12T15:20:03.824Z</time>
      </trkpt>
      <trkpt lat="41.84457" lon="46.12758">
        <ele>339.655343</ele>
        <time>2021-08-12T15:20:20.537Z</time>
      </trkpt>
      <trkpt lat="41.84441" lon="46.12822">
        <ele>340.086851</ele>
        <time>2021-08-12T15:20:39.173Z</time>
      </trkpt>
      <trkpt lat="41.84385" lon="46.13011">
        <ele>341.098505</ele>
        <time>2021-08-12T15:21:31.923Z</time>
      </trkpt>
      <trkpt lat="41.8436" lon="46.13096">
        <ele>341.125907</ele>
        <time>2021-08-12T15:21:54.091Z</time>
      </trkpt>
      <trkpt lat="41.84284" lon="46.13312">
        <ele>341.143638</ele>
        <time>2021-08-12T15:22:47.542Z</time>
      </trkpt>
      <trkpt lat="41.84272" lon="46.13367">
        <ele>341.129748</ele>
        <time>2021-08-12T15:23:00.840Z</time>
      </trkpt>
      <trkpt lat="41.84262" lon="46.13407">
        <ele>341.119531</ele>
        <time>2021-08-12T15:23:10.864Z</time>
      </trkpt>
      <trkpt lat="41.84254" lon="46.13445">
        <ele>341.109847</ele>
        <time>2021-08-12T15:23:20.512Z</time>
      </trkpt>
      <trkpt lat="41.84223" lon="46.13566">
        <ele>341.195261</ele>
        <time>2021-08-12T15:23:51.359Z</time>
      </trkpt>
      <trkpt lat="41.8421" lon="46.13611">
        <ele>341.228014</ele>
        <time>2021-08-12T15:24:02.780Z</time>
      </trkpt>
      <trkpt lat="41.84201" lon="46.13644">
        <ele>341.252681</ele>
        <time>2021-08-12T15:24:11.190Z</time>
      </trkpt>
      <trkpt lat="41.84185" lon="46.13704">
        <ele>341.183199</ele>
        <time>2021-08-12T15:24:25.544Z</time>
      </trkpt>
      <trkpt lat="41.84184" lon="46.13707">
        <ele>341.17075</ele>
        <time>2021-08-12T15:24:26.402Z</time>
      </trkpt>
      <trkpt lat="41.84122" lon="46.1392">
        <ele>340.494875</ele>
        <time>2021-08-12T15:25:15.347Z</time>
      </trkpt>
      <trkpt lat="41.84095" lon="46.14013">
        <ele>340.367429</ele>
        <time>2021-08-12T15:25:37.347Z</time>
      </trkpt>
      <trkpt lat="41.84056" lon="46.1415">
        <ele>340.227897</ele>
        <time>2021-08-12T15:26:11.224Z</time>
      </trkpt>
      <trkpt lat="41.84053" lon="46.1416">
        <ele>340.234662</ele>
        <time>2021-08-12T15:26:13.867Z</time>
      </trkpt>
      <trkpt lat="41.83979" lon="46.14377">
        <ele>340.363026</ele>
        <time>2021-08-12T15:27:10.349Z</time>
      </trkpt>
      <trkpt lat="41.83897" lon="46.14624">
        <ele>340.307467</ele>
        <time>2021-08-12T15:28:13.387Z</time>
      </trkpt>
      <trkpt lat="41.83529" lon="46.15715">
        <ele>338.766991</ele>
        <time>2021-08-12T15:32:42.849Z</time>
      </trkpt>
      <trkpt lat="41.83496" lon="46.15839">
        <ele>338.730732</ele>
        <time>2021-08-12T15:33:13.049Z</time>
      </trkpt>
      <trkpt lat="41.83475" lon="46.15908">
        <ele>338.75184</ele>
        <time>2021-08-12T15:33:30.565Z</time>
      </trkpt>
      <trkpt lat="41.83428" lon="46.16068">
        <ele>339.098157</ele>
        <time>2021-08-12T15:34:12.906Z</time>
      </trkpt>
      <trkpt lat="41.83413" lon="46.16114">
        <ele>339.199082</ele>
        <time>2021-08-12T15:34:25.238Z</time>
      </trkpt>
      <trkpt lat="41.83405" lon="46.16138">
        <ele>339.218351</ele>
        <time>2021-08-12T15:34:31.830Z</time>
      </trkpt>
      <trkpt lat="41.83398" lon="46.16161">
        <ele>339.234093</ele>
        <time>2021-08-12T15:34:37.915Z</time>
      </trkpt>
      <trkpt lat="41.83384" lon="46.16203">
        <ele>339.263137</ele>
        <time>2021-08-12T15:34:49.049Z</time>
      </trkpt>
      <trkpt lat="41.83294" lon="46.16499">
        <ele>339.437226</ele>
        <time>2021-08-12T15:36:02.450Z</time>
      </trkpt>
      <trkpt lat="41.83269" lon="46.16588">
        <ele>339.53105</ele>
        <time>2021-08-12T15:36:26.105Z</time>
      </trkpt>
      <trkpt lat="41.83224" lon="46.16714">
        <ele>339.837444</ele>
        <time>2021-08-12T15:37:00.291Z</time>
      </trkpt>
      <trkpt lat="41.832" lon="46.16772">
        <ele>339.982983</ele>
        <time>2021-08-12T15:37:16.598Z</time>
      </trkpt>
      <trkpt lat="41.83182" lon="46.16817">
        <ele>340.032118</ele>
        <time>2021-08-12T15:37:29.173Z</time>
      </trkpt>
      <trkpt lat="41.83088" lon="46.17093">
        <ele>341.424623</ele>
        <time>2021-08-12T15:38:40.504Z</time>
      </trkpt>
      <trkpt lat="41.83028" lon="46.17305">
        <ele>347.129416</ele>
        <time>2021-08-12T15:39:58.749Z</time>
      </trkpt>
      <trkpt lat="41.82967" lon="46.17523">
        <ele>359.964605</ele>
        <time>2021-08-12T15:42:11.288Z</time>
      </trkpt>
      <trkpt lat="41.82961" lon="46.17555">
        <ele>362.375889</ele>
        <time>2021-08-12T15:42:34.117Z</time>
      </trkpt>
      <trkpt lat="41.82965" lon="46.17588">
        <ele>364.785594</ele>
        <time>2021-08-12T15:42:55.616Z</time>
      </trkpt>
      <trkpt lat="41.82991" lon="46.17623">
        <ele>368.425082</ele>
        <time>2021-08-12T15:43:29.569Z</time>
      </trkpt>
      <trkpt lat="41.83098" lon="46.17686">
        <ele>380.874239</ele>
        <time>2021-08-12T15:45:19.098Z</time>
      </trkpt>
      <trkpt lat="41.83101" lon="46.177">
        <ele>382.082334</ele>
        <time>2021-08-12T15:45:29.114Z</time>
      </trkpt>
      <trkpt lat="41.83094" lon="46.17713">
        <ele>383.385507</ele>
        <time>2021-08-12T15:45:39.928Z</time>
      </trkpt>
      <trkpt lat="41.83025" lon="46.1772">
        <ele>390.900223</ele>
        <time>2021-08-12T15:46:42.664Z</time>
      </trkpt>
      <trkpt lat="41.82976" lon="46.17762">
        <ele>397.248008</ele>
        <time>2021-08-12T15:47:37.246Z</time>
      </trkpt>
      <trkpt lat="41.82948" lon="46.1777">
        <ele>400.388211</ele>
        <time>2021-08-12T15:48:04.609Z</time>
      </trkpt>
      <trkpt lat="41.82927" lon="46.1777">
        <ele>402.734271</ele>
        <time>2021-08-12T15:48:24.988Z</time>
      </trkpt>
      <trkpt lat="41.82831" lon="46.17737">
        <ele>412.968232</ele>
        <time>2021-08-12T15:49:54.971Z</time>
      </trkpt>
      <trkpt lat="41.82784" lon="46.17731">
        <ele>417.145346</ele>
        <time>2021-08-12T15:50:36.407Z</time>
      </trkpt>
      <trkpt lat="41.82711" lon="46.17742">
        <ele>423.657776</ele>
        <time>2021-08-12T15:51:37.919Z</time>
      </trkpt>
      <trkpt lat="41.82685" lon="46.17754">
        <ele>426.018928</ele>
        <time>2021-08-12T15:51:57.394Z</time>
      </trkpt>
      <trkpt lat="41.82684" lon="46.17764">
        <ele>426.663382</ele>
        <time>2021-08-12T15:52:02.673Z</time>
      </trkpt>
      <trkpt lat="41.82694" lon="46.17775">
        <ele>426.824621</ele>
        <time>2021-08-12T15:52:10.712Z</time>
      </trkpt>
      <trkpt lat="41.82793" lon="46.17794">
        <ele>428.083737</ele>
        <time>2021-08-12T15:52:57.617Z</time>
      </trkpt>
      <trkpt lat="41.82822" lon="46.17817">
        <ele>428.509979</ele>
        <time>2021-08-12T15:53:07.773Z</time>
      </trkpt>
      <trkpt lat="41.82829" lon="46.17882">
        <ele>427.777174</ele>
        <time>2021-08-12T15:53:18.342Z</time>
      </trkpt>
      <trkpt lat="41.82813" lon="46.1792">
        <ele>425.254568</ele>
        <time>2021-08-12T15:53:24.936Z</time>
      </trkpt>
      <trkpt lat="41.82803" lon="46.17971">
        <ele>422.193371</ele>
        <time>2021-08-12T15:53:32.789Z</time>
      </trkpt>
      <trkpt lat="41.82803" lon="46.18039">
        <ele>418.309634</ele>
        <time>2021-08-12T15:53:42.622Z</time>
      </trkpt>
      <trkpt lat="41.82806" lon="46.18051">
        <ele>417.6091</ele>
        <time>2021-08-12T15:53:44.255Z</time>
      </trkpt>
      <trkpt lat="41.82839" lon="46.18189">
        <ele>408.77398</ele>
        <time>2021-08-12T15:54:05.235Z</time>
      </trkpt>
      <trkpt lat="41.82862" lon="46.18265">
        <ele>403.716222</ele>
        <time>2021-08-12T15:54:17.198Z</time>
      </trkpt>
      <trkpt lat="41.82904" lon="46.18306">
        <ele>399.531538</ele>
        <time>2021-08-12T15:54:27.653Z</time>
      </trkpt>
      <trkpt lat="41.82938" lon="46.18323">
        <ele>397.014773</ele>
        <time>2021-08-12T15:54:34.928Z</time>
      </trkpt>
      <trkpt lat="41.82955" lon="46.1834">
        <ele>395.52737</ele>
        <time>2021-08-12T15:54:39.232Z</time>
      </trkpt>
      <trkpt lat="41.82966" lon="46.18354">
        <ele>394.482337</ele>
        <time>2021-08-12T15:54:42.253Z</time>
      </trkpt>
      <trkpt lat="41.82975" lon="46.1838">
        <ele>392.992239</ele>
        <time>2021-08-12T15:54:46.544Z</time>
      </trkpt>
      <trkpt lat="41.82986" lon="46.18594">
        <ele>382.156646</ele>
        <time>2021-08-12T15:55:18.634Z</time>
      </trkpt>
      <trkpt lat="41.83012" lon="46.18661">
        <ele>378.477582</ele>
        <time>2021-08-12T15:55:30.015Z</time>
      </trkpt>
      <trkpt lat="41.83024" lon="46.18729">
        <ele>375.242634</ele>
        <time>2021-08-12T15:55:40.689Z</time>
      </trkpt>
      <trkpt lat="41.83016" lon="46.18974">
        <ele>366.249275</ele>
        <time>2021-08-12T15:56:19.742Z</time>
      </trkpt>
      <trkpt lat="41.82999" lon="46.19017">
        <ele>364.813305</ele>
        <time>2021-08-12T15:56:27.602Z</time>
      </trkpt>
      <trkpt lat="41.82889" lon="46.19112">
        <ele>359.634545</ele>
        <time>2021-08-12T15:56:56.503Z</time>
      </trkpt>
      <trkpt lat="41.8286" lon="46.19173">
        <ele>358.465561</ele>
        <time>2021-08-12T15:57:08.825Z</time>
      </trkpt>
      <trkpt lat="41.82738" lon="46.19465">
        <ele>354.459207</ele>
        <time>2021-08-12T15:58:12.720Z</time>
      </trkpt>
      <trkpt lat="41.82724" lon="46.19531">
        <ele>353.925569</ele>
        <time>2021-08-12T15:58:28.190Z</time>
      </trkpt>
      <trkpt lat="41.82736" lon="46.19792">
        <ele>354.664975</ele>
        <time>2021-08-12T15:59:33.159Z</time>
      </trkpt>
      <trkpt lat="41.82658" lon="46.20443">
        <ele>359.500655</ele>
        <time>2021-08-12T16:02:34.924Z</time>
      </trkpt>
      <trkpt lat="41.82593" lon="46.20976">
        <ele>363.559216</ele>
        <time>2021-08-12T16:05:03.097Z</time>
      </trkpt>
      <trkpt lat="41.82583" lon="46.21068">
        <ele>364.130408</ele>
        <time>2021-08-12T16:05:28.497Z</time>
      </trkpt>
      <trkpt lat="41.82577" lon="46.21133">
        <ele>364.534806</ele>
        <time>2021-08-12T16:05:45.974Z</time>
      </trkpt>
      <trkpt lat="41.82571" lon="46.21197">
        <ele>364.929446</ele>
        <time>2021-08-12T16:06:02.940Z</time>
      </trkpt>
      <trkpt lat="41.82571" lon="46.21245">
        <ele>365.169703</ele>
        <time>2021-08-12T16:06:15.582Z</time>
      </trkpt>
      <trkpt lat="41.82564" lon="46.21471">
        <ele>366.209933</ele>
        <time>2021-08-12T16:07:13.319Z</time>
      </trkpt>
      <trkpt lat="41.82559" lon="46.21633">
        <ele>367.027548</ele>
        <time>2021-08-12T16:07:55.467Z</time>
      </trkpt>
      <trkpt lat="41.82558" lon="46.21659">
        <ele>367.156855</ele>
        <time>2021-08-12T16:08:02.453Z</time>
      </trkpt>
      <trkpt lat="41.82547" lon="46.2204">
        <ele>369.33482</ele>
        <time>2021-08-12T16:09:45.118Z</time>
      </trkpt>
      <trkpt lat="41.82546" lon="46.22066">
        <ele>369.439977</ele>
        <time>2021-08-12T16:09:51.492Z</time>
      </trkpt>
      <trkpt lat="41.82528" lon="46.22714">
        <ele>370.855917</ele>
        <time>2021-08-12T16:12:28.747Z</time>
      </trkpt>
      <trkpt lat="41.82521" lon="46.22975">
        <ele>371.95119</ele>
        <time>2021-08-12T16:13:33.634Z</time>
      </trkpt>
      <trkpt lat="41.82519" lon="46.23669">
        <ele>378.444799</ele>
        <time>2021-08-12T16:16:50.420Z</time>
      </trkpt>
      <trkpt lat="41.82518" lon="46.23858">
        <ele>381.866468</ele>
        <time>2021-08-12T16:17:56.103Z</time>
      </trkpt>
      <trkpt lat="41.82518" lon="46.24114">
        <ele>388.111083</ele>
        <time>2021-08-12T16:19:31.085Z</time>
      </trkpt>
      <trkpt lat="41.82518" lon="46.24275">
        <ele>392.12871</ele>
        <time>2021-08-12T16:20:31.837Z</time>
      </trkpt>
      <trkpt lat="41.82517" lon="46.24495">
        <ele>397.510654</ele>
        <time>2021-08-12T16:21:52.410Z</time>
      </trkpt>
      <trkpt lat="41.82518" lon="46.24636">
        <ele>401.036351</ele>
        <time>2021-08-12T16:22:44.420Z</time>
      </trkpt>
      <trkpt lat="41.82517" lon="46.24788">
        <ele>405.054161</ele>
        <time>2021-08-12T16:23:41.611Z</time>
      </trkpt>
      <trkpt lat="41.82516" lon="46.24965">
        <ele>410.228225</ele>
        <time>2021-08-12T16:24:53.854Z</time>
      </trkpt>
      <trkpt lat="41.82516" lon="46.25075">
        <ele>413.515306</ele>
        <time>2021-08-12T16:25:37.734Z</time>
      </trkpt>
      <trkpt lat="41.82516" lon="46.25212">
        <ele>417.171759</ele>
        <time>2021-08-12T16:26:30.908Z</time>
      </trkpt>
      <trkpt lat="41.82516" lon="46.25223">
        <ele>417.44548</ele>
        <time>2021-08-12T16:26:35.581Z</time>
      </trkpt>
      <trkpt lat="41.82515" lon="46.2546">
        <ele>423.048649</ele>
        <time>2021-08-12T16:28:01.152Z</time>
      </trkpt>
      <trkpt lat="41.82514" lon="46.25715">
        <ele>428.418153</ele>
        <time>2021-08-12T16:29:29.637Z</time>
      </trkpt>
      <trkpt lat="41.82514" lon="46.25841">
        <ele>430.969338</ele>
        <time>2021-08-12T16:30:13.697Z</time>
      </trkpt>
      <trkpt lat="41.82513" lon="46.25935">
        <ele>432.825859</ele>
        <time>2021-08-12T16:30:46.692Z</time>
      </trkpt>
      <trkpt lat="41.82513" lon="46.25979">
        <ele>433.698696</ele>
        <time>2021-08-12T16:31:01.899Z</time>
      </trkpt>
      <trkpt lat="41.82513" lon="46.26122">
        <ele>436.177407</ele>
        <time>2021-08-12T16:31:48.359Z</time>
      </trkpt>
      <trkpt lat="41.82499" lon="46.26344">
        <ele>439.814026</ele>
        <time>2021-08-12T16:32:58.897Z</time>
      </trkpt>
      <trkpt lat="41.82496" lon="46.26371">
        <ele>440.296293</ele>
        <time>2021-08-12T16:33:08.466Z</time>
      </trkpt>
      <trkpt lat="41.82494" lon="46.26393">
        <ele>440.676238</ele>
        <time>2021-08-12T16:33:16.050Z</time>
      </trkpt>
      <trkpt lat="41.82478" lon="46.2652">
        <ele>442.911616</ele>
        <time>2021-08-12T16:33:59.568Z</time>
      </trkpt>
      <trkpt lat="41.82467" lon="46.26606">
        <ele>444.206677</ele>
        <time>2021-08-12T16:34:27.588Z</time>
      </trkpt>
      <trkpt lat="41.82462" lon="46.26647">
        <ele>444.827438</ele>
        <time>2021-08-12T16:34:41.199Z</time>
      </trkpt>
      <trkpt lat="41.82457" lon="46.26705">
        <ele>445.708514</ele>
        <time>2021-08-12T16:34:59.531Z</time>
      </trkpt>
      <trkpt lat="41.82449" lon="46.26786">
        <ele>446.832945</ele>
        <time>2021-08-12T16:35:23.487Z</time>
      </trkpt>
      <trkpt lat="41.82446" lon="46.26819">
        <ele>447.243993</ele>
        <time>2021-08-12T16:35:33.126Z</time>
      </trkpt>
      <trkpt lat="41.8244" lon="46.26857">
        <ele>447.72391</ele>
        <time>2021-08-12T16:35:44.824Z</time>
      </trkpt>
      <trkpt lat="41.82431" lon="46.26904">
        <ele>448.324645</ele>
        <time>2021-08-12T16:35:59.590Z</time>
      </trkpt>
      <trkpt lat="41.82417" lon="46.26967">
        <ele>449.140101</ele>
        <time>2021-08-12T16:36:19.853Z</time>
      </trkpt>
      <trkpt lat="41.82414" lon="46.26975">
        <ele>449.249569</ele>
        <time>2021-08-12T16:36:22.493Z</time>
      </trkpt>
      <trkpt lat="41.82396" lon="46.27046">
        <ele>449.739241</ele>
        <time>2021-08-12T16:36:45.002Z</time>
      </trkpt>
      <trkpt lat="41.8238" lon="46.27108">
        <ele>450.097463</ele>
        <time>2021-08-12T16:37:03.752Z</time>
      </trkpt>
      <trkpt lat="41.82363" lon="46.27174">
        <ele>450.476769</ele>
        <time>2021-08-12T16:37:21.706Z</time>
      </trkpt>
      <trkpt lat="41.82363" lon="46.27174">
        <ele>450.476769</ele>
        <time>2021-08-12T16:37:21.733Z</time>
      </trkpt>
      <trkpt lat="41.82363" lon="46.27174">
        <ele>450.476769</ele>
        <time>2021-08-12T16:37:21.964Z</time>
      </trkpt>
      <trkpt lat="41.8238" lon="46.27108">
        <ele>450.45228</ele>
        <time>2021-08-12T16:37:36.768Z</time>
      </trkpt>
      <trkpt lat="41.82396" lon="46.27046">
        <ele>449.801449</ele>
        <time>2021-08-12T16:37:49.681Z</time>
      </trkpt>
      <trkpt lat="41.82414" lon="46.26975">
        <ele>449.064707</ele>
        <time>2021-08-12T16:38:03.783Z</time>
      </trkpt>
      <trkpt lat="41.82417" lon="46.26967">
        <ele>448.977152</ele>
        <time>2021-08-12T16:38:05.468Z</time>
      </trkpt>
      <trkpt lat="41.82431" lon="46.26904">
        <ele>448.324187</ele>
        <time>2021-08-12T16:38:17.828Z</time>
      </trkpt>
      <trkpt lat="41.8244" lon="46.26857">
        <ele>447.708164</ele>
        <time>2021-08-12T16:38:26.988Z</time>
      </trkpt>
      <trkpt lat="41.82446" lon="46.26819">
        <ele>447.216034</ele>
        <time>2021-08-12T16:38:34.374Z</time>
      </trkpt>
      <trkpt lat="41.82449" lon="46.26786">
        <ele>446.794525</ele>
        <time>2021-08-12T16:38:40.827Z</time>
      </trkpt>
      <trkpt lat="41.82457" lon="46.26705">
        <ele>445.767081</ele>
        <time>2021-08-12T16:38:56.385Z</time>
      </trkpt>
      <trkpt lat="41.82462" lon="46.26647">
        <ele>444.9415</ele>
        <time>2021-08-12T16:39:07.358Z</time>
      </trkpt>
      <trkpt lat="41.82467" lon="46.26606">
        <ele>444.250324</ele>
        <time>2021-08-12T16:39:14.867Z</time>
      </trkpt>
      <trkpt lat="41.82478" lon="46.2652">
        <ele>442.80836</ele>
        <time>2021-08-12T16:39:30.617Z</time>
      </trkpt>
      <trkpt lat="41.82494" lon="46.26393">
        <ele>440.664585</ele>
        <time>2021-08-12T16:39:53.568Z</time>
      </trkpt>
      <trkpt lat="41.82496" lon="46.26371">
        <ele>440.304998</ele>
        <time>2021-08-12T16:39:57.384Z</time>
      </trkpt>
      <trkpt lat="41.82499" lon="46.26344">
        <ele>439.848571</ele>
        <time>2021-08-12T16:40:02.248Z</time>
      </trkpt>
      <trkpt lat="41.82513" lon="46.26122">
        <ele>436.141571</ele>
        <time>2021-08-12T16:40:43.178Z</time>
      </trkpt>
      <trkpt lat="41.82513" lon="46.25979">
        <ele>433.711053</ele>
        <time>2021-08-12T16:41:09.018Z</time>
      </trkpt>
      <trkpt lat="41.82513" lon="46.25935">
        <ele>432.918178</ele>
        <time>2021-08-12T16:41:16.778Z</time>
      </trkpt>
      <trkpt lat="41.82514" lon="46.25841">
        <ele>430.99524</ele>
        <time>2021-08-12T16:41:33.076Z</time>
      </trkpt>
      <trkpt lat="41.82514" lon="46.25715">
        <ele>428.408091</ele>
        <time>2021-08-12T16:41:55.100Z</time>
      </trkpt>
      <trkpt lat="41.82515" lon="46.2546">
        <ele>423.117342</ele>
        <time>2021-08-12T16:42:39.889Z</time>
      </trkpt>
      <trkpt lat="41.82516" lon="46.25223">
        <ele>417.597815</ele>
        <time>2021-08-12T16:43:20.544Z</time>
      </trkpt>
      <trkpt lat="41.82516" lon="46.25212">
        <ele>417.306568</ele>
        <time>2021-08-12T16:43:22.169Z</time>
      </trkpt>
      <trkpt lat="41.82516" lon="46.25075">
        <ele>413.416</ele>
        <time>2021-08-12T16:43:45.081Z</time>
      </trkpt>
      <trkpt lat="41.82516" lon="46.24965">
        <ele>410.277675</ele>
        <time>2021-08-12T16:44:03.193Z</time>
      </trkpt>
      <trkpt lat="41.82517" lon="46.24788">
        <ele>405.042378</ele>
        <time>2021-08-12T16:44:32.006Z</time>
      </trkpt>
      <trkpt lat="41.82518" lon="46.24636">
        <ele>401.030683</ele>
        <time>2021-08-12T16:44:57.527Z</time>
      </trkpt>
      <trkpt lat="41.82517" lon="46.24495">
        <ele>397.500773</ele>
        <time>2021-08-12T16:45:21.496Z</time>
      </trkpt>
      <trkpt lat="41.82518" lon="46.24275">
        <ele>392.148219</ele>
        <time>2021-08-12T16:45:59.083Z</time>
      </trkpt>
      <trkpt lat="41.82518" lon="46.24114">
        <ele>388.114356</ele>
        <time>2021-08-12T16:46:26.145Z</time>
      </trkpt>
      <trkpt lat="41.82518" lon="46.23858">
        <ele>381.982045</ele>
        <time>2021-08-12T16:47:09.508Z</time>
      </trkpt>
      <trkpt lat="41.82519" lon="46.23669">
        <ele>378.814448</ele>
        <time>2021-08-12T16:47:42.632Z</time>
      </trkpt>
      <trkpt lat="41.82521" lon="46.22975">
        <ele>371.859478</ele>
        <time>2021-08-12T16:49:59.383Z</time>
      </trkpt>
      <trkpt lat="41.82528" lon="46.22714">
        <ele>370.876724</ele>
        <time>2021-08-12T16:50:56.351Z</time>
      </trkpt>
      <trkpt lat="41.82546" lon="46.22066">
        <ele>369.545064</ele>
        <time>2021-08-12T16:53:21.543Z</time>
      </trkpt>
      <trkpt lat="41.82547" lon="46.2204">
        <ele>369.403471</ele>
        <time>2021-08-12T16:53:27.124Z</time>
      </trkpt>
      <trkpt lat="41.82558" lon="46.21659">
        <ele>367.164252</ele>
        <time>2021-08-12T16:54:45.404Z</time>
      </trkpt>
      <trkpt lat="41.82559" lon="46.21633">
        <ele>367.00472</ele>
        <time>2021-08-12T16:54:50.605Z</time>
      </trkpt>
      <trkpt lat="41.82564" lon="46.21471">
        <ele>366.214151</ele>
        <time>2021-08-12T16:55:24.946Z</time>
      </trkpt>
      <trkpt lat="41.82571" lon="46.21245">
        <ele>365.138042</ele>
        <time>2021-08-12T16:56:12.984Z</time>
      </trkpt>
      <trkpt lat="41.82571" lon="46.21197">
        <ele>364.896883</ele>
        <time>2021-08-12T16:56:23.214Z</time>
      </trkpt>
      <trkpt lat="41.82577" lon="46.21133">
        <ele>364.578693</ele>
        <time>2021-08-12T16:56:36.537Z</time>
      </trkpt>
      <trkpt lat="41.82583" lon="46.21068">
        <ele>364.153015</ele>
        <time>2021-08-12T16:56:50.098Z</time>
      </trkpt>
      <trkpt lat="41.82593" lon="46.20976">
        <ele>363.522908</ele>
        <time>2021-08-12T16:57:08.901Z</time>
      </trkpt>
      <trkpt lat="41.82658" lon="46.20443">
        <ele>359.500596</ele>
        <time>2021-08-12T16:58:57.937Z</time>
      </trkpt>
      <trkpt lat="41.82736" lon="46.19792">
        <ele>354.766974</ele>
        <time>2021-08-12T17:01:10.721Z</time>
      </trkpt>
      <trkpt lat="41.82724" lon="46.19531">
        <ele>354.202192</ele>
        <time>2021-08-12T17:02:07.584Z</time>
      </trkpt>
      <trkpt lat="41.82738" lon="46.19465">
        <ele>354.205813</ele>
        <time>2021-08-12T17:02:24.401Z</time>
      </trkpt>
      <trkpt lat="41.8286" lon="46.19173">
        <ele>358.534199</ele>
        <time>2021-08-12T17:04:03.793Z</time>
      </trkpt>
      <trkpt lat="41.82889" lon="46.19112">
        <ele>360.082238</ele>
        <time>2021-08-12T17:04:29.940Z</time>
      </trkpt>
      <trkpt lat="41.82999" lon="46.19017">
        <ele>364.81908</ele>
        <time>2021-08-12T17:05:39.307Z</time>
      </trkpt>
      <trkpt lat="41.83016" lon="46.18974">
        <ele>366.395681</ele>
        <time>2021-08-12T17:05:59.397Z</time>
      </trkpt>
      <trkpt lat="41.83024" lon="46.18729">
        <ele>375.552329</ele>
        <time>2021-08-12T17:07:46.414Z</time>
      </trkpt>
      <trkpt lat="41.83012" lon="46.18661">
        <ele>378.392953</ele>
        <time>2021-08-12T17:08:19.929Z</time>
      </trkpt>
      <trkpt lat="41.82986" lon="46.18594">
        <ele>381.938006</ele>
        <time>2021-08-12T17:08:57.864Z</time>
      </trkpt>
      <trkpt lat="41.82975" lon="46.1838">
        <ele>393.066966</ele>
        <time>2021-08-12T17:10:51.961Z</time>
      </trkpt>
      <trkpt lat="41.82966" lon="46.18354">
        <ele>394.586216</ele>
        <time>2021-08-12T17:11:07.016Z</time>
      </trkpt>
      <trkpt lat="41.82955" lon="46.1834">
        <ele>395.651693</ele>
        <time>2021-08-12T17:11:17.394Z</time>
      </trkpt>
      <trkpt lat="41.82938" lon="46.18323">
        <ele>397.168195</ele>
        <time>2021-08-12T17:11:32.148Z</time>
      </trkpt>
      <trkpt lat="41.82904" lon="46.18306">
        <ele>399.734197</ele>
        <time>2021-08-12T17:11:56.912Z</time>
      </trkpt>
      <trkpt lat="41.82862" lon="46.18265">
        <ele>403.417441</ele>
        <time>2021-08-12T17:12:32.245Z</time>
      </trkpt>
      <trkpt lat="41.82839" lon="46.18189">
        <ele>408.473297</ele>
        <time>2021-08-12T17:13:19.203Z</time>
      </trkpt>
      <trkpt lat="41.82806" lon="46.18051">
        <ele>418.201099</ele>
        <time>2021-08-12T17:14:49.556Z</time>
      </trkpt>
      <trkpt lat="41.82803" lon="46.18039">
        <ele>419.013633</ele>
        <time>2021-08-12T17:15:01.508Z</time>
      </trkpt>
      <trkpt lat="41.82803" lon="46.17971">
        <ele>422.444753</ele>
        <time>2021-08-12T17:15:41.417Z</time>
      </trkpt>
      <trkpt lat="41.82813" lon="46.1792">
        <ele>424.464328</ele>
        <time>2021-08-12T17:16:11.197Z</time>
      </trkpt>
      <trkpt lat="41.82829" lon="46.17882">
        <ele>426.128576</ele>
        <time>2021-08-12T17:16:33.734Z</time>
      </trkpt>
      <trkpt lat="41.82822" lon="46.17817">
        <ele>428.581926</ele>
        <time>2021-08-12T17:16:59.912Z</time>
      </trkpt>
      <trkpt lat="41.82793" lon="46.17794">
        <ele>430.06761</ele>
        <time>2021-08-12T17:17:10.871Z</time>
      </trkpt>
      <trkpt lat="41.82694" lon="46.17775">
        <ele>425.561203</ele>
        <time>2021-08-12T17:17:34.100Z</time>
      </trkpt>
      <trkpt lat="41.82684" lon="46.17764">
        <ele>424.984125</ele>
        <time>2021-08-12T17:17:36.737Z</time>
      </trkpt>
      <trkpt lat="41.82685" lon="46.17754">
        <ele>424.649443</ele>
        <time>2021-08-12T17:17:38.227Z</time>
      </trkpt>
      <trkpt lat="41.82711" lon="46.17742">
        <ele>423.438367</ele>
        <time>2021-08-12T17:17:43.557Z</time>
      </trkpt>
      <trkpt lat="41.82784" lon="46.17731">
        <ele>417.666981</ele>
        <time>2021-08-12T17:17:57.787Z</time>
      </trkpt>
      <trkpt lat="41.82831" lon="46.17737">
        <ele>412.872384</ele>
        <time>2021-08-12T17:18:06.801Z</time>
      </trkpt>
      <trkpt lat="41.82927" lon="46.1777">
        <ele>402.844979</ele>
        <time>2021-08-12T17:18:25.369Z</time>
      </trkpt>
      <trkpt lat="41.82948" lon="46.1777">
        <ele>400.486813</ele>
        <time>2021-08-12T17:18:29.404Z</time>
      </trkpt>
      <trkpt lat="41.82976" lon="46.17762">
        <ele>397.330406</ele>
        <time>2021-08-12T17:18:34.787Z</time>
      </trkpt>
      <trkpt lat="41.83025" lon="46.1772">
        <ele>390.949346</ele>
        <time>2021-08-12T17:18:45.707Z</time>
      </trkpt>
      <trkpt lat="41.83094" lon="46.17713">
        <ele>383.392724</ele>
        <time>2021-08-12T17:18:58.718Z</time>
      </trkpt>
      <trkpt lat="41.83101" lon="46.177">
        <ele>382.096211</ele>
        <time>2021-08-12T17:19:00.983Z</time>
      </trkpt>
      <trkpt lat="41.83098" lon="46.17686">
        <ele>380.894288</ele>
        <time>2021-08-12T17:19:03.079Z</time>
      </trkpt>
      <trkpt lat="41.82991" lon="46.17623">
        <ele>368.173422</ele>
        <time>2021-08-12T17:19:25.112Z</time>
      </trkpt>
      <trkpt lat="41.82965" lon="46.17588">
        <ele>364.26675</ele>
        <time>2021-08-12T17:19:32.080Z</time>
      </trkpt>
      <trkpt lat="41.82961" lon="46.17555">
        <ele>362.119113</ele>
        <time>2021-08-12T17:19:36.748Z</time>
      </trkpt>
      <trkpt lat="41.82967" lon="46.17523">
        <ele>359.97007</ele>
        <time>2021-08-12T17:19:41.359Z</time>
      </trkpt>
      <trkpt lat="41.83028" lon="46.17305">
        <ele>346.917764</ele>
        <time>2021-08-12T17:20:15.483Z</time>
      </trkpt>
      <trkpt lat="41.83088" lon="46.17093">
        <ele>341.14659</ele>
        <time>2021-08-12T17:20:55.181Z</time>
      </trkpt>
      <trkpt lat="41.83182" lon="46.16817">
        <ele>339.996475</ele>
        <time>2021-08-12T17:22:05.132Z</time>
      </trkpt>
      <trkpt lat="41.832" lon="46.16772">
        <ele>339.931364</ele>
        <time>2021-08-12T17:22:16.668Z</time>
      </trkpt>
      <trkpt lat="41.83224" lon="46.16714">
        <ele>339.848202</ele>
        <time>2021-08-12T17:22:31.171Z</time>
      </trkpt>
      <trkpt lat="41.83269" lon="46.16588">
        <ele>339.583409</ele>
        <time>2021-08-12T17:23:01.802Z</time>
      </trkpt>
      <trkpt lat="41.83294" lon="46.16499">
        <ele>339.395933</ele>
        <time>2021-08-12T17:23:22.648Z</time>
      </trkpt>
      <trkpt lat="41.83384" lon="46.16203">
        <ele>339.279331</ele>
        <time>2021-08-12T17:24:37.752Z</time>
      </trkpt>
      <trkpt lat="41.83398" lon="46.16161">
        <ele>339.213284</ele>
        <time>2021-08-12T17:24:48.097Z</time>
      </trkpt>
      <trkpt lat="41.83405" lon="46.16138">
        <ele>339.177486</ele>
        <time>2021-08-12T17:24:53.627Z</time>
      </trkpt>
      <trkpt lat="41.83413" lon="46.16114">
        <ele>339.13901</ele>
        <time>2021-08-12T17:24:59.580Z</time>
      </trkpt>
      <trkpt lat="41.83428" lon="46.16068">
        <ele>339.067381</ele>
        <time>2021-08-12T17:25:10.560Z</time>
      </trkpt>
      <trkpt lat="41.83475" lon="46.15908">
        <ele>338.814932</ele>
        <time>2021-08-12T17:25:48.243Z</time>
      </trkpt>
      <trkpt lat="41.83496" lon="46.15839">
        <ele>338.704429</ele>
        <time>2021-08-12T17:26:05.448Z</time>
      </trkpt>
      <trkpt lat="41.83529" lon="46.15715">
        <ele>338.792876</ele>
        <time>2021-08-12T17:26:36.613Z</time>
      </trkpt>
      <trkpt lat="41.83897" lon="46.14624">
        <ele>340.317694</ele>
        <time>2021-08-12T17:31:24.319Z</time>
      </trkpt>
      <trkpt lat="41.83979" lon="46.14377">
        <ele>340.349246</ele>
        <time>2021-08-12T17:32:27.186Z</time>
      </trkpt>
      <trkpt lat="41.84053" lon="46.1416">
        <ele>340.26584</ele>
        <time>2021-08-12T17:33:21.283Z</time>
      </trkpt>
      <trkpt lat="41.84056" lon="46.1415">
        <ele>340.262695</ele>
        <time>2021-08-12T17:33:23.816Z</time>
      </trkpt>
      <trkpt lat="41.84095" lon="46.14013">
        <ele>340.315602</ele>
        <time>2021-08-12T17:33:58.337Z</time>
      </trkpt>
      <trkpt lat="41.84122" lon="46.1392">
        <ele>340.560106</ele>
        <time>2021-08-12T17:34:22.707Z</time>
      </trkpt>
      <trkpt lat="41.84184" lon="46.13707">
        <ele>341.068035</ele>
        <time>2021-08-12T17:35:20.775Z</time>
      </trkpt>
      <trkpt lat="41.84185" lon="46.13704">
        <ele>341.076073</ele>
        <time>2021-08-12T17:35:21.779Z</time>
      </trkpt>
      <trkpt lat="41.84201" lon="46.13644">
        <ele>341.203055</ele>
        <time>2021-08-12T17:35:36.661Z</time>
      </trkpt>
      <trkpt lat="41.8421" lon="46.13611">
        <ele>341.275199</ele>
        <time>2021-08-12T17:35:44.894Z</time>
      </trkpt>
      <trkpt lat="41.84223" lon="46.13566">
        <ele>341.277814</ele>
        <time>2021-08-12T17:35:55.592Z</time>
      </trkpt>
      <trkpt lat="41.84254" lon="46.13445">
        <ele>341.135758</ele>
        <time>2021-08-12T17:36:24.266Z</time>
      </trkpt>
      <trkpt lat="41.84262" lon="46.13407">
        <ele>341.091336</ele>
        <time>2021-08-12T17:36:33.219Z</time>
      </trkpt>
      <trkpt lat="41.84272" lon="46.13367">
        <ele>341.044466</ele>
        <time>2021-08-12T17:36:42.814Z</time>
      </trkpt>
      <trkpt lat="41.84284" lon="46.13312">
        <ele>341.096224</ele>
        <time>2021-08-12T17:36:56.179Z</time>
      </trkpt>
      <trkpt lat="41.8436" lon="46.13096">
        <ele>341.16369</ele>
        <time>2021-08-12T17:37:53.705Z</time>
      </trkpt>
      <trkpt lat="41.84385" lon="46.13011">
        <ele>340.970786</ele>
        <time>2021-08-12T17:38:14.224Z</time>
      </trkpt>
      <trkpt lat="41.84441" lon="46.12822">
        <ele>340.038331</ele>
        <time>2021-08-12T17:38:57.142Z</time>
      </trkpt>
      <trkpt lat="41.84457" lon="46.12758">
        <ele>339.57854</ele>
        <time>2021-08-12T17:39:10.606Z</time>
      </trkpt>
      <trkpt lat="41.84458" lon="46.12698">
        <ele>339.169671</ele>
        <time>2021-08-12T17:39:22.541Z</time>
      </trkpt>
      <trkpt lat="41.84449" lon="46.12649">
        <ele>338.659984</ele>
        <time>2021-08-12T17:39:32.678Z</time>
      </trkpt>
      <trkpt lat="41.84446" lon="46.12631">
        <ele>338.46832</ele>
        <time>2021-08-12T17:39:36.252Z</time>
      </trkpt>
      <trkpt lat="41.84409" lon="46.12449">
        <ele>336.464658</ele>
        <time>2021-08-12T17:40:12.509Z</time>
      </trkpt>
      <trkpt lat="41.84406" lon="46.12438">
        <ele>336.316526</ele>
        <time>2021-08-12T17:40:14.731Z</time>
      </trkpt>
      <trkpt lat="41.84392" lon="46.12394">
        <ele>335.715641</ele>
        <time>2021-08-12T17:40:23.683Z</time>
      </trkpt>
      <trkpt lat="41.84376" lon="46.12346">
        <ele>335.053393</ele>
        <time>2021-08-12T17:40:33.513Z</time>
      </trkpt>
      <trkpt lat="41.84361" lon="46.12298">
        <ele>334.383508</ele>
        <time>2021-08-12T17:40:43.465Z</time>
      </trkpt>
      <trkpt lat="41.84352" lon="46.12271">
        <ele>334.017976</ele>
        <time>2021-08-12T17:40:48.858Z</time>
      </trkpt>
      <trkpt lat="41.84286" lon="46.12067">
        <ele>331.147312</ele>
        <time>2021-08-12T17:41:30.825Z</time>
      </trkpt>
      <trkpt lat="41.84179" lon="46.11762">
        <ele>326.552023</ele>
        <time>2021-08-12T17:42:33.629Z</time>
      </trkpt>
      <trkpt lat="41.84152" lon="46.11687">
        <ele>325.334573</ele>
        <time>2021-08-12T17:42:48.890Z</time>
      </trkpt>
      <trkpt lat="41.84094" lon="46.11515">
        <ele>322.642617</ele>
        <time>2021-08-12T17:43:23.599Z</time>
      </trkpt>
      <trkpt lat="41.84028" lon="46.11322">
        <ele>319.899606</ele>
        <time>2021-08-12T17:44:03.491Z</time>
      </trkpt>
      <trkpt lat="41.84013" lon="46.11276">
        <ele>319.367994</ele>
        <time>2021-08-12T17:44:13.193Z</time>
      </trkpt>
      <trkpt lat="41.83997" lon="46.11228">
        <ele>318.808938</ele>
        <time>2021-08-12T17:44:23.347Z</time>
      </trkpt>
      <trkpt lat="41.83942" lon="46.11076">
        <ele>317.200313</ele>
        <time>2021-08-12T17:44:56.433Z</time>
      </trkpt>
      <trkpt lat="41.83936" lon="46.11057">
        <ele>317.033135</ele>
        <time>2021-08-12T17:45:00.685Z</time>
      </trkpt>
      <trkpt lat="41.83935" lon="46.11055">
        <ele>317.011893</ele>
        <time>2021-08-12T17:45:01.126Z</time>
      </trkpt>
      <trkpt lat="41.83933" lon="46.11048">
        <ele>316.953024</ele>
        <time>2021-08-12T17:45:02.513Z</time>
      </trkpt>
      <trkpt lat="41.8389" lon="46.10919">
        <ele>315.814035</ele>
        <time>2021-08-12T17:45:30.983Z</time>
      </trkpt>
      <trkpt lat="41.83886" lon="46.10889">
        <ele>315.608343</ele>
        <time>2021-08-12T17:45:37.307Z</time>
      </trkpt>
      <trkpt lat="41.83888" lon="46.10846">
        <ele>315.31626</ele>
        <time>2021-08-12T17:45:46.176Z</time>
      </trkpt>
      <trkpt lat="41.83926" lon="46.10695">
        <ele>314.247386</ele>
        <time>2021-08-12T17:46:19.081Z</time>
      </trkpt>
      <trkpt lat="41.83948" lon="46.10611">
        <ele>313.503477</ele>
        <time>2021-08-12T17:46:36.852Z</time>
      </trkpt>
      <trkpt lat="41.83957" lon="46.10577">
        <ele>313.195053</ele>
        <time>2021-08-12T17:46:44.057Z</time>
      </trkpt>
      <trkpt lat="41.8399" lon="46.10453">
        <ele>312.067234</ele>
        <time>2021-08-12T17:47:09.993Z</time>
      </trkpt>
      <trkpt lat="41.83997" lon="46.10426">
        <ele>311.800916</ele>
        <time>2021-08-12T17:47:15.566Z</time>
      </trkpt>
      <trkpt lat="41.84004" lon="46.10377">
        <ele>311.328205</ele>
        <time>2021-08-12T17:47:25.293Z</time>
      </trkpt>
      <trkpt lat="41.84003" lon="46.10316">
        <ele>310.750413</ele>
        <time>2021-08-12T17:47:37.189Z</time>
      </trkpt>
      <trkpt lat="41.83977" lon="46.10246">
        <ele>310.011898</ele>
        <time>2021-08-12T17:47:52.676Z</time>
      </trkpt>
      <trkpt lat="41.83859" lon="46.10077">
        <ele>307.614719</ele>
        <time>2021-08-12T17:48:37.442Z</time>
      </trkpt>
      <trkpt lat="41.83828" lon="46.10035">
        <ele>307.057981</ele>
        <time>2021-08-12T17:48:48.790Z</time>
      </trkpt>
      <trkpt lat="41.83816" lon="46.10018">
        <ele>306.848646</ele>
        <time>2021-08-12T17:48:53.442Z</time>
      </trkpt>
      <trkpt lat="41.83702" lon="46.0986">
        <ele>305.013187</ele>
        <time>2021-08-12T17:49:37.211Z</time>
      </trkpt>
      <trkpt lat="41.83668" lon="46.09795">
        <ele>304.515864</ele>
        <time>2021-08-12T17:49:53.572Z</time>
      </trkpt>
      <trkpt lat="41.83659" lon="46.09762">
        <ele>304.29178</ele>
        <time>2021-08-12T17:50:01.012Z</time>
      </trkpt>
      <trkpt lat="41.83659" lon="46.09729">
        <ele>304.085175</ele>
        <time>2021-08-12T17:50:07.877Z</time>
      </trkpt>
      <trkpt lat="41.83684" lon="46.09532">
        <ele>302.492448</ele>
        <time>2021-08-12T17:50:48.710Z</time>
      </trkpt>
      <trkpt lat="41.83688" lon="46.09512">
        <ele>302.308755</ele>
        <time>2021-08-12T17:50:52.905Z</time>
      </trkpt>
      <trkpt lat="41.835" lon="46.09241">
        <ele>298.090698</ele>
        <time>2021-08-12T17:52:02.782Z</time>
      </trkpt>
      <trkpt lat="41.83442" lon="46.09155">
        <ele>296.6855</ele>
        <time>2021-08-12T17:52:24.419Z</time>
      </trkpt>
      <trkpt lat="41.83221" lon="46.08785">
        <ele>291.063795</ele>
        <time>2021-08-12T17:53:55.370Z</time>
      </trkpt>
      <trkpt lat="41.83059" lon="46.08515">
        <ele>286.175156</ele>
        <time>2021-08-12T17:54:58.743Z</time>
      </trkpt>
      <trkpt lat="41.83039" lon="46.08482">
        <ele>285.732683</ele>
        <time>2021-08-12T17:55:06.860Z</time>
      </trkpt>
      <trkpt lat="41.83012" lon="46.08435">
        <ele>285.119675</ele>
        <time>2021-08-12T17:55:18.285Z</time>
      </trkpt>
      <trkpt lat="41.82828" lon="46.08127">
        <ele>281.695085</ele>
        <time>2021-08-12T17:56:37.784Z</time>
      </trkpt>
      <trkpt lat="41.82433" lon="46.07466">
        <ele>273.526852</ele>
        <time>2021-08-12T17:59:22.844Z</time>
      </trkpt>
      <trkpt lat="41.82094" lon="46.06898">
        <ele>266.66522</ele>
        <time>2021-08-12T18:01:45.739Z</time>
      </trkpt>
      <trkpt lat="41.81907" lon="46.06584">
        <ele>263.146189</ele>
        <time>2021-08-12T18:03:03.809Z</time>
      </trkpt>
      <trkpt lat="41.81997" lon="46.06453">
        <ele>262.352569</ele>
        <time>2021-08-12T18:03:43.387Z</time>
      </trkpt>
      <trkpt lat="41.8206" lon="46.0632">
        <ele>262.02893</ele>
        <time>2021-08-12T18:04:19.700Z</time>
      </trkpt>
      <trkpt lat="41.82094" lon="46.06253">
        <ele>261.784405</ele>
        <time>2021-08-12T18:04:37.079Z</time>
      </trkpt>
      <trkpt lat="41.82015" lon="46.06181">
        <ele>260.811795</ele>
        <time>2021-08-12T18:05:04.202Z</time>
      </trkpt>
      <trkpt lat="41.81978" lon="46.06115">
        <ele>260.182511</ele>
        <time>2021-08-12T18:05:21.219Z</time>
      </trkpt>
      <trkpt lat="41.81931" lon="46.06013">
        <ele>259.225942</ele>
        <time>2021-08-12T18:05:45.784Z</time>
      </trkpt>
      <trkpt lat="41.81884" lon="46.05876">
        <ele>258.044184</ele>
        <time>2021-08-12T18:06:17.471Z</time>
      </trkpt>
      <trkpt lat="41.81834" lon="46.05837">
        <ele>257.596398</ele>
        <time>2021-08-12T18:06:34.390Z</time>
      </trkpt>
      <trkpt lat="41.81755" lon="46.05771">
        <ele>256.888332</ele>
        <time>2021-08-12T18:07:01.369Z</time>
      </trkpt>
      <trkpt lat="41.81728" lon="46.0573">
        <ele>256.62105</ele>
        <time>2021-08-12T18:07:13.497Z</time>
      </trkpt>
      <trkpt lat="41.81716" lon="46.05577">
        <ele>256.006432</ele>
        <time>2021-08-12T18:07:47.936Z</time>
      </trkpt>
      <trkpt lat="41.81703" lon="46.05531">
        <ele>255.810133</ele>
        <time>2021-08-12T18:07:59.039Z</time>
      </trkpt>
      <trkpt lat="41.81672" lon="46.05465">
        <ele>255.531112</ele>
        <time>2021-08-12T18:08:16.637Z</time>
      </trkpt>
      <trkpt lat="41.81659" lon="46.05401">
        <ele>255.298695</ele>
        <time>2021-08-12T18:08:31.450Z</time>
      </trkpt>
      <trkpt lat="41.81657" lon="46.05313">
        <ele>254.986917</ele>
        <time>2021-08-12T18:08:51.320Z</time>
      </trkpt>
      <trkpt lat="41.81672" lon="46.05182">
        <ele>254.55817</ele>
        <time>2021-08-12T18:09:21.185Z</time>
      </trkpt>
      <trkpt lat="41.81662" lon="46.0515">
        <ele>254.446169</ele>
        <time>2021-08-12T18:09:29.167Z</time>
      </trkpt>
      <trkpt lat="41.81623" lon="46.05086">
        <ele>254.182607</ele>
        <time>2021-08-12T18:09:47.974Z</time>
      </trkpt>
      <trkpt lat="41.81553" lon="46.04959">
        <ele>253.786975</ele>
        <time>2021-08-12T18:10:24.097Z</time>
      </trkpt>
      <trkpt lat="41.81674" lon="46.04856">
        <ele>253.450469</ele>
        <time>2021-08-12T18:11:09.003Z</time>
      </trkpt>
      <trkpt lat="41.81828" lon="46.04673">
        <ele>252.999648</ele>
        <time>2021-08-12T18:12:14.568Z</time>
      </trkpt>
      <trkpt lat="41.8174" lon="46.04515">
        <ele>252.300955</ele>
        <time>2021-08-12T18:12:58.708Z</time>
      </trkpt>
      <trkpt lat="41.8145" lon="46.04014">
        <ele>249.030632</ele>
        <time>2021-08-12T18:15:16.750Z</time>
      </trkpt>
      <trkpt lat="41.81297" lon="46.03737">
        <ele>247.547092</ele>
        <time>2021-08-12T18:16:33.331Z</time>
      </trkpt>
      <trkpt lat="41.81271" lon="46.03689">
        <ele>247.315281</ele>
        <time>2021-08-12T18:16:46.632Z</time>
      </trkpt>
      <trkpt lat="41.81102" lon="46.03385">
        <ele>245.967523</ele>
        <time>2021-08-12T18:18:11.801Z</time>
      </trkpt>
      <trkpt lat="41.80747" lon="46.02761">
        <ele>243.67894</ele>
        <time>2021-08-12T18:21:11.539Z</time>
      </trkpt>
      <trkpt lat="41.80726" lon="46.02719">
        <ele>243.45551</ele>
        <time>2021-08-12T18:21:22.625Z</time>
      </trkpt>
      <trkpt lat="41.80512" lon="46.0235">
        <ele>240.869699</ele>
        <time>2021-08-12T18:23:03.147Z</time>
      </trkpt>
      <trkpt lat="41.80346" lon="46.02063">
        <ele>240.207143</ele>
        <time>2021-08-12T18:24:27.600Z</time>
      </trkpt>
      <trkpt lat="41.80332" lon="46.02039">
        <ele>240.274494</ele>
        <time>2021-08-12T18:24:35.357Z</time>
      </trkpt>
      <trkpt lat="41.80355" lon="46.02014">
        <ele>240.361513</ele>
        <time>2021-08-12T18:24:45.629Z</time>
      </trkpt>
      <trkpt lat="41.80481" lon="46.01895">
        <ele>240.792055</ele>
        <time>2021-08-12T18:25:40.081Z</time>
      </trkpt>
      <trkpt lat="41.80498" lon="46.0188">
        <ele>240.842874</ele>
        <time>2021-08-12T18:25:47.043Z</time>
      </trkpt>
      <trkpt lat="41.80396" lon="46.01699">
        <ele>240.898927</ele>
        <time>2021-08-12T18:26:42.607Z</time>
      </trkpt>
      <trkpt lat="41.80013" lon="46.01043">
        <ele>239.00496</ele>
        <time>2021-08-12T18:29:52.083Z</time>
      </trkpt>
      <trkpt lat="41.80106" lon="46.00972">
        <ele>239.474703</ele>
        <time>2021-08-12T18:30:29.688Z</time>
      </trkpt>
      <trkpt lat="41.80172" lon="46.00897">
        <ele>240.113085</ele>
        <time>2021-08-12T18:31:02.270Z</time>
      </trkpt>
      <trkpt lat="41.80292" lon="46.00779">
        <ele>241.643049</ele>
        <time>2021-08-12T18:32:00.041Z</time>
      </trkpt>
      <trkpt lat="41.8032" lon="46.00729">
        <ele>242.142191</ele>
        <time>2021-08-12T18:32:17.957Z</time>
      </trkpt>
      <trkpt lat="41.80422" lon="46.00625">
        <ele>243.083873</ele>
        <time>2021-08-12T18:33:05.940Z</time>
      </trkpt>
      <trkpt lat="41.80638" lon="46.00405">
        <ele>244.055638</ele>
        <time>2021-08-12T18:34:39.191Z</time>
      </trkpt>
      <trkpt lat="41.80422" lon="46.00025">
        <ele>243.112392</ele>
        <time>2021-08-12T18:36:24.312Z</time>
      </trkpt>
      <trkpt lat="41.80279" lon="45.99778">
        <ele>242.294448</ele>
        <time>2021-08-12T18:37:33.447Z</time>
      </trkpt>
      <trkpt lat="41.80106" lon="45.99482">
        <ele>240.944489</ele>
        <time>2021-08-12T18:38:53.554Z</time>
      </trkpt>
      <trkpt lat="41.79745" lon="45.98848">
        <ele>238.753455</ele>
        <time>2021-08-12T18:41:48.605Z</time>
      </trkpt>
      <trkpt lat="41.7958" lon="45.98545">
        <ele>237.518764</ele>
        <time>2021-08-12T18:43:09.590Z</time>
      </trkpt>
      <trkpt lat="41.79561" lon="45.98505">
        <ele>237.385617</ele>
        <time>2021-08-12T18:43:19.985Z</time>
      </trkpt>
      <trkpt lat="41.79303" lon="45.98062">
        <ele>236.398274</ele>
        <time>2021-08-12T18:45:25.952Z</time>
      </trkpt>
      <trkpt lat="41.78869" lon="45.97265">
        <ele>234.744857</ele>
        <time>2021-08-12T18:49:06.757Z</time>
      </trkpt>
      <trkpt lat="41.78542" lon="45.96657">
        <ele>232.876059</ele>
        <time>2021-08-12T18:51:51.536Z</time>
      </trkpt>
      <trkpt lat="41.78472" lon="45.96527">
        <ele>232.524885</ele>
        <time>2021-08-12T18:52:26.595Z</time>
      </trkpt>
      <trkpt lat="41.78463" lon="45.96509">
        <ele>232.49362</ele>
        <time>2021-08-12T18:52:31.320Z</time>
      </trkpt>
      <trkpt lat="41.78146" lon="45.95917">
        <ele>231.527324</ele>
        <time>2021-08-12T18:55:16.383Z</time>
      </trkpt>
      <trkpt lat="41.77801" lon="45.95297">
        <ele>230.741361</ele>
        <time>2021-08-12T18:58:12.234Z</time>
      </trkpt>
      <trkpt lat="41.77655" lon="45.9505">
        <ele>230.237298</ele>
        <time>2021-08-12T18:59:22.340Z</time>
      </trkpt>
      <trkpt lat="41.7764" lon="45.95024">
        <ele>230.200534</ele>
        <time>2021-08-12T18:59:29.728Z</time>
      </trkpt>
      <trkpt lat="41.77169" lon="45.94231">
        <ele>230.590701</ele>
        <time>2021-08-12T19:03:28.095Z</time>
      </trkpt>
      <trkpt lat="41.77157" lon="45.9421">
        <ele>230.600827</ele>
        <time>2021-08-12T19:03:34.339Z</time>
      </trkpt>
      <trkpt lat="41.76932" lon="45.93794">
        <ele>230.632951</ele>
        <time>2021-08-12T19:05:35.043Z</time>
      </trkpt>
      <trkpt lat="41.76669" lon="45.93309">
        <ele>229.949301</ele>
        <time>2021-08-12T19:07:49.454Z</time>
      </trkpt>
      <trkpt lat="41.76514" lon="45.93023">
        <ele>229.847885</ele>
        <time>2021-08-12T19:09:11.517Z</time>
      </trkpt>
      <trkpt lat="41.76413" lon="45.92837">
        <ele>229.653341</ele>
        <time>2021-08-12T19:10:04.415Z</time>
      </trkpt>
      <trkpt lat="41.76371" lon="45.92661">
        <ele>229.394073</ele>
        <time>2021-08-12T19:10:45.567Z</time>
      </trkpt>
      <trkpt lat="41.76367" lon="45.92617">
        <ele>229.323823</ele>
        <time>2021-08-12T19:10:55.286Z</time>
      </trkpt>
      <trkpt lat="41.76366" lon="45.92607">
        <ele>229.307801</ele>
        <time>2021-08-12T19:10:57.565Z</time>
      </trkpt>
      <trkpt lat="41.76359" lon="45.92528">
        <ele>229.18024</ele>
        <time>2021-08-12T19:11:15.354Z</time>
      </trkpt>
      <trkpt lat="41.7636" lon="45.92507">
        <ele>229.146006</ele>
        <time>2021-08-12T19:11:20.216Z</time>
      </trkpt>
      <trkpt lat="41.7637" lon="45.92118">
        <ele>229.039973</ele>
        <time>2021-08-12T19:12:49.378Z</time>
      </trkpt>
      <trkpt lat="41.76372" lon="45.91918">
        <ele>229.674258</ele>
        <time>2021-08-12T19:13:39.141Z</time>
      </trkpt>
      <trkpt lat="41.76374" lon="45.91784">
        <ele>230.606517</ele>
        <time>2021-08-12T19:14:16.178Z</time>
      </trkpt>
      <trkpt lat="41.76377" lon="45.91686">
        <ele>231.284995</ele>
        <time>2021-08-12T19:14:44.193Z</time>
      </trkpt>
      <trkpt lat="41.76378" lon="45.91639">
        <ele>231.604634</ele>
        <time>2021-08-12T19:14:57.402Z</time>
      </trkpt>
      <trkpt lat="41.76368" lon="45.91507">
        <ele>232.509908</ele>
        <time>2021-08-12T19:15:32.952Z</time>
      </trkpt>
      <trkpt lat="41.76335" lon="45.91356">
        <ele>233.165562</ele>
        <time>2021-08-12T19:16:12.631Z</time>
      </trkpt>
      <trkpt lat="41.76174" lon="45.90842">
        <ele>235.217521</ele>
        <time>2021-08-12T19:18:33.500Z</time>
      </trkpt>
      <trkpt lat="41.7614" lon="45.90575">
        <ele>236.28213</ele>
        <time>2021-08-12T19:19:43.306Z</time>
      </trkpt>
      <trkpt lat="41.7613" lon="45.90262">
        <ele>237.324632</ele>
        <time>2021-08-12T19:21:02.270Z</time>
      </trkpt>
      <trkpt lat="41.76129" lon="45.90247">
        <ele>237.362511</ele>
        <time>2021-08-12T19:21:06.029Z</time>
      </trkpt>
      <trkpt lat="41.76122" lon="45.90157">
        <ele>237.591111</ele>
        <time>2021-08-12T19:21:28.265Z</time>
      </trkpt>
      <trkpt lat="41.76093" lon="45.89381">
        <ele>238.451865</ele>
        <time>2021-08-12T19:24:32.957Z</time>
      </trkpt>
      <trkpt lat="41.76268" lon="45.88676">
        <ele>242.564985</ele>
        <time>2021-08-12T19:27:49.813Z</time>
      </trkpt>
      <trkpt lat="41.7642" lon="45.88054">
        <ele>245.927308</ele>
        <time>2021-08-12T19:30:40.068Z</time>
      </trkpt>
      <trkpt lat="41.76577" lon="45.8744">
        <ele>250.691629</ele>
        <time>2021-08-12T19:33:38.586Z</time>
      </trkpt>
      <trkpt lat="41.76577" lon="45.8739">
        <ele>251.068824</ele>
        <time>2021-08-12T19:33:52.297Z</time>
      </trkpt>
      <trkpt lat="41.76573" lon="45.87207">
        <ele>252.408519</ele>
        <time>2021-08-12T19:34:42.453Z</time>
      </trkpt>
      <trkpt lat="41.76578" lon="45.87121">
        <ele>253.030763</ele>
        <time>2021-08-12T19:35:05.856Z</time>
      </trkpt>
      <trkpt lat="41.7658" lon="45.87102">
        <ele>253.170663</ele>
        <time>2021-08-12T19:35:11.252Z</time>
      </trkpt>
      <trkpt lat="41.76571" lon="45.87058">
        <ele>253.497638</ele>
        <time>2021-08-12T19:35:23.601Z</time>
      </trkpt>
      <trkpt lat="41.76529" lon="45.86981">
        <ele>254.19186</ele>
        <time>2021-08-12T19:35:49.965Z</time>
      </trkpt>
      <trkpt lat="41.76497" lon="45.86623">
        <ele>256.786831</ele>
        <time>2021-08-12T19:37:28.305Z</time>
      </trkpt>
      <trkpt lat="41.7647" lon="45.86272">
        <ele>259.319333</ele>
        <time>2021-08-12T19:39:04.003Z</time>
      </trkpt>
      <trkpt lat="41.76473" lon="45.86246">
        <ele>259.524026</ele>
        <time>2021-08-12T19:39:11.301Z</time>
      </trkpt>
      <trkpt lat="41.76487" lon="45.86214">
        <ele>259.81764</ele>
        <time>2021-08-12T19:39:21.571Z</time>
      </trkpt>
      <trkpt lat="41.76641" lon="45.85932">
        <ele>263.038398</ele>
        <time>2021-08-12T19:41:01.314Z</time>
      </trkpt>
      <trkpt lat="41.76654" lon="45.85904">
        <ele>263.367376</ele>
        <time>2021-08-12T19:41:10.931Z</time>
      </trkpt>
      <trkpt lat="41.76678" lon="45.85813">
        <ele>264.318492</ele>
        <time>2021-08-12T19:41:38.722Z</time>
      </trkpt>
      <trkpt lat="41.76721" lon="45.85541">
        <ele>267.058071</ele>
        <time>2021-08-12T19:42:58.999Z</time>
      </trkpt>
      <trkpt lat="41.76744" lon="45.85335">
        <ele>268.973632</ele>
        <time>2021-08-12T19:43:58.063Z</time>
      </trkpt>
      <trkpt lat="41.76738" lon="45.8526">
        <ele>269.655895</ele>
        <time>2021-08-12T19:44:19.243Z</time>
      </trkpt>
      <trkpt lat="41.76721" lon="45.85206">
        <ele>270.195791</ele>
        <time>2021-08-12T19:44:35.721Z</time>
      </trkpt>
      <trkpt lat="41.76568" lon="45.84822">
        <ele>274.237872</ele>
        <time>2021-08-12T19:46:39.607Z</time>
      </trkpt>
      <trkpt lat="41.76549" lon="45.8477">
        <ele>274.8174</ele>
        <time>2021-08-12T19:46:56.362Z</time>
      </trkpt>
      <trkpt lat="41.76448" lon="45.84506">
        <ele>277.639524</ele>
        <time>2021-08-12T19:48:22.114Z</time>
      </trkpt>
      <trkpt lat="41.7642" lon="45.84444">
        <ele>278.281037</ele>
        <time>2021-08-12T19:48:42.391Z</time>
      </trkpt>
      <trkpt lat="41.76238" lon="45.8411">
        <ele>281.243486</ele>
        <time>2021-08-12T19:50:34.043Z</time>
      </trkpt>
      <trkpt lat="41.76186" lon="45.83993">
        <ele>282.509006</ele>
        <time>2021-08-12T19:51:11.737Z</time>
      </trkpt>
      <trkpt lat="41.76169" lon="45.83955">
        <ele>283.238461</ele>
        <time>2021-08-12T19:51:24.722Z</time>
      </trkpt>
      <trkpt lat="41.75976" lon="45.83485">
        <ele>292.338418</ele>
        <time>2021-08-12T19:54:22.995Z</time>
      </trkpt>
      <trkpt lat="41.7593" lon="45.83364">
        <ele>294.947289</ele>
        <time>2021-08-12T19:55:09.450Z</time>
      </trkpt>
      <trkpt lat="41.75895" lon="45.83252">
        <ele>297.602282</ele>
        <time>2021-08-12T19:55:52.272Z</time>
      </trkpt>
      <trkpt lat="41.75856" lon="45.8313">
        <ele>300.575276</ele>
        <time>2021-08-12T19:56:40.317Z</time>
      </trkpt>
      <trkpt lat="41.75819" lon="45.83016">
        <ele>303.693876</ele>
        <time>2021-08-12T19:57:26.502Z</time>
      </trkpt>
      <trkpt lat="41.75788" lon="45.82916">
        <ele>306.438106</ele>
        <time>2021-08-12T19:58:07.491Z</time>
      </trkpt>
      <trkpt lat="41.75781" lon="45.829">
        <ele>306.93662</ele>
        <time>2021-08-12T19:58:14.503Z</time>
      </trkpt>
      <trkpt lat="41.75777" lon="45.8289">
        <ele>307.227027</ele>
        <time>2021-08-12T19:58:19.216Z</time>
      </trkpt>
      <trkpt lat="41.7577" lon="45.82876">
        <ele>307.656877</ele>
        <time>2021-08-12T19:58:25.156Z</time>
      </trkpt>
      <trkpt lat="41.75757" lon="45.82853">
        <ele>308.408765</ele>
        <time>2021-08-12T19:58:36.001Z</time>
      </trkpt>
      <trkpt lat="41.75752" lon="45.8284">
        <ele>308.792963</ele>
        <time>2021-08-12T19:58:41.420Z</time>
      </trkpt>
      <trkpt lat="41.75713" lon="45.82728">
        <ele>312.042277</ele>
        <time>2021-08-12T19:59:28.167Z</time>
      </trkpt>
      <trkpt lat="41.75683" lon="45.82617">
        <ele>315.730354</ele>
        <time>2021-08-12T20:00:15.297Z</time>
      </trkpt>
      <trkpt lat="41.75663" lon="45.82562">
        <ele>317.637603</ele>
        <time>2021-08-12T20:00:40.149Z</time>
      </trkpt>
      <trkpt lat="41.75578" lon="45.82401">
        <ele>324.083583</ele>
        <time>2021-08-12T20:02:05.284Z</time>
      </trkpt>
      <trkpt lat="41.75528" lon="45.82314">
        <ele>327.741257</ele>
        <time>2021-08-12T20:02:51.168Z</time>
      </trkpt>
      <trkpt lat="41.75392" lon="45.82051">
        <ele>335.946516</ele>
        <time>2021-08-12T20:04:49.509Z</time>
      </trkpt>
      <trkpt lat="41.75358" lon="45.81991">
        <ele>337.928436</ele>
        <time>2021-08-12T20:05:17.391Z</time>
      </trkpt>
      <trkpt lat="41.75345" lon="45.81968">
        <ele>338.673751</ele>
        <time>2021-08-12T20:05:28.269Z</time>
      </trkpt>
      <trkpt lat="41.75224" lon="45.81736">
        <ele>347.014122</ele>
        <time>2021-08-12T20:07:21.868Z</time>
      </trkpt>
      <trkpt lat="41.75199" lon="45.81698">
        <ele>348.506268</ele>
        <time>2021-08-12T20:07:43.112Z</time>
      </trkpt>
      <trkpt lat="41.75111" lon="45.81542">
        <ele>354.200468</ele>
        <time>2021-08-12T20:09:01.181Z</time>
      </trkpt>
      <trkpt lat="41.75099" lon="45.81522">
        <ele>354.859979</ele>
        <time>2021-08-12T20:09:10.918Z</time>
      </trkpt>
      <trkpt lat="41.74954" lon="45.81282">
        <ele>361.856659</ele>
        <time>2021-08-12T20:11:00.911Z</time>
      </trkpt>
      <trkpt lat="41.74926" lon="45.81227">
        <ele>363.285148</ele>
        <time>2021-08-12T20:11:23.782Z</time>
      </trkpt>
      <trkpt lat="41.7487" lon="45.81113">
        <ele>366.360669</ele>
        <time>2021-08-12T20:12:11.797Z</time>
      </trkpt>
      <trkpt lat="41.74767" lon="45.8092">
        <ele>372.313766</ele>
        <time>2021-08-12T20:13:41.192Z</time>
      </trkpt>
      <trkpt lat="41.74749" lon="45.80842">
        <ele>374.501404</ele>
        <time>2021-08-12T20:14:13.369Z</time>
      </trkpt>
      <trkpt lat="41.74749" lon="45.80824">
        <ele>374.974264</ele>
        <time>2021-08-12T20:14:20.045Z</time>
      </trkpt>
      <trkpt lat="41.74729" lon="45.80747">
        <ele>377.14757</ele>
        <time>2021-08-12T20:14:50.988Z</time>
      </trkpt>
      <trkpt lat="41.74718" lon="45.80714">
        <ele>378.110079</ele>
        <time>2021-08-12T20:15:05.129Z</time>
      </trkpt>
      <trkpt lat="41.74706" lon="45.80672">
        <ele>379.246808</ele>
        <time>2021-08-12T20:15:21.585Z</time>
      </trkpt>
      <trkpt lat="41.74691" lon="45.80618">
        <ele>380.74952</ele>
        <time>2021-08-12T20:15:42.821Z</time>
      </trkpt>
      <trkpt lat="41.74683" lon="45.80601">
        <ele>381.273198</ele>
        <time>2021-08-12T20:15:50.474Z</time>
      </trkpt>
      <trkpt lat="41.7468" lon="45.80588">
        <ele>381.624102</ele>
        <time>2021-08-12T20:15:55.644Z</time>
      </trkpt>
      <trkpt lat="41.74675" lon="45.80577">
        <ele>381.952078</ele>
        <time>2021-08-12T20:16:00.265Z</time>
      </trkpt>
      <trkpt lat="41.74652" lon="45.8055">
        <ele>383.01218</ele>
        <time>2021-08-12T20:16:15.977Z</time>
      </trkpt>
      <trkpt lat="41.74611" lon="45.80503">
        <ele>385.154401</ele>
        <time>2021-08-12T20:16:43.330Z</time>
      </trkpt>
      <trkpt lat="41.74518" lon="45.80423">
        <ele>390.015848</ele>
        <time>2021-08-12T20:17:44.508Z</time>
      </trkpt>
      <trkpt lat="41.74497" lon="45.80411">
        <ele>391.029358</ele>
        <time>2021-08-12T20:17:59.022Z</time>
      </trkpt>
      <trkpt lat="41.74481" lon="45.80402">
        <ele>391.814018</ele>
        <time>2021-08-12T20:18:09.522Z</time>
      </trkpt>
      <trkpt lat="41.74456" lon="45.80399">
        <ele>392.962602</ele>
        <time>2021-08-12T20:18:24.616Z</time>
      </trkpt>
      <trkpt lat="41.74434" lon="45.80398">
        <ele>393.9741</ele>
        <time>2021-08-12T20:18:38.125Z</time>
      </trkpt>
      <trkpt lat="41.7442" lon="45.80396">
        <ele>394.593816</ele>
        <time>2021-08-12T20:18:45.760Z</time>
      </trkpt>
      <trkpt lat="41.74414" lon="45.80393">
        <ele>394.917289</ele>
        <time>2021-08-12T20:18:49.620Z</time>
      </trkpt>
      <trkpt lat="41.74408" lon="45.80385">
        <ele>395.294029</ele>
        <time>2021-08-12T20:18:54.954Z</time>
      </trkpt>
      <trkpt lat="41.74399" lon="45.80364">
        <ele>396.106522</ele>
        <time>2021-08-12T20:19:04.946Z</time>
      </trkpt>
      <trkpt lat="41.74397" lon="45.80356">
        <ele>396.404009</ele>
        <time>2021-08-12T20:19:08.552Z</time>
      </trkpt>
      <trkpt lat="41.7438" lon="45.80375">
        <ele>397.395193</ele>
        <time>2021-08-12T20:19:21.534Z</time>
      </trkpt>
      <trkpt lat="41.74343" lon="45.80414">
        <ele>399.562809</ele>
        <time>2021-08-12T20:19:47.314Z</time>
      </trkpt>
      <trkpt lat="41.74291" lon="45.80445">
        <ele>401.655108</ele>
        <time>2021-08-12T20:20:17.890Z</time>
      </trkpt>
      <trkpt lat="41.74092" lon="45.80547">
        <ele>410.560199</ele>
        <time>2021-08-12T20:22:07.304Z</time>
      </trkpt>
      <trkpt lat="41.7405" lon="45.80461">
        <ele>414.586554</ele>
        <time>2021-08-12T20:22:58.058Z</time>
      </trkpt>
      <trkpt lat="41.74005" lon="45.80481">
        <ele>417.923353</ele>
        <time>2021-08-12T20:23:33.275Z</time>
      </trkpt>
      <trkpt lat="41.73874" lon="45.80198">
        <ele>440.040935</ele>
        <time>2021-08-12T20:27:03.776Z</time>
      </trkpt>
      <trkpt lat="41.73834" lon="45.8011">
        <ele>446.963427</ele>
        <time>2021-08-12T20:28:06.764Z</time>
      </trkpt>
      <trkpt lat="41.73764" lon="45.79926">
        <ele>460.372597</ele>
        <time>2021-08-12T20:30:09.889Z</time>
      </trkpt>
      <trkpt lat="41.73684" lon="45.79742">
        <ele>474.392034</ele>
        <time>2021-08-12T20:32:23.634Z</time>
      </trkpt>
      <trkpt lat="41.73686" lon="45.79723">
        <ele>475.619985</ele>
        <time>2021-08-12T20:32:36.563Z</time>
      </trkpt>
      <trkpt lat="41.73682" lon="45.79691">
        <ele>477.802577</ele>
        <time>2021-08-12T20:32:55.486Z</time>
      </trkpt>
      <trkpt lat="41.73673" lon="45.79666">
        <ele>479.524972</ele>
        <time>2021-08-12T20:33:12.463Z</time>
      </trkpt>
      <trkpt lat="41.73641" lon="45.79618">
        <ele>481.68864</ele>
        <time>2021-08-12T20:33:46.012Z</time>
      </trkpt>
      <trkpt lat="41.73634" lon="45.7961">
        <ele>482.125383</ele>
        <time>2021-08-12T20:33:54.490Z</time>
      </trkpt>
      <trkpt lat="41.73638" lon="45.79602">
        <ele>482.458452</ele>
        <time>2021-08-12T20:33:59.165Z</time>
      </trkpt>
      <trkpt lat="41.73652" lon="45.79579">
        <ele>483.449087</ele>
        <time>2021-08-12T20:34:11.669Z</time>
      </trkpt>
      <trkpt lat="41.73662" lon="45.79552">
        <ele>484.47709</ele>
        <time>2021-08-12T20:34:25.635Z</time>
      </trkpt>
      <trkpt lat="41.73676" lon="45.79529">
        <ele>485.439747</ele>
        <time>2021-08-12T20:34:38.168Z</time>
      </trkpt>
      <trkpt lat="41.73683" lon="45.79508">
        <ele>486.21291</ele>
        <time>2021-08-12T20:34:45.549Z</time>
      </trkpt>
      <trkpt lat="41.73682" lon="45.79474">
        <ele>487.365723</ele>
        <time>2021-08-12T20:34:57.063Z</time>
      </trkpt>
      <trkpt lat="41.73676" lon="45.79454">
        <ele>487.175809</ele>
        <time>2021-08-12T20:35:01.829Z</time>
      </trkpt>
      <trkpt lat="41.73631" lon="45.7938">
        <ele>485.22714</ele>
        <time>2021-08-12T20:35:19.292Z</time>
      </trkpt>
      <trkpt lat="41.73603" lon="45.79309">
        <ele>483.562946</ele>
        <time>2021-08-12T20:35:32.904Z</time>
      </trkpt>
      <trkpt lat="41.73605" lon="45.79294">
        <ele>483.24189</ele>
        <time>2021-08-12T20:35:35.982Z</time>
      </trkpt>
      <trkpt lat="41.7361" lon="45.79285">
        <ele>483.027582</ele>
        <time>2021-08-12T20:35:37.579Z</time>
      </trkpt>
      <trkpt lat="41.73618" lon="45.79272">
        <ele>482.664459</ele>
        <time>2021-08-12T20:35:40.565Z</time>
      </trkpt>
      <trkpt lat="41.7366" lon="45.7925">
        <ele>482.309098</ele>
        <time>2021-08-12T20:35:51.281Z</time>
      </trkpt>
      <trkpt lat="41.73687" lon="45.79221">
        <ele>482.090352</ele>
        <time>2021-08-12T20:35:59.725Z</time>
      </trkpt>
      <trkpt lat="41.73709" lon="45.79206">
        <ele>481.935964</ele>
        <time>2021-08-12T20:36:06.046Z</time>
      </trkpt>
      <trkpt lat="41.73737" lon="45.79201">
        <ele>481.763706</ele>
        <time>2021-08-12T20:36:14.581Z</time>
      </trkpt>
      <trkpt lat="41.738" lon="45.79226">
        <ele>482.441699</ele>
        <time>2021-08-12T20:36:48.282Z</time>
      </trkpt>
      <trkpt lat="41.73829" lon="45.79224">
        <ele>484.329523</ele>
        <time>2021-08-12T20:37:06.297Z</time>
      </trkpt>
      <trkpt lat="41.73862" lon="45.79202">
        <ele>486.712295</ele>
        <time>2021-08-12T20:37:31.094Z</time>
      </trkpt>
      <trkpt lat="41.7388" lon="45.79181">
        <ele>488.26534</ele>
        <time>2021-08-12T20:37:48.264Z</time>
      </trkpt>
      <trkpt lat="41.73854" lon="45.79117">
        <ele>491.851574</ele>
        <time>2021-08-12T20:38:29.764Z</time>
      </trkpt>
      <trkpt lat="41.73763" lon="45.78975">
        <ele>504.140969</ele>
        <time>2021-08-12T20:40:24.909Z</time>
      </trkpt>
      <trkpt lat="41.73709" lon="45.78893">
        <ele>512.160836</ele>
        <time>2021-08-12T20:41:36.003Z</time>
      </trkpt>
      <trkpt lat="41.73695" lon="45.78876">
        <ele>514.418962</ele>
        <time>2021-08-12T20:41:53.075Z</time>
      </trkpt>
      <trkpt lat="41.73659" lon="45.78833">
        <ele>520.137836</ele>
        <time>2021-08-12T20:42:40.353Z</time>
      </trkpt>
      <trkpt lat="41.7364" lon="45.78812">
        <ele>522.985164</ele>
        <time>2021-08-12T20:43:06.557Z</time>
      </trkpt>
      <trkpt lat="41.73619" lon="45.78793">
        <ele>525.972492</ele>
        <time>2021-08-12T20:43:32.068Z</time>
      </trkpt>
      <trkpt lat="41.73595" lon="45.78775">
        <ele>529.296241</ele>
        <time>2021-08-12T20:44:00.143Z</time>
      </trkpt>
      <trkpt lat="41.7357" lon="45.78761">
        <ele>532.478646</ele>
        <time>2021-08-12T20:44:28.207Z</time>
      </trkpt>
      <trkpt lat="41.7356" lon="45.78755">
        <ele>533.933174</ele>
        <time>2021-08-12T20:44:40.172Z</time>
      </trkpt>
      <trkpt lat="41.73549" lon="45.78748">
        <ele>535.395699</ele>
        <time>2021-08-12T20:44:54.099Z</time>
      </trkpt>
      <trkpt lat="41.73515" lon="45.78715">
        <ele>540.661624</ele>
        <time>2021-08-12T20:45:36.553Z</time>
      </trkpt>
      <trkpt lat="41.73497" lon="45.78683">
        <ele>544.328389</ele>
        <time>2021-08-12T20:46:07.575Z</time>
      </trkpt>
      <trkpt lat="41.73413" lon="45.78445">
        <ele>567.335051</ele>
        <time>2021-08-12T20:49:16.632Z</time>
      </trkpt>
      <trkpt lat="41.73386" lon="45.78388">
        <ele>573.162518</ele>
        <time>2021-08-12T20:50:04.521Z</time>
      </trkpt>
      <trkpt lat="41.73349" lon="45.78336">
        <ele>578.821134</ele>
        <time>2021-08-12T20:50:51.667Z</time>
      </trkpt>
      <trkpt lat="41.73305" lon="45.7826">
        <ele>586.503158</ele>
        <time>2021-08-12T20:51:57.314Z</time>
      </trkpt>
      <trkpt lat="41.73266" lon="45.78189">
        <ele>593.413225</ele>
        <time>2021-08-12T20:52:57.043Z</time>
      </trkpt>
      <trkpt lat="41.73249" lon="45.78156">
        <ele>596.245808</ele>
        <time>2021-08-12T20:53:23.338Z</time>
      </trkpt>
      <trkpt lat="41.73242" lon="45.78141">
        <ele>597.567587</ele>
        <time>2021-08-12T20:53:36.151Z</time>
      </trkpt>
      <trkpt lat="41.73237" lon="45.78125">
        <ele>598.789091</ele>
        <time>2021-08-12T20:53:47.974Z</time>
      </trkpt>
      <trkpt lat="41.73205" lon="45.77754">
        <ele>624.199226</ele>
        <time>2021-08-12T20:57:38.052Z</time>
      </trkpt>
      <trkpt lat="41.73195" lon="45.77687">
        <ele>627.572814</ele>
        <time>2021-08-12T20:58:13.964Z</time>
      </trkpt>
      <trkpt lat="41.73184" lon="45.77661">
        <ele>628.76629</ele>
        <time>2021-08-12T20:58:28.674Z</time>
      </trkpt>
      <trkpt lat="41.73122" lon="45.77565">
        <ele>633.875519</ele>
        <time>2021-08-12T20:59:25.293Z</time>
      </trkpt>
      <trkpt lat="41.73066" lon="45.77486">
        <ele>637.047272</ele>
        <time>2021-08-12T21:00:06.403Z</time>
      </trkpt>
      <trkpt lat="41.73002" lon="45.77409">
        <ele>639.531843</ele>
        <time>2021-08-12T21:00:44.611Z</time>
      </trkpt>
      <trkpt lat="41.72979" lon="45.77365">
        <ele>640.704256</ele>
        <time>2021-08-12T21:01:02.807Z</time>
      </trkpt>
      <trkpt lat="41.72943" lon="45.77263">
        <ele>643.791517</ele>
        <time>2021-08-12T21:01:43.218Z</time>
      </trkpt>
      <trkpt lat="41.72849" lon="45.77147">
        <ele>649.988805</ele>
        <time>2021-08-12T21:02:51.287Z</time>
      </trkpt>
      <trkpt lat="41.7282" lon="45.77072">
        <ele>655.663324</ele>
        <time>2021-08-12T21:03:37.897Z</time>
      </trkpt>
      <trkpt lat="41.72794" lon="45.77018">
        <ele>659.948166</ele>
        <time>2021-08-12T21:04:18.977Z</time>
      </trkpt>
      <trkpt lat="41.72779" lon="45.76992">
        <ele>662.167553</ele>
        <time>2021-08-12T21:04:38.256Z</time>
      </trkpt>
      <trkpt lat="41.72769" lon="45.76978">
        <ele>663.425042</ele>
        <time>2021-08-12T21:05:00.724Z</time>
      </trkpt>
      <trkpt lat="41.7276" lon="45.76953">
        <ele>666.469711</ele>
        <time>2021-08-12T21:05:16.661Z</time>
      </trkpt>
      <trkpt lat="41.72754" lon="45.76917">
        <ele>670.595504</ele>
        <time>2021-08-12T21:05:52.901Z</time>
      </trkpt>
      <trkpt lat="41.72766" lon="45.76846">
        <ele>678.701586</ele>
        <time>2021-08-12T21:07:04.429Z</time>
      </trkpt>
      <trkpt lat="41.72778" lon="45.76812">
        <ele>682.811032</ele>
        <time>2021-08-12T21:07:30.372Z</time>
      </trkpt>
      <trkpt lat="41.72781" lon="45.76805">
        <ele>683.784828</ele>
        <time>2021-08-12T21:07:40.968Z</time>
      </trkpt>
      <trkpt lat="41.72782" lon="45.76802">
        <ele>684.064073</ele>
        <time>2021-08-12T21:07:44.187Z</time>
      </trkpt>
      <trkpt lat="41.72816" lon="45.76694">
        <ele>694.45315</ele>
        <time>2021-08-12T21:09:10.135Z</time>
      </trkpt>
      <trkpt lat="41.72817" lon="45.76663">
        <ele>696.539375</ele>
        <time>2021-08-12T21:09:34.160Z</time>
      </trkpt>
      <trkpt lat="41.72813" lon="45.76654">
        <ele>697.230781</ele>
        <time>2021-08-12T21:09:38.604Z</time>
      </trkpt>
      <trkpt lat="41.72802" lon="45.76654">
        <ele>698.233334</ele>
        <time>2021-08-12T21:09:48.850Z</time>
      </trkpt>
      <trkpt lat="41.72798" lon="45.76657">
        <ele>698.639162</ele>
        <time>2021-08-12T21:09:49.803Z</time>
      </trkpt>
      <trkpt lat="41.72786" lon="45.76695">
        <ele>701.410909</ele>
        <time>2021-08-12T21:10:20.617Z</time>
      </trkpt>
      <trkpt lat="41.72764" lon="45.76717">
        <ele>703.823901</ele>
        <time>2021-08-12T21:10:32.928Z</time>
      </trkpt>
      <trkpt lat="41.72737" lon="45.7672">
        <ele>706.221826</ele>
        <time>2021-08-12T21:10:48.114Z</time>
      </trkpt>
      <trkpt lat="41.72703" lon="45.76705">
        <ele>708.812704</ele>
        <time>2021-08-12T21:11:09.640Z</time>
      </trkpt>
      <trkpt lat="41.72663" lon="45.76668">
        <ele>712.183594</ele>
        <time>2021-08-12T21:11:39.805Z</time>
      </trkpt>
      <trkpt lat="41.72645" lon="45.76642">
        <ele>714.029687</ele>
        <time>2021-08-12T21:11:57.431Z</time>
      </trkpt>
      <trkpt lat="41.72648" lon="45.76621">
        <ele>715.111769</ele>
        <time>2021-08-12T21:12:08.677Z</time>
      </trkpt>
      <trkpt lat="41.72662" lon="45.7659">
        <ele>716.961891</ele>
        <time>2021-08-12T21:12:28.990Z</time>
      </trkpt>
      <trkpt lat="41.72663" lon="45.76557">
        <ele>718.708815</ele>
        <time>2021-08-12T21:12:49.654Z</time>
      </trkpt>
      <trkpt lat="41.72629" lon="45.76496">
        <ele>725.192872</ele>
        <time>2021-08-12T21:13:40.387Z</time>
      </trkpt>
      <trkpt lat="41.72606" lon="45.76472">
        <ele>728.670319</ele>
        <time>2021-08-12T21:14:08.880Z</time>
      </trkpt>
      <trkpt lat="41.72544" lon="45.76432">
        <ele>736.913497</ele>
        <time>2021-08-12T21:15:20.513Z</time>
      </trkpt>
      <trkpt lat="41.72441" lon="45.76327">
        <ele>752.936616</ele>
        <time>2021-08-12T21:17:40.153Z</time>
      </trkpt>
      <trkpt lat="41.72405" lon="45.76282">
        <ele>759.096794</ele>
        <time>2021-08-12T21:18:30.924Z</time>
      </trkpt>
      <trkpt lat="41.72296" lon="45.7622">
        <ele>769.001525</ele>
        <time>2021-08-12T21:20:11.784Z</time>
      </trkpt>
      <trkpt lat="41.72259" lon="45.76154">
        <ele>773.290081</ele>
        <time>2021-08-12T21:20:49.495Z</time>
      </trkpt>
      <trkpt lat="41.72237" lon="45.76146">
        <ele>774.860595</ele>
        <time>2021-08-12T21:21:00.899Z</time>
      </trkpt>
      <trkpt lat="41.72162" lon="45.76164">
        <ele>776.343435</ele>
        <time>2021-08-12T21:21:31.794Z</time>
      </trkpt>
      <trkpt lat="41.72083" lon="45.76143">
        <ele>777.450389</ele>
        <time>2021-08-12T21:21:58.542Z</time>
      </trkpt>
      <trkpt lat="41.72022" lon="45.76109">
        <ele>778.724688</ele>
        <time>2021-08-12T21:22:22.918Z</time>
      </trkpt>
      <trkpt lat="41.71948" lon="45.7609">
        <ele>780.55286</ele>
        <time>2021-08-12T21:22:55.689Z</time>
      </trkpt>
      <trkpt lat="41.7185" lon="45.76033">
        <ele>783.527259</ele>
        <time>2021-08-12T21:23:49.993Z</time>
      </trkpt>
      <trkpt lat="41.71809" lon="45.7599">
        <ele>785.358886</ele>
        <time>2021-08-12T21:24:17.778Z</time>
      </trkpt>
      <trkpt lat="41.71798" lon="45.75959">
        <ele>786.263269</ele>
        <time>2021-08-12T21:24:31.285Z</time>
      </trkpt>
      <trkpt lat="41.71794" lon="45.75912">
        <ele>787.490286</ele>
        <time>2021-08-12T21:24:48.829Z</time>
      </trkpt>
      <trkpt lat="41.71794" lon="45.75885">
        <ele>788.201212</ele>
        <time>2021-08-12T21:24:58.707Z</time>
      </trkpt>
      <trkpt lat="41.71809" lon="45.75788">
        <ele>790.49867</ele>
        <time>2021-08-12T21:25:32.864Z</time>
      </trkpt>
      <trkpt lat="41.71806" lon="45.75638">
        <ele>793.946424</ele>
        <time>2021-08-12T21:26:27.359Z</time>
      </trkpt>
      <trkpt lat="41.71843" lon="45.75569">
        <ele>797.393411</ele>
        <time>2021-08-12T21:26:59.521Z</time>
      </trkpt>
      <trkpt lat="41.71849" lon="45.75526">
        <ele>799.21122</ele>
        <time>2021-08-12T21:27:18.549Z</time>
      </trkpt>
      <trkpt lat="41.71861" lon="45.75484">
        <ele>801.079828</ele>
        <time>2021-08-12T21:27:40.203Z</time>
      </trkpt>
      <trkpt lat="41.71863" lon="45.75447">
        <ele>802.627754</ele>
        <time>2021-08-12T21:27:59.821Z</time>
      </trkpt>
      <trkpt lat="41.71859" lon="45.75413">
        <ele>804.059035</ele>
        <time>2021-08-12T21:28:19.308Z</time>
      </trkpt>
      <trkpt lat="41.71854" lon="45.75399">
        <ele>805.17956</ele>
        <time>2021-08-12T21:28:28.805Z</time>
      </trkpt>
      <trkpt lat="41.71849" lon="45.75394">
        <ele>805.810614</ele>
        <time>2021-08-12T21:28:33.908Z</time>
      </trkpt>
      <trkpt lat="41.71841" lon="45.75399">
        <ele>806.667811</ele>
        <time>2021-08-12T21:28:40.698Z</time>
      </trkpt>
      <trkpt lat="41.71813" lon="45.75518">
        <ele>815.83333</ele>
        <time>2021-08-12T21:29:59.736Z</time>
      </trkpt>
      <trkpt lat="41.71806" lon="45.75538">
        <ele>817.48529</ele>
        <time>2021-08-12T21:30:14.774Z</time>
      </trkpt>
      <trkpt lat="41.71796" lon="45.75545">
        <ele>818.572193</ele>
        <time>2021-08-12T21:30:25.131Z</time>
      </trkpt>
      <trkpt lat="41.71793" lon="45.75533">
        <ele>819.543426</ele>
        <time>2021-08-12T21:30:34.758Z</time>
      </trkpt>
      <trkpt lat="41.71798" lon="45.75483">
        <ele>823.261946</ele>
        <time>2021-08-12T21:31:11.449Z</time>
      </trkpt>
      <trkpt lat="41.71792" lon="45.75461">
        <ele>824.963203</ele>
        <time>2021-08-12T21:31:27.923Z</time>
      </trkpt>
      <trkpt lat="41.71759" lon="45.7543">
        <ele>828.950986</ele>
        <time>2021-08-12T21:32:05.818Z</time>
      </trkpt>
      <trkpt lat="41.71751" lon="45.75411">
        <ele>830.60289</ele>
        <time>2021-08-12T21:32:21.225Z</time>
      </trkpt>
      <trkpt lat="41.71774" lon="45.75305">
        <ele>838.807606</ele>
        <time>2021-08-12T21:33:30.042Z</time>
      </trkpt>
      <trkpt lat="41.71778" lon="45.75269">
        <ele>840.850952</ele>
        <time>2021-08-12T21:33:51.271Z</time>
      </trkpt>
      <trkpt lat="41.71782" lon="45.75064">
        <ele>850.047172</ele>
        <time>2021-08-12T21:35:30.259Z</time>
      </trkpt>
      <trkpt lat="41.71782" lon="45.74936">
        <ele>851.86306</ele>
        <time>2021-08-12T21:36:15.278Z</time>
      </trkpt>
      <trkpt lat="41.71758" lon="45.74821">
        <ele>853.176334</ele>
        <time>2021-08-12T21:36:45.417Z</time>
      </trkpt>
      <trkpt lat="41.71746" lon="45.74791">
        <ele>852.329283</ele>
        <time>2021-08-12T21:36:51.639Z</time>
      </trkpt>
      <trkpt lat="41.71741" lon="45.74776">
        <ele>851.792919</ele>
        <time>2021-08-12T21:36:54.734Z</time>
      </trkpt>
      <trkpt lat="41.7172" lon="45.74715">
        <ele>849.563167</ele>
        <time>2021-08-12T21:37:05.809Z</time>
      </trkpt>
      <trkpt lat="41.71718" lon="45.7471">
        <ele>849.359883</ele>
        <time>2021-08-12T21:37:06.798Z</time>
      </trkpt>
      <trkpt lat="41.71708" lon="45.74687">
        <ele>848.49035</ele>
        <time>2021-08-12T21:37:11.172Z</time>
      </trkpt>
      <trkpt lat="41.71707" lon="45.74684">
        <ele>848.380402</ele>
        <time>2021-08-12T21:37:11.608Z</time>
      </trkpt>
      <trkpt lat="41.71685" lon="45.74659">
        <ele>847.086082</ele>
        <time>2021-08-12T21:37:17.871Z</time>
      </trkpt>
      <trkpt lat="41.71646" lon="45.74638">
        <ele>845.20353</ele>
        <time>2021-08-12T21:37:26.246Z</time>
      </trkpt>
      <trkpt lat="41.71572" lon="45.74623">
        <ele>839.062111</ele>
        <time>2021-08-12T21:37:40.820Z</time>
      </trkpt>
      <trkpt lat="41.71526" lon="45.74633">
        <ele>835.283115</ele>
        <time>2021-08-12T21:37:49.737Z</time>
      </trkpt>
      <trkpt lat="41.71497" lon="45.74648">
        <ele>832.674702</ele>
        <time>2021-08-12T21:37:56.025Z</time>
      </trkpt>
      <trkpt lat="41.71464" lon="45.74674">
        <ele>829.682072</ele>
        <time>2021-08-12T21:38:03.464Z</time>
      </trkpt>
      <trkpt lat="41.71461" lon="45.74677">
        <ele>829.380764</ele>
        <time>2021-08-12T21:38:04.194Z</time>
      </trkpt>
      <trkpt lat="41.71428" lon="45.74702">
        <ele>826.68422</ele>
        <time>2021-08-12T21:38:11.569Z</time>
      </trkpt>
      <trkpt lat="41.71321" lon="45.74788">
        <ele>817.61021</ele>
        <time>2021-08-12T21:38:36.659Z</time>
      </trkpt>
      <trkpt lat="41.71271" lon="45.74851">
        <ele>812.081198</ele>
        <time>2021-08-12T21:38:50.960Z</time>
      </trkpt>
      <trkpt lat="41.71248" lon="45.74862">
        <ele>810.08923</ele>
        <time>2021-08-12T21:38:55.616Z</time>
      </trkpt>
      <trkpt lat="41.71208" lon="45.74853">
        <ele>806.799976</ele>
        <time>2021-08-12T21:39:03.494Z</time>
      </trkpt>
      <trkpt lat="41.71128" lon="45.74869">
        <ele>799.445043</ele>
        <time>2021-08-12T21:39:18.997Z</time>
      </trkpt>
      <trkpt lat="41.71122" lon="45.74864">
        <ele>798.726057</ele>
        <time>2021-08-12T21:39:20.239Z</time>
      </trkpt>
      <trkpt lat="41.71118" lon="45.7486">
        <ele>798.138818</ele>
        <time>2021-08-12T21:39:21.237Z</time>
      </trkpt>
      <trkpt lat="41.71034" lon="45.74754">
        <ele>785.966624</ele>
        <time>2021-08-12T21:39:43.069Z</time>
      </trkpt>
      <trkpt lat="41.70942" lon="45.74658">
        <ele>774.248134</ele>
        <time>2021-08-12T21:40:05.051Z</time>
      </trkpt>
      <trkpt lat="41.70921" lon="45.74632">
        <ele>771.357971</ele>
        <time>2021-08-12T21:40:10.593Z</time>
      </trkpt>
      <trkpt lat="41.70913" lon="45.74622">
        <ele>770.313548</ele>
        <time>2021-08-12T21:40:12.639Z</time>
      </trkpt>
      <trkpt lat="41.70874" lon="45.74567">
        <ele>765.001598</ele>
        <time>2021-08-12T21:40:23.547Z</time>
      </trkpt>
      <trkpt lat="41.70842" lon="45.74538">
        <ele>762.168156</ele>
        <time>2021-08-12T21:40:30.996Z</time>
      </trkpt>
      <trkpt lat="41.70821" lon="45.74529">
        <ele>760.542271</ele>
        <time>2021-08-12T21:40:35.297Z</time>
      </trkpt>
      <trkpt lat="41.70738" lon="45.74539">
        <ele>754.365014</ele>
        <time>2021-08-12T21:40:52.026Z</time>
      </trkpt>
      <trkpt lat="41.70682" lon="45.74557">
        <ele>750.776521</ele>
        <time>2021-08-12T21:41:04.130Z</time>
      </trkpt>
      <trkpt lat="41.70639" lon="45.74558">
        <ele>748.468773</ele>
        <time>2021-08-12T21:41:13.027Z</time>
      </trkpt>
      <trkpt lat="41.70622" lon="45.74551">
        <ele>747.526981</ele>
        <time>2021-08-12T21:41:16.682Z</time>
      </trkpt>
      <trkpt lat="41.70565" lon="45.74508">
        <ele>743.987458</ele>
        <time>2021-08-12T21:41:30.503Z</time>
      </trkpt>
      <trkpt lat="41.70539" lon="45.74475">
        <ele>742.148541</ele>
        <time>2021-08-12T21:41:38.085Z</time>
      </trkpt>
      <trkpt lat="41.70487" lon="45.74425">
        <ele>739.116</ele>
        <time>2021-08-12T21:41:51.369Z</time>
      </trkpt>
      <trkpt lat="41.70429" lon="45.74398">
        <ele>736.20399</ele>
        <time>2021-08-12T21:42:04.371Z</time>
      </trkpt>
      <trkpt lat="41.704" lon="45.74389">
        <ele>734.791682</ele>
        <time>2021-08-12T21:42:10.674Z</time>
      </trkpt>
      <trkpt lat="41.70372" lon="45.74389">
        <ele>734.18856</ele>
        <time>2021-08-12T21:42:17.180Z</time>
      </trkpt>
      <trkpt lat="41.70264" lon="45.74385">
        <ele>732.894278</ele>
        <time>2021-08-12T21:42:44.473Z</time>
      </trkpt>
      <trkpt lat="41.70256" lon="45.74382">
        <ele>732.792839</ele>
        <time>2021-08-12T21:42:46.576Z</time>
      </trkpt>
      <trkpt lat="41.70235" lon="45.74371">
        <ele>732.529219</ele>
        <time>2021-08-12T21:42:55.089Z</time>
      </trkpt>
      <trkpt lat="41.69905" lon="45.74132">
        <ele>739.816842</ele>
        <time>2021-08-12T21:45:39.537Z</time>
      </trkpt>
      <trkpt lat="41.69641" lon="45.7395">
        <ele>745.118939</ele>
        <time>2021-08-12T21:47:37.236Z</time>
      </trkpt>
      <trkpt lat="41.69591" lon="45.73918">
        <ele>746.256922</ele>
        <time>2021-08-12T21:48:01.590Z</time>
      </trkpt>
      <trkpt lat="41.6958" lon="45.73909">
        <ele>746.554429</ele>
        <time>2021-08-12T21:48:08.507Z</time>
      </trkpt>
      <trkpt lat="41.69563" lon="45.73892">
        <ele>747.512249</ele>
        <time>2021-08-12T21:48:18.267Z</time>
      </trkpt>
      <trkpt lat="41.6949" lon="45.73768">
        <ele>752.90706</ele>
        <time>2021-08-12T21:49:24.244Z</time>
      </trkpt>
      <trkpt lat="41.69379" lon="45.73599">
        <ele>763.693544</ele>
        <time>2021-08-12T21:51:15.420Z</time>
      </trkpt>
      <trkpt lat="41.69284" lon="45.73491">
        <ele>773.736023</ele>
        <time>2021-08-12T21:52:56.545Z</time>
      </trkpt>
      <trkpt lat="41.69224" lon="45.73415">
        <ele>780.996874</ele>
        <time>2021-08-12T21:54:05.718Z</time>
      </trkpt>
      <trkpt lat="41.69163" lon="45.73345">
        <ele>786.441054</ele>
        <time>2021-08-12T21:55:06.389Z</time>
      </trkpt>
      <trkpt lat="41.69161" lon="45.73343">
        <ele>786.598272</ele>
        <time>2021-08-12T21:55:08.949Z</time>
      </trkpt>
      <trkpt lat="41.69091" lon="45.73252">
        <ele>792.234252</ele>
        <time>2021-08-12T21:56:08.265Z</time>
      </trkpt>
      <trkpt lat="41.68862" lon="45.72886">
        <ele>802.48257</ele>
        <time>2021-08-12T21:58:53.295Z</time>
      </trkpt>
      <trkpt lat="41.68837" lon="45.72862">
        <ele>803.17182</ele>
        <time>2021-08-12T21:59:05.587Z</time>
      </trkpt>
      <trkpt lat="41.68822" lon="45.72861">
        <ele>803.367206</ele>
        <time>2021-08-12T21:59:11.290Z</time>
      </trkpt>
      <trkpt lat="41.6882" lon="45.72862">
        <ele>803.397748</ele>
        <time>2021-08-12T21:59:12.986Z</time>
      </trkpt>
      <trkpt lat="41.68819" lon="45.72831">
        <ele>803.699355</ele>
        <time>2021-08-12T21:59:21.247Z</time>
      </trkpt>
      <trkpt lat="41.68799" lon="45.72735">
        <ele>804.65447</ele>
        <time>2021-08-12T21:59:48.432Z</time>
      </trkpt>
      <trkpt lat="41.68759" lon="45.72611">
        <ele>806.293067</ele>
        <time>2021-08-12T22:00:27.326Z</time>
      </trkpt>
      <trkpt lat="41.68755" lon="45.72575">
        <ele>806.873993</ele>
        <time>2021-08-12T22:00:38.326Z</time>
      </trkpt>
      <trkpt lat="41.68749" lon="45.7254">
        <ele>807.459666</ele>
        <time>2021-08-12T22:00:50.314Z</time>
      </trkpt>
      <trkpt lat="41.68733" lon="45.7251">
        <ele>808.034108</ele>
        <time>2021-08-12T22:01:02.119Z</time>
      </trkpt>
      <trkpt lat="41.68645" lon="45.72398">
        <ele>810.500896</ele>
        <time>2021-08-12T22:01:59.581Z</time>
      </trkpt>
      <trkpt lat="41.68632" lon="45.72371">
        <ele>810.962215</ele>
        <time>2021-08-12T22:02:10.320Z</time>
      </trkpt>
      <trkpt lat="41.68608" lon="45.72292">
        <ele>812.164688</ele>
        <time>2021-08-12T22:02:36.224Z</time>
      </trkpt>
      <trkpt lat="41.68583" lon="45.72269">
        <ele>812.705029</ele>
        <time>2021-08-12T22:02:47.521Z</time>
      </trkpt>
      <trkpt lat="41.68542" lon="45.72213">
        <ele>811.972981</ele>
        <time>2021-08-12T22:03:05.391Z</time>
      </trkpt>
      <trkpt lat="41.6848" lon="45.72147">
        <ele>810.971362</ele>
        <time>2021-08-12T22:03:25.805Z</time>
      </trkpt>
      <trkpt lat="41.68458" lon="45.72123">
        <ele>810.619102</ele>
        <time>2021-08-12T22:03:32.421Z</time>
      </trkpt>
      <trkpt lat="41.68433" lon="45.72086">
        <ele>809.530052</ele>
        <time>2021-08-12T22:03:41.016Z</time>
      </trkpt>
      <trkpt lat="41.68426" lon="45.72053">
        <ele>808.55729</ele>
        <time>2021-08-12T22:03:46.774Z</time>
      </trkpt>
      <trkpt lat="41.68429" lon="45.71872">
        <ele>803.543373</ele>
        <time>2021-08-12T22:04:16.249Z</time>
      </trkpt>
      <trkpt lat="41.68425" lon="45.71814">
        <ele>802.560898</ele>
        <time>2021-08-12T22:04:25.937Z</time>
      </trkpt>
      <trkpt lat="41.6843" lon="45.71777">
        <ele>801.913984</ele>
        <time>2021-08-12T22:04:32.515Z</time>
      </trkpt>
      <trkpt lat="41.6846" lon="45.7169">
        <ele>800.300732</ele>
        <time>2021-08-12T22:04:50.137Z</time>
      </trkpt>
      <trkpt lat="41.68483" lon="45.71646">
        <ele>799.705791</ele>
        <time>2021-08-12T22:05:01.495Z</time>
      </trkpt>
      <trkpt lat="41.68485" lon="45.71622">
        <ele>799.929895</ele>
        <time>2021-08-12T22:05:07.208Z</time>
      </trkpt>
      <trkpt lat="41.68476" lon="45.71597">
        <ele>800.189256</ele>
        <time>2021-08-12T22:05:14.543Z</time>
      </trkpt>
      <trkpt lat="41.6846" lon="45.71584">
        <ele>800.419028</ele>
        <time>2021-08-12T22:05:21.721Z</time>
      </trkpt>
      <trkpt lat="41.68436" lon="45.71587">
        <ele>800.711225</ele>
        <time>2021-08-12T22:05:31.617Z</time>
      </trkpt>
      <trkpt lat="41.68399" lon="45.71606">
        <ele>801.209976</ele>
        <time>2021-08-12T22:05:48.923Z</time>
      </trkpt>
      <trkpt lat="41.68369" lon="45.71597">
        <ele>801.58904</ele>
        <time>2021-08-12T22:06:02.029Z</time>
      </trkpt>
      <trkpt lat="41.68354" lon="45.71574">
        <ele>801.84043</ele>
        <time>2021-08-12T22:06:11.726Z</time>
      </trkpt>
      <trkpt lat="41.68328" lon="45.715">
        <ele>801.988387</ele>
        <time>2021-08-12T22:06:36.454Z</time>
      </trkpt>
      <trkpt lat="41.68301" lon="45.7142">
        <ele>802.14731</ele>
        <time>2021-08-12T22:06:58.515Z</time>
      </trkpt>
      <trkpt lat="41.68295" lon="45.71401">
        <ele>802.183507</ele>
        <time>2021-08-12T22:07:02.712Z</time>
      </trkpt>
      <trkpt lat="41.68265" lon="45.71292">
        <ele>800.273726</ele>
        <time>2021-08-12T22:07:24.200Z</time>
      </trkpt>
      <trkpt lat="41.68261" lon="45.71282">
        <ele>799.931511</ele>
        <time>2021-08-12T22:07:26.158Z</time>
      </trkpt>
      <trkpt lat="41.68244" lon="45.7124">
        <ele>798.563307</ele>
        <time>2021-08-12T22:07:33.947Z</time>
      </trkpt>
      <trkpt lat="41.68209" lon="45.7117">
        <ele>796.163299</ele>
        <time>2021-08-12T22:07:47.345Z</time>
      </trkpt>
      <trkpt lat="41.68188" lon="45.71129">
        <ele>794.454829</ele>
        <time>2021-08-12T22:07:55.102Z</time>
      </trkpt>
      <trkpt lat="41.68176" lon="45.71106">
        <ele>793.271162</ele>
        <time>2021-08-12T22:07:59.455Z</time>
      </trkpt>
      <trkpt lat="41.68154" lon="45.71062">
        <ele>791.043186</ele>
        <time>2021-08-12T22:08:07.710Z</time>
      </trkpt>
      <trkpt lat="41.68118" lon="45.70997">
        <ele>787.679416</ele>
        <time>2021-08-12T22:08:20.144Z</time>
      </trkpt>
      <trkpt lat="41.68047" lon="45.70916">
        <ele>782.600602</ele>
        <time>2021-08-12T22:08:39.533Z</time>
      </trkpt>
      <trkpt lat="41.68002" lon="45.70864">
        <ele>779.410368</ele>
        <time>2021-08-12T22:08:52.094Z</time>
      </trkpt>
      <trkpt lat="41.6798" lon="45.70842">
        <ele>777.968969</ele>
        <time>2021-08-12T22:08:57.734Z</time>
      </trkpt>
      <trkpt lat="41.67944" lon="45.70799">
        <ele>775.399961</ele>
        <time>2021-08-12T22:09:07.841Z</time>
      </trkpt>
      <trkpt lat="41.67797" lon="45.70636">
        <ele>766.144646</ele>
        <time>2021-08-12T22:09:48.293Z</time>
      </trkpt>
      <trkpt lat="41.67727" lon="45.70561">
        <ele>762.824133</ele>
        <time>2021-08-12T22:10:08.425Z</time>
      </trkpt>
      <trkpt lat="41.6755" lon="45.70363">
        <ele>753.915917</ele>
        <time>2021-08-12T22:11:00.825Z</time>
      </trkpt>
      <trkpt lat="41.67535" lon="45.70348">
        <ele>753.174449</ele>
        <time>2021-08-12T22:11:04.692Z</time>
      </trkpt>
      <trkpt lat="41.67522" lon="45.70338">
        <ele>752.083466</ele>
        <time>2021-08-12T22:11:07.677Z</time>
      </trkpt>
      <trkpt lat="41.67482" lon="45.70306">
        <ele>748.198418</ele>
        <time>2021-08-12T22:11:16.974Z</time>
      </trkpt>
      <trkpt lat="41.67441" lon="45.70269">
        <ele>744.051628</ele>
        <time>2021-08-12T22:11:26.763Z</time>
      </trkpt>
      <trkpt lat="41.67405" lon="45.70244">
        <ele>740.70653</ele>
        <time>2021-08-12T22:11:34.430Z</time>
      </trkpt>
      <trkpt lat="41.67394" lon="45.70229">
        <ele>739.401537</ele>
        <time>2021-08-12T22:11:37.358Z</time>
      </trkpt>
      <trkpt lat="41.67386" lon="45.70206">
        <ele>737.870548</ele>
        <time>2021-08-12T22:11:40.995Z</time>
      </trkpt>
      <trkpt lat="41.67387" lon="45.70175">
        <ele>736.210584</ele>
        <time>2021-08-12T22:11:45.438Z</time>
      </trkpt>
      <trkpt lat="41.67391" lon="45.70134">
        <ele>734.046482</ele>
        <time>2021-08-12T22:11:51.275Z</time>
      </trkpt>
      <trkpt lat="41.67393" lon="45.701">
        <ele>732.219965</ele>
        <time>2021-08-12T22:11:56.338Z</time>
      </trkpt>
      <trkpt lat="41.67392" lon="45.70054">
        <ele>729.809202</ele>
        <time>2021-08-12T22:12:03.156Z</time>
      </trkpt>
      <trkpt lat="41.67381" lon="45.69991">
        <ele>726.372279</ele>
        <time>2021-08-12T22:12:13.578Z</time>
      </trkpt>
      <trkpt lat="41.6738" lon="45.69974">
        <ele>725.484851</ele>
        <time>2021-08-12T22:12:16.353Z</time>
      </trkpt>
      <trkpt lat="41.67379" lon="45.69957">
        <ele>725.353234</ele>
        <time>2021-08-12T22:12:19.158Z</time>
      </trkpt>
      <trkpt lat="41.67377" lon="45.69932">
        <ele>725.320771</ele>
        <time>2021-08-12T22:12:23.586Z</time>
      </trkpt>
      <trkpt lat="41.67378" lon="45.69891">
        <ele>725.26749</ele>
        <time>2021-08-12T22:12:31.776Z</time>
      </trkpt>
      <trkpt lat="41.67364" lon="45.69856">
        <ele>725.216301</ele>
        <time>2021-08-12T22:12:41.843Z</time>
      </trkpt>
      <trkpt lat="41.67342" lon="45.69834">
        <ele>725.167871</ele>
        <time>2021-08-12T22:12:52.491Z</time>
      </trkpt>
      <trkpt lat="41.67266" lon="45.69793">
        <ele>724.814099</ele>
        <time>2021-08-12T22:13:27.092Z</time>
      </trkpt>
      <trkpt lat="41.67229" lon="45.69769">
        <ele>724.296538</ele>
        <time>2021-08-12T22:13:41.244Z</time>
      </trkpt>
      <trkpt lat="41.67174" lon="45.69749">
        <ele>723.579736</ele>
        <time>2021-08-12T22:13:56.671Z</time>
      </trkpt>
      <trkpt lat="41.66999" lon="45.69672">
        <ele>717.212137</ele>
        <time>2021-08-12T22:14:36.901Z</time>
      </trkpt>
      <trkpt lat="41.66923" lon="45.69635">
        <ele>713.087385</ele>
        <time>2021-08-12T22:14:53.819Z</time>
      </trkpt>
      <trkpt lat="41.66845" lon="45.69607">
        <ele>708.033447</ele>
        <time>2021-08-12T22:15:10.216Z</time>
      </trkpt>
      <trkpt lat="41.66802" lon="45.69587">
        <ele>705.180946</ele>
        <time>2021-08-12T22:15:19.408Z</time>
      </trkpt>
      <trkpt lat="41.66767" lon="45.69567">
        <ele>702.782568</ele>
        <time>2021-08-12T22:15:27.072Z</time>
      </trkpt>
      <trkpt lat="41.66711" lon="45.69539">
        <ele>698.852989</ele>
        <time>2021-08-12T22:15:39.107Z</time>
      </trkpt>
      <trkpt lat="41.6659" lon="45.69486">
        <ele>690.548127</ele>
        <time>2021-08-12T22:16:04.771Z</time>
      </trkpt>
      <trkpt lat="41.66426" lon="45.69388">
        <ele>679.651169</ele>
        <time>2021-08-12T22:16:41.644Z</time>
      </trkpt>
      <trkpt lat="41.66404" lon="45.69381">
        <ele>678.491863</ele>
        <time>2021-08-12T22:16:46.291Z</time>
      </trkpt>
      <trkpt lat="41.6638" lon="45.69365">
        <ele>677.115197</ele>
        <time>2021-08-12T22:16:51.901Z</time>
      </trkpt>
      <trkpt lat="41.66308" lon="45.69338">
        <ele>673.23478</ele>
        <time>2021-08-12T22:17:07.712Z</time>
      </trkpt>
      <trkpt lat="41.66289" lon="45.69323">
        <ele>672.116949</ele>
        <time>2021-08-12T22:17:12.354Z</time>
      </trkpt>
      <trkpt lat="41.66275" lon="45.69302">
        <ele>671.029949</ele>
        <time>2021-08-12T22:17:16.814Z</time>
      </trkpt>
      <trkpt lat="41.66107" lon="45.69305">
        <ele>663.369637</ele>
        <time>2021-08-12T22:17:52.913Z</time>
      </trkpt>
      <trkpt lat="41.66075" lon="45.69313">
        <ele>661.814293</ele>
        <time>2021-08-12T22:17:59.786Z</time>
      </trkpt>
      <trkpt lat="41.6591" lon="45.69323">
        <ele>653.61702</ele>
        <time>2021-08-12T22:18:34.904Z</time>
      </trkpt>
      <trkpt lat="41.65851" lon="45.69321">
        <ele>650.341986</ele>
        <time>2021-08-12T22:18:47.270Z</time>
      </trkpt>
      <trkpt lat="41.658" lon="45.69315">
        <ele>647.495595</ele>
        <time>2021-08-12T22:18:57.907Z</time>
      </trkpt>
      <trkpt lat="41.65698" lon="45.69299">
        <ele>641.430419</ele>
        <time>2021-08-12T22:19:18.887Z</time>
      </trkpt>
      <trkpt lat="41.65583" lon="45.69287">
        <ele>633.998716</ele>
        <time>2021-08-12T22:19:42.105Z</time>
      </trkpt>
      <trkpt lat="41.65535" lon="45.69282">
        <ele>630.868615</ele>
        <time>2021-08-12T22:19:51.961Z</time>
      </trkpt>
      <trkpt lat="41.65341" lon="45.6928">
        <ele>618.29998</ele>
        <time>2021-08-12T22:20:31.255Z</time>
      </trkpt>
      <trkpt lat="41.65287" lon="45.69287">
        <ele>614.588489</ele>
        <time>2021-08-12T22:20:42.226Z</time>
      </trkpt>
      <trkpt lat="41.65236" lon="45.69298">
        <ele>611.07651</ele>
        <time>2021-08-12T22:20:52.498Z</time>
      </trkpt>
      <trkpt lat="41.65172" lon="45.69302">
        <ele>606.60097</ele>
        <time>2021-08-12T22:21:05.260Z</time>
      </trkpt>
      <trkpt lat="41.64984" lon="45.69278">
        <ele>593.386202</ele>
        <time>2021-08-12T22:21:43.073Z</time>
      </trkpt>
      <trkpt lat="41.64771" lon="45.69237">
        <ele>579.835255</ele>
        <time>2021-08-12T22:22:26.821Z</time>
      </trkpt>
      <trkpt lat="41.64678" lon="45.69222">
        <ele>574.266067</ele>
        <time>2021-08-12T22:22:46.027Z</time>
      </trkpt>
      <trkpt lat="41.64516" lon="45.69189">
        <ele>565.293308</ele>
        <time>2021-08-12T22:23:20.177Z</time>
      </trkpt>
      <trkpt lat="41.64322" lon="45.69144">
        <ele>554.464105</ele>
        <time>2021-08-12T22:24:01.238Z</time>
      </trkpt>
      <trkpt lat="41.64295" lon="45.69137">
        <ele>552.911456</ele>
        <time>2021-08-12T22:24:07.009Z</time>
      </trkpt>
      <trkpt lat="41.64226" lon="45.69119">
        <ele>549.045115</ele>
        <time>2021-08-12T22:24:21.517Z</time>
      </trkpt>
      <trkpt lat="41.64179" lon="45.69107">
        <ele>546.410906</ele>
        <time>2021-08-12T22:24:31.421Z</time>
      </trkpt>
      <trkpt lat="41.64039" lon="45.69071">
        <ele>539.719826</ele>
        <time>2021-08-12T22:25:01.520Z</time>
      </trkpt>
      <trkpt lat="41.63977" lon="45.6906">
        <ele>537.038052</ele>
        <time>2021-08-12T22:25:15.360Z</time>
      </trkpt>
      <trkpt lat="41.63922" lon="45.69047">
        <ele>534.990992</ele>
        <time>2021-08-12T22:25:27.979Z</time>
      </trkpt>
      <trkpt lat="41.63892" lon="45.69039">
        <ele>533.974165</ele>
        <time>2021-08-12T22:25:35.069Z</time>
      </trkpt>
      <trkpt lat="41.63717" lon="45.68993">
        <ele>528.408625</ele>
        <time>2021-08-12T22:26:15.924Z</time>
      </trkpt>
      <trkpt lat="41.63643" lon="45.68974">
        <ele>526.22644</ele>
        <time>2021-08-12T22:26:33.063Z</time>
      </trkpt>
      <trkpt lat="41.63425" lon="45.68914">
        <ele>520.907006</ele>
        <time>2021-08-12T22:27:26.014Z</time>
      </trkpt>
      <trkpt lat="41.63386" lon="45.68892">
        <ele>520.768721</ele>
        <time>2021-08-12T22:27:37.227Z</time>
      </trkpt>
      <trkpt lat="41.63386" lon="45.68892">
        <ele>520.768721</ele>
        <time>2021-08-12T22:27:37.443Z</time>
      </trkpt>
      <trkpt lat="41.6351" lon="45.68533">
        <ele>520.708513</ele>
        <time>2021-08-12T22:29:12.320Z</time>
      </trkpt>
      <trkpt lat="41.63536" lon="45.68458">
        <ele>521.005208</ele>
        <time>2021-08-12T22:29:33.762Z</time>
      </trkpt>
      <trkpt lat="41.63564" lon="45.68395">
        <ele>521.328792</ele>
        <time>2021-08-12T22:29:52.847Z</time>
      </trkpt>
      <trkpt lat="41.63592" lon="45.68333">
        <ele>521.654937</ele>
        <time>2021-08-12T22:30:11.897Z</time>
      </trkpt>
      <trkpt lat="41.63614" lon="45.68286">
        <ele>521.870021</ele>
        <time>2021-08-12T22:30:26.246Z</time>
      </trkpt>
      <trkpt lat="41.63642" lon="45.68228">
        <ele>522.046544</ele>
        <time>2021-08-12T22:30:43.755Z</time>
      </trkpt>
      <trkpt lat="41.63697" lon="45.68113">
        <ele>522.397055</ele>
        <time>2021-08-12T22:31:17.916Z</time>
      </trkpt>
      <trkpt lat="41.63711" lon="45.68085">
        <ele>522.341532</ele>
        <time>2021-08-12T22:31:25.769Z</time>
      </trkpt>
      <trkpt lat="41.63743" lon="45.68023">
        <ele>521.867651</ele>
        <time>2021-08-12T22:31:41.862Z</time>
      </trkpt>
      <trkpt lat="41.6376" lon="45.67985">
        <ele>521.578353</ele>
        <time>2021-08-12T22:31:51.188Z</time>
      </trkpt>
      <trkpt lat="41.63761" lon="45.67981">
        <ele>521.549697</ele>
        <time>2021-08-12T22:31:52.139Z</time>
      </trkpt>
      <trkpt lat="41.63776" lon="45.67941">
        <ele>521.268679</ele>
        <time>2021-08-12T22:32:00.915Z</time>
      </trkpt>
      <trkpt lat="41.63792" lon="45.67879">
        <ele>520.759904</ele>
        <time>2021-08-12T22:32:13.711Z</time>
      </trkpt>
      <trkpt lat="41.63935" lon="45.67097">
        <ele>507.770948</ele>
        <time>2021-08-12T22:34:39.425Z</time>
      </trkpt>
      <trkpt lat="41.63956" lon="45.66984">
        <ele>506.259049</ele>
        <time>2021-08-12T22:35:01.593Z</time>
      </trkpt>
      <trkpt lat="41.64013" lon="45.66644">
        <ele>504.015967</ele>
        <time>2021-08-12T22:36:14.354Z</time>
      </trkpt>
      <trkpt lat="41.64039" lon="45.66484">
        <ele>503.145796</ele>
        <time>2021-08-12T22:36:48.990Z</time>
      </trkpt>
      <trkpt lat="41.64044" lon="45.66455">
        <ele>502.90357</ele>
        <time>2021-08-12T22:36:55.036Z</time>
      </trkpt>
      <trkpt lat="41.64079" lon="45.66186">
        <ele>500.715758</ele>
        <time>2021-08-12T22:37:49.180Z</time>
      </trkpt>
      <trkpt lat="41.64147" lon="45.65719">
        <ele>497.610359</ele>
        <time>2021-08-12T22:39:27.002Z</time>
      </trkpt>
      <trkpt lat="41.64167" lon="45.65507">
        <ele>496.378916</ele>
        <time>2021-08-12T22:40:12.916Z</time>
      </trkpt>
      <trkpt lat="41.64165" lon="45.65371">
        <ele>494.894322</ele>
        <time>2021-08-12T22:40:39.520Z</time>
      </trkpt>
      <trkpt lat="41.6416" lon="45.65315">
        <ele>494.269089</ele>
        <time>2021-08-12T22:40:50.122Z</time>
      </trkpt>
      <trkpt lat="41.64155" lon="45.65228">
        <ele>492.702125</ele>
        <time>2021-08-12T22:41:05.695Z</time>
      </trkpt>
      <trkpt lat="41.64066" lon="45.64517">
        <ele>478.228449</ele>
        <time>2021-08-12T22:43:11.904Z</time>
      </trkpt>
      <trkpt lat="41.6404" lon="45.64269">
        <ele>474.531654</ele>
        <time>2021-08-12T22:43:58.185Z</time>
      </trkpt>
      <trkpt lat="41.64044" lon="45.64134">
        <ele>473.088654</ele>
        <time>2021-08-12T22:44:24.649Z</time>
      </trkpt>
      <trkpt lat="41.64093" lon="45.63789">
        <ele>470.801484</ele>
        <time>2021-08-12T22:45:36.903Z</time>
      </trkpt>
      <trkpt lat="41.64098" lon="45.63743">
        <ele>470.567908</ele>
        <time>2021-08-12T22:45:46.672Z</time>
      </trkpt>
      <trkpt lat="41.64101" lon="45.63706">
        <ele>470.382339</ele>
        <time>2021-08-12T22:45:54.442Z</time>
      </trkpt>
      <trkpt lat="41.64111" lon="45.63571">
        <ele>469.908714</ele>
        <time>2021-08-12T22:46:23.824Z</time>
      </trkpt>
      <trkpt lat="41.64119" lon="45.6336">
        <ele>469.600152</ele>
        <time>2021-08-12T22:47:12.461Z</time>
      </trkpt>
      <trkpt lat="41.64139" lon="45.62831">
        <ele>469.379366</ele>
        <time>2021-08-12T22:49:13.193Z</time>
      </trkpt>
      <trkpt lat="41.64159" lon="45.62189">
        <ele>470.908008</ele>
        <time>2021-08-12T22:51:54.153Z</time>
      </trkpt>
      <trkpt lat="41.64164" lon="45.62062">
        <ele>470.253905</ele>
        <time>2021-08-12T22:52:21.807Z</time>
      </trkpt>
      <trkpt lat="41.64166" lon="45.61985">
        <ele>469.849429</ele>
        <time>2021-08-12T22:52:37.532Z</time>
      </trkpt>
      <trkpt lat="41.64177" lon="45.61623">
        <ele>466.371845</ele>
        <time>2021-08-12T22:53:47.579Z</time>
      </trkpt>
      <trkpt lat="41.64217" lon="45.60826">
        <ele>460.543537</ele>
        <time>2021-08-12T22:56:26.844Z</time>
      </trkpt>
      <trkpt lat="41.64219" lon="45.60761">
        <ele>460.452007</ele>
        <time>2021-08-12T22:56:45.121Z</time>
      </trkpt>
      <trkpt lat="41.6424" lon="45.60277">
        <ele>468.04715</ele>
        <time>2021-08-12T22:59:25.123Z</time>
      </trkpt>
      <trkpt lat="41.64246" lon="45.60056">
        <ele>470.27077</ele>
        <time>2021-08-12T23:00:28.824Z</time>
      </trkpt>
      <trkpt lat="41.64248" lon="45.59937">
        <ele>471.025516</ele>
        <time>2021-08-12T23:01:00.147Z</time>
      </trkpt>
      <trkpt lat="41.64249" lon="45.59696">
        <ele>472.408676</ele>
        <time>2021-08-12T23:02:02.706Z</time>
      </trkpt>
      <trkpt lat="41.64241" lon="45.59344">
        <ele>475.377783</ele>
        <time>2021-08-12T23:03:41.218Z</time>
      </trkpt>
      <trkpt lat="41.6423" lon="45.59102">
        <ele>478.957146</ele>
        <time>2021-08-12T23:04:57.020Z</time>
      </trkpt>
      <trkpt lat="41.64225" lon="45.58986">
        <ele>481.695676</ele>
        <time>2021-08-12T23:05:38.415Z</time>
      </trkpt>
      <trkpt lat="41.64217" lon="45.58475">
        <ele>497.018997</ele>
        <time>2021-08-12T23:09:06.381Z</time>
      </trkpt>
      <trkpt lat="41.64222" lon="45.58318">
        <ele>501.722687</ele>
        <time>2021-08-12T23:10:12.015Z</time>
      </trkpt>
      <trkpt lat="41.64234" lon="45.58191">
        <ele>504.528127</ele>
        <time>2021-08-12T23:11:00.319Z</time>
      </trkpt>
      <trkpt lat="41.64253" lon="45.58029">
        <ele>506.997218</ele>
        <time>2021-08-12T23:11:50.075Z</time>
      </trkpt>
      <trkpt lat="41.64288" lon="45.57805">
        <ele>508.440958</ele>
        <time>2021-08-12T23:12:48.660Z</time>
      </trkpt>
      <trkpt lat="41.64305" lon="45.57695">
        <ele>508.960949</ele>
        <time>2021-08-12T23:13:16.999Z</time>
      </trkpt>
      <trkpt lat="41.64346" lon="45.57481">
        <ele>510.940772</ele>
        <time>2021-08-12T23:14:17.132Z</time>
      </trkpt>
      <trkpt lat="41.64376" lon="45.57374">
        <ele>512.364651</ele>
        <time>2021-08-12T23:14:54.728Z</time>
      </trkpt>
      <trkpt lat="41.64389" lon="45.57336">
        <ele>513.09834</ele>
        <time>2021-08-12T23:15:09.199Z</time>
      </trkpt>
      <trkpt lat="41.64421" lon="45.57254">
        <ele>514.727485</ele>
        <time>2021-08-12T23:15:41.420Z</time>
      </trkpt>
      <trkpt lat="41.64469" lon="45.57146">
        <ele>516.18058</ele>
        <time>2021-08-12T23:16:21.845Z</time>
      </trkpt>
      <trkpt lat="41.64495" lon="45.57093">
        <ele>516.292982</ele>
        <time>2021-08-12T23:16:38.231Z</time>
      </trkpt>
      <trkpt lat="41.64507" lon="45.57066">
        <ele>516.348222</ele>
        <time>2021-08-12T23:16:45.083Z</time>
      </trkpt>
      <trkpt lat="41.64531" lon="45.57014">
        <ele>516.456097</ele>
        <time>2021-08-12T23:16:57.522Z</time>
      </trkpt>
      <trkpt lat="41.64566" lon="45.56932">
        <ele>516.336882</ele>
        <time>2021-08-12T23:17:16.691Z</time>
      </trkpt>
      <trkpt lat="41.64578" lon="45.56901">
        <ele>516.222612</ele>
        <time>2021-08-12T23:17:24.007Z</time>
      </trkpt>
      <trkpt lat="41.64587" lon="45.56878">
        <ele>516.138455</ele>
        <time>2021-08-12T23:17:29.235Z</time>
      </trkpt>
      <trkpt lat="41.64612" lon="45.56791">
        <ele>515.842289</ele>
        <time>2021-08-12T23:17:49.469Z</time>
      </trkpt>
      <trkpt lat="41.6464" lon="45.56653">
        <ele>516.58552</ele>
        <time>2021-08-12T23:18:27.542Z</time>
      </trkpt>
      <trkpt lat="41.64654" lon="45.56511">
        <ele>517.659587</ele>
        <time>2021-08-12T23:19:09.094Z</time>
      </trkpt>
      <trkpt lat="41.64656" lon="45.56492">
        <ele>517.823768</ele>
        <time>2021-08-12T23:19:14.467Z</time>
      </trkpt>
      <trkpt lat="41.64657" lon="45.56476">
        <ele>517.960062</ele>
        <time>2021-08-12T23:19:19.129Z</time>
      </trkpt>
      <trkpt lat="41.64663" lon="45.56388">
        <ele>518.716961</ele>
        <time>2021-08-12T23:19:44.201Z</time>
      </trkpt>
      <trkpt lat="41.64667" lon="45.5634">
        <ele>519.127989</ele>
        <time>2021-08-12T23:19:57.656Z</time>
      </trkpt>
      <trkpt lat="41.6467" lon="45.5628">
        <ele>519.620126</ele>
        <time>2021-08-12T23:20:14.176Z</time>
      </trkpt>
      <trkpt lat="41.6467" lon="45.56278">
        <ele>519.635862</ele>
        <time>2021-08-12T23:20:14.966Z</time>
      </trkpt>
      <trkpt lat="41.64671" lon="45.56265">
        <ele>519.716555</ele>
        <time>2021-08-12T23:20:18.426Z</time>
      </trkpt>
      <trkpt lat="41.64694" lon="45.55889">
        <ele>522.019327</ele>
        <time>2021-08-12T23:21:59.154Z</time>
      </trkpt>
      <trkpt lat="41.647" lon="45.55792">
        <ele>522.671091</ele>
        <time>2021-08-12T23:22:24.846Z</time>
      </trkpt>
      <trkpt lat="41.64706" lon="45.55708">
        <ele>523.5482</ele>
        <time>2021-08-12T23:22:47.163Z</time>
      </trkpt>
      <trkpt lat="41.64706" lon="45.55608">
        <ele>524.604468</ele>
        <time>2021-08-12T23:23:17.044Z</time>
      </trkpt>
      <trkpt lat="41.647" lon="45.55543">
        <ele>525.541541</ele>
        <time>2021-08-12T23:23:38.956Z</time>
      </trkpt>
      <trkpt lat="41.64693" lon="45.55513">
        <ele>526.170597</ele>
        <time>2021-08-12T23:23:49.058Z</time>
      </trkpt>
      <trkpt lat="41.64706" lon="45.55506">
        <ele>526.546042</ele>
        <time>2021-08-12T23:23:58.698Z</time>
      </trkpt>
      <trkpt lat="41.64706" lon="45.55474">
        <ele>527.182577</ele>
        <time>2021-08-12T23:24:14.024Z</time>
      </trkpt>
      <trkpt lat="41.64713" lon="45.55455">
        <ele>527.620927</ele>
        <time>2021-08-12T23:24:25.361Z</time>
      </trkpt>
      <trkpt lat="41.64726" lon="45.5543">
        <ele>528.220373</ele>
        <time>2021-08-12T23:24:40.084Z</time>
      </trkpt>
      <trkpt lat="41.64722" lon="45.55413">
        <ele>528.591253</ele>
        <time>2021-08-12T23:24:47.007Z</time>
      </trkpt>
      <trkpt lat="41.64737" lon="45.55117">
        <ele>535.162179</ele>
        <time>2021-08-12T23:26:34.257Z</time>
      </trkpt>
      <trkpt lat="41.64738" lon="45.55076">
        <ele>536.025476</ele>
        <time>2021-08-12T23:26:48.925Z</time>
      </trkpt>
      <trkpt lat="41.64738" lon="45.55032">
        <ele>536.922751</ele>
        <time>2021-08-12T23:27:04.444Z</time>
      </trkpt>
      <trkpt lat="41.64763" lon="45.54759">
        <ele>542.01387</ele>
        <time>2021-08-12T23:28:38.535Z</time>
      </trkpt>
      <trkpt lat="41.64766" lon="45.54731">
        <ele>542.476558</ele>
        <time>2021-08-12T23:28:47.757Z</time>
      </trkpt>
      <trkpt lat="41.64771" lon="45.54696">
        <ele>543.031128</ele>
        <time>2021-08-12T23:28:58.436Z</time>
      </trkpt>
      <trkpt lat="41.64793" lon="45.5452">
        <ele>545.10962</ele>
        <time>2021-08-12T23:29:51.926Z</time>
      </trkpt>
      <trkpt lat="41.64794" lon="45.54511">
        <ele>545.195382</ele>
        <time>2021-08-12T23:29:54.506Z</time>
      </trkpt>
      <trkpt lat="41.64797" lon="45.54492">
        <ele>545.371837</ele>
        <time>2021-08-12T23:29:59.530Z</time>
      </trkpt>
      <trkpt lat="41.64799" lon="45.54478">
        <ele>545.503099</ele>
        <time>2021-08-12T23:30:03.633Z</time>
      </trkpt>
      <trkpt lat="41.64828" lon="45.54294">
        <ele>546.86847</ele>
        <time>2021-08-12T23:30:54.332Z</time>
      </trkpt>
      <trkpt lat="41.64852" lon="45.54179">
        <ele>547.542598</ele>
        <time>2021-08-12T23:31:24.723Z</time>
      </trkpt>
      <trkpt lat="41.64853" lon="45.54172">
        <ele>547.583897</ele>
        <time>2021-08-12T23:31:26.840Z</time>
      </trkpt>
      <trkpt lat="41.64861" lon="45.54138">
        <ele>547.828589</ele>
        <time>2021-08-12T23:31:36.378Z</time>
      </trkpt>
      <trkpt lat="41.64871" lon="45.54114">
        <ele>548.034674</ele>
        <time>2021-08-12T23:31:44.083Z</time>
      </trkpt>
      <trkpt lat="41.64878" lon="45.54095">
        <ele>548.187056</ele>
        <time>2021-08-12T23:31:49.585Z</time>
      </trkpt>
      <trkpt lat="41.64888" lon="45.54076">
        <ele>548.362735</ele>
        <time>2021-08-12T23:31:56.188Z</time>
      </trkpt>
      <trkpt lat="41.64908" lon="45.54038">
        <ele>548.718797</ele>
        <time>2021-08-12T23:32:09.349Z</time>
      </trkpt>
      <trkpt lat="41.64917" lon="45.54022">
        <ele>548.862639</ele>
        <time>2021-08-12T23:32:14.631Z</time>
      </trkpt>
      <trkpt lat="41.6495" lon="45.54001">
        <ele>549.22916</ele>
        <time>2021-08-12T23:32:28.162Z</time>
      </trkpt>
      <trkpt lat="41.6501" lon="45.53932">
        <ele>549.85251</ele>
        <time>2021-08-12T23:32:57.824Z</time>
      </trkpt>
      <trkpt lat="41.65076" lon="45.53819">
        <ele>550.615678</ele>
        <time>2021-08-12T23:33:35.484Z</time>
      </trkpt>
      <trkpt lat="41.65148" lon="45.53676">
        <ele>550.83763</ele>
        <time>2021-08-12T23:34:15.988Z</time>
      </trkpt>
      <trkpt lat="41.65225" lon="45.53565">
        <ele>550.976759</ele>
        <time>2021-08-12T23:34:51.303Z</time>
      </trkpt>
      <trkpt lat="41.65285" lon="45.5349">
        <ele>551.10086</ele>
        <time>2021-08-12T23:35:17.665Z</time>
      </trkpt>
      <trkpt lat="41.65639" lon="45.53189">
        <ele>552.48775</ele>
        <time>2021-08-12T23:37:36.226Z</time>
      </trkpt>
      <trkpt lat="41.65846" lon="45.53024">
        <ele>554.497372</ele>
        <time>2021-08-12T23:38:59.833Z</time>
      </trkpt>
      <trkpt lat="41.66003" lon="45.52913">
        <ele>557.528639</ele>
        <time>2021-08-12T23:40:12.794Z</time>
      </trkpt>
      <trkpt lat="41.66127" lon="45.52851">
        <ele>560.655782</ele>
        <time>2021-08-12T23:41:12.813Z</time>
      </trkpt>
      <trkpt lat="41.66167" lon="45.52836">
        <ele>561.887636</ele>
        <time>2021-08-12T23:41:32.750Z</time>
      </trkpt>
      <trkpt lat="41.66243" lon="45.52829">
        <ele>564.101942</ele>
        <time>2021-08-12T23:42:09.120Z</time>
      </trkpt>
      <trkpt lat="41.66346" lon="45.5284">
        <ele>567.308322</ele>
        <time>2021-08-12T23:42:59.114Z</time>
      </trkpt>
      <trkpt lat="41.66559" lon="45.52882">
        <ele>574.306549</ele>
        <time>2021-08-12T23:44:46.336Z</time>
      </trkpt>
      <trkpt lat="41.66654" lon="45.52921">
        <ele>577.395091</ele>
        <time>2021-08-12T23:45:35.595Z</time>
      </trkpt>
      <trkpt lat="41.66943" lon="45.53098">
        <ele>583.776028</ele>
        <time>2021-08-12T23:47:55.248Z</time>
      </trkpt>
      <trkpt lat="41.66999" lon="45.53125">
        <ele>583.292952</ele>
        <time>2021-08-12T23:48:11.259Z</time>
      </trkpt>
      <trkpt lat="41.66963" lon="45.52992">
        <ele>580.623094</ele>
        <time>2021-08-12T23:48:55.765Z</time>
      </trkpt>
      <trkpt lat="41.66712" lon="45.52039">
        <ele>548.583248</ele>
        <time>2021-08-12T23:53:53.165Z</time>
      </trkpt>
      <trkpt lat="41.66697" lon="45.51996">
        <ele>547.769934</ele>
        <time>2021-08-12T23:54:07.900Z</time>
      </trkpt>
      <trkpt lat="41.66684" lon="45.51974">
        <ele>547.335</ele>
        <time>2021-08-12T23:54:16.965Z</time>
      </trkpt>
      <trkpt lat="41.66621" lon="45.51887">
        <ele>545.464684</ele>
        <time>2021-08-12T23:54:57.318Z</time>
      </trkpt>
      <trkpt lat="41.66619" lon="45.51844">
        <ele>544.799983</ele>
        <time>2021-08-12T23:55:12.368Z</time>
      </trkpt>
      <trkpt lat="41.66628" lon="45.51763">
        <ele>544.052225</ele>
        <time>2021-08-12T23:55:41.276Z</time>
      </trkpt>
      <trkpt lat="41.66626" lon="45.5174">
        <ele>543.856628</ele>
        <time>2021-08-12T23:55:49.480Z</time>
      </trkpt>
      <trkpt lat="41.65748" lon="45.48556">
        <ele>514.968434</ele>
        <time>2021-08-13T00:15:39.200Z</time>
      </trkpt>
      <trkpt lat="41.65728" lon="45.48452">
        <ele>513.854933</ele>
        <time>2021-08-13T00:16:15.932Z</time>
      </trkpt>
      <trkpt lat="41.65713" lon="45.48294">
        <ele>510.82496</ele>
        <time>2021-08-13T00:17:07.910Z</time>
      </trkpt>
      <trkpt lat="41.65715" lon="45.4826">
        <ele>510.1585</ele>
        <time>2021-08-13T00:17:18.455Z</time>
      </trkpt>
      <trkpt lat="41.65736" lon="45.48157">
        <ele>507.65733</ele>
        <time>2021-08-13T00:17:51.335Z</time>
      </trkpt>
      <trkpt lat="41.6574" lon="45.48075">
        <ele>505.392583</ele>
        <time>2021-08-13T00:18:15.804Z</time>
      </trkpt>
      <trkpt lat="41.65768" lon="45.47895">
        <ele>501.167153</ele>
        <time>2021-08-13T00:19:11.508Z</time>
      </trkpt>
      <trkpt lat="41.65776" lon="45.47781">
        <ele>499.380851</ele>
        <time>2021-08-13T00:19:48.606Z</time>
      </trkpt>
      <trkpt lat="41.66012" lon="45.45889">
        <ele>500.791667</ele>
        <time>2021-08-13T00:32:27.856Z</time>
      </trkpt>
      <trkpt lat="41.66049" lon="45.45542">
        <ele>501.284798</ele>
        <time>2021-08-13T00:34:46.431Z</time>
      </trkpt>
      <trkpt lat="41.66144" lon="45.44696">
        <ele>503.620297</ele>
        <time>2021-08-13T00:40:31.936Z</time>
      </trkpt>
      <trkpt lat="41.66247" lon="45.43818">
        <ele>507.950446</ele>
        <time>2021-08-13T00:46:42.666Z</time>
      </trkpt>
      <trkpt lat="41.66521" lon="45.41464">
        <ele>519.062458</ele>
        <time>2021-08-13T01:03:09.752Z</time>
      </trkpt>
      <trkpt lat="41.66659" lon="45.40225">
        <ele>527.070556</ele>
        <time>2021-08-13T01:12:02.544Z</time>
      </trkpt>
      <trkpt lat="41.66779" lon="45.39073">
        <ele>532.048759</ele>
        <time>2021-08-13T01:20:03.917Z</time>
      </trkpt>
      <trkpt lat="41.66785" lon="45.39006">
        <ele>532.09747</ele>
        <time>2021-08-13T01:20:29.321Z</time>
      </trkpt>
      <trkpt lat="41.66783" lon="45.39">
        <ele>532.10204</ele>
        <time>2021-08-13T01:20:30.595Z</time>
      </trkpt>
      <trkpt lat="41.66778" lon="45.3898">
        <ele>532.117575</ele>
        <time>2021-08-13T01:20:35.483Z</time>
      </trkpt>
      <trkpt lat="41.66777" lon="45.38968">
        <ele>532.12635</ele>
        <time>2021-08-13T01:20:38.234Z</time>
      </trkpt>
      <trkpt lat="41.66775" lon="45.38885">
        <ele>532.317654</ele>
        <time>2021-08-13T01:20:57.987Z</time>
      </trkpt>
      <trkpt lat="41.66772" lon="45.38845">
        <ele>532.475475</ele>
        <time>2021-08-13T01:21:07.170Z</time>
      </trkpt>
      <trkpt lat="41.66755" lon="45.38795">
        <ele>532.697179</ele>
        <time>2021-08-13T01:21:20.492Z</time>
      </trkpt>
      <trkpt lat="41.6662" lon="45.38478">
        <ele>535.491946</ele>
        <time>2021-08-13T01:23:05.049Z</time>
      </trkpt>
      <trkpt lat="41.66505" lon="45.38185">
        <ele>537.850782</ele>
        <time>2021-08-13T01:24:34.590Z</time>
      </trkpt>
      <trkpt lat="41.66453" lon="45.38068">
        <ele>538.828123</ele>
        <time>2021-08-13T01:25:11.480Z</time>
      </trkpt>
      <trkpt lat="41.66363" lon="45.37868">
        <ele>540.851061</ele>
        <time>2021-08-13T01:26:16.991Z</time>
      </trkpt>
      <trkpt lat="41.66103" lon="45.37338">
        <ele>549.271403</ele>
        <time>2021-08-13T01:29:30.282Z</time>
      </trkpt>
      <trkpt lat="41.6604" lon="45.37213">
        <ele>551.985742</ele>
        <time>2021-08-13T01:30:21.507Z</time>
      </trkpt>
      <trkpt lat="41.66028" lon="45.37186">
        <ele>552.684563</ele>
        <time>2021-08-13T01:30:32.633Z</time>
      </trkpt>
      <trkpt lat="41.65972" lon="45.37082">
        <ele>555.516037</ele>
        <time>2021-08-13T01:31:18.941Z</time>
      </trkpt>
      <trkpt lat="41.65501" lon="45.36237">
        <ele>582.419477</ele>
        <time>2021-08-13T01:37:55.324Z</time>
      </trkpt>
      <trkpt lat="41.65481" lon="45.36209">
        <ele>583.452197</ele>
        <time>2021-08-13T01:38:10.700Z</time>
      </trkpt>
      <trkpt lat="41.65451" lon="45.36191">
        <ele>584.633459</ele>
        <time>2021-08-13T01:38:28.240Z</time>
      </trkpt>
      <trkpt lat="41.6498" lon="45.36021">
        <ele>601.824712</ele>
        <time>2021-08-13T01:42:36.431Z</time>
      </trkpt>
      <trkpt lat="41.6493" lon="45.36013">
        <ele>603.533533</ele>
        <time>2021-08-13T01:43:01.120Z</time>
      </trkpt>
      <trkpt lat="41.64864" lon="45.36011">
        <ele>605.78781</ele>
        <time>2021-08-13T01:43:34.406Z</time>
      </trkpt>
      <trkpt lat="41.64825" lon="45.36015">
        <ele>607.119781</ele>
        <time>2021-08-13T01:43:53.674Z</time>
      </trkpt>
      <trkpt lat="41.64765" lon="45.36016">
        <ele>609.190098</ele>
        <time>2021-08-13T01:44:23.994Z</time>
      </trkpt>
      <trkpt lat="41.64577" lon="45.36051">
        <ele>615.719125</ele>
        <time>2021-08-13T01:45:59.477Z</time>
      </trkpt>
      <trkpt lat="41.64523" lon="45.36052">
        <ele>617.603436</ele>
        <time>2021-08-13T01:46:26.620Z</time>
      </trkpt>
      <trkpt lat="41.64456" lon="45.36046">
        <ele>620.393038</ele>
        <time>2021-08-13T01:47:01.055Z</time>
      </trkpt>
      <trkpt lat="41.64341" lon="45.36009">
        <ele>625.625427</ele>
        <time>2021-08-13T01:48:07.520Z</time>
      </trkpt>
      <trkpt lat="41.64223" lon="45.35966">
        <ele>632.691243</ele>
        <time>2021-08-13T01:49:25.568Z</time>
      </trkpt>
      <trkpt lat="41.64198" lon="45.35957">
        <ele>634.257807</ele>
        <time>2021-08-13T01:49:43.487Z</time>
      </trkpt>
      <trkpt lat="41.63953" lon="45.35856">
        <ele>650.369943</ele>
        <time>2021-08-13T01:52:34.373Z</time>
      </trkpt>
      <trkpt lat="41.63775" lon="45.35791">
        <ele>662.321729</ele>
        <time>2021-08-13T01:54:38.920Z</time>
      </trkpt>
      <trkpt lat="41.6357" lon="45.35744">
        <ele>675.089925</ele>
        <time>2021-08-13T01:57:00.269Z</time>
      </trkpt>
      <trkpt lat="41.63538" lon="45.3573">
        <ele>676.837376</ele>
        <time>2021-08-13T01:57:20.539Z</time>
      </trkpt>
      <trkpt lat="41.63494" lon="45.35699">
        <ele>679.455203</ele>
        <time>2021-08-13T01:57:49.219Z</time>
      </trkpt>
      <trkpt lat="41.6335" lon="45.35555">
        <ele>686.536829</ele>
        <time>2021-08-13T01:59:20.685Z</time>
      </trkpt>
      <trkpt lat="41.63294" lon="45.35507">
        <ele>689.184691</ele>
        <time>2021-08-13T01:59:54.948Z</time>
      </trkpt>
      <trkpt lat="41.6306" lon="45.35354">
        <ele>701.306615</ele>
        <time>2021-08-13T02:02:22.946Z</time>
      </trkpt>
      <trkpt lat="41.62965" lon="45.35273">
        <ele>707.589205</ele>
        <time>2021-08-13T02:03:33.684Z</time>
      </trkpt>
      <trkpt lat="41.62953" lon="45.35259">
        <ele>708.612551</ele>
        <time>2021-08-13T02:03:44.694Z</time>
      </trkpt>
      <trkpt lat="41.62893" lon="45.3519">
        <ele>713.667</ele>
        <time>2021-08-13T02:04:38.018Z</time>
      </trkpt>
      <trkpt lat="41.62681" lon="45.34947">
        <ele>732.818788</ele>
        <time>2021-08-13T02:07:55.176Z</time>
      </trkpt>
      <trkpt lat="41.62609" lon="45.34873">
        <ele>738.983648</ele>
        <time>2021-08-13T02:08:57.651Z</time>
      </trkpt>
      <trkpt lat="41.62513" lon="45.34791">
        <ele>746.124793</ele>
        <time>2021-08-13T02:10:14.147Z</time>
      </trkpt>
      <trkpt lat="41.62142" lon="45.34472">
        <ele>772.570125</ele>
        <time>2021-08-13T02:15:00.520Z</time>
      </trkpt>
      <trkpt lat="41.62122" lon="45.34455">
        <ele>773.777324</ele>
        <time>2021-08-13T02:15:14.049Z</time>
      </trkpt>
      <trkpt lat="41.62035" lon="45.34382">
        <ele>778.349484</ele>
        <time>2021-08-13T02:16:10.538Z</time>
      </trkpt>
      <trkpt lat="41.6198" lon="45.34357">
        <ele>780.900554</ele>
        <time>2021-08-13T02:16:41.043Z</time>
      </trkpt>
      <trkpt lat="41.61806" lon="45.34301">
        <ele>789.531856</ele>
        <time>2021-08-13T02:18:24.916Z</time>
      </trkpt>
      <trkpt lat="41.61683" lon="45.34272">
        <ele>796.342005</ele>
        <time>2021-08-13T02:19:43.418Z</time>
      </trkpt>
      <trkpt lat="41.61578" lon="45.34261">
        <ele>801.684079</ele>
        <time>2021-08-13T02:20:48.658Z</time>
      </trkpt>
      <trkpt lat="41.61452" lon="45.34261">
        <ele>807.325534</ele>
        <time>2021-08-13T02:21:58.665Z</time>
      </trkpt>
      <trkpt lat="41.61373" lon="45.34251">
        <ele>809.824729</ele>
        <time>2021-08-13T02:22:37.434Z</time>
      </trkpt>
      <trkpt lat="41.61191" lon="45.34172">
        <ele>815.492078</ele>
        <time>2021-08-13T02:24:04.337Z</time>
      </trkpt>
      <trkpt lat="41.6113" lon="45.34168">
        <ele>817.358284</ele>
        <time>2021-08-13T02:24:34.733Z</time>
      </trkpt>
      <trkpt lat="41.60723" lon="45.34226">
        <ele>830.64055</ele>
        <time>2021-08-13T02:28:05.459Z</time>
      </trkpt>
      <trkpt lat="41.60661" lon="45.34224">
        <ele>829.369356</ele>
        <time>2021-08-13T02:28:23.058Z</time>
      </trkpt>
      <trkpt lat="41.60577" lon="45.34194">
        <ele>827.590182</ele>
        <time>2021-08-13T02:28:42.785Z</time>
      </trkpt>
      <trkpt lat="41.6054" lon="45.3417">
        <ele>825.901793</ele>
        <time>2021-08-13T02:28:51.303Z</time>
      </trkpt>
      <trkpt lat="41.60509" lon="45.34137">
        <ele>823.491008</ele>
        <time>2021-08-13T02:28:59.324Z</time>
      </trkpt>
      <trkpt lat="41.60475" lon="45.34081">
        <ele>820.1911</ele>
        <time>2021-08-13T02:29:10.184Z</time>
      </trkpt>
      <trkpt lat="41.60414" lon="45.33934">
        <ele>813.029473</ele>
        <time>2021-08-13T02:29:35.761Z</time>
      </trkpt>
      <trkpt lat="41.60365" lon="45.33837">
        <ele>808.469364</ele>
        <time>2021-08-13T02:29:54.383Z</time>
      </trkpt>
      <trkpt lat="41.60311" lon="45.33753">
        <ele>805.341934</ele>
        <time>2021-08-13T02:30:12.972Z</time>
      </trkpt>
      <trkpt lat="41.60241" lon="45.33665">
        <ele>802.553175</ele>
        <time>2021-08-13T02:30:35.702Z</time>
      </trkpt>
      <trkpt lat="41.6022" lon="45.33638">
        <ele>801.710628</ele>
        <time>2021-08-13T02:30:42.668Z</time>
      </trkpt>
      <trkpt lat="41.60014" lon="45.33423">
        <ele>795.844954</ele>
        <time>2021-08-13T02:31:44.590Z</time>
      </trkpt>
      <trkpt lat="41.59983" lon="45.33392">
        <ele>795.227042</ele>
        <time>2021-08-13T02:31:54.939Z</time>
      </trkpt>
      <trkpt lat="41.59953" lon="45.33345">
        <ele>794.506707</ele>
        <time>2021-08-13T02:32:08.165Z</time>
      </trkpt>
      <trkpt lat="41.59947" lon="45.33315">
        <ele>794.161051</ele>
        <time>2021-08-13T02:32:15.393Z</time>
      </trkpt>
      <trkpt lat="41.59948" lon="45.33287">
        <ele>793.875669</ele>
        <time>2021-08-13T02:32:20.959Z</time>
      </trkpt>
      <trkpt lat="41.59959" lon="45.33245">
        <ele>793.43391</ele>
        <time>2021-08-13T02:32:30.027Z</time>
      </trkpt>
      <trkpt lat="41.59986" lon="45.3316">
        <ele>792.513593</ele>
        <time>2021-08-13T02:32:48.547Z</time>
      </trkpt>
      <trkpt lat="41.59987" lon="45.33135">
        <ele>792.258029</ele>
        <time>2021-08-13T02:32:53.732Z</time>
      </trkpt>
      <trkpt lat="41.59987" lon="45.33118">
        <ele>792.08486</ele>
        <time>2021-08-13T02:32:57.280Z</time>
      </trkpt>
      <trkpt lat="41.59983" lon="45.33102">
        <ele>791.922095</ele>
        <time>2021-08-13T02:33:00.077Z</time>
      </trkpt>
      <trkpt lat="41.59769" lon="45.32599">
        <ele>778.577177</ele>
        <time>2021-08-13T02:34:38.316Z</time>
      </trkpt>
      <trkpt lat="41.59678" lon="45.32384">
        <ele>775.655302</ele>
        <time>2021-08-13T02:35:24.700Z</time>
      </trkpt>
      <trkpt lat="41.59565" lon="45.3213">
        <ele>776.938677</ele>
        <time>2021-08-13T02:36:41.375Z</time>
      </trkpt>
      <trkpt lat="41.5925" lon="45.31379">
        <ele>796.22394</ele>
        <time>2021-08-13T02:41:43.630Z</time>
      </trkpt>
      <trkpt lat="41.59117" lon="45.3106">
        <ele>818.963021</ele>
        <time>2021-08-13T02:45:24.035Z</time>
      </trkpt>
      <trkpt lat="41.59103" lon="45.31028">
        <ele>821.559117</ele>
        <time>2021-08-13T02:45:48.509Z</time>
      </trkpt>
      <trkpt lat="41.59092" lon="45.30978">
        <ele>825.20992</ele>
        <time>2021-08-13T02:46:24.761Z</time>
      </trkpt>
      <trkpt lat="41.59092" lon="45.30948">
        <ele>827.304265</ele>
        <time>2021-08-13T02:46:46.855Z</time>
      </trkpt>
      <trkpt lat="41.59105" lon="45.3085">
        <ele>834.098924</ele>
        <time>2021-08-13T02:47:53.961Z</time>
      </trkpt>
      <trkpt lat="41.591" lon="45.30838">
        <ele>835.064872</ele>
        <time>2021-08-13T02:48:01.717Z</time>
      </trkpt>
      <trkpt lat="41.5909" lon="45.30833">
        <ele>836.03679</ele>
        <time>2021-08-13T02:48:11.826Z</time>
      </trkpt>
      <trkpt lat="41.59026" lon="45.30869">
        <ele>840.781271</ele>
        <time>2021-08-13T02:48:57.662Z</time>
      </trkpt>
      <trkpt lat="41.59003" lon="45.30864">
        <ele>841.327118</ele>
        <time>2021-08-13T02:49:10.068Z</time>
      </trkpt>
      <trkpt lat="41.5898" lon="45.30845">
        <ele>841.949329</ele>
        <time>2021-08-13T02:49:26.009Z</time>
      </trkpt>
      <trkpt lat="41.58951" lon="45.30842">
        <ele>842.62933</ele>
        <time>2021-08-13T02:49:40.723Z</time>
      </trkpt>
      <trkpt lat="41.58742" lon="45.30844">
        <ele>842.403176</ele>
        <time>2021-08-13T02:50:35.047Z</time>
      </trkpt>
      <trkpt lat="41.58706" lon="45.3086">
        <ele>841.822107</ele>
        <time>2021-08-13T02:50:44.445Z</time>
      </trkpt>
      <trkpt lat="41.58624" lon="45.30938">
        <ele>840.425813</ele>
        <time>2021-08-13T02:51:09.843Z</time>
      </trkpt>
      <trkpt lat="41.58548" lon="45.31009">
        <ele>839.177743</ele>
        <time>2021-08-13T02:51:34.708Z</time>
      </trkpt>
      <trkpt lat="41.58266" lon="45.31274">
        <ele>836.295122</ele>
        <time>2021-08-13T02:53:10.315Z</time>
      </trkpt>
      <trkpt lat="41.57873" lon="45.31655">
        <ele>829.127186</ele>
        <time>2021-08-13T02:55:14.698Z</time>
      </trkpt>
      <trkpt lat="41.57807" lon="45.31692">
        <ele>828.085409</ele>
        <time>2021-08-13T02:55:33.132Z</time>
      </trkpt>
      <trkpt lat="41.57733" lon="45.31721">
        <ele>827.364348</ele>
        <time>2021-08-13T02:55:53.458Z</time>
      </trkpt>
      <trkpt lat="41.57622" lon="45.31789">
        <ele>826.583014</ele>
        <time>2021-08-13T02:56:27.606Z</time>
      </trkpt>
      <trkpt lat="41.5755" lon="45.31861">
        <ele>826.984547</ele>
        <time>2021-08-13T02:56:56.924Z</time>
      </trkpt>
      <trkpt lat="41.57498" lon="45.31931">
        <ele>827.481024</ele>
        <time>2021-08-13T02:57:23.827Z</time>
      </trkpt>
      <trkpt lat="41.56946" lon="45.32621">
        <ele>846.195595</ele>
        <time>2021-08-13T03:02:56.909Z</time>
      </trkpt>
      <trkpt lat="41.56937" lon="45.32632">
        <ele>846.912071</ele>
        <time>2021-08-13T03:03:03.728Z</time>
      </trkpt>
      <trkpt lat="41.56512" lon="45.33163">
        <ele>879.578441</ele>
        <time>2021-08-13T03:09:16.733Z</time>
      </trkpt>
      <trkpt lat="41.56399" lon="45.33323">
        <ele>889.638458</ele>
        <time>2021-08-13T03:11:08.310Z</time>
      </trkpt>
      <trkpt lat="41.56292" lon="45.33493">
        <ele>898.266259</ele>
        <time>2021-08-13T03:12:52.974Z</time>
      </trkpt>
      <trkpt lat="41.55991" lon="45.34013">
        <ele>916.951277</ele>
        <time>2021-08-13T03:17:05.860Z</time>
      </trkpt>
      <trkpt lat="41.55648" lon="45.34556">
        <ele>932.630831</ele>
        <time>2021-08-13T03:21:16.514Z</time>
      </trkpt>
      <trkpt lat="41.55388" lon="45.34978">
        <ele>947.071788</ele>
        <time>2021-08-13T03:24:47.895Z</time>
      </trkpt>
      <trkpt lat="41.55312" lon="45.35112">
        <ele>951.000282</ele>
        <time>2021-08-13T03:25:48.443Z</time>
      </trkpt>
      <trkpt lat="41.55095" lon="45.3553">
        <ele>960.242892</ele>
        <time>2021-08-13T03:28:35.543Z</time>
      </trkpt>
      <trkpt lat="41.54913" lon="45.35908">
        <ele>971.314818</ele>
        <time>2021-08-13T03:31:27.390Z</time>
      </trkpt>
      <trkpt lat="41.54782" lon="45.36172">
        <ele>974.270663</ele>
        <time>2021-08-13T03:33:03.895Z</time>
      </trkpt>
      <trkpt lat="41.54478" lon="45.36654">
        <ele>970.541695</ele>
        <time>2021-08-13T03:35:10.314Z</time>
      </trkpt>
      <trkpt lat="41.54371" lon="45.368">
        <ele>967.912162</ele>
        <time>2021-08-13T03:35:48.701Z</time>
      </trkpt>
      <trkpt lat="41.54266" lon="45.3693">
        <ele>965.153667</ele>
        <time>2021-08-13T03:36:24.099Z</time>
      </trkpt>
      <trkpt lat="41.54169" lon="45.3704">
        <ele>962.264367</ele>
        <time>2021-08-13T03:36:55.509Z</time>
      </trkpt>
      <trkpt lat="41.5409" lon="45.37092">
        <ele>960.013746</ele>
        <time>2021-08-13T03:37:16.362Z</time>
      </trkpt>
      <trkpt lat="41.53984" lon="45.3712">
        <ele>956.258736</ele>
        <time>2021-08-13T03:37:40.723Z</time>
      </trkpt>
      <trkpt lat="41.53906" lon="45.37149">
        <ele>953.202566</ele>
        <time>2021-08-13T03:37:58.185Z</time>
      </trkpt>
      <trkpt lat="41.53835" lon="45.37195">
        <ele>950.380292</ele>
        <time>2021-08-13T03:38:15.445Z</time>
      </trkpt>
      <trkpt lat="41.53242" lon="45.37731">
        <ele>927.62921</ele>
        <time>2021-08-13T03:40:57.359Z</time>
      </trkpt>
      <trkpt lat="41.52786" lon="45.38152">
        <ele>927.76196</ele>
        <time>2021-08-13T03:44:01.044Z</time>
      </trkpt>
      <trkpt lat="41.52664" lon="45.38237">
        <ele>928.122825</ele>
        <time>2021-08-13T03:44:47.885Z</time>
      </trkpt>
      <trkpt lat="41.52541" lon="45.38343">
        <ele>927.521746</ele>
        <time>2021-08-13T03:45:30.640Z</time>
      </trkpt>
      <trkpt lat="41.5244" lon="45.38345">
        <ele>925.119189</ele>
        <time>2021-08-13T03:45:55.765Z</time>
      </trkpt>
      <trkpt lat="41.52415" lon="45.38361">
        <ele>924.433008</ele>
        <time>2021-08-13T03:46:02.246Z</time>
      </trkpt>
      <trkpt lat="41.52389" lon="45.38401">
        <ele>923.437495</ele>
        <time>2021-08-13T03:46:11.475Z</time>
      </trkpt>
      <trkpt lat="41.52258" lon="45.3864">
        <ele>912.28103</ele>
        <time>2021-08-13T03:46:58.607Z</time>
      </trkpt>
      <trkpt lat="41.52231" lon="45.3869">
        <ele>908.853781</ele>
        <time>2021-08-13T03:47:07.682Z</time>
      </trkpt>
      <trkpt lat="41.52007" lon="45.38915">
        <ele>886.499127</ele>
        <time>2021-08-13T03:48:02.371Z</time>
      </trkpt>
      <trkpt lat="41.51957" lon="45.38974">
        <ele>881.161607</ele>
        <time>2021-08-13T03:48:15.628Z</time>
      </trkpt>
      <trkpt lat="41.51492" lon="45.396">
        <ele>829.499044</ele>
        <time>2021-08-13T03:50:25.867Z</time>
      </trkpt>
      <trkpt lat="41.51425" lon="45.39678">
        <ele>822.991145</ele>
        <time>2021-08-13T03:50:43.323Z</time>
      </trkpt>
      <trkpt lat="41.51416" lon="45.39687">
        <ele>822.147053</ele>
        <time>2021-08-13T03:50:45.606Z</time>
      </trkpt>
      <trkpt lat="41.51402" lon="45.39688">
        <ele>821.122243</ele>
        <time>2021-08-13T03:50:48.348Z</time>
      </trkpt>
      <trkpt lat="41.5139" lon="45.39682">
        <ele>820.162196</ele>
        <time>2021-08-13T03:50:50.937Z</time>
      </trkpt>
      <trkpt lat="41.51306" lon="45.39538">
        <ele>812.492484</ele>
        <time>2021-08-13T03:51:18.585Z</time>
      </trkpt>
      <trkpt lat="41.50749" lon="45.38574">
        <ele>774.852524</ele>
        <time>2021-08-13T03:54:37.322Z</time>
      </trkpt>
      <trkpt lat="41.50747" lon="45.38545">
        <ele>774.567795</ele>
        <time>2021-08-13T03:54:44.669Z</time>
      </trkpt>
      <trkpt lat="41.5073" lon="45.38473">
        <ele>773.816326</ele>
        <time>2021-08-13T03:55:07.308Z</time>
      </trkpt>
      <trkpt lat="41.50665" lon="45.38182">
        <ele>781.153772</ele>
        <time>2021-08-13T03:57:12.031Z</time>
      </trkpt>
      <trkpt lat="41.50665" lon="45.38153">
        <ele>781.594777</ele>
        <time>2021-08-13T03:57:23.098Z</time>
      </trkpt>
      <trkpt lat="41.50662" lon="45.38154">
        <ele>781.656173</ele>
        <time>2021-08-13T03:57:24.436Z</time>
      </trkpt>
      <trkpt lat="41.50647" lon="45.38159">
        <ele>781.9628</ele>
        <time>2021-08-13T03:57:30.672Z</time>
      </trkpt>
      <trkpt lat="41.50604" lon="45.38166">
        <ele>782.873472</ele>
        <time>2021-08-13T03:57:49.579Z</time>
      </trkpt>
      <trkpt lat="41.50595" lon="45.38155">
        <ele>783.121282</ele>
        <time>2021-08-13T03:57:55.024Z</time>
      </trkpt>
      <trkpt lat="41.50554" lon="45.38077">
        <ele>783.656564</ele>
        <time>2021-08-13T03:58:19.863Z</time>
      </trkpt>
      <trkpt lat="41.50454" lon="45.37917">
        <ele>781.389404</ele>
        <time>2021-08-13T03:59:00.657Z</time>
      </trkpt>
      <trkpt lat="41.50448" lon="45.37912">
        <ele>781.186751</ele>
        <time>2021-08-13T03:59:02.368Z</time>
      </trkpt>
      <trkpt lat="41.50355" lon="45.37835">
        <ele>778.227185</ele>
        <time>2021-08-13T03:59:29.252Z</time>
      </trkpt>
      <trkpt lat="41.50292" lon="45.37784">
        <ele>776.380241</ele>
        <time>2021-08-13T03:59:47.055Z</time>
      </trkpt>
      <trkpt lat="41.50228" lon="45.37738">
        <ele>775.067984</ele>
        <time>2021-08-13T04:00:05.021Z</time>
      </trkpt>
      <trkpt lat="41.50158" lon="45.3767">
        <ele>773.507126</ele>
        <time>2021-08-13T04:00:28.348Z</time>
      </trkpt>
      <trkpt lat="41.50154" lon="45.37666">
        <ele>773.40255</ele>
        <time>2021-08-13T04:00:29.816Z</time>
      </trkpt>
      <trkpt lat="41.50148" lon="45.37664">
        <ele>773.394602</ele>
        <time>2021-08-13T04:00:31.545Z</time>
      </trkpt>
      <trkpt lat="41.50144" lon="45.37652">
        <ele>773.475438</ele>
        <time>2021-08-13T04:00:34.356Z</time>
      </trkpt>
      <trkpt lat="41.50136" lon="45.37637">
        <ele>773.597567</ele>
        <time>2021-08-13T04:00:38.637Z</time>
      </trkpt>
      <trkpt lat="41.49981" lon="45.37403">
        <ele>776.995111</ele>
        <time>2021-08-13T04:02:08.961Z</time>
      </trkpt>
      <trkpt lat="41.49882" lon="45.37255">
        <ele>781.596819</ele>
        <time>2021-08-13T04:03:25.185Z</time>
      </trkpt>
      <trkpt lat="41.49764" lon="45.37069">
        <ele>789.019554</ele>
        <time>2021-08-13T04:05:06.545Z</time>
      </trkpt>
      <trkpt lat="41.4964" lon="45.36872">
        <ele>796.190959</ele>
        <time>2021-08-13T04:06:48.659Z</time>
      </trkpt>
      <trkpt lat="41.4905" lon="45.36029">
        <ele>823.635317</ele>
        <time>2021-08-13T04:13:45.510Z</time>
      </trkpt>
      <trkpt lat="41.48933" lon="45.35869">
        <ele>830.987865</ele>
        <time>2021-08-13T04:15:21.563Z</time>
      </trkpt>
      <trkpt lat="41.4881" lon="45.35697">
        <ele>839.41547</ele>
        <time>2021-08-13T04:17:07.221Z</time>
      </trkpt>
      <trkpt lat="41.48693" lon="45.3554">
        <ele>845.693303</ele>
        <time>2021-08-13T04:18:33.613Z</time>
      </trkpt>
      <trkpt lat="41.48686" lon="45.35527">
        <ele>845.884016</ele>
        <time>2021-08-13T04:18:38.955Z</time>
      </trkpt>
      <trkpt lat="41.4868" lon="45.35477">
        <ele>846.514376</ele>
        <time>2021-08-13T04:18:56.301Z</time>
      </trkpt>
      <trkpt lat="41.48695" lon="45.354">
        <ele>847.484322</ele>
        <time>2021-08-13T04:19:21.845Z</time>
      </trkpt>
      <trkpt lat="41.48847" lon="45.34895">
        <ele>847.248812</ele>
        <time>2021-08-13T04:21:30.532Z</time>
      </trkpt>
      <trkpt lat="41.48852" lon="45.34861">
        <ele>846.733943</ele>
        <time>2021-08-13T04:21:36.220Z</time>
      </trkpt>
      <trkpt lat="41.4885" lon="45.34839">
        <ele>845.775247</ele>
        <time>2021-08-13T04:21:39.493Z</time>
      </trkpt>
      <trkpt lat="41.48832" lon="45.34736">
        <ele>841.031866</ele>
        <time>2021-08-13T04:21:55.969Z</time>
      </trkpt>
      <trkpt lat="41.48836" lon="45.347">
        <ele>839.422654</ele>
        <time>2021-08-13T04:22:01.350Z</time>
      </trkpt>
      <trkpt lat="41.48847" lon="45.34658">
        <ele>837.421229</ele>
        <time>2021-08-13T04:22:07.967Z</time>
      </trkpt>
      <trkpt lat="41.48894" lon="45.34489">
        <ele>828.84897</ele>
        <time>2021-08-13T04:22:35.350Z</time>
      </trkpt>
      <trkpt lat="41.48901" lon="45.34465">
        <ele>827.666413</ele>
        <time>2021-08-13T04:22:39.082Z</time>
      </trkpt>
      <trkpt lat="41.48904" lon="45.34413">
        <ele>825.164941</ele>
        <time>2021-08-13T04:22:47.268Z</time>
      </trkpt>
      <trkpt lat="41.48895" lon="45.34316">
        <ele>822.414446</ele>
        <time>2021-08-13T04:23:02.885Z</time>
      </trkpt>
      <trkpt lat="41.48889" lon="45.34286">
        <ele>821.56751</ele>
        <time>2021-08-13T04:23:08.104Z</time>
      </trkpt>
      <trkpt lat="41.48847" lon="45.34166">
        <ele>818.304965</ele>
        <time>2021-08-13T04:23:31.749Z</time>
      </trkpt>
      <trkpt lat="41.4883" lon="45.3409">
        <ele>817.603665</ele>
        <time>2021-08-13T04:23:47.049Z</time>
      </trkpt>
      <trkpt lat="41.48807" lon="45.33944">
        <ele>816.268556</ele>
        <time>2021-08-13T04:24:18.252Z</time>
      </trkpt>
      <trkpt lat="41.48809" lon="45.33894">
        <ele>815.748347</ele>
        <time>2021-08-13T04:24:28.939Z</time>
      </trkpt>
      <trkpt lat="41.48805" lon="45.33839">
        <ele>815.169464</ele>
        <time>2021-08-13T04:24:40.693Z</time>
      </trkpt>
      <trkpt lat="41.48786" lon="45.33812">
        <ele>814.793153</ele>
        <time>2021-08-13T04:24:47.901Z</time>
      </trkpt>
      <trkpt lat="41.48774" lon="45.33806">
        <ele>814.609067</ele>
        <time>2021-08-13T04:24:51.404Z</time>
      </trkpt>
      <trkpt lat="41.48743" lon="45.33803">
        <ele>814.175456</ele>
        <time>2021-08-13T04:24:59.299Z</time>
      </trkpt>
      <trkpt lat="41.48705" lon="45.33786">
        <ele>813.09931</ele>
        <time>2021-08-13T04:25:08.876Z</time>
      </trkpt>
      <trkpt lat="41.48684" lon="45.33745">
        <ele>811.062218</ele>
        <time>2021-08-13T04:25:17.393Z</time>
      </trkpt>
      <trkpt lat="41.48632" lon="45.33605">
        <ele>804.671215</ele>
        <time>2021-08-13T04:25:41.593Z</time>
      </trkpt>
      <trkpt lat="41.48566" lon="45.33373">
        <ele>788.586091</ele>
        <time>2021-08-13T04:26:17.378Z</time>
      </trkpt>
      <trkpt lat="41.48486" lon="45.33141">
        <ele>772.339499</ele>
        <time>2021-08-13T04:26:54.656Z</time>
      </trkpt>
      <trkpt lat="41.48489" lon="45.33086">
        <ele>768.963432</ele>
        <time>2021-08-13T04:27:02.933Z</time>
      </trkpt>
      <trkpt lat="41.48503" lon="45.33014">
        <ele>764.466098</ele>
        <time>2021-08-13T04:27:13.923Z</time>
      </trkpt>
      <trkpt lat="41.4851" lon="45.32843">
        <ele>754.341434</ele>
        <time>2021-08-13T04:27:39.119Z</time>
      </trkpt>
      <trkpt lat="41.48522" lon="45.32703">
        <ele>746.28257</ele>
        <time>2021-08-13T04:27:59.884Z</time>
      </trkpt>
      <trkpt lat="41.48522" lon="45.32639">
        <ele>743.190617</ele>
        <time>2021-08-13T04:28:09.747Z</time>
      </trkpt>
      <trkpt lat="41.4852" lon="45.32619">
        <ele>742.378293</ele>
        <time>2021-08-13T04:28:12.764Z</time>
      </trkpt>
      <trkpt lat="41.48519" lon="45.32606">
        <ele>741.812367</ele>
        <time>2021-08-13T04:28:15.112Z</time>
      </trkpt>
      <trkpt lat="41.48465" lon="45.32405">
        <ele>733.035217</ele>
        <time>2021-08-13T04:28:48.852Z</time>
      </trkpt>
      <trkpt lat="41.48456" lon="45.32387">
        <ele>732.120627</ele>
        <time>2021-08-13T04:28:52.508Z</time>
      </trkpt>
      <trkpt lat="41.48454" lon="45.32386">
        <ele>731.955036</ele>
        <time>2021-08-13T04:28:53.214Z</time>
      </trkpt>
      <trkpt lat="41.48447" lon="45.3238">
        <ele>731.504531</ele>
        <time>2021-08-13T04:28:54.690Z</time>
      </trkpt>
      <trkpt lat="41.48412" lon="45.32378">
        <ele>729.515976</ele>
        <time>2021-08-13T04:29:01.909Z</time>
      </trkpt>
      <trkpt lat="41.48143" lon="45.32401">
        <ele>714.037694</ele>
        <time>2021-08-13T04:29:56.840Z</time>
      </trkpt>
      <trkpt lat="41.48091" lon="45.32396">
        <ele>714.016265</ele>
        <time>2021-08-13T04:30:09.543Z</time>
      </trkpt>
      <trkpt lat="41.48072" lon="45.32388">
        <ele>714.007914</ele>
        <time>2021-08-13T04:30:15.058Z</time>
      </trkpt>
      <trkpt lat="41.48008" lon="45.32312">
        <ele>713.97271</ele>
        <time>2021-08-13T04:30:47.827Z</time>
      </trkpt>
      <trkpt lat="41.47992" lon="45.32287">
        <ele>714.123306</ele>
        <time>2021-08-13T04:30:59.855Z</time>
      </trkpt>
      <trkpt lat="41.47978" lon="45.3223">
        <ele>716.275874</ele>
        <time>2021-08-13T04:31:24.125Z</time>
      </trkpt>
      <trkpt lat="41.47958" lon="45.32088">
        <ele>721.451476</ele>
        <time>2021-08-13T04:32:29.808Z</time>
      </trkpt>
      <trkpt lat="41.47945" lon="45.32053">
        <ele>722.952767</ele>
        <time>2021-08-13T04:32:48.616Z</time>
      </trkpt>
      <trkpt lat="41.47914" lon="45.32034">
        <ele>725.118969</ele>
        <time>2021-08-13T04:33:10.677Z</time>
      </trkpt>
      <trkpt lat="41.47819" lon="45.32011">
        <ele>731.204214</ele>
        <time>2021-08-13T04:34:15.189Z</time>
      </trkpt>
      <trkpt lat="41.4778" lon="45.31986">
        <ele>733.982753</ele>
        <time>2021-08-13T04:34:45.312Z</time>
      </trkpt>
      <trkpt lat="41.4775" lon="45.31947">
        <ele>736.727563</ele>
        <time>2021-08-13T04:35:13.530Z</time>
      </trkpt>
      <trkpt lat="41.47739" lon="45.31923">
        <ele>738.135733</ele>
        <time>2021-08-13T04:35:27.874Z</time>
      </trkpt>
      <trkpt lat="41.47726" lon="45.31891">
        <ele>739.962625</ele>
        <time>2021-08-13T04:35:48.870Z</time>
      </trkpt>
      <trkpt lat="41.4771" lon="45.31822">
        <ele>743.549937</ele>
        <time>2021-08-13T04:36:25.505Z</time>
      </trkpt>
      <trkpt lat="41.4769" lon="45.31765">
        <ele>746.444539</ele>
        <time>2021-08-13T04:36:58.181Z</time>
      </trkpt>
      <trkpt lat="41.47681" lon="45.3175">
        <ele>747.082228</ele>
        <time>2021-08-13T04:37:05.775Z</time>
      </trkpt>
      <trkpt lat="41.47672" lon="45.31745">
        <ele>747.520945</ele>
        <time>2021-08-13T04:37:10.889Z</time>
      </trkpt>
      <trkpt lat="41.47665" lon="45.31743">
        <ele>747.837208</ele>
        <time>2021-08-13T04:37:17.305Z</time>
      </trkpt>
      <trkpt lat="41.4766" lon="45.31749">
        <ele>748.177815</ele>
        <time>2021-08-13T04:37:21.257Z</time>
      </trkpt>
      <trkpt lat="41.47668" lon="45.31825">
        <ele>750.79774</ele>
        <time>2021-08-13T04:37:52.437Z</time>
      </trkpt>
      <trkpt lat="41.47663" lon="45.31843">
        <ele>751.455605</ele>
        <time>2021-08-13T04:38:02.065Z</time>
      </trkpt>
      <trkpt lat="41.47622" lon="45.31918">
        <ele>754.343469</ele>
        <time>2021-08-13T04:38:39.005Z</time>
      </trkpt>
      <trkpt lat="41.47503" lon="45.32018">
        <ele>757.067395</ele>
        <time>2021-08-13T04:39:35.690Z</time>
      </trkpt>
      <trkpt lat="41.47487" lon="45.32026">
        <ele>757.402561</ele>
        <time>2021-08-13T04:39:42.370Z</time>
      </trkpt>
      <trkpt lat="41.47445" lon="45.32019">
        <ele>757.957281</ele>
        <time>2021-08-13T04:39:58.520Z</time>
      </trkpt>
      <trkpt lat="41.47416" lon="45.32027">
        <ele>758.27991</ele>
        <time>2021-08-13T04:40:09.337Z</time>
      </trkpt>
      <trkpt lat="41.47379" lon="45.32055">
        <ele>758.756479</ele>
        <time>2021-08-13T04:40:25.045Z</time>
      </trkpt>
      <trkpt lat="41.47333" lon="45.3211">
        <ele>759.439857</ele>
        <time>2021-08-13T04:40:47.326Z</time>
      </trkpt>
      <trkpt lat="41.47318" lon="45.32116">
        <ele>759.621952</ele>
        <time>2021-08-13T04:40:53.411Z</time>
      </trkpt>
      <trkpt lat="41.473" lon="45.32111">
        <ele>759.846371</ele>
        <time>2021-08-13T04:41:00.087Z</time>
      </trkpt>
      <trkpt lat="41.47276" lon="45.32071">
        <ele>760.329149</ele>
        <time>2021-08-13T04:41:15.354Z</time>
      </trkpt>
      <trkpt lat="41.47255" lon="45.31916">
        <ele>761.806445</ele>
        <time>2021-08-13T04:42:02.107Z</time>
      </trkpt>
      <trkpt lat="41.47244" lon="45.31888">
        <ele>761.787507</ele>
        <time>2021-08-13T04:42:09.918Z</time>
      </trkpt>
      <trkpt lat="41.47211" lon="45.31841">
        <ele>761.637873</ele>
        <time>2021-08-13T04:42:25.432Z</time>
      </trkpt>
      <trkpt lat="41.47201" lon="45.31805">
        <ele>761.55071</ele>
        <time>2021-08-13T04:42:33.827Z</time>
      </trkpt>
      <trkpt lat="41.47203" lon="45.31788">
        <ele>761.510002</ele>
        <time>2021-08-13T04:42:37.613Z</time>
      </trkpt>
      <trkpt lat="41.47165" lon="45.31758">
        <ele>761.374655</ele>
        <time>2021-08-13T04:42:58.521Z</time>
      </trkpt>
      <trkpt lat="41.47135" lon="45.31743">
        <ele>761.224918</ele>
        <time>2021-08-13T04:43:13.201Z</time>
      </trkpt>
      <trkpt lat="41.4712" lon="45.31744">
        <ele>761.031602</ele>
        <time>2021-08-13T04:43:20.301Z</time>
      </trkpt>
      <trkpt lat="41.47103" lon="45.31749">
        <ele>760.8135</ele>
        <time>2021-08-13T04:43:28.351Z</time>
      </trkpt>
      <trkpt lat="41.4705" lon="45.31789">
        <ele>760.060062</ele>
        <time>2021-08-13T04:43:55.509Z</time>
      </trkpt>
      <trkpt lat="41.47023" lon="45.31817">
        <ele>759.632316</ele>
        <time>2021-08-13T04:44:11.435Z</time>
      </trkpt>
      <trkpt lat="41.46983" lon="45.31881">
        <ele>758.922658</ele>
        <time>2021-08-13T04:44:28.700Z</time>
      </trkpt>
      <trkpt lat="41.4692" lon="45.31993">
        <ele>758.053257</ele>
        <time>2021-08-13T04:44:58.006Z</time>
      </trkpt>
      <trkpt lat="41.46849" lon="45.32336">
        <ele>756.200164</ele>
        <time>2021-08-13T04:46:10.968Z</time>
      </trkpt>
      <trkpt lat="41.46706" lon="45.32954">
        <ele>758.849496</ele>
        <time>2021-08-13T04:48:55.385Z</time>
      </trkpt>
      <trkpt lat="41.46698" lon="45.33024">
        <ele>759.833002</ele>
        <time>2021-08-13T04:49:20.224Z</time>
      </trkpt>
      <trkpt lat="41.4667" lon="45.33102">
        <ele>761.591055</ele>
        <time>2021-08-13T04:49:52.137Z</time>
      </trkpt>
      <trkpt lat="41.46607" lon="45.33332">
        <ele>765.163287</ele>
        <time>2021-08-13T04:51:17.358Z</time>
      </trkpt>
      <trkpt lat="41.46542" lon="45.33461">
        <ele>765.570743</ele>
        <time>2021-08-13T04:51:51.964Z</time>
      </trkpt>
      <trkpt lat="41.46503" lon="45.33561">
        <ele>763.902215</ele>
        <time>2021-08-13T04:52:12.554Z</time>
      </trkpt>
      <trkpt lat="41.46474" lon="45.33619">
        <ele>762.86336</ele>
        <time>2021-08-13T04:52:24.956Z</time>
      </trkpt>
      <trkpt lat="41.46298" lon="45.33874">
        <ele>754.483264</ele>
        <time>2021-08-13T04:53:24.694Z</time>
      </trkpt>
      <trkpt lat="41.46275" lon="45.33916">
        <ele>752.940262</ele>
        <time>2021-08-13T04:53:33.268Z</time>
      </trkpt>
      <trkpt lat="41.46162" lon="45.34305">
        <ele>738.935812</ele>
        <time>2021-08-13T04:54:40.263Z</time>
      </trkpt>
      <trkpt lat="41.4614" lon="45.34409">
        <ele>735.436352</ele>
        <time>2021-08-13T04:54:57.766Z</time>
      </trkpt>
      <trkpt lat="41.46067" lon="45.34696">
        <ele>725.945277</ele>
        <time>2021-08-13T04:55:47.797Z</time>
      </trkpt>
      <trkpt lat="41.45976" lon="45.35104">
        <ele>710.953658</ele>
        <time>2021-08-13T04:56:56.262Z</time>
      </trkpt>
      <trkpt lat="41.45974" lon="45.35129">
        <ele>710.029507</ele>
        <time>2021-08-13T04:57:00.145Z</time>
      </trkpt>
      <trkpt lat="41.45976" lon="45.3528">
        <ele>704.655142</ele>
        <time>2021-08-13T04:57:23.865Z</time>
      </trkpt>
      <trkpt lat="41.45973" lon="45.35335">
        <ele>702.689358</ele>
        <time>2021-08-13T04:57:32.757Z</time>
      </trkpt>
      <trkpt lat="41.45955" lon="45.35427">
        <ele>700.072657</ele>
        <time>2021-08-13T04:57:48.669Z</time>
      </trkpt>
      <trkpt lat="41.4588" lon="45.35648">
        <ele>695.794559</ele>
        <time>2021-08-13T04:58:33.192Z</time>
      </trkpt>
      <trkpt lat="41.45881" lon="45.3572">
        <ele>694.797747</ele>
        <time>2021-08-13T04:58:46.745Z</time>
      </trkpt>
      <trkpt lat="41.45872" lon="45.35769">
        <ele>694.114849</ele>
        <time>2021-08-13T04:58:55.972Z</time>
      </trkpt>
      <trkpt lat="41.45858" lon="45.35818">
        <ele>693.397799</ele>
        <time>2021-08-13T04:59:05.831Z</time>
      </trkpt>
      <trkpt lat="41.45806" lon="45.35949">
        <ele>692.263509</ele>
        <time>2021-08-13T04:59:35.340Z</time>
      </trkpt>
      <trkpt lat="41.45768" lon="45.36014">
        <ele>691.709101</ele>
        <time>2021-08-13T04:59:53.297Z</time>
      </trkpt>
      <trkpt lat="41.45725" lon="45.36129">
        <ele>690.703805</ele>
        <time>2021-08-13T05:00:21.275Z</time>
      </trkpt>
      <trkpt lat="41.45716" lon="45.36161">
        <ele>690.42532</ele>
        <time>2021-08-13T05:00:28.340Z</time>
      </trkpt>
      <trkpt lat="41.45699" lon="45.36289">
        <ele>689.259304</ele>
        <time>2021-08-13T05:00:52.946Z</time>
      </trkpt>
      <trkpt lat="41.45655" lon="45.36429">
        <ele>687.383885</ele>
        <time>2021-08-13T05:01:20.831Z</time>
      </trkpt>
      <trkpt lat="41.45588" lon="45.36569">
        <ele>686.714402</ele>
        <time>2021-08-13T05:01:55.408Z</time>
      </trkpt>
      <trkpt lat="41.45482" lon="45.3666">
        <ele>686.802568</ele>
        <time>2021-08-13T05:02:41.467Z</time>
      </trkpt>
      <trkpt lat="41.45462" lon="45.3676">
        <ele>686.51868</ele>
        <time>2021-08-13T05:03:07.801Z</time>
      </trkpt>
      <trkpt lat="41.4542" lon="45.36854">
        <ele>686.152815</ele>
        <time>2021-08-13T05:03:29.911Z</time>
      </trkpt>
      <trkpt lat="41.45333" lon="45.37025">
        <ele>681.163646</ele>
        <time>2021-08-13T05:04:05.356Z</time>
      </trkpt>
      <trkpt lat="41.45291" lon="45.37127">
        <ele>678.136957</ele>
        <time>2021-08-13T05:04:23.958Z</time>
      </trkpt>
      <trkpt lat="41.45273" lon="45.37154">
        <ele>677.162872</ele>
        <time>2021-08-13T05:04:29.944Z</time>
      </trkpt>
      <trkpt lat="41.45229" lon="45.37209">
        <ele>674.975858</ele>
        <time>2021-08-13T05:04:43.588Z</time>
      </trkpt>
      <trkpt lat="41.45193" lon="45.37256">
        <ele>673.953707</ele>
        <time>2021-08-13T05:04:55.389Z</time>
      </trkpt>
      <trkpt lat="41.45163" lon="45.37286">
        <ele>673.900378</ele>
        <time>2021-08-13T05:05:04.380Z</time>
      </trkpt>
      <trkpt lat="41.45071" lon="45.37407">
        <ele>674.083459</ele>
        <time>2021-08-13T05:05:50.862Z</time>
      </trkpt>
      <trkpt lat="41.45035" lon="45.37447">
        <ele>675.805321</ele>
        <time>2021-08-13T05:06:10.935Z</time>
      </trkpt>
      <trkpt lat="41.45028" lon="45.37455">
        <ele>676.161651</ele>
        <time>2021-08-13T05:06:21.084Z</time>
      </trkpt>
      <trkpt lat="41.44986" lon="45.37482">
        <ele>677.857439</ele>
        <time>2021-08-13T05:06:43.931Z</time>
      </trkpt>
      <trkpt lat="41.44976" lon="45.37496">
        <ele>678.389173</ele>
        <time>2021-08-13T05:06:48.705Z</time>
      </trkpt>
      <trkpt lat="41.44969" lon="45.37509">
        <ele>678.829247</ele>
        <time>2021-08-13T05:07:00.994Z</time>
      </trkpt>
      <trkpt lat="41.44935" lon="45.37575">
        <ele>680.97493</ele>
        <time>2021-08-13T05:07:44.108Z</time>
      </trkpt>
      <trkpt lat="41.44928" lon="45.37581">
        <ele>681.243495</ele>
        <time>2021-08-13T05:07:56.188Z</time>
      </trkpt>
      <trkpt lat="41.4487" lon="45.37605">
        <ele>683.183955</ele>
        <time>2021-08-13T05:08:38.615Z</time>
      </trkpt>
      <trkpt lat="41.44829" lon="45.37611">
        <ele>684.53037</ele>
        <time>2021-08-13T05:09:07.957Z</time>
      </trkpt>
      <trkpt lat="41.44819" lon="45.37613">
        <ele>684.838333</ele>
        <time>2021-08-13T05:09:17.986Z</time>
      </trkpt>
      <trkpt lat="41.448" lon="45.37639">
        <ele>685.726847</ele>
        <time>2021-08-13T05:09:31.279Z</time>
      </trkpt>
      <trkpt lat="41.44796" lon="45.37643">
        <ele>685.899481</ele>
        <time>2021-08-13T05:09:36.861Z</time>
      </trkpt>
      <trkpt lat="41.44785" lon="45.37659">
        <ele>686.028024</ele>
        <time>2021-08-13T05:09:44.147Z</time>
      </trkpt>
      <trkpt lat="41.4477" lon="45.37667">
        <ele>685.741305</ele>
        <time>2021-08-13T05:09:53.698Z</time>
      </trkpt>
      <trkpt lat="41.44763" lon="45.37663">
        <ele>685.615323</ele>
        <time>2021-08-13T05:10:00.286Z</time>
      </trkpt>
      <trkpt lat="41.4477" lon="45.37667">
        <ele>685.489341</ele>
        <time>2021-08-13T05:10:03.044Z</time>
      </trkpt>
      <trkpt lat="41.44785" lon="45.37659">
        <ele>685.202622</ele>
        <time>2021-08-13T05:10:11.115Z</time>
      </trkpt>
      <trkpt lat="41.44796" lon="45.37643">
        <ele>684.940093</ele>
        <time>2021-08-13T05:10:20.121Z</time>
      </trkpt>
      <trkpt lat="41.448" lon="45.37639">
        <ele>684.849249</ele>
        <time>2021-08-13T05:10:21.980Z</time>
      </trkpt>
      <trkpt lat="41.44819" lon="45.37613">
        <ele>684.381689</ele>
        <time>2021-08-13T05:10:37.460Z</time>
      </trkpt>
      <trkpt lat="41.44829" lon="45.37611">
        <ele>684.219631</ele>
        <time>2021-08-13T05:10:40.794Z</time>
      </trkpt>
      <trkpt lat="41.4487" lon="45.37605">
        <ele>683.511112</ele>
        <time>2021-08-13T05:10:57.926Z</time>
      </trkpt>
      <trkpt lat="41.44928" lon="45.37581">
        <ele>681.557053</ele>
        <time>2021-08-13T05:11:22.647Z</time>
      </trkpt>
      <trkpt lat="41.44935" lon="45.37575">
        <ele>681.201578</ele>
        <time>2021-08-13T05:11:25.307Z</time>
      </trkpt>
      <trkpt lat="41.44969" lon="45.37509">
        <ele>678.616191</ele>
        <time>2021-08-13T05:11:50.156Z</time>
      </trkpt>
      <trkpt lat="41.44976" lon="45.37496">
        <ele>678.106932</ele>
        <time>2021-08-13T05:11:52.365Z</time>
      </trkpt>
      <trkpt lat="41.44986" lon="45.37482">
        <ele>677.491603</ele>
        <time>2021-08-13T05:11:56.621Z</time>
      </trkpt>
      <trkpt lat="41.45028" lon="45.37455">
        <ele>675.529218</ele>
        <time>2021-08-13T05:12:07.059Z</time>
      </trkpt>
      <trkpt lat="41.45035" lon="45.37447">
        <ele>675.334087</ele>
        <time>2021-08-13T05:12:08.831Z</time>
      </trkpt>
      <trkpt lat="41.45071" lon="45.37407">
        <ele>674.706453</ele>
        <time>2021-08-13T05:12:20.252Z</time>
      </trkpt>
      <trkpt lat="41.45163" lon="45.37286">
        <ele>673.11317</ele>
        <time>2021-08-13T05:12:55.775Z</time>
      </trkpt>
      <trkpt lat="41.45193" lon="45.37256">
        <ele>674.131178</ele>
        <time>2021-08-13T05:13:12.439Z</time>
      </trkpt>
      <trkpt lat="41.45229" lon="45.37209">
        <ele>675.494453</ele>
        <time>2021-08-13T05:13:35.676Z</time>
      </trkpt>
      <trkpt lat="41.45273" lon="45.37154">
        <ele>677.143545</ele>
        <time>2021-08-13T05:14:06.513Z</time>
      </trkpt>
      <trkpt lat="41.45291" lon="45.37127">
        <ele>677.878043</ele>
        <time>2021-08-13T05:14:20.814Z</time>
      </trkpt>
      <trkpt lat="41.45333" lon="45.37025">
        <ele>681.106707</ele>
        <time>2021-08-13T05:15:09.963Z</time>
      </trkpt>
      <trkpt lat="41.4542" lon="45.36854">
        <ele>685.514271</ele>
        <time>2021-08-13T05:16:26.900Z</time>
      </trkpt>
      <trkpt lat="41.45462" lon="45.3676">
        <ele>686.683418</ele>
        <time>2021-08-13T05:16:57.050Z</time>
      </trkpt>
      <trkpt lat="41.45482" lon="45.3666">
        <ele>687.001826</ele>
        <time>2021-08-13T05:17:19.616Z</time>
      </trkpt>
      <trkpt lat="41.45588" lon="45.36569">
        <ele>686.371368</ele>
        <time>2021-08-13T05:17:53.635Z</time>
      </trkpt>
      <trkpt lat="41.45655" lon="45.36429">
        <ele>687.569266</ele>
        <time>2021-08-13T05:18:38.131Z</time>
      </trkpt>
      <trkpt lat="41.45699" lon="45.36289">
        <ele>689.035441</ele>
        <time>2021-08-13T05:19:26.455Z</time>
      </trkpt>
      <trkpt lat="41.45716" lon="45.36161">
        <ele>690.540032</ele>
        <time>2021-08-13T05:20:06.426Z</time>
      </trkpt>
      <trkpt lat="41.45725" lon="45.36129">
        <ele>690.934876</ele>
        <time>2021-08-13T05:20:15.633Z</time>
      </trkpt>
      <trkpt lat="41.45768" lon="45.36014">
        <ele>691.69465</ele>
        <time>2021-08-13T05:20:47.989Z</time>
      </trkpt>
      <trkpt lat="41.45806" lon="45.35949">
        <ele>692.121485</ele>
        <time>2021-08-13T05:21:08.894Z</time>
      </trkpt>
      <trkpt lat="41.45858" lon="45.35818">
        <ele>693.560864</ele>
        <time>2021-08-13T05:21:51.132Z</time>
      </trkpt>
      <trkpt lat="41.45872" lon="45.35769">
        <ele>694.166818</ele>
        <time>2021-08-13T05:22:07.245Z</time>
      </trkpt>
      <trkpt lat="41.45881" lon="45.3572">
        <ele>694.743912</ele>
        <time>2021-08-13T05:22:22.989Z</time>
      </trkpt>
      <trkpt lat="41.4588" lon="45.35648">
        <ele>695.761142</ele>
        <time>2021-08-13T05:22:45.873Z</time>
      </trkpt>
      <trkpt lat="41.45955" lon="45.35427">
        <ele>700.211286</ele>
        <time>2021-08-13T05:24:04.145Z</time>
      </trkpt>
      <trkpt lat="41.45973" lon="45.35335">
        <ele>702.969467</ele>
        <time>2021-08-13T05:24:40.124Z</time>
      </trkpt>
      <trkpt lat="41.45976" lon="45.3528">
        <ele>704.591681</ele>
        <time>2021-08-13T05:25:04.221Z</time>
      </trkpt>
      <trkpt lat="41.45974" lon="45.35129">
        <ele>709.940113</ele>
        <time>2021-08-13T05:26:13.777Z</time>
      </trkpt>
      <trkpt lat="41.45976" lon="45.35104">
        <ele>710.908014</ele>
        <time>2021-08-13T05:26:26.229Z</time>
      </trkpt>
      <trkpt lat="41.46067" lon="45.34696">
        <ele>725.85609</ele>
        <time>2021-08-13T05:29:28.609Z</time>
      </trkpt>
      <trkpt lat="41.4614" lon="45.34409">
        <ele>735.443228</ele>
        <time>2021-08-13T05:31:31.201Z</time>
      </trkpt>
      <trkpt lat="41.46162" lon="45.34305">
        <ele>738.818014</ele>
        <time>2021-08-13T05:32:15.375Z</time>
      </trkpt>
      <trkpt lat="41.46275" lon="45.33916">
        <ele>753.075658</ele>
        <time>2021-08-13T05:35:16.349Z</time>
      </trkpt>
      <trkpt lat="41.46298" lon="45.33874">
        <ele>754.794241</ele>
        <time>2021-08-13T05:35:37.218Z</time>
      </trkpt>
      <trkpt lat="41.46474" lon="45.33619">
        <ele>762.704272</ele>
        <time>2021-08-13T05:37:42.940Z</time>
      </trkpt>
      <trkpt lat="41.46503" lon="45.33561">
        <ele>764.049049</ele>
        <time>2021-08-13T05:38:07.041Z</time>
      </trkpt>
      <trkpt lat="41.46542" lon="45.33461">
        <ele>765.392743</ele>
        <time>2021-08-13T05:38:43.510Z</time>
      </trkpt>
      <trkpt lat="41.46607" lon="45.33332">
        <ele>765.455923</ele>
        <time>2021-08-13T05:39:21.690Z</time>
      </trkpt>
      <trkpt lat="41.4667" lon="45.33102">
        <ele>761.424072</ele>
        <time>2021-08-13T05:40:04.961Z</time>
      </trkpt>
      <trkpt lat="41.46698" lon="45.33024">
        <ele>760.076073</ele>
        <time>2021-08-13T05:40:19.622Z</time>
      </trkpt>
      <trkpt lat="41.46706" lon="45.32954">
        <ele>759.168033</ele>
        <time>2021-08-13T05:40:32.186Z</time>
      </trkpt>
      <trkpt lat="41.46849" lon="45.32336">
        <ele>756.189532</ele>
        <time>2021-08-13T05:42:51.822Z</time>
      </trkpt>
      <trkpt lat="41.4692" lon="45.31993">
        <ele>758.044001</ele>
        <time>2021-08-13T05:44:28.638Z</time>
      </trkpt>
      <trkpt lat="41.46983" lon="45.31881">
        <ele>759.014179</ele>
        <time>2021-08-13T05:45:06.062Z</time>
      </trkpt>
      <trkpt lat="41.47023" lon="45.31817">
        <ele>759.642162</ele>
        <time>2021-08-13T05:45:28.386Z</time>
      </trkpt>
      <trkpt lat="41.47114" lon="45.31659">
        <ele>761.787532</ele>
        <time>2021-08-13T05:46:25.816Z</time>
      </trkpt>
      <trkpt lat="41.472" lon="45.31517">
        <ele>764.480267</ele>
        <time>2021-08-13T05:47:25.076Z</time>
      </trkpt>
      <trkpt lat="41.47207" lon="45.31496">
        <ele>764.903373</ele>
        <time>2021-08-13T05:47:36.788Z</time>
      </trkpt>
      <trkpt lat="41.4721" lon="45.31481">
        <ele>765.189939</ele>
        <time>2021-08-13T05:47:44.261Z</time>
      </trkpt>
      <trkpt lat="41.47208" lon="45.31459">
        <ele>765.58063</ele>
        <time>2021-08-13T05:47:55.134Z</time>
      </trkpt>
      <trkpt lat="41.47206" lon="45.31445">
        <ele>765.849492</ele>
        <time>2021-08-13T05:48:02.485Z</time>
      </trkpt>
      <trkpt lat="41.47207" lon="45.31419">
        <ele>766.311893</ele>
        <time>2021-08-13T05:48:14.980Z</time>
      </trkpt>
      <trkpt lat="41.47214" lon="45.31394">
        <ele>766.797093</ele>
        <time>2021-08-13T05:48:28.324Z</time>
      </trkpt>
      <trkpt lat="41.47253" lon="45.31318">
        <ele>768.4977</ele>
        <time>2021-08-13T05:49:14.402Z</time>
      </trkpt>
      <trkpt lat="41.47349" lon="45.3109">
        <ele>772.809358</ele>
        <time>2021-08-13T05:51:24.560Z</time>
      </trkpt>
      <trkpt lat="41.4736" lon="45.31051">
        <ele>773.031937</ele>
        <time>2021-08-13T05:51:43.888Z</time>
      </trkpt>
      <trkpt lat="41.47361" lon="45.31022">
        <ele>773.191959</ele>
        <time>2021-08-13T05:51:57.114Z</time>
      </trkpt>
      <trkpt lat="41.47346" lon="45.30949">
        <ele>773.594301</ele>
        <time>2021-08-13T05:52:27.596Z</time>
      </trkpt>
      <trkpt lat="41.47346" lon="45.30904">
        <ele>773.777752</ele>
        <time>2021-08-13T05:52:43.707Z</time>
      </trkpt>
      <trkpt lat="41.47351" lon="45.3086">
        <ele>772.32413</ele>
        <time>2021-08-13T05:52:58.562Z</time>
      </trkpt>
      <trkpt lat="41.47371" lon="45.30771">
        <ele>769.256561</ele>
        <time>2021-08-13T05:53:26.562Z</time>
      </trkpt>
      <trkpt lat="41.47408" lon="45.30662">
        <ele>764.785069</ele>
        <time>2021-08-13T05:53:59.940Z</time>
      </trkpt>
      <trkpt lat="41.47409" lon="45.30625">
        <ele>762.535002</ele>
        <time>2021-08-13T05:54:09.898Z</time>
      </trkpt>
      <trkpt lat="41.47404" lon="45.30588">
        <ele>760.258781</ele>
        <time>2021-08-13T05:54:19.883Z</time>
      </trkpt>
      <trkpt lat="41.4741" lon="45.30531">
        <ele>756.751494</ele>
        <time>2021-08-13T05:54:35.078Z</time>
      </trkpt>
      <trkpt lat="41.47439" lon="45.3041">
        <ele>748.546303</ele>
        <time>2021-08-13T05:55:08.439Z</time>
      </trkpt>
      <trkpt lat="41.47471" lon="45.30354">
        <ele>743.495463</ele>
        <time>2021-08-13T05:55:26.788Z</time>
      </trkpt>
      <trkpt lat="41.47515" lon="45.3029">
        <ele>737.21957</ele>
        <time>2021-08-13T05:55:49.373Z</time>
      </trkpt>
      <trkpt lat="41.47525" lon="45.3026">
        <ele>734.838496</ele>
        <time>2021-08-13T05:55:57.845Z</time>
      </trkpt>
      <trkpt lat="41.47525" lon="45.30242">
        <ele>733.589854</ele>
        <time>2021-08-13T05:56:02.406Z</time>
      </trkpt>
      <trkpt lat="41.47516" lon="45.30217">
        <ele>731.716283</ele>
        <time>2021-08-13T05:56:09.520Z</time>
      </trkpt>
      <trkpt lat="41.47488" lon="45.30158">
        <ele>727.040429</ele>
        <time>2021-08-13T05:56:27.484Z</time>
      </trkpt>
      <trkpt lat="41.47462" lon="45.3012">
        <ele>723.569464</ele>
        <time>2021-08-13T05:56:40.967Z</time>
      </trkpt>
      <trkpt lat="41.47422" lon="45.30057">
        <ele>717.986814</ele>
        <time>2021-08-13T05:57:03.129Z</time>
      </trkpt>
      <trkpt lat="41.47405" lon="45.30017">
        <ele>716.216421</ele>
        <time>2021-08-13T05:57:15.316Z</time>
      </trkpt>
      <trkpt lat="41.47397" lon="45.29959">
        <ele>713.9347</ele>
        <time>2021-08-13T05:57:31.626Z</time>
      </trkpt>
      <trkpt lat="41.47414" lon="45.29649">
        <ele>704.521096</ele>
        <time>2021-08-13T05:59:06.708Z</time>
      </trkpt>
      <trkpt lat="41.47412" lon="45.29615">
        <ele>703.723106</ele>
        <time>2021-08-13T05:59:17.390Z</time>
      </trkpt>
      <trkpt lat="41.47386" lon="45.29476">
        <ele>701.843895</ele>
        <time>2021-08-13T06:00:05.049Z</time>
      </trkpt>
      <trkpt lat="41.47375" lon="45.29436">
        <ele>701.414789</ele>
        <time>2021-08-13T06:00:20.009Z</time>
      </trkpt>
      <trkpt lat="41.47371" lon="45.29298">
        <ele>700.351063</ele>
        <time>2021-08-13T06:01:11.244Z</time>
      </trkpt>
      <trkpt lat="41.47354" lon="45.29002">
        <ele>698.522066</ele>
        <time>2021-08-13T06:03:01.665Z</time>
      </trkpt>
      <trkpt lat="41.47354" lon="45.28803">
        <ele>695.705125</ele>
        <time>2021-08-13T06:04:06.865Z</time>
      </trkpt>
      <trkpt lat="41.4737" lon="45.28725">
        <ele>693.949611</ele>
        <time>2021-08-13T06:04:32.459Z</time>
      </trkpt>
      <trkpt lat="41.47427" lon="45.28551">
        <ele>689.416745</ele>
        <time>2021-08-13T06:05:30.942Z</time>
      </trkpt>
      <trkpt lat="41.47495" lon="45.28371">
        <ele>684.189439</ele>
        <time>2021-08-13T06:06:32.498Z</time>
      </trkpt>
      <trkpt lat="41.47644" lon="45.27924">
        <ele>672.613509</ele>
        <time>2021-08-13T06:09:03.132Z</time>
      </trkpt>
      <trkpt lat="41.47883" lon="45.27296">
        <ele>662.204171</ele>
        <time>2021-08-13T06:12:58.918Z</time>
      </trkpt>
      <trkpt lat="41.47951" lon="45.27146">
        <ele>659.786822</ele>
        <time>2021-08-13T06:13:57.681Z</time>
      </trkpt>
      <trkpt lat="41.48041" lon="45.27026">
        <ele>656.816644</ele>
        <time>2021-08-13T06:14:53.246Z</time>
      </trkpt>
      <trkpt lat="41.48467" lon="45.26331">
        <ele>638.396546</ele>
        <time>2021-08-13T06:19:36.813Z</time>
      </trkpt>
      <trkpt lat="41.48739" lon="45.25917">
        <ele>628.051288</ele>
        <time>2021-08-13T06:22:33.955Z</time>
      </trkpt>
      <trkpt lat="41.48919" lon="45.25607">
        <ele>621.436948</ele>
        <time>2021-08-13T06:24:41.082Z</time>
      </trkpt>
      <trkpt lat="41.49076" lon="45.25373">
        <ele>617.628015</ele>
        <time>2021-08-13T06:26:27.842Z</time>
      </trkpt>
      <trkpt lat="41.49095" lon="45.25328">
        <ele>617.072779</ele>
        <time>2021-08-13T06:26:46.142Z</time>
      </trkpt>
      <trkpt lat="41.49179" lon="45.25198">
        <ele>614.800165</ele>
        <time>2021-08-13T06:27:45.482Z</time>
      </trkpt>
      <trkpt lat="41.49217" lon="45.25165">
        <ele>613.967391</ele>
        <time>2021-08-13T06:28:05.241Z</time>
      </trkpt>
      <trkpt lat="41.49234" lon="45.25122">
        <ele>613.228888</ele>
        <time>2021-08-13T06:28:21.086Z</time>
      </trkpt>
      <trkpt lat="41.49317" lon="45.24817">
        <ele>604.24266</ele>
        <time>2021-08-13T06:29:59.679Z</time>
      </trkpt>
      <trkpt lat="41.49347" lon="45.24589">
        <ele>596.44028</ele>
        <time>2021-08-13T06:31:07.331Z</time>
      </trkpt>
      <trkpt lat="41.49376" lon="45.24471">
        <ele>591.954662</ele>
        <time>2021-08-13T06:31:43.364Z</time>
      </trkpt>
      <trkpt lat="41.49379" lon="45.24426">
        <ele>590.344173</ele>
        <time>2021-08-13T06:31:56.324Z</time>
      </trkpt>
      <trkpt lat="41.49376" lon="45.24374">
        <ele>588.442969</ele>
        <time>2021-08-13T06:32:11.642Z</time>
      </trkpt>
      <trkpt lat="41.49358" lon="45.24251">
        <ele>583.94751</ele>
        <time>2021-08-13T06:32:47.915Z</time>
      </trkpt>
      <trkpt lat="41.49318" lon="45.24008">
        <ele>575.235986</ele>
        <time>2021-08-13T06:34:00.653Z</time>
      </trkpt>
      <trkpt lat="41.49301" lon="45.23936">
        <ele>572.858335</ele>
        <time>2021-08-13T06:34:22.813Z</time>
      </trkpt>
      <trkpt lat="41.49292" lon="45.23834">
        <ele>570.028415</ele>
        <time>2021-08-13T06:34:53.779Z</time>
      </trkpt>
      <trkpt lat="41.4929" lon="45.23818">
        <ele>569.602765</ele>
        <time>2021-08-13T06:34:58.323Z</time>
      </trkpt>
      <trkpt lat="41.49294" lon="45.23766">
        <ele>568.151364</ele>
        <time>2021-08-13T06:35:14.727Z</time>
      </trkpt>
      <trkpt lat="41.49335" lon="45.23634">
        <ele>565.497514</ele>
        <time>2021-08-13T06:36:00.588Z</time>
      </trkpt>
      <trkpt lat="41.49385" lon="45.23518">
        <ele>563.428816</ele>
        <time>2021-08-13T06:36:45.969Z</time>
      </trkpt>
      <trkpt lat="41.49401" lon="45.2346">
        <ele>562.591325</ele>
        <time>2021-08-13T06:37:07.028Z</time>
      </trkpt>
      <trkpt lat="41.49419" lon="45.23314">
        <ele>560.600873</ele>
        <time>2021-08-13T06:37:56.513Z</time>
      </trkpt>
      <trkpt lat="41.49431" lon="45.23271">
        <ele>559.917745</ele>
        <time>2021-08-13T06:38:11.790Z</time>
      </trkpt>
      <trkpt lat="41.49486" lon="45.22975">
        <ele>554.179077</ele>
        <time>2021-08-13T06:39:50.243Z</time>
      </trkpt>
      <trkpt lat="41.49505" lon="45.22767">
        <ele>549.593043</ele>
        <time>2021-08-13T06:40:55.056Z</time>
      </trkpt>
      <trkpt lat="41.49534" lon="45.22546">
        <ele>544.854695</ele>
        <time>2021-08-13T06:42:06.458Z</time>
      </trkpt>
      <trkpt lat="41.49572" lon="45.22358">
        <ele>540.959371</ele>
        <time>2021-08-13T06:43:09.240Z</time>
      </trkpt>
      <trkpt lat="41.4966" lon="45.2207">
        <ele>532.054005</ele>
        <time>2021-08-13T06:44:43.379Z</time>
      </trkpt>
      <trkpt lat="41.49707" lon="45.21985">
        <ele>528.236773</ele>
        <time>2021-08-13T06:45:13.906Z</time>
      </trkpt>
      <trkpt lat="41.49727" lon="45.21924">
        <ele>525.839671</ele>
        <time>2021-08-13T06:45:32.907Z</time>
      </trkpt>
      <trkpt lat="41.49737" lon="45.21836">
        <ele>522.253108</ele>
        <time>2021-08-13T06:45:58.120Z</time>
      </trkpt>
      <trkpt lat="41.49736" lon="45.21761">
        <ele>519.167061</ele>
        <time>2021-08-13T06:46:19.423Z</time>
      </trkpt>
      <trkpt lat="41.49725" lon="45.21688">
        <ele>516.0895</ele>
        <time>2021-08-13T06:46:40.716Z</time>
      </trkpt>
      <trkpt lat="41.49731" lon="45.21623">
        <ele>513.404978</ele>
        <time>2021-08-13T06:46:59.170Z</time>
      </trkpt>
      <trkpt lat="41.49747" lon="45.21471">
        <ele>507.065675</ele>
        <time>2021-08-13T06:47:42.746Z</time>
      </trkpt>
      <trkpt lat="41.49761" lon="45.20983">
        <ele>487.538577</ele>
        <time>2021-08-13T06:50:02.375Z</time>
      </trkpt>
      <trkpt lat="41.49783" lon="45.20916">
        <ele>484.83328</ele>
        <time>2021-08-13T06:50:23.653Z</time>
      </trkpt>
      <trkpt lat="41.49793" lon="45.20857">
        <ele>482.677144</ele>
        <time>2021-08-13T06:50:41.313Z</time>
      </trkpt>
      <trkpt lat="41.49808" lon="45.20593">
        <ele>473.808457</ele>
        <time>2021-08-13T06:51:58.864Z</time>
      </trkpt>
      <trkpt lat="41.4983" lon="45.20437">
        <ele>469.819935</ele>
        <time>2021-08-13T06:52:46.331Z</time>
      </trkpt>
      <trkpt lat="41.49866" lon="45.20365">
        <ele>468.800125</ele>
        <time>2021-08-13T06:53:15.204Z</time>
      </trkpt>
      <trkpt lat="41.49874" lon="45.20354">
        <ele>468.617466</ele>
        <time>2021-08-13T06:53:20.270Z</time>
      </trkpt>
      <trkpt lat="41.49912" lon="45.20307">
        <ele>467.811052</ele>
        <time>2021-08-13T06:53:46.367Z</time>
      </trkpt>
      <trkpt lat="41.49893" lon="45.20305">
        <ele>467.825583</ele>
        <time>2021-08-13T06:53:57.081Z</time>
      </trkpt>
      <trkpt lat="41.49812" lon="45.20228">
        <ele>470.747501</ele>
        <time>2021-08-13T06:55:02.024Z</time>
      </trkpt>
      <trkpt lat="41.49719" lon="45.20108">
        <ele>476.08738</ele>
        <time>2021-08-13T06:56:42.196Z</time>
      </trkpt>
      <trkpt lat="41.49613" lon="45.20019">
        <ele>483.178149</ele>
        <time>2021-08-13T06:58:28.501Z</time>
      </trkpt>
      <trkpt lat="41.49564" lon="45.19996">
        <ele>486.656305</ele>
        <time>2021-08-13T06:59:17.232Z</time>
      </trkpt>
      <trkpt lat="41.49539" lon="45.19953">
        <ele>489.43551</ele>
        <time>2021-08-13T06:59:56.312Z</time>
      </trkpt>
      <trkpt lat="41.49545" lon="45.19897">
        <ele>492.291445</ele>
        <time>2021-08-13T07:00:36.410Z</time>
      </trkpt>
      <trkpt lat="41.49574" lon="45.19843">
        <ele>495.253213</ele>
        <time>2021-08-13T07:01:22.538Z</time>
      </trkpt>
      <trkpt lat="41.49651" lon="45.197">
        <ele>495.57445</ele>
        <time>2021-08-13T07:02:47.120Z</time>
      </trkpt>
      <trkpt lat="41.49696" lon="45.19678">
        <ele>494.913335</ele>
        <time>2021-08-13T07:03:04.993Z</time>
      </trkpt>
      <trkpt lat="41.49728" lon="45.19588">
        <ele>485.806076</ele>
        <time>2021-08-13T07:03:30.564Z</time>
      </trkpt>
      <trkpt lat="41.49761" lon="45.19545">
        <ele>480.267326</ele>
        <time>2021-08-13T07:03:45.412Z</time>
      </trkpt>
      <trkpt lat="41.49863" lon="45.1952">
        <ele>466.3482</ele>
        <time>2021-08-13T07:04:18.933Z</time>
      </trkpt>
      <trkpt lat="41.49915" lon="45.19528">
        <ele>458.843718</ele>
        <time>2021-08-13T07:04:35.740Z</time>
      </trkpt>
      <trkpt lat="41.49966" lon="45.19468">
        <ele>448.934892</ele>
        <time>2021-08-13T07:04:58.157Z</time>
      </trkpt>
      <trkpt lat="41.49969" lon="45.19438">
        <ele>445.940606</ele>
        <time>2021-08-13T07:05:05.711Z</time>
      </trkpt>
      <trkpt lat="41.49905" lon="45.19399">
        <ele>437.220127</ele>
        <time>2021-08-13T07:05:29.381Z</time>
      </trkpt>
      <trkpt lat="41.49822" lon="45.19378">
        <ele>426.690939</ele>
        <time>2021-08-13T07:05:57.703Z</time>
      </trkpt>
      <trkpt lat="41.4977" lon="45.19344">
        <ele>419.240491</ele>
        <time>2021-08-13T07:06:16.593Z</time>
      </trkpt>
      <trkpt lat="41.4972" lon="45.19273">
        <ele>409.749879</ele>
        <time>2021-08-13T07:06:40.472Z</time>
      </trkpt>
      <trkpt lat="41.49719" lon="45.1923">
        <ele>405.536208</ele>
        <time>2021-08-13T07:06:51.078Z</time>
      </trkpt>
      <trkpt lat="41.49734" lon="45.19045">
        <ele>389.383886</ele>
        <time>2021-08-13T07:07:37.552Z</time>
      </trkpt>
      <trkpt lat="41.49729" lon="45.19021">
        <ele>387.25299</ele>
        <time>2021-08-13T07:07:44.135Z</time>
      </trkpt>
      <trkpt lat="41.49709" lon="45.18987">
        <ele>383.655722</ele>
        <time>2021-08-13T07:07:55.205Z</time>
      </trkpt>
      <trkpt lat="41.49626" lon="45.18899">
        <ele>376.053688</ele>
        <time>2021-08-13T07:08:32.905Z</time>
      </trkpt>
      <trkpt lat="41.49595" lon="45.18878">
        <ele>373.870599</ele>
        <time>2021-08-13T07:08:45.446Z</time>
      </trkpt>
      <trkpt lat="41.49592" lon="45.18876">
        <ele>373.640258</ele>
        <time>2021-08-13T07:08:46.215Z</time>
      </trkpt>
      <trkpt lat="41.49185" lon="45.18485">
        <ele>356.707719</ele>
        <time>2021-08-13T07:10:46.653Z</time>
      </trkpt>
      <trkpt lat="41.49103" lon="45.18421">
        <ele>354.423289</ele>
        <time>2021-08-13T07:11:11.523Z</time>
      </trkpt>
      <trkpt lat="41.48848" lon="45.18262">
        <ele>350.205038</ele>
        <time>2021-08-13T07:12:28.202Z</time>
      </trkpt>
      <trkpt lat="41.48656" lon="45.18154">
        <ele>346.42721</ele>
        <time>2021-08-13T07:13:22.565Z</time>
      </trkpt>
      <trkpt lat="41.48475" lon="45.18064">
        <ele>342.12383</ele>
        <time>2021-08-13T07:14:11.349Z</time>
      </trkpt>
      <trkpt lat="41.48356" lon="45.17928">
        <ele>338.330667</ele>
        <time>2021-08-13T07:14:50.408Z</time>
      </trkpt>
      <trkpt lat="41.48182" lon="45.17704">
        <ele>332.548404</ele>
        <time>2021-08-13T07:15:51.013Z</time>
      </trkpt>
      <trkpt lat="41.48111" lon="45.17605">
        <ele>330.356169</ele>
        <time>2021-08-13T07:16:17.220Z</time>
      </trkpt>
      <trkpt lat="41.4777" lon="45.17322">
        <ele>322.585318</ele>
        <time>2021-08-13T07:18:01.366Z</time>
      </trkpt>
      <trkpt lat="41.47633" lon="45.17221">
        <ele>319.98855</ele>
        <time>2021-08-13T07:18:42.997Z</time>
      </trkpt>
      <trkpt lat="41.47299" lon="45.17004">
        <ele>314.528848</ele>
        <time>2021-08-13T07:20:23.299Z</time>
      </trkpt>
      <trkpt lat="41.47257" lon="45.16976">
        <ele>313.875872</ele>
        <time>2021-08-13T07:20:35.987Z</time>
      </trkpt>
      <trkpt lat="41.47261" lon="45.16802">
        <ele>312.519771</ele>
        <time>2021-08-13T07:21:10.423Z</time>
      </trkpt>
      <trkpt lat="41.47269" lon="45.16677">
        <ele>312.090603</ele>
        <time>2021-08-13T07:21:37.495Z</time>
      </trkpt>
      <trkpt lat="41.47291" lon="45.16638">
        <ele>312.103487</ele>
        <time>2021-08-13T07:21:48.909Z</time>
      </trkpt>
      <trkpt lat="41.47395" lon="45.16494">
        <ele>312.479985</ele>
        <time>2021-08-13T07:22:39.128Z</time>
      </trkpt>
      <trkpt lat="41.47507" lon="45.16277">
        <ele>313.790301</ele>
        <time>2021-08-13T07:23:48.279Z</time>
      </trkpt>
      <trkpt lat="41.47538" lon="45.16232">
        <ele>314.149156</ele>
        <time>2021-08-13T07:24:04.879Z</time>
      </trkpt>
      <trkpt lat="41.47715" lon="45.16032">
        <ele>315.961874</ele>
        <time>2021-08-13T07:25:27.907Z</time>
      </trkpt>
      <trkpt lat="41.47729" lon="45.15981">
        <ele>316.087374</ele>
        <time>2021-08-13T07:25:41.656Z</time>
      </trkpt>
      <trkpt lat="41.47732" lon="45.15923">
        <ele>316.180505</ele>
        <time>2021-08-13T07:25:55.890Z</time>
      </trkpt>
      <trkpt lat="41.47744" lon="45.15564">
        <ele>316.372474</ele>
        <time>2021-08-13T07:27:20.057Z</time>
      </trkpt>
      <trkpt lat="41.47755" lon="45.15433">
        <ele>316.269641</ele>
        <time>2021-08-13T07:27:50.630Z</time>
      </trkpt>
      <trkpt lat="41.47851" lon="45.15098">
        <ele>315.965061</ele>
        <time>2021-08-13T07:29:12.256Z</time>
      </trkpt>
      <trkpt lat="41.48116" lon="45.14503">
        <ele>316.520643</ele>
        <time>2021-08-13T07:31:57.000Z</time>
      </trkpt>
      <trkpt lat="41.48144" lon="45.14423">
        <ele>316.658038</ele>
        <time>2021-08-13T07:32:18.314Z</time>
      </trkpt>
      <trkpt lat="41.48188" lon="45.14075">
        <ele>317.317821</ele>
        <time>2021-08-13T07:33:45.277Z</time>
      </trkpt>
      <trkpt lat="41.48211" lon="45.14016">
        <ele>317.436809</ele>
        <time>2021-08-13T07:34:01.553Z</time>
      </trkpt>
      <trkpt lat="41.48447" lon="45.13716">
        <ele>317.310301</ele>
        <time>2021-08-13T07:35:42.560Z</time>
      </trkpt>
      <trkpt lat="41.48591" lon="45.13383">
        <ele>316.592063</ele>
        <time>2021-08-13T07:37:08.263Z</time>
      </trkpt>
      <trkpt lat="41.4861" lon="45.1316">
        <ele>316.143449</ele>
        <time>2021-08-13T07:37:58.292Z</time>
      </trkpt>
      <trkpt lat="41.48621" lon="45.131">
        <ele>316.040113</ele>
        <time>2021-08-13T07:38:12.053Z</time>
      </trkpt>
      <trkpt lat="41.48692" lon="45.1289">
        <ele>315.703063</ele>
        <time>2021-08-13T07:39:04.276Z</time>
      </trkpt>
      <trkpt lat="41.487" lon="45.12844">
        <ele>315.642378</ele>
        <time>2021-08-13T07:39:15.036Z</time>
      </trkpt>
      <trkpt lat="41.48728" lon="45.12583">
        <ele>315.459366</ele>
        <time>2021-08-13T07:40:15.435Z</time>
      </trkpt>
      <trkpt lat="41.48743" lon="45.12543">
        <ele>315.44166</ele>
        <time>2021-08-13T07:40:25.523Z</time>
      </trkpt>
      <trkpt lat="41.48889" lon="45.12322">
        <ele>315.750067</ele>
        <time>2021-08-13T07:41:36.620Z</time>
      </trkpt>
      <trkpt lat="41.48917" lon="45.12278">
        <ele>315.838764</ele>
        <time>2021-08-13T07:41:50.696Z</time>
      </trkpt>
      <trkpt lat="41.48989" lon="45.12216">
        <ele>316.014533</ele>
        <time>2021-08-13T07:42:18.323Z</time>
      </trkpt>
      <trkpt lat="41.49116" lon="45.12105">
        <ele>316.320276</ele>
        <time>2021-08-13T07:43:07.075Z</time>
      </trkpt>
      <trkpt lat="41.49138" lon="45.12077">
        <ele>316.380772</ele>
        <time>2021-08-13T07:43:16.861Z</time>
      </trkpt>
      <trkpt lat="41.49211" lon="45.1197">
        <ele>316.577885</ele>
        <time>2021-08-13T07:43:52.198Z</time>
      </trkpt>
      <trkpt lat="41.49273" lon="45.1185">
        <ele>316.709683</ele>
        <time>2021-08-13T07:44:27.072Z</time>
      </trkpt>
      <trkpt lat="41.49408" lon="45.11576">
        <ele>316.614276</ele>
        <time>2021-08-13T07:45:42.658Z</time>
      </trkpt>
      <trkpt lat="41.49473" lon="45.1132">
        <ele>316.495826</ele>
        <time>2021-08-13T07:46:45.377Z</time>
      </trkpt>
      <trkpt lat="41.49663" lon="45.10951">
        <ele>316.348599</ele>
        <time>2021-08-13T07:48:28.816Z</time>
      </trkpt>
      <trkpt lat="41.49704" lon="45.10848">
        <ele>316.346218</ele>
        <time>2021-08-13T07:48:56.242Z</time>
      </trkpt>
      <trkpt lat="41.49739" lon="45.10723">
        <ele>316.47445</ele>
        <time>2021-08-13T07:49:28.383Z</time>
      </trkpt>
      <trkpt lat="41.4976" lon="45.10588">
        <ele>316.581522</ele>
        <time>2021-08-13T07:50:01.285Z</time>
      </trkpt>
      <trkpt lat="41.49769" lon="45.1057">
        <ele>316.587896</ele>
        <time>2021-08-13T07:50:06.440Z</time>
      </trkpt>
      <trkpt lat="41.49819" lon="45.10507">
        <ele>316.614912</ele>
        <time>2021-08-13T07:50:28.097Z</time>
      </trkpt>
      <trkpt lat="41.49908" lon="45.10413">
        <ele>316.598294</ele>
        <time>2021-08-13T07:51:02.865Z</time>
      </trkpt>
      <trkpt lat="41.4993" lon="45.1038">
        <ele>316.566571</ele>
        <time>2021-08-13T07:51:13.197Z</time>
      </trkpt>
      <trkpt lat="41.49963" lon="45.10323">
        <ele>316.515577</ele>
        <time>2021-08-13T07:51:29.783Z</time>
      </trkpt>
      <trkpt lat="41.50033" lon="45.10167">
        <ele>316.415649</ele>
        <time>2021-08-13T07:52:11.421Z</time>
      </trkpt>
      <trkpt lat="41.50051" lon="45.10122">
        <ele>316.391734</ele>
        <time>2021-08-13T07:52:23.236Z</time>
      </trkpt>
      <trkpt lat="41.50065" lon="45.1009">
        <ele>316.374348</ele>
        <time>2021-08-13T07:52:31.872Z</time>
      </trkpt>
      <trkpt lat="41.50084" lon="45.10013">
        <ele>316.369164</ele>
        <time>2021-08-13T07:52:50.595Z</time>
      </trkpt>
      <trkpt lat="41.5009" lon="45.09829">
        <ele>316.407883</ele>
        <time>2021-08-13T07:53:34.048Z</time>
      </trkpt>
      <trkpt lat="41.501" lon="45.09686">
        <ele>316.559503</ele>
        <time>2021-08-13T07:54:08.289Z</time>
      </trkpt>
      <trkpt lat="41.50149" lon="45.09572">
        <ele>316.733511</ele>
        <time>2021-08-13T07:54:39.972Z</time>
      </trkpt>
      <trkpt lat="41.50364" lon="45.09261">
        <ele>317.619047</ele>
        <time>2021-08-13T07:56:24.248Z</time>
      </trkpt>
      <trkpt lat="41.50495" lon="45.09068">
        <ele>317.728031</ele>
        <time>2021-08-13T07:57:25.939Z</time>
      </trkpt>
      <trkpt lat="41.50551" lon="45.08976">
        <ele>317.434688</ele>
        <time>2021-08-13T07:57:52.154Z</time>
      </trkpt>
      <trkpt lat="41.50636" lon="45.08849">
        <ele>316.992435</ele>
        <time>2021-08-13T07:58:28.846Z</time>
      </trkpt>
      <trkpt lat="41.50668" lon="45.08796">
        <ele>316.846955</ele>
        <time>2021-08-13T07:58:43.664Z</time>
      </trkpt>
      <trkpt lat="41.50697" lon="45.08736">
        <ele>316.693307</ele>
        <time>2021-08-13T07:58:59.645Z</time>
      </trkpt>
      <trkpt lat="41.50733" lon="45.08657">
        <ele>316.563385</ele>
        <time>2021-08-13T07:59:21.036Z</time>
      </trkpt>
      <trkpt lat="41.50906" lon="45.08225">
        <ele>316.566161</ele>
        <time>2021-08-13T08:01:16.239Z</time>
      </trkpt>
      <trkpt lat="41.51012" lon="45.07953">
        <ele>316.295981</ele>
        <time>2021-08-13T08:02:23.884Z</time>
      </trkpt>
      <trkpt lat="41.51106" lon="45.07712">
        <ele>316.883953</ele>
        <time>2021-08-13T08:03:33.649Z</time>
      </trkpt>
      <trkpt lat="41.51114" lon="45.07691">
        <ele>316.960477</ele>
        <time>2021-08-13T08:03:39.576Z</time>
      </trkpt>
      <trkpt lat="41.51148" lon="45.07608">
        <ele>317.209642</ele>
        <time>2021-08-13T08:04:02.965Z</time>
      </trkpt>
      <trkpt lat="41.51185" lon="45.07542">
        <ele>317.204096</ele>
        <time>2021-08-13T08:04:22.699Z</time>
      </trkpt>
      <trkpt lat="41.51271" lon="45.07429">
        <ele>317.148685</ele>
        <time>2021-08-13T08:04:59.333Z</time>
      </trkpt>
      <trkpt lat="41.5143" lon="45.07213">
        <ele>316.580766</ele>
        <time>2021-08-13T08:06:06.176Z</time>
      </trkpt>
      <trkpt lat="41.51506" lon="45.07108">
        <ele>316.502442</ele>
        <time>2021-08-13T08:06:40.170Z</time>
      </trkpt>
      <trkpt lat="41.5154" lon="45.07053">
        <ele>316.71843</ele>
        <time>2021-08-13T08:06:57.617Z</time>
      </trkpt>
      <trkpt lat="41.51561" lon="45.07011">
        <ele>316.908452</ele>
        <time>2021-08-13T08:07:10.432Z</time>
      </trkpt>
      <trkpt lat="41.51583" lon="45.06949">
        <ele>317.165243</ele>
        <time>2021-08-13T08:07:28.137Z</time>
      </trkpt>
      <trkpt lat="41.51612" lon="45.06854">
        <ele>317.577996</ele>
        <time>2021-08-13T08:07:55.476Z</time>
      </trkpt>
      <trkpt lat="41.51617" lon="45.0682">
        <ele>317.725424</ele>
        <time>2021-08-13T08:08:04.497Z</time>
      </trkpt>
      <trkpt lat="41.51637" lon="45.06565">
        <ele>318.549737</ele>
        <time>2021-08-13T08:09:09.972Z</time>
      </trkpt>
      <trkpt lat="41.51638" lon="45.0654">
        <ele>318.579328</ele>
        <time>2021-08-13T08:09:16.223Z</time>
      </trkpt>
      <trkpt lat="41.5164" lon="45.06523">
        <ele>318.599266</ele>
        <time>2021-08-13T08:09:20.015Z</time>
      </trkpt>
      <trkpt lat="41.51644" lon="45.06454">
        <ele>318.679978</ele>
        <time>2021-08-13T08:09:36.146Z</time>
      </trkpt>
      <trkpt lat="41.51663" lon="45.06324">
        <ele>318.532689</ele>
        <time>2021-08-13T08:10:06.062Z</time>
      </trkpt>
      <trkpt lat="41.51697" lon="45.06165">
        <ele>318.1865</ele>
        <time>2021-08-13T08:10:42.590Z</time>
      </trkpt>
      <trkpt lat="41.51711" lon="45.06091">
        <ele>317.97021</ele>
        <time>2021-08-13T08:10:59.483Z</time>
      </trkpt>
      <trkpt lat="41.51717" lon="45.06066">
        <ele>317.894355</ele>
        <time>2021-08-13T08:11:05.239Z</time>
      </trkpt>
      <trkpt lat="41.51734" lon="45.05984">
        <ele>317.654329</ele>
        <time>2021-08-13T08:11:23.929Z</time>
      </trkpt>
      <trkpt lat="41.51737" lon="45.05978">
        <ele>317.634125</ele>
        <time>2021-08-13T08:11:25.389Z</time>
      </trkpt>
      <trkpt lat="41.51756" lon="45.0592">
        <ele>317.542136</ele>
        <time>2021-08-13T08:11:39.264Z</time>
      </trkpt>
      <trkpt lat="41.51786" lon="45.05857">
        <ele>317.500641</ele>
        <time>2021-08-13T08:11:55.746Z</time>
      </trkpt>
      <trkpt lat="41.51834" lon="45.05801">
        <ele>317.45385</ele>
        <time>2021-08-13T08:12:15.359Z</time>
      </trkpt>
      <trkpt lat="41.51867" lon="45.05765">
        <ele>317.489813</ele>
        <time>2021-08-13T08:12:29.348Z</time>
      </trkpt>
      <trkpt lat="41.51924" lon="45.0571">
        <ele>317.872353</ele>
        <time>2021-08-13T08:12:53.048Z</time>
      </trkpt>
      <trkpt lat="41.51948" lon="45.05686">
        <ele>318.033341</ele>
        <time>2021-08-13T08:13:03.330Z</time>
      </trkpt>
      <trkpt lat="41.52058" lon="45.05579">
        <ele>318.952494</ele>
        <time>2021-08-13T08:13:51.666Z</time>
      </trkpt>
      <trkpt lat="41.52127" lon="45.0551">
        <ele>319.655469</ele>
        <time>2021-08-13T08:14:22.432Z</time>
      </trkpt>
      <trkpt lat="41.52212" lon="45.05427">
        <ele>320.548474</ele>
        <time>2021-08-13T08:15:00.415Z</time>
      </trkpt>
      <trkpt lat="41.5236" lon="45.05285">
        <ele>321.816661</ele>
        <time>2021-08-13T08:16:05.869Z</time>
      </trkpt>
      <trkpt lat="41.52491" lon="45.05161">
        <ele>322.415858</ele>
        <time>2021-08-13T08:16:57.383Z</time>
      </trkpt>
      <trkpt lat="41.5267" lon="45.04985">
        <ele>322.942345</ele>
        <time>2021-08-13T08:18:09.686Z</time>
      </trkpt>
      <trkpt lat="41.52756" lon="45.04908">
        <ele>323.288346</ele>
        <time>2021-08-13T08:18:43.295Z</time>
      </trkpt>
      <trkpt lat="41.52881" lon="45.04787">
        <ele>324.085333</ele>
        <time>2021-08-13T08:19:35.886Z</time>
      </trkpt>
      <trkpt lat="41.529" lon="45.04767">
        <ele>324.283598</ele>
        <time>2021-08-13T08:19:44.895Z</time>
      </trkpt>
      <trkpt lat="41.5302" lon="45.04655">
        <ele>325.459526</ele>
        <time>2021-08-13T08:20:38.316Z</time>
      </trkpt>
      <trkpt lat="41.53345" lon="45.04347">
        <ele>327.169282</ele>
        <time>2021-08-13T08:22:50.258Z</time>
      </trkpt>
      <trkpt lat="41.53435" lon="45.04284">
        <ele>327.710496</ele>
        <time>2021-08-13T08:23:25.472Z</time>
      </trkpt>
      <trkpt lat="41.53466" lon="45.04254">
        <ele>327.911099</ele>
        <time>2021-08-13T08:23:38.436Z</time>
      </trkpt>
      <trkpt lat="41.53475" lon="45.04244">
        <ele>327.968782</ele>
        <time>2021-08-13T08:23:42.996Z</time>
      </trkpt>
      <trkpt lat="41.53503" lon="45.04216">
        <ele>328.093069</ele>
        <time>2021-08-13T08:23:54.866Z</time>
      </trkpt>
      <trkpt lat="41.53575" lon="45.04122">
        <ele>328.451302</ele>
        <time>2021-08-13T08:24:28.430Z</time>
      </trkpt>
      <trkpt lat="41.53917" lon="45.03793">
        <ele>328.926613</ele>
        <time>2021-08-13T08:26:40.696Z</time>
      </trkpt>
      <trkpt lat="41.53971" lon="45.03753">
        <ele>329.210267</ele>
        <time>2021-08-13T08:27:00.795Z</time>
      </trkpt>
      <trkpt lat="41.54152" lon="45.03621">
        <ele>330.612389</ele>
        <time>2021-08-13T08:28:12.793Z</time>
      </trkpt>
      <trkpt lat="41.54303" lon="45.03513">
        <ele>332.278154</ele>
        <time>2021-08-13T08:29:17.497Z</time>
      </trkpt>
      <trkpt lat="41.54419" lon="45.03429">
        <ele>333.379053</ele>
        <time>2021-08-13T08:30:05.357Z</time>
      </trkpt>
      <trkpt lat="41.54437" lon="45.03416">
        <ele>333.488217</ele>
        <time>2021-08-13T08:30:12.509Z</time>
      </trkpt>
      <trkpt lat="41.54652" lon="45.03262">
        <ele>334.632952</ele>
        <time>2021-08-13T08:31:32.735Z</time>
      </trkpt>
      <trkpt lat="41.54791" lon="45.03155">
        <ele>335.686716</ele>
        <time>2021-08-13T08:32:28.885Z</time>
      </trkpt>
      <trkpt lat="41.54823" lon="45.03118">
        <ele>335.998553</ele>
        <time>2021-08-13T08:32:44.284Z</time>
      </trkpt>
      <trkpt lat="41.54857" lon="45.03079">
        <ele>336.213563</ele>
        <time>2021-08-13T08:33:00.347Z</time>
      </trkpt>
      <trkpt lat="41.54901" lon="45.03017">
        <ele>336.401336</ele>
        <time>2021-08-13T08:33:22.726Z</time>
      </trkpt>
      <trkpt lat="41.54945" lon="45.02955">
        <ele>336.587159</ele>
        <time>2021-08-13T08:33:42.925Z</time>
      </trkpt>
      <trkpt lat="41.5496" lon="45.02935">
        <ele>336.649055</ele>
        <time>2021-08-13T08:33:49.019Z</time>
      </trkpt>
      <trkpt lat="41.54993" lon="45.02885">
        <ele>336.428394</ele>
        <time>2021-08-13T08:34:03.442Z</time>
      </trkpt>
      <trkpt lat="41.54987" lon="45.02862">
        <ele>336.332852</ele>
        <time>2021-08-13T08:34:08.439Z</time>
      </trkpt>
      <trkpt lat="41.54977" lon="45.02841">
        <ele>336.23337</ele>
        <time>2021-08-13T08:34:13.853Z</time>
      </trkpt>
      <trkpt lat="41.54942" lon="45.02771">
        <ele>335.9029</ele>
        <time>2021-08-13T08:34:31.311Z</time>
      </trkpt>
      <trkpt lat="41.5484" lon="45.02582">
        <ele>335.371544</ele>
        <time>2021-08-13T08:35:22.681Z</time>
      </trkpt>
      <trkpt lat="41.54787" lon="45.02482">
        <ele>335.377046</ele>
        <time>2021-08-13T08:35:53.004Z</time>
      </trkpt>
      <trkpt lat="41.54769" lon="45.02451">
        <ele>335.438199</ele>
        <time>2021-08-13T08:36:02.842Z</time>
      </trkpt>
      <trkpt lat="41.54775" lon="45.02443">
        <ele>335.455037</ele>
        <time>2021-08-13T08:36:05.483Z</time>
      </trkpt>
      <trkpt lat="41.54776" lon="45.02418">
        <ele>335.493338</ele>
        <time>2021-08-13T08:36:11.733Z</time>
      </trkpt>
      <trkpt lat="41.54773" lon="45.02414">
        <ele>335.502758</ele>
        <time>2021-08-13T08:36:13.194Z</time>
      </trkpt>
      <trkpt lat="41.54798" lon="45.02394">
        <ele>335.562333</ele>
        <time>2021-08-13T08:36:22.402Z</time>
      </trkpt>
      <trkpt lat="41.54819" lon="45.02377">
        <ele>335.614322</ele>
        <time>2021-08-13T08:36:30.496Z</time>
      </trkpt>
      <trkpt lat="41.54837" lon="45.0236">
        <ele>335.679452</ele>
        <time>2021-08-13T08:36:37.906Z</time>
      </trkpt>
      <trkpt lat="41.54903" lon="45.02296">
        <ele>336.087428</ele>
        <time>2021-08-13T08:37:05.825Z</time>
      </trkpt>
      <trkpt lat="41.54916" lon="45.02284">
        <ele>336.165852</ele>
        <time>2021-08-13T08:37:11.201Z</time>
      </trkpt>
      <trkpt lat="41.54937" lon="45.02264">
        <ele>336.291216</ele>
        <time>2021-08-13T08:37:19.861Z</time>
      </trkpt>
      <trkpt lat="41.54992" lon="45.02211">
        <ele>336.655851</ele>
        <time>2021-08-13T08:37:43.174Z</time>
      </trkpt>
      <trkpt lat="41.55078" lon="45.02129">
        <ele>337.322241</ele>
        <time>2021-08-13T08:38:19.412Z</time>
      </trkpt>
      <trkpt lat="41.55132" lon="45.02075">
        <ele>337.768921</ele>
        <time>2021-08-13T08:38:42.995Z</time>
      </trkpt>
      <trkpt lat="41.55161" lon="45.02047">
        <ele>338.04947</ele>
        <time>2021-08-13T08:38:55.503Z</time>
      </trkpt>
      <trkpt lat="41.5517" lon="45.02038">
        <ele>338.145409</ele>
        <time>2021-08-13T08:38:59.877Z</time>
      </trkpt>
      <trkpt lat="41.55214" lon="45.01998">
        <ele>338.573314</ele>
        <time>2021-08-13T08:39:19.478Z</time>
      </trkpt>
      <trkpt lat="41.55243" lon="45.01968">
        <ele>338.867381</ele>
        <time>2021-08-13T08:39:32.902Z</time>
      </trkpt>
      <trkpt lat="41.55303" lon="45.01908">
        <ele>339.286717</ele>
        <time>2021-08-13T08:39:58.762Z</time>
      </trkpt>
      <trkpt lat="41.55345" lon="45.01867">
        <ele>339.482387</ele>
        <time>2021-08-13T08:40:16.186Z</time>
      </trkpt>
      <trkpt lat="41.55345" lon="45.01867">
        <ele>339.482387</ele>
        <time>2021-08-13T08:40:16.240Z</time>
      </trkpt>
      <trkpt lat="41.55345" lon="45.01867">
        <ele>339.482387</ele>
        <time>2021-08-13T08:40:16.246Z</time>
      </trkpt>
      <trkpt lat="41.55326" lon="45.0183">
        <ele>339.60973</ele>
        <time>2021-08-13T08:40:30.583Z</time>
      </trkpt>
      <trkpt lat="41.55325" lon="45.01825">
        <ele>339.624927</ele>
        <time>2021-08-13T08:40:32.090Z</time>
      </trkpt>
      <trkpt lat="41.55323" lon="45.0181">
        <ele>339.66941</ele>
        <time>2021-08-13T08:40:36.944Z</time>
      </trkpt>
      <trkpt lat="41.55321" lon="45.01771">
        <ele>339.780908</ele>
        <time>2021-08-13T08:40:48.983Z</time>
      </trkpt>
      <trkpt lat="41.55332" lon="45.01742">
        <ele>339.840848</ele>
        <time>2021-08-13T08:40:59.066Z</time>
      </trkpt>
      <trkpt lat="41.55341" lon="45.01735">
        <ele>339.860191</ele>
        <time>2021-08-13T08:41:02.986Z</time>
      </trkpt>
      <trkpt lat="41.55237" lon="45.01671">
        <ele>340.082456</ele>
        <time>2021-08-13T08:41:39.905Z</time>
      </trkpt>
      <trkpt lat="41.55199" lon="45.01645">
        <ele>340.157757</ele>
        <time>2021-08-13T08:41:54.502Z</time>
      </trkpt>
      <trkpt lat="41.55128" lon="45.01601">
        <ele>340.168551</ele>
        <time>2021-08-13T08:42:19.621Z</time>
      </trkpt>
      <trkpt lat="41.55061" lon="45.01558">
        <ele>340.1788</ele>
        <time>2021-08-13T08:42:42.381Z</time>
      </trkpt>
      <trkpt lat="41.55051" lon="45.01551">
        <ele>340.180442</ele>
        <time>2021-08-13T08:42:45.952Z</time>
      </trkpt>
      <trkpt lat="41.54988" lon="45.01509">
        <ele>339.837853</ele>
        <time>2021-08-13T08:43:06.263Z</time>
      </trkpt>
      <trkpt lat="41.5495" lon="45.01485">
        <ele>339.593803</ele>
        <time>2021-08-13T08:43:17.937Z</time>
      </trkpt>
      <trkpt lat="41.54915" lon="45.01463">
        <ele>339.371846</ele>
        <time>2021-08-13T08:43:28.531Z</time>
      </trkpt>
      <trkpt lat="41.54885" lon="45.01444">
        <ele>339.180439</ele>
        <time>2021-08-13T08:43:37.720Z</time>
      </trkpt>
      <trkpt lat="41.54846" lon="45.01419">
        <ele>338.984204</ele>
        <time>2021-08-13T08:43:50.530Z</time>
      </trkpt>
      <trkpt lat="41.54739" lon="45.01344">
        <ele>338.481314</ele>
        <time>2021-08-13T08:44:25.942Z</time>
      </trkpt>
      <trkpt lat="41.54708" lon="45.01323">
        <ele>338.328149</ele>
        <time>2021-08-13T08:44:35.910Z</time>
      </trkpt>
      <trkpt lat="41.54682" lon="45.01306">
        <ele>338.181724</ele>
        <time>2021-08-13T08:44:44.494Z</time>
      </trkpt>
      <trkpt lat="41.54645" lon="45.01283">
        <ele>337.983881</ele>
        <time>2021-08-13T08:44:56.084Z</time>
      </trkpt>
      <trkpt lat="41.54577" lon="45.01241">
        <ele>337.613682</ele>
        <time>2021-08-13T08:45:18.001Z</time>
      </trkpt>
      <trkpt lat="41.54524" lon="45.01206">
        <ele>337.156918</ele>
        <time>2021-08-13T08:45:34.386Z</time>
      </trkpt>
      <trkpt lat="41.54489" lon="45.01183">
        <ele>336.782747</ele>
        <time>2021-08-13T08:45:44.791Z</time>
      </trkpt>
      <trkpt lat="41.54473" lon="45.01172">
        <ele>336.616037</ele>
        <time>2021-08-13T08:45:49.472Z</time>
      </trkpt>
      <trkpt lat="41.54466" lon="45.01168">
        <ele>336.543131</ele>
        <time>2021-08-13T08:45:51.458Z</time>
      </trkpt>
      <trkpt lat="41.54436" lon="45.01143">
        <ele>336.206651</ele>
        <time>2021-08-13T08:46:01.030Z</time>
      </trkpt>
      <trkpt lat="41.54352" lon="45.01091">
        <ele>335.615145</ele>
        <time>2021-08-13T08:46:26.651Z</time>
      </trkpt>
      <trkpt lat="41.54352" lon="45.01091">
        <ele>335.615145</ele>
        <time>2021-08-13T08:46:26.653Z</time>
      </trkpt>
      <trkpt lat="41.54338" lon="45.01079">
        <ele>335.555221</ele>
        <time>2021-08-13T08:46:31.244Z</time>
      </trkpt>
      <trkpt lat="41.54343" lon="45.01069">
        <ele>335.522864</ele>
        <time>2021-08-13T08:46:33.979Z</time>
      </trkpt>
      <trkpt lat="41.54413" lon="45.0089">
        <ele>335.21655</ele>
        <time>2021-08-13T08:47:22.434Z</time>
      </trkpt>
      <trkpt lat="41.54418" lon="45.00873">
        <ele>335.237839</ele>
        <time>2021-08-13T08:47:27.331Z</time>
      </trkpt>
      <trkpt lat="41.54428" lon="45.00854">
        <ele>335.264127</ele>
        <time>2021-08-13T08:47:33.159Z</time>
      </trkpt>
      <trkpt lat="41.5445" lon="45.00793">
        <ele>335.341379</ele>
        <time>2021-08-13T08:47:49.855Z</time>
      </trkpt>
      <trkpt lat="41.54461" lon="45.0076">
        <ele>335.381787</ele>
        <time>2021-08-13T08:47:58.548Z</time>
      </trkpt>
      <trkpt lat="41.5449" lon="45.00679">
        <ele>335.19956</ele>
        <time>2021-08-13T08:48:20.396Z</time>
      </trkpt>
      <trkpt lat="41.54492" lon="45.00667">
        <ele>335.150832</ele>
        <time>2021-08-13T08:48:23.297Z</time>
      </trkpt>
      <trkpt lat="41.54576" lon="45.00438">
        <ele>332.985733</ele>
        <time>2021-08-13T08:49:15.820Z</time>
      </trkpt>
      <trkpt lat="41.54587" lon="45.00405">
        <ele>332.33919</ele>
        <time>2021-08-13T08:49:22.183Z</time>
      </trkpt>
      <trkpt lat="41.54613" lon="45.00334">
        <ele>330.904831</ele>
        <time>2021-08-13T08:49:35.584Z</time>
      </trkpt>
      <trkpt lat="41.54614" lon="45.00331">
        <ele>330.83769</ele>
        <time>2021-08-13T08:49:36.183Z</time>
      </trkpt>
      <trkpt lat="41.54616" lon="45.00327">
        <ele>330.763508</ele>
        <time>2021-08-13T08:49:36.851Z</time>
      </trkpt>
      <trkpt lat="41.54679" lon="45.00153">
        <ele>327.595296</ele>
        <time>2021-08-13T08:50:10.063Z</time>
      </trkpt>
      <trkpt lat="41.54687" lon="45.00133">
        <ele>327.246135</ele>
        <time>2021-08-13T08:50:14.440Z</time>
      </trkpt>
      <trkpt lat="41.54763" lon="44.99929">
        <ele>327.138102</ele>
        <time>2021-08-13T08:51:13.208Z</time>
      </trkpt>
      <trkpt lat="41.5484" lon="44.99725">
        <ele>329.571028</ele>
        <time>2021-08-13T08:52:24.086Z</time>
      </trkpt>
      <trkpt lat="41.54982" lon="44.99335">
        <ele>336.576043</ele>
        <time>2021-08-13T08:54:49.024Z</time>
      </trkpt>
      <trkpt lat="41.54995" lon="44.99313">
        <ele>337.070754</ele>
        <time>2021-08-13T08:54:58.963Z</time>
      </trkpt>
      <trkpt lat="41.55006" lon="44.99298">
        <ele>337.454208</ele>
        <time>2021-08-13T08:55:07.106Z</time>
      </trkpt>
      <trkpt lat="41.55019" lon="44.99278">
        <ele>337.922276</ele>
        <time>2021-08-13T08:55:16.079Z</time>
      </trkpt>
      <trkpt lat="41.55023" lon="44.99272">
        <ele>338.064051</ele>
        <time>2021-08-13T08:55:19.119Z</time>
      </trkpt>
      <trkpt lat="41.55027" lon="44.99262">
        <ele>338.271052</ele>
        <time>2021-08-13T08:55:23.378Z</time>
      </trkpt>
      <trkpt lat="41.55039" lon="44.99229">
        <ele>338.906275</ele>
        <time>2021-08-13T08:55:35.951Z</time>
      </trkpt>
      <trkpt lat="41.55026" lon="44.9922">
        <ele>339.087426</ele>
        <time>2021-08-13T08:55:42.411Z</time>
      </trkpt>
      <trkpt lat="41.55017" lon="44.99215">
        <ele>339.214939</ele>
        <time>2021-08-13T08:55:46.634Z</time>
      </trkpt>
      <trkpt lat="41.55008" lon="44.99208">
        <ele>339.348002</ele>
        <time>2021-08-13T08:55:51.363Z</time>
      </trkpt>
      <trkpt lat="41.54992" lon="44.99194">
        <ele>339.587516</ele>
        <time>2021-08-13T08:55:59.567Z</time>
      </trkpt>
      <trkpt lat="41.54986" lon="44.9919">
        <ele>339.677386</ele>
        <time>2021-08-13T08:56:02.423Z</time>
      </trkpt>
      <trkpt lat="41.54978" lon="44.99185">
        <ele>339.800799</ele>
        <time>2021-08-13T08:56:06.507Z</time>
      </trkpt>
      <trkpt lat="41.54948" lon="44.99164">
        <ele>340.232845</ele>
        <time>2021-08-13T08:56:19.532Z</time>
      </trkpt>
      <trkpt lat="41.54912" lon="44.9914">
        <ele>340.742872</ele>
        <time>2021-08-13T08:56:33.702Z</time>
      </trkpt>
      <trkpt lat="41.5484" lon="44.99093">
        <ele>341.852934</ele>
        <time>2021-08-13T08:56:57.848Z</time>
      </trkpt>
      <trkpt lat="41.54783" lon="44.99054">
        <ele>342.779055</ele>
        <time>2021-08-13T08:57:21.724Z</time>
      </trkpt>
      <trkpt lat="41.54777" lon="44.99075">
        <ele>343.020348</ele>
        <time>2021-08-13T08:57:33.350Z</time>
      </trkpt>
      <trkpt lat="41.54775" lon="44.99073">
        <ele>343.049942</ele>
        <time>2021-08-13T08:57:34.796Z</time>
      </trkpt>
      <trkpt lat="41.54775" lon="44.99076">
        <ele>343.076818</ele>
        <time>2021-08-13T08:57:36.111Z</time>
      </trkpt>
      <trkpt lat="41.54758" lon="44.99066">
        <ele>343.336249</ele>
        <time>2021-08-13T08:57:48.564Z</time>
      </trkpt>
      <trkpt lat="41.54767" lon="44.99042">
        <ele>343.626511</ele>
        <time>2021-08-13T08:57:57.538Z</time>
      </trkpt>
      <trkpt lat="41.54767" lon="44.99042">
        <ele>343.626511</ele>
        <time>2021-08-13T08:57:57.639Z</time>
      </trkpt>
      <trkpt lat="41.54815" lon="44.9891">
        <ele>347.547044</ele>
        <time>2021-08-13T08:58:54.257Z</time>
      </trkpt>
      <trkpt lat="41.54845" lon="44.98825">
        <ele>350.234786</ele>
        <time>2021-08-13T08:59:34.175Z</time>
      </trkpt>
      <trkpt lat="41.54873" lon="44.98747">
        <ele>352.298746</ele>
        <time>2021-08-13T09:00:08.593Z</time>
      </trkpt>
      <trkpt lat="41.54902" lon="44.9867">
        <ele>354.271124</ele>
        <time>2021-08-13T09:00:39.801Z</time>
      </trkpt>
      <trkpt lat="41.5493" lon="44.98593">
        <ele>356.198897</ele>
        <time>2021-08-13T09:01:07.785Z</time>
      </trkpt>
      <trkpt lat="41.55013" lon="44.98371">
        <ele>360.017433</ele>
        <time>2021-08-13T09:02:24.855Z</time>
      </trkpt>
      <trkpt lat="41.55066" lon="44.98224">
        <ele>363.822411</ele>
        <time>2021-08-13T09:03:24.005Z</time>
      </trkpt>
      <trkpt lat="41.55075" lon="44.98199">
        <ele>364.452171</ele>
        <time>2021-08-13T09:03:34.833Z</time>
      </trkpt>
      <trkpt lat="41.55101" lon="44.98127">
        <ele>366.46696</ele>
        <time>2021-08-13T09:04:05.388Z</time>
      </trkpt>
      <trkpt lat="41.55124" lon="44.98066">
        <ele>368.304357</ele>
        <time>2021-08-13T09:04:33.366Z</time>
      </trkpt>
      <trkpt lat="41.5515" lon="44.97993">
        <ele>370.519392</ele>
        <time>2021-08-13T09:05:06.237Z</time>
      </trkpt>
      <trkpt lat="41.55195" lon="44.97867">
        <ele>373.136146</ele>
        <time>2021-08-13T09:05:54.403Z</time>
      </trkpt>
      <trkpt lat="41.55251" lon="44.97721">
        <ele>375.263576</ele>
        <time>2021-08-13T09:06:42.948Z</time>
      </trkpt>
      <trkpt lat="41.5526" lon="44.97698">
        <ele>375.287778</ele>
        <time>2021-08-13T09:06:49.445Z</time>
      </trkpt>
      <trkpt lat="41.55264" lon="44.97688">
        <ele>375.29916</ele>
        <time>2021-08-13T09:06:52.401Z</time>
      </trkpt>
      <trkpt lat="41.55281" lon="44.97636">
        <ele>375.352763</ele>
        <time>2021-08-13T09:07:05.862Z</time>
      </trkpt>
      <trkpt lat="41.55306" lon="44.97566">
        <ele>375.426757</ele>
        <time>2021-08-13T09:07:23.209Z</time>
      </trkpt>
      <trkpt lat="41.55348" lon="44.97456">
        <ele>375.711287</ele>
        <time>2021-08-13T09:07:50.183Z</time>
      </trkpt>
      <trkpt lat="41.55381" lon="44.97365">
        <ele>376.061002</ele>
        <time>2021-08-13T09:08:13.774Z</time>
      </trkpt>
      <trkpt lat="41.55439" lon="44.97208">
        <ele>378.111662</ele>
        <time>2021-08-13T09:09:07.459Z</time>
      </trkpt>
      <trkpt lat="41.55448" lon="44.9718">
        <ele>378.655174</ele>
        <time>2021-08-13T09:09:17.618Z</time>
      </trkpt>
      <trkpt lat="41.55453" lon="44.97167">
        <ele>378.892836</ele>
        <time>2021-08-13T09:09:23.164Z</time>
      </trkpt>
      <trkpt lat="41.55464" lon="44.97138">
        <ele>379.46657</ele>
        <time>2021-08-13T09:09:34.316Z</time>
      </trkpt>
      <trkpt lat="41.55471" lon="44.97123">
        <ele>379.774931</ele>
        <time>2021-08-13T09:09:41.020Z</time>
      </trkpt>
      <trkpt lat="41.55471" lon="44.97123">
        <ele>379.774931</ele>
        <time>2021-08-13T09:09:41.088Z</time>
      </trkpt>
      <trkpt lat="41.55471" lon="44.97117">
        <ele>379.886778</ele>
        <time>2021-08-13T09:09:43.956Z</time>
      </trkpt>
      <trkpt lat="41.55459" lon="44.97097">
        <ele>380.330311</ele>
        <time>2021-08-13T09:09:51.643Z</time>
      </trkpt>
      <trkpt lat="41.55454" lon="44.97095">
        <ele>380.447122</ele>
        <time>2021-08-13T09:09:54.803Z</time>
      </trkpt>
      <trkpt lat="41.55451" lon="44.97097">
        <ele>380.524262</ele>
        <time>2021-08-13T09:09:56.234Z</time>
      </trkpt>
      <trkpt lat="41.5541" lon="44.97129">
        <ele>381.700556</ele>
        <time>2021-08-13T09:10:19.197Z</time>
      </trkpt>
      <trkpt lat="41.5535" lon="44.97175">
        <ele>383.392532</ele>
        <time>2021-08-13T09:10:50.635Z</time>
      </trkpt>
      <trkpt lat="41.55243" lon="44.97257">
        <ele>386.660865</ele>
        <time>2021-08-13T09:11:41.889Z</time>
      </trkpt>
      <trkpt lat="41.5516" lon="44.97321">
        <ele>389.372428</ele>
        <time>2021-08-13T09:12:27.968Z</time>
      </trkpt>
      <trkpt lat="41.55073" lon="44.97387">
        <ele>393.15283</ele>
        <time>2021-08-13T09:13:22.021Z</time>
      </trkpt>
      <trkpt lat="41.54985" lon="44.97458">
        <ele>397.287733</ele>
        <time>2021-08-13T09:14:17.804Z</time>
      </trkpt>
      <trkpt lat="41.54958" lon="44.9748">
        <ele>398.640633</ele>
        <time>2021-08-13T09:14:35.790Z</time>
      </trkpt>
      <trkpt lat="41.54896" lon="44.97536">
        <ele>401.722247</ele>
        <time>2021-08-13T09:15:14.782Z</time>
      </trkpt>
      <trkpt lat="41.54839" lon="44.97594">
        <ele>404.750028</ele>
        <time>2021-08-13T09:15:56.415Z</time>
      </trkpt>
      <trkpt lat="41.54783" lon="44.97656">
        <ele>406.814393</ele>
        <time>2021-08-13T09:16:33.275Z</time>
      </trkpt>
      <trkpt lat="41.54779" lon="44.97661">
        <ele>406.96147</ele>
        <time>2021-08-13T09:16:37.427Z</time>
      </trkpt>
      <trkpt lat="41.54765" lon="44.97678">
        <ele>407.498227</ele>
        <time>2021-08-13T09:16:46.485Z</time>
      </trkpt>
      <trkpt lat="41.54652" lon="44.9781">
        <ele>410.62748</ele>
        <time>2021-08-13T09:17:47.094Z</time>
      </trkpt>
      <trkpt lat="41.5464" lon="44.97821">
        <ele>410.794046</ele>
        <time>2021-08-13T09:17:51.527Z</time>
      </trkpt>
      <trkpt lat="41.54627" lon="44.97828">
        <ele>410.950643</ele>
        <time>2021-08-13T09:17:55.984Z</time>
      </trkpt>
      <trkpt lat="41.54611" lon="44.97834">
        <ele>411.141271</ele>
        <time>2021-08-13T09:18:01.165Z</time>
      </trkpt>
      <trkpt lat="41.54593" lon="44.97836">
        <ele>411.350535</ele>
        <time>2021-08-13T09:18:07.482Z</time>
      </trkpt>
      <trkpt lat="41.54565" lon="44.97827">
        <ele>411.682349</ele>
        <time>2021-08-13T09:18:17.592Z</time>
      </trkpt>
      <trkpt lat="41.54524" lon="44.97793">
        <ele>412.973381</ele>
        <time>2021-08-13T09:18:35.859Z</time>
      </trkpt>
      <trkpt lat="41.54472" lon="44.97723">
        <ele>415.921288</ele>
        <time>2021-08-13T09:19:14.114Z</time>
      </trkpt>
      <trkpt lat="41.5443" lon="44.97652">
        <ele>418.640084</ele>
        <time>2021-08-13T09:19:55.254Z</time>
      </trkpt>
      <trkpt lat="41.54415" lon="44.97636">
        <ele>419.582802</ele>
        <time>2021-08-13T09:20:08.041Z</time>
      </trkpt>
      <trkpt lat="41.54391" lon="44.97615">
        <ele>421.423645</ele>
        <time>2021-08-13T09:20:26.888Z</time>
      </trkpt>
      <trkpt lat="41.54343" lon="44.97591">
        <ele>424.662174</ele>
        <time>2021-08-13T09:21:00.989Z</time>
      </trkpt>
      <trkpt lat="41.54285" lon="44.97581">
        <ele>428.413964</ele>
        <time>2021-08-13T09:21:42.399Z</time>
      </trkpt>
      <trkpt lat="41.54232" lon="44.97581">
        <ele>431.627406</ele>
        <time>2021-08-13T09:22:17.926Z</time>
      </trkpt>
      <trkpt lat="41.54205" lon="44.97587">
        <ele>433.094794</ele>
        <time>2021-08-13T09:22:34.861Z</time>
      </trkpt>
      <trkpt lat="41.54096" lon="44.97634">
        <ele>439.357398</ele>
        <time>2021-08-13T09:23:44.716Z</time>
      </trkpt>
      <trkpt lat="41.54065" lon="44.97654">
        <ele>441.09917</ele>
        <time>2021-08-13T09:24:04.896Z</time>
      </trkpt>
      <trkpt lat="41.5399" lon="44.97726">
        <ele>445.271949</ele>
        <time>2021-08-13T09:24:57.289Z</time>
      </trkpt>
      <trkpt lat="41.53958" lon="44.97744">
        <ele>446.784398</ele>
        <time>2021-08-13T09:25:15.824Z</time>
      </trkpt>
      <trkpt lat="41.53777" lon="44.9777">
        <ele>454.041803</ele>
        <time>2021-08-13T09:26:55.824Z</time>
      </trkpt>
      <trkpt lat="41.53675" lon="44.97801">
        <ele>455.778979</ele>
        <time>2021-08-13T09:27:44.056Z</time>
      </trkpt>
      <trkpt lat="41.53657" lon="44.97815">
        <ele>455.890512</ele>
        <time>2021-08-13T09:27:52.487Z</time>
      </trkpt>
      <trkpt lat="41.53638" lon="44.9783">
        <ele>456.008633</ele>
        <time>2021-08-13T09:27:59.803Z</time>
      </trkpt>
      <trkpt lat="41.5362" lon="44.97845">
        <ele>456.121103</ele>
        <time>2021-08-13T09:28:06.686Z</time>
      </trkpt>
      <trkpt lat="41.53204" lon="44.98358">
        <ele>441.755632</ele>
        <time>2021-08-13T09:30:18.062Z</time>
      </trkpt>
      <trkpt lat="41.53147" lon="44.98421">
        <ele>440.93452</ele>
        <time>2021-08-13T09:30:36.159Z</time>
      </trkpt>
      <trkpt lat="41.5277" lon="44.98724">
        <ele>439.974284</ele>
        <time>2021-08-13T09:32:48.331Z</time>
      </trkpt>
      <trkpt lat="41.52736" lon="44.98744">
        <ele>440.158219</ele>
        <time>2021-08-13T09:33:03.420Z</time>
      </trkpt>
      <trkpt lat="41.52656" lon="44.98772">
        <ele>442.87634</ele>
        <time>2021-08-13T09:33:41.477Z</time>
      </trkpt>
      <trkpt lat="41.52208" lon="44.98852">
        <ele>459.288656</ele>
        <time>2021-08-13T09:37:43.347Z</time>
      </trkpt>
      <trkpt lat="41.52193" lon="44.98852">
        <ele>459.785031</ele>
        <time>2021-08-13T09:37:49.957Z</time>
      </trkpt>
      <trkpt lat="41.52167" lon="44.98848">
        <ele>460.21407</ele>
        <time>2021-08-13T09:37:59.899Z</time>
      </trkpt>
      <trkpt lat="41.52145" lon="44.98839">
        <ele>460.59801</ele>
        <time>2021-08-13T09:38:09.221Z</time>
      </trkpt>
      <trkpt lat="41.52126" lon="44.98817">
        <ele>461.012967</ele>
        <time>2021-08-13T09:38:19.490Z</time>
      </trkpt>
      <trkpt lat="41.52124" lon="44.98785">
        <ele>461.409289</ele>
        <time>2021-08-13T09:38:28.342Z</time>
      </trkpt>
      <trkpt lat="41.52131" lon="44.98758">
        <ele>461.755968</ele>
        <time>2021-08-13T09:38:36.320Z</time>
      </trkpt>
      <trkpt lat="41.52182" lon="44.98682">
        <ele>463.303739</ele>
        <time>2021-08-13T09:39:04.287Z</time>
      </trkpt>
      <trkpt lat="41.52204" lon="44.98648">
        <ele>464.428084</ele>
        <time>2021-08-13T09:39:19.632Z</time>
      </trkpt>
      <trkpt lat="41.52218" lon="44.98618">
        <ele>465.330022</ele>
        <time>2021-08-13T09:39:32.747Z</time>
      </trkpt>
      <trkpt lat="41.5223" lon="44.98586">
        <ele>466.24211</ele>
        <time>2021-08-13T09:39:46.736Z</time>
      </trkpt>
      <trkpt lat="41.52253" lon="44.98529">
        <ele>467.87428</ele>
        <time>2021-08-13T09:40:12.988Z</time>
      </trkpt>
      <trkpt lat="41.5228" lon="44.98481">
        <ele>469.691915</ele>
        <time>2021-08-13T09:40:39.135Z</time>
      </trkpt>
      <trkpt lat="41.52353" lon="44.98353">
        <ele>475.766566</ele>
        <time>2021-08-13T09:41:52.844Z</time>
      </trkpt>
      <trkpt lat="41.52398" lon="44.98295">
        <ele>478.643694</ele>
        <time>2021-08-13T09:42:29.768Z</time>
      </trkpt>
      <trkpt lat="41.53265" lon="44.97672">
        <ele>517.741391</ele>
        <time>2021-08-13T09:51:06.833Z</time>
      </trkpt>
      <trkpt lat="41.53279" lon="44.97656">
        <ele>518.624667</ele>
        <time>2021-08-13T09:51:17.842Z</time>
      </trkpt>
      <trkpt lat="41.53295" lon="44.97634">
        <ele>519.74109</ele>
        <time>2021-08-13T09:51:33.227Z</time>
      </trkpt>
      <trkpt lat="41.53336" lon="44.97549">
        <ele>524.254107</ele>
        <time>2021-08-13T09:52:24.276Z</time>
      </trkpt>
      <trkpt lat="41.53419" lon="44.97313">
        <ele>536.592755</ele>
        <time>2021-08-13T09:54:42.697Z</time>
      </trkpt>
      <trkpt lat="41.53446" lon="44.97219">
        <ele>540.448814</ele>
        <time>2021-08-13T09:55:28.245Z</time>
      </trkpt>
      <trkpt lat="41.5349" lon="44.97012">
        <ele>545.146317</ele>
        <time>2021-08-13T09:56:42.588Z</time>
      </trkpt>
      <trkpt lat="41.53548" lon="44.96656">
        <ele>547.873488</ele>
        <time>2021-08-13T09:58:19.208Z</time>
      </trkpt>
      <trkpt lat="41.53552" lon="44.96624">
        <ele>547.910931</ele>
        <time>2021-08-13T09:58:27.637Z</time>
      </trkpt>
      <trkpt lat="41.53555" lon="44.966">
        <ele>547.938836</ele>
        <time>2021-08-13T09:58:32.991Z</time>
      </trkpt>
      <trkpt lat="41.53558" lon="44.96529">
        <ele>548.020371</ele>
        <time>2021-08-13T09:58:50.075Z</time>
      </trkpt>
      <trkpt lat="41.53546" lon="44.96374">
        <ele>548.219667</ele>
        <time>2021-08-13T09:59:24.999Z</time>
      </trkpt>
      <trkpt lat="41.53524" lon="44.96196">
        <ele>548.671535</ele>
        <time>2021-08-13T10:00:09.422Z</time>
      </trkpt>
      <trkpt lat="41.535" lon="44.95998">
        <ele>550.849416</ele>
        <time>2021-08-13T10:01:09.260Z</time>
      </trkpt>
      <trkpt lat="41.53456" lon="44.95642">
        <ele>556.949761</ele>
        <time>2021-08-13T10:03:08.491Z</time>
      </trkpt>
      <trkpt lat="41.53447" lon="44.95567">
        <ele>558.304271</ele>
        <time>2021-08-13T10:03:34.062Z</time>
      </trkpt>
      <trkpt lat="41.53435" lon="44.95467">
        <ele>560.038831</ele>
        <time>2021-08-13T10:04:08.100Z</time>
      </trkpt>
      <trkpt lat="41.53372" lon="44.94945">
        <ele>567.705579</ele>
        <time>2021-08-13T10:06:56.955Z</time>
      </trkpt>
      <trkpt lat="41.53322" lon="44.94547">
        <ele>570.194806</ele>
        <time>2021-08-13T10:08:45.578Z</time>
      </trkpt>
      <trkpt lat="41.53308" lon="44.94478">
        <ele>569.295074</ele>
        <time>2021-08-13T10:08:59.877Z</time>
      </trkpt>
      <trkpt lat="41.53288" lon="44.94426">
        <ele>568.576434</ele>
        <time>2021-08-13T10:09:10.828Z</time>
      </trkpt>
      <trkpt lat="41.53283" lon="44.94412">
        <ele>568.384348</ele>
        <time>2021-08-13T10:09:13.839Z</time>
      </trkpt>
      <trkpt lat="41.53273" lon="44.94388">
        <ele>568.033552</ele>
        <time>2021-08-13T10:09:18.776Z</time>
      </trkpt>
      <trkpt lat="41.53258" lon="44.9436">
        <ele>567.611788</ele>
        <time>2021-08-13T10:09:24.842Z</time>
      </trkpt>
      <trkpt lat="41.53171" lon="44.94235">
        <ele>563.374764</ele>
        <time>2021-08-13T10:09:53.608Z</time>
      </trkpt>
      <trkpt lat="41.52913" lon="44.93903">
        <ele>549.488376</ele>
        <time>2021-08-13T10:11:12.756Z</time>
      </trkpt>
      <trkpt lat="41.52867" lon="44.93869">
        <ele>547.358859</ele>
        <time>2021-08-13T10:11:24.059Z</time>
      </trkpt>
      <trkpt lat="41.52671" lon="44.93767">
        <ele>537.783652</ele>
        <time>2021-08-13T10:12:09.249Z</time>
      </trkpt>
      <trkpt lat="41.5246" lon="44.93637">
        <ele>525.779606</ele>
        <time>2021-08-13T10:12:58.502Z</time>
      </trkpt>
      <trkpt lat="41.52434" lon="44.93634">
        <ele>524.286478</ele>
        <time>2021-08-13T10:13:03.838Z</time>
      </trkpt>
      <trkpt lat="41.52413" lon="44.93637">
        <ele>523.097458</ele>
        <time>2021-08-13T10:13:08.083Z</time>
      </trkpt>
      <trkpt lat="41.52383" lon="44.9365">
        <ele>521.288996</ele>
        <time>2021-08-13T10:13:14.499Z</time>
      </trkpt>
      <trkpt lat="41.52324" lon="44.9369">
        <ele>517.297747</ele>
        <time>2021-08-13T10:13:27.930Z</time>
      </trkpt>
      <trkpt lat="41.52173" lon="44.93805">
        <ele>506.6899</ele>
        <time>2021-08-13T10:14:03.164Z</time>
      </trkpt>
      <trkpt lat="41.521" lon="44.9389">
        <ele>502.392043</ele>
        <time>2021-08-13T10:14:23.801Z</time>
      </trkpt>
      <trkpt lat="41.52077" lon="44.9392">
        <ele>500.956386</ele>
        <time>2021-08-13T10:14:31.070Z</time>
      </trkpt>
      <trkpt lat="41.52041" lon="44.93964">
        <ele>499.394436</ele>
        <time>2021-08-13T10:14:42.540Z</time>
      </trkpt>
      <trkpt lat="41.51937" lon="44.94095">
        <ele>496.943735</ele>
        <time>2021-08-13T10:15:19.697Z</time>
      </trkpt>
      <trkpt lat="41.51899" lon="44.94134">
        <ele>495.988478</ele>
        <time>2021-08-13T10:15:32.410Z</time>
      </trkpt>
      <trkpt lat="41.51401" lon="44.94603">
        <ele>483.008632</ele>
        <time>2021-08-13T10:18:00.097Z</time>
      </trkpt>
      <trkpt lat="41.51341" lon="44.94648">
        <ele>481.610918</ele>
        <time>2021-08-13T10:18:17.255Z</time>
      </trkpt>
      <trkpt lat="41.51091" lon="44.94806">
        <ele>477.014327</ele>
        <time>2021-08-13T10:19:28.181Z</time>
      </trkpt>
      <trkpt lat="41.50771" lon="44.95093">
        <ele>469.945545</ele>
        <time>2021-08-13T10:21:03.409Z</time>
      </trkpt>
      <trkpt lat="41.50647" lon="44.95246">
        <ele>467.081397</ele>
        <time>2021-08-13T10:21:46.233Z</time>
      </trkpt>
      <trkpt lat="41.50599" lon="44.95296">
        <ele>466.089414</ele>
        <time>2021-08-13T10:22:01.744Z</time>
      </trkpt>
      <trkpt lat="41.50453" lon="44.9539">
        <ele>463.445899</ele>
        <time>2021-08-13T10:22:42.811Z</time>
      </trkpt>
      <trkpt lat="41.50229" lon="44.95511">
        <ele>459.384617</ele>
        <time>2021-08-13T10:23:44.442Z</time>
      </trkpt>
      <trkpt lat="41.50171" lon="44.95561">
        <ele>457.732263</ele>
        <time>2021-08-13T10:24:01.278Z</time>
      </trkpt>
      <trkpt lat="41.49987" lon="44.95746">
        <ele>451.817715</ele>
        <time>2021-08-13T10:24:54.980Z</time>
      </trkpt>
      <trkpt lat="41.49808" lon="44.96002">
        <ele>445.942193</ele>
        <time>2021-08-13T10:25:58.504Z</time>
      </trkpt>
      <trkpt lat="41.49762" lon="44.9605">
        <ele>444.707369</ele>
        <time>2021-08-13T10:26:13.026Z</time>
      </trkpt>
      <trkpt lat="41.49377" lon="44.96317">
        <ele>435.654521</ele>
        <time>2021-08-13T10:27:59.092Z</time>
      </trkpt>
      <trkpt lat="41.4933" lon="44.96363">
        <ele>434.59612</ele>
        <time>2021-08-13T10:28:13.530Z</time>
      </trkpt>
      <trkpt lat="41.49235" lon="44.96487">
        <ele>432.141357</ele>
        <time>2021-08-13T10:28:46.955Z</time>
      </trkpt>
      <trkpt lat="41.49187" lon="44.96539">
        <ele>430.858703</ele>
        <time>2021-08-13T10:29:02.481Z</time>
      </trkpt>
      <trkpt lat="41.48619" lon="44.96941">
        <ele>417.350315</ele>
        <time>2021-08-13T10:31:39.244Z</time>
      </trkpt>
      <trkpt lat="41.48569" lon="44.96985">
        <ele>415.914241</ele>
        <time>2021-08-13T10:31:53.661Z</time>
      </trkpt>
      <trkpt lat="41.48414" lon="44.97152">
        <ele>410.716465</ele>
        <time>2021-08-13T10:32:41.068Z</time>
      </trkpt>
      <trkpt lat="41.48341" lon="44.97218">
        <ele>408.107373</ele>
        <time>2021-08-13T10:33:01.299Z</time>
      </trkpt>
      <trkpt lat="41.48242" lon="44.97276">
        <ele>404.375648</ele>
        <time>2021-08-13T10:33:25.105Z</time>
      </trkpt>
      <trkpt lat="41.48169" lon="44.97298">
        <ele>401.707424</ele>
        <time>2021-08-13T10:33:41.805Z</time>
      </trkpt>
      <trkpt lat="41.48129" lon="44.97303">
        <ele>400.680527</ele>
        <time>2021-08-13T10:33:50.993Z</time>
      </trkpt>
      <trkpt lat="41.47954" lon="44.97305">
        <ele>397.473355</ele>
        <time>2021-08-13T10:34:34.085Z</time>
      </trkpt>
      <trkpt lat="41.47942" lon="44.97291">
        <ele>397.507435</ele>
        <time>2021-08-13T10:34:39.253Z</time>
      </trkpt>
      <trkpt lat="41.47927" lon="44.97286">
        <ele>397.541428</ele>
        <time>2021-08-13T10:34:44.016Z</time>
      </trkpt>
      <trkpt lat="41.47883" lon="44.97299">
        <ele>397.638693</ele>
        <time>2021-08-13T10:35:00.633Z</time>
      </trkpt>
      <trkpt lat="41.47874" lon="44.97311">
        <ele>397.664889</ele>
        <time>2021-08-13T10:35:05.353Z</time>
      </trkpt>
      <trkpt lat="41.4786" lon="44.97317">
        <ele>397.696686</ele>
        <time>2021-08-13T10:35:10.401Z</time>
      </trkpt>
      <trkpt lat="41.47826" lon="44.97332">
        <ele>397.773289</ele>
        <time>2021-08-13T10:35:23.674Z</time>
      </trkpt>
      <trkpt lat="41.47792" lon="44.9723">
        <ele>398.451707</ele>
        <time>2021-08-13T10:35:56.481Z</time>
      </trkpt>
      <trkpt lat="41.47742" lon="44.97082">
        <ele>399.537209</ele>
        <time>2021-08-13T10:36:42.279Z</time>
      </trkpt>
      <trkpt lat="41.4773" lon="44.97043">
        <ele>399.666548</ele>
        <time>2021-08-13T10:36:53.236Z</time>
      </trkpt>
      <trkpt lat="41.47673" lon="44.96867">
        <ele>400.263261</ele>
        <time>2021-08-13T10:37:41.388Z</time>
      </trkpt>
      <trkpt lat="41.47627" lon="44.96663">
        <ele>401.53217</ele>
        <time>2021-08-13T10:38:41.050Z</time>
      </trkpt>
      <trkpt lat="41.47612" lon="44.96586">
        <ele>401.928798</ele>
        <time>2021-08-13T10:39:03.529Z</time>
      </trkpt>
      <trkpt lat="41.47586" lon="44.96442">
        <ele>402.631116</ele>
        <time>2021-08-13T10:39:44.009Z</time>
      </trkpt>
      <trkpt lat="41.47547" lon="44.96197">
        <ele>403.091033</ele>
        <time>2021-08-13T10:40:46.362Z</time>
      </trkpt>
      <trkpt lat="41.47526" lon="44.96094">
        <ele>403.341349</ele>
        <time>2021-08-13T10:41:12.976Z</time>
      </trkpt>
      <trkpt lat="41.47493" lon="44.95988">
        <ele>403.639467</ele>
        <time>2021-08-13T10:41:43.148Z</time>
      </trkpt>
      <trkpt lat="41.47445" lon="44.95832">
        <ele>403.894441</ele>
        <time>2021-08-13T10:42:27.722Z</time>
      </trkpt>
      <trkpt lat="41.47398" lon="44.9568">
        <ele>403.806551</ele>
        <time>2021-08-13T10:43:06.860Z</time>
      </trkpt>
      <trkpt lat="41.47343" lon="44.95469">
        <ele>402.921178</ele>
        <time>2021-08-13T10:43:55.745Z</time>
      </trkpt>
      <trkpt lat="41.46905" lon="44.93616">
        <ele>397.547379</ele>
        <time>2021-08-13T10:51:20.825Z</time>
      </trkpt>
      <trkpt lat="41.46901" lon="44.93533">
        <ele>397.872258</ele>
        <time>2021-08-13T10:51:42.383Z</time>
      </trkpt>
      <trkpt lat="41.46989" lon="44.92977">
        <ele>402.85801</ele>
        <time>2021-08-13T10:54:31.435Z</time>
      </trkpt>
      <trkpt lat="41.47069" lon="44.92417">
        <ele>409.392853</ele>
        <time>2021-08-13T10:57:26.671Z</time>
      </trkpt>
      <trkpt lat="41.47156" lon="44.91887">
        <ele>416.069171</ele>
        <time>2021-08-13T11:00:17.851Z</time>
      </trkpt>
      <trkpt lat="41.47292" lon="44.9153">
        <ele>420.174948</ele>
        <time>2021-08-13T11:02:18.912Z</time>
      </trkpt>
      <trkpt lat="41.47351" lon="44.91401">
        <ele>421.270608</ele>
        <time>2021-08-13T11:03:01.480Z</time>
      </trkpt>
      <trkpt lat="41.47368" lon="44.91339">
        <ele>421.465475</ele>
        <time>2021-08-13T11:03:19.079Z</time>
      </trkpt>
      <trkpt lat="41.47382" lon="44.91171">
        <ele>421.484512</ele>
        <time>2021-08-13T11:04:00.134Z</time>
      </trkpt>
      <trkpt lat="41.47396" lon="44.90903">
        <ele>420.544652</ele>
        <time>2021-08-13T11:04:59.886Z</time>
      </trkpt>
      <trkpt lat="41.47385" lon="44.90817">
        <ele>420.650597</ele>
        <time>2021-08-13T11:05:19.825Z</time>
      </trkpt>
      <trkpt lat="41.47369" lon="44.90043">
        <ele>421.678228</ele>
        <time>2021-08-13T11:08:37.420Z</time>
      </trkpt>
      <trkpt lat="41.47373" lon="44.89819">
        <ele>421.8732</ele>
        <time>2021-08-13T11:09:31.650Z</time>
      </trkpt>
      <trkpt lat="41.4737" lon="44.89576">
        <ele>422.157588</ele>
        <time>2021-08-13T11:10:32.960Z</time>
      </trkpt>
      <trkpt lat="41.4737" lon="44.89509">
        <ele>422.271123</ele>
        <time>2021-08-13T11:10:50.367Z</time>
      </trkpt>
      <trkpt lat="41.47379" lon="44.89384">
        <ele>422.346785</ele>
        <time>2021-08-13T11:11:22.025Z</time>
      </trkpt>
      <trkpt lat="41.47402" lon="44.89083">
        <ele>422.271706</ele>
        <time>2021-08-13T11:12:33.767Z</time>
      </trkpt>
      <trkpt lat="41.47408" lon="44.8905">
        <ele>422.255129</ele>
        <time>2021-08-13T11:12:42.052Z</time>
      </trkpt>
      <trkpt lat="41.47448" lon="44.88789">
        <ele>422.429778</ele>
        <time>2021-08-13T11:13:49.085Z</time>
      </trkpt>
      <trkpt lat="41.47535" lon="44.88272">
        <ele>422.556317</ele>
        <time>2021-08-13T11:17:14.899Z</time>
      </trkpt>
      <trkpt lat="41.47602" lon="44.87942">
        <ele>423.765084</ele>
        <time>2021-08-13T11:19:36.360Z</time>
      </trkpt>
      <trkpt lat="41.47649" lon="44.87809">
        <ele>424.220756</ele>
        <time>2021-08-13T11:20:35.669Z</time>
      </trkpt>
      <trkpt lat="41.47832" lon="44.87286">
        <ele>426.577265</ele>
        <time>2021-08-13T11:24:28.467Z</time>
      </trkpt>
      <trkpt lat="41.48097" lon="44.86573">
        <ele>434.766803</ele>
        <time>2021-08-13T11:30:30.314Z</time>
      </trkpt>
      <trkpt lat="41.48126" lon="44.86431">
        <ele>435.715611</ele>
        <time>2021-08-13T11:31:13.328Z</time>
      </trkpt>
      <trkpt lat="41.48193" lon="44.86108">
        <ele>436.013172</ele>
        <time>2021-08-13T11:32:36.698Z</time>
      </trkpt>
      <trkpt lat="41.48197" lon="44.86067">
        <ele>435.946712</ele>
        <time>2021-08-13T11:32:45.460Z</time>
      </trkpt>
      <trkpt lat="41.48184" lon="44.8603">
        <ele>435.489887</ele>
        <time>2021-08-13T11:32:54.055Z</time>
      </trkpt>
      <trkpt lat="41.48133" lon="44.85838">
        <ele>433.035839</ele>
        <time>2021-08-13T11:33:34.092Z</time>
      </trkpt>
      <trkpt lat="41.48128" lon="44.85801">
        <ele>432.638667</ele>
        <time>2021-08-13T11:33:41.474Z</time>
      </trkpt>
      <trkpt lat="41.48133" lon="44.85753">
        <ele>432.131801</ele>
        <time>2021-08-13T11:33:50.986Z</time>
      </trkpt>
      <trkpt lat="41.48216" lon="44.85394">
        <ele>428.694643</ele>
        <time>2021-08-13T11:35:09.173Z</time>
      </trkpt>
      <trkpt lat="41.48323" lon="44.85014">
        <ele>427.329403</ele>
        <time>2021-08-13T11:36:40.731Z</time>
      </trkpt>
      <trkpt lat="41.48504" lon="44.84636">
        <ele>428.058596</ele>
        <time>2021-08-13T11:38:35.183Z</time>
      </trkpt>
      <trkpt lat="41.48856" lon="44.83919">
        <ele>430.802763</ele>
        <time>2021-08-13T11:42:21.307Z</time>
      </trkpt>
      <trkpt lat="41.48997" lon="44.83624">
        <ele>430.339832</ele>
        <time>2021-08-13T11:43:42.634Z</time>
      </trkpt>
      <trkpt lat="41.49057" lon="44.83418">
        <ele>430.45212</ele>
        <time>2021-08-13T11:44:35.057Z</time>
      </trkpt>
      <trkpt lat="41.49348" lon="44.82261">
        <ele>433.584583</ele>
        <time>2021-08-13T11:49:54.641Z</time>
      </trkpt>
      <trkpt lat="41.49354" lon="44.82212">
        <ele>433.543863</ele>
        <time>2021-08-13T11:50:06.224Z</time>
      </trkpt>
      <trkpt lat="41.49351" lon="44.8218">
        <ele>433.517479</ele>
        <time>2021-08-13T11:50:13.430Z</time>
      </trkpt>
      <trkpt lat="41.4934" lon="44.82115">
        <ele>433.099474</ele>
        <time>2021-08-13T11:50:27.773Z</time>
      </trkpt>
      <trkpt lat="41.49332" lon="44.82078">
        <ele>432.637121</ele>
        <time>2021-08-13T11:50:35.673Z</time>
      </trkpt>
      <trkpt lat="41.49314" lon="44.8198">
        <ele>431.419151</ele>
        <time>2021-08-13T11:50:55.847Z</time>
      </trkpt>
      <trkpt lat="41.49259" lon="44.81806">
        <ele>428.8654</ele>
        <time>2021-08-13T11:51:31.988Z</time>
      </trkpt>
      <trkpt lat="41.49251" lon="44.81783">
        <ele>428.500952</ele>
        <time>2021-08-13T11:51:36.660Z</time>
      </trkpt>
      <trkpt lat="41.49199" lon="44.81639">
        <ele>426.515004</ele>
        <time>2021-08-13T11:52:06.924Z</time>
      </trkpt>
      <trkpt lat="41.49165" lon="44.8151">
        <ele>425.204701</ele>
        <time>2021-08-13T11:52:33.834Z</time>
      </trkpt>
      <trkpt lat="41.49141" lon="44.81372">
        <ele>424.361796</ele>
        <time>2021-08-13T11:53:03.528Z</time>
      </trkpt>
      <trkpt lat="41.4913" lon="44.8131">
        <ele>424.067415</ele>
        <time>2021-08-13T11:53:17.661Z</time>
      </trkpt>
      <trkpt lat="41.49127" lon="44.81239">
        <ele>423.738201</ele>
        <time>2021-08-13T11:53:33.189Z</time>
      </trkpt>
      <trkpt lat="41.49126" lon="44.81219">
        <ele>423.618341</ele>
        <time>2021-08-13T11:53:37.385Z</time>
      </trkpt>
      <trkpt lat="41.49123" lon="44.81175">
        <ele>423.346174</ele>
        <time>2021-08-13T11:53:46.699Z</time>
      </trkpt>
      <trkpt lat="41.4912" lon="44.81123">
        <ele>423.021195</ele>
        <time>2021-08-13T11:53:57.842Z</time>
      </trkpt>
      <trkpt lat="41.49116" lon="44.81097">
        <ele>422.857469</ele>
        <time>2021-08-13T11:54:03.367Z</time>
      </trkpt>
      <trkpt lat="41.49106" lon="44.81067">
        <ele>422.660401</ele>
        <time>2021-08-13T11:54:10.058Z</time>
      </trkpt>
      <trkpt lat="41.49104" lon="44.8106">
        <ele>422.612146</ele>
        <time>2021-08-13T11:54:11.681Z</time>
      </trkpt>
      <trkpt lat="41.49096" lon="44.81042">
        <ele>422.482692</ele>
        <time>2021-08-13T11:54:15.841Z</time>
      </trkpt>
      <trkpt lat="41.49064" lon="44.80995">
        <ele>421.984702</ele>
        <time>2021-08-13T11:54:28.576Z</time>
      </trkpt>
      <trkpt lat="41.4902" lon="44.80954">
        <ele>421.256543</ele>
        <time>2021-08-13T11:54:42.207Z</time>
      </trkpt>
      <trkpt lat="41.48884" lon="44.80873">
        <ele>419.185634</ele>
        <time>2021-08-13T11:55:20.836Z</time>
      </trkpt>
      <trkpt lat="41.48785" lon="44.808">
        <ele>417.562468</ele>
        <time>2021-08-13T11:55:49.997Z</time>
      </trkpt>
      <trkpt lat="41.48757" lon="44.80778">
        <ele>417.090678</ele>
        <time>2021-08-13T11:55:58.372Z</time>
      </trkpt>
      <trkpt lat="41.48721" lon="44.80754">
        <ele>416.48874</ele>
        <time>2021-08-13T11:56:08.697Z</time>
      </trkpt>
      <trkpt lat="41.48656" lon="44.80709">
        <ele>415.393085</ele>
        <time>2021-08-13T11:56:27.361Z</time>
      </trkpt>
      <trkpt lat="41.4865" lon="44.80705">
        <ele>415.292739</ele>
        <time>2021-08-13T11:56:29.074Z</time>
      </trkpt>
      <trkpt lat="41.48646" lon="44.80699">
        <ele>415.202713</ele>
        <time>2021-08-13T11:56:30.602Z</time>
      </trkpt>
      <trkpt lat="41.48562" lon="44.80581">
        <ele>413.956376</ele>
        <time>2021-08-13T11:57:02.394Z</time>
      </trkpt>
      <trkpt lat="41.48543" lon="44.80562">
        <ele>413.781797</ele>
        <time>2021-08-13T11:57:09.160Z</time>
      </trkpt>
      <trkpt lat="41.48518" lon="44.80548">
        <ele>413.581497</ele>
        <time>2021-08-13T11:57:16.924Z</time>
      </trkpt>
      <trkpt lat="41.48513" lon="44.80543">
        <ele>413.534082</ele>
        <time>2021-08-13T11:57:18.808Z</time>
      </trkpt>
      <trkpt lat="41.48479" lon="44.80528">
        <ele>413.269228</ele>
        <time>2021-08-13T11:57:29.485Z</time>
      </trkpt>
      <trkpt lat="41.48473" lon="44.80524">
        <ele>413.224364</ele>
        <time>2021-08-13T11:57:31.295Z</time>
      </trkpt>
      <trkpt lat="41.48466" lon="44.80519">
        <ele>413.205773</ele>
        <time>2021-08-13T11:57:33.763Z</time>
      </trkpt>
      <trkpt lat="41.48465" lon="44.80504">
        <ele>413.245342</ele>
        <time>2021-08-13T11:57:37.687Z</time>
      </trkpt>
      <trkpt lat="41.48461" lon="44.80487">
        <ele>413.289992</ele>
        <time>2021-08-13T11:57:41.796Z</time>
      </trkpt>
      <trkpt lat="41.48441" lon="44.80469">
        <ele>413.374087</ele>
        <time>2021-08-13T11:57:49.811Z</time>
      </trkpt>
      <trkpt lat="41.4835" lon="44.80428">
        <ele>413.707914</ele>
        <time>2021-08-13T11:58:22.597Z</time>
      </trkpt>
      <trkpt lat="41.48309" lon="44.80408">
        <ele>413.802455</ele>
        <time>2021-08-13T11:58:37.695Z</time>
      </trkpt>
      <trkpt lat="41.48307" lon="44.80407">
        <ele>413.79994</ele>
        <time>2021-08-13T11:58:38.441Z</time>
      </trkpt>
      <trkpt lat="41.48225" lon="44.80372">
        <ele>413.712697</ele>
        <time>2021-08-13T11:59:05.190Z</time>
      </trkpt>
      <trkpt lat="41.48191" lon="44.80361">
        <ele>413.676762</ele>
        <time>2021-08-13T11:59:15.642Z</time>
      </trkpt>
      <trkpt lat="41.48145" lon="44.80349">
        <ele>413.611373</ele>
        <time>2021-08-13T11:59:29.073Z</time>
      </trkpt>
      <trkpt lat="41.48145" lon="44.80349">
        <ele>413.611373</ele>
        <time>2021-08-13T11:59:29.083Z</time>
      </trkpt>
      <trkpt lat="41.48114" lon="44.80341">
        <ele>413.366387</ele>
        <time>2021-08-13T11:59:38.099Z</time>
      </trkpt>
      <trkpt lat="41.48019" lon="44.80339">
        <ele>412.623002</ele>
        <time>2021-08-13T12:00:04.539Z</time>
      </trkpt>
      <trkpt lat="41.47891" lon="44.80367">
        <ele>411.489438</ele>
        <time>2021-08-13T12:00:39.997Z</time>
      </trkpt>
      <trkpt lat="41.47809" lon="44.80398">
        <ele>410.699231</ele>
        <time>2021-08-13T12:01:02.913Z</time>
      </trkpt>
      <trkpt lat="41.47746" lon="44.80421">
        <ele>410.046408</ele>
        <time>2021-08-13T12:01:20.544Z</time>
      </trkpt>
      <trkpt lat="41.47674" lon="44.80448">
        <ele>409.28606</ele>
        <time>2021-08-13T12:01:40.580Z</time>
      </trkpt>
      <trkpt lat="41.47664" lon="44.80452">
        <ele>409.1812</ele>
        <time>2021-08-13T12:01:43.216Z</time>
      </trkpt>
      <trkpt lat="41.47652" lon="44.80456">
        <ele>409.053422</ele>
        <time>2021-08-13T12:01:46.609Z</time>
      </trkpt>
      <trkpt lat="41.47579" lon="44.80482">
        <ele>408.266163</ele>
        <time>2021-08-13T12:02:07.307Z</time>
      </trkpt>
      <trkpt lat="41.47508" lon="44.80508">
        <ele>407.490875</ele>
        <time>2021-08-13T12:02:27.275Z</time>
      </trkpt>
      <trkpt lat="41.47435" lon="44.80536">
        <ele>406.656491</ele>
        <time>2021-08-13T12:02:47.535Z</time>
      </trkpt>
      <trkpt lat="41.47341" lon="44.80572">
        <ele>405.41214</ele>
        <time>2021-08-13T12:03:12.895Z</time>
      </trkpt>
      <trkpt lat="41.47274" lon="44.80598">
        <ele>404.522735</ele>
        <time>2021-08-13T12:03:30.818Z</time>
      </trkpt>
      <trkpt lat="41.47145" lon="44.80649">
        <ele>403.388351</ele>
        <time>2021-08-13T12:04:07.814Z</time>
      </trkpt>
      <trkpt lat="41.47063" lon="44.80681">
        <ele>402.720559</ele>
        <time>2021-08-13T12:04:32.187Z</time>
      </trkpt>
      <trkpt lat="41.47037" lon="44.8069">
        <ele>402.518958</ele>
        <time>2021-08-13T12:04:40.084Z</time>
      </trkpt>
      <trkpt lat="41.47016" lon="44.80698">
        <ele>402.359509</ele>
        <time>2021-08-13T12:04:46.250Z</time>
      </trkpt>
      <trkpt lat="41.46935" lon="44.80725">
        <ele>401.75296</ele>
        <time>2021-08-13T12:05:09.272Z</time>
      </trkpt>
      <trkpt lat="41.46874" lon="44.80749">
        <ele>400.996302</ele>
        <time>2021-08-13T12:05:26.050Z</time>
      </trkpt>
      <trkpt lat="41.46818" lon="44.80769">
        <ele>400.275825</ele>
        <time>2021-08-13T12:05:41.032Z</time>
      </trkpt>
      <trkpt lat="41.46639" lon="44.80834">
        <ele>398.192259</ele>
        <time>2021-08-13T12:06:30.046Z</time>
      </trkpt>
      <trkpt lat="41.46632" lon="44.80838">
        <ele>398.108733</ele>
        <time>2021-08-13T12:06:32.098Z</time>
      </trkpt>
      <trkpt lat="41.46554" lon="44.80868">
        <ele>397.327328</ele>
        <time>2021-08-13T12:06:54.359Z</time>
      </trkpt>
      <trkpt lat="41.46542" lon="44.80873">
        <ele>397.230475</ele>
        <time>2021-08-13T12:06:57.806Z</time>
      </trkpt>
      <trkpt lat="41.46528" lon="44.80877">
        <ele>397.122492</ele>
        <time>2021-08-13T12:07:01.557Z</time>
      </trkpt>
      <trkpt lat="41.46424" lon="44.80914">
        <ele>396.281571</ele>
        <time>2021-08-13T12:07:31.659Z</time>
      </trkpt>
      <trkpt lat="41.46325" lon="44.80953">
        <ele>395.502905</ele>
        <time>2021-08-13T12:08:00.453Z</time>
      </trkpt>
      <trkpt lat="41.46277" lon="44.80972">
        <ele>395.12249</ele>
        <time>2021-08-13T12:08:14.534Z</time>
      </trkpt>
      <trkpt lat="41.46088" lon="44.81049">
        <ele>393.750077</ele>
        <time>2021-08-13T12:09:09.574Z</time>
      </trkpt>
      <trkpt lat="41.46079" lon="44.81053">
        <ele>393.6837</ele>
        <time>2021-08-13T12:09:12.353Z</time>
      </trkpt>
      <trkpt lat="41.4605" lon="44.81066">
        <ele>393.474406</ele>
        <time>2021-08-13T12:09:21.144Z</time>
      </trkpt>
      <trkpt lat="41.46036" lon="44.81072">
        <ele>393.379153</ele>
        <time>2021-08-13T12:09:25.287Z</time>
      </trkpt>
      <trkpt lat="41.45964" lon="44.81099">
        <ele>392.876283</ele>
        <time>2021-08-13T12:09:47.570Z</time>
      </trkpt>
      <trkpt lat="41.45944" lon="44.81109">
        <ele>392.734321</ele>
        <time>2021-08-13T12:09:53.801Z</time>
      </trkpt>
      <trkpt lat="41.45936" lon="44.81113">
        <ele>392.676066</ele>
        <time>2021-08-13T12:09:56.264Z</time>
      </trkpt>
      <trkpt lat="41.45829" lon="44.81157">
        <ele>391.908941</ele>
        <time>2021-08-13T12:10:28.578Z</time>
      </trkpt>
      <trkpt lat="41.45796" lon="44.81173">
        <ele>391.654556</ele>
        <time>2021-08-13T12:10:39.052Z</time>
      </trkpt>
      <trkpt lat="41.45555" lon="44.81273">
        <ele>390.000119</ele>
        <time>2021-08-13T12:11:53.135Z</time>
      </trkpt>
      <trkpt lat="41.45358" lon="44.81346">
        <ele>388.68688</ele>
        <time>2021-08-13T12:12:53.675Z</time>
      </trkpt>
      <trkpt lat="41.45231" lon="44.81395">
        <ele>387.799664</ele>
        <time>2021-08-13T12:13:32.288Z</time>
      </trkpt>
      <trkpt lat="41.45173" lon="44.81416">
        <ele>387.384206</ele>
        <time>2021-08-13T12:13:49.687Z</time>
      </trkpt>
      <trkpt lat="41.45045" lon="44.81465">
        <ele>386.412744</ele>
        <time>2021-08-13T12:14:28.875Z</time>
      </trkpt>
      <trkpt lat="41.44995" lon="44.81486">
        <ele>385.923432</ele>
        <time>2021-08-13T12:14:43.911Z</time>
      </trkpt>
      <trkpt lat="41.44896" lon="44.81527">
        <ele>384.862097</ele>
        <time>2021-08-13T12:15:12.866Z</time>
      </trkpt>
      <trkpt lat="41.44749" lon="44.81583">
        <ele>383.397078</ele>
        <time>2021-08-13T12:15:55.513Z</time>
      </trkpt>
      <trkpt lat="41.44528" lon="44.81676">
        <ele>381.710217</ele>
        <time>2021-08-13T12:17:03.705Z</time>
      </trkpt>
      <trkpt lat="41.44438" lon="44.81724">
        <ele>381.020997</ele>
        <time>2021-08-13T12:17:32.609Z</time>
      </trkpt>
      <trkpt lat="41.44337" lon="44.81775">
        <ele>380.263796</ele>
        <time>2021-08-13T12:18:03.769Z</time>
      </trkpt>
      <trkpt lat="41.44228" lon="44.8182">
        <ele>379.572144</ele>
        <time>2021-08-13T12:18:37.411Z</time>
      </trkpt>
      <trkpt lat="41.44204" lon="44.8183">
        <ele>379.421169</ele>
        <time>2021-08-13T12:18:44.929Z</time>
      </trkpt>
      <trkpt lat="41.44061" lon="44.81906">
        <ele>378.516771</ele>
        <time>2021-08-13T12:19:31.088Z</time>
      </trkpt>
      <trkpt lat="41.44053" lon="44.81911">
        <ele>378.46456</ele>
        <time>2021-08-13T12:19:33.782Z</time>
      </trkpt>
      <trkpt lat="41.44001" lon="44.81897">
        <ele>378.137616</ele>
        <time>2021-08-13T12:19:49.202Z</time>
      </trkpt>
      <trkpt lat="41.43945" lon="44.81893">
        <ele>377.600239</ele>
        <time>2021-08-13T12:20:05.375Z</time>
      </trkpt>
      <trkpt lat="41.43872" lon="44.81925">
        <ele>376.863558</ele>
        <time>2021-08-13T12:20:26.921Z</time>
      </trkpt>
      <trkpt lat="41.43669" lon="44.81996">
        <ele>374.758613</ele>
        <time>2021-08-13T12:21:25.903Z</time>
      </trkpt>
      <trkpt lat="41.43527" lon="44.8204">
        <ele>373.662412</ele>
        <time>2021-08-13T12:22:07.968Z</time>
      </trkpt>
      <trkpt lat="41.43483" lon="44.82055">
        <ele>373.331639</ele>
        <time>2021-08-13T12:22:21.522Z</time>
      </trkpt>
      <trkpt lat="41.4336" lon="44.8209">
        <ele>372.756618</ele>
        <time>2021-08-13T12:22:59.719Z</time>
      </trkpt>
      <trkpt lat="41.43333" lon="44.82113">
        <ele>372.609906</ele>
        <time>2021-08-13T12:23:09.562Z</time>
      </trkpt>
      <trkpt lat="41.43118" lon="44.82193">
        <ele>371.087188</ele>
        <time>2021-08-13T12:24:15.429Z</time>
      </trkpt>
      <trkpt lat="41.43021" lon="44.82223">
        <ele>370.109364</ele>
        <time>2021-08-13T12:24:43.314Z</time>
      </trkpt>
      <trkpt lat="41.42893" lon="44.82264">
        <ele>368.735937</ele>
        <time>2021-08-13T12:25:20.044Z</time>
      </trkpt>
      <trkpt lat="41.42776" lon="44.82308">
        <ele>367.44213</ele>
        <time>2021-08-13T12:25:54.105Z</time>
      </trkpt>
      <trkpt lat="41.42747" lon="44.82322">
        <ele>367.157429</ele>
        <time>2021-08-13T12:26:02.818Z</time>
      </trkpt>
      <trkpt lat="41.42573" lon="44.82386">
        <ele>365.612501</ele>
        <time>2021-08-13T12:26:54.374Z</time>
      </trkpt>
      <trkpt lat="41.42413" lon="44.82449">
        <ele>364.584903</ele>
        <time>2021-08-13T12:27:43.771Z</time>
      </trkpt>
      <trkpt lat="41.42379" lon="44.82462">
        <ele>364.458439</ele>
        <time>2021-08-13T12:27:54.310Z</time>
      </trkpt>
      <trkpt lat="41.42208" lon="44.82526">
        <ele>364.015464</ele>
        <time>2021-08-13T12:28:49.871Z</time>
      </trkpt>
      <trkpt lat="41.42109" lon="44.82557">
        <ele>363.959047</ele>
        <time>2021-08-13T12:29:22.709Z</time>
      </trkpt>
      <trkpt lat="41.42003" lon="44.82601">
        <ele>364.12098</ele>
        <time>2021-08-13T12:30:00.034Z</time>
      </trkpt>
      <trkpt lat="41.41993" lon="44.82793">
        <ele>364.12295</ele>
        <time>2021-08-13T12:30:48.480Z</time>
      </trkpt>
      <trkpt lat="41.41985" lon="44.82923">
        <ele>363.917587</ele>
        <time>2021-08-13T12:31:18.712Z</time>
      </trkpt>
      <trkpt lat="41.41855" lon="44.82799">
        <ele>362.750533</ele>
        <time>2021-08-13T12:32:04.917Z</time>
      </trkpt>
      <trkpt lat="41.41742" lon="44.82709">
        <ele>361.716416</ele>
        <time>2021-08-13T12:32:42.750Z</time>
      </trkpt>
      <trkpt lat="41.41694" lon="44.8272">
        <ele>361.340192</ele>
        <time>2021-08-13T12:32:56.977Z</time>
      </trkpt>
      <trkpt lat="41.41564" lon="44.82772">
        <ele>360.247093</ele>
        <time>2021-08-13T12:33:36.928Z</time>
      </trkpt>
      <trkpt lat="41.41505" lon="44.82814">
        <ele>359.701146</ele>
        <time>2021-08-13T12:33:56.111Z</time>
      </trkpt>
      <trkpt lat="41.41483" lon="44.82832">
        <ele>359.44202</ele>
        <time>2021-08-13T12:34:03.204Z</time>
      </trkpt>
      <trkpt lat="41.41458" lon="44.82853">
        <ele>359.044011</ele>
        <time>2021-08-13T12:34:11.555Z</time>
      </trkpt>
      <trkpt lat="41.4128" lon="44.82997">
        <ele>356.142116</ele>
        <time>2021-08-13T12:35:07.890Z</time>
      </trkpt>
      <trkpt lat="41.41264" lon="44.82966">
        <ele>355.712262</ele>
        <time>2021-08-13T12:35:15.459Z</time>
      </trkpt>
      <trkpt lat="41.41249" lon="44.8294">
        <ele>355.338699</ele>
        <time>2021-08-13T12:35:22.032Z</time>
      </trkpt>
      <trkpt lat="41.41066" lon="44.8309">
        <ele>351.789913</ele>
        <time>2021-08-13T12:36:16.542Z</time>
      </trkpt>
      <trkpt lat="41.41012" lon="44.83132">
        <ele>350.518191</ele>
        <time>2021-08-13T12:36:31.896Z</time>
      </trkpt>
      <trkpt lat="41.40969" lon="44.83149">
        <ele>349.500489</ele>
        <time>2021-08-13T12:36:42.893Z</time>
      </trkpt>
      <trkpt lat="41.40952" lon="44.8315">
        <ele>349.118286</ele>
        <time>2021-08-13T12:36:46.990Z</time>
      </trkpt>
      <trkpt lat="41.40679" lon="44.83105">
        <ele>343.09663</ele>
        <time>2021-08-13T12:37:52.244Z</time>
      </trkpt>
      <trkpt lat="41.40551" lon="44.83083">
        <ele>342.43516</ele>
        <time>2021-08-13T12:38:28.830Z</time>
      </trkpt>
      <trkpt lat="41.40441" lon="44.83061">
        <ele>343.543327</ele>
        <time>2021-08-13T12:39:10.743Z</time>
      </trkpt>
      <trkpt lat="41.40395" lon="44.8305">
        <ele>344.307066</ele>
        <time>2021-08-13T12:39:30.295Z</time>
      </trkpt>
      <trkpt lat="41.40351" lon="44.83033">
        <ele>345.074981</ele>
        <time>2021-08-13T12:39:50.379Z</time>
      </trkpt>
      <trkpt lat="41.40339" lon="44.83027">
        <ele>345.299803</ele>
        <time>2021-08-13T12:39:57.115Z</time>
      </trkpt>
      <trkpt lat="41.40309" lon="44.82994">
        <ele>346.1274</ele>
        <time>2021-08-13T12:40:14.153Z</time>
      </trkpt>
      <trkpt lat="41.40262" lon="44.82891">
        <ele>348.032129</ele>
        <time>2021-08-13T12:40:51.877Z</time>
      </trkpt>
      <trkpt lat="41.40253" lon="44.82878">
        <ele>348.316864</ele>
        <time>2021-08-13T12:40:58.744Z</time>
      </trkpt>
      <trkpt lat="41.40237" lon="44.82857">
        <ele>348.78013</ele>
        <time>2021-08-13T12:41:07.380Z</time>
      </trkpt>
      <trkpt lat="41.40184" lon="44.82803">
        <ele>349.967322</ele>
        <time>2021-08-13T12:41:35.796Z</time>
      </trkpt>
      <trkpt lat="41.40171" lon="44.82784">
        <ele>350.290673</ele>
        <time>2021-08-13T12:41:44.456Z</time>
      </trkpt>
      <trkpt lat="41.40162" lon="44.82765">
        <ele>350.56688</ele>
        <time>2021-08-13T12:41:51.043Z</time>
      </trkpt>
      <trkpt lat="41.4014" lon="44.82703">
        <ele>351.443917</ele>
        <time>2021-08-13T12:42:12.488Z</time>
      </trkpt>
      <trkpt lat="41.40115" lon="44.82645">
        <ele>352.130517</ele>
        <time>2021-08-13T12:42:31.125Z</time>
      </trkpt>
      <trkpt lat="41.40089" lon="44.82588">
        <ele>352.331478</ele>
        <time>2021-08-13T12:42:48.864Z</time>
      </trkpt>
      <trkpt lat="41.4007" lon="44.82605">
        <ele>352.42416</ele>
        <time>2021-08-13T12:42:56.942Z</time>
      </trkpt>
      <trkpt lat="41.40063" lon="44.82652">
        <ele>352.567891</ele>
        <time>2021-08-13T12:43:09.143Z</time>
      </trkpt>
      <trkpt lat="41.40017" lon="44.82753">
        <ele>352.732171</ele>
        <time>2021-08-13T12:43:37.086Z</time>
      </trkpt>
      <trkpt lat="41.39985" lon="44.82801">
        <ele>352.607452</ele>
        <time>2021-08-13T12:43:51.584Z</time>
      </trkpt>
      <trkpt lat="41.39934" lon="44.82912">
        <ele>352.35633</ele>
        <time>2021-08-13T12:44:21.922Z</time>
      </trkpt>
      <trkpt lat="41.39913" lon="44.83016">
        <ele>352.533973</ele>
        <time>2021-08-13T12:44:48.458Z</time>
      </trkpt>
      <trkpt lat="41.39902" lon="44.83027">
        <ele>352.567602</ele>
        <time>2021-08-13T12:44:53.126Z</time>
      </trkpt>
      <trkpt lat="41.39843" lon="44.83019">
        <ele>352.713021</ele>
        <time>2021-08-13T12:45:13.538Z</time>
      </trkpt>
      <trkpt lat="41.39772" lon="44.8298">
        <ele>353.107096</ele>
        <time>2021-08-13T12:45:41.108Z</time>
      </trkpt>
      <trkpt lat="41.39619" lon="44.82872">
        <ele>354.33624</ele>
        <time>2021-08-13T12:46:44.304Z</time>
      </trkpt>
      <trkpt lat="41.39615" lon="44.82869">
        <ele>354.367167</ele>
        <time>2021-08-13T12:46:45.856Z</time>
      </trkpt>
      <trkpt lat="41.39588" lon="44.82863">
        <ele>354.58902</ele>
        <time>2021-08-13T12:46:55.981Z</time>
      </trkpt>
      <trkpt lat="41.39547" lon="44.82827">
        <ele>354.979722</ele>
        <time>2021-08-13T12:47:14.230Z</time>
      </trkpt>
      <trkpt lat="41.39491" lon="44.82799">
        <ele>355.458959</ele>
        <time>2021-08-13T12:47:36.347Z</time>
      </trkpt>
      <trkpt lat="41.39475" lon="44.82769">
        <ele>355.696573</ele>
        <time>2021-08-13T12:47:46.771Z</time>
      </trkpt>
      <trkpt lat="41.39437" lon="44.82779">
        <ele>356.030559</ele>
        <time>2021-08-13T12:48:01.168Z</time>
      </trkpt>
      <trkpt lat="41.39414" lon="44.82778">
        <ele>356.228629</ele>
        <time>2021-08-13T12:48:09.668Z</time>
      </trkpt>
      <trkpt lat="41.39363" lon="44.82775">
        <ele>356.668716</ele>
        <time>2021-08-13T12:48:28.483Z</time>
      </trkpt>
      <trkpt lat="41.39343" lon="44.82778">
        <ele>356.841395</ele>
        <time>2021-08-13T12:48:35.716Z</time>
      </trkpt>
      <trkpt lat="41.39174" lon="44.82802">
        <ele>358.487532</ele>
        <time>2021-08-13T12:49:38.161Z</time>
      </trkpt>
      <trkpt lat="41.39135" lon="44.82811">
        <ele>358.864261</ele>
        <time>2021-08-13T12:49:52.845Z</time>
      </trkpt>
      <trkpt lat="41.38663" lon="44.82921">
        <ele>362.962521</ele>
        <time>2021-08-13T12:52:45.089Z</time>
      </trkpt>
      <trkpt lat="41.38596" lon="44.82937">
        <ele>363.424381</ele>
        <time>2021-08-13T12:53:08.275Z</time>
      </trkpt>
      <trkpt lat="41.38568" lon="44.82944">
        <ele>363.549739</ele>
        <time>2021-08-13T12:53:18.061Z</time>
      </trkpt>
      <trkpt lat="41.3854" lon="44.82955">
        <ele>363.675425</ele>
        <time>2021-08-13T12:53:27.838Z</time>
      </trkpt>
      <trkpt lat="41.38263" lon="44.83076">
        <ele>364.755985</ele>
        <time>2021-08-13T12:55:04.819Z</time>
      </trkpt>
      <trkpt lat="41.38202" lon="44.83102">
        <ele>364.710215</ele>
        <time>2021-08-13T12:55:24.509Z</time>
      </trkpt>
      <trkpt lat="41.3802" lon="44.83193">
        <ele>364.777377</ele>
        <time>2021-08-13T12:56:23.393Z</time>
      </trkpt>
      <trkpt lat="41.37839" lon="44.83289">
        <ele>365.419007</ele>
        <time>2021-08-13T12:57:29.247Z</time>
      </trkpt>
      <trkpt lat="41.37693" lon="44.83371">
        <ele>366.25252</ele>
        <time>2021-08-13T12:58:22.853Z</time>
      </trkpt>
      <trkpt lat="41.37635" lon="44.83394">
        <ele>366.602184</ele>
        <time>2021-08-13T12:58:43.221Z</time>
      </trkpt>
      <trkpt lat="41.37531" lon="44.83433">
        <ele>367.985594</ele>
        <time>2021-08-13T12:59:21.586Z</time>
      </trkpt>
      <trkpt lat="41.37415" lon="44.83479">
        <ele>370.073986</ele>
        <time>2021-08-13T13:00:14.268Z</time>
      </trkpt>
      <trkpt lat="41.37351" lon="44.83505">
        <ele>371.496815</ele>
        <time>2021-08-13T13:00:45.101Z</time>
      </trkpt>
      <trkpt lat="41.37322" lon="44.83519">
        <ele>372.15356</ele>
        <time>2021-08-13T13:00:58.634Z</time>
      </trkpt>
      <trkpt lat="41.37272" lon="44.83543">
        <ele>373.294217</ele>
        <time>2021-08-13T13:01:21.290Z</time>
      </trkpt>
      <trkpt lat="41.37259" lon="44.83549">
        <ele>373.595759</ele>
        <time>2021-08-13T13:01:26.755Z</time>
      </trkpt>
      <trkpt lat="41.37199" lon="44.8358">
        <ele>373.925713</ele>
        <time>2021-08-13T13:01:51.061Z</time>
      </trkpt>
      <trkpt lat="41.37187" lon="44.83587">
        <ele>373.975329</ele>
        <time>2021-08-13T13:01:55.331Z</time>
      </trkpt>
      <trkpt lat="41.37002" lon="44.83701">
        <ele>374.543907</ele>
        <time>2021-08-13T13:02:56.821Z</time>
      </trkpt>
      <trkpt lat="41.36978" lon="44.83715">
        <ele>374.584576</ele>
        <time>2021-08-13T13:03:05.740Z</time>
      </trkpt>
      <trkpt lat="41.36813" lon="44.83818">
        <ele>373.993658</ele>
        <time>2021-08-13T13:04:07.474Z</time>
      </trkpt>
      <trkpt lat="41.368" lon="44.83832">
        <ele>373.901533</ele>
        <time>2021-08-13T13:04:11.753Z</time>
      </trkpt>
      <trkpt lat="41.3679" lon="44.83854">
        <ele>373.796128</ele>
        <time>2021-08-13T13:04:16.214Z</time>
      </trkpt>
      <trkpt lat="41.36782" lon="44.83874">
        <ele>373.702418</ele>
        <time>2021-08-13T13:04:20.410Z</time>
      </trkpt>
      <trkpt lat="41.36757" lon="44.8399">
        <ele>371.585515</ele>
        <time>2021-08-13T13:04:40.961Z</time>
      </trkpt>
      <trkpt lat="41.36751" lon="44.84019">
        <ele>371.03955</ele>
        <time>2021-08-13T13:04:46.315Z</time>
      </trkpt>
      <trkpt lat="41.36746" lon="44.84031">
        <ele>370.792519</ele>
        <time>2021-08-13T13:04:48.610Z</time>
      </trkpt>
      <trkpt lat="41.36742" lon="44.84036">
        <ele>370.677592</ele>
        <time>2021-08-13T13:04:49.724Z</time>
      </trkpt>
      <trkpt lat="41.3673" lon="44.84045">
        <ele>370.360659</ele>
        <time>2021-08-13T13:04:52.865Z</time>
      </trkpt>
      <trkpt lat="41.36711" lon="44.84045">
        <ele>369.905133</ele>
        <time>2021-08-13T13:04:57.255Z</time>
      </trkpt>
      <trkpt lat="41.36706" lon="44.84045">
        <ele>369.77226</ele>
        <time>2021-08-13T13:04:58.617Z</time>
      </trkpt>
      <trkpt lat="41.36669" lon="44.84038">
        <ele>370.198732</ele>
        <time>2021-08-13T13:05:09.065Z</time>
      </trkpt>
      <trkpt lat="41.36629" lon="44.8403">
        <ele>371.622237</ele>
        <time>2021-08-13T13:05:26.623Z</time>
      </trkpt>
      <trkpt lat="41.36601" lon="44.84023">
        <ele>372.603753</ele>
        <time>2021-08-13T13:05:42.287Z</time>
      </trkpt>
      <trkpt lat="41.3658" lon="44.84012">
        <ele>373.360547</ele>
        <time>2021-08-13T13:05:56.779Z</time>
      </trkpt>
      <trkpt lat="41.36557" lon="44.83992">
        <ele>374.308973</ele>
        <time>2021-08-13T13:06:14.741Z</time>
      </trkpt>
      <trkpt lat="41.3653" lon="44.83955">
        <ele>375.641405</ele>
        <time>2021-08-13T13:06:39.460Z</time>
      </trkpt>
      <trkpt lat="41.36483" lon="44.83885">
        <ele>377.902574</ele>
        <time>2021-08-13T13:07:20.626Z</time>
      </trkpt>
      <trkpt lat="41.36478" lon="44.83878">
        <ele>378.131828</ele>
        <time>2021-08-13T13:07:24.945Z</time>
      </trkpt>
      <trkpt lat="41.36453" lon="44.83846">
        <ele>379.23007</ele>
        <time>2021-08-13T13:07:42.738Z</time>
      </trkpt>
      <trkpt lat="41.36436" lon="44.83828">
        <ele>379.948157</ele>
        <time>2021-08-13T13:07:52.657Z</time>
      </trkpt>
      <trkpt lat="41.36397" lon="44.83787">
        <ele>381.317287</ele>
        <time>2021-08-13T13:08:11.342Z</time>
      </trkpt>
      <trkpt lat="41.36367" lon="44.83756">
        <ele>380.570101</ele>
        <time>2021-08-13T13:08:21.763Z</time>
      </trkpt>
      <trkpt lat="41.36351" lon="44.83738">
        <ele>380.161911</ele>
        <time>2021-08-13T13:08:26.621Z</time>
      </trkpt>
      <trkpt lat="41.36347" lon="44.83734">
        <ele>380.058115</ele>
        <time>2021-08-13T13:08:27.875Z</time>
      </trkpt>
      <trkpt lat="41.36316" lon="44.83704">
        <ele>379.318484</ele>
        <time>2021-08-13T13:08:36.425Z</time>
      </trkpt>
      <trkpt lat="41.36288" lon="44.83677">
        <ele>378.638267</ele>
        <time>2021-08-13T13:08:44.546Z</time>
      </trkpt>
      <trkpt lat="41.362" lon="44.83593">
        <ele>376.863603</ele>
        <time>2021-08-13T13:09:10.877Z</time>
      </trkpt>
      <trkpt lat="41.36051" lon="44.83447">
        <ele>375.026466</ele>
        <time>2021-08-13T13:10:00.656Z</time>
      </trkpt>
      <trkpt lat="41.36007" lon="44.83403">
        <ele>374.888044</ele>
        <time>2021-08-13T13:10:18.205Z</time>
      </trkpt>
      <trkpt lat="41.35948" lon="44.83346">
        <ele>374.936924</ele>
        <time>2021-08-13T13:10:42.673Z</time>
      </trkpt>
      <trkpt lat="41.35926" lon="44.83323">
        <ele>375.151595</ele>
        <time>2021-08-13T13:10:52.510Z</time>
      </trkpt>
      <trkpt lat="41.35782" lon="44.83174">
        <ele>376.800229</ele>
        <time>2021-08-13T13:11:58.477Z</time>
      </trkpt>
      <trkpt lat="41.35722" lon="44.83099">
        <ele>377.809818</ele>
        <time>2021-08-13T13:12:29.526Z</time>
      </trkpt>
      <trkpt lat="41.35667" lon="44.83023">
        <ele>379.015815</ele>
        <time>2021-08-13T13:13:01.294Z</time>
      </trkpt>
      <trkpt lat="41.35633" lon="44.82969">
        <ele>380.010598</ele>
        <time>2021-08-13T13:13:23.207Z</time>
      </trkpt>
      <trkpt lat="41.35617" lon="44.82937">
        <ele>380.545549</ele>
        <time>2021-08-13T13:13:35.115Z</time>
      </trkpt>
      <trkpt lat="41.35596" lon="44.82898">
        <ele>381.229069</ele>
        <time>2021-08-13T13:13:50.492Z</time>
      </trkpt>
      <trkpt lat="41.35561" lon="44.82828">
        <ele>382.668066</ele>
        <time>2021-08-13T13:14:17.815Z</time>
      </trkpt>
      <trkpt lat="41.35527" lon="44.82762">
        <ele>384.237869</ele>
        <time>2021-08-13T13:14:44.675Z</time>
      </trkpt>
      <trkpt lat="41.35495" lon="44.82698">
        <ele>385.726498</ele>
        <time>2021-08-13T13:15:11.150Z</time>
      </trkpt>
      <trkpt lat="41.35462" lon="44.82623">
        <ele>387.854843</ele>
        <time>2021-08-13T13:15:43.365Z</time>
      </trkpt>
      <trkpt lat="41.35433" lon="44.82541">
        <ele>390.408537</ele>
        <time>2021-08-13T13:16:19.451Z</time>
      </trkpt>
      <trkpt lat="41.35417" lon="44.82472">
        <ele>392.43632</ele>
        <time>2021-08-13T13:16:49.403Z</time>
      </trkpt>
      <trkpt lat="41.35363" lon="44.82237">
        <ele>398.807723</ele>
        <time>2021-08-13T13:18:25.501Z</time>
      </trkpt>
      <trkpt lat="41.35361" lon="44.82228">
        <ele>399.068768</ele>
        <time>2021-08-13T13:18:29.326Z</time>
      </trkpt>
      <trkpt lat="41.35347" lon="44.82189">
        <ele>399.350669</ele>
        <time>2021-08-13T13:18:42.546Z</time>
      </trkpt>
      <trkpt lat="41.35315" lon="44.8214">
        <ele>399.438992</ele>
        <time>2021-08-13T13:19:00.531Z</time>
      </trkpt>
      <trkpt lat="41.35214" lon="44.82058">
        <ele>399.369214</ele>
        <time>2021-08-13T13:19:33.149Z</time>
      </trkpt>
      <trkpt lat="41.34838" lon="44.81778">
        <ele>390.372523</ele>
        <time>2021-08-13T13:21:16.555Z</time>
      </trkpt>
      <trkpt lat="41.34751" lon="44.81713">
        <ele>388.880538</ele>
        <time>2021-08-13T13:21:43.329Z</time>
      </trkpt>
      <trkpt lat="41.34701" lon="44.81675">
        <ele>388.850054</ele>
        <time>2021-08-13T13:22:00.555Z</time>
      </trkpt>
      <trkpt lat="41.34486" lon="44.81512">
        <ele>389.069178</ele>
        <time>2021-08-13T13:23:21.039Z</time>
      </trkpt>
      <trkpt lat="41.34398" lon="44.81445">
        <ele>389.093329</ele>
        <time>2021-08-13T13:23:53.787Z</time>
      </trkpt>
      <trkpt lat="41.33573" lon="44.80819">
        <ele>387.524218</ele>
        <time>2021-08-13T13:28:39.003Z</time>
      </trkpt>
      <trkpt lat="41.33241" lon="44.80567">
        <ele>387.650519</ele>
        <time>2021-08-13T13:30:39.631Z</time>
      </trkpt>
      <trkpt lat="41.33038" lon="44.80401">
        <ele>387.609009</ele>
        <time>2021-08-13T13:31:53.047Z</time>
      </trkpt>
      <trkpt lat="41.3294" lon="44.80314">
        <ele>387.530753</ele>
        <time>2021-08-13T13:32:30.044Z</time>
      </trkpt>
      <trkpt lat="41.32783" lon="44.80216">
        <ele>387.111721</ele>
        <time>2021-08-13T13:33:22.488Z</time>
      </trkpt>
      <trkpt lat="41.32697" lon="44.80157">
        <ele>386.759996</ele>
        <time>2021-08-13T13:33:49.956Z</time>
      </trkpt>
      <trkpt lat="41.32599" lon="44.80086">
        <ele>386.28829</ele>
        <time>2021-08-13T13:34:21.924Z</time>
      </trkpt>
      <trkpt lat="41.32586" lon="44.80076">
        <ele>386.227199</ele>
        <time>2021-08-13T13:34:26.200Z</time>
      </trkpt>
      <trkpt lat="41.32535" lon="44.80038">
        <ele>386.284765</ele>
        <time>2021-08-13T13:34:44.205Z</time>
      </trkpt>
      <trkpt lat="41.32461" lon="44.80006">
        <ele>386.640722</ele>
        <time>2021-08-13T13:35:10.039Z</time>
      </trkpt>
      <trkpt lat="41.32395" lon="44.79971">
        <ele>386.996533</ele>
        <time>2021-08-13T13:35:35.600Z</time>
      </trkpt>
      <trkpt lat="41.32372" lon="44.79957">
        <ele>387.303742</ele>
        <time>2021-08-13T13:35:44.872Z</time>
      </trkpt>
      <trkpt lat="41.3234" lon="44.79937">
        <ele>387.74121</ele>
        <time>2021-08-13T13:35:58.427Z</time>
      </trkpt>
      <trkpt lat="41.32316" lon="44.79913">
        <ele>388.111271</ele>
        <time>2021-08-13T13:36:10.223Z</time>
      </trkpt>
      <trkpt lat="41.32257" lon="44.79814">
        <ele>389.224926</ele>
        <time>2021-08-13T13:36:46.890Z</time>
      </trkpt>
      <trkpt lat="41.32235" lon="44.7979">
        <ele>389.411326</ele>
        <time>2021-08-13T13:36:57.172Z</time>
      </trkpt>
      <trkpt lat="41.32195" lon="44.79756">
        <ele>389.72551</ele>
        <time>2021-08-13T13:37:13.940Z</time>
      </trkpt>
      <trkpt lat="41.32159" lon="44.79727">
        <ele>390.003865</ele>
        <time>2021-08-13T13:37:28.300Z</time>
      </trkpt>
      <trkpt lat="41.32045" lon="44.79639">
        <ele>390.653509</ele>
        <time>2021-08-13T13:38:11.828Z</time>
      </trkpt>
      <trkpt lat="41.32014" lon="44.79615">
        <ele>390.787745</ele>
        <time>2021-08-13T13:38:23.191Z</time>
      </trkpt>
      <trkpt lat="41.3177" lon="44.79444">
        <ele>392.100965</ele>
        <time>2021-08-13T13:39:56.782Z</time>
      </trkpt>
      <trkpt lat="41.31685" lon="44.79373">
        <ele>392.618016</ele>
        <time>2021-08-13T13:40:30.861Z</time>
      </trkpt>
      <trkpt lat="41.31628" lon="44.79339">
        <ele>392.935642</ele>
        <time>2021-08-13T13:40:52.316Z</time>
      </trkpt>
      <trkpt lat="41.31573" lon="44.79331">
        <ele>393.199905</ele>
        <time>2021-08-13T13:41:11.340Z</time>
      </trkpt>
      <trkpt lat="41.3146" lon="44.79334">
        <ele>393.736248</ele>
        <time>2021-08-13T13:41:49.417Z</time>
      </trkpt>
      <trkpt lat="41.31398" lon="44.79325">
        <ele>393.888608</ele>
        <time>2021-08-13T13:42:09.847Z</time>
      </trkpt>
      <trkpt lat="41.31315" lon="44.79299">
        <ele>394.094187</ele>
        <time>2021-08-13T13:42:37.046Z</time>
      </trkpt>
      <trkpt lat="41.31223" lon="44.79262">
        <ele>394.507786</ele>
        <time>2021-08-13T13:43:08.478Z</time>
      </trkpt>
      <trkpt lat="41.31126" lon="44.79231">
        <ele>395.017675</ele>
        <time>2021-08-13T13:43:43.034Z</time>
      </trkpt>
      <trkpt lat="41.31087" lon="44.79223">
        <ele>395.227354</ele>
        <time>2021-08-13T13:43:57.076Z</time>
      </trkpt>
      <trkpt lat="41.31014" lon="44.79207">
        <ele>395.626687</ele>
        <time>2021-08-13T13:44:22.457Z</time>
      </trkpt>
      <trkpt lat="41.30956" lon="44.79194">
        <ele>395.939268</ele>
        <time>2021-08-13T13:44:41.987Z</time>
      </trkpt>
      <trkpt lat="41.30938" lon="44.7919">
        <ele>396.040743</ele>
        <time>2021-08-13T13:44:48.306Z</time>
      </trkpt>
      <trkpt lat="41.30873" lon="44.79176">
        <ele>396.067803</ele>
        <time>2021-08-13T13:45:09.971Z</time>
      </trkpt>
      <trkpt lat="41.30831" lon="44.7917">
        <ele>396.074682</ele>
        <time>2021-08-13T13:45:22.945Z</time>
      </trkpt>
      <trkpt lat="41.3082" lon="44.79167">
        <ele>396.076624</ele>
        <time>2021-08-13T13:45:26.543Z</time>
      </trkpt>
      <trkpt lat="41.30805" lon="44.79164">
        <ele>396.079082</ele>
        <time>2021-08-13T13:45:31.011Z</time>
      </trkpt>
      <trkpt lat="41.30735" lon="44.79154">
        <ele>396.038704</ele>
        <time>2021-08-13T13:45:52.041Z</time>
      </trkpt>
      <trkpt lat="41.30658" lon="44.79141">
        <ele>395.868921</ele>
        <time>2021-08-13T13:46:15.183Z</time>
      </trkpt>
      <trkpt lat="41.30608" lon="44.79123">
        <ele>395.754711</ele>
        <time>2021-08-13T13:46:30.355Z</time>
      </trkpt>
      <trkpt lat="41.30469" lon="44.79013">
        <ele>395.664129</ele>
        <time>2021-08-13T13:47:19.879Z</time>
      </trkpt>
      <trkpt lat="41.30463" lon="44.79008">
        <ele>395.662774</ele>
        <time>2021-08-13T13:47:22.149Z</time>
      </trkpt>
      <trkpt lat="41.30396" lon="44.78982">
        <ele>395.735905</ele>
        <time>2021-08-13T13:47:44.996Z</time>
      </trkpt>
      <trkpt lat="41.30302" lon="44.78975">
        <ele>395.986992</ele>
        <time>2021-08-13T13:48:15.252Z</time>
      </trkpt>
      <trkpt lat="41.30288" lon="44.78975">
        <ele>396.025997</ele>
        <time>2021-08-13T13:48:20.009Z</time>
      </trkpt>
      <trkpt lat="41.30171" lon="44.78966">
        <ele>396.583569</ele>
        <time>2021-08-13T13:48:58.822Z</time>
      </trkpt>
      <trkpt lat="41.30046" lon="44.78933">
        <ele>397.514264</ele>
        <time>2021-08-13T13:49:43.420Z</time>
      </trkpt>
      <trkpt lat="41.29937" lon="44.78904">
        <ele>399.012437</ele>
        <time>2021-08-13T13:50:26.105Z</time>
      </trkpt>
      <trkpt lat="41.29849" lon="44.78889">
        <ele>400.457144</ele>
        <time>2021-08-13T13:51:03.215Z</time>
      </trkpt>
      <trkpt lat="41.29742" lon="44.78893">
        <ele>402.534522</ele>
        <time>2021-08-13T13:51:49.254Z</time>
      </trkpt>
      <trkpt lat="41.29654" lon="44.78898">
        <ele>403.797364</ele>
        <time>2021-08-13T13:52:24.470Z</time>
      </trkpt>
      <trkpt lat="41.29621" lon="44.78898">
        <ele>404.189069</ele>
        <time>2021-08-13T13:52:36.839Z</time>
      </trkpt>
      <trkpt lat="41.29596" lon="44.78895">
        <ele>404.484706</ele>
        <time>2021-08-13T13:52:45.982Z</time>
      </trkpt>
      <trkpt lat="41.2953" lon="44.7887">
        <ele>405.278102</ele>
        <time>2021-08-13T13:53:10.441Z</time>
      </trkpt>
      <trkpt lat="41.29503" lon="44.78856">
        <ele>405.465241</ele>
        <time>2021-08-13T13:53:20.531Z</time>
      </trkpt>
      <trkpt lat="41.29376" lon="44.78795">
        <ele>406.339056</ele>
        <time>2021-08-13T13:54:07.664Z</time>
      </trkpt>
      <trkpt lat="41.29361" lon="44.7879">
        <ele>406.418015</ele>
        <time>2021-08-13T13:54:12.851Z</time>
      </trkpt>
      <trkpt lat="41.29314" lon="44.78788">
        <ele>406.476674</ele>
        <time>2021-08-13T13:54:28.664Z</time>
      </trkpt>
      <trkpt lat="41.29244" lon="44.78797">
        <ele>406.565109</ele>
        <time>2021-08-13T13:54:51.228Z</time>
      </trkpt>
      <trkpt lat="41.29053" lon="44.78819">
        <ele>406.468137</ele>
        <time>2021-08-13T13:55:48.155Z</time>
      </trkpt>
      <trkpt lat="41.29031" lon="44.78825">
        <ele>406.439712</ele>
        <time>2021-08-13T13:55:55.003Z</time>
      </trkpt>
      <trkpt lat="41.28777" lon="44.78918">
        <ele>407.436523</ele>
        <time>2021-08-13T13:57:21.395Z</time>
      </trkpt>
      <trkpt lat="41.28676" lon="44.78955">
        <ele>408.42375</ele>
        <time>2021-08-13T13:58:01.627Z</time>
      </trkpt>
      <trkpt lat="41.28576" lon="44.79003">
        <ele>409.529431</ele>
        <time>2021-08-13T13:58:41.783Z</time>
      </trkpt>
      <trkpt lat="41.28534" lon="44.79025">
        <ele>410.007343</ele>
        <time>2021-08-13T13:58:58.327Z</time>
      </trkpt>
      <trkpt lat="41.28489" lon="44.79042">
        <ele>410.495198</ele>
        <time>2021-08-13T13:59:15.245Z</time>
      </trkpt>
      <trkpt lat="41.28205" lon="44.79088">
        <ele>412.404267</ele>
        <time>2021-08-13T14:00:57.213Z</time>
      </trkpt>
      <trkpt lat="41.28152" lon="44.79094">
        <ele>412.608497</ele>
        <time>2021-08-13T14:01:13.780Z</time>
      </trkpt>
      <trkpt lat="41.28104" lon="44.79093">
        <ele>412.47652</ele>
        <time>2021-08-13T14:01:27.741Z</time>
      </trkpt>
      <trkpt lat="41.28078" lon="44.79091">
        <ele>412.308464</ele>
        <time>2021-08-13T14:01:34.933Z</time>
      </trkpt>
      <trkpt lat="41.28041" lon="44.7909">
        <ele>412.071495</ele>
        <time>2021-08-13T14:01:44.834Z</time>
      </trkpt>
      <trkpt lat="41.2795" lon="44.79088">
        <ele>411.507418</ele>
        <time>2021-08-13T14:02:10.289Z</time>
      </trkpt>
      <trkpt lat="41.27873" lon="44.79085">
        <ele>411.387326</ele>
        <time>2021-08-13T14:02:32.671Z</time>
      </trkpt>
      <trkpt lat="41.27857" lon="44.79085">
        <ele>411.361853</ele>
        <time>2021-08-13T14:02:37.613Z</time>
      </trkpt>
      <trkpt lat="41.27813" lon="44.79082">
        <ele>411.292006</ele>
        <time>2021-08-13T14:02:51.568Z</time>
      </trkpt>
      <trkpt lat="41.27643" lon="44.79094">
        <ele>411.491694</ele>
        <time>2021-08-13T14:03:46.750Z</time>
      </trkpt>
      <trkpt lat="41.27637" lon="44.79093">
        <ele>411.504632</ele>
        <time>2021-08-13T14:03:48.812Z</time>
      </trkpt>
      <trkpt lat="41.27629" lon="44.79091">
        <ele>411.520421</ele>
        <time>2021-08-13T14:03:51.322Z</time>
      </trkpt>
      <trkpt lat="41.27613" lon="44.79087">
        <ele>411.552598</ele>
        <time>2021-08-13T14:03:56.442Z</time>
      </trkpt>
      <trkpt lat="41.27522" lon="44.79058">
        <ele>411.731403</ele>
        <time>2021-08-13T14:04:25.570Z</time>
      </trkpt>
      <trkpt lat="41.27484" lon="44.79052">
        <ele>411.805881</ele>
        <time>2021-08-13T14:04:37.816Z</time>
      </trkpt>
      <trkpt lat="41.27421" lon="44.79049">
        <ele>411.926748</ele>
        <time>2021-08-13T14:04:58.596Z</time>
      </trkpt>
      <trkpt lat="41.27357" lon="44.7905">
        <ele>412.550059</ele>
        <time>2021-08-13T14:05:20.581Z</time>
      </trkpt>
      <trkpt lat="41.26965" lon="44.7909">
        <ele>416.809998</ele>
        <time>2021-08-13T14:07:47.386Z</time>
      </trkpt>
      <trkpt lat="41.26792" lon="44.79133">
        <ele>419.270884</ele>
        <time>2021-08-13T14:08:57.824Z</time>
      </trkpt>
      <trkpt lat="41.26621" lon="44.79191">
        <ele>421.299854</ele>
        <time>2021-08-13T14:10:05.620Z</time>
      </trkpt>
      <trkpt lat="41.26588" lon="44.7921">
        <ele>421.604557</ele>
        <time>2021-08-13T14:10:18.156Z</time>
      </trkpt>
      <trkpt lat="41.2656" lon="44.79242">
        <ele>421.916447</ele>
        <time>2021-08-13T14:10:30.475Z</time>
      </trkpt>
      <trkpt lat="41.26486" lon="44.79376">
        <ele>422.252492</ele>
        <time>2021-08-13T14:11:10.391Z</time>
      </trkpt>
      <trkpt lat="41.26457" lon="44.79405">
        <ele>422.31267</ele>
        <time>2021-08-13T14:11:22.222Z</time>
      </trkpt>
      <trkpt lat="41.2644" lon="44.79414">
        <ele>422.342454</ele>
        <time>2021-08-13T14:11:27.739Z</time>
      </trkpt>
      <trkpt lat="41.26432" lon="44.79416">
        <ele>422.355496</ele>
        <time>2021-08-13T14:11:30.689Z</time>
      </trkpt>
      <trkpt lat="41.26341" lon="44.79442">
        <ele>422.285841</ele>
        <time>2021-08-13T14:11:59.500Z</time>
      </trkpt>
      <trkpt lat="41.26333" lon="44.79445">
        <ele>422.276362</ele>
        <time>2021-08-13T14:12:02.594Z</time>
      </trkpt>
      <trkpt lat="41.26139" lon="44.79593">
        <ele>421.71578</ele>
        <time>2021-08-13T14:13:08.156Z</time>
      </trkpt>
      <trkpt lat="41.26121" lon="44.79602">
        <ele>421.646731</ele>
        <time>2021-08-13T14:13:13.838Z</time>
      </trkpt>
      <trkpt lat="41.26101" lon="44.7961">
        <ele>421.57433</ele>
        <time>2021-08-13T14:13:19.904Z</time>
      </trkpt>
      <trkpt lat="41.25883" lon="44.7964">
        <ele>421.073618</ele>
        <time>2021-08-13T14:14:26.307Z</time>
      </trkpt>
      <trkpt lat="41.25848" lon="44.79659">
        <ele>420.918023</ele>
        <time>2021-08-13T14:14:37.494Z</time>
      </trkpt>
      <trkpt lat="41.2578" lon="44.79723">
        <ele>420.575734</ele>
        <time>2021-08-13T14:15:01.490Z</time>
      </trkpt>
      <trkpt lat="41.25764" lon="44.79733">
        <ele>420.502825</ele>
        <time>2021-08-13T14:15:06.419Z</time>
      </trkpt>
      <trkpt lat="41.25649" lon="44.79785">
        <ele>420.069887</ele>
        <time>2021-08-13T14:15:40.847Z</time>
      </trkpt>
      <trkpt lat="41.25591" lon="44.79826">
        <ele>419.837361</ele>
        <time>2021-08-13T14:16:01.139Z</time>
      </trkpt>
      <trkpt lat="41.25585" lon="44.79833">
        <ele>419.870808</ele>
        <time>2021-08-13T14:16:03.657Z</time>
      </trkpt>
      <trkpt lat="41.25559" lon="44.79863">
        <ele>420.00659</ele>
        <time>2021-08-13T14:16:14.550Z</time>
      </trkpt>
      <trkpt lat="41.25508" lon="44.79925">
        <ele>420.288216</ele>
        <time>2021-08-13T14:16:37.808Z</time>
      </trkpt>
      <trkpt lat="41.2547" lon="44.79975">
        <ele>420.504375</ele>
        <time>2021-08-13T14:16:56.255Z</time>
      </trkpt>
      <trkpt lat="41.25443" lon="44.79997">
        <ele>420.687056</ele>
        <time>2021-08-13T14:17:07.360Z</time>
      </trkpt>
      <trkpt lat="41.25399" lon="44.79997">
        <ele>421.012245</ele>
        <time>2021-08-13T14:17:22.654Z</time>
      </trkpt>
      <trkpt lat="41.25313" lon="44.79972">
        <ele>421.666747</ele>
        <time>2021-08-13T14:17:53.772Z</time>
      </trkpt>
      <trkpt lat="41.25265" lon="44.79964">
        <ele>422.036355</ele>
        <time>2021-08-13T14:18:11.082Z</time>
      </trkpt>
      <trkpt lat="41.25216" lon="44.79964">
        <ele>422.436966</ele>
        <time>2021-08-13T14:18:29.012Z</time>
      </trkpt>
      <trkpt lat="41.25182" lon="44.79964">
        <ele>422.711878</ele>
        <time>2021-08-13T14:18:41.313Z</time>
      </trkpt>
      <trkpt lat="41.24983" lon="44.79992">
        <ele>424.264824</ele>
        <time>2021-08-13T14:19:51.482Z</time>
      </trkpt>
      <trkpt lat="41.24932" lon="44.79992">
        <ele>424.648969</ele>
        <time>2021-08-13T14:20:09.265Z</time>
      </trkpt>
      <trkpt lat="41.24893" lon="44.79993">
        <ele>425.066987</ele>
        <time>2021-08-13T14:20:23.214Z</time>
      </trkpt>
      <trkpt lat="41.24855" lon="44.79985">
        <ele>425.508121</ele>
        <time>2021-08-13T14:20:37.680Z</time>
      </trkpt>
      <trkpt lat="41.24818" lon="44.79969">
        <ele>425.962488</ele>
        <time>2021-08-13T14:20:52.548Z</time>
      </trkpt>
      <trkpt lat="41.24794" lon="44.79951">
        <ele>426.276848</ele>
        <time>2021-08-13T14:21:02.712Z</time>
      </trkpt>
      <trkpt lat="41.24741" lon="44.799">
        <ele>427.194906</ele>
        <time>2021-08-13T14:21:27.738Z</time>
      </trkpt>
      <trkpt lat="41.24728" lon="44.79892">
        <ele>427.476356</ele>
        <time>2021-08-13T14:21:33.651Z</time>
      </trkpt>
      <trkpt lat="41.24708" lon="44.79895">
        <ele>427.872427</ele>
        <time>2021-08-13T14:21:42.184Z</time>
      </trkpt>
      <trkpt lat="41.24621" lon="44.79927">
        <ele>429.643005</ele>
        <time>2021-08-13T14:22:21.503Z</time>
      </trkpt>
      <trkpt lat="41.24613" lon="44.79926">
        <ele>429.810586</ele>
        <time>2021-08-13T14:22:24.799Z</time>
      </trkpt>
      <trkpt lat="41.24604" lon="44.7992">
        <ele>430.015521</ele>
        <time>2021-08-13T14:22:29.748Z</time>
      </trkpt>
      <trkpt lat="41.24596" lon="44.79907">
        <ele>430.25011</ele>
        <time>2021-08-13T14:22:34.909Z</time>
      </trkpt>
      <trkpt lat="41.24566" lon="44.79847">
        <ele>431.687637</ele>
        <time>2021-08-13T14:22:57.514Z</time>
      </trkpt>
      <trkpt lat="41.24546" lon="44.79809">
        <ele>432.633056</ele>
        <time>2021-08-13T14:23:13.244Z</time>
      </trkpt>
      <trkpt lat="41.24539" lon="44.79797">
        <ele>432.948094</ele>
        <time>2021-08-13T14:23:18.949Z</time>
      </trkpt>
      <trkpt lat="41.24526" lon="44.79779">
        <ele>433.4507</ele>
        <time>2021-08-13T14:23:27.213Z</time>
      </trkpt>
      <trkpt lat="41.24519" lon="44.79774">
        <ele>433.662348</ele>
        <time>2021-08-13T14:23:31.299Z</time>
      </trkpt>
      <trkpt lat="41.24478" lon="44.79686">
        <ele>436.050269</ele>
        <time>2021-08-13T14:24:25.932Z</time>
      </trkpt>
      <trkpt lat="41.24474" lon="44.79677">
        <ele>436.359207</ele>
        <time>2021-08-13T14:24:31.901Z</time>
      </trkpt>
      <trkpt lat="41.24445" lon="44.79608">
        <ele>438.705803</ele>
        <time>2021-08-13T14:25:14.083Z</time>
      </trkpt>
      <trkpt lat="41.2444" lon="44.79583">
        <ele>439.494126</ele>
        <time>2021-08-13T14:25:29.121Z</time>
      </trkpt>
      <trkpt lat="41.24432" lon="44.79527">
        <ele>441.189712</ele>
        <time>2021-08-13T14:26:02.365Z</time>
      </trkpt>
      <trkpt lat="41.24417" lon="44.79436">
        <ele>444.303758</ele>
        <time>2021-08-13T14:26:56.781Z</time>
      </trkpt>
      <trkpt lat="41.24416" lon="44.79432">
        <ele>444.46441</ele>
        <time>2021-08-13T14:27:00.157Z</time>
      </trkpt>
      <trkpt lat="41.24406" lon="44.79396">
        <ele>445.811537</ele>
        <time>2021-08-13T14:27:21.899Z</time>
      </trkpt>
      <trkpt lat="41.24399" lon="44.79373">
        <ele>446.686749</ele>
        <time>2021-08-13T14:27:36.859Z</time>
      </trkpt>
      <trkpt lat="41.24383" lon="44.79331">
        <ele>448.407721</ele>
        <time>2021-08-13T14:28:05.268Z</time>
      </trkpt>
      <trkpt lat="41.24353" lon="44.79253">
        <ele>451.443866</ele>
        <time>2021-08-13T14:28:57.386Z</time>
      </trkpt>
      <trkpt lat="41.24342" lon="44.7921">
        <ele>452.856663</ele>
        <time>2021-08-13T14:29:23.985Z</time>
      </trkpt>
      <trkpt lat="41.24319" lon="44.79058">
        <ele>457.673948</ele>
        <time>2021-08-13T14:30:51.813Z</time>
      </trkpt>
      <trkpt lat="41.24308" lon="44.78988">
        <ele>458.981645</ele>
        <time>2021-08-13T14:31:29.195Z</time>
      </trkpt>
      <trkpt lat="41.24306" lon="44.78972">
        <ele>459.210149</ele>
        <time>2021-08-13T14:31:37.696Z</time>
      </trkpt>
      <trkpt lat="41.24306" lon="44.78943">
        <ele>459.606306</ele>
        <time>2021-08-13T14:31:51.690Z</time>
      </trkpt>
      <trkpt lat="41.24307" lon="44.78925">
        <ele>459.850846</ele>
        <time>2021-08-13T14:32:00.249Z</time>
      </trkpt>
      <trkpt lat="41.24298" lon="44.78864">
        <ele>460.691981</ele>
        <time>2021-08-13T14:32:27.751Z</time>
      </trkpt>
      <trkpt lat="41.24303" lon="44.78834">
        <ele>461.115587</ele>
        <time>2021-08-13T14:32:40.544Z</time>
      </trkpt>
      <trkpt lat="41.24313" lon="44.78821">
        <ele>461.365396</ele>
        <time>2021-08-13T14:32:48.196Z</time>
      </trkpt>
      <trkpt lat="41.24395" lon="44.78725">
        <ele>461.948825</ele>
        <time>2021-08-13T14:33:45.328Z</time>
      </trkpt>
      <trkpt lat="41.24402" lon="44.78714">
        <ele>461.992488</ele>
        <time>2021-08-13T14:33:51.489Z</time>
      </trkpt>
      <trkpt lat="41.24409" lon="44.78698">
        <ele>462.046249</ele>
        <time>2021-08-13T14:33:58.276Z</time>
      </trkpt>
      <trkpt lat="41.24408" lon="44.78681">
        <ele>462.098062</ele>
        <time>2021-08-13T14:34:05.717Z</time>
      </trkpt>
      <trkpt lat="41.24403" lon="44.78665">
        <ele>462.151209</ele>
        <time>2021-08-13T14:34:13.059Z</time>
      </trkpt>
      <trkpt lat="41.2438" lon="44.78605">
        <ele>462.607759</ele>
        <time>2021-08-13T14:34:40.565Z</time>
      </trkpt>
      <trkpt lat="41.24362" lon="44.7856">
        <ele>463.26667</ele>
        <time>2021-08-13T14:35:03.423Z</time>
      </trkpt>
      <trkpt lat="41.24359" lon="44.78549">
        <ele>463.411304</ele>
        <time>2021-08-13T14:35:08.934Z</time>
      </trkpt>
      <trkpt lat="41.24358" lon="44.78537">
        <ele>463.566109</ele>
        <time>2021-08-13T14:35:14.504Z</time>
      </trkpt>
      <trkpt lat="41.2437" lon="44.78467">
        <ele>464.482067</ele>
        <time>2021-08-13T14:35:48.522Z</time>
      </trkpt>
      <trkpt lat="41.24369" lon="44.78442">
        <ele>464.80847</ele>
        <time>2021-08-13T14:36:01.129Z</time>
      </trkpt>
      <trkpt lat="41.24367" lon="44.78424">
        <ele>465.043042</ele>
        <time>2021-08-13T14:36:10.009Z</time>
      </trkpt>
      <trkpt lat="41.24363" lon="44.78391">
        <ele>465.522861</ele>
        <time>2021-08-13T14:36:26.353Z</time>
      </trkpt>
      <trkpt lat="41.24352" lon="44.78367">
        <ele>466.04227</ele>
        <time>2021-08-13T14:36:40.340Z</time>
      </trkpt>
      <trkpt lat="41.24338" lon="44.78347">
        <ele>466.545344</ele>
        <time>2021-08-13T14:36:53.870Z</time>
      </trkpt>
      <trkpt lat="41.24272" lon="44.78264">
        <ele>468.760337</ele>
        <time>2021-08-13T14:37:53.116Z</time>
      </trkpt>
      <trkpt lat="41.24225" lon="44.78213">
        <ele>470.283888</ele>
        <time>2021-08-13T14:38:33.007Z</time>
      </trkpt>
      <trkpt lat="41.24172" lon="44.78155">
        <ele>472.152059</ele>
        <time>2021-08-13T14:39:19.356Z</time>
      </trkpt>
      <trkpt lat="41.24141" lon="44.78122">
        <ele>473.21268</ele>
        <time>2021-08-13T14:39:45.862Z</time>
      </trkpt>
      <trkpt lat="41.24121" lon="44.78101">
        <ele>473.908778</ele>
        <time>2021-08-13T14:40:02.854Z</time>
      </trkpt>
      <trkpt lat="41.24113" lon="44.7809">
        <ele>474.225865</ele>
        <time>2021-08-13T14:40:11.049Z</time>
      </trkpt>
      <trkpt lat="41.24102" lon="44.78068">
        <ele>474.781697</ele>
        <time>2021-08-13T14:40:23.799Z</time>
      </trkpt>
      <trkpt lat="41.241" lon="44.78062">
        <ele>474.928083</ele>
        <time>2021-08-13T14:40:27.140Z</time>
      </trkpt>
      <trkpt lat="41.2409" lon="44.7803">
        <ele>475.73656</ele>
        <time>2021-08-13T14:40:45.137Z</time>
      </trkpt>
      <trkpt lat="41.24071" lon="44.77971">
        <ele>477.210904</ele>
        <time>2021-08-13T14:41:18.660Z</time>
      </trkpt>
      <trkpt lat="41.24044" lon="44.77894">
        <ele>479.164438</ele>
        <time>2021-08-13T14:42:03.019Z</time>
      </trkpt>
      <trkpt lat="41.24031" lon="44.77843">
        <ele>480.400593</ele>
        <time>2021-08-13T14:42:31.658Z</time>
      </trkpt>
      <trkpt lat="41.24019" lon="44.7779">
        <ele>481.626353</ele>
        <time>2021-08-13T14:43:01.061Z</time>
      </trkpt>
      <trkpt lat="41.24008" lon="44.77747">
        <ele>482.611398</ele>
        <time>2021-08-13T14:43:24.503Z</time>
      </trkpt>
      <trkpt lat="41.23998" lon="44.7772">
        <ele>483.291491</ele>
        <time>2021-08-13T14:43:41.144Z</time>
      </trkpt>
      <trkpt lat="41.23983" lon="44.77687">
        <ele>484.124302</ele>
        <time>2021-08-13T14:44:00.881Z</time>
      </trkpt>
      <trkpt lat="41.23966" lon="44.77658">
        <ele>484.951184</ele>
        <time>2021-08-13T14:44:19.613Z</time>
      </trkpt>
      <trkpt lat="41.23936" lon="44.77601">
        <ele>485.800112</ele>
        <time>2021-08-13T14:44:52.138Z</time>
      </trkpt>
      <trkpt lat="41.23926" lon="44.77573">
        <ele>486.074818</ele>
        <time>2021-08-13T14:45:05.400Z</time>
      </trkpt>
      <trkpt lat="41.23925" lon="44.77566">
        <ele>486.13959</ele>
        <time>2021-08-13T14:45:09.057Z</time>
      </trkpt>
      <trkpt lat="41.23924" lon="44.77542">
        <ele>486.350107</ele>
        <time>2021-08-13T14:45:18.766Z</time>
      </trkpt>
      <trkpt lat="41.23929" lon="44.77481">
        <ele>486.896465</ele>
        <time>2021-08-13T14:45:44.890Z</time>
      </trkpt>
      <trkpt lat="41.23939" lon="44.77406">
        <ele>487.620345</ele>
        <time>2021-08-13T14:46:17.167Z</time>
      </trkpt>
      <trkpt lat="41.23947" lon="44.77339">
        <ele>488.588575</ele>
        <time>2021-08-13T14:46:46.242Z</time>
      </trkpt>
      <trkpt lat="41.2395" lon="44.77318">
        <ele>488.894175</ele>
        <time>2021-08-13T14:46:53.058Z</time>
      </trkpt>
      <trkpt lat="41.23941" lon="44.7728">
        <ele>489.464801</ele>
        <time>2021-08-13T14:47:05.396Z</time>
      </trkpt>
      <trkpt lat="41.23932" lon="44.77261">
        <ele>489.784835</ele>
        <time>2021-08-13T14:47:12.533Z</time>
      </trkpt>
      <trkpt lat="41.23902" lon="44.77205">
        <ele>490.754426</ele>
        <time>2021-08-13T14:47:36.491Z</time>
      </trkpt>
      <trkpt lat="41.2384" lon="44.77112">
        <ele>494.798907</ele>
        <time>2021-08-13T14:48:28.351Z</time>
      </trkpt>
      <trkpt lat="41.23812" lon="44.77064">
        <ele>496.869255</ele>
        <time>2021-08-13T14:48:56.330Z</time>
      </trkpt>
      <trkpt lat="41.238" lon="44.77031">
        <ele>498.111213</ele>
        <time>2021-08-13T14:49:13.278Z</time>
      </trkpt>
      <trkpt lat="41.23798" lon="44.76984">
        <ele>499.933396</ele>
        <time>2021-08-13T14:49:35.466Z</time>
      </trkpt>
      <trkpt lat="41.23807" lon="44.76947">
        <ele>501.631343</ele>
        <time>2021-08-13T14:49:54.032Z</time>
      </trkpt>
      <trkpt lat="41.23826" lon="44.76901">
        <ele>503.940759</ele>
        <time>2021-08-13T14:50:19.218Z</time>
      </trkpt>
      <trkpt lat="41.23878" lon="44.76742">
        <ele>511.696727</ele>
        <time>2021-08-13T14:51:46.523Z</time>
      </trkpt>
      <trkpt lat="41.23882" lon="44.7672">
        <ele>512.784639</ele>
        <time>2021-08-13T14:51:57.898Z</time>
      </trkpt>
      <trkpt lat="41.23889" lon="44.76605">
        <ele>518.320447</ele>
        <time>2021-08-13T14:52:56.940Z</time>
      </trkpt>
      <trkpt lat="41.23911" lon="44.76491">
        <ele>524.344989</ele>
        <time>2021-08-13T14:53:58.292Z</time>
      </trkpt>
      <trkpt lat="41.23941" lon="44.76407">
        <ele>529.399203</ele>
        <time>2021-08-13T14:54:47.777Z</time>
      </trkpt>
      <trkpt lat="41.23997" lon="44.76331">
        <ele>535.32999</ele>
        <time>2021-08-13T14:55:51.347Z</time>
      </trkpt>
      <trkpt lat="41.24039" lon="44.76262">
        <ele>540.555361</ele>
        <time>2021-08-13T14:56:42.543Z</time>
      </trkpt>
      <trkpt lat="41.24061" lon="44.76212">
        <ele>543.973506</ele>
        <time>2021-08-13T14:57:15.960Z</time>
      </trkpt>
      <trkpt lat="41.24144" lon="44.76021">
        <ele>556.390707</ele>
        <time>2021-08-13T14:59:19.808Z</time>
      </trkpt>
      <trkpt lat="41.24167" lon="44.75941">
        <ele>561.0864</ele>
        <time>2021-08-13T15:00:05.140Z</time>
      </trkpt>
      <trkpt lat="41.2417" lon="44.75884">
        <ele>564.159665</ele>
        <time>2021-08-13T15:00:36.423Z</time>
      </trkpt>
      <trkpt lat="41.24166" lon="44.75838">
        <ele>566.662544</ele>
        <time>2021-08-13T15:01:02.527Z</time>
      </trkpt>
      <trkpt lat="41.24109" lon="44.75631">
        <ele>577.806191</ele>
        <time>2021-08-13T15:03:03.262Z</time>
      </trkpt>
      <trkpt lat="41.24092" lon="44.7543">
        <ele>585.973521</ele>
        <time>2021-08-13T15:04:38.925Z</time>
      </trkpt>
      <trkpt lat="41.24058" lon="44.75309">
        <ele>589.270182</ele>
        <time>2021-08-13T15:05:26.895Z</time>
      </trkpt>
      <trkpt lat="41.24029" lon="44.75228">
        <ele>591.456745</ele>
        <time>2021-08-13T15:05:57.004Z</time>
      </trkpt>
      <trkpt lat="41.23998" lon="44.75129">
        <ele>593.764429</ele>
        <time>2021-08-13T15:06:35.557Z</time>
      </trkpt>
      <trkpt lat="41.23991" lon="44.75095">
        <ele>594.526534</ele>
        <time>2021-08-13T15:06:54.233Z</time>
      </trkpt>
      <trkpt lat="41.23982" lon="44.75049">
        <ele>595.546357</ele>
        <time>2021-08-13T15:07:18.612Z</time>
      </trkpt>
      <trkpt lat="41.23976" lon="44.75007">
        <ele>596.647238</ele>
        <time>2021-08-13T15:07:40.556Z</time>
      </trkpt>
      <trkpt lat="41.23966" lon="44.74932">
        <ele>599.001853</ele>
        <time>2021-08-13T15:08:23.023Z</time>
      </trkpt>
      <trkpt lat="41.23953" lon="44.74817">
        <ele>602.60446</ele>
        <time>2021-08-13T15:09:31.250Z</time>
      </trkpt>
      <trkpt lat="41.23991" lon="44.74581">
        <ele>611.113347</ele>
        <time>2021-08-13T15:11:49.580Z</time>
      </trkpt>
      <trkpt lat="41.24087" lon="44.7412">
        <ele>634.927932</ele>
        <time>2021-08-13T15:17:12.188Z</time>
      </trkpt>
      <trkpt lat="41.24153" lon="44.73876">
        <ele>649.501096</ele>
        <time>2021-08-13T15:20:19.552Z</time>
      </trkpt>
      <trkpt lat="41.24172" lon="44.73817">
        <ele>652.050458</ele>
        <time>2021-08-13T15:21:02.161Z</time>
      </trkpt>
      <trkpt lat="41.24158" lon="44.73733">
        <ele>655.327798</ele>
        <time>2021-08-13T15:21:55.130Z</time>
      </trkpt>
      <trkpt lat="41.24166" lon="44.73634">
        <ele>659.016697</ele>
        <time>2021-08-13T15:22:50.225Z</time>
      </trkpt>
      <trkpt lat="41.24167" lon="44.73622">
        <ele>659.2643</ele>
        <time>2021-08-13T15:22:57.060Z</time>
      </trkpt>
      <trkpt lat="41.24173" lon="44.73497">
        <ele>661.752262</ele>
        <time>2021-08-13T15:23:57.574Z</time>
      </trkpt>
      <trkpt lat="41.24175" lon="44.73381">
        <ele>664.168409</ele>
        <time>2021-08-13T15:24:55.019Z</time>
      </trkpt>
      <trkpt lat="41.24179" lon="44.73266">
        <ele>666.987872</ele>
        <time>2021-08-13T15:25:55.652Z</time>
      </trkpt>
      <trkpt lat="41.24185" lon="44.73234">
        <ele>667.824375</ele>
        <time>2021-08-13T15:26:13.663Z</time>
      </trkpt>
      <trkpt lat="41.24187" lon="44.73222">
        <ele>668.106149</ele>
        <time>2021-08-13T15:26:20.031Z</time>
      </trkpt>
      <trkpt lat="41.24201" lon="44.73196">
        <ele>668.913605</ele>
        <time>2021-08-13T15:26:36.927Z</time>
      </trkpt>
      <trkpt lat="41.24221" lon="44.7317">
        <ele>669.943901</ele>
        <time>2021-08-13T15:26:56.234Z</time>
      </trkpt>
      <trkpt lat="41.24224" lon="44.7315">
        <ele>670.669967</ele>
        <time>2021-08-13T15:27:09.004Z</time>
      </trkpt>
      <trkpt lat="41.24221" lon="44.73131">
        <ele>671.389633</ele>
        <time>2021-08-13T15:27:19.050Z</time>
      </trkpt>
      <trkpt lat="41.24212" lon="44.73104">
        <ele>672.462234</ele>
        <time>2021-08-13T15:27:37.243Z</time>
      </trkpt>
      <trkpt lat="41.24174" lon="44.7299">
        <ele>676.97932</ele>
        <time>2021-08-13T15:28:51.247Z</time>
      </trkpt>
      <trkpt lat="41.24174" lon="44.7299">
        <ele>676.97932</ele>
        <time>2021-08-13T15:28:51.619Z</time>
      </trkpt>
      <trkpt lat="41.24145" lon="44.72863">
        <ele>683.167076</ele>
        <time>2021-08-13T15:30:15.185Z</time>
      </trkpt>
      <trkpt lat="41.24144" lon="44.72844">
        <ele>684.09768</ele>
        <time>2021-08-13T15:30:28.580Z</time>
      </trkpt>
      <trkpt lat="41.24146" lon="44.72744">
        <ele>689.154298</ele>
        <time>2021-08-13T15:31:23.353Z</time>
      </trkpt>
      <trkpt lat="41.24149" lon="44.72679">
        <ele>692.571154</ele>
        <time>2021-08-13T15:31:58.999Z</time>
      </trkpt>
      <trkpt lat="41.24157" lon="44.72605">
        <ele>696.583499</ele>
        <time>2021-08-13T15:32:40.430Z</time>
      </trkpt>
      <trkpt lat="41.2416" lon="44.7249">
        <ele>702.731404</ele>
        <time>2021-08-13T15:33:40.712Z</time>
      </trkpt>
      <trkpt lat="41.2414" lon="44.72329">
        <ele>710.099459</ele>
        <time>2021-08-13T15:35:02.972Z</time>
      </trkpt>
      <trkpt lat="41.2416" lon="44.72073">
        <ele>720.109821</ele>
        <time>2021-08-13T15:36:57.651Z</time>
      </trkpt>
      <trkpt lat="41.24159" lon="44.72041">
        <ele>721.273039</ele>
        <time>2021-08-13T15:37:10.912Z</time>
      </trkpt>
      <trkpt lat="41.24138" lon="44.71848">
        <ele>728.036654</ele>
        <time>2021-08-13T15:38:32.372Z</time>
      </trkpt>
      <trkpt lat="41.24128" lon="44.71662">
        <ele>734.974051</ele>
        <time>2021-08-13T15:39:55.099Z</time>
      </trkpt>
      <trkpt lat="41.24168" lon="44.71571">
        <ele>739.16279</ele>
        <time>2021-08-13T15:40:44.818Z</time>
      </trkpt>
      <trkpt lat="41.2417" lon="44.71554">
        <ele>739.842293</ele>
        <time>2021-08-13T15:40:52.890Z</time>
      </trkpt>
      <trkpt lat="41.24169" lon="44.71528">
        <ele>740.838621</ele>
        <time>2021-08-13T15:41:04.690Z</time>
      </trkpt>
      <trkpt lat="41.24138" lon="44.71374">
        <ele>747.086209</ele>
        <time>2021-08-13T15:42:18.144Z</time>
      </trkpt>
      <trkpt lat="41.24136" lon="44.7135">
        <ele>748.011014</ele>
        <time>2021-08-13T15:42:28.688Z</time>
      </trkpt>
      <trkpt lat="41.24172" lon="44.71071">
        <ele>758.07542</ele>
        <time>2021-08-13T15:44:31.143Z</time>
      </trkpt>
      <trkpt lat="41.24179" lon="44.71045">
        <ele>758.908942</ele>
        <time>2021-08-13T15:44:42.833Z</time>
      </trkpt>
      <trkpt lat="41.24203" lon="44.71008">
        <ele>760.369334</ele>
        <time>2021-08-13T15:45:03.058Z</time>
      </trkpt>
      <trkpt lat="41.24253" lon="44.70957">
        <ele>762.84302</ele>
        <time>2021-08-13T15:45:36.196Z</time>
      </trkpt>
      <trkpt lat="41.24261" lon="44.70857">
        <ele>765.694595</ele>
        <time>2021-08-13T15:46:14.548Z</time>
      </trkpt>
      <trkpt lat="41.24282" lon="44.70755">
        <ele>768.340151</ele>
        <time>2021-08-13T15:46:53.761Z</time>
      </trkpt>
      <trkpt lat="41.24283" lon="44.70628">
        <ele>771.595755</ele>
        <time>2021-08-13T15:47:40.520Z</time>
      </trkpt>
      <trkpt lat="41.24263" lon="44.70447">
        <ele>776.843422</ele>
        <time>2021-08-13T15:48:52.120Z</time>
      </trkpt>
      <trkpt lat="41.24265" lon="44.70414">
        <ele>777.818488</ele>
        <time>2021-08-13T15:49:06.473Z</time>
      </trkpt>
      <trkpt lat="41.24316" lon="44.7034">
        <ele>781.654766</ele>
        <time>2021-08-13T15:49:50.130Z</time>
      </trkpt>
      <trkpt lat="41.24378" lon="44.70119">
        <ele>790.987561</ele>
        <time>2021-08-13T15:51:40.104Z</time>
      </trkpt>
      <trkpt lat="41.24441" lon="44.69993">
        <ele>797.201035</ele>
        <time>2021-08-13T15:52:50.612Z</time>
      </trkpt>
      <trkpt lat="41.24472" lon="44.69893">
        <ele>801.875079</ele>
        <time>2021-08-13T15:53:40.742Z</time>
      </trkpt>
      <trkpt lat="41.24499" lon="44.69823">
        <ele>805.245587</ele>
        <time>2021-08-13T15:54:17.741Z</time>
      </trkpt>
      <trkpt lat="41.24511" lon="44.69732">
        <ele>809.809292</ele>
        <time>2021-08-13T15:55:02.964Z</time>
      </trkpt>
      <trkpt lat="41.24561" lon="44.69615">
        <ele>817.34059</ele>
        <time>2021-08-13T15:56:16.099Z</time>
      </trkpt>
      <trkpt lat="41.24571" lon="44.69571">
        <ele>819.881805</ele>
        <time>2021-08-13T15:56:42.982Z</time>
      </trkpt>
      <trkpt lat="41.24576" lon="44.69472">
        <ele>826.890894</ele>
        <time>2021-08-13T15:57:45.531Z</time>
      </trkpt>
      <trkpt lat="41.24563" lon="44.69427">
        <ele>830.383623</ele>
        <time>2021-08-13T15:58:17.371Z</time>
      </trkpt>
      <trkpt lat="41.24566" lon="44.69398">
        <ele>832.532522</ele>
        <time>2021-08-13T15:58:37.589Z</time>
      </trkpt>
      <trkpt lat="41.24577" lon="44.69378">
        <ele>834.308679</ele>
        <time>2021-08-13T15:58:54.399Z</time>
      </trkpt>
      <trkpt lat="41.24633" lon="44.69351">
        <ele>838.936654</ele>
        <time>2021-08-13T15:59:48.943Z</time>
      </trkpt>
      <trkpt lat="41.24646" lon="44.69337">
        <ele>839.70912</ele>
        <time>2021-08-13T16:00:01.916Z</time>
      </trkpt>
      <trkpt lat="41.24684" lon="44.69185">
        <ele>845.467903</ele>
        <time>2021-08-13T16:01:11.252Z</time>
      </trkpt>
      <trkpt lat="41.24733" lon="44.69069">
        <ele>842.846778</ele>
        <time>2021-08-13T16:01:35.073Z</time>
      </trkpt>
      <trkpt lat="41.24781" lon="44.69009">
        <ele>839.915568</ele>
        <time>2021-08-13T16:01:48.185Z</time>
      </trkpt>
      <trkpt lat="41.2479" lon="44.68988">
        <ele>839.110695</ele>
        <time>2021-08-13T16:01:51.709Z</time>
      </trkpt>
      <trkpt lat="41.24818" lon="44.68874">
        <ele>835.979835</ele>
        <time>2021-08-13T16:02:10.196Z</time>
      </trkpt>
      <trkpt lat="41.24846" lon="44.688">
        <ele>833.963372</ele>
        <time>2021-08-13T16:02:24.866Z</time>
      </trkpt>
      <trkpt lat="41.24849" lon="44.68781">
        <ele>833.474416</ele>
        <time>2021-08-13T16:02:28.566Z</time>
      </trkpt>
      <trkpt lat="41.24844" lon="44.68769">
        <ele>833.143564</ele>
        <time>2021-08-13T16:02:32.539Z</time>
      </trkpt>
      <trkpt lat="41.24834" lon="44.68757">
        <ele>832.70519</ele>
        <time>2021-08-13T16:02:36.223Z</time>
      </trkpt>
      <trkpt lat="41.2481" lon="44.68746">
        <ele>833.194363</ele>
        <time>2021-08-13T16:02:45.182Z</time>
      </trkpt>
      <trkpt lat="41.24364" lon="44.68656">
        <ele>848.574741</ele>
        <time>2021-08-13T16:06:38.206Z</time>
      </trkpt>
      <trkpt lat="41.24353" lon="44.68629">
        <ele>849.452566</ele>
        <time>2021-08-13T16:06:50.452Z</time>
      </trkpt>
      <trkpt lat="41.24338" lon="44.68562">
        <ele>851.460502</ele>
        <time>2021-08-13T16:07:18.923Z</time>
      </trkpt>
      <trkpt lat="41.24297" lon="44.68496">
        <ele>853.917679</ele>
        <time>2021-08-13T16:07:53.127Z</time>
      </trkpt>
      <trkpt lat="41.24284" lon="44.68448">
        <ele>855.385238</ele>
        <time>2021-08-13T16:08:13.385Z</time>
      </trkpt>
      <trkpt lat="41.24259" lon="44.68413">
        <ele>856.768617</ele>
        <time>2021-08-13T16:08:32.377Z</time>
      </trkpt>
      <trkpt lat="41.24173" lon="44.68367">
        <ele>860.060359</ele>
        <time>2021-08-13T16:09:19.819Z</time>
      </trkpt>
      <trkpt lat="41.24113" lon="44.6829">
        <ele>862.890914</ele>
        <time>2021-08-13T16:10:01.357Z</time>
      </trkpt>
      <trkpt lat="41.24094" lon="44.68247">
        <ele>864.13951</ele>
        <time>2021-08-13T16:10:19.564Z</time>
      </trkpt>
      <trkpt lat="41.24084" lon="44.68205">
        <ele>865.233637</ele>
        <time>2021-08-13T16:10:36.081Z</time>
      </trkpt>
      <trkpt lat="41.2408" lon="44.68148">
        <ele>866.642668</ele>
        <time>2021-08-13T16:10:57.415Z</time>
      </trkpt>
      <trkpt lat="41.23978" lon="44.67673">
        <ele>878.125567</ele>
        <time>2021-08-13T16:14:01.939Z</time>
      </trkpt>
      <trkpt lat="41.23921" lon="44.67261">
        <ele>883.871014</ele>
        <time>2021-08-13T16:16:08.475Z</time>
      </trkpt>
      <trkpt lat="41.239" lon="44.67024">
        <ele>886.636968</ele>
        <time>2021-08-13T16:17:19.436Z</time>
      </trkpt>
      <trkpt lat="41.23903" lon="44.66909">
        <ele>887.998117</ele>
        <time>2021-08-13T16:17:54.302Z</time>
      </trkpt>
      <trkpt lat="41.23884" lon="44.66805">
        <ele>889.233298</ele>
        <time>2021-08-13T16:18:26.603Z</time>
      </trkpt>
      <trkpt lat="41.23867" lon="44.66616">
        <ele>891.335303</ele>
        <time>2021-08-13T16:19:22.747Z</time>
      </trkpt>
      <trkpt lat="41.23867" lon="44.66401">
        <ele>894.22984</ele>
        <time>2021-08-13T16:20:27.174Z</time>
      </trkpt>
      <trkpt lat="41.23843" lon="44.66206">
        <ele>898.942602</ele>
        <time>2021-08-13T16:21:37.388Z</time>
      </trkpt>
      <trkpt lat="41.23837" lon="44.6618">
        <ele>899.642534</ele>
        <time>2021-08-13T16:21:48.363Z</time>
      </trkpt>
      <trkpt lat="41.23823" lon="44.66155">
        <ele>900.456636</ele>
        <time>2021-08-13T16:22:01.559Z</time>
      </trkpt>
      <trkpt lat="41.23732" lon="44.66037">
        <ele>907.840703</ele>
        <time>2021-08-13T16:23:20.701Z</time>
      </trkpt>
      <trkpt lat="41.23688" lon="44.65843">
        <ele>918.402583</ele>
        <time>2021-08-13T16:25:11.253Z</time>
      </trkpt>
      <trkpt lat="41.23687" lon="44.65795">
        <ele>921.093196</ele>
        <time>2021-08-13T16:25:38.159Z</time>
      </trkpt>
      <trkpt lat="41.23694" lon="44.65743">
        <ele>924.072591</ele>
        <time>2021-08-13T16:26:07.595Z</time>
      </trkpt>
      <trkpt lat="41.23723" lon="44.65665">
        <ele>928.195192</ele>
        <time>2021-08-13T16:26:56.342Z</time>
      </trkpt>
      <trkpt lat="41.23746" lon="44.65634">
        <ele>930.08362</ele>
        <time>2021-08-13T16:27:20.286Z</time>
      </trkpt>
      <trkpt lat="41.23795" lon="44.65591">
        <ele>933.495658</ele>
        <time>2021-08-13T16:27:56.904Z</time>
      </trkpt>
      <trkpt lat="41.23882" lon="44.6554">
        <ele>935.949898</ele>
        <time>2021-08-13T16:28:43.086Z</time>
      </trkpt>
      <trkpt lat="41.23894" lon="44.65524">
        <ele>935.990984</ele>
        <time>2021-08-13T16:28:48.268Z</time>
      </trkpt>
      <trkpt lat="41.239" lon="44.65505">
        <ele>936.031142</ele>
        <time>2021-08-13T16:28:54.397Z</time>
      </trkpt>
      <trkpt lat="41.23893" lon="44.65493">
        <ele>936.058567</ele>
        <time>2021-08-13T16:28:57.620Z</time>
      </trkpt>
      <trkpt lat="41.23789" lon="44.65464">
        <ele>935.62012</ele>
        <time>2021-08-13T16:29:23.992Z</time>
      </trkpt>
      <trkpt lat="41.23748" lon="44.65433">
        <ele>934.388982</ele>
        <time>2021-08-13T16:29:34.569Z</time>
      </trkpt>
      <trkpt lat="41.23699" lon="44.65378">
        <ele>932.707023</ele>
        <time>2021-08-13T16:29:49.440Z</time>
      </trkpt>
      <trkpt lat="41.23631" lon="44.65251">
        <ele>931.112066</ele>
        <time>2021-08-13T16:30:18.197Z</time>
      </trkpt>
      <trkpt lat="41.23608" lon="44.65189">
        <ele>930.78624</ele>
        <time>2021-08-13T16:30:33.111Z</time>
      </trkpt>
      <trkpt lat="41.23572" lon="44.65057">
        <ele>931.822695</ele>
        <time>2021-08-13T16:31:12.409Z</time>
      </trkpt>
      <trkpt lat="41.23546" lon="44.64983">
        <ele>933.483988</ele>
        <time>2021-08-13T16:31:41.332Z</time>
      </trkpt>
      <trkpt lat="41.23538" lon="44.6494">
        <ele>934.379235</ele>
        <time>2021-08-13T16:31:58.351Z</time>
      </trkpt>
      <trkpt lat="41.23542" lon="44.64831">
        <ele>937.35742</ele>
        <time>2021-08-13T16:32:43.198Z</time>
      </trkpt>
      <trkpt lat="41.23556" lon="44.64731">
        <ele>940.681868</ele>
        <time>2021-08-13T16:33:26.905Z</time>
      </trkpt>
      <trkpt lat="41.23559" lon="44.64669">
        <ele>942.712331</ele>
        <time>2021-08-13T16:33:53.089Z</time>
      </trkpt>
      <trkpt lat="41.2355" lon="44.64543">
        <ele>946.572669</ele>
        <time>2021-08-13T16:34:44.341Z</time>
      </trkpt>
      <trkpt lat="41.23552" lon="44.64493">
        <ele>948.109902</ele>
        <time>2021-08-13T16:35:04.401Z</time>
      </trkpt>
      <trkpt lat="41.23566" lon="44.64384">
        <ele>951.681366</ele>
        <time>2021-08-13T16:35:48.021Z</time>
      </trkpt>
      <trkpt lat="41.23604" lon="44.64192">
        <ele>958.828041</ele>
        <time>2021-08-13T16:37:15.569Z</time>
      </trkpt>
      <trkpt lat="41.23621" lon="44.64145">
        <ele>960.805321</ele>
        <time>2021-08-13T16:37:41.322Z</time>
      </trkpt>
      <trkpt lat="41.23667" lon="44.64084">
        <ele>964.061177</ele>
        <time>2021-08-13T16:38:20.975Z</time>
      </trkpt>
      <trkpt lat="41.2368" lon="44.6405">
        <ele>965.509277</ele>
        <time>2021-08-13T16:38:37.971Z</time>
      </trkpt>
      <trkpt lat="41.23685" lon="44.6403">
        <ele>966.289962</ele>
        <time>2021-08-13T16:38:48.325Z</time>
      </trkpt>
      <trkpt lat="41.23694" lon="44.63987">
        <ele>967.955889</ele>
        <time>2021-08-13T16:39:07.462Z</time>
      </trkpt>
      <trkpt lat="41.23733" lon="44.63795">
        <ele>972.267129</ele>
        <time>2021-08-13T16:40:19.611Z</time>
      </trkpt>
      <trkpt lat="41.23791" lon="44.63569">
        <ele>975.090059</ele>
        <time>2021-08-13T16:41:29.096Z</time>
      </trkpt>
      <trkpt lat="41.23829" lon="44.635">
        <ele>975.920358</ele>
        <time>2021-08-13T16:41:51.967Z</time>
      </trkpt>
      <trkpt lat="41.23891" lon="44.63429">
        <ele>976.963681</ele>
        <time>2021-08-13T16:42:21.355Z</time>
      </trkpt>
      <trkpt lat="41.23915" lon="44.63385">
        <ele>977.481797</ele>
        <time>2021-08-13T16:42:37.138Z</time>
      </trkpt>
      <trkpt lat="41.23937" lon="44.63281">
        <ele>979.700539</ele>
        <time>2021-08-13T16:43:12.707Z</time>
      </trkpt>
      <trkpt lat="41.24025" lon="44.62999">
        <ele>988.00445</ele>
        <time>2021-08-13T16:45:15.705Z</time>
      </trkpt>
      <trkpt lat="41.24092" lon="44.62718">
        <ele>996.558376</ele>
        <time>2021-08-13T16:47:11.834Z</time>
      </trkpt>
      <trkpt lat="41.24146" lon="44.62481">
        <ele>1003.982529</ele>
        <time>2021-08-13T16:48:52.019Z</time>
      </trkpt>
      <trkpt lat="41.24182" lon="44.62434">
        <ele>1006.031674</ele>
        <time>2021-08-13T16:49:19.193Z</time>
      </trkpt>
      <trkpt lat="41.24199" lon="44.62415">
        <ele>1006.931998</ele>
        <time>2021-08-13T16:49:31.631Z</time>
      </trkpt>
      <trkpt lat="41.24208" lon="44.62392">
        <ele>1007.742182</ele>
        <time>2021-08-13T16:49:42.067Z</time>
      </trkpt>
      <trkpt lat="41.243" lon="44.61906">
        <ele>1022.987012</ele>
        <time>2021-08-13T16:53:05.449Z</time>
      </trkpt>
      <trkpt lat="41.24347" lon="44.61598">
        <ele>1031.613175</ele>
        <time>2021-08-13T16:55:10.073Z</time>
      </trkpt>
      <trkpt lat="41.24348" lon="44.61283">
        <ele>1038.002724</ele>
        <time>2021-08-13T16:56:56.454Z</time>
      </trkpt>
      <trkpt lat="41.24343" lon="44.61011">
        <ele>1043.858396</ele>
        <time>2021-08-13T16:58:32.126Z</time>
      </trkpt>
      <trkpt lat="41.24329" lon="44.6085">
        <ele>1047.882209</ele>
        <time>2021-08-13T16:59:33.639Z</time>
      </trkpt>
      <trkpt lat="41.2426" lon="44.60459">
        <ele>1058.601416</ele>
        <time>2021-08-13T17:02:09.458Z</time>
      </trkpt>
      <trkpt lat="41.24165" lon="44.60209">
        <ele>1065.631588</ele>
        <time>2021-08-13T17:03:52.767Z</time>
      </trkpt>
      <trkpt lat="41.24073" lon="44.59931">
        <ele>1073.530826</ele>
        <time>2021-08-13T17:05:49.255Z</time>
      </trkpt>
      <trkpt lat="41.24028" lon="44.5978">
        <ele>1077.549497</ele>
        <time>2021-08-13T17:06:50.013Z</time>
      </trkpt>
      <trkpt lat="41.24015" lon="44.59747">
        <ele>1078.465128</ele>
        <time>2021-08-13T17:07:03.656Z</time>
      </trkpt>
      <trkpt lat="41.23975" lon="44.59682">
        <ele>1080.630554</ele>
        <time>2021-08-13T17:07:34.868Z</time>
      </trkpt>
      <trkpt lat="41.23915" lon="44.59585">
        <ele>1083.906479</ele>
        <time>2021-08-13T17:08:21.607Z</time>
      </trkpt>
      <trkpt lat="41.2382" lon="44.59431">
        <ele>1090.326625</ele>
        <time>2021-08-13T17:09:42.517Z</time>
      </trkpt>
      <trkpt lat="41.23775" lon="44.59377">
        <ele>1093.101052</ele>
        <time>2021-08-13T17:10:18.599Z</time>
      </trkpt>
      <trkpt lat="41.23714" lon="44.59286">
        <ele>1097.732865</ele>
        <time>2021-08-13T17:11:17.362Z</time>
      </trkpt>
      <trkpt lat="41.23676" lon="44.59214">
        <ele>1101.104501</ele>
        <time>2021-08-13T17:11:58.723Z</time>
      </trkpt>
      <trkpt lat="41.23654" lon="44.5916">
        <ele>1102.927201</ele>
        <time>2021-08-13T17:12:24.438Z</time>
      </trkpt>
      <trkpt lat="41.23604" lon="44.5909">
        <ele>1102.574453</ele>
        <time>2021-08-13T17:12:55.515Z</time>
      </trkpt>
      <trkpt lat="41.23596" lon="44.59067">
        <ele>1102.484683</ele>
        <time>2021-08-13T17:13:01.042Z</time>
      </trkpt>
      <trkpt lat="41.23604" lon="44.5898">
        <ele>1102.164256</ele>
        <time>2021-08-13T17:13:16.560Z</time>
      </trkpt>
      <trkpt lat="41.23589" lon="44.58921">
        <ele>1099.491987</ele>
        <time>2021-08-13T17:13:26.362Z</time>
      </trkpt>
      <trkpt lat="41.23545" lon="44.58845">
        <ele>1093.996368</ele>
        <time>2021-08-13T17:13:40.448Z</time>
      </trkpt>
      <trkpt lat="41.23492" lon="44.58795">
        <ele>1088.970515</ele>
        <time>2021-08-13T17:13:52.967Z</time>
      </trkpt>
      <trkpt lat="41.23413" lon="44.58762">
        <ele>1085.230014</ele>
        <time>2021-08-13T17:14:09.475Z</time>
      </trkpt>
      <trkpt lat="41.23394" lon="44.58766">
        <ele>1084.457074</ele>
        <time>2021-08-13T17:14:13.710Z</time>
      </trkpt>
      <trkpt lat="41.23374" lon="44.58777">
        <ele>1083.556994</ele>
        <time>2021-08-13T17:14:18.375Z</time>
      </trkpt>
      <trkpt lat="41.23281" lon="44.58847">
        <ele>1080.391907</ele>
        <time>2021-08-13T17:14:49.819Z</time>
      </trkpt>
      <trkpt lat="41.23216" lon="44.58914">
        <ele>1079.497192</ele>
        <time>2021-08-13T17:15:22.097Z</time>
      </trkpt>
      <trkpt lat="41.23198" lon="44.5892">
        <ele>1079.298114</ele>
        <time>2021-08-13T17:15:27.145Z</time>
      </trkpt>
      <trkpt lat="41.23186" lon="44.58916">
        <ele>1079.160243</ele>
        <time>2021-08-13T17:15:30.467Z</time>
      </trkpt>
      <trkpt lat="41.23178" lon="44.58903">
        <ele>1079.022213</ele>
        <time>2021-08-13T17:15:33.372Z</time>
      </trkpt>
      <trkpt lat="41.23163" lon="44.58778">
        <ele>1069.583061</ele>
        <time>2021-08-13T17:15:52.172Z</time>
      </trkpt>
      <trkpt lat="41.23168" lon="44.58718">
        <ele>1064.487401</ele>
        <time>2021-08-13T17:16:00.579Z</time>
      </trkpt>
      <trkpt lat="41.23167" lon="44.58671">
        <ele>1060.607075</ele>
        <time>2021-08-13T17:16:06.879Z</time>
      </trkpt>
      <trkpt lat="41.23175" lon="44.58625">
        <ele>1056.02994</ele>
        <time>2021-08-13T17:16:13.439Z</time>
      </trkpt>
      <trkpt lat="41.23168" lon="44.58607">
        <ele>1053.932559</ele>
        <time>2021-08-13T17:16:16.172Z</time>
      </trkpt>
      <trkpt lat="41.23156" lon="44.58593">
        <ele>1051.661955</ele>
        <time>2021-08-13T17:16:19.148Z</time>
      </trkpt>
      <trkpt lat="41.23124" lon="44.58584">
        <ele>1047.174969</ele>
        <time>2021-08-13T17:16:25.004Z</time>
      </trkpt>
      <trkpt lat="41.23107" lon="44.58566">
        <ele>1044.166393</ele>
        <time>2021-08-13T17:16:28.967Z</time>
      </trkpt>
      <trkpt lat="41.23091" lon="44.58559">
        <ele>1041.837545</ele>
        <time>2021-08-13T17:16:32.060Z</time>
      </trkpt>
      <trkpt lat="41.23035" lon="44.58566">
        <ele>1034.083983</ele>
        <time>2021-08-13T17:16:42.541Z</time>
      </trkpt>
      <trkpt lat="41.23007" lon="44.58556">
        <ele>1032.588376</ele>
        <time>2021-08-13T17:16:48.092Z</time>
      </trkpt>
      <trkpt lat="41.22951" lon="44.58514">
        <ele>1029.38426</ele>
        <time>2021-08-13T17:17:01.310Z</time>
      </trkpt>
      <trkpt lat="41.22914" lon="44.58502">
        <ele>1027.511866</ele>
        <time>2021-08-13T17:17:09.977Z</time>
      </trkpt>
      <trkpt lat="41.22894" lon="44.58518">
        <ele>1026.328498</ele>
        <time>2021-08-13T17:17:16.077Z</time>
      </trkpt>
      <trkpt lat="41.22879" lon="44.58564">
        <ele>1024.896358</ele>
        <time>2021-08-13T17:17:26.546Z</time>
      </trkpt>
      <trkpt lat="41.22866" lon="44.58567">
        <ele>1024.715136</ele>
        <time>2021-08-13T17:17:30.365Z</time>
      </trkpt>
      <trkpt lat="41.22853" lon="44.58558">
        <ele>1024.517361</ele>
        <time>2021-08-13T17:17:34.551Z</time>
      </trkpt>
      <trkpt lat="41.22828" lon="44.58502">
        <ele>1023.831756</ele>
        <time>2021-08-13T17:17:48.470Z</time>
      </trkpt>
      <trkpt lat="41.22802" lon="44.58459">
        <ele>1023.248717</ele>
        <time>2021-08-13T17:17:59.607Z</time>
      </trkpt>
      <trkpt lat="41.22761" lon="44.58419">
        <ele>1022.52069</ele>
        <time>2021-08-13T17:18:12.201Z</time>
      </trkpt>
      <trkpt lat="41.2269" lon="44.5838">
        <ele>1019.03337</ele>
        <time>2021-08-13T17:18:29.420Z</time>
      </trkpt>
      <trkpt lat="41.22645" lon="44.58334">
        <ele>1016.43061</ele>
        <time>2021-08-13T17:18:41.339Z</time>
      </trkpt>
      <trkpt lat="41.22599" lon="44.58306">
        <ele>1013.982351</ele>
        <time>2021-08-13T17:18:51.817Z</time>
      </trkpt>
      <trkpt lat="41.22475" lon="44.5819">
        <ele>1004.408837</ele>
        <time>2021-08-13T17:19:22.534Z</time>
      </trkpt>
      <trkpt lat="41.22425" lon="44.58143">
        <ele>1001.072771</ele>
        <time>2021-08-13T17:19:35.027Z</time>
      </trkpt>
      <trkpt lat="41.22397" lon="44.58107">
        <ele>999.105792</ele>
        <time>2021-08-13T17:19:43.226Z</time>
      </trkpt>
      <trkpt lat="41.22287" lon="44.57972">
        <ele>992.923382</ele>
        <time>2021-08-13T17:20:15.485Z</time>
      </trkpt>
      <trkpt lat="41.22247" lon="44.57914">
        <ele>991.637872</ele>
        <time>2021-08-13T17:20:29.850Z</time>
      </trkpt>
      <trkpt lat="41.22244" lon="44.57893">
        <ele>991.295305</ele>
        <time>2021-08-13T17:20:33.720Z</time>
      </trkpt>
      <trkpt lat="41.22236" lon="44.57866">
        <ele>990.820225</ele>
        <time>2021-08-13T17:20:39.680Z</time>
      </trkpt>
      <trkpt lat="41.2223" lon="44.57858">
        <ele>990.626527</ele>
        <time>2021-08-13T17:20:42.047Z</time>
      </trkpt>
      <trkpt lat="41.22166" lon="44.57833">
        <ele>990.603792</ele>
        <time>2021-08-13T17:21:02.506Z</time>
      </trkpt>
      <trkpt lat="41.2211" lon="44.57801">
        <ele>991.545608</ele>
        <time>2021-08-13T17:21:25.721Z</time>
      </trkpt>
      <trkpt lat="41.2191" lon="44.57659">
        <ele>996.791564</ele>
        <time>2021-08-13T17:23:11.691Z</time>
      </trkpt>
      <trkpt lat="41.21849" lon="44.57562">
        <ele>999.136064</ele>
        <time>2021-08-13T17:23:54.758Z</time>
      </trkpt>
      <trkpt lat="41.21701" lon="44.57363">
        <ele>1004.039874</ele>
        <time>2021-08-13T17:25:26.144Z</time>
      </trkpt>
      <trkpt lat="41.21568" lon="44.5713">
        <ele>1009.818786</ele>
        <time>2021-08-13T17:27:05.737Z</time>
      </trkpt>
      <trkpt lat="41.21513" lon="44.57017">
        <ele>1013.156066</ele>
        <time>2021-08-13T17:27:57.610Z</time>
      </trkpt>
      <trkpt lat="41.21407" lon="44.5683">
        <ele>1019.484596</ele>
        <time>2021-08-13T17:29:30.093Z</time>
      </trkpt>
      <trkpt lat="41.2139" lon="44.56785">
        <ele>1020.752745</ele>
        <time>2021-08-13T17:29:49.006Z</time>
      </trkpt>
      <trkpt lat="41.21348" lon="44.56747">
        <ele>1022.414405</ele>
        <time>2021-08-13T17:30:13.231Z</time>
      </trkpt>
      <trkpt lat="41.21285" lon="44.56626">
        <ele>1026.313865</ele>
        <time>2021-08-13T17:31:06.396Z</time>
      </trkpt>
      <trkpt lat="41.21211" lon="44.56523">
        <ele>1030.252759</ele>
        <time>2021-08-13T17:32:02.650Z</time>
      </trkpt>
      <trkpt lat="41.21182" lon="44.56468">
        <ele>1033.289749</ele>
        <time>2021-08-13T17:32:32.034Z</time>
      </trkpt>
      <trkpt lat="41.21148" lon="44.56432">
        <ele>1035.995517</ele>
        <time>2021-08-13T17:32:59.408Z</time>
      </trkpt>
      <trkpt lat="41.21148" lon="44.56391">
        <ele>1037.953206</ele>
        <time>2021-08-13T17:33:20.582Z</time>
      </trkpt>
      <trkpt lat="41.21135" lon="44.56372">
        <ele>1039.142877</ele>
        <time>2021-08-13T17:33:33.815Z</time>
      </trkpt>
      <trkpt lat="41.21086" lon="44.56285">
        <ele>1045.421019</ele>
        <time>2021-08-13T17:34:36.702Z</time>
      </trkpt>
      <trkpt lat="41.21057" lon="44.56151">
        <ele>1054.818744</ele>
        <time>2021-08-13T17:36:08.367Z</time>
      </trkpt>
      <trkpt lat="41.21046" lon="44.56091">
        <ele>1058.369029</ele>
        <time>2021-08-13T17:36:45.691Z</time>
      </trkpt>
      <trkpt lat="41.21046" lon="44.56059">
        <ele>1059.448387</ele>
        <time>2021-08-13T17:37:02.627Z</time>
      </trkpt>
      <trkpt lat="41.21057" lon="44.56025">
        <ele>1060.693072</ele>
        <time>2021-08-13T17:37:21.249Z</time>
      </trkpt>
      <trkpt lat="41.21072" lon="44.56">
        <ele>1061.787414</ele>
        <time>2021-08-13T17:37:40.822Z</time>
      </trkpt>
      <trkpt lat="41.21073" lon="44.55968">
        <ele>1062.861007</ele>
        <time>2021-08-13T17:37:57.805Z</time>
      </trkpt>
      <trkpt lat="41.21066" lon="44.5595">
        <ele>1063.55542</ele>
        <time>2021-08-13T17:38:09.576Z</time>
      </trkpt>
      <trkpt lat="41.2104" lon="44.55955">
        <ele>1064.743998</ele>
        <time>2021-08-13T17:38:24.557Z</time>
      </trkpt>
      <trkpt lat="41.20988" lon="44.55952">
        <ele>1066.578094</ele>
        <time>2021-08-13T17:38:53.919Z</time>
      </trkpt>
      <trkpt lat="41.20924" lon="44.55912">
        <ele>1068.507825</ele>
        <time>2021-08-13T17:39:32.039Z</time>
      </trkpt>
      <trkpt lat="41.20895" lon="44.55897">
        <ele>1069.365373</ele>
        <time>2021-08-13T17:39:50.290Z</time>
      </trkpt>
      <trkpt lat="41.20833" lon="44.55655">
        <ele>1081.142526</ele>
        <time>2021-08-13T17:42:48.081Z</time>
      </trkpt>
      <trkpt lat="41.20819" lon="44.55595">
        <ele>1084.362161</ele>
        <time>2021-08-13T17:43:36.531Z</time>
      </trkpt>
      <trkpt lat="41.20815" lon="44.55562">
        <ele>1085.660025</ele>
        <time>2021-08-13T17:43:59.869Z</time>
      </trkpt>
      <trkpt lat="41.20797" lon="44.55509">
        <ele>1087.948359</ele>
        <time>2021-08-13T17:44:38.902Z</time>
      </trkpt>
      <trkpt lat="41.20803" lon="44.55447">
        <ele>1090.42811</ele>
        <time>2021-08-13T17:45:17.229Z</time>
      </trkpt>
      <trkpt lat="41.20791" lon="44.55418">
        <ele>1091.718246</ele>
        <time>2021-08-13T17:45:34.922Z</time>
      </trkpt>
      <trkpt lat="41.20761" lon="44.55426">
        <ele>1093.236308</ele>
        <time>2021-08-13T17:45:54.657Z</time>
      </trkpt>
      <trkpt lat="41.20682" lon="44.55413">
        <ele>1094.162767</ele>
        <time>2021-08-13T17:46:40.888Z</time>
      </trkpt>
      <trkpt lat="41.2061" lon="44.55393">
        <ele>1095.032466</ele>
        <time>2021-08-13T17:47:21.571Z</time>
      </trkpt>
      <trkpt lat="41.20532" lon="44.55386">
        <ele>1095.899946</ele>
        <time>2021-08-13T17:48:06.286Z</time>
      </trkpt>
      <trkpt lat="41.20373" lon="44.55349">
        <ele>1097.236755</ele>
        <time>2021-08-13T17:49:41.671Z</time>
      </trkpt>
      <trkpt lat="41.20303" lon="44.55325">
        <ele>1097.13915</ele>
        <time>2021-08-13T17:50:19.714Z</time>
      </trkpt>
      <trkpt lat="41.20244" lon="44.5529">
        <ele>1097.049799</ele>
        <time>2021-08-13T17:50:50.791Z</time>
      </trkpt>
      <trkpt lat="41.20179" lon="44.55269">
        <ele>1095.910885</ele>
        <time>2021-08-13T17:51:20.431Z</time>
      </trkpt>
      <trkpt lat="41.20089" lon="44.55247">
        <ele>1094.17575</ele>
        <time>2021-08-13T17:51:59.798Z</time>
      </trkpt>
      <trkpt lat="41.20038" lon="44.5524">
        <ele>1093.633348</ele>
        <time>2021-08-13T17:52:22.416Z</time>
      </trkpt>
      <trkpt lat="41.19976" lon="44.55206">
        <ele>1093.683862</ele>
        <time>2021-08-13T17:52:54.861Z</time>
      </trkpt>
      <trkpt lat="41.199" lon="44.55176">
        <ele>1093.743218</ele>
        <time>2021-08-13T17:53:39.854Z</time>
      </trkpt>
      <trkpt lat="41.19877" lon="44.55152">
        <ele>1094.179216</ele>
        <time>2021-08-13T17:53:58.073Z</time>
      </trkpt>
      <trkpt lat="41.19859" lon="44.55104">
        <ele>1095.159459</ele>
        <time>2021-08-13T17:54:25.610Z</time>
      </trkpt>
      <trkpt lat="41.19835" lon="44.55078">
        <ele>1095.919889</ele>
        <time>2021-08-13T17:54:47.304Z</time>
      </trkpt>
      <trkpt lat="41.19756" lon="44.55041">
        <ele>1097.957373</ele>
        <time>2021-08-13T17:55:42.281Z</time>
      </trkpt>
      <trkpt lat="41.19742" lon="44.55028">
        <ele>1098.331387</ele>
        <time>2021-08-13T17:55:54.315Z</time>
      </trkpt>
      <trkpt lat="41.19732" lon="44.55019">
        <ele>1098.557931</ele>
        <time>2021-08-13T17:56:01.292Z</time>
      </trkpt>
      <trkpt lat="41.19714" lon="44.5499">
        <ele>1099.103287</ele>
        <time>2021-08-13T17:56:19.526Z</time>
      </trkpt>
      <trkpt lat="41.19689" lon="44.54946">
        <ele>1099.914434</ele>
        <time>2021-08-13T17:56:45.467Z</time>
      </trkpt>
      <trkpt lat="41.19666" lon="44.54907">
        <ele>1100.637258</ele>
        <time>2021-08-13T17:57:08.288Z</time>
      </trkpt>
      <trkpt lat="41.19594" lon="44.54867">
        <ele>1102.338871</ele>
        <time>2021-08-13T17:57:56.390Z</time>
      </trkpt>
      <trkpt lat="41.19531" lon="44.54802">
        <ele>1104.38605</ele>
        <time>2021-08-13T17:58:48.243Z</time>
      </trkpt>
      <trkpt lat="41.19496" lon="44.54733">
        <ele>1105.993914</ele>
        <time>2021-08-13T17:59:31.395Z</time>
      </trkpt>
      <trkpt lat="41.19365" lon="44.54603">
        <ele>1111.678385</ele>
        <time>2021-08-13T18:01:28.880Z</time>
      </trkpt>
      <trkpt lat="41.19292" lon="44.54526">
        <ele>1112.623868</ele>
        <time>2021-08-13T18:02:36.755Z</time>
      </trkpt>
      <trkpt lat="41.19244" lon="44.54482">
        <ele>1112.623868</ele>
        <time>2021-08-13T18:03:19.312Z</time>
      </trkpt>
      <trkpt lat="41.19219" lon="44.54459">
        <ele>1112.623868</ele>
        <time>2021-08-13T18:03:41.133Z</time>
      </trkpt>
      <trkpt lat="41.19178" lon="44.54418">
        <ele>1112.623868</ele>
        <time>2021-08-13T18:04:15.973Z</time>
      </trkpt>
      <trkpt lat="41.19173" lon="44.54425">
        <ele>1112.623868</ele>
        <time>2021-08-13T18:04:21.446Z</time>
      </trkpt>
      <trkpt lat="41.19163" lon="44.54428">
        <ele>1112.623868</ele>
        <time>2021-08-13T18:04:27.875Z</time>
      </trkpt>
      <trkpt lat="41.19157" lon="44.54429">
        <ele>1112.623868</ele>
        <time>2021-08-13T18:04:32.286Z</time>
      </trkpt>
    </trkseg>
  </trk>
</gpx>